<?xml version="1.0" encoding="UTF-8" standalone="no" ?>
<gpx xmlns="http://www.topografix.com/GPX/1/1" xmlns:xsi="http://www.w3.org/2001/XMLSchema-instance" xsi:schemaLocation="http://www.topografix.com/GPX/1/1 http://www.topografix.com/GPX/1/1/gpx.xsd" version="1.1" creator="VisuGPX - https://www.visugpx.com">
  <metadata>
    <name>Mandeure, son belvédère et ses singles</name>
    <desc><![CDATA[Temps incertain mais finalement clément et terrain parfait. ]]></desc>
  </metadata>
  <wpt lat="47.49951" lon="6.75744">
    <ele>371</ele>
    <name><![CDATA[Point de cheminement 1]]></name>
    <desc><![CDATA[]]></desc>
  </wpt>
  <wpt lat="47.48338" lon="6.76898">
    <ele>310</ele>
    <name><![CDATA[Point de cheminement 2]]></name>
    <desc><![CDATA[]]></desc>
  </wpt>
  <wpt lat="47.46721" lon="6.77934">
    <ele>369</ele>
    <name><![CDATA[Point de cheminement 3]]></name>
    <desc><![CDATA[]]></desc>
  </wpt>
  <wpt lat="47.44792" lon="6.79938">
    <ele>356</ele>
    <name><![CDATA[Point de cheminement 4]]></name>
    <desc><![CDATA[]]></desc>
  </wpt>
  <wpt lat="47.43264" lon="6.7955">
    <ele>469</ele>
    <name><![CDATA[Point de cheminement 5]]></name>
    <desc><![CDATA[]]></desc>
  </wpt>
  <wpt lat="47.42191" lon="6.8037">
    <ele>521</ele>
    <name><![CDATA[Point de cheminement 6]]></name>
    <desc><![CDATA[]]></desc>
  </wpt>
  <wpt lat="47.42958" lon="6.80832">
    <ele>427</ele>
    <name><![CDATA[Point de cheminement 7]]></name>
    <desc><![CDATA[]]></desc>
  </wpt>
  <wpt lat="47.42882" lon="6.80321">
    <ele>463</ele>
    <name><![CDATA[Point de cheminement 8]]></name>
    <desc><![CDATA[]]></desc>
  </wpt>
  <wpt lat="47.42769" lon="6.79968">
    <ele>485</ele>
    <name><![CDATA[Point de cheminement 9]]></name>
    <desc><![CDATA[]]></desc>
  </wpt>
  <wpt lat="47.44551" lon="6.79518">
    <ele>357</ele>
    <name><![CDATA[Point de cheminement 10]]></name>
    <desc><![CDATA[]]></desc>
  </wpt>
  <wpt lat="47.46081" lon="6.78352">
    <ele>407</ele>
    <name><![CDATA[Point de cheminement 11]]></name>
    <desc><![CDATA[]]></desc>
  </wpt>
  <wpt lat="47.4915" lon="6.77339">
    <ele>310</ele>
    <name><![CDATA[Point de cheminement 12]]></name>
    <desc><![CDATA[]]></desc>
  </wpt>
  <wpt lat="47.51711" lon="6.77618">
    <ele>390</ele>
    <name><![CDATA[Point de cheminement 13]]></name>
    <desc><![CDATA[]]></desc>
  </wpt>
  <trk>
    <name><![CDATA[Rue Antoine Coysevox]]></name>
    <desc><![CDATA[]]></desc>
    <trkseg>
      <trkpt lat="47.51798" lon="6.7749">
        <ele>388</ele>
        <time>2015-08-23T07:13:23.000Z</time>
      </trkpt>
      <trkpt lat="47.51802" lon="6.77491">
        <ele>388</ele>
        <time>2015-08-23T07:13:25.000Z</time>
      </trkpt>
      <trkpt lat="47.51805" lon="6.77492">
        <ele>388</ele>
        <time>2015-08-23T07:13:26.000Z</time>
      </trkpt>
      <trkpt lat="47.51808" lon="6.7749">
        <ele>388</ele>
        <time>2015-08-23T07:13:28.000Z</time>
      </trkpt>
      <trkpt lat="47.51809" lon="6.77488">
        <ele>388</ele>
        <time>2015-08-23T07:13:29.000Z</time>
      </trkpt>
      <trkpt lat="47.5181" lon="6.77486">
        <ele>388</ele>
        <time>2015-08-23T07:15:03.000Z</time>
      </trkpt>
      <trkpt lat="47.51809" lon="6.77481">
        <ele>388</ele>
        <time>2015-08-23T07:15:04.000Z</time>
      </trkpt>
      <trkpt lat="47.51813" lon="6.77483">
        <ele>388</ele>
        <time>2015-08-23T07:15:25.000Z</time>
      </trkpt>
      <trkpt lat="47.51813" lon="6.77485">
        <ele>388</ele>
        <time>2015-08-23T07:15:26.000Z</time>
      </trkpt>
      <trkpt lat="47.5181" lon="6.77482">
        <ele>388</ele>
        <time>2015-08-23T07:18:18.000Z</time>
      </trkpt>
      <trkpt lat="47.51809" lon="6.7748">
        <ele>388</ele>
        <time>2015-08-23T07:18:19.000Z</time>
      </trkpt>
      <trkpt lat="47.5181" lon="6.77487">
        <ele>388</ele>
        <time>2015-08-23T07:18:27.000Z</time>
      </trkpt>
      <trkpt lat="47.51807" lon="6.77487">
        <ele>388</ele>
        <time>2015-08-23T07:18:28.000Z</time>
      </trkpt>
      <trkpt lat="47.51803" lon="6.77488">
        <ele>388</ele>
        <time>2015-08-23T07:18:29.000Z</time>
      </trkpt>
      <trkpt lat="47.518" lon="6.77487">
        <ele>388</ele>
        <time>2015-08-23T07:18:30.000Z</time>
      </trkpt>
      <trkpt lat="47.51797" lon="6.77485">
        <ele>388</ele>
        <time>2015-08-23T07:18:31.000Z</time>
      </trkpt>
      <trkpt lat="47.51795" lon="6.77483">
        <ele>388</ele>
        <time>2015-08-23T07:18:32.000Z</time>
      </trkpt>
      <trkpt lat="47.51792" lon="6.77481">
        <ele>388</ele>
        <time>2015-08-23T07:18:33.000Z</time>
      </trkpt>
      <trkpt lat="47.51789" lon="6.77479">
        <ele>388</ele>
        <time>2015-08-23T07:18:34.000Z</time>
      </trkpt>
      <trkpt lat="47.51785" lon="6.77478">
        <ele>388</ele>
        <time>2015-08-23T07:18:35.000Z</time>
      </trkpt>
      <trkpt lat="47.51782" lon="6.77476">
        <ele>388</ele>
        <time>2015-08-23T07:18:36.000Z</time>
      </trkpt>
      <trkpt lat="47.51778" lon="6.77476">
        <ele>388</ele>
        <time>2015-08-23T07:18:37.000Z</time>
      </trkpt>
      <trkpt lat="47.51775" lon="6.77475">
        <ele>388</ele>
        <time>2015-08-23T07:18:38.000Z</time>
      </trkpt>
      <trkpt lat="47.51771" lon="6.77475">
        <ele>388</ele>
        <time>2015-08-23T07:18:39.000Z</time>
      </trkpt>
      <trkpt lat="47.51768" lon="6.77474">
        <ele>388</ele>
        <time>2015-08-23T07:18:40.000Z</time>
      </trkpt>
      <trkpt lat="47.51765" lon="6.77473">
        <ele>388</ele>
        <time>2015-08-23T07:18:41.000Z</time>
      </trkpt>
      <trkpt lat="47.51762" lon="6.77473">
        <ele>388</ele>
        <time>2015-08-23T07:18:42.000Z</time>
      </trkpt>
      <trkpt lat="47.51758" lon="6.77472">
        <ele>388</ele>
        <time>2015-08-23T07:18:43.000Z</time>
      </trkpt>
      <trkpt lat="47.51756" lon="6.77471">
        <ele>388</ele>
        <time>2015-08-23T07:18:44.000Z</time>
      </trkpt>
      <trkpt lat="47.51753" lon="6.7747">
        <ele>388</ele>
        <time>2015-08-23T07:18:45.000Z</time>
      </trkpt>
      <trkpt lat="47.5175" lon="6.7747">
        <ele>388</ele>
        <time>2015-08-23T07:18:46.000Z</time>
      </trkpt>
      <trkpt lat="47.51747" lon="6.77469">
        <ele>389</ele>
        <time>2015-08-23T07:18:47.000Z</time>
      </trkpt>
      <trkpt lat="47.51743" lon="6.77469">
        <ele>389</ele>
        <time>2015-08-23T07:18:48.000Z</time>
      </trkpt>
      <trkpt lat="47.51739" lon="6.77469">
        <ele>389</ele>
        <time>2015-08-23T07:18:49.000Z</time>
      </trkpt>
      <trkpt lat="47.51735" lon="6.77472">
        <ele>389</ele>
        <time>2015-08-23T07:18:50.000Z</time>
      </trkpt>
      <trkpt lat="47.51732" lon="6.77476">
        <ele>389</ele>
        <time>2015-08-23T07:18:51.000Z</time>
      </trkpt>
      <trkpt lat="47.51729" lon="6.77482">
        <ele>389</ele>
        <time>2015-08-23T07:18:52.000Z</time>
      </trkpt>
      <trkpt lat="47.51727" lon="6.77488">
        <ele>389</ele>
        <time>2015-08-23T07:18:53.000Z</time>
      </trkpt>
      <trkpt lat="47.51725" lon="6.77494">
        <ele>389</ele>
        <time>2015-08-23T07:18:54.000Z</time>
      </trkpt>
      <trkpt lat="47.51724" lon="6.77501">
        <ele>390</ele>
        <time>2015-08-23T07:18:55.000Z</time>
      </trkpt>
      <trkpt lat="47.51723" lon="6.77508">
        <ele>390</ele>
        <time>2015-08-23T07:18:56.000Z</time>
      </trkpt>
      <trkpt lat="47.51722" lon="6.77515">
        <ele>390</ele>
        <time>2015-08-23T07:18:57.000Z</time>
      </trkpt>
      <trkpt lat="47.51721" lon="6.77521">
        <ele>390</ele>
        <time>2015-08-23T07:18:58.000Z</time>
      </trkpt>
      <trkpt lat="47.51719" lon="6.77527">
        <ele>390</ele>
        <time>2015-08-23T07:18:59.000Z</time>
      </trkpt>
      <trkpt lat="47.51718" lon="6.77533">
        <ele>390</ele>
        <time>2015-08-23T07:19:00.000Z</time>
      </trkpt>
      <trkpt lat="47.51716" lon="6.77538">
        <ele>390</ele>
        <time>2015-08-23T07:19:01.000Z</time>
      </trkpt>
      <trkpt lat="47.51715" lon="6.77543">
        <ele>390</ele>
        <time>2015-08-23T07:19:02.000Z</time>
      </trkpt>
      <trkpt lat="47.51712" lon="6.77548">
        <ele>390</ele>
        <time>2015-08-23T07:19:03.000Z</time>
      </trkpt>
      <trkpt lat="47.5171" lon="6.77551">
        <ele>390</ele>
        <time>2015-08-23T07:19:04.000Z</time>
      </trkpt>
      <trkpt lat="47.51707" lon="6.77551">
        <ele>390</ele>
        <time>2015-08-23T07:19:05.000Z</time>
      </trkpt>
      <trkpt lat="47.51703" lon="6.77549">
        <ele>390</ele>
        <time>2015-08-23T07:19:06.000Z</time>
      </trkpt>
      <trkpt lat="47.51699" lon="6.77546">
        <ele>390</ele>
        <time>2015-08-23T07:19:07.000Z</time>
      </trkpt>
      <trkpt lat="47.51695" lon="6.7754">
        <ele>390</ele>
        <time>2015-08-23T07:19:08.000Z</time>
      </trkpt>
      <trkpt lat="47.51688" lon="6.77526">
        <ele>390</ele>
        <time>2015-08-23T07:19:09.000Z</time>
      </trkpt>
      <trkpt lat="47.51684" lon="6.77521">
        <ele>390</ele>
        <time>2015-08-23T07:19:10.000Z</time>
      </trkpt>
      <trkpt lat="47.51679" lon="6.77516">
        <ele>390</ele>
        <time>2015-08-23T07:19:11.000Z</time>
      </trkpt>
      <trkpt lat="47.51675" lon="6.7751">
        <ele>389</ele>
        <time>2015-08-23T07:19:12.000Z</time>
      </trkpt>
      <trkpt lat="47.5167" lon="6.77505">
        <ele>389</ele>
        <time>2015-08-23T07:19:13.000Z</time>
      </trkpt>
      <trkpt lat="47.51665" lon="6.77499">
        <ele>389</ele>
        <time>2015-08-23T07:19:14.000Z</time>
      </trkpt>
      <trkpt lat="47.51661" lon="6.77494">
        <ele>388</ele>
        <time>2015-08-23T07:19:15.000Z</time>
      </trkpt>
      <trkpt lat="47.51656" lon="6.77488">
        <ele>387</ele>
        <time>2015-08-23T07:19:16.000Z</time>
      </trkpt>
      <trkpt lat="47.51652" lon="6.77482">
        <ele>387</ele>
        <time>2015-08-23T07:19:17.000Z</time>
      </trkpt>
      <trkpt lat="47.51648" lon="6.77477">
        <ele>387</ele>
        <time>2015-08-23T07:19:18.000Z</time>
      </trkpt>
      <trkpt lat="47.51642" lon="6.77471">
        <ele>386</ele>
        <time>2015-08-23T07:19:19.000Z</time>
      </trkpt>
      <trkpt lat="47.51636" lon="6.77465">
        <ele>386</ele>
        <time>2015-08-23T07:19:20.000Z</time>
      </trkpt>
      <trkpt lat="47.51626" lon="6.77452">
        <ele>386</ele>
        <time>2015-08-23T07:19:22.000Z</time>
      </trkpt>
      <trkpt lat="47.5162" lon="6.77446">
        <ele>385</ele>
        <time>2015-08-23T07:19:23.000Z</time>
      </trkpt>
      <trkpt lat="47.51613" lon="6.77439">
        <ele>385</ele>
        <time>2015-08-23T07:19:24.000Z</time>
      </trkpt>
      <trkpt lat="47.51607" lon="6.77432">
        <ele>385</ele>
        <time>2015-08-23T07:19:25.000Z</time>
      </trkpt>
      <trkpt lat="47.51601" lon="6.77424">
        <ele>384</ele>
        <time>2015-08-23T07:19:26.000Z</time>
      </trkpt>
      <trkpt lat="47.51595" lon="6.77416">
        <ele>383</ele>
        <time>2015-08-23T07:19:27.000Z</time>
      </trkpt>
      <trkpt lat="47.51589" lon="6.77409">
        <ele>383</ele>
        <time>2015-08-23T07:19:28.000Z</time>
      </trkpt>
      <trkpt lat="47.51582" lon="6.77401">
        <ele>382</ele>
        <time>2015-08-23T07:19:29.000Z</time>
      </trkpt>
      <trkpt lat="47.51576" lon="6.77393">
        <ele>381</ele>
        <time>2015-08-23T07:19:30.000Z</time>
      </trkpt>
      <trkpt lat="47.51569" lon="6.77386">
        <ele>381</ele>
        <time>2015-08-23T07:19:31.000Z</time>
      </trkpt>
      <trkpt lat="47.51562" lon="6.77378">
        <ele>381</ele>
        <time>2015-08-23T07:19:32.000Z</time>
      </trkpt>
      <trkpt lat="47.51555" lon="6.7737">
        <ele>381</ele>
        <time>2015-08-23T07:19:33.000Z</time>
      </trkpt>
      <trkpt lat="47.51548" lon="6.77361">
        <ele>380</ele>
        <time>2015-08-23T07:19:34.000Z</time>
      </trkpt>
      <trkpt lat="47.51541" lon="6.77353">
        <ele>380</ele>
        <time>2015-08-23T07:19:35.000Z</time>
      </trkpt>
      <trkpt lat="47.51533" lon="6.77345">
        <ele>380</ele>
        <time>2015-08-23T07:19:36.000Z</time>
      </trkpt>
      <trkpt lat="47.51526" lon="6.77335">
        <ele>380</ele>
        <time>2015-08-23T07:19:37.000Z</time>
      </trkpt>
      <trkpt lat="47.51518" lon="6.77326">
        <ele>378</ele>
        <time>2015-08-23T07:19:38.000Z</time>
      </trkpt>
      <trkpt lat="47.5151" lon="6.77317">
        <ele>378</ele>
        <time>2015-08-23T07:19:39.000Z</time>
      </trkpt>
      <trkpt lat="47.51503" lon="6.77307">
        <ele>378</ele>
        <time>2015-08-23T07:19:40.000Z</time>
      </trkpt>
      <trkpt lat="47.51496" lon="6.77296">
        <ele>377</ele>
        <time>2015-08-23T07:19:41.000Z</time>
      </trkpt>
      <trkpt lat="47.51492" lon="6.77282">
        <ele>377</ele>
        <time>2015-08-23T07:19:42.000Z</time>
      </trkpt>
      <trkpt lat="47.51489" lon="6.77269">
        <ele>376</ele>
        <time>2015-08-23T07:19:43.000Z</time>
      </trkpt>
      <trkpt lat="47.51487" lon="6.77255">
        <ele>376</ele>
        <time>2015-08-23T07:19:44.000Z</time>
      </trkpt>
      <trkpt lat="47.51487" lon="6.77242">
        <ele>376</ele>
        <time>2015-08-23T07:19:45.000Z</time>
      </trkpt>
      <trkpt lat="47.51485" lon="6.7723">
        <ele>375</ele>
        <time>2015-08-23T07:19:46.000Z</time>
      </trkpt>
      <trkpt lat="47.51485" lon="6.77219">
        <ele>375</ele>
        <time>2015-08-23T07:19:47.000Z</time>
      </trkpt>
      <trkpt lat="47.51484" lon="6.77209">
        <ele>375</ele>
        <time>2015-08-23T07:19:48.000Z</time>
      </trkpt>
      <trkpt lat="47.5148" lon="6.77202">
        <ele>375</ele>
        <time>2015-08-23T07:19:49.000Z</time>
      </trkpt>
      <trkpt lat="47.51474" lon="6.77198">
        <ele>375</ele>
        <time>2015-08-23T07:19:50.000Z</time>
      </trkpt>
      <trkpt lat="47.51467" lon="6.77198">
        <ele>375</ele>
        <time>2015-08-23T07:19:51.000Z</time>
      </trkpt>
      <trkpt lat="47.51459" lon="6.77201">
        <ele>375</ele>
        <time>2015-08-23T07:19:52.000Z</time>
      </trkpt>
      <trkpt lat="47.51452" lon="6.77204">
        <ele>375</ele>
        <time>2015-08-23T07:19:53.000Z</time>
      </trkpt>
      <trkpt lat="47.51445" lon="6.77208">
        <ele>375</ele>
        <time>2015-08-23T07:19:54.000Z</time>
      </trkpt>
      <trkpt lat="47.51438" lon="6.77212">
        <ele>375</ele>
        <time>2015-08-23T07:19:55.000Z</time>
      </trkpt>
      <trkpt lat="47.51431" lon="6.77214">
        <ele>375</ele>
        <time>2015-08-23T07:19:56.000Z</time>
      </trkpt>
      <trkpt lat="47.51424" lon="6.77218">
        <ele>375</ele>
        <time>2015-08-23T07:19:57.000Z</time>
      </trkpt>
      <trkpt lat="47.51418" lon="6.77222">
        <ele>375</ele>
        <time>2015-08-23T07:19:58.000Z</time>
      </trkpt>
      <trkpt lat="47.51412" lon="6.77225">
        <ele>376</ele>
        <time>2015-08-23T07:19:59.000Z</time>
      </trkpt>
      <trkpt lat="47.51406" lon="6.77228">
        <ele>376</ele>
        <time>2015-08-23T07:20:00.000Z</time>
      </trkpt>
      <trkpt lat="47.51401" lon="6.77231">
        <ele>376</ele>
        <time>2015-08-23T07:20:01.000Z</time>
      </trkpt>
      <trkpt lat="47.51395" lon="6.77235">
        <ele>376</ele>
        <time>2015-08-23T07:20:02.000Z</time>
      </trkpt>
      <trkpt lat="47.5139" lon="6.77238">
        <ele>376</ele>
        <time>2015-08-23T07:20:03.000Z</time>
      </trkpt>
      <trkpt lat="47.51385" lon="6.77241">
        <ele>376</ele>
        <time>2015-08-23T07:20:04.000Z</time>
      </trkpt>
      <trkpt lat="47.5138" lon="6.77244">
        <ele>376</ele>
        <time>2015-08-23T07:20:05.000Z</time>
      </trkpt>
      <trkpt lat="47.51375" lon="6.77247">
        <ele>376</ele>
        <time>2015-08-23T07:20:06.000Z</time>
      </trkpt>
      <trkpt lat="47.5137" lon="6.7725">
        <ele>376</ele>
        <time>2015-08-23T07:20:07.000Z</time>
      </trkpt>
      <trkpt lat="47.51366" lon="6.77253">
        <ele>378</ele>
        <time>2015-08-23T07:20:08.000Z</time>
      </trkpt>
      <trkpt lat="47.51362" lon="6.77256">
        <ele>378</ele>
        <time>2015-08-23T07:20:09.000Z</time>
      </trkpt>
      <trkpt lat="47.51358" lon="6.7726">
        <ele>378</ele>
        <time>2015-08-23T07:20:10.000Z</time>
      </trkpt>
      <trkpt lat="47.51355" lon="6.77262">
        <ele>378</ele>
        <time>2015-08-23T07:20:11.000Z</time>
      </trkpt>
      <trkpt lat="47.51352" lon="6.77265">
        <ele>378</ele>
        <time>2015-08-23T07:20:12.000Z</time>
      </trkpt>
      <trkpt lat="47.51349" lon="6.77267">
        <ele>378</ele>
        <time>2015-08-23T07:20:13.000Z</time>
      </trkpt>
      <trkpt lat="47.51346" lon="6.77269">
        <ele>378</ele>
        <time>2015-08-23T07:20:14.000Z</time>
      </trkpt>
      <trkpt lat="47.51343" lon="6.77271">
        <ele>378</ele>
        <time>2015-08-23T07:20:15.000Z</time>
      </trkpt>
      <trkpt lat="47.51341" lon="6.77274">
        <ele>378</ele>
        <time>2015-08-23T07:20:16.000Z</time>
      </trkpt>
      <trkpt lat="47.51339" lon="6.77276">
        <ele>378</ele>
        <time>2015-08-23T07:20:17.000Z</time>
      </trkpt>
      <trkpt lat="47.51336" lon="6.77278">
        <ele>378</ele>
        <time>2015-08-23T07:20:18.000Z</time>
      </trkpt>
      <trkpt lat="47.51334" lon="6.7728">
        <ele>378</ele>
        <time>2015-08-23T07:20:19.000Z</time>
      </trkpt>
      <trkpt lat="47.51331" lon="6.77282">
        <ele>378</ele>
        <time>2015-08-23T07:20:20.000Z</time>
      </trkpt>
      <trkpt lat="47.51328" lon="6.77283">
        <ele>378</ele>
        <time>2015-08-23T07:20:21.000Z</time>
      </trkpt>
      <trkpt lat="47.51326" lon="6.77284">
        <ele>377</ele>
        <time>2015-08-23T07:20:22.000Z</time>
      </trkpt>
      <trkpt lat="47.51323" lon="6.77284">
        <ele>377</ele>
        <time>2015-08-23T07:20:23.000Z</time>
      </trkpt>
      <trkpt lat="47.5132" lon="6.77283">
        <ele>377</ele>
        <time>2015-08-23T07:20:24.000Z</time>
      </trkpt>
      <trkpt lat="47.51317" lon="6.77283">
        <ele>377</ele>
        <time>2015-08-23T07:20:25.000Z</time>
      </trkpt>
      <trkpt lat="47.51314" lon="6.77282">
        <ele>377</ele>
        <time>2015-08-23T07:20:26.000Z</time>
      </trkpt>
      <trkpt lat="47.51311" lon="6.77281">
        <ele>377</ele>
        <time>2015-08-23T07:20:27.000Z</time>
      </trkpt>
      <trkpt lat="47.51309" lon="6.77279">
        <ele>377</ele>
        <time>2015-08-23T07:20:28.000Z</time>
      </trkpt>
      <trkpt lat="47.51306" lon="6.77278">
        <ele>377</ele>
        <time>2015-08-23T07:20:29.000Z</time>
      </trkpt>
      <trkpt lat="47.51303" lon="6.77276">
        <ele>377</ele>
        <time>2015-08-23T07:20:30.000Z</time>
      </trkpt>
      <trkpt lat="47.513" lon="6.77274">
        <ele>377</ele>
        <time>2015-08-23T07:20:31.000Z</time>
      </trkpt>
      <trkpt lat="47.51297" lon="6.77272">
        <ele>377</ele>
        <time>2015-08-23T07:20:32.000Z</time>
      </trkpt>
      <trkpt lat="47.51293" lon="6.7727">
        <ele>377</ele>
        <time>2015-08-23T07:20:33.000Z</time>
      </trkpt>
      <trkpt lat="47.5129" lon="6.77269">
        <ele>377</ele>
        <time>2015-08-23T07:20:34.000Z</time>
      </trkpt>
      <trkpt lat="47.51286" lon="6.77267">
        <ele>377</ele>
        <time>2015-08-23T07:20:35.000Z</time>
      </trkpt>
      <trkpt lat="47.51283" lon="6.77265">
        <ele>377</ele>
        <time>2015-08-23T07:20:36.000Z</time>
      </trkpt>
      <trkpt lat="47.51279" lon="6.77262">
        <ele>377</ele>
        <time>2015-08-23T07:20:37.000Z</time>
      </trkpt>
      <trkpt lat="47.51276" lon="6.7726">
        <ele>377</ele>
        <time>2015-08-23T07:20:38.000Z</time>
      </trkpt>
      <trkpt lat="47.51273" lon="6.77258">
        <ele>377</ele>
        <time>2015-08-23T07:20:39.000Z</time>
      </trkpt>
      <trkpt lat="47.5127" lon="6.77256">
        <ele>378</ele>
        <time>2015-08-23T07:20:40.000Z</time>
      </trkpt>
      <trkpt lat="47.51266" lon="6.77254">
        <ele>378</ele>
        <time>2015-08-23T07:20:41.000Z</time>
      </trkpt>
      <trkpt lat="47.5126" lon="6.77251">
        <ele>378</ele>
        <time>2015-08-23T07:20:42.000Z</time>
      </trkpt>
      <trkpt lat="47.51257" lon="6.77247">
        <ele>379</ele>
        <time>2015-08-23T07:20:43.000Z</time>
      </trkpt>
      <trkpt lat="47.51254" lon="6.77242">
        <ele>379</ele>
        <time>2015-08-23T07:20:44.000Z</time>
      </trkpt>
      <trkpt lat="47.51252" lon="6.77238">
        <ele>378</ele>
        <time>2015-08-23T07:20:45.000Z</time>
      </trkpt>
      <trkpt lat="47.5125" lon="6.77233">
        <ele>378</ele>
        <time>2015-08-23T07:20:46.000Z</time>
      </trkpt>
      <trkpt lat="47.51247" lon="6.77228">
        <ele>377</ele>
        <time>2015-08-23T07:20:47.000Z</time>
      </trkpt>
      <trkpt lat="47.51245" lon="6.77223">
        <ele>376</ele>
        <time>2015-08-23T07:20:48.000Z</time>
      </trkpt>
      <trkpt lat="47.51241" lon="6.77218">
        <ele>376</ele>
        <time>2015-08-23T07:20:49.000Z</time>
      </trkpt>
      <trkpt lat="47.51237" lon="6.77212">
        <ele>376</ele>
        <time>2015-08-23T07:20:50.000Z</time>
      </trkpt>
      <trkpt lat="47.51235" lon="6.77205">
        <ele>376</ele>
        <time>2015-08-23T07:20:51.000Z</time>
      </trkpt>
      <trkpt lat="47.5123" lon="6.77198">
        <ele>376</ele>
        <time>2015-08-23T07:20:52.000Z</time>
      </trkpt>
      <trkpt lat="47.51227" lon="6.77192">
        <ele>376</ele>
        <time>2015-08-23T07:20:53.000Z</time>
      </trkpt>
      <trkpt lat="47.51224" lon="6.77186">
        <ele>376</ele>
        <time>2015-08-23T07:20:54.000Z</time>
      </trkpt>
      <trkpt lat="47.5122" lon="6.7718">
        <ele>376</ele>
        <time>2015-08-23T07:20:55.000Z</time>
      </trkpt>
      <trkpt lat="47.51217" lon="6.77175">
        <ele>376</ele>
        <time>2015-08-23T07:20:56.000Z</time>
      </trkpt>
      <trkpt lat="47.51214" lon="6.77169">
        <ele>376</ele>
        <time>2015-08-23T07:20:57.000Z</time>
      </trkpt>
      <trkpt lat="47.51211" lon="6.77162">
        <ele>378</ele>
        <time>2015-08-23T07:20:58.000Z</time>
      </trkpt>
      <trkpt lat="47.51207" lon="6.77154">
        <ele>378</ele>
        <time>2015-08-23T07:20:59.000Z</time>
      </trkpt>
      <trkpt lat="47.51204" lon="6.77148">
        <ele>378</ele>
        <time>2015-08-23T07:21:00.000Z</time>
      </trkpt>
      <trkpt lat="47.512" lon="6.77139">
        <ele>378</ele>
        <time>2015-08-23T07:21:01.000Z</time>
      </trkpt>
      <trkpt lat="47.51197" lon="6.77131">
        <ele>378</ele>
        <time>2015-08-23T07:21:02.000Z</time>
      </trkpt>
      <trkpt lat="47.51193" lon="6.77123">
        <ele>378</ele>
        <time>2015-08-23T07:21:03.000Z</time>
      </trkpt>
      <trkpt lat="47.51189" lon="6.77114">
        <ele>378</ele>
        <time>2015-08-23T07:21:04.000Z</time>
      </trkpt>
      <trkpt lat="47.51185" lon="6.77106">
        <ele>378</ele>
        <time>2015-08-23T07:21:05.000Z</time>
      </trkpt>
      <trkpt lat="47.5118" lon="6.77096">
        <ele>378</ele>
        <time>2015-08-23T07:21:06.000Z</time>
      </trkpt>
      <trkpt lat="47.51174" lon="6.77088">
        <ele>378</ele>
        <time>2015-08-23T07:21:07.000Z</time>
      </trkpt>
      <trkpt lat="47.5117" lon="6.77079">
        <ele>377</ele>
        <time>2015-08-23T07:21:08.000Z</time>
      </trkpt>
      <trkpt lat="47.51164" lon="6.77071">
        <ele>377</ele>
        <time>2015-08-23T07:21:09.000Z</time>
      </trkpt>
      <trkpt lat="47.51159" lon="6.77064">
        <ele>376</ele>
        <time>2015-08-23T07:21:10.000Z</time>
      </trkpt>
      <trkpt lat="47.51153" lon="6.77057">
        <ele>376</ele>
        <time>2015-08-23T07:21:11.000Z</time>
      </trkpt>
      <trkpt lat="47.51146" lon="6.7705">
        <ele>376</ele>
        <time>2015-08-23T07:21:12.000Z</time>
      </trkpt>
      <trkpt lat="47.51139" lon="6.77044">
        <ele>375</ele>
        <time>2015-08-23T07:21:13.000Z</time>
      </trkpt>
      <trkpt lat="47.51132" lon="6.77038">
        <ele>375</ele>
        <time>2015-08-23T07:21:14.000Z</time>
      </trkpt>
      <trkpt lat="47.51126" lon="6.77032">
        <ele>375</ele>
        <time>2015-08-23T07:21:15.000Z</time>
      </trkpt>
      <trkpt lat="47.5112" lon="6.77027">
        <ele>375</ele>
        <time>2015-08-23T07:21:16.000Z</time>
      </trkpt>
      <trkpt lat="47.51113" lon="6.77021">
        <ele>375</ele>
        <time>2015-08-23T07:21:17.000Z</time>
      </trkpt>
      <trkpt lat="47.51106" lon="6.77014">
        <ele>375</ele>
        <time>2015-08-23T07:21:18.000Z</time>
      </trkpt>
      <trkpt lat="47.51099" lon="6.77008">
        <ele>375</ele>
        <time>2015-08-23T07:21:19.000Z</time>
      </trkpt>
      <trkpt lat="47.51094" lon="6.77002">
        <ele>375</ele>
        <time>2015-08-23T07:21:20.000Z</time>
      </trkpt>
      <trkpt lat="47.51081" lon="6.76991">
        <ele>375</ele>
        <time>2015-08-23T07:21:22.000Z</time>
      </trkpt>
      <trkpt lat="47.51075" lon="6.76987">
        <ele>375</ele>
        <time>2015-08-23T07:21:23.000Z</time>
      </trkpt>
      <trkpt lat="47.51069" lon="6.76983">
        <ele>375</ele>
        <time>2015-08-23T07:21:24.000Z</time>
      </trkpt>
      <trkpt lat="47.51063" lon="6.76976">
        <ele>375</ele>
        <time>2015-08-23T07:21:25.000Z</time>
      </trkpt>
      <trkpt lat="47.51057" lon="6.76971">
        <ele>375</ele>
        <time>2015-08-23T07:21:26.000Z</time>
      </trkpt>
      <trkpt lat="47.5105" lon="6.76965">
        <ele>375</ele>
        <time>2015-08-23T07:21:27.000Z</time>
      </trkpt>
      <trkpt lat="47.51045" lon="6.7696">
        <ele>375</ele>
        <time>2015-08-23T07:21:28.000Z</time>
      </trkpt>
      <trkpt lat="47.51039" lon="6.76955">
        <ele>375</ele>
        <time>2015-08-23T07:21:29.000Z</time>
      </trkpt>
      <trkpt lat="47.51033" lon="6.7695">
        <ele>375</ele>
        <time>2015-08-23T07:21:30.000Z</time>
      </trkpt>
      <trkpt lat="47.51028" lon="6.76946">
        <ele>375</ele>
        <time>2015-08-23T07:21:31.000Z</time>
      </trkpt>
      <trkpt lat="47.51022" lon="6.76941">
        <ele>375</ele>
        <time>2015-08-23T07:21:32.000Z</time>
      </trkpt>
      <trkpt lat="47.51019" lon="6.76935">
        <ele>375</ele>
        <time>2015-08-23T07:21:33.000Z</time>
      </trkpt>
      <trkpt lat="47.51015" lon="6.76932">
        <ele>375</ele>
        <time>2015-08-23T07:21:34.000Z</time>
      </trkpt>
      <trkpt lat="47.5101" lon="6.76929">
        <ele>375</ele>
        <time>2015-08-23T07:21:35.000Z</time>
      </trkpt>
      <trkpt lat="47.51006" lon="6.76924">
        <ele>376</ele>
        <time>2015-08-23T07:21:36.000Z</time>
      </trkpt>
      <trkpt lat="47.51004" lon="6.76917">
        <ele>376</ele>
        <time>2015-08-23T07:21:37.000Z</time>
      </trkpt>
      <trkpt lat="47.51001" lon="6.76912">
        <ele>376</ele>
        <time>2015-08-23T07:21:38.000Z</time>
      </trkpt>
      <trkpt lat="47.51" lon="6.76905">
        <ele>376</ele>
        <time>2015-08-23T07:21:39.000Z</time>
      </trkpt>
      <trkpt lat="47.50996" lon="6.769">
        <ele>377</ele>
        <time>2015-08-23T07:21:40.000Z</time>
      </trkpt>
      <trkpt lat="47.50993" lon="6.76896">
        <ele>377</ele>
        <time>2015-08-23T07:21:41.000Z</time>
      </trkpt>
      <trkpt lat="47.50987" lon="6.76895">
        <ele>377</ele>
        <time>2015-08-23T07:21:42.000Z</time>
      </trkpt>
      <trkpt lat="47.50982" lon="6.76894">
        <ele>377</ele>
        <time>2015-08-23T07:21:43.000Z</time>
      </trkpt>
      <trkpt lat="47.50978" lon="6.76893">
        <ele>377</ele>
        <time>2015-08-23T07:21:44.000Z</time>
      </trkpt>
      <trkpt lat="47.50974" lon="6.76891">
        <ele>377</ele>
        <time>2015-08-23T07:21:45.000Z</time>
      </trkpt>
      <trkpt lat="47.5097" lon="6.7689">
        <ele>377</ele>
        <time>2015-08-23T07:21:46.000Z</time>
      </trkpt>
      <trkpt lat="47.50968" lon="6.76887">
        <ele>377</ele>
        <time>2015-08-23T07:21:47.000Z</time>
      </trkpt>
      <trkpt lat="47.50965" lon="6.76883">
        <ele>377</ele>
        <time>2015-08-23T07:21:48.000Z</time>
      </trkpt>
      <trkpt lat="47.50961" lon="6.7688">
        <ele>377</ele>
        <time>2015-08-23T07:21:49.000Z</time>
      </trkpt>
      <trkpt lat="47.50957" lon="6.76876">
        <ele>378</ele>
        <time>2015-08-23T07:21:50.000Z</time>
      </trkpt>
      <trkpt lat="47.50953" lon="6.76874">
        <ele>378</ele>
        <time>2015-08-23T07:21:51.000Z</time>
      </trkpt>
      <trkpt lat="47.50949" lon="6.76871">
        <ele>378</ele>
        <time>2015-08-23T07:21:52.000Z</time>
      </trkpt>
      <trkpt lat="47.50945" lon="6.76866">
        <ele>378</ele>
        <time>2015-08-23T07:21:53.000Z</time>
      </trkpt>
      <trkpt lat="47.50942" lon="6.76861">
        <ele>378</ele>
        <time>2015-08-23T07:21:54.000Z</time>
      </trkpt>
      <trkpt lat="47.50937" lon="6.76857">
        <ele>378</ele>
        <time>2015-08-23T07:21:55.000Z</time>
      </trkpt>
      <trkpt lat="47.50933" lon="6.76852">
        <ele>378</ele>
        <time>2015-08-23T07:21:56.000Z</time>
      </trkpt>
      <trkpt lat="47.5093" lon="6.76847">
        <ele>379</ele>
        <time>2015-08-23T07:21:57.000Z</time>
      </trkpt>
      <trkpt lat="47.50927" lon="6.76841">
        <ele>379</ele>
        <time>2015-08-23T07:21:58.000Z</time>
      </trkpt>
      <trkpt lat="47.50924" lon="6.76836">
        <ele>379</ele>
        <time>2015-08-23T07:21:59.000Z</time>
      </trkpt>
      <trkpt lat="47.50922" lon="6.7683">
        <ele>379</ele>
        <time>2015-08-23T07:22:00.000Z</time>
      </trkpt>
      <trkpt lat="47.50918" lon="6.76824">
        <ele>379</ele>
        <time>2015-08-23T07:22:01.000Z</time>
      </trkpt>
      <trkpt lat="47.50916" lon="6.76819">
        <ele>381</ele>
        <time>2015-08-23T07:22:02.000Z</time>
      </trkpt>
      <trkpt lat="47.50913" lon="6.76814">
        <ele>381</ele>
        <time>2015-08-23T07:22:03.000Z</time>
      </trkpt>
      <trkpt lat="47.50911" lon="6.76808">
        <ele>381</ele>
        <time>2015-08-23T07:22:04.000Z</time>
      </trkpt>
      <trkpt lat="47.50908" lon="6.76802">
        <ele>381</ele>
        <time>2015-08-23T07:22:05.000Z</time>
      </trkpt>
      <trkpt lat="47.50906" lon="6.76796">
        <ele>381</ele>
        <time>2015-08-23T07:22:06.000Z</time>
      </trkpt>
      <trkpt lat="47.50903" lon="6.7679">
        <ele>381</ele>
        <time>2015-08-23T07:22:07.000Z</time>
      </trkpt>
      <trkpt lat="47.509" lon="6.76785">
        <ele>381</ele>
        <time>2015-08-23T07:22:08.000Z</time>
      </trkpt>
      <trkpt lat="47.50898" lon="6.76779">
        <ele>381</ele>
        <time>2015-08-23T07:22:09.000Z</time>
      </trkpt>
      <trkpt lat="47.50896" lon="6.76774">
        <ele>381</ele>
        <time>2015-08-23T07:22:10.000Z</time>
      </trkpt>
      <trkpt lat="47.50894" lon="6.76769">
        <ele>381</ele>
        <time>2015-08-23T07:22:11.000Z</time>
      </trkpt>
      <trkpt lat="47.50891" lon="6.76764">
        <ele>381</ele>
        <time>2015-08-23T07:22:12.000Z</time>
      </trkpt>
      <trkpt lat="47.5089" lon="6.76759">
        <ele>381</ele>
        <time>2015-08-23T07:22:13.000Z</time>
      </trkpt>
      <trkpt lat="47.50888" lon="6.76753">
        <ele>381</ele>
        <time>2015-08-23T07:22:14.000Z</time>
      </trkpt>
      <trkpt lat="47.50886" lon="6.76749">
        <ele>382</ele>
        <time>2015-08-23T07:22:15.000Z</time>
      </trkpt>
      <trkpt lat="47.50885" lon="6.76743">
        <ele>382</ele>
        <time>2015-08-23T07:22:16.000Z</time>
      </trkpt>
      <trkpt lat="47.50883" lon="6.76739">
        <ele>382</ele>
        <time>2015-08-23T07:22:17.000Z</time>
      </trkpt>
      <trkpt lat="47.50881" lon="6.76734">
        <ele>382</ele>
        <time>2015-08-23T07:22:18.000Z</time>
      </trkpt>
      <trkpt lat="47.5088" lon="6.7673">
        <ele>383</ele>
        <time>2015-08-23T07:22:19.000Z</time>
      </trkpt>
      <trkpt lat="47.50879" lon="6.76725">
        <ele>383</ele>
        <time>2015-08-23T07:22:20.000Z</time>
      </trkpt>
      <trkpt lat="47.50877" lon="6.7672">
        <ele>383</ele>
        <time>2015-08-23T07:22:21.000Z</time>
      </trkpt>
      <trkpt lat="47.50876" lon="6.76715">
        <ele>383</ele>
        <time>2015-08-23T07:22:22.000Z</time>
      </trkpt>
      <trkpt lat="47.50874" lon="6.7671">
        <ele>383</ele>
        <time>2015-08-23T07:22:23.000Z</time>
      </trkpt>
      <trkpt lat="47.50873" lon="6.76706">
        <ele>383</ele>
        <time>2015-08-23T07:22:24.000Z</time>
      </trkpt>
      <trkpt lat="47.50871" lon="6.76702">
        <ele>384</ele>
        <time>2015-08-23T07:22:25.000Z</time>
      </trkpt>
      <trkpt lat="47.50866" lon="6.76697">
        <ele>384</ele>
        <time>2015-08-23T07:22:26.000Z</time>
      </trkpt>
      <trkpt lat="47.50864" lon="6.76692">
        <ele>384</ele>
        <time>2015-08-23T07:22:27.000Z</time>
      </trkpt>
      <trkpt lat="47.50862" lon="6.76687">
        <ele>384</ele>
        <time>2015-08-23T07:22:28.000Z</time>
      </trkpt>
      <trkpt lat="47.5086" lon="6.76683">
        <ele>385</ele>
        <time>2015-08-23T07:22:29.000Z</time>
      </trkpt>
      <trkpt lat="47.50858" lon="6.76679">
        <ele>385</ele>
        <time>2015-08-23T07:22:30.000Z</time>
      </trkpt>
      <trkpt lat="47.50856" lon="6.76675">
        <ele>385</ele>
        <time>2015-08-23T07:22:31.000Z</time>
      </trkpt>
      <trkpt lat="47.50855" lon="6.7667">
        <ele>386</ele>
        <time>2015-08-23T07:22:32.000Z</time>
      </trkpt>
      <trkpt lat="47.50853" lon="6.76666">
        <ele>387</ele>
        <time>2015-08-23T07:22:33.000Z</time>
      </trkpt>
      <trkpt lat="47.50852" lon="6.76662">
        <ele>387</ele>
        <time>2015-08-23T07:22:34.000Z</time>
      </trkpt>
      <trkpt lat="47.50851" lon="6.76657">
        <ele>387</ele>
        <time>2015-08-23T07:22:35.000Z</time>
      </trkpt>
      <trkpt lat="47.50849" lon="6.76653">
        <ele>387</ele>
        <time>2015-08-23T07:22:36.000Z</time>
      </trkpt>
      <trkpt lat="47.50847" lon="6.7665">
        <ele>387</ele>
        <time>2015-08-23T07:22:37.000Z</time>
      </trkpt>
      <trkpt lat="47.50846" lon="6.76646">
        <ele>387</ele>
        <time>2015-08-23T07:22:38.000Z</time>
      </trkpt>
      <trkpt lat="47.50844" lon="6.76642">
        <ele>387</ele>
        <time>2015-08-23T07:22:39.000Z</time>
      </trkpt>
      <trkpt lat="47.50843" lon="6.76639">
        <ele>387</ele>
        <time>2015-08-23T07:22:40.000Z</time>
      </trkpt>
      <trkpt lat="47.50841" lon="6.76635">
        <ele>387</ele>
        <time>2015-08-23T07:22:41.000Z</time>
      </trkpt>
      <trkpt lat="47.50839" lon="6.76632">
        <ele>387</ele>
        <time>2015-08-23T07:22:42.000Z</time>
      </trkpt>
      <trkpt lat="47.50838" lon="6.76628">
        <ele>387</ele>
        <time>2015-08-23T07:22:43.000Z</time>
      </trkpt>
      <trkpt lat="47.50836" lon="6.76624">
        <ele>387</ele>
        <time>2015-08-23T07:22:44.000Z</time>
      </trkpt>
      <trkpt lat="47.50835" lon="6.76621">
        <ele>387</ele>
        <time>2015-08-23T07:22:45.000Z</time>
      </trkpt>
      <trkpt lat="47.50833" lon="6.76617">
        <ele>387</ele>
        <time>2015-08-23T07:22:46.000Z</time>
      </trkpt>
      <trkpt lat="47.50832" lon="6.76613">
        <ele>390</ele>
        <time>2015-08-23T07:22:47.000Z</time>
      </trkpt>
      <trkpt lat="47.50831" lon="6.7661">
        <ele>390</ele>
        <time>2015-08-23T07:22:48.000Z</time>
      </trkpt>
      <trkpt lat="47.50829" lon="6.76606">
        <ele>390</ele>
        <time>2015-08-23T07:22:49.000Z</time>
      </trkpt>
      <trkpt lat="47.50828" lon="6.76602">
        <ele>390</ele>
        <time>2015-08-23T07:22:50.000Z</time>
      </trkpt>
      <trkpt lat="47.50826" lon="6.76599">
        <ele>390</ele>
        <time>2015-08-23T07:22:51.000Z</time>
      </trkpt>
      <trkpt lat="47.50825" lon="6.76595">
        <ele>390</ele>
        <time>2015-08-23T07:22:52.000Z</time>
      </trkpt>
      <trkpt lat="47.50823" lon="6.76593">
        <ele>390</ele>
        <time>2015-08-23T07:22:53.000Z</time>
      </trkpt>
      <trkpt lat="47.50821" lon="6.76593">
        <ele>390</ele>
        <time>2015-08-23T07:22:54.000Z</time>
      </trkpt>
      <trkpt lat="47.50818" lon="6.76595">
        <ele>390</ele>
        <time>2015-08-23T07:22:55.000Z</time>
      </trkpt>
      <trkpt lat="47.50814" lon="6.76597">
        <ele>390</ele>
        <time>2015-08-23T07:22:56.000Z</time>
      </trkpt>
      <trkpt lat="47.50812" lon="6.76597">
        <ele>390</ele>
        <time>2015-08-23T07:22:57.000Z</time>
      </trkpt>
      <trkpt lat="47.5081" lon="6.76595">
        <ele>390</ele>
        <time>2015-08-23T07:22:58.000Z</time>
      </trkpt>
      <trkpt lat="47.50809" lon="6.76591">
        <ele>390</ele>
        <time>2015-08-23T07:22:59.000Z</time>
      </trkpt>
      <trkpt lat="47.50808" lon="6.76588">
        <ele>390</ele>
        <time>2015-08-23T07:23:00.000Z</time>
      </trkpt>
      <trkpt lat="47.50804" lon="6.76586">
        <ele>391</ele>
        <time>2015-08-23T07:23:02.000Z</time>
      </trkpt>
      <trkpt lat="47.50802" lon="6.76587">
        <ele>391</ele>
        <time>2015-08-23T07:23:03.000Z</time>
      </trkpt>
      <trkpt lat="47.508" lon="6.76588">
        <ele>391</ele>
        <time>2015-08-23T07:23:04.000Z</time>
      </trkpt>
      <trkpt lat="47.50797" lon="6.76589">
        <ele>391</ele>
        <time>2015-08-23T07:23:05.000Z</time>
      </trkpt>
      <trkpt lat="47.50794" lon="6.76589">
        <ele>391</ele>
        <time>2015-08-23T07:23:06.000Z</time>
      </trkpt>
      <trkpt lat="47.50791" lon="6.7659">
        <ele>391</ele>
        <time>2015-08-23T07:23:07.000Z</time>
      </trkpt>
      <trkpt lat="47.50788" lon="6.76591">
        <ele>391</ele>
        <time>2015-08-23T07:23:08.000Z</time>
      </trkpt>
      <trkpt lat="47.50785" lon="6.76592">
        <ele>391</ele>
        <time>2015-08-23T07:23:09.000Z</time>
      </trkpt>
      <trkpt lat="47.50781" lon="6.76593">
        <ele>391</ele>
        <time>2015-08-23T07:23:10.000Z</time>
      </trkpt>
      <trkpt lat="47.50778" lon="6.76594">
        <ele>392</ele>
        <time>2015-08-23T07:23:11.000Z</time>
      </trkpt>
      <trkpt lat="47.50775" lon="6.76595">
        <ele>392</ele>
        <time>2015-08-23T07:23:12.000Z</time>
      </trkpt>
      <trkpt lat="47.50771" lon="6.76596">
        <ele>392</ele>
        <time>2015-08-23T07:23:13.000Z</time>
      </trkpt>
      <trkpt lat="47.50768" lon="6.76597">
        <ele>392</ele>
        <time>2015-08-23T07:23:14.000Z</time>
      </trkpt>
      <trkpt lat="47.50764" lon="6.76598">
        <ele>392</ele>
        <time>2015-08-23T07:23:15.000Z</time>
      </trkpt>
      <trkpt lat="47.50761" lon="6.76598">
        <ele>392</ele>
        <time>2015-08-23T07:23:16.000Z</time>
      </trkpt>
      <trkpt lat="47.50758" lon="6.76599">
        <ele>392</ele>
        <time>2015-08-23T07:23:17.000Z</time>
      </trkpt>
      <trkpt lat="47.50754" lon="6.76599">
        <ele>392</ele>
        <time>2015-08-23T07:23:18.000Z</time>
      </trkpt>
      <trkpt lat="47.50751" lon="6.766">
        <ele>392</ele>
        <time>2015-08-23T07:23:19.000Z</time>
      </trkpt>
      <trkpt lat="47.50748" lon="6.766">
        <ele>394</ele>
        <time>2015-08-23T07:23:20.000Z</time>
      </trkpt>
      <trkpt lat="47.50742" lon="6.76597">
        <ele>394</ele>
        <time>2015-08-23T07:23:22.000Z</time>
      </trkpt>
      <trkpt lat="47.5074" lon="6.76595">
        <ele>394</ele>
        <time>2015-08-23T07:23:23.000Z</time>
      </trkpt>
      <trkpt lat="47.50737" lon="6.76594">
        <ele>394</ele>
        <time>2015-08-23T07:23:24.000Z</time>
      </trkpt>
      <trkpt lat="47.50733" lon="6.76592">
        <ele>394</ele>
        <time>2015-08-23T07:23:25.000Z</time>
      </trkpt>
      <trkpt lat="47.5073" lon="6.76591">
        <ele>394</ele>
        <time>2015-08-23T07:23:26.000Z</time>
      </trkpt>
      <trkpt lat="47.50726" lon="6.76591">
        <ele>394</ele>
        <time>2015-08-23T07:23:27.000Z</time>
      </trkpt>
      <trkpt lat="47.50722" lon="6.7659">
        <ele>394</ele>
        <time>2015-08-23T07:23:28.000Z</time>
      </trkpt>
      <trkpt lat="47.50718" lon="6.76591">
        <ele>394</ele>
        <time>2015-08-23T07:23:29.000Z</time>
      </trkpt>
      <trkpt lat="47.50714" lon="6.7659">
        <ele>395</ele>
        <time>2015-08-23T07:23:30.000Z</time>
      </trkpt>
      <trkpt lat="47.5071" lon="6.7659">
        <ele>395</ele>
        <time>2015-08-23T07:23:31.000Z</time>
      </trkpt>
      <trkpt lat="47.50706" lon="6.7659">
        <ele>395</ele>
        <time>2015-08-23T07:23:32.000Z</time>
      </trkpt>
      <trkpt lat="47.50703" lon="6.7659">
        <ele>395</ele>
        <time>2015-08-23T07:23:33.000Z</time>
      </trkpt>
      <trkpt lat="47.50699" lon="6.7659">
        <ele>395</ele>
        <time>2015-08-23T07:23:34.000Z</time>
      </trkpt>
      <trkpt lat="47.50696" lon="6.76591">
        <ele>395</ele>
        <time>2015-08-23T07:23:35.000Z</time>
      </trkpt>
      <trkpt lat="47.50692" lon="6.76592">
        <ele>395</ele>
        <time>2015-08-23T07:23:36.000Z</time>
      </trkpt>
      <trkpt lat="47.50689" lon="6.76592">
        <ele>395</ele>
        <time>2015-08-23T07:23:37.000Z</time>
      </trkpt>
      <trkpt lat="47.50685" lon="6.76591">
        <ele>395</ele>
        <time>2015-08-23T07:23:38.000Z</time>
      </trkpt>
      <trkpt lat="47.50682" lon="6.76591">
        <ele>396</ele>
        <time>2015-08-23T07:23:39.000Z</time>
      </trkpt>
      <trkpt lat="47.50679" lon="6.76592">
        <ele>396</ele>
        <time>2015-08-23T07:23:40.000Z</time>
      </trkpt>
      <trkpt lat="47.50675" lon="6.76593">
        <ele>396</ele>
        <time>2015-08-23T07:23:41.000Z</time>
      </trkpt>
      <trkpt lat="47.50672" lon="6.76594">
        <ele>396</ele>
        <time>2015-08-23T07:23:42.000Z</time>
      </trkpt>
      <trkpt lat="47.50668" lon="6.76595">
        <ele>396</ele>
        <time>2015-08-23T07:23:43.000Z</time>
      </trkpt>
      <trkpt lat="47.50665" lon="6.76597">
        <ele>397</ele>
        <time>2015-08-23T07:23:44.000Z</time>
      </trkpt>
      <trkpt lat="47.50661" lon="6.76599">
        <ele>397</ele>
        <time>2015-08-23T07:23:45.000Z</time>
      </trkpt>
      <trkpt lat="47.50658" lon="6.766">
        <ele>397</ele>
        <time>2015-08-23T07:23:46.000Z</time>
      </trkpt>
      <trkpt lat="47.50655" lon="6.76602">
        <ele>397</ele>
        <time>2015-08-23T07:23:47.000Z</time>
      </trkpt>
      <trkpt lat="47.50651" lon="6.76603">
        <ele>397</ele>
        <time>2015-08-23T07:23:48.000Z</time>
      </trkpt>
      <trkpt lat="47.50648" lon="6.76605">
        <ele>397</ele>
        <time>2015-08-23T07:23:49.000Z</time>
      </trkpt>
      <trkpt lat="47.50645" lon="6.76607">
        <ele>397</ele>
        <time>2015-08-23T07:23:50.000Z</time>
      </trkpt>
      <trkpt lat="47.50641" lon="6.76609">
        <ele>397</ele>
        <time>2015-08-23T07:23:51.000Z</time>
      </trkpt>
      <trkpt lat="47.50638" lon="6.76611">
        <ele>397</ele>
        <time>2015-08-23T07:23:52.000Z</time>
      </trkpt>
      <trkpt lat="47.50635" lon="6.76613">
        <ele>397</ele>
        <time>2015-08-23T07:23:53.000Z</time>
      </trkpt>
      <trkpt lat="47.50631" lon="6.76616">
        <ele>397</ele>
        <time>2015-08-23T07:23:54.000Z</time>
      </trkpt>
      <trkpt lat="47.50628" lon="6.76618">
        <ele>397</ele>
        <time>2015-08-23T07:23:55.000Z</time>
      </trkpt>
      <trkpt lat="47.50625" lon="6.7662">
        <ele>397</ele>
        <time>2015-08-23T07:23:56.000Z</time>
      </trkpt>
      <trkpt lat="47.50622" lon="6.76622">
        <ele>397</ele>
        <time>2015-08-23T07:23:57.000Z</time>
      </trkpt>
      <trkpt lat="47.50619" lon="6.76624">
        <ele>397</ele>
        <time>2015-08-23T07:23:58.000Z</time>
      </trkpt>
      <trkpt lat="47.50616" lon="6.76626">
        <ele>397</ele>
        <time>2015-08-23T07:23:59.000Z</time>
      </trkpt>
      <trkpt lat="47.50613" lon="6.76629">
        <ele>397</ele>
        <time>2015-08-23T07:24:00.000Z</time>
      </trkpt>
      <trkpt lat="47.5061" lon="6.76631">
        <ele>397</ele>
        <time>2015-08-23T07:24:01.000Z</time>
      </trkpt>
      <trkpt lat="47.50607" lon="6.76632">
        <ele>397</ele>
        <time>2015-08-23T07:24:02.000Z</time>
      </trkpt>
      <trkpt lat="47.50604" lon="6.76633">
        <ele>397</ele>
        <time>2015-08-23T07:24:03.000Z</time>
      </trkpt>
      <trkpt lat="47.506" lon="6.76634">
        <ele>398</ele>
        <time>2015-08-23T07:24:04.000Z</time>
      </trkpt>
      <trkpt lat="47.50597" lon="6.76634">
        <ele>398</ele>
        <time>2015-08-23T07:24:05.000Z</time>
      </trkpt>
      <trkpt lat="47.50594" lon="6.76635">
        <ele>398</ele>
        <time>2015-08-23T07:24:06.000Z</time>
      </trkpt>
      <trkpt lat="47.50591" lon="6.76636">
        <ele>398</ele>
        <time>2015-08-23T07:24:07.000Z</time>
      </trkpt>
      <trkpt lat="47.50588" lon="6.76637">
        <ele>398</ele>
        <time>2015-08-23T07:24:08.000Z</time>
      </trkpt>
      <trkpt lat="47.50585" lon="6.76638">
        <ele>398</ele>
        <time>2015-08-23T07:24:09.000Z</time>
      </trkpt>
      <trkpt lat="47.50582" lon="6.76638">
        <ele>399</ele>
        <time>2015-08-23T07:24:10.000Z</time>
      </trkpt>
      <trkpt lat="47.50579" lon="6.76639">
        <ele>399</ele>
        <time>2015-08-23T07:24:11.000Z</time>
      </trkpt>
      <trkpt lat="47.50576" lon="6.7664">
        <ele>399</ele>
        <time>2015-08-23T07:24:12.000Z</time>
      </trkpt>
      <trkpt lat="47.50573" lon="6.76641">
        <ele>399</ele>
        <time>2015-08-23T07:24:13.000Z</time>
      </trkpt>
      <trkpt lat="47.5057" lon="6.76643">
        <ele>399</ele>
        <time>2015-08-23T07:24:14.000Z</time>
      </trkpt>
      <trkpt lat="47.50566" lon="6.76645">
        <ele>399</ele>
        <time>2015-08-23T07:24:15.000Z</time>
      </trkpt>
      <trkpt lat="47.50563" lon="6.76646">
        <ele>399</ele>
        <time>2015-08-23T07:24:16.000Z</time>
      </trkpt>
      <trkpt lat="47.5056" lon="6.76648">
        <ele>399</ele>
        <time>2015-08-23T07:24:17.000Z</time>
      </trkpt>
      <trkpt lat="47.50556" lon="6.7665">
        <ele>399</ele>
        <time>2015-08-23T07:24:18.000Z</time>
      </trkpt>
      <trkpt lat="47.50552" lon="6.76651">
        <ele>399</ele>
        <time>2015-08-23T07:24:19.000Z</time>
      </trkpt>
      <trkpt lat="47.50549" lon="6.76651">
        <ele>399</ele>
        <time>2015-08-23T07:24:20.000Z</time>
      </trkpt>
      <trkpt lat="47.50543" lon="6.76651">
        <ele>399</ele>
        <time>2015-08-23T07:24:22.000Z</time>
      </trkpt>
      <trkpt lat="47.5054" lon="6.7665">
        <ele>399</ele>
        <time>2015-08-23T07:24:23.000Z</time>
      </trkpt>
      <trkpt lat="47.50537" lon="6.76651">
        <ele>399</ele>
        <time>2015-08-23T07:24:24.000Z</time>
      </trkpt>
      <trkpt lat="47.50533" lon="6.76652">
        <ele>399</ele>
        <time>2015-08-23T07:24:25.000Z</time>
      </trkpt>
      <trkpt lat="47.50529" lon="6.76653">
        <ele>399</ele>
        <time>2015-08-23T07:24:26.000Z</time>
      </trkpt>
      <trkpt lat="47.50524" lon="6.76655">
        <ele>399</ele>
        <time>2015-08-23T07:24:27.000Z</time>
      </trkpt>
      <trkpt lat="47.50517" lon="6.7666">
        <ele>399</ele>
        <time>2015-08-23T07:24:28.000Z</time>
      </trkpt>
      <trkpt lat="47.50513" lon="6.76662">
        <ele>399</ele>
        <time>2015-08-23T07:24:29.000Z</time>
      </trkpt>
      <trkpt lat="47.50508" lon="6.76663">
        <ele>399</ele>
        <time>2015-08-23T07:24:30.000Z</time>
      </trkpt>
      <trkpt lat="47.50504" lon="6.76663">
        <ele>399</ele>
        <time>2015-08-23T07:24:31.000Z</time>
      </trkpt>
      <trkpt lat="47.50499" lon="6.76664">
        <ele>399</ele>
        <time>2015-08-23T07:24:32.000Z</time>
      </trkpt>
      <trkpt lat="47.50494" lon="6.76666">
        <ele>399</ele>
        <time>2015-08-23T07:24:33.000Z</time>
      </trkpt>
      <trkpt lat="47.50489" lon="6.76668">
        <ele>398</ele>
        <time>2015-08-23T07:24:34.000Z</time>
      </trkpt>
      <trkpt lat="47.50484" lon="6.76671">
        <ele>398</ele>
        <time>2015-08-23T07:24:35.000Z</time>
      </trkpt>
      <trkpt lat="47.5048" lon="6.76673">
        <ele>397</ele>
        <time>2015-08-23T07:24:36.000Z</time>
      </trkpt>
      <trkpt lat="47.50475" lon="6.76676">
        <ele>397</ele>
        <time>2015-08-23T07:24:37.000Z</time>
      </trkpt>
      <trkpt lat="47.5047" lon="6.76679">
        <ele>397</ele>
        <time>2015-08-23T07:24:38.000Z</time>
      </trkpt>
      <trkpt lat="47.50464" lon="6.76681">
        <ele>397</ele>
        <time>2015-08-23T07:24:39.000Z</time>
      </trkpt>
      <trkpt lat="47.50459" lon="6.76684">
        <ele>397</ele>
        <time>2015-08-23T07:24:40.000Z</time>
      </trkpt>
      <trkpt lat="47.50453" lon="6.76685">
        <ele>397</ele>
        <time>2015-08-23T07:24:41.000Z</time>
      </trkpt>
      <trkpt lat="47.50448" lon="6.76687">
        <ele>397</ele>
        <time>2015-08-23T07:24:42.000Z</time>
      </trkpt>
      <trkpt lat="47.50443" lon="6.76689">
        <ele>397</ele>
        <time>2015-08-23T07:24:43.000Z</time>
      </trkpt>
      <trkpt lat="47.50438" lon="6.76691">
        <ele>397</ele>
        <time>2015-08-23T07:24:44.000Z</time>
      </trkpt>
      <trkpt lat="47.50433" lon="6.76694">
        <ele>397</ele>
        <time>2015-08-23T07:24:45.000Z</time>
      </trkpt>
      <trkpt lat="47.50428" lon="6.76696">
        <ele>397</ele>
        <time>2015-08-23T07:24:46.000Z</time>
      </trkpt>
      <trkpt lat="47.50423" lon="6.76697">
        <ele>397</ele>
        <time>2015-08-23T07:24:47.000Z</time>
      </trkpt>
      <trkpt lat="47.50418" lon="6.76699">
        <ele>397</ele>
        <time>2015-08-23T07:24:48.000Z</time>
      </trkpt>
      <trkpt lat="47.50413" lon="6.76701">
        <ele>397</ele>
        <time>2015-08-23T07:24:49.000Z</time>
      </trkpt>
      <trkpt lat="47.50408" lon="6.76703">
        <ele>397</ele>
        <time>2015-08-23T07:24:50.000Z</time>
      </trkpt>
      <trkpt lat="47.50402" lon="6.76704">
        <ele>397</ele>
        <time>2015-08-23T07:24:51.000Z</time>
      </trkpt>
      <trkpt lat="47.50398" lon="6.76706">
        <ele>397</ele>
        <time>2015-08-23T07:24:52.000Z</time>
      </trkpt>
      <trkpt lat="47.50393" lon="6.76709">
        <ele>398</ele>
        <time>2015-08-23T07:24:53.000Z</time>
      </trkpt>
      <trkpt lat="47.50389" lon="6.76711">
        <ele>398</ele>
        <time>2015-08-23T07:24:54.000Z</time>
      </trkpt>
      <trkpt lat="47.50384" lon="6.76713">
        <ele>398</ele>
        <time>2015-08-23T07:24:55.000Z</time>
      </trkpt>
      <trkpt lat="47.50379" lon="6.76715">
        <ele>398</ele>
        <time>2015-08-23T07:24:56.000Z</time>
      </trkpt>
      <trkpt lat="47.50375" lon="6.76718">
        <ele>398</ele>
        <time>2015-08-23T07:24:57.000Z</time>
      </trkpt>
      <trkpt lat="47.50371" lon="6.7672">
        <ele>398</ele>
        <time>2015-08-23T07:24:58.000Z</time>
      </trkpt>
      <trkpt lat="47.50367" lon="6.76723">
        <ele>398</ele>
        <time>2015-08-23T07:24:59.000Z</time>
      </trkpt>
      <trkpt lat="47.50362" lon="6.76724">
        <ele>398</ele>
        <time>2015-08-23T07:25:00.000Z</time>
      </trkpt>
      <trkpt lat="47.50358" lon="6.76727">
        <ele>398</ele>
        <time>2015-08-23T07:25:01.000Z</time>
      </trkpt>
      <trkpt lat="47.50353" lon="6.76728">
        <ele>398</ele>
        <time>2015-08-23T07:25:02.000Z</time>
      </trkpt>
      <trkpt lat="47.50349" lon="6.76731">
        <ele>398</ele>
        <time>2015-08-23T07:25:03.000Z</time>
      </trkpt>
      <trkpt lat="47.50345" lon="6.76734">
        <ele>398</ele>
        <time>2015-08-23T07:25:04.000Z</time>
      </trkpt>
      <trkpt lat="47.5034" lon="6.76736">
        <ele>398</ele>
        <time>2015-08-23T07:25:05.000Z</time>
      </trkpt>
      <trkpt lat="47.50336" lon="6.76738">
        <ele>398</ele>
        <time>2015-08-23T07:25:06.000Z</time>
      </trkpt>
      <trkpt lat="47.50331" lon="6.7674">
        <ele>398</ele>
        <time>2015-08-23T07:25:07.000Z</time>
      </trkpt>
      <trkpt lat="47.50327" lon="6.76742">
        <ele>398</ele>
        <time>2015-08-23T07:25:08.000Z</time>
      </trkpt>
      <trkpt lat="47.50323" lon="6.76744">
        <ele>398</ele>
        <time>2015-08-23T07:25:09.000Z</time>
      </trkpt>
      <trkpt lat="47.50318" lon="6.76746">
        <ele>398</ele>
        <time>2015-08-23T07:25:10.000Z</time>
      </trkpt>
      <trkpt lat="47.50314" lon="6.76747">
        <ele>398</ele>
        <time>2015-08-23T07:25:11.000Z</time>
      </trkpt>
      <trkpt lat="47.5031" lon="6.76748">
        <ele>398</ele>
        <time>2015-08-23T07:25:12.000Z</time>
      </trkpt>
      <trkpt lat="47.50306" lon="6.76749">
        <ele>398</ele>
        <time>2015-08-23T07:25:13.000Z</time>
      </trkpt>
      <trkpt lat="47.50302" lon="6.7675">
        <ele>397</ele>
        <time>2015-08-23T07:25:14.000Z</time>
      </trkpt>
      <trkpt lat="47.50297" lon="6.76752">
        <ele>397</ele>
        <time>2015-08-23T07:25:15.000Z</time>
      </trkpt>
      <trkpt lat="47.50295" lon="6.76748">
        <ele>399</ele>
        <time>2015-08-23T07:25:16.000Z</time>
      </trkpt>
      <trkpt lat="47.5029" lon="6.76749">
        <ele>399</ele>
        <time>2015-08-23T07:25:17.000Z</time>
      </trkpt>
      <trkpt lat="47.50286" lon="6.76746">
        <ele>399</ele>
        <time>2015-08-23T07:25:18.000Z</time>
      </trkpt>
      <trkpt lat="47.50281" lon="6.76747">
        <ele>399</ele>
        <time>2015-08-23T07:25:19.000Z</time>
      </trkpt>
      <trkpt lat="47.50277" lon="6.76747">
        <ele>399</ele>
        <time>2015-08-23T07:25:20.000Z</time>
      </trkpt>
      <trkpt lat="47.50273" lon="6.76747">
        <ele>399</ele>
        <time>2015-08-23T07:25:21.000Z</time>
      </trkpt>
      <trkpt lat="47.50269" lon="6.76748">
        <ele>399</ele>
        <time>2015-08-23T07:25:22.000Z</time>
      </trkpt>
      <trkpt lat="47.50264" lon="6.76749">
        <ele>399</ele>
        <time>2015-08-23T07:25:23.000Z</time>
      </trkpt>
      <trkpt lat="47.5026" lon="6.76749">
        <ele>399</ele>
        <time>2015-08-23T07:25:24.000Z</time>
      </trkpt>
      <trkpt lat="47.50257" lon="6.7675">
        <ele>399</ele>
        <time>2015-08-23T07:25:25.000Z</time>
      </trkpt>
      <trkpt lat="47.50253" lon="6.76751">
        <ele>400</ele>
        <time>2015-08-23T07:25:26.000Z</time>
      </trkpt>
      <trkpt lat="47.50249" lon="6.76751">
        <ele>400</ele>
        <time>2015-08-23T07:25:27.000Z</time>
      </trkpt>
      <trkpt lat="47.50245" lon="6.7675">
        <ele>400</ele>
        <time>2015-08-23T07:25:28.000Z</time>
      </trkpt>
      <trkpt lat="47.50241" lon="6.76748">
        <ele>401</ele>
        <time>2015-08-23T07:25:29.000Z</time>
      </trkpt>
      <trkpt lat="47.50238" lon="6.76744">
        <ele>401</ele>
        <time>2015-08-23T07:25:30.000Z</time>
      </trkpt>
      <trkpt lat="47.50235" lon="6.76739">
        <ele>401</ele>
        <time>2015-08-23T07:25:31.000Z</time>
      </trkpt>
      <trkpt lat="47.50233" lon="6.76734">
        <ele>401</ele>
        <time>2015-08-23T07:25:32.000Z</time>
      </trkpt>
      <trkpt lat="47.50231" lon="6.76729">
        <ele>402</ele>
        <time>2015-08-23T07:25:33.000Z</time>
      </trkpt>
      <trkpt lat="47.50229" lon="6.76723">
        <ele>402</ele>
        <time>2015-08-23T07:25:34.000Z</time>
      </trkpt>
      <trkpt lat="47.50228" lon="6.76718">
        <ele>402</ele>
        <time>2015-08-23T07:25:35.000Z</time>
      </trkpt>
      <trkpt lat="47.50226" lon="6.76713">
        <ele>402</ele>
        <time>2015-08-23T07:25:36.000Z</time>
      </trkpt>
      <trkpt lat="47.50224" lon="6.76708">
        <ele>402</ele>
        <time>2015-08-23T07:25:37.000Z</time>
      </trkpt>
      <trkpt lat="47.50223" lon="6.76702">
        <ele>402</ele>
        <time>2015-08-23T07:25:38.000Z</time>
      </trkpt>
      <trkpt lat="47.50221" lon="6.76696">
        <ele>402</ele>
        <time>2015-08-23T07:25:39.000Z</time>
      </trkpt>
      <trkpt lat="47.50219" lon="6.7669">
        <ele>402</ele>
        <time>2015-08-23T07:25:40.000Z</time>
      </trkpt>
      <trkpt lat="47.50217" lon="6.76683">
        <ele>402</ele>
        <time>2015-08-23T07:25:41.000Z</time>
      </trkpt>
      <trkpt lat="47.50216" lon="6.76675">
        <ele>402</ele>
        <time>2015-08-23T07:25:42.000Z</time>
      </trkpt>
      <trkpt lat="47.50214" lon="6.76669">
        <ele>402</ele>
        <time>2015-08-23T07:25:43.000Z</time>
      </trkpt>
      <trkpt lat="47.50212" lon="6.76662">
        <ele>402</ele>
        <time>2015-08-23T07:25:44.000Z</time>
      </trkpt>
      <trkpt lat="47.5021" lon="6.76656">
        <ele>402</ele>
        <time>2015-08-23T07:25:45.000Z</time>
      </trkpt>
      <trkpt lat="47.50208" lon="6.76649">
        <ele>402</ele>
        <time>2015-08-23T07:25:46.000Z</time>
      </trkpt>
      <trkpt lat="47.50206" lon="6.76643">
        <ele>402</ele>
        <time>2015-08-23T07:25:47.000Z</time>
      </trkpt>
      <trkpt lat="47.50206" lon="6.76636">
        <ele>402</ele>
        <time>2015-08-23T07:25:48.000Z</time>
      </trkpt>
      <trkpt lat="47.50204" lon="6.7663">
        <ele>402</ele>
        <time>2015-08-23T07:25:49.000Z</time>
      </trkpt>
      <trkpt lat="47.50202" lon="6.76624">
        <ele>402</ele>
        <time>2015-08-23T07:25:50.000Z</time>
      </trkpt>
      <trkpt lat="47.502" lon="6.76619">
        <ele>402</ele>
        <time>2015-08-23T07:25:51.000Z</time>
      </trkpt>
      <trkpt lat="47.50199" lon="6.76614">
        <ele>403</ele>
        <time>2015-08-23T07:25:52.000Z</time>
      </trkpt>
      <trkpt lat="47.50198" lon="6.76608">
        <ele>403</ele>
        <time>2015-08-23T07:25:54.000Z</time>
      </trkpt>
      <trkpt lat="47.50197" lon="6.76605">
        <ele>403</ele>
        <time>2015-08-23T07:25:55.000Z</time>
      </trkpt>
      <trkpt lat="47.50197" lon="6.76599">
        <ele>403</ele>
        <time>2015-08-23T07:25:57.000Z</time>
      </trkpt>
      <trkpt lat="47.50197" lon="6.76595">
        <ele>403</ele>
        <time>2015-08-23T07:25:58.000Z</time>
      </trkpt>
      <trkpt lat="47.50197" lon="6.7659">
        <ele>403</ele>
        <time>2015-08-23T07:26:00.000Z</time>
      </trkpt>
      <trkpt lat="47.50197" lon="6.76587">
        <ele>403</ele>
        <time>2015-08-23T07:26:01.000Z</time>
      </trkpt>
      <trkpt lat="47.50197" lon="6.76583">
        <ele>402</ele>
        <time>2015-08-23T07:26:03.000Z</time>
      </trkpt>
      <trkpt lat="47.50198" lon="6.7658">
        <ele>402</ele>
        <time>2015-08-23T07:26:04.000Z</time>
      </trkpt>
      <trkpt lat="47.502" lon="6.76576">
        <ele>402</ele>
        <time>2015-08-23T07:26:05.000Z</time>
      </trkpt>
      <trkpt lat="47.50203" lon="6.76575">
        <ele>402</ele>
        <time>2015-08-23T07:26:06.000Z</time>
      </trkpt>
      <trkpt lat="47.50207" lon="6.76574">
        <ele>401</ele>
        <time>2015-08-23T07:26:07.000Z</time>
      </trkpt>
      <trkpt lat="47.50211" lon="6.76575">
        <ele>401</ele>
        <time>2015-08-23T07:26:08.000Z</time>
      </trkpt>
      <trkpt lat="47.50216" lon="6.76577">
        <ele>401</ele>
        <time>2015-08-23T07:26:09.000Z</time>
      </trkpt>
      <trkpt lat="47.50221" lon="6.76577">
        <ele>400</ele>
        <time>2015-08-23T07:26:10.000Z</time>
      </trkpt>
      <trkpt lat="47.50223" lon="6.76574">
        <ele>400</ele>
        <time>2015-08-23T07:26:11.000Z</time>
      </trkpt>
      <trkpt lat="47.50224" lon="6.76569">
        <ele>400</ele>
        <time>2015-08-23T07:26:12.000Z</time>
      </trkpt>
      <trkpt lat="47.50224" lon="6.76562">
        <ele>400</ele>
        <time>2015-08-23T07:26:13.000Z</time>
      </trkpt>
      <trkpt lat="47.50223" lon="6.76554">
        <ele>400</ele>
        <time>2015-08-23T07:26:14.000Z</time>
      </trkpt>
      <trkpt lat="47.50223" lon="6.76546">
        <ele>400</ele>
        <time>2015-08-23T07:26:15.000Z</time>
      </trkpt>
      <trkpt lat="47.50222" lon="6.76538">
        <ele>400</ele>
        <time>2015-08-23T07:26:16.000Z</time>
      </trkpt>
      <trkpt lat="47.50221" lon="6.76531">
        <ele>400</ele>
        <time>2015-08-23T07:26:17.000Z</time>
      </trkpt>
      <trkpt lat="47.5022" lon="6.76524">
        <ele>399</ele>
        <time>2015-08-23T07:26:18.000Z</time>
      </trkpt>
      <trkpt lat="47.50217" lon="6.76501">
        <ele>399</ele>
        <time>2015-08-23T07:26:19.000Z</time>
      </trkpt>
      <trkpt lat="47.50214" lon="6.76491">
        <ele>396</ele>
        <time>2015-08-23T07:26:20.000Z</time>
      </trkpt>
      <trkpt lat="47.50213" lon="6.76476">
        <ele>396</ele>
        <time>2015-08-23T07:26:21.000Z</time>
      </trkpt>
      <trkpt lat="47.50208" lon="6.76458">
        <ele>395</ele>
        <time>2015-08-23T07:26:22.000Z</time>
      </trkpt>
      <trkpt lat="47.50205" lon="6.76437">
        <ele>395</ele>
        <time>2015-08-23T07:26:23.000Z</time>
      </trkpt>
      <trkpt lat="47.50202" lon="6.76421">
        <ele>395</ele>
        <time>2015-08-23T07:26:24.000Z</time>
      </trkpt>
      <trkpt lat="47.50197" lon="6.76406">
        <ele>391</ele>
        <time>2015-08-23T07:26:25.000Z</time>
      </trkpt>
      <trkpt lat="47.50196" lon="6.76394">
        <ele>391</ele>
        <time>2015-08-23T07:26:26.000Z</time>
      </trkpt>
      <trkpt lat="47.50194" lon="6.76385">
        <ele>390</ele>
        <time>2015-08-23T07:26:27.000Z</time>
      </trkpt>
      <trkpt lat="47.50189" lon="6.76373">
        <ele>390</ele>
        <time>2015-08-23T07:26:28.000Z</time>
      </trkpt>
      <trkpt lat="47.50184" lon="6.76361">
        <ele>390</ele>
        <time>2015-08-23T07:26:29.000Z</time>
      </trkpt>
      <trkpt lat="47.50181" lon="6.76349">
        <ele>390</ele>
        <time>2015-08-23T07:26:30.000Z</time>
      </trkpt>
      <trkpt lat="47.50178" lon="6.76336">
        <ele>390</ele>
        <time>2015-08-23T07:26:31.000Z</time>
      </trkpt>
      <trkpt lat="47.50171" lon="6.76321">
        <ele>389</ele>
        <time>2015-08-23T07:26:32.000Z</time>
      </trkpt>
      <trkpt lat="47.50167" lon="6.7631">
        <ele>394</ele>
        <time>2015-08-23T07:26:33.000Z</time>
      </trkpt>
      <trkpt lat="47.50161" lon="6.76294">
        <ele>394</ele>
        <time>2015-08-23T07:26:34.000Z</time>
      </trkpt>
      <trkpt lat="47.50162" lon="6.76283">
        <ele>394</ele>
        <time>2015-08-23T07:26:35.000Z</time>
      </trkpt>
      <trkpt lat="47.50161" lon="6.76272">
        <ele>392</ele>
        <time>2015-08-23T07:26:36.000Z</time>
      </trkpt>
      <trkpt lat="47.50161" lon="6.76263">
        <ele>391</ele>
        <time>2015-08-23T07:26:37.000Z</time>
      </trkpt>
      <trkpt lat="47.50159" lon="6.76254">
        <ele>389</ele>
        <time>2015-08-23T07:26:38.000Z</time>
      </trkpt>
      <trkpt lat="47.50157" lon="6.76243">
        <ele>388</ele>
        <time>2015-08-23T07:26:39.000Z</time>
      </trkpt>
      <trkpt lat="47.50155" lon="6.7623">
        <ele>388</ele>
        <time>2015-08-23T07:26:40.000Z</time>
      </trkpt>
      <trkpt lat="47.50151" lon="6.76217">
        <ele>388</ele>
        <time>2015-08-23T07:26:41.000Z</time>
      </trkpt>
      <trkpt lat="47.50151" lon="6.76206">
        <ele>388</ele>
        <time>2015-08-23T07:26:42.000Z</time>
      </trkpt>
      <trkpt lat="47.50148" lon="6.76194">
        <ele>387</ele>
        <time>2015-08-23T07:26:43.000Z</time>
      </trkpt>
      <trkpt lat="47.50147" lon="6.76181">
        <ele>385</ele>
        <time>2015-08-23T07:26:44.000Z</time>
      </trkpt>
      <trkpt lat="47.50145" lon="6.76167">
        <ele>385</ele>
        <time>2015-08-23T07:26:45.000Z</time>
      </trkpt>
      <trkpt lat="47.50143" lon="6.76155">
        <ele>382</ele>
        <time>2015-08-23T07:26:46.000Z</time>
      </trkpt>
      <trkpt lat="47.5014" lon="6.76145">
        <ele>383</ele>
        <time>2015-08-23T07:26:47.000Z</time>
      </trkpt>
      <trkpt lat="47.50136" lon="6.76139">
        <ele>383</ele>
        <time>2015-08-23T07:26:48.000Z</time>
      </trkpt>
      <trkpt lat="47.50132" lon="6.76131">
        <ele>383</ele>
        <time>2015-08-23T07:26:49.000Z</time>
      </trkpt>
      <trkpt lat="47.50131" lon="6.76125">
        <ele>383</ele>
        <time>2015-08-23T07:26:50.000Z</time>
      </trkpt>
      <trkpt lat="47.50128" lon="6.76117">
        <ele>383</ele>
        <time>2015-08-23T07:26:51.000Z</time>
      </trkpt>
      <trkpt lat="47.50124" lon="6.76105">
        <ele>384</ele>
        <time>2015-08-23T07:26:52.000Z</time>
      </trkpt>
      <trkpt lat="47.50122" lon="6.76093">
        <ele>384</ele>
        <time>2015-08-23T07:26:53.000Z</time>
      </trkpt>
      <trkpt lat="47.5012" lon="6.7608">
        <ele>380</ele>
        <time>2015-08-23T07:26:54.000Z</time>
      </trkpt>
      <trkpt lat="47.50118" lon="6.76066">
        <ele>380</ele>
        <time>2015-08-23T07:26:55.000Z</time>
      </trkpt>
      <trkpt lat="47.50118" lon="6.76047">
        <ele>379</ele>
        <time>2015-08-23T07:26:56.000Z</time>
      </trkpt>
      <trkpt lat="47.50115" lon="6.76026">
        <ele>379</ele>
        <time>2015-08-23T07:26:57.000Z</time>
      </trkpt>
      <trkpt lat="47.50111" lon="6.76012">
        <ele>379</ele>
        <time>2015-08-23T07:26:58.000Z</time>
      </trkpt>
      <trkpt lat="47.50106" lon="6.75998">
        <ele>375</ele>
        <time>2015-08-23T07:26:59.000Z</time>
      </trkpt>
      <trkpt lat="47.501" lon="6.75989">
        <ele>376</ele>
        <time>2015-08-23T07:27:00.000Z</time>
      </trkpt>
      <trkpt lat="47.50095" lon="6.75975">
        <ele>375</ele>
        <time>2015-08-23T07:27:01.000Z</time>
      </trkpt>
      <trkpt lat="47.50089" lon="6.75963">
        <ele>374</ele>
        <time>2015-08-23T07:27:02.000Z</time>
      </trkpt>
      <trkpt lat="47.50084" lon="6.75953">
        <ele>374</ele>
        <time>2015-08-23T07:27:03.000Z</time>
      </trkpt>
      <trkpt lat="47.50077" lon="6.75943">
        <ele>377</ele>
        <time>2015-08-23T07:27:04.000Z</time>
      </trkpt>
      <trkpt lat="47.5007" lon="6.75929">
        <ele>376</ele>
        <time>2015-08-23T07:27:05.000Z</time>
      </trkpt>
      <trkpt lat="47.50065" lon="6.75915">
        <ele>375</ele>
        <time>2015-08-23T07:27:06.000Z</time>
      </trkpt>
      <trkpt lat="47.50062" lon="6.75905">
        <ele>375</ele>
        <time>2015-08-23T07:27:07.000Z</time>
      </trkpt>
      <trkpt lat="47.50054" lon="6.75895">
        <ele>376</ele>
        <time>2015-08-23T07:27:08.000Z</time>
      </trkpt>
      <trkpt lat="47.50042" lon="6.75883">
        <ele>376</ele>
        <time>2015-08-23T07:27:09.000Z</time>
      </trkpt>
      <trkpt lat="47.50032" lon="6.75871">
        <ele>376</ele>
        <time>2015-08-23T07:27:10.000Z</time>
      </trkpt>
      <trkpt lat="47.5003" lon="6.7586">
        <ele>376</ele>
        <time>2015-08-23T07:27:11.000Z</time>
      </trkpt>
      <trkpt lat="47.50023" lon="6.75848">
        <ele>377</ele>
        <time>2015-08-23T07:27:12.000Z</time>
      </trkpt>
      <trkpt lat="47.50022" lon="6.75838">
        <ele>377</ele>
        <time>2015-08-23T07:27:13.000Z</time>
      </trkpt>
      <trkpt lat="47.50017" lon="6.75826">
        <ele>376</ele>
        <time>2015-08-23T07:27:14.000Z</time>
      </trkpt>
      <trkpt lat="47.50011" lon="6.75815">
        <ele>376</ele>
        <time>2015-08-23T07:27:15.000Z</time>
      </trkpt>
      <trkpt lat="47.50007" lon="6.75804">
        <ele>376</ele>
        <time>2015-08-23T07:27:16.000Z</time>
      </trkpt>
      <trkpt lat="47.50001" lon="6.75793">
        <ele>376</ele>
        <time>2015-08-23T07:27:17.000Z</time>
      </trkpt>
      <trkpt lat="47.49997" lon="6.75782">
        <ele>375</ele>
        <time>2015-08-23T07:27:18.000Z</time>
      </trkpt>
      <trkpt lat="47.4998" lon="6.75773">
        <ele>375</ele>
        <time>2015-08-23T07:27:19.000Z</time>
      </trkpt>
      <trkpt lat="47.49969" lon="6.75765">
        <ele>374</ele>
        <time>2015-08-23T07:27:20.000Z</time>
      </trkpt>
      <trkpt lat="47.49951" lon="6.75744">
        <ele>371</ele>
        <time>2015-08-23T07:27:22.000Z</time>
      </trkpt>
      <trkpt lat="47.49946" lon="6.75734">
        <ele>370</ele>
        <time>2015-08-23T07:27:23.000Z</time>
      </trkpt>
      <trkpt lat="47.49939" lon="6.75725">
        <ele>370</ele>
        <time>2015-08-23T07:27:24.000Z</time>
      </trkpt>
      <trkpt lat="47.49935" lon="6.75715">
        <ele>370</ele>
        <time>2015-08-23T07:27:25.000Z</time>
      </trkpt>
      <trkpt lat="47.4993" lon="6.75707">
        <ele>370</ele>
        <time>2015-08-23T07:27:26.000Z</time>
      </trkpt>
      <trkpt lat="47.49919" lon="6.75706">
        <ele>370</ele>
        <time>2015-08-23T07:27:27.000Z</time>
      </trkpt>
      <trkpt lat="47.4991" lon="6.75704">
        <ele>365</ele>
        <time>2015-08-23T07:27:28.000Z</time>
      </trkpt>
      <trkpt lat="47.499" lon="6.75701">
        <ele>364</ele>
        <time>2015-08-23T07:27:29.000Z</time>
      </trkpt>
      <trkpt lat="47.4989" lon="6.75699">
        <ele>364</ele>
        <time>2015-08-23T07:27:30.000Z</time>
      </trkpt>
      <trkpt lat="47.49882" lon="6.75697">
        <ele>363</ele>
        <time>2015-08-23T07:27:31.000Z</time>
      </trkpt>
      <trkpt lat="47.4987" lon="6.75696">
        <ele>362</ele>
        <time>2015-08-23T07:27:32.000Z</time>
      </trkpt>
      <trkpt lat="47.49862" lon="6.75698">
        <ele>361</ele>
        <time>2015-08-23T07:27:33.000Z</time>
      </trkpt>
      <trkpt lat="47.49845" lon="6.757">
        <ele>360</ele>
        <time>2015-08-23T07:27:34.000Z</time>
      </trkpt>
      <trkpt lat="47.49835" lon="6.75705">
        <ele>360</ele>
        <time>2015-08-23T07:27:35.000Z</time>
      </trkpt>
      <trkpt lat="47.49828" lon="6.75703">
        <ele>352</ele>
        <time>2015-08-23T07:27:36.000Z</time>
      </trkpt>
      <trkpt lat="47.4982" lon="6.7571">
        <ele>352</ele>
        <time>2015-08-23T07:27:37.000Z</time>
      </trkpt>
      <trkpt lat="47.49807" lon="6.75716">
        <ele>352</ele>
        <time>2015-08-23T07:27:38.000Z</time>
      </trkpt>
      <trkpt lat="47.49799" lon="6.75716">
        <ele>351</ele>
        <time>2015-08-23T07:27:39.000Z</time>
      </trkpt>
      <trkpt lat="47.49784" lon="6.75723">
        <ele>351</ele>
        <time>2015-08-23T07:27:40.000Z</time>
      </trkpt>
      <trkpt lat="47.49774" lon="6.75727">
        <ele>350</ele>
        <time>2015-08-23T07:27:41.000Z</time>
      </trkpt>
      <trkpt lat="47.49755" lon="6.75731">
        <ele>350</ele>
        <time>2015-08-23T07:27:42.000Z</time>
      </trkpt>
      <trkpt lat="47.49741" lon="6.75735">
        <ele>346</ele>
        <time>2015-08-23T07:27:43.000Z</time>
      </trkpt>
      <trkpt lat="47.49735" lon="6.75737">
        <ele>345</ele>
        <time>2015-08-23T07:27:44.000Z</time>
      </trkpt>
      <trkpt lat="47.4972" lon="6.75745">
        <ele>344</ele>
        <time>2015-08-23T07:27:45.000Z</time>
      </trkpt>
      <trkpt lat="47.49709" lon="6.75748">
        <ele>343</ele>
        <time>2015-08-23T07:27:46.000Z</time>
      </trkpt>
      <trkpt lat="47.497" lon="6.75751">
        <ele>351</ele>
        <time>2015-08-23T07:27:47.000Z</time>
      </trkpt>
      <trkpt lat="47.49689" lon="6.75752">
        <ele>350</ele>
        <time>2015-08-23T07:27:48.000Z</time>
      </trkpt>
      <trkpt lat="47.49683" lon="6.75756">
        <ele>349</ele>
        <time>2015-08-23T07:27:49.000Z</time>
      </trkpt>
      <trkpt lat="47.49674" lon="6.7576">
        <ele>348</ele>
        <time>2015-08-23T07:27:50.000Z</time>
      </trkpt>
      <trkpt lat="47.49666" lon="6.75759">
        <ele>345</ele>
        <time>2015-08-23T07:27:51.000Z</time>
      </trkpt>
      <trkpt lat="47.4966" lon="6.75763">
        <ele>345</ele>
        <time>2015-08-23T07:27:52.000Z</time>
      </trkpt>
      <trkpt lat="47.49652" lon="6.75761">
        <ele>345</ele>
        <time>2015-08-23T07:27:53.000Z</time>
      </trkpt>
      <trkpt lat="47.49643" lon="6.75758">
        <ele>345</ele>
        <time>2015-08-23T07:27:54.000Z</time>
      </trkpt>
      <trkpt lat="47.49638" lon="6.75756">
        <ele>345</ele>
        <time>2015-08-23T07:27:55.000Z</time>
      </trkpt>
      <trkpt lat="47.49632" lon="6.75757">
        <ele>344</ele>
        <time>2015-08-23T07:27:56.000Z</time>
      </trkpt>
      <trkpt lat="47.49625" lon="6.75756">
        <ele>344</ele>
        <time>2015-08-23T07:27:57.000Z</time>
      </trkpt>
      <trkpt lat="47.49619" lon="6.75754">
        <ele>343</ele>
        <time>2015-08-23T07:27:58.000Z</time>
      </trkpt>
      <trkpt lat="47.49614" lon="6.75751">
        <ele>342</ele>
        <time>2015-08-23T07:27:59.000Z</time>
      </trkpt>
      <trkpt lat="47.49604" lon="6.75751">
        <ele>341</ele>
        <time>2015-08-23T07:28:00.000Z</time>
      </trkpt>
      <trkpt lat="47.49595" lon="6.7575">
        <ele>333</ele>
        <time>2015-08-23T07:28:01.000Z</time>
      </trkpt>
      <trkpt lat="47.49587" lon="6.75747">
        <ele>334</ele>
        <time>2015-08-23T07:28:02.000Z</time>
      </trkpt>
      <trkpt lat="47.49583" lon="6.75745">
        <ele>332</ele>
        <time>2015-08-23T07:28:03.000Z</time>
      </trkpt>
      <trkpt lat="47.49582" lon="6.75742">
        <ele>331</ele>
        <time>2015-08-23T07:28:04.000Z</time>
      </trkpt>
      <trkpt lat="47.49578" lon="6.75737">
        <ele>330</ele>
        <time>2015-08-23T07:28:05.000Z</time>
      </trkpt>
      <trkpt lat="47.49575" lon="6.75735">
        <ele>329</ele>
        <time>2015-08-23T07:28:07.000Z</time>
      </trkpt>
      <trkpt lat="47.49572" lon="6.75738">
        <ele>329</ele>
        <time>2015-08-23T07:28:08.000Z</time>
      </trkpt>
      <trkpt lat="47.49566" lon="6.75739">
        <ele>329</ele>
        <time>2015-08-23T07:28:09.000Z</time>
      </trkpt>
      <trkpt lat="47.49567" lon="6.75737">
        <ele>329</ele>
        <time>2015-08-23T07:28:10.000Z</time>
      </trkpt>
      <trkpt lat="47.4957" lon="6.75734">
        <ele>329</ele>
        <time>2015-08-23T07:28:11.000Z</time>
      </trkpt>
      <trkpt lat="47.49572" lon="6.75731">
        <ele>328</ele>
        <time>2015-08-23T07:28:12.000Z</time>
      </trkpt>
      <trkpt lat="47.49575" lon="6.75729">
        <ele>328</ele>
        <time>2015-08-23T07:28:13.000Z</time>
      </trkpt>
      <trkpt lat="47.49578" lon="6.75726">
        <ele>328</ele>
        <time>2015-08-23T07:28:14.000Z</time>
      </trkpt>
      <trkpt lat="47.49581" lon="6.75723">
        <ele>328</ele>
        <time>2015-08-23T07:28:15.000Z</time>
      </trkpt>
      <trkpt lat="47.49584" lon="6.75719">
        <ele>331</ele>
        <time>2015-08-23T07:28:16.000Z</time>
      </trkpt>
      <trkpt lat="47.49586" lon="6.75712">
        <ele>330</ele>
        <time>2015-08-23T07:28:17.000Z</time>
      </trkpt>
      <trkpt lat="47.49589" lon="6.75706">
        <ele>330</ele>
        <time>2015-08-23T07:28:18.000Z</time>
      </trkpt>
      <trkpt lat="47.49592" lon="6.75699">
        <ele>329</ele>
        <time>2015-08-23T07:28:19.000Z</time>
      </trkpt>
      <trkpt lat="47.49594" lon="6.75691">
        <ele>328</ele>
        <time>2015-08-23T07:28:20.000Z</time>
      </trkpt>
      <trkpt lat="47.49589" lon="6.7568">
        <ele>326</ele>
        <time>2015-08-23T07:28:22.000Z</time>
      </trkpt>
      <trkpt lat="47.49585" lon="6.75676">
        <ele>324</ele>
        <time>2015-08-23T07:28:23.000Z</time>
      </trkpt>
      <trkpt lat="47.49582" lon="6.75672">
        <ele>322</ele>
        <time>2015-08-23T07:28:24.000Z</time>
      </trkpt>
      <trkpt lat="47.49579" lon="6.75667">
        <ele>322</ele>
        <time>2015-08-23T07:28:25.000Z</time>
      </trkpt>
      <trkpt lat="47.49575" lon="6.75663">
        <ele>321</ele>
        <time>2015-08-23T07:28:26.000Z</time>
      </trkpt>
      <trkpt lat="47.49569" lon="6.75664">
        <ele>321</ele>
        <time>2015-08-23T07:28:27.000Z</time>
      </trkpt>
      <trkpt lat="47.49564" lon="6.75667">
        <ele>323</ele>
        <time>2015-08-23T07:28:28.000Z</time>
      </trkpt>
      <trkpt lat="47.49561" lon="6.75673">
        <ele>323</ele>
        <time>2015-08-23T07:28:29.000Z</time>
      </trkpt>
      <trkpt lat="47.49557" lon="6.75681">
        <ele>324</ele>
        <time>2015-08-23T07:28:30.000Z</time>
      </trkpt>
      <trkpt lat="47.49554" lon="6.75688">
        <ele>324</ele>
        <time>2015-08-23T07:28:31.000Z</time>
      </trkpt>
      <trkpt lat="47.49549" lon="6.75693">
        <ele>324</ele>
        <time>2015-08-23T07:28:32.000Z</time>
      </trkpt>
      <trkpt lat="47.49546" lon="6.75698">
        <ele>325</ele>
        <time>2015-08-23T07:28:33.000Z</time>
      </trkpt>
      <trkpt lat="47.49542" lon="6.75702">
        <ele>325</ele>
        <time>2015-08-23T07:28:34.000Z</time>
      </trkpt>
      <trkpt lat="47.49538" lon="6.75707">
        <ele>325</ele>
        <time>2015-08-23T07:28:35.000Z</time>
      </trkpt>
      <trkpt lat="47.49533" lon="6.75711">
        <ele>325</ele>
        <time>2015-08-23T07:28:36.000Z</time>
      </trkpt>
      <trkpt lat="47.4953" lon="6.75711">
        <ele>325</ele>
        <time>2015-08-23T07:28:37.000Z</time>
      </trkpt>
      <trkpt lat="47.49526" lon="6.75715">
        <ele>325</ele>
        <time>2015-08-23T07:28:38.000Z</time>
      </trkpt>
      <trkpt lat="47.49521" lon="6.75719">
        <ele>325</ele>
        <time>2015-08-23T07:28:39.000Z</time>
      </trkpt>
      <trkpt lat="47.49517" lon="6.75723">
        <ele>325</ele>
        <time>2015-08-23T07:28:40.000Z</time>
      </trkpt>
      <trkpt lat="47.49512" lon="6.75726">
        <ele>325</ele>
        <time>2015-08-23T07:28:41.000Z</time>
      </trkpt>
      <trkpt lat="47.49507" lon="6.75728">
        <ele>325</ele>
        <time>2015-08-23T07:28:42.000Z</time>
      </trkpt>
      <trkpt lat="47.49502" lon="6.75731">
        <ele>324</ele>
        <time>2015-08-23T07:28:43.000Z</time>
      </trkpt>
      <trkpt lat="47.49497" lon="6.75734">
        <ele>323</ele>
        <time>2015-08-23T07:28:44.000Z</time>
      </trkpt>
      <trkpt lat="47.49492" lon="6.75736">
        <ele>323</ele>
        <time>2015-08-23T07:28:45.000Z</time>
      </trkpt>
      <trkpt lat="47.49487" lon="6.75739">
        <ele>322</ele>
        <time>2015-08-23T07:28:46.000Z</time>
      </trkpt>
      <trkpt lat="47.49481" lon="6.75738">
        <ele>322</ele>
        <time>2015-08-23T07:28:47.000Z</time>
      </trkpt>
      <trkpt lat="47.49478" lon="6.75733">
        <ele>322</ele>
        <time>2015-08-23T07:28:48.000Z</time>
      </trkpt>
      <trkpt lat="47.49474" lon="6.75725">
        <ele>322</ele>
        <time>2015-08-23T07:28:49.000Z</time>
      </trkpt>
      <trkpt lat="47.4947" lon="6.75718">
        <ele>321</ele>
        <time>2015-08-23T07:28:50.000Z</time>
      </trkpt>
      <trkpt lat="47.4947" lon="6.75712">
        <ele>321</ele>
        <time>2015-08-23T07:28:51.000Z</time>
      </trkpt>
      <trkpt lat="47.49467" lon="6.75706">
        <ele>321</ele>
        <time>2015-08-23T07:28:52.000Z</time>
      </trkpt>
      <trkpt lat="47.49464" lon="6.757">
        <ele>321</ele>
        <time>2015-08-23T07:28:53.000Z</time>
      </trkpt>
      <trkpt lat="47.49461" lon="6.75695">
        <ele>321</ele>
        <time>2015-08-23T07:28:54.000Z</time>
      </trkpt>
      <trkpt lat="47.49456" lon="6.75694">
        <ele>321</ele>
        <time>2015-08-23T07:28:55.000Z</time>
      </trkpt>
      <trkpt lat="47.49451" lon="6.75696">
        <ele>321</ele>
        <time>2015-08-23T07:28:56.000Z</time>
      </trkpt>
      <trkpt lat="47.49446" lon="6.757">
        <ele>321</ele>
        <time>2015-08-23T07:28:57.000Z</time>
      </trkpt>
      <trkpt lat="47.49442" lon="6.757">
        <ele>321</ele>
        <time>2015-08-23T07:28:58.000Z</time>
      </trkpt>
      <trkpt lat="47.49438" lon="6.75698">
        <ele>321</ele>
        <time>2015-08-23T07:28:59.000Z</time>
      </trkpt>
      <trkpt lat="47.49436" lon="6.75691">
        <ele>320</ele>
        <time>2015-08-23T07:29:00.000Z</time>
      </trkpt>
      <trkpt lat="47.49433" lon="6.75685">
        <ele>320</ele>
        <time>2015-08-23T07:29:01.000Z</time>
      </trkpt>
      <trkpt lat="47.49429" lon="6.75679">
        <ele>320</ele>
        <time>2015-08-23T07:29:02.000Z</time>
      </trkpt>
      <trkpt lat="47.49427" lon="6.75673">
        <ele>320</ele>
        <time>2015-08-23T07:29:03.000Z</time>
      </trkpt>
      <trkpt lat="47.49425" lon="6.7567">
        <ele>320</ele>
        <time>2015-08-23T07:29:04.000Z</time>
      </trkpt>
      <trkpt lat="47.49423" lon="6.75667">
        <ele>319</ele>
        <time>2015-08-23T07:29:05.000Z</time>
      </trkpt>
      <trkpt lat="47.49419" lon="6.75667">
        <ele>319</ele>
        <time>2015-08-23T07:29:06.000Z</time>
      </trkpt>
      <trkpt lat="47.49414" lon="6.75669">
        <ele>319</ele>
        <time>2015-08-23T07:29:07.000Z</time>
      </trkpt>
      <trkpt lat="47.49411" lon="6.7567">
        <ele>319</ele>
        <time>2015-08-23T07:29:08.000Z</time>
      </trkpt>
      <trkpt lat="47.49405" lon="6.75672">
        <ele>319</ele>
        <time>2015-08-23T07:29:09.000Z</time>
      </trkpt>
      <trkpt lat="47.49399" lon="6.75675">
        <ele>319</ele>
        <time>2015-08-23T07:29:10.000Z</time>
      </trkpt>
      <trkpt lat="47.49393" lon="6.75678">
        <ele>319</ele>
        <time>2015-08-23T07:29:11.000Z</time>
      </trkpt>
      <trkpt lat="47.49389" lon="6.75684">
        <ele>319</ele>
        <time>2015-08-23T07:29:12.000Z</time>
      </trkpt>
      <trkpt lat="47.49384" lon="6.75687">
        <ele>319</ele>
        <time>2015-08-23T07:29:13.000Z</time>
      </trkpt>
      <trkpt lat="47.4938" lon="6.75691">
        <ele>319</ele>
        <time>2015-08-23T07:29:14.000Z</time>
      </trkpt>
      <trkpt lat="47.49375" lon="6.75694">
        <ele>319</ele>
        <time>2015-08-23T07:29:15.000Z</time>
      </trkpt>
      <trkpt lat="47.49371" lon="6.75696">
        <ele>319</ele>
        <time>2015-08-23T07:29:16.000Z</time>
      </trkpt>
      <trkpt lat="47.49369" lon="6.75696">
        <ele>319</ele>
        <time>2015-08-23T07:29:17.000Z</time>
      </trkpt>
      <trkpt lat="47.49366" lon="6.75697">
        <ele>319</ele>
        <time>2015-08-23T07:29:18.000Z</time>
      </trkpt>
      <trkpt lat="47.49363" lon="6.75699">
        <ele>319</ele>
        <time>2015-08-23T07:29:19.000Z</time>
      </trkpt>
      <trkpt lat="47.49358" lon="6.75701">
        <ele>319</ele>
        <time>2015-08-23T07:29:20.000Z</time>
      </trkpt>
      <trkpt lat="47.49357" lon="6.75702">
        <ele>319</ele>
        <time>2015-08-23T07:29:21.000Z</time>
      </trkpt>
      <trkpt lat="47.49357" lon="6.75708">
        <ele>319</ele>
        <time>2015-08-23T07:29:22.000Z</time>
      </trkpt>
      <trkpt lat="47.49354" lon="6.75709">
        <ele>319</ele>
        <time>2015-08-23T07:29:23.000Z</time>
      </trkpt>
      <trkpt lat="47.49353" lon="6.75713">
        <ele>319</ele>
        <time>2015-08-23T07:29:24.000Z</time>
      </trkpt>
      <trkpt lat="47.49349" lon="6.75717">
        <ele>319</ele>
        <time>2015-08-23T07:29:26.000Z</time>
      </trkpt>
      <trkpt lat="47.49347" lon="6.75718">
        <ele>319</ele>
        <time>2015-08-23T07:29:27.000Z</time>
      </trkpt>
      <trkpt lat="47.49344" lon="6.75719">
        <ele>318</ele>
        <time>2015-08-23T07:29:28.000Z</time>
      </trkpt>
      <trkpt lat="47.49341" lon="6.75721">
        <ele>318</ele>
        <time>2015-08-23T07:29:29.000Z</time>
      </trkpt>
      <trkpt lat="47.49337" lon="6.75723">
        <ele>318</ele>
        <time>2015-08-23T07:29:30.000Z</time>
      </trkpt>
      <trkpt lat="47.49334" lon="6.75726">
        <ele>318</ele>
        <time>2015-08-23T07:29:31.000Z</time>
      </trkpt>
      <trkpt lat="47.4933" lon="6.75728">
        <ele>319</ele>
        <time>2015-08-23T07:29:32.000Z</time>
      </trkpt>
      <trkpt lat="47.49326" lon="6.7573">
        <ele>319</ele>
        <time>2015-08-23T07:29:33.000Z</time>
      </trkpt>
      <trkpt lat="47.49315" lon="6.75735">
        <ele>319</ele>
        <time>2015-08-23T07:29:34.000Z</time>
      </trkpt>
      <trkpt lat="47.49309" lon="6.75739">
        <ele>319</ele>
        <time>2015-08-23T07:29:35.000Z</time>
      </trkpt>
      <trkpt lat="47.49305" lon="6.75745">
        <ele>319</ele>
        <time>2015-08-23T07:29:36.000Z</time>
      </trkpt>
      <trkpt lat="47.493" lon="6.75752">
        <ele>318</ele>
        <time>2015-08-23T07:29:37.000Z</time>
      </trkpt>
      <trkpt lat="47.49296" lon="6.75757">
        <ele>318</ele>
        <time>2015-08-23T07:29:37.999Z</time>
      </trkpt>
      <trkpt lat="47.4929" lon="6.75765">
        <ele>318</ele>
        <time>2015-08-23T07:29:39.000Z</time>
      </trkpt>
      <trkpt lat="47.49285" lon="6.75771">
        <ele>318</ele>
        <time>2015-08-23T07:29:40.000Z</time>
      </trkpt>
      <trkpt lat="47.4928" lon="6.75777">
        <ele>318</ele>
        <time>2015-08-23T07:29:41.000Z</time>
      </trkpt>
      <trkpt lat="47.49275" lon="6.75782">
        <ele>318</ele>
        <time>2015-08-23T07:29:42.000Z</time>
      </trkpt>
      <trkpt lat="47.49269" lon="6.75788">
        <ele>318</ele>
        <time>2015-08-23T07:29:43.000Z</time>
      </trkpt>
      <trkpt lat="47.49265" lon="6.75793">
        <ele>317</ele>
        <time>2015-08-23T07:29:44.000Z</time>
      </trkpt>
      <trkpt lat="47.4926" lon="6.75798">
        <ele>317</ele>
        <time>2015-08-23T07:29:45.000Z</time>
      </trkpt>
      <trkpt lat="47.49255" lon="6.75802">
        <ele>317</ele>
        <time>2015-08-23T07:29:46.000Z</time>
      </trkpt>
      <trkpt lat="47.49252" lon="6.75814">
        <ele>316</ele>
        <time>2015-08-23T07:29:47.000Z</time>
      </trkpt>
      <trkpt lat="47.49248" lon="6.75819">
        <ele>317</ele>
        <time>2015-08-23T07:29:48.000Z</time>
      </trkpt>
      <trkpt lat="47.49243" lon="6.75827">
        <ele>316</ele>
        <time>2015-08-23T07:29:49.000Z</time>
      </trkpt>
      <trkpt lat="47.49238" lon="6.75835">
        <ele>316</ele>
        <time>2015-08-23T07:29:50.000Z</time>
      </trkpt>
      <trkpt lat="47.49234" lon="6.7584">
        <ele>316</ele>
        <time>2015-08-23T07:29:51.000Z</time>
      </trkpt>
      <trkpt lat="47.49229" lon="6.75848">
        <ele>317</ele>
        <time>2015-08-23T07:29:52.000Z</time>
      </trkpt>
      <trkpt lat="47.49226" lon="6.75855">
        <ele>318</ele>
        <time>2015-08-23T07:29:53.000Z</time>
      </trkpt>
      <trkpt lat="47.49223" lon="6.7586">
        <ele>318</ele>
        <time>2015-08-23T07:29:54.000Z</time>
      </trkpt>
      <trkpt lat="47.4922" lon="6.75866">
        <ele>319</ele>
        <time>2015-08-23T07:29:55.000Z</time>
      </trkpt>
      <trkpt lat="47.49215" lon="6.75871">
        <ele>319</ele>
        <time>2015-08-23T07:29:56.000Z</time>
      </trkpt>
      <trkpt lat="47.49212" lon="6.75879">
        <ele>319</ele>
        <time>2015-08-23T07:29:57.000Z</time>
      </trkpt>
      <trkpt lat="47.49208" lon="6.75887">
        <ele>320</ele>
        <time>2015-08-23T07:29:58.000Z</time>
      </trkpt>
      <trkpt lat="47.49205" lon="6.75892">
        <ele>320</ele>
        <time>2015-08-23T07:29:59.000Z</time>
      </trkpt>
      <trkpt lat="47.49201" lon="6.75895">
        <ele>320</ele>
        <time>2015-08-23T07:30:00.000Z</time>
      </trkpt>
      <trkpt lat="47.49198" lon="6.75902">
        <ele>320</ele>
        <time>2015-08-23T07:30:01.000Z</time>
      </trkpt>
      <trkpt lat="47.49194" lon="6.75908">
        <ele>320</ele>
        <time>2015-08-23T07:30:02.000Z</time>
      </trkpt>
      <trkpt lat="47.49191" lon="6.75913">
        <ele>321</ele>
        <time>2015-08-23T07:30:03.000Z</time>
      </trkpt>
      <trkpt lat="47.49187" lon="6.75919">
        <ele>321</ele>
        <time>2015-08-23T07:30:04.000Z</time>
      </trkpt>
      <trkpt lat="47.49182" lon="6.75922">
        <ele>321</ele>
        <time>2015-08-23T07:30:05.000Z</time>
      </trkpt>
      <trkpt lat="47.49177" lon="6.75927">
        <ele>322</ele>
        <time>2015-08-23T07:30:06.000Z</time>
      </trkpt>
      <trkpt lat="47.49175" lon="6.75934">
        <ele>321</ele>
        <time>2015-08-23T07:30:07.000Z</time>
      </trkpt>
      <trkpt lat="47.49172" lon="6.75942">
        <ele>321</ele>
        <time>2015-08-23T07:30:08.000Z</time>
      </trkpt>
      <trkpt lat="47.4917" lon="6.75957">
        <ele>321</ele>
        <time>2015-08-23T07:30:09.000Z</time>
      </trkpt>
      <trkpt lat="47.49166" lon="6.7597">
        <ele>325</ele>
        <time>2015-08-23T07:30:10.000Z</time>
      </trkpt>
      <trkpt lat="47.49162" lon="6.75976">
        <ele>324</ele>
        <time>2015-08-23T07:30:11.000Z</time>
      </trkpt>
      <trkpt lat="47.49158" lon="6.75984">
        <ele>324</ele>
        <time>2015-08-23T07:30:12.000Z</time>
      </trkpt>
      <trkpt lat="47.49154" lon="6.75994">
        <ele>323</ele>
        <time>2015-08-23T07:30:13.000Z</time>
      </trkpt>
      <trkpt lat="47.4915" lon="6.76005">
        <ele>322</ele>
        <time>2015-08-23T07:30:14.000Z</time>
      </trkpt>
      <trkpt lat="47.49146" lon="6.76016">
        <ele>323</ele>
        <time>2015-08-23T07:30:15.000Z</time>
      </trkpt>
      <trkpt lat="47.49143" lon="6.76023">
        <ele>323</ele>
        <time>2015-08-23T07:30:16.000Z</time>
      </trkpt>
      <trkpt lat="47.4914" lon="6.76031">
        <ele>324</ele>
        <time>2015-08-23T07:30:17.000Z</time>
      </trkpt>
      <trkpt lat="47.49136" lon="6.76039">
        <ele>324</ele>
        <time>2015-08-23T07:30:18.000Z</time>
      </trkpt>
      <trkpt lat="47.49134" lon="6.76048">
        <ele>324</ele>
        <time>2015-08-23T07:30:19.000Z</time>
      </trkpt>
      <trkpt lat="47.49132" lon="6.76056">
        <ele>324</ele>
        <time>2015-08-23T07:30:20.000Z</time>
      </trkpt>
      <trkpt lat="47.4913" lon="6.76065">
        <ele>324</ele>
        <time>2015-08-23T07:30:21.000Z</time>
      </trkpt>
      <trkpt lat="47.49128" lon="6.76073">
        <ele>324</ele>
        <time>2015-08-23T07:30:22.000Z</time>
      </trkpt>
      <trkpt lat="47.49126" lon="6.76083">
        <ele>324</ele>
        <time>2015-08-23T07:30:23.000Z</time>
      </trkpt>
      <trkpt lat="47.49124" lon="6.76093">
        <ele>323</ele>
        <time>2015-08-23T07:30:24.000Z</time>
      </trkpt>
      <trkpt lat="47.49122" lon="6.76101">
        <ele>323</ele>
        <time>2015-08-23T07:30:25.000Z</time>
      </trkpt>
      <trkpt lat="47.4912" lon="6.76104">
        <ele>323</ele>
        <time>2015-08-23T07:30:26.000Z</time>
      </trkpt>
      <trkpt lat="47.49117" lon="6.76112">
        <ele>323</ele>
        <time>2015-08-23T07:30:27.000Z</time>
      </trkpt>
      <trkpt lat="47.49114" lon="6.76115">
        <ele>323</ele>
        <time>2015-08-23T07:30:28.000Z</time>
      </trkpt>
      <trkpt lat="47.49112" lon="6.7612">
        <ele>323</ele>
        <time>2015-08-23T07:30:29.000Z</time>
      </trkpt>
      <trkpt lat="47.49109" lon="6.76125">
        <ele>323</ele>
        <time>2015-08-23T07:30:30.000Z</time>
      </trkpt>
      <trkpt lat="47.49106" lon="6.76128">
        <ele>323</ele>
        <time>2015-08-23T07:30:31.000Z</time>
      </trkpt>
      <trkpt lat="47.49104" lon="6.76135">
        <ele>323</ele>
        <time>2015-08-23T07:30:32.000Z</time>
      </trkpt>
      <trkpt lat="47.49103" lon="6.76148">
        <ele>323</ele>
        <time>2015-08-23T07:30:33.000Z</time>
      </trkpt>
      <trkpt lat="47.49101" lon="6.7616">
        <ele>323</ele>
        <time>2015-08-23T07:30:34.000Z</time>
      </trkpt>
      <trkpt lat="47.491" lon="6.76169">
        <ele>323</ele>
        <time>2015-08-23T07:30:35.000Z</time>
      </trkpt>
      <trkpt lat="47.49107" lon="6.76184">
        <ele>322</ele>
        <time>2015-08-23T07:30:36.000Z</time>
      </trkpt>
      <trkpt lat="47.49108" lon="6.76201">
        <ele>322</ele>
        <time>2015-08-23T07:30:37.000Z</time>
      </trkpt>
      <trkpt lat="47.49109" lon="6.76212">
        <ele>322</ele>
        <time>2015-08-23T07:30:38.000Z</time>
      </trkpt>
      <trkpt lat="47.49105" lon="6.76218">
        <ele>322</ele>
        <time>2015-08-23T07:30:39.000Z</time>
      </trkpt>
      <trkpt lat="47.49105" lon="6.76227">
        <ele>322</ele>
        <time>2015-08-23T07:30:40.000Z</time>
      </trkpt>
      <trkpt lat="47.49109" lon="6.76241">
        <ele>322</ele>
        <time>2015-08-23T07:30:41.000Z</time>
      </trkpt>
      <trkpt lat="47.49111" lon="6.76252">
        <ele>321</ele>
        <time>2015-08-23T07:30:42.000Z</time>
      </trkpt>
      <trkpt lat="47.4911" lon="6.76259">
        <ele>321</ele>
        <time>2015-08-23T07:30:43.000Z</time>
      </trkpt>
      <trkpt lat="47.49109" lon="6.76269">
        <ele>321</ele>
        <time>2015-08-23T07:30:44.000Z</time>
      </trkpt>
      <trkpt lat="47.49108" lon="6.76277">
        <ele>321</ele>
        <time>2015-08-23T07:30:45.000Z</time>
      </trkpt>
      <trkpt lat="47.49107" lon="6.76285">
        <ele>321</ele>
        <time>2015-08-23T07:30:46.000Z</time>
      </trkpt>
      <trkpt lat="47.49108" lon="6.76294">
        <ele>320</ele>
        <time>2015-08-23T07:30:47.000Z</time>
      </trkpt>
      <trkpt lat="47.49108" lon="6.763">
        <ele>320</ele>
        <time>2015-08-23T07:30:48.000Z</time>
      </trkpt>
      <trkpt lat="47.49107" lon="6.76309">
        <ele>320</ele>
        <time>2015-08-23T07:30:49.000Z</time>
      </trkpt>
      <trkpt lat="47.49106" lon="6.76314">
        <ele>320</ele>
        <time>2015-08-23T07:30:50.000Z</time>
      </trkpt>
      <trkpt lat="47.49105" lon="6.76322">
        <ele>321</ele>
        <time>2015-08-23T07:30:51.000Z</time>
      </trkpt>
      <trkpt lat="47.49102" lon="6.76329">
        <ele>321</ele>
        <time>2015-08-23T07:30:52.000Z</time>
      </trkpt>
      <trkpt lat="47.491" lon="6.76336">
        <ele>320</ele>
        <time>2015-08-23T07:30:53.000Z</time>
      </trkpt>
      <trkpt lat="47.491" lon="6.76347">
        <ele>320</ele>
        <time>2015-08-23T07:30:54.000Z</time>
      </trkpt>
      <trkpt lat="47.491" lon="6.76354">
        <ele>320</ele>
        <time>2015-08-23T07:30:55.000Z</time>
      </trkpt>
      <trkpt lat="47.49098" lon="6.76359">
        <ele>319</ele>
        <time>2015-08-23T07:30:56.000Z</time>
      </trkpt>
      <trkpt lat="47.49098" lon="6.76364">
        <ele>319</ele>
        <time>2015-08-23T07:30:57.000Z</time>
      </trkpt>
      <trkpt lat="47.49099" lon="6.76373">
        <ele>319</ele>
        <time>2015-08-23T07:30:58.000Z</time>
      </trkpt>
      <trkpt lat="47.49099" lon="6.76383">
        <ele>319</ele>
        <time>2015-08-23T07:30:59.000Z</time>
      </trkpt>
      <trkpt lat="47.49099" lon="6.76393">
        <ele>319</ele>
        <time>2015-08-23T07:31:00.000Z</time>
      </trkpt>
      <trkpt lat="47.49099" lon="6.76401">
        <ele>319</ele>
        <time>2015-08-23T07:31:01.000Z</time>
      </trkpt>
      <trkpt lat="47.49101" lon="6.76414">
        <ele>319</ele>
        <time>2015-08-23T07:31:02.000Z</time>
      </trkpt>
      <trkpt lat="47.49101" lon="6.76423">
        <ele>319</ele>
        <time>2015-08-23T07:31:03.000Z</time>
      </trkpt>
      <trkpt lat="47.49101" lon="6.76434">
        <ele>318</ele>
        <time>2015-08-23T07:31:04.000Z</time>
      </trkpt>
      <trkpt lat="47.49103" lon="6.76451">
        <ele>318</ele>
        <time>2015-08-23T07:31:05.000Z</time>
      </trkpt>
      <trkpt lat="47.49103" lon="6.76459">
        <ele>318</ele>
        <time>2015-08-23T07:31:06.000Z</time>
      </trkpt>
      <trkpt lat="47.49102" lon="6.76467">
        <ele>318</ele>
        <time>2015-08-23T07:31:07.000Z</time>
      </trkpt>
      <trkpt lat="47.49103" lon="6.76479">
        <ele>318</ele>
        <time>2015-08-23T07:31:08.000Z</time>
      </trkpt>
      <trkpt lat="47.49111" lon="6.76505">
        <ele>317</ele>
        <time>2015-08-23T07:31:09.000Z</time>
      </trkpt>
      <trkpt lat="47.49119" lon="6.76519">
        <ele>316</ele>
        <time>2015-08-23T07:31:10.000Z</time>
      </trkpt>
      <trkpt lat="47.4913" lon="6.76518">
        <ele>316</ele>
        <time>2015-08-23T07:31:11.000Z</time>
      </trkpt>
      <trkpt lat="47.49138" lon="6.76517">
        <ele>315</ele>
        <time>2015-08-23T07:31:12.000Z</time>
      </trkpt>
      <trkpt lat="47.49146" lon="6.76515">
        <ele>315</ele>
        <time>2015-08-23T07:31:13.000Z</time>
      </trkpt>
      <trkpt lat="47.49153" lon="6.76512">
        <ele>314</ele>
        <time>2015-08-23T07:31:14.000Z</time>
      </trkpt>
      <trkpt lat="47.49159" lon="6.76506">
        <ele>314</ele>
        <time>2015-08-23T07:31:15.000Z</time>
      </trkpt>
      <trkpt lat="47.49165" lon="6.76503">
        <ele>313</ele>
        <time>2015-08-23T07:31:16.000Z</time>
      </trkpt>
      <trkpt lat="47.4917" lon="6.765">
        <ele>314</ele>
        <time>2015-08-23T07:31:17.000Z</time>
      </trkpt>
      <trkpt lat="47.49174" lon="6.76495">
        <ele>315</ele>
        <time>2015-08-23T07:31:18.000Z</time>
      </trkpt>
      <trkpt lat="47.49178" lon="6.7649">
        <ele>315</ele>
        <time>2015-08-23T07:31:19.000Z</time>
      </trkpt>
      <trkpt lat="47.49179" lon="6.76483">
        <ele>316</ele>
        <time>2015-08-23T07:31:20.000Z</time>
      </trkpt>
      <trkpt lat="47.49174" lon="6.76475">
        <ele>316</ele>
        <time>2015-08-23T07:31:22.000Z</time>
      </trkpt>
      <trkpt lat="47.49172" lon="6.76472">
        <ele>316</ele>
        <time>2015-08-23T07:31:23.000Z</time>
      </trkpt>
      <trkpt lat="47.49169" lon="6.7647">
        <ele>316</ele>
        <time>2015-08-23T07:31:24.000Z</time>
      </trkpt>
      <trkpt lat="47.49173" lon="6.7647">
        <ele>316</ele>
        <time>2015-08-23T07:38:04.000Z</time>
      </trkpt>
      <trkpt lat="47.49174" lon="6.76472">
        <ele>316</ele>
        <time>2015-08-23T07:38:05.000Z</time>
      </trkpt>
      <trkpt lat="47.49176" lon="6.76478">
        <ele>316</ele>
        <time>2015-08-23T07:38:07.000Z</time>
      </trkpt>
      <trkpt lat="47.49177" lon="6.76481">
        <ele>316</ele>
        <time>2015-08-23T07:38:08.000Z</time>
      </trkpt>
      <trkpt lat="47.49178" lon="6.76484">
        <ele>316</ele>
        <time>2015-08-23T07:38:09.001Z</time>
      </trkpt>
      <trkpt lat="47.49179" lon="6.76488">
        <ele>315</ele>
        <time>2015-08-23T07:38:10.000Z</time>
      </trkpt>
      <trkpt lat="47.49179" lon="6.76491">
        <ele>315</ele>
        <time>2015-08-23T07:38:11.000Z</time>
      </trkpt>
      <trkpt lat="47.49179" lon="6.76495">
        <ele>315</ele>
        <time>2015-08-23T07:38:12.000Z</time>
      </trkpt>
      <trkpt lat="47.49179" lon="6.76499">
        <ele>315</ele>
        <time>2015-08-23T07:38:13.000Z</time>
      </trkpt>
      <trkpt lat="47.49177" lon="6.76502">
        <ele>314</ele>
        <time>2015-08-23T07:38:14.000Z</time>
      </trkpt>
      <trkpt lat="47.49175" lon="6.76506">
        <ele>314</ele>
        <time>2015-08-23T07:38:15.000Z</time>
      </trkpt>
      <trkpt lat="47.49173" lon="6.76509">
        <ele>314</ele>
        <time>2015-08-23T07:38:15.999Z</time>
      </trkpt>
      <trkpt lat="47.49169" lon="6.76511">
        <ele>314</ele>
        <time>2015-08-23T07:38:17.000Z</time>
      </trkpt>
      <trkpt lat="47.49166" lon="6.76513">
        <ele>314</ele>
        <time>2015-08-23T07:38:18.000Z</time>
      </trkpt>
      <trkpt lat="47.49162" lon="6.76515">
        <ele>314</ele>
        <time>2015-08-23T07:38:19.000Z</time>
      </trkpt>
      <trkpt lat="47.49158" lon="6.76518">
        <ele>314</ele>
        <time>2015-08-23T07:38:20.000Z</time>
      </trkpt>
      <trkpt lat="47.4915" lon="6.76521">
        <ele>315</ele>
        <time>2015-08-23T07:38:21.000Z</time>
      </trkpt>
      <trkpt lat="47.49145" lon="6.76523">
        <ele>315</ele>
        <time>2015-08-23T07:38:22.000Z</time>
      </trkpt>
      <trkpt lat="47.4914" lon="6.76524">
        <ele>315</ele>
        <time>2015-08-23T07:38:23.000Z</time>
      </trkpt>
      <trkpt lat="47.49134" lon="6.76526">
        <ele>316</ele>
        <time>2015-08-23T07:38:24.000Z</time>
      </trkpt>
      <trkpt lat="47.4913" lon="6.76528">
        <ele>316</ele>
        <time>2015-08-23T07:38:25.000Z</time>
      </trkpt>
      <trkpt lat="47.49125" lon="6.76529">
        <ele>316</ele>
        <time>2015-08-23T07:38:26.000Z</time>
      </trkpt>
      <trkpt lat="47.49121" lon="6.76533">
        <ele>316</ele>
        <time>2015-08-23T07:38:27.000Z</time>
      </trkpt>
      <trkpt lat="47.49121" lon="6.76541">
        <ele>316</ele>
        <time>2015-08-23T07:38:28.000Z</time>
      </trkpt>
      <trkpt lat="47.49121" lon="6.76548">
        <ele>316</ele>
        <time>2015-08-23T07:38:29.000Z</time>
      </trkpt>
      <trkpt lat="47.4912" lon="6.76556">
        <ele>316</ele>
        <time>2015-08-23T07:38:29.999Z</time>
      </trkpt>
      <trkpt lat="47.49123" lon="6.76566">
        <ele>316</ele>
        <time>2015-08-23T07:38:31.000Z</time>
      </trkpt>
      <trkpt lat="47.49124" lon="6.76575">
        <ele>315</ele>
        <time>2015-08-23T07:38:32.000Z</time>
      </trkpt>
      <trkpt lat="47.49125" lon="6.76583">
        <ele>315</ele>
        <time>2015-08-23T07:38:33.000Z</time>
      </trkpt>
      <trkpt lat="47.49126" lon="6.76592">
        <ele>314</ele>
        <time>2015-08-23T07:38:34.000Z</time>
      </trkpt>
      <trkpt lat="47.49128" lon="6.76599">
        <ele>314</ele>
        <time>2015-08-23T07:38:35.000Z</time>
      </trkpt>
      <trkpt lat="47.49129" lon="6.76608">
        <ele>314</ele>
        <time>2015-08-23T07:38:36.000Z</time>
      </trkpt>
      <trkpt lat="47.4913" lon="6.76616">
        <ele>314</ele>
        <time>2015-08-23T07:38:37.000Z</time>
      </trkpt>
      <trkpt lat="47.49131" lon="6.76624">
        <ele>314</ele>
        <time>2015-08-23T07:38:38.000Z</time>
      </trkpt>
      <trkpt lat="47.49132" lon="6.76632">
        <ele>314</ele>
        <time>2015-08-23T07:38:39.000Z</time>
      </trkpt>
      <trkpt lat="47.49134" lon="6.76641">
        <ele>314</ele>
        <time>2015-08-23T07:38:40.000Z</time>
      </trkpt>
      <trkpt lat="47.49135" lon="6.7665">
        <ele>314</ele>
        <time>2015-08-23T07:38:41.000Z</time>
      </trkpt>
      <trkpt lat="47.49137" lon="6.76657">
        <ele>314</ele>
        <time>2015-08-23T07:38:42.000Z</time>
      </trkpt>
      <trkpt lat="47.49138" lon="6.76665">
        <ele>314</ele>
        <time>2015-08-23T07:38:43.000Z</time>
      </trkpt>
      <trkpt lat="47.49139" lon="6.76674">
        <ele>314</ele>
        <time>2015-08-23T07:38:44.000Z</time>
      </trkpt>
      <trkpt lat="47.4914" lon="6.76683">
        <ele>314</ele>
        <time>2015-08-23T07:38:45.000Z</time>
      </trkpt>
      <trkpt lat="47.49141" lon="6.76691">
        <ele>313</ele>
        <time>2015-08-23T07:38:46.000Z</time>
      </trkpt>
      <trkpt lat="47.49142" lon="6.76699">
        <ele>313</ele>
        <time>2015-08-23T07:38:47.000Z</time>
      </trkpt>
      <trkpt lat="47.49143" lon="6.76707">
        <ele>313</ele>
        <time>2015-08-23T07:38:48.000Z</time>
      </trkpt>
      <trkpt lat="47.49143" lon="6.76716">
        <ele>313</ele>
        <time>2015-08-23T07:38:49.000Z</time>
      </trkpt>
      <trkpt lat="47.49144" lon="6.76723">
        <ele>313</ele>
        <time>2015-08-23T07:38:50.000Z</time>
      </trkpt>
      <trkpt lat="47.49145" lon="6.76732">
        <ele>313</ele>
        <time>2015-08-23T07:38:51.000Z</time>
      </trkpt>
      <trkpt lat="47.49146" lon="6.76741">
        <ele>313</ele>
        <time>2015-08-23T07:38:52.000Z</time>
      </trkpt>
      <trkpt lat="47.49147" lon="6.7675">
        <ele>313</ele>
        <time>2015-08-23T07:38:53.000Z</time>
      </trkpt>
      <trkpt lat="47.49148" lon="6.76758">
        <ele>313</ele>
        <time>2015-08-23T07:38:54.000Z</time>
      </trkpt>
      <trkpt lat="47.49149" lon="6.76766">
        <ele>313</ele>
        <time>2015-08-23T07:38:55.000Z</time>
      </trkpt>
      <trkpt lat="47.4915" lon="6.76774">
        <ele>313</ele>
        <time>2015-08-23T07:38:56.000Z</time>
      </trkpt>
      <trkpt lat="47.49149" lon="6.76781">
        <ele>312</ele>
        <time>2015-08-23T07:38:57.000Z</time>
      </trkpt>
      <trkpt lat="47.4915" lon="6.76789">
        <ele>312</ele>
        <time>2015-08-23T07:38:58.000Z</time>
      </trkpt>
      <trkpt lat="47.4915" lon="6.76797">
        <ele>312</ele>
        <time>2015-08-23T07:38:59.000Z</time>
      </trkpt>
      <trkpt lat="47.4915" lon="6.76804">
        <ele>312</ele>
        <time>2015-08-23T07:39:00.000Z</time>
      </trkpt>
      <trkpt lat="47.4915" lon="6.76812">
        <ele>312</ele>
        <time>2015-08-23T07:39:01.000Z</time>
      </trkpt>
      <trkpt lat="47.4915" lon="6.7682">
        <ele>313</ele>
        <time>2015-08-23T07:39:02.000Z</time>
      </trkpt>
      <trkpt lat="47.49151" lon="6.76827">
        <ele>313</ele>
        <time>2015-08-23T07:39:03.000Z</time>
      </trkpt>
      <trkpt lat="47.49151" lon="6.76834">
        <ele>313</ele>
        <time>2015-08-23T07:39:04.000Z</time>
      </trkpt>
      <trkpt lat="47.49151" lon="6.76842">
        <ele>312</ele>
        <time>2015-08-23T07:39:05.000Z</time>
      </trkpt>
      <trkpt lat="47.4915" lon="6.76849">
        <ele>312</ele>
        <time>2015-08-23T07:39:06.000Z</time>
      </trkpt>
      <trkpt lat="47.4915" lon="6.76857">
        <ele>312</ele>
        <time>2015-08-23T07:39:07.000Z</time>
      </trkpt>
      <trkpt lat="47.49149" lon="6.76864">
        <ele>312</ele>
        <time>2015-08-23T07:39:08.000Z</time>
      </trkpt>
      <trkpt lat="47.49149" lon="6.76871">
        <ele>312</ele>
        <time>2015-08-23T07:39:09.000Z</time>
      </trkpt>
      <trkpt lat="47.49148" lon="6.76878">
        <ele>312</ele>
        <time>2015-08-23T07:39:10.000Z</time>
      </trkpt>
      <trkpt lat="47.49146" lon="6.76886">
        <ele>312</ele>
        <time>2015-08-23T07:39:11.000Z</time>
      </trkpt>
      <trkpt lat="47.49148" lon="6.76894">
        <ele>312</ele>
        <time>2015-08-23T07:39:12.000Z</time>
      </trkpt>
      <trkpt lat="47.49147" lon="6.76904">
        <ele>312</ele>
        <time>2015-08-23T07:39:13.000Z</time>
      </trkpt>
      <trkpt lat="47.49147" lon="6.76913">
        <ele>312</ele>
        <time>2015-08-23T07:39:14.000Z</time>
      </trkpt>
      <trkpt lat="47.49147" lon="6.7692">
        <ele>312</ele>
        <time>2015-08-23T07:39:15.000Z</time>
      </trkpt>
      <trkpt lat="47.49146" lon="6.76928">
        <ele>312</ele>
        <time>2015-08-23T07:39:16.000Z</time>
      </trkpt>
      <trkpt lat="47.49147" lon="6.76935">
        <ele>312</ele>
        <time>2015-08-23T07:39:17.000Z</time>
      </trkpt>
      <trkpt lat="47.49146" lon="6.76944">
        <ele>312</ele>
        <time>2015-08-23T07:39:18.000Z</time>
      </trkpt>
      <trkpt lat="47.49146" lon="6.7695">
        <ele>312</ele>
        <time>2015-08-23T07:39:19.000Z</time>
      </trkpt>
      <trkpt lat="47.49145" lon="6.76958">
        <ele>312</ele>
        <time>2015-08-23T07:39:20.000Z</time>
      </trkpt>
      <trkpt lat="47.49144" lon="6.76964">
        <ele>312</ele>
        <time>2015-08-23T07:39:21.000Z</time>
      </trkpt>
      <trkpt lat="47.49144" lon="6.76974">
        <ele>312</ele>
        <time>2015-08-23T07:39:22.000Z</time>
      </trkpt>
      <trkpt lat="47.49144" lon="6.76983">
        <ele>312</ele>
        <time>2015-08-23T07:39:23.000Z</time>
      </trkpt>
      <trkpt lat="47.49145" lon="6.76992">
        <ele>312</ele>
        <time>2015-08-23T07:39:24.000Z</time>
      </trkpt>
      <trkpt lat="47.49151" lon="6.76998">
        <ele>312</ele>
        <time>2015-08-23T07:39:25.000Z</time>
      </trkpt>
      <trkpt lat="47.49155" lon="6.77005">
        <ele>312</ele>
        <time>2015-08-23T07:39:26.000Z</time>
      </trkpt>
      <trkpt lat="47.49158" lon="6.77011">
        <ele>312</ele>
        <time>2015-08-23T07:39:27.000Z</time>
      </trkpt>
      <trkpt lat="47.4916" lon="6.7702">
        <ele>312</ele>
        <time>2015-08-23T07:39:28.000Z</time>
      </trkpt>
      <trkpt lat="47.49162" lon="6.77028">
        <ele>312</ele>
        <time>2015-08-23T07:39:29.000Z</time>
      </trkpt>
      <trkpt lat="47.49163" lon="6.77037">
        <ele>312</ele>
        <time>2015-08-23T07:39:30.000Z</time>
      </trkpt>
      <trkpt lat="47.49165" lon="6.77046">
        <ele>312</ele>
        <time>2015-08-23T07:39:31.000Z</time>
      </trkpt>
      <trkpt lat="47.49166" lon="6.77054">
        <ele>312</ele>
        <time>2015-08-23T07:39:32.000Z</time>
      </trkpt>
      <trkpt lat="47.49168" lon="6.77063">
        <ele>313</ele>
        <time>2015-08-23T07:39:33.000Z</time>
      </trkpt>
      <trkpt lat="47.49169" lon="6.77071">
        <ele>312</ele>
        <time>2015-08-23T07:39:34.000Z</time>
      </trkpt>
      <trkpt lat="47.49171" lon="6.77079">
        <ele>312</ele>
        <time>2015-08-23T07:39:35.000Z</time>
      </trkpt>
      <trkpt lat="47.49172" lon="6.77087">
        <ele>312</ele>
        <time>2015-08-23T07:39:36.000Z</time>
      </trkpt>
      <trkpt lat="47.49173" lon="6.77095">
        <ele>312</ele>
        <time>2015-08-23T07:39:37.000Z</time>
      </trkpt>
      <trkpt lat="47.49174" lon="6.77103">
        <ele>312</ele>
        <time>2015-08-23T07:39:38.000Z</time>
      </trkpt>
      <trkpt lat="47.49175" lon="6.7711">
        <ele>313</ele>
        <time>2015-08-23T07:39:39.000Z</time>
      </trkpt>
      <trkpt lat="47.49176" lon="6.77116">
        <ele>313</ele>
        <time>2015-08-23T07:39:40.000Z</time>
      </trkpt>
      <trkpt lat="47.49176" lon="6.77121">
        <ele>313</ele>
        <time>2015-08-23T07:39:41.000Z</time>
      </trkpt>
      <trkpt lat="47.49177" lon="6.77125">
        <ele>313</ele>
        <time>2015-08-23T07:39:42.000Z</time>
      </trkpt>
      <trkpt lat="47.49178" lon="6.7713">
        <ele>313</ele>
        <time>2015-08-23T07:39:44.000Z</time>
      </trkpt>
      <trkpt lat="47.49179" lon="6.77133">
        <ele>313</ele>
        <time>2015-08-23T07:39:45.000Z</time>
      </trkpt>
      <trkpt lat="47.4918" lon="6.77137">
        <ele>313</ele>
        <time>2015-08-23T07:39:46.000Z</time>
      </trkpt>
      <trkpt lat="47.49181" lon="6.77143">
        <ele>313</ele>
        <time>2015-08-23T07:39:47.000Z</time>
      </trkpt>
      <trkpt lat="47.49181" lon="6.77148">
        <ele>313</ele>
        <time>2015-08-23T07:39:48.000Z</time>
      </trkpt>
      <trkpt lat="47.49182" lon="6.77153">
        <ele>313</ele>
        <time>2015-08-23T07:39:49.000Z</time>
      </trkpt>
      <trkpt lat="47.49182" lon="6.77159">
        <ele>313</ele>
        <time>2015-08-23T07:39:50.000Z</time>
      </trkpt>
      <trkpt lat="47.49182" lon="6.77165">
        <ele>313</ele>
        <time>2015-08-23T07:39:51.000Z</time>
      </trkpt>
      <trkpt lat="47.49182" lon="6.77171">
        <ele>313</ele>
        <time>2015-08-23T07:39:52.000Z</time>
      </trkpt>
      <trkpt lat="47.49182" lon="6.77177">
        <ele>313</ele>
        <time>2015-08-23T07:39:53.000Z</time>
      </trkpt>
      <trkpt lat="47.49183" lon="6.77186">
        <ele>313</ele>
        <time>2015-08-23T07:39:54.000Z</time>
      </trkpt>
      <trkpt lat="47.49183" lon="6.77193">
        <ele>312</ele>
        <time>2015-08-23T07:39:55.000Z</time>
      </trkpt>
      <trkpt lat="47.49183" lon="6.772">
        <ele>312</ele>
        <time>2015-08-23T07:39:56.000Z</time>
      </trkpt>
      <trkpt lat="47.49182" lon="6.77207">
        <ele>312</ele>
        <time>2015-08-23T07:39:57.000Z</time>
      </trkpt>
      <trkpt lat="47.49182" lon="6.77213">
        <ele>312</ele>
        <time>2015-08-23T07:39:58.000Z</time>
      </trkpt>
      <trkpt lat="47.49182" lon="6.77221">
        <ele>312</ele>
        <time>2015-08-23T07:39:59.000Z</time>
      </trkpt>
      <trkpt lat="47.49182" lon="6.77227">
        <ele>312</ele>
        <time>2015-08-23T07:40:00.000Z</time>
      </trkpt>
      <trkpt lat="47.49182" lon="6.77234">
        <ele>312</ele>
        <time>2015-08-23T07:40:01.000Z</time>
      </trkpt>
      <trkpt lat="47.49181" lon="6.7724">
        <ele>312</ele>
        <time>2015-08-23T07:40:02.000Z</time>
      </trkpt>
      <trkpt lat="47.49184" lon="6.77247">
        <ele>312</ele>
        <time>2015-08-23T07:40:03.000Z</time>
      </trkpt>
      <trkpt lat="47.49185" lon="6.77253">
        <ele>311</ele>
        <time>2015-08-23T07:40:04.000Z</time>
      </trkpt>
      <trkpt lat="47.49184" lon="6.77261">
        <ele>311</ele>
        <time>2015-08-23T07:40:05.000Z</time>
      </trkpt>
      <trkpt lat="47.49183" lon="6.77269">
        <ele>311</ele>
        <time>2015-08-23T07:40:06.000Z</time>
      </trkpt>
      <trkpt lat="47.49183" lon="6.77278">
        <ele>311</ele>
        <time>2015-08-23T07:40:07.000Z</time>
      </trkpt>
      <trkpt lat="47.49183" lon="6.77286">
        <ele>311</ele>
        <time>2015-08-23T07:40:08.000Z</time>
      </trkpt>
      <trkpt lat="47.49183" lon="6.77295">
        <ele>311</ele>
        <time>2015-08-23T07:40:09.000Z</time>
      </trkpt>
      <trkpt lat="47.49182" lon="6.77303">
        <ele>311</ele>
        <time>2015-08-23T07:40:10.000Z</time>
      </trkpt>
      <trkpt lat="47.49181" lon="6.77311">
        <ele>311</ele>
        <time>2015-08-23T07:40:11.000Z</time>
      </trkpt>
      <trkpt lat="47.49179" lon="6.77319">
        <ele>310</ele>
        <time>2015-08-23T07:40:12.000Z</time>
      </trkpt>
      <trkpt lat="47.49176" lon="6.77327">
        <ele>310</ele>
        <time>2015-08-23T07:40:13.000Z</time>
      </trkpt>
      <trkpt lat="47.49172" lon="6.77329">
        <ele>310</ele>
        <time>2015-08-23T07:40:14.000Z</time>
      </trkpt>
      <trkpt lat="47.49168" lon="6.7733">
        <ele>310</ele>
        <time>2015-08-23T07:40:15.000Z</time>
      </trkpt>
      <trkpt lat="47.49164" lon="6.77331">
        <ele>310</ele>
        <time>2015-08-23T07:40:16.000Z</time>
      </trkpt>
      <trkpt lat="47.49159" lon="6.77331">
        <ele>310</ele>
        <time>2015-08-23T07:40:17.000Z</time>
      </trkpt>
      <trkpt lat="47.49155" lon="6.7733">
        <ele>310</ele>
        <time>2015-08-23T07:40:18.000Z</time>
      </trkpt>
      <trkpt lat="47.4915" lon="6.77329">
        <ele>311</ele>
        <time>2015-08-23T07:40:19.000Z</time>
      </trkpt>
      <trkpt lat="47.49145" lon="6.77329">
        <ele>311</ele>
        <time>2015-08-23T07:40:20.000Z</time>
      </trkpt>
      <trkpt lat="47.49141" lon="6.77329">
        <ele>311</ele>
        <time>2015-08-23T07:40:21.000Z</time>
      </trkpt>
      <trkpt lat="47.49137" lon="6.77328">
        <ele>311</ele>
        <time>2015-08-23T07:40:22.000Z</time>
      </trkpt>
      <trkpt lat="47.49131" lon="6.77328">
        <ele>311</ele>
        <time>2015-08-23T07:40:23.000Z</time>
      </trkpt>
      <trkpt lat="47.49126" lon="6.77327">
        <ele>311</ele>
        <time>2015-08-23T07:40:24.000Z</time>
      </trkpt>
      <trkpt lat="47.4912" lon="6.77327">
        <ele>311</ele>
        <time>2015-08-23T07:40:25.000Z</time>
      </trkpt>
      <trkpt lat="47.49114" lon="6.77326">
        <ele>311</ele>
        <time>2015-08-23T07:40:26.000Z</time>
      </trkpt>
      <trkpt lat="47.49107" lon="6.77325">
        <ele>311</ele>
        <time>2015-08-23T07:40:27.000Z</time>
      </trkpt>
      <trkpt lat="47.49101" lon="6.77324">
        <ele>311</ele>
        <time>2015-08-23T07:40:28.000Z</time>
      </trkpt>
      <trkpt lat="47.49094" lon="6.77324">
        <ele>311</ele>
        <time>2015-08-23T07:40:29.000Z</time>
      </trkpt>
      <trkpt lat="47.49088" lon="6.77323">
        <ele>311</ele>
        <time>2015-08-23T07:40:30.000Z</time>
      </trkpt>
      <trkpt lat="47.49082" lon="6.77323">
        <ele>311</ele>
        <time>2015-08-23T07:40:31.000Z</time>
      </trkpt>
      <trkpt lat="47.49075" lon="6.77323">
        <ele>311</ele>
        <time>2015-08-23T07:40:32.000Z</time>
      </trkpt>
      <trkpt lat="47.49068" lon="6.77323">
        <ele>311</ele>
        <time>2015-08-23T07:40:33.000Z</time>
      </trkpt>
      <trkpt lat="47.49061" lon="6.77323">
        <ele>311</ele>
        <time>2015-08-23T07:40:33.999Z</time>
      </trkpt>
      <trkpt lat="47.49055" lon="6.77324">
        <ele>311</ele>
        <time>2015-08-23T07:40:34.999Z</time>
      </trkpt>
      <trkpt lat="47.49049" lon="6.77325">
        <ele>311</ele>
        <time>2015-08-23T07:40:36.000Z</time>
      </trkpt>
      <trkpt lat="47.49043" lon="6.77326">
        <ele>311</ele>
        <time>2015-08-23T07:40:37.000Z</time>
      </trkpt>
      <trkpt lat="47.49036" lon="6.77324">
        <ele>311</ele>
        <time>2015-08-23T07:40:38.000Z</time>
      </trkpt>
      <trkpt lat="47.49029" lon="6.77323">
        <ele>311</ele>
        <time>2015-08-23T07:40:38.999Z</time>
      </trkpt>
      <trkpt lat="47.49023" lon="6.77322">
        <ele>311</ele>
        <time>2015-08-23T07:40:40.000Z</time>
      </trkpt>
      <trkpt lat="47.49017" lon="6.77321">
        <ele>311</ele>
        <time>2015-08-23T07:40:40.999Z</time>
      </trkpt>
      <trkpt lat="47.49012" lon="6.77322">
        <ele>311</ele>
        <time>2015-08-23T07:40:42.000Z</time>
      </trkpt>
      <trkpt lat="47.49006" lon="6.77322">
        <ele>311</ele>
        <time>2015-08-23T07:40:43.000Z</time>
      </trkpt>
      <trkpt lat="47.49" lon="6.77322">
        <ele>311</ele>
        <time>2015-08-23T07:40:44.000Z</time>
      </trkpt>
      <trkpt lat="47.48994" lon="6.77321">
        <ele>311</ele>
        <time>2015-08-23T07:40:45.000Z</time>
      </trkpt>
      <trkpt lat="47.48988" lon="6.77321">
        <ele>311</ele>
        <time>2015-08-23T07:40:46.000Z</time>
      </trkpt>
      <trkpt lat="47.48982" lon="6.7732">
        <ele>311</ele>
        <time>2015-08-23T07:40:47.000Z</time>
      </trkpt>
      <trkpt lat="47.48977" lon="6.7732">
        <ele>311</ele>
        <time>2015-08-23T07:40:48.000Z</time>
      </trkpt>
      <trkpt lat="47.48972" lon="6.7732">
        <ele>311</ele>
        <time>2015-08-23T07:40:49.000Z</time>
      </trkpt>
      <trkpt lat="47.48966" lon="6.7732">
        <ele>311</ele>
        <time>2015-08-23T07:40:50.000Z</time>
      </trkpt>
      <trkpt lat="47.48961" lon="6.77318">
        <ele>311</ele>
        <time>2015-08-23T07:40:51.000Z</time>
      </trkpt>
      <trkpt lat="47.48955" lon="6.77315">
        <ele>311</ele>
        <time>2015-08-23T07:40:52.000Z</time>
      </trkpt>
      <trkpt lat="47.48949" lon="6.77313">
        <ele>311</ele>
        <time>2015-08-23T07:40:53.000Z</time>
      </trkpt>
      <trkpt lat="47.48943" lon="6.77311">
        <ele>311</ele>
        <time>2015-08-23T07:40:54.000Z</time>
      </trkpt>
      <trkpt lat="47.48938" lon="6.77308">
        <ele>311</ele>
        <time>2015-08-23T07:40:55.000Z</time>
      </trkpt>
      <trkpt lat="47.48932" lon="6.77307">
        <ele>311</ele>
        <time>2015-08-23T07:40:56.000Z</time>
      </trkpt>
      <trkpt lat="47.48926" lon="6.77304">
        <ele>311</ele>
        <time>2015-08-23T07:40:57.000Z</time>
      </trkpt>
      <trkpt lat="47.48921" lon="6.77302">
        <ele>311</ele>
        <time>2015-08-23T07:40:58.000Z</time>
      </trkpt>
      <trkpt lat="47.48917" lon="6.77299">
        <ele>311</ele>
        <time>2015-08-23T07:40:59.000Z</time>
      </trkpt>
      <trkpt lat="47.48912" lon="6.77297">
        <ele>310</ele>
        <time>2015-08-23T07:41:00.000Z</time>
      </trkpt>
      <trkpt lat="47.48906" lon="6.77296">
        <ele>310</ele>
        <time>2015-08-23T07:41:01.000Z</time>
      </trkpt>
      <trkpt lat="47.489" lon="6.77292">
        <ele>310</ele>
        <time>2015-08-23T07:41:02.000Z</time>
      </trkpt>
      <trkpt lat="47.48895" lon="6.7729">
        <ele>310</ele>
        <time>2015-08-23T07:41:03.000Z</time>
      </trkpt>
      <trkpt lat="47.48889" lon="6.77291">
        <ele>310</ele>
        <time>2015-08-23T07:41:04.000Z</time>
      </trkpt>
      <trkpt lat="47.48884" lon="6.77289">
        <ele>310</ele>
        <time>2015-08-23T07:41:05.000Z</time>
      </trkpt>
      <trkpt lat="47.48877" lon="6.77287">
        <ele>310</ele>
        <time>2015-08-23T07:41:06.000Z</time>
      </trkpt>
      <trkpt lat="47.48872" lon="6.77285">
        <ele>310</ele>
        <time>2015-08-23T07:41:07.000Z</time>
      </trkpt>
      <trkpt lat="47.48866" lon="6.77282">
        <ele>310</ele>
        <time>2015-08-23T07:41:08.000Z</time>
      </trkpt>
      <trkpt lat="47.4886" lon="6.77277">
        <ele>310</ele>
        <time>2015-08-23T07:41:09.000Z</time>
      </trkpt>
      <trkpt lat="47.48854" lon="6.77273">
        <ele>310</ele>
        <time>2015-08-23T07:41:10.000Z</time>
      </trkpt>
      <trkpt lat="47.48848" lon="6.77269">
        <ele>310</ele>
        <time>2015-08-23T07:41:10.999Z</time>
      </trkpt>
      <trkpt lat="47.48843" lon="6.77267">
        <ele>310</ele>
        <time>2015-08-23T07:41:12.000Z</time>
      </trkpt>
      <trkpt lat="47.48838" lon="6.77264">
        <ele>310</ele>
        <time>2015-08-23T07:41:13.001Z</time>
      </trkpt>
      <trkpt lat="47.48831" lon="6.77257">
        <ele>311</ele>
        <time>2015-08-23T07:41:14.000Z</time>
      </trkpt>
      <trkpt lat="47.48824" lon="6.77251">
        <ele>311</ele>
        <time>2015-08-23T07:41:15.000Z</time>
      </trkpt>
      <trkpt lat="47.48817" lon="6.77245">
        <ele>311</ele>
        <time>2015-08-23T07:41:16.000Z</time>
      </trkpt>
      <trkpt lat="47.4881" lon="6.77241">
        <ele>311</ele>
        <time>2015-08-23T07:41:17.000Z</time>
      </trkpt>
      <trkpt lat="47.48802" lon="6.77238">
        <ele>310</ele>
        <time>2015-08-23T07:41:18.000Z</time>
      </trkpt>
      <trkpt lat="47.48794" lon="6.77234">
        <ele>310</ele>
        <time>2015-08-23T07:41:19.000Z</time>
      </trkpt>
      <trkpt lat="47.48787" lon="6.77227">
        <ele>310</ele>
        <time>2015-08-23T07:41:20.000Z</time>
      </trkpt>
      <trkpt lat="47.48779" lon="6.7722">
        <ele>310</ele>
        <time>2015-08-23T07:41:21.000Z</time>
      </trkpt>
      <trkpt lat="47.48772" lon="6.77214">
        <ele>310</ele>
        <time>2015-08-23T07:41:22.000Z</time>
      </trkpt>
      <trkpt lat="47.48764" lon="6.77209">
        <ele>310</ele>
        <time>2015-08-23T07:41:23.000Z</time>
      </trkpt>
      <trkpt lat="47.48756" lon="6.77203">
        <ele>310</ele>
        <time>2015-08-23T07:41:24.000Z</time>
      </trkpt>
      <trkpt lat="47.48748" lon="6.77197">
        <ele>310</ele>
        <time>2015-08-23T07:41:25.000Z</time>
      </trkpt>
      <trkpt lat="47.48739" lon="6.77191">
        <ele>310</ele>
        <time>2015-08-23T07:41:26.000Z</time>
      </trkpt>
      <trkpt lat="47.48731" lon="6.77185">
        <ele>310</ele>
        <time>2015-08-23T07:41:27.000Z</time>
      </trkpt>
      <trkpt lat="47.48722" lon="6.77179">
        <ele>311</ele>
        <time>2015-08-23T07:41:28.000Z</time>
      </trkpt>
      <trkpt lat="47.48714" lon="6.77172">
        <ele>311</ele>
        <time>2015-08-23T07:41:29.000Z</time>
      </trkpt>
      <trkpt lat="47.48705" lon="6.77166">
        <ele>311</ele>
        <time>2015-08-23T07:41:30.000Z</time>
      </trkpt>
      <trkpt lat="47.48698" lon="6.77159">
        <ele>311</ele>
        <time>2015-08-23T07:41:31.000Z</time>
      </trkpt>
      <trkpt lat="47.4869" lon="6.77151">
        <ele>311</ele>
        <time>2015-08-23T07:41:32.000Z</time>
      </trkpt>
      <trkpt lat="47.48682" lon="6.77143">
        <ele>311</ele>
        <time>2015-08-23T07:41:33.000Z</time>
      </trkpt>
      <trkpt lat="47.48674" lon="6.77136">
        <ele>312</ele>
        <time>2015-08-23T07:41:34.000Z</time>
      </trkpt>
      <trkpt lat="47.48666" lon="6.77128">
        <ele>312</ele>
        <time>2015-08-23T07:41:35.000Z</time>
      </trkpt>
      <trkpt lat="47.4866" lon="6.77121">
        <ele>312</ele>
        <time>2015-08-23T07:41:35.999Z</time>
      </trkpt>
      <trkpt lat="47.48652" lon="6.77114">
        <ele>312</ele>
        <time>2015-08-23T07:41:37.000Z</time>
      </trkpt>
      <trkpt lat="47.48645" lon="6.77105">
        <ele>312</ele>
        <time>2015-08-23T07:41:38.000Z</time>
      </trkpt>
      <trkpt lat="47.48638" lon="6.77098">
        <ele>312</ele>
        <time>2015-08-23T07:41:39.000Z</time>
      </trkpt>
      <trkpt lat="47.4863" lon="6.77091">
        <ele>312</ele>
        <time>2015-08-23T07:41:40.000Z</time>
      </trkpt>
      <trkpt lat="47.48623" lon="6.77086">
        <ele>312</ele>
        <time>2015-08-23T07:41:41.000Z</time>
      </trkpt>
      <trkpt lat="47.48616" lon="6.77084">
        <ele>312</ele>
        <time>2015-08-23T07:41:42.000Z</time>
      </trkpt>
      <trkpt lat="47.4861" lon="6.7708">
        <ele>313</ele>
        <time>2015-08-23T07:41:42.999Z</time>
      </trkpt>
      <trkpt lat="47.48603" lon="6.77069">
        <ele>313</ele>
        <time>2015-08-23T07:41:44.000Z</time>
      </trkpt>
      <trkpt lat="47.48596" lon="6.77064">
        <ele>313</ele>
        <time>2015-08-23T07:41:45.000Z</time>
      </trkpt>
      <trkpt lat="47.48588" lon="6.77059">
        <ele>313</ele>
        <time>2015-08-23T07:41:45.999Z</time>
      </trkpt>
      <trkpt lat="47.4858" lon="6.77055">
        <ele>314</ele>
        <time>2015-08-23T07:41:47.000Z</time>
      </trkpt>
      <trkpt lat="47.48573" lon="6.77052">
        <ele>314</ele>
        <time>2015-08-23T07:41:48.000Z</time>
      </trkpt>
      <trkpt lat="47.48565" lon="6.77049">
        <ele>314</ele>
        <time>2015-08-23T07:41:49.000Z</time>
      </trkpt>
      <trkpt lat="47.48557" lon="6.77046">
        <ele>314</ele>
        <time>2015-08-23T07:41:50.000Z</time>
      </trkpt>
      <trkpt lat="47.4855" lon="6.77041">
        <ele>314</ele>
        <time>2015-08-23T07:41:51.000Z</time>
      </trkpt>
      <trkpt lat="47.48542" lon="6.77036">
        <ele>314</ele>
        <time>2015-08-23T07:41:52.000Z</time>
      </trkpt>
      <trkpt lat="47.48535" lon="6.77029">
        <ele>314</ele>
        <time>2015-08-23T07:41:53.000Z</time>
      </trkpt>
      <trkpt lat="47.48528" lon="6.77022">
        <ele>314</ele>
        <time>2015-08-23T07:41:54.000Z</time>
      </trkpt>
      <trkpt lat="47.48519" lon="6.77016">
        <ele>315</ele>
        <time>2015-08-23T07:41:55.000Z</time>
      </trkpt>
      <trkpt lat="47.48512" lon="6.7701">
        <ele>315</ele>
        <time>2015-08-23T07:41:56.000Z</time>
      </trkpt>
      <trkpt lat="47.48504" lon="6.77004">
        <ele>316</ele>
        <time>2015-08-23T07:41:57.000Z</time>
      </trkpt>
      <trkpt lat="47.48497" lon="6.76997">
        <ele>316</ele>
        <time>2015-08-23T07:41:58.000Z</time>
      </trkpt>
      <trkpt lat="47.4849" lon="6.76993">
        <ele>316</ele>
        <time>2015-08-23T07:41:59.001Z</time>
      </trkpt>
      <trkpt lat="47.48482" lon="6.76989">
        <ele>315</ele>
        <time>2015-08-23T07:42:00.000Z</time>
      </trkpt>
      <trkpt lat="47.48475" lon="6.76985">
        <ele>315</ele>
        <time>2015-08-23T07:42:01.000Z</time>
      </trkpt>
      <trkpt lat="47.48468" lon="6.76981">
        <ele>315</ele>
        <time>2015-08-23T07:42:02.000Z</time>
      </trkpt>
      <trkpt lat="47.48461" lon="6.76975">
        <ele>315</ele>
        <time>2015-08-23T07:42:03.000Z</time>
      </trkpt>
      <trkpt lat="47.48454" lon="6.76972">
        <ele>315</ele>
        <time>2015-08-23T07:42:04.000Z</time>
      </trkpt>
      <trkpt lat="47.48448" lon="6.76967">
        <ele>315</ele>
        <time>2015-08-23T07:42:05.000Z</time>
      </trkpt>
      <trkpt lat="47.48439" lon="6.76962">
        <ele>315</ele>
        <time>2015-08-23T07:42:06.000Z</time>
      </trkpt>
      <trkpt lat="47.48432" lon="6.76958">
        <ele>314</ele>
        <time>2015-08-23T07:42:07.000Z</time>
      </trkpt>
      <trkpt lat="47.48425" lon="6.76956">
        <ele>314</ele>
        <time>2015-08-23T07:42:08.000Z</time>
      </trkpt>
      <trkpt lat="47.48417" lon="6.76953">
        <ele>314</ele>
        <time>2015-08-23T07:42:09.000Z</time>
      </trkpt>
      <trkpt lat="47.4841" lon="6.7695">
        <ele>312</ele>
        <time>2015-08-23T07:42:10.000Z</time>
      </trkpt>
      <trkpt lat="47.48403" lon="6.76946">
        <ele>312</ele>
        <time>2015-08-23T07:42:11.000Z</time>
      </trkpt>
      <trkpt lat="47.48396" lon="6.76941">
        <ele>312</ele>
        <time>2015-08-23T07:42:12.000Z</time>
      </trkpt>
      <trkpt lat="47.48389" lon="6.76937">
        <ele>312</ele>
        <time>2015-08-23T07:42:13.000Z</time>
      </trkpt>
      <trkpt lat="47.48382" lon="6.76933">
        <ele>312</ele>
        <time>2015-08-23T07:42:14.000Z</time>
      </trkpt>
      <trkpt lat="47.48375" lon="6.76929">
        <ele>312</ele>
        <time>2015-08-23T07:42:15.000Z</time>
      </trkpt>
      <trkpt lat="47.48369" lon="6.76924">
        <ele>311</ele>
        <time>2015-08-23T07:42:16.000Z</time>
      </trkpt>
      <trkpt lat="47.48363" lon="6.76918">
        <ele>311</ele>
        <time>2015-08-23T07:42:17.000Z</time>
      </trkpt>
      <trkpt lat="47.48358" lon="6.76913">
        <ele>311</ele>
        <time>2015-08-23T07:42:18.000Z</time>
      </trkpt>
      <trkpt lat="47.48351" lon="6.76909">
        <ele>310</ele>
        <time>2015-08-23T07:42:19.000Z</time>
      </trkpt>
      <trkpt lat="47.48345" lon="6.76903">
        <ele>310</ele>
        <time>2015-08-23T07:42:20.000Z</time>
      </trkpt>
      <trkpt lat="47.48338" lon="6.76898">
        <ele>310</ele>
        <time>2015-08-23T07:42:21.000Z</time>
      </trkpt>
      <trkpt lat="47.4833" lon="6.76893">
        <ele>310</ele>
        <time>2015-08-23T07:42:22.000Z</time>
      </trkpt>
      <trkpt lat="47.48323" lon="6.76888">
        <ele>310</ele>
        <time>2015-08-23T07:42:23.000Z</time>
      </trkpt>
      <trkpt lat="47.48317" lon="6.76882">
        <ele>310</ele>
        <time>2015-08-23T07:42:24.000Z</time>
      </trkpt>
      <trkpt lat="47.4831" lon="6.76877">
        <ele>310</ele>
        <time>2015-08-23T07:42:25.000Z</time>
      </trkpt>
      <trkpt lat="47.48303" lon="6.76872">
        <ele>310</ele>
        <time>2015-08-23T07:42:26.000Z</time>
      </trkpt>
      <trkpt lat="47.48296" lon="6.76867">
        <ele>310</ele>
        <time>2015-08-23T07:42:27.000Z</time>
      </trkpt>
      <trkpt lat="47.4829" lon="6.7686">
        <ele>310</ele>
        <time>2015-08-23T07:42:28.000Z</time>
      </trkpt>
      <trkpt lat="47.48284" lon="6.76852">
        <ele>310</ele>
        <time>2015-08-23T07:42:29.000Z</time>
      </trkpt>
      <trkpt lat="47.48278" lon="6.76845">
        <ele>311</ele>
        <time>2015-08-23T07:42:30.000Z</time>
      </trkpt>
      <trkpt lat="47.48272" lon="6.76838">
        <ele>311</ele>
        <time>2015-08-23T07:42:31.000Z</time>
      </trkpt>
      <trkpt lat="47.48266" lon="6.7683">
        <ele>312</ele>
        <time>2015-08-23T07:42:32.000Z</time>
      </trkpt>
      <trkpt lat="47.48261" lon="6.76823">
        <ele>312</ele>
        <time>2015-08-23T07:42:33.000Z</time>
      </trkpt>
      <trkpt lat="47.48256" lon="6.76815">
        <ele>312</ele>
        <time>2015-08-23T07:42:34.000Z</time>
      </trkpt>
      <trkpt lat="47.4825" lon="6.76808">
        <ele>312</ele>
        <time>2015-08-23T07:42:35.000Z</time>
      </trkpt>
      <trkpt lat="47.48244" lon="6.76802">
        <ele>312</ele>
        <time>2015-08-23T07:42:36.000Z</time>
      </trkpt>
      <trkpt lat="47.48237" lon="6.76797">
        <ele>312</ele>
        <time>2015-08-23T07:42:37.000Z</time>
      </trkpt>
      <trkpt lat="47.48231" lon="6.76792">
        <ele>312</ele>
        <time>2015-08-23T07:42:38.000Z</time>
      </trkpt>
      <trkpt lat="47.48224" lon="6.7679">
        <ele>312</ele>
        <time>2015-08-23T07:42:39.000Z</time>
      </trkpt>
      <trkpt lat="47.48216" lon="6.76788">
        <ele>312</ele>
        <time>2015-08-23T07:42:40.000Z</time>
      </trkpt>
      <trkpt lat="47.48209" lon="6.76785">
        <ele>312</ele>
        <time>2015-08-23T07:42:41.000Z</time>
      </trkpt>
      <trkpt lat="47.48202" lon="6.76781">
        <ele>312</ele>
        <time>2015-08-23T07:42:42.000Z</time>
      </trkpt>
      <trkpt lat="47.48195" lon="6.76777">
        <ele>312</ele>
        <time>2015-08-23T07:42:43.000Z</time>
      </trkpt>
      <trkpt lat="47.48189" lon="6.76772">
        <ele>312</ele>
        <time>2015-08-23T07:42:44.000Z</time>
      </trkpt>
      <trkpt lat="47.48182" lon="6.76767">
        <ele>312</ele>
        <time>2015-08-23T07:42:45.000Z</time>
      </trkpt>
      <trkpt lat="47.48176" lon="6.76762">
        <ele>313</ele>
        <time>2015-08-23T07:42:46.000Z</time>
      </trkpt>
      <trkpt lat="47.48169" lon="6.76755">
        <ele>313</ele>
        <time>2015-08-23T07:42:47.000Z</time>
      </trkpt>
      <trkpt lat="47.48162" lon="6.76748">
        <ele>313</ele>
        <time>2015-08-23T07:42:48.000Z</time>
      </trkpt>
      <trkpt lat="47.48156" lon="6.7674">
        <ele>313</ele>
        <time>2015-08-23T07:42:49.000Z</time>
      </trkpt>
      <trkpt lat="47.48152" lon="6.76733">
        <ele>312</ele>
        <time>2015-08-23T07:42:50.000Z</time>
      </trkpt>
      <trkpt lat="47.48145" lon="6.76727">
        <ele>312</ele>
        <time>2015-08-23T07:42:51.000Z</time>
      </trkpt>
      <trkpt lat="47.48142" lon="6.76716">
        <ele>312</ele>
        <time>2015-08-23T07:42:52.000Z</time>
      </trkpt>
      <trkpt lat="47.48138" lon="6.76706">
        <ele>312</ele>
        <time>2015-08-23T07:42:53.000Z</time>
      </trkpt>
      <trkpt lat="47.48135" lon="6.76698">
        <ele>312</ele>
        <time>2015-08-23T07:42:54.000Z</time>
      </trkpt>
      <trkpt lat="47.4813" lon="6.7669">
        <ele>312</ele>
        <time>2015-08-23T07:42:55.000Z</time>
      </trkpt>
      <trkpt lat="47.48126" lon="6.76682">
        <ele>312</ele>
        <time>2015-08-23T07:42:56.000Z</time>
      </trkpt>
      <trkpt lat="47.48122" lon="6.76676">
        <ele>312</ele>
        <time>2015-08-23T07:42:57.000Z</time>
      </trkpt>
      <trkpt lat="47.48118" lon="6.76668">
        <ele>312</ele>
        <time>2015-08-23T07:42:58.000Z</time>
      </trkpt>
      <trkpt lat="47.48114" lon="6.76661">
        <ele>312</ele>
        <time>2015-08-23T07:42:59.000Z</time>
      </trkpt>
      <trkpt lat="47.48112" lon="6.76655">
        <ele>312</ele>
        <time>2015-08-23T07:43:00.000Z</time>
      </trkpt>
      <trkpt lat="47.48109" lon="6.76649">
        <ele>312</ele>
        <time>2015-08-23T07:43:01.000Z</time>
      </trkpt>
      <trkpt lat="47.48106" lon="6.76642">
        <ele>313</ele>
        <time>2015-08-23T07:43:02.000Z</time>
      </trkpt>
      <trkpt lat="47.48104" lon="6.76635">
        <ele>313</ele>
        <time>2015-08-23T07:43:03.000Z</time>
      </trkpt>
      <trkpt lat="47.48101" lon="6.76629">
        <ele>313</ele>
        <time>2015-08-23T07:43:04.000Z</time>
      </trkpt>
      <trkpt lat="47.48099" lon="6.76623">
        <ele>313</ele>
        <time>2015-08-23T07:43:05.000Z</time>
      </trkpt>
      <trkpt lat="47.48097" lon="6.76615">
        <ele>313</ele>
        <time>2015-08-23T07:43:06.000Z</time>
      </trkpt>
      <trkpt lat="47.48098" lon="6.76605">
        <ele>313</ele>
        <time>2015-08-23T07:43:07.000Z</time>
      </trkpt>
      <trkpt lat="47.481" lon="6.76596">
        <ele>313</ele>
        <time>2015-08-23T07:43:08.000Z</time>
      </trkpt>
      <trkpt lat="47.48103" lon="6.76589">
        <ele>313</ele>
        <time>2015-08-23T07:43:09.000Z</time>
      </trkpt>
      <trkpt lat="47.48105" lon="6.76583">
        <ele>313</ele>
        <time>2015-08-23T07:43:10.000Z</time>
      </trkpt>
      <trkpt lat="47.48108" lon="6.76577">
        <ele>317</ele>
        <time>2015-08-23T07:43:11.000Z</time>
      </trkpt>
      <trkpt lat="47.48112" lon="6.76571">
        <ele>317</ele>
        <time>2015-08-23T07:43:12.000Z</time>
      </trkpt>
      <trkpt lat="47.48116" lon="6.76564">
        <ele>318</ele>
        <time>2015-08-23T07:43:13.000Z</time>
      </trkpt>
      <trkpt lat="47.48118" lon="6.76558">
        <ele>318</ele>
        <time>2015-08-23T07:43:14.000Z</time>
      </trkpt>
      <trkpt lat="47.4812" lon="6.76552">
        <ele>319</ele>
        <time>2015-08-23T07:43:15.000Z</time>
      </trkpt>
      <trkpt lat="47.48121" lon="6.76548">
        <ele>319</ele>
        <time>2015-08-23T07:43:16.000Z</time>
      </trkpt>
      <trkpt lat="47.48121" lon="6.76545">
        <ele>319</ele>
        <time>2015-08-23T07:43:17.000Z</time>
      </trkpt>
      <trkpt lat="47.48121" lon="6.76541">
        <ele>320</ele>
        <time>2015-08-23T07:43:18.000Z</time>
      </trkpt>
      <trkpt lat="47.4812" lon="6.76538">
        <ele>320</ele>
        <time>2015-08-23T07:43:19.000Z</time>
      </trkpt>
      <trkpt lat="47.48116" lon="6.76533">
        <ele>320</ele>
        <time>2015-08-23T07:43:20.000Z</time>
      </trkpt>
      <trkpt lat="47.48115" lon="6.76529">
        <ele>320</ele>
        <time>2015-08-23T07:43:21.000Z</time>
      </trkpt>
      <trkpt lat="47.48113" lon="6.76524">
        <ele>319</ele>
        <time>2015-08-23T07:43:22.000Z</time>
      </trkpt>
      <trkpt lat="47.48111" lon="6.7652">
        <ele>319</ele>
        <time>2015-08-23T07:43:23.000Z</time>
      </trkpt>
      <trkpt lat="47.4811" lon="6.76515">
        <ele>319</ele>
        <time>2015-08-23T07:43:24.000Z</time>
      </trkpt>
      <trkpt lat="47.48108" lon="6.76511">
        <ele>319</ele>
        <time>2015-08-23T07:43:25.001Z</time>
      </trkpt>
      <trkpt lat="47.48106" lon="6.76507">
        <ele>318</ele>
        <time>2015-08-23T07:43:26.000Z</time>
      </trkpt>
      <trkpt lat="47.48103" lon="6.7651">
        <ele>318</ele>
        <time>2015-08-23T07:43:27.000Z</time>
      </trkpt>
      <trkpt lat="47.481" lon="6.7651">
        <ele>317</ele>
        <time>2015-08-23T07:43:27.999Z</time>
      </trkpt>
      <trkpt lat="47.48095" lon="6.76516">
        <ele>317</ele>
        <time>2015-08-23T07:43:29.000Z</time>
      </trkpt>
      <trkpt lat="47.48091" lon="6.76519">
        <ele>317</ele>
        <time>2015-08-23T07:43:30.000Z</time>
      </trkpt>
      <trkpt lat="47.48084" lon="6.76528">
        <ele>317</ele>
        <time>2015-08-23T07:43:31.000Z</time>
      </trkpt>
      <trkpt lat="47.48081" lon="6.76531">
        <ele>312</ele>
        <time>2015-08-23T07:43:32.000Z</time>
      </trkpt>
      <trkpt lat="47.48078" lon="6.76533">
        <ele>312</ele>
        <time>2015-08-23T07:43:33.000Z</time>
      </trkpt>
      <trkpt lat="47.48075" lon="6.76536">
        <ele>312</ele>
        <time>2015-08-23T07:43:34.000Z</time>
      </trkpt>
      <trkpt lat="47.4807" lon="6.76541">
        <ele>312</ele>
        <time>2015-08-23T07:43:35.000Z</time>
      </trkpt>
      <trkpt lat="47.48067" lon="6.76544">
        <ele>312</ele>
        <time>2015-08-23T07:43:36.000Z</time>
      </trkpt>
      <trkpt lat="47.48063" lon="6.76547">
        <ele>312</ele>
        <time>2015-08-23T07:43:37.000Z</time>
      </trkpt>
      <trkpt lat="47.48059" lon="6.76551">
        <ele>312</ele>
        <time>2015-08-23T07:43:38.000Z</time>
      </trkpt>
      <trkpt lat="47.48057" lon="6.76555">
        <ele>312</ele>
        <time>2015-08-23T07:43:39.000Z</time>
      </trkpt>
      <trkpt lat="47.48052" lon="6.76559">
        <ele>312</ele>
        <time>2015-08-23T07:43:40.000Z</time>
      </trkpt>
      <trkpt lat="47.48047" lon="6.76563">
        <ele>312</ele>
        <time>2015-08-23T07:43:41.000Z</time>
      </trkpt>
      <trkpt lat="47.48043" lon="6.76567">
        <ele>312</ele>
        <time>2015-08-23T07:43:42.000Z</time>
      </trkpt>
      <trkpt lat="47.48039" lon="6.76573">
        <ele>312</ele>
        <time>2015-08-23T07:43:43.000Z</time>
      </trkpt>
      <trkpt lat="47.48034" lon="6.76577">
        <ele>312</ele>
        <time>2015-08-23T07:43:44.000Z</time>
      </trkpt>
      <trkpt lat="47.4803" lon="6.76581">
        <ele>312</ele>
        <time>2015-08-23T07:43:45.000Z</time>
      </trkpt>
      <trkpt lat="47.48026" lon="6.76584">
        <ele>312</ele>
        <time>2015-08-23T07:43:46.000Z</time>
      </trkpt>
      <trkpt lat="47.48022" lon="6.76586">
        <ele>312</ele>
        <time>2015-08-23T07:43:47.000Z</time>
      </trkpt>
      <trkpt lat="47.48017" lon="6.7659">
        <ele>312</ele>
        <time>2015-08-23T07:43:48.000Z</time>
      </trkpt>
      <trkpt lat="47.48013" lon="6.76592">
        <ele>312</ele>
        <time>2015-08-23T07:43:49.000Z</time>
      </trkpt>
      <trkpt lat="47.48009" lon="6.76594">
        <ele>312</ele>
        <time>2015-08-23T07:43:50.000Z</time>
      </trkpt>
      <trkpt lat="47.48005" lon="6.76597">
        <ele>312</ele>
        <time>2015-08-23T07:43:51.000Z</time>
      </trkpt>
      <trkpt lat="47.48" lon="6.766">
        <ele>312</ele>
        <time>2015-08-23T07:43:52.000Z</time>
      </trkpt>
      <trkpt lat="47.47995" lon="6.76602">
        <ele>312</ele>
        <time>2015-08-23T07:43:53.000Z</time>
      </trkpt>
      <trkpt lat="47.47991" lon="6.76604">
        <ele>312</ele>
        <time>2015-08-23T07:43:53.999Z</time>
      </trkpt>
      <trkpt lat="47.47984" lon="6.76607">
        <ele>311</ele>
        <time>2015-08-23T07:43:55.000Z</time>
      </trkpt>
      <trkpt lat="47.47979" lon="6.76609">
        <ele>311</ele>
        <time>2015-08-23T07:43:56.000Z</time>
      </trkpt>
      <trkpt lat="47.47975" lon="6.7661">
        <ele>311</ele>
        <time>2015-08-23T07:43:57.000Z</time>
      </trkpt>
      <trkpt lat="47.4797" lon="6.76612">
        <ele>311</ele>
        <time>2015-08-23T07:43:58.001Z</time>
      </trkpt>
      <trkpt lat="47.47967" lon="6.76616">
        <ele>311</ele>
        <time>2015-08-23T07:43:59.000Z</time>
      </trkpt>
      <trkpt lat="47.47963" lon="6.76619">
        <ele>311</ele>
        <time>2015-08-23T07:44:00.000Z</time>
      </trkpt>
      <trkpt lat="47.47958" lon="6.76616">
        <ele>311</ele>
        <time>2015-08-23T07:44:01.000Z</time>
      </trkpt>
      <trkpt lat="47.47954" lon="6.76613">
        <ele>311</ele>
        <time>2015-08-23T07:44:02.000Z</time>
      </trkpt>
      <trkpt lat="47.4795" lon="6.76609">
        <ele>311</ele>
        <time>2015-08-23T07:44:03.000Z</time>
      </trkpt>
      <trkpt lat="47.47949" lon="6.76601">
        <ele>311</ele>
        <time>2015-08-23T07:44:04.000Z</time>
      </trkpt>
      <trkpt lat="47.47948" lon="6.76593">
        <ele>311</ele>
        <time>2015-08-23T07:44:05.000Z</time>
      </trkpt>
      <trkpt lat="47.47946" lon="6.76584">
        <ele>311</ele>
        <time>2015-08-23T07:44:06.000Z</time>
      </trkpt>
      <trkpt lat="47.47944" lon="6.76574">
        <ele>311</ele>
        <time>2015-08-23T07:44:07.000Z</time>
      </trkpt>
      <trkpt lat="47.47942" lon="6.76566">
        <ele>311</ele>
        <time>2015-08-23T07:44:08.000Z</time>
      </trkpt>
      <trkpt lat="47.47941" lon="6.76557">
        <ele>311</ele>
        <time>2015-08-23T07:44:09.000Z</time>
      </trkpt>
      <trkpt lat="47.47939" lon="6.76548">
        <ele>311</ele>
        <time>2015-08-23T07:44:10.000Z</time>
      </trkpt>
      <trkpt lat="47.47937" lon="6.76539">
        <ele>311</ele>
        <time>2015-08-23T07:44:10.999Z</time>
      </trkpt>
      <trkpt lat="47.47936" lon="6.7653">
        <ele>311</ele>
        <time>2015-08-23T07:44:12.000Z</time>
      </trkpt>
      <trkpt lat="47.47934" lon="6.76523">
        <ele>311</ele>
        <time>2015-08-23T07:44:13.000Z</time>
      </trkpt>
      <trkpt lat="47.47932" lon="6.76515">
        <ele>311</ele>
        <time>2015-08-23T07:44:13.999Z</time>
      </trkpt>
      <trkpt lat="47.4793" lon="6.76505">
        <ele>310</ele>
        <time>2015-08-23T07:44:15.000Z</time>
      </trkpt>
      <trkpt lat="47.47928" lon="6.76497">
        <ele>310</ele>
        <time>2015-08-23T07:44:16.000Z</time>
      </trkpt>
      <trkpt lat="47.47926" lon="6.76488">
        <ele>311</ele>
        <time>2015-08-23T07:44:17.000Z</time>
      </trkpt>
      <trkpt lat="47.47924" lon="6.7648">
        <ele>311</ele>
        <time>2015-08-23T07:44:18.000Z</time>
      </trkpt>
      <trkpt lat="47.47922" lon="6.76472">
        <ele>311</ele>
        <time>2015-08-23T07:44:19.001Z</time>
      </trkpt>
      <trkpt lat="47.47921" lon="6.76463">
        <ele>311</ele>
        <time>2015-08-23T07:44:20.000Z</time>
      </trkpt>
      <trkpt lat="47.47919" lon="6.76457">
        <ele>311</ele>
        <time>2015-08-23T07:44:21.000Z</time>
      </trkpt>
      <trkpt lat="47.47918" lon="6.76452">
        <ele>311</ele>
        <time>2015-08-23T07:44:22.000Z</time>
      </trkpt>
      <trkpt lat="47.47916" lon="6.76447">
        <ele>311</ele>
        <time>2015-08-23T07:44:22.999Z</time>
      </trkpt>
      <trkpt lat="47.47916" lon="6.76444">
        <ele>311</ele>
        <time>2015-08-23T07:44:24.000Z</time>
      </trkpt>
      <trkpt lat="47.47915" lon="6.76438">
        <ele>311</ele>
        <time>2015-08-23T07:44:27.000Z</time>
      </trkpt>
      <trkpt lat="47.47914" lon="6.76436">
        <ele>311</ele>
        <time>2015-08-23T07:44:28.000Z</time>
      </trkpt>
      <trkpt lat="47.47911" lon="6.76439">
        <ele>311</ele>
        <time>2015-08-23T07:44:32.000Z</time>
      </trkpt>
      <trkpt lat="47.47911" lon="6.76442">
        <ele>311</ele>
        <time>2015-08-23T07:44:33.000Z</time>
      </trkpt>
      <trkpt lat="47.47912" lon="6.76446">
        <ele>311</ele>
        <time>2015-08-23T07:44:34.000Z</time>
      </trkpt>
      <trkpt lat="47.47913" lon="6.76451">
        <ele>311</ele>
        <time>2015-08-23T07:44:35.000Z</time>
      </trkpt>
      <trkpt lat="47.47913" lon="6.76456">
        <ele>311</ele>
        <time>2015-08-23T07:44:36.000Z</time>
      </trkpt>
      <trkpt lat="47.47914" lon="6.7646">
        <ele>311</ele>
        <time>2015-08-23T07:44:37.000Z</time>
      </trkpt>
      <trkpt lat="47.47911" lon="6.76462">
        <ele>310</ele>
        <time>2015-08-23T07:44:38.000Z</time>
      </trkpt>
      <trkpt lat="47.47906" lon="6.76464">
        <ele>310</ele>
        <time>2015-08-23T07:44:39.000Z</time>
      </trkpt>
      <trkpt lat="47.47901" lon="6.7647">
        <ele>310</ele>
        <time>2015-08-23T07:44:40.000Z</time>
      </trkpt>
      <trkpt lat="47.47898" lon="6.76478">
        <ele>310</ele>
        <time>2015-08-23T07:44:41.000Z</time>
      </trkpt>
      <trkpt lat="47.47894" lon="6.76484">
        <ele>310</ele>
        <time>2015-08-23T07:44:42.000Z</time>
      </trkpt>
      <trkpt lat="47.4789" lon="6.76491">
        <ele>310</ele>
        <time>2015-08-23T07:44:43.000Z</time>
      </trkpt>
      <trkpt lat="47.47886" lon="6.765">
        <ele>310</ele>
        <time>2015-08-23T07:44:44.000Z</time>
      </trkpt>
      <trkpt lat="47.47882" lon="6.76508">
        <ele>310</ele>
        <time>2015-08-23T07:44:45.000Z</time>
      </trkpt>
      <trkpt lat="47.47877" lon="6.76516">
        <ele>310</ele>
        <time>2015-08-23T07:44:46.000Z</time>
      </trkpt>
      <trkpt lat="47.47873" lon="6.76524">
        <ele>309</ele>
        <time>2015-08-23T07:44:47.000Z</time>
      </trkpt>
      <trkpt lat="47.47868" lon="6.76529">
        <ele>309</ele>
        <time>2015-08-23T07:44:48.000Z</time>
      </trkpt>
      <trkpt lat="47.47863" lon="6.76534">
        <ele>309</ele>
        <time>2015-08-23T07:44:49.000Z</time>
      </trkpt>
      <trkpt lat="47.47857" lon="6.76537">
        <ele>309</ele>
        <time>2015-08-23T07:44:50.000Z</time>
      </trkpt>
      <trkpt lat="47.4785" lon="6.7654">
        <ele>309</ele>
        <time>2015-08-23T07:44:50.999Z</time>
      </trkpt>
      <trkpt lat="47.47844" lon="6.76534">
        <ele>309</ele>
        <time>2015-08-23T07:44:52.000Z</time>
      </trkpt>
      <trkpt lat="47.47837" lon="6.76533">
        <ele>309</ele>
        <time>2015-08-23T07:44:52.999Z</time>
      </trkpt>
      <trkpt lat="47.47833" lon="6.76541">
        <ele>309</ele>
        <time>2015-08-23T07:44:54.000Z</time>
      </trkpt>
      <trkpt lat="47.47829" lon="6.76548">
        <ele>309</ele>
        <time>2015-08-23T07:44:55.000Z</time>
      </trkpt>
      <trkpt lat="47.47825" lon="6.76556">
        <ele>309</ele>
        <time>2015-08-23T07:44:56.000Z</time>
      </trkpt>
      <trkpt lat="47.4782" lon="6.76566">
        <ele>309</ele>
        <time>2015-08-23T07:44:57.000Z</time>
      </trkpt>
      <trkpt lat="47.47816" lon="6.76574">
        <ele>309</ele>
        <time>2015-08-23T07:44:58.000Z</time>
      </trkpt>
      <trkpt lat="47.47811" lon="6.7658">
        <ele>309</ele>
        <time>2015-08-23T07:44:59.000Z</time>
      </trkpt>
      <trkpt lat="47.47807" lon="6.76589">
        <ele>309</ele>
        <time>2015-08-23T07:45:00.000Z</time>
      </trkpt>
      <trkpt lat="47.47804" lon="6.76597">
        <ele>309</ele>
        <time>2015-08-23T07:45:01.000Z</time>
      </trkpt>
      <trkpt lat="47.478" lon="6.76605">
        <ele>309</ele>
        <time>2015-08-23T07:45:02.000Z</time>
      </trkpt>
      <trkpt lat="47.47795" lon="6.76613">
        <ele>309</ele>
        <time>2015-08-23T07:45:03.000Z</time>
      </trkpt>
      <trkpt lat="47.47792" lon="6.76622">
        <ele>309</ele>
        <time>2015-08-23T07:45:04.000Z</time>
      </trkpt>
      <trkpt lat="47.47789" lon="6.7663">
        <ele>309</ele>
        <time>2015-08-23T07:45:05.000Z</time>
      </trkpt>
      <trkpt lat="47.47785" lon="6.76639">
        <ele>309</ele>
        <time>2015-08-23T07:45:06.000Z</time>
      </trkpt>
      <trkpt lat="47.47782" lon="6.76646">
        <ele>309</ele>
        <time>2015-08-23T07:45:07.000Z</time>
      </trkpt>
      <trkpt lat="47.47778" lon="6.76653">
        <ele>309</ele>
        <time>2015-08-23T07:45:08.000Z</time>
      </trkpt>
      <trkpt lat="47.47775" lon="6.7666">
        <ele>309</ele>
        <time>2015-08-23T07:45:09.000Z</time>
      </trkpt>
      <trkpt lat="47.4777" lon="6.76668">
        <ele>310</ele>
        <time>2015-08-23T07:45:10.000Z</time>
      </trkpt>
      <trkpt lat="47.47766" lon="6.76676">
        <ele>310</ele>
        <time>2015-08-23T07:45:10.999Z</time>
      </trkpt>
      <trkpt lat="47.47764" lon="6.76683">
        <ele>310</ele>
        <time>2015-08-23T07:45:12.000Z</time>
      </trkpt>
      <trkpt lat="47.4776" lon="6.7669">
        <ele>310</ele>
        <time>2015-08-23T07:45:13.000Z</time>
      </trkpt>
      <trkpt lat="47.47755" lon="6.76696">
        <ele>310</ele>
        <time>2015-08-23T07:45:14.000Z</time>
      </trkpt>
      <trkpt lat="47.47751" lon="6.76703">
        <ele>310</ele>
        <time>2015-08-23T07:45:15.000Z</time>
      </trkpt>
      <trkpt lat="47.47748" lon="6.76709">
        <ele>311</ele>
        <time>2015-08-23T07:45:16.000Z</time>
      </trkpt>
      <trkpt lat="47.47744" lon="6.76716">
        <ele>311</ele>
        <time>2015-08-23T07:45:17.000Z</time>
      </trkpt>
      <trkpt lat="47.47744" lon="6.76723">
        <ele>311</ele>
        <time>2015-08-23T07:45:18.000Z</time>
      </trkpt>
      <trkpt lat="47.47744" lon="6.76732">
        <ele>311</ele>
        <time>2015-08-23T07:45:19.000Z</time>
      </trkpt>
      <trkpt lat="47.47747" lon="6.76741">
        <ele>311</ele>
        <time>2015-08-23T07:45:20.000Z</time>
      </trkpt>
      <trkpt lat="47.4775" lon="6.76748">
        <ele>311</ele>
        <time>2015-08-23T07:45:21.000Z</time>
      </trkpt>
      <trkpt lat="47.47754" lon="6.76754">
        <ele>311</ele>
        <time>2015-08-23T07:45:22.000Z</time>
      </trkpt>
      <trkpt lat="47.47758" lon="6.7676">
        <ele>311</ele>
        <time>2015-08-23T07:45:23.000Z</time>
      </trkpt>
      <trkpt lat="47.47762" lon="6.76766">
        <ele>311</ele>
        <time>2015-08-23T07:45:24.000Z</time>
      </trkpt>
      <trkpt lat="47.47767" lon="6.7677">
        <ele>311</ele>
        <time>2015-08-23T07:45:25.000Z</time>
      </trkpt>
      <trkpt lat="47.47772" lon="6.76773">
        <ele>311</ele>
        <time>2015-08-23T07:45:26.000Z</time>
      </trkpt>
      <trkpt lat="47.47778" lon="6.76776">
        <ele>311</ele>
        <time>2015-08-23T07:45:26.999Z</time>
      </trkpt>
      <trkpt lat="47.47784" lon="6.76778">
        <ele>311</ele>
        <time>2015-08-23T07:45:28.000Z</time>
      </trkpt>
      <trkpt lat="47.4779" lon="6.7678">
        <ele>311</ele>
        <time>2015-08-23T07:45:29.001Z</time>
      </trkpt>
      <trkpt lat="47.47794" lon="6.76781">
        <ele>310</ele>
        <time>2015-08-23T07:45:30.000Z</time>
      </trkpt>
      <trkpt lat="47.47799" lon="6.76781">
        <ele>310</ele>
        <time>2015-08-23T07:45:30.999Z</time>
      </trkpt>
      <trkpt lat="47.47801" lon="6.76783">
        <ele>310</ele>
        <time>2015-08-23T07:45:32.000Z</time>
      </trkpt>
      <trkpt lat="47.47803" lon="6.76786">
        <ele>310</ele>
        <time>2015-08-23T07:45:33.000Z</time>
      </trkpt>
      <trkpt lat="47.47804" lon="6.76792">
        <ele>310</ele>
        <time>2015-08-23T07:45:35.000Z</time>
      </trkpt>
      <trkpt lat="47.478" lon="6.76795">
        <ele>310</ele>
        <time>2015-08-23T07:45:36.001Z</time>
      </trkpt>
      <trkpt lat="47.47798" lon="6.76795">
        <ele>310</ele>
        <time>2015-08-23T07:45:37.000Z</time>
      </trkpt>
      <trkpt lat="47.47795" lon="6.76794">
        <ele>310</ele>
        <time>2015-08-23T07:45:38.000Z</time>
      </trkpt>
      <trkpt lat="47.47793" lon="6.76794">
        <ele>310</ele>
        <time>2015-08-23T07:45:39.000Z</time>
      </trkpt>
      <trkpt lat="47.47789" lon="6.76792">
        <ele>311</ele>
        <time>2015-08-23T07:45:40.000Z</time>
      </trkpt>
      <trkpt lat="47.47785" lon="6.76791">
        <ele>311</ele>
        <time>2015-08-23T07:45:41.000Z</time>
      </trkpt>
      <trkpt lat="47.47782" lon="6.76791">
        <ele>311</ele>
        <time>2015-08-23T07:45:42.000Z</time>
      </trkpt>
      <trkpt lat="47.47777" lon="6.76791">
        <ele>311</ele>
        <time>2015-08-23T07:45:43.000Z</time>
      </trkpt>
      <trkpt lat="47.47774" lon="6.76791">
        <ele>311</ele>
        <time>2015-08-23T07:45:43.999Z</time>
      </trkpt>
      <trkpt lat="47.47769" lon="6.76792">
        <ele>311</ele>
        <time>2015-08-23T07:45:45.002Z</time>
      </trkpt>
      <trkpt lat="47.47765" lon="6.76792">
        <ele>311</ele>
        <time>2015-08-23T07:45:45.999Z</time>
      </trkpt>
      <trkpt lat="47.4776" lon="6.76792">
        <ele>311</ele>
        <time>2015-08-23T07:45:47.000Z</time>
      </trkpt>
      <trkpt lat="47.47756" lon="6.76791">
        <ele>311</ele>
        <time>2015-08-23T07:45:48.000Z</time>
      </trkpt>
      <trkpt lat="47.47752" lon="6.76791">
        <ele>311</ele>
        <time>2015-08-23T07:45:49.000Z</time>
      </trkpt>
      <trkpt lat="47.47748" lon="6.76791">
        <ele>311</ele>
        <time>2015-08-23T07:45:50.000Z</time>
      </trkpt>
      <trkpt lat="47.47744" lon="6.76792">
        <ele>311</ele>
        <time>2015-08-23T07:45:51.000Z</time>
      </trkpt>
      <trkpt lat="47.47741" lon="6.76792">
        <ele>311</ele>
        <time>2015-08-23T07:45:51.999Z</time>
      </trkpt>
      <trkpt lat="47.47735" lon="6.76794">
        <ele>311</ele>
        <time>2015-08-23T07:45:53.000Z</time>
      </trkpt>
      <trkpt lat="47.47728" lon="6.76806">
        <ele>311</ele>
        <time>2015-08-23T07:45:54.000Z</time>
      </trkpt>
      <trkpt lat="47.47723" lon="6.76811">
        <ele>311</ele>
        <time>2015-08-23T07:45:55.001Z</time>
      </trkpt>
      <trkpt lat="47.4772" lon="6.76821">
        <ele>311</ele>
        <time>2015-08-23T07:45:56.000Z</time>
      </trkpt>
      <trkpt lat="47.47716" lon="6.76829">
        <ele>311</ele>
        <time>2015-08-23T07:45:57.000Z</time>
      </trkpt>
      <trkpt lat="47.47714" lon="6.76836">
        <ele>311</ele>
        <time>2015-08-23T07:45:58.000Z</time>
      </trkpt>
      <trkpt lat="47.47711" lon="6.76843">
        <ele>311</ele>
        <time>2015-08-23T07:45:59.000Z</time>
      </trkpt>
      <trkpt lat="47.47708" lon="6.7685">
        <ele>311</ele>
        <time>2015-08-23T07:46:00.000Z</time>
      </trkpt>
      <trkpt lat="47.47706" lon="6.76858">
        <ele>311</ele>
        <time>2015-08-23T07:46:01.000Z</time>
      </trkpt>
      <trkpt lat="47.47704" lon="6.76865">
        <ele>311</ele>
        <time>2015-08-23T07:46:02.000Z</time>
      </trkpt>
      <trkpt lat="47.47701" lon="6.76872">
        <ele>311</ele>
        <time>2015-08-23T07:46:03.000Z</time>
      </trkpt>
      <trkpt lat="47.47698" lon="6.7688">
        <ele>311</ele>
        <time>2015-08-23T07:46:04.000Z</time>
      </trkpt>
      <trkpt lat="47.47696" lon="6.76887">
        <ele>311</ele>
        <time>2015-08-23T07:46:05.000Z</time>
      </trkpt>
      <trkpt lat="47.47693" lon="6.76894">
        <ele>311</ele>
        <time>2015-08-23T07:46:06.000Z</time>
      </trkpt>
      <trkpt lat="47.47691" lon="6.76902">
        <ele>311</ele>
        <time>2015-08-23T07:46:07.000Z</time>
      </trkpt>
      <trkpt lat="47.47687" lon="6.76911">
        <ele>311</ele>
        <time>2015-08-23T07:46:08.000Z</time>
      </trkpt>
      <trkpt lat="47.47685" lon="6.7692">
        <ele>311</ele>
        <time>2015-08-23T07:46:09.000Z</time>
      </trkpt>
      <trkpt lat="47.47682" lon="6.7693">
        <ele>311</ele>
        <time>2015-08-23T07:46:10.000Z</time>
      </trkpt>
      <trkpt lat="47.4768" lon="6.76938">
        <ele>311</ele>
        <time>2015-08-23T07:46:11.000Z</time>
      </trkpt>
      <trkpt lat="47.47677" lon="6.76945">
        <ele>311</ele>
        <time>2015-08-23T07:46:12.000Z</time>
      </trkpt>
      <trkpt lat="47.47674" lon="6.76952">
        <ele>311</ele>
        <time>2015-08-23T07:46:13.000Z</time>
      </trkpt>
      <trkpt lat="47.47671" lon="6.7696">
        <ele>311</ele>
        <time>2015-08-23T07:46:14.000Z</time>
      </trkpt>
      <trkpt lat="47.47668" lon="6.76967">
        <ele>311</ele>
        <time>2015-08-23T07:46:15.000Z</time>
      </trkpt>
      <trkpt lat="47.47665" lon="6.76973">
        <ele>311</ele>
        <time>2015-08-23T07:46:16.000Z</time>
      </trkpt>
      <trkpt lat="47.47664" lon="6.7698">
        <ele>311</ele>
        <time>2015-08-23T07:46:17.000Z</time>
      </trkpt>
      <trkpt lat="47.47661" lon="6.76984">
        <ele>311</ele>
        <time>2015-08-23T07:46:18.000Z</time>
      </trkpt>
      <trkpt lat="47.47658" lon="6.76988">
        <ele>311</ele>
        <time>2015-08-23T07:46:19.000Z</time>
      </trkpt>
      <trkpt lat="47.47657" lon="6.76992">
        <ele>311</ele>
        <time>2015-08-23T07:46:20.000Z</time>
      </trkpt>
      <trkpt lat="47.47655" lon="6.76997">
        <ele>311</ele>
        <time>2015-08-23T07:46:21.000Z</time>
      </trkpt>
      <trkpt lat="47.47653" lon="6.77003">
        <ele>311</ele>
        <time>2015-08-23T07:46:22.000Z</time>
      </trkpt>
      <trkpt lat="47.47651" lon="6.77011">
        <ele>311</ele>
        <time>2015-08-23T07:46:23.000Z</time>
      </trkpt>
      <trkpt lat="47.4765" lon="6.77016">
        <ele>311</ele>
        <time>2015-08-23T07:46:24.000Z</time>
      </trkpt>
      <trkpt lat="47.47649" lon="6.77019">
        <ele>311</ele>
        <time>2015-08-23T07:46:25.000Z</time>
      </trkpt>
      <trkpt lat="47.47648" lon="6.77023">
        <ele>311</ele>
        <time>2015-08-23T07:46:26.000Z</time>
      </trkpt>
      <trkpt lat="47.47647" lon="6.77029">
        <ele>311</ele>
        <time>2015-08-23T07:46:27.000Z</time>
      </trkpt>
      <trkpt lat="47.47646" lon="6.77035">
        <ele>311</ele>
        <time>2015-08-23T07:46:28.000Z</time>
      </trkpt>
      <trkpt lat="47.47645" lon="6.77041">
        <ele>311</ele>
        <time>2015-08-23T07:46:29.000Z</time>
      </trkpt>
      <trkpt lat="47.47644" lon="6.77046">
        <ele>311</ele>
        <time>2015-08-23T07:46:30.000Z</time>
      </trkpt>
      <trkpt lat="47.47644" lon="6.77052">
        <ele>311</ele>
        <time>2015-08-23T07:46:31.000Z</time>
      </trkpt>
      <trkpt lat="47.47644" lon="6.77056">
        <ele>311</ele>
        <time>2015-08-23T07:46:32.000Z</time>
      </trkpt>
      <trkpt lat="47.47643" lon="6.77061">
        <ele>311</ele>
        <time>2015-08-23T07:46:33.000Z</time>
      </trkpt>
      <trkpt lat="47.47643" lon="6.77066">
        <ele>311</ele>
        <time>2015-08-23T07:46:34.000Z</time>
      </trkpt>
      <trkpt lat="47.47642" lon="6.77072">
        <ele>311</ele>
        <time>2015-08-23T07:46:35.000Z</time>
      </trkpt>
      <trkpt lat="47.47642" lon="6.77079">
        <ele>311</ele>
        <time>2015-08-23T07:46:36.000Z</time>
      </trkpt>
      <trkpt lat="47.47642" lon="6.77086">
        <ele>311</ele>
        <time>2015-08-23T07:46:37.000Z</time>
      </trkpt>
      <trkpt lat="47.47642" lon="6.77093">
        <ele>311</ele>
        <time>2015-08-23T07:46:38.000Z</time>
      </trkpt>
      <trkpt lat="47.47642" lon="6.771">
        <ele>311</ele>
        <time>2015-08-23T07:46:39.000Z</time>
      </trkpt>
      <trkpt lat="47.47641" lon="6.77113">
        <ele>310</ele>
        <time>2015-08-23T07:46:40.000Z</time>
      </trkpt>
      <trkpt lat="47.4764" lon="6.77122">
        <ele>310</ele>
        <time>2015-08-23T07:46:41.000Z</time>
      </trkpt>
      <trkpt lat="47.47638" lon="6.77128">
        <ele>310</ele>
        <time>2015-08-23T07:46:42.000Z</time>
      </trkpt>
      <trkpt lat="47.47637" lon="6.77135">
        <ele>310</ele>
        <time>2015-08-23T07:46:43.000Z</time>
      </trkpt>
      <trkpt lat="47.47632" lon="6.77142">
        <ele>310</ele>
        <time>2015-08-23T07:46:44.000Z</time>
      </trkpt>
      <trkpt lat="47.47628" lon="6.77149">
        <ele>310</ele>
        <time>2015-08-23T07:46:45.000Z</time>
      </trkpt>
      <trkpt lat="47.47624" lon="6.77156">
        <ele>310</ele>
        <time>2015-08-23T07:46:46.000Z</time>
      </trkpt>
      <trkpt lat="47.4762" lon="6.77165">
        <ele>310</ele>
        <time>2015-08-23T07:46:47.000Z</time>
      </trkpt>
      <trkpt lat="47.47616" lon="6.77175">
        <ele>310</ele>
        <time>2015-08-23T07:46:48.000Z</time>
      </trkpt>
      <trkpt lat="47.47611" lon="6.77182">
        <ele>310</ele>
        <time>2015-08-23T07:46:49.000Z</time>
      </trkpt>
      <trkpt lat="47.47605" lon="6.77187">
        <ele>310</ele>
        <time>2015-08-23T07:46:50.000Z</time>
      </trkpt>
      <trkpt lat="47.47598" lon="6.77182">
        <ele>310</ele>
        <time>2015-08-23T07:46:51.000Z</time>
      </trkpt>
      <trkpt lat="47.47592" lon="6.77179">
        <ele>310</ele>
        <time>2015-08-23T07:46:52.000Z</time>
      </trkpt>
      <trkpt lat="47.47586" lon="6.77173">
        <ele>309</ele>
        <time>2015-08-23T07:46:53.000Z</time>
      </trkpt>
      <trkpt lat="47.47579" lon="6.77168">
        <ele>309</ele>
        <time>2015-08-23T07:46:54.000Z</time>
      </trkpt>
      <trkpt lat="47.47574" lon="6.77163">
        <ele>309</ele>
        <time>2015-08-23T07:46:55.000Z</time>
      </trkpt>
      <trkpt lat="47.47568" lon="6.77159">
        <ele>309</ele>
        <time>2015-08-23T07:46:56.000Z</time>
      </trkpt>
      <trkpt lat="47.47563" lon="6.77156">
        <ele>310</ele>
        <time>2015-08-23T07:46:57.000Z</time>
      </trkpt>
      <trkpt lat="47.47556" lon="6.77151">
        <ele>310</ele>
        <time>2015-08-23T07:46:58.000Z</time>
      </trkpt>
      <trkpt lat="47.47551" lon="6.77146">
        <ele>310</ele>
        <time>2015-08-23T07:46:59.000Z</time>
      </trkpt>
      <trkpt lat="47.47545" lon="6.77141">
        <ele>310</ele>
        <time>2015-08-23T07:47:00.000Z</time>
      </trkpt>
      <trkpt lat="47.47541" lon="6.77137">
        <ele>310</ele>
        <time>2015-08-23T07:47:01.000Z</time>
      </trkpt>
      <trkpt lat="47.47536" lon="6.77133">
        <ele>310</ele>
        <time>2015-08-23T07:47:01.999Z</time>
      </trkpt>
      <trkpt lat="47.4753" lon="6.77136">
        <ele>310</ele>
        <time>2015-08-23T07:47:03.000Z</time>
      </trkpt>
      <trkpt lat="47.47524" lon="6.77139">
        <ele>310</ele>
        <time>2015-08-23T07:47:04.000Z</time>
      </trkpt>
      <trkpt lat="47.47518" lon="6.77143">
        <ele>310</ele>
        <time>2015-08-23T07:47:05.002Z</time>
      </trkpt>
      <trkpt lat="47.47511" lon="6.77159">
        <ele>309</ele>
        <time>2015-08-23T07:47:07.000Z</time>
      </trkpt>
      <trkpt lat="47.47512" lon="6.77169">
        <ele>310</ele>
        <time>2015-08-23T07:47:08.000Z</time>
      </trkpt>
      <trkpt lat="47.47512" lon="6.77175">
        <ele>310</ele>
        <time>2015-08-23T07:47:09.000Z</time>
      </trkpt>
      <trkpt lat="47.47517" lon="6.77188">
        <ele>310</ele>
        <time>2015-08-23T07:47:10.000Z</time>
      </trkpt>
      <trkpt lat="47.47523" lon="6.7719">
        <ele>310</ele>
        <time>2015-08-23T07:47:11.000Z</time>
      </trkpt>
      <trkpt lat="47.47529" lon="6.77192">
        <ele>310</ele>
        <time>2015-08-23T07:47:12.000Z</time>
      </trkpt>
      <trkpt lat="47.47534" lon="6.77195">
        <ele>310</ele>
        <time>2015-08-23T07:47:13.000Z</time>
      </trkpt>
      <trkpt lat="47.47539" lon="6.77196">
        <ele>310</ele>
        <time>2015-08-23T07:47:14.000Z</time>
      </trkpt>
      <trkpt lat="47.47544" lon="6.77199">
        <ele>310</ele>
        <time>2015-08-23T07:47:15.000Z</time>
      </trkpt>
      <trkpt lat="47.47549" lon="6.77203">
        <ele>310</ele>
        <time>2015-08-23T07:47:16.000Z</time>
      </trkpt>
      <trkpt lat="47.47556" lon="6.77209">
        <ele>311</ele>
        <time>2015-08-23T07:47:17.000Z</time>
      </trkpt>
      <trkpt lat="47.4756" lon="6.77213">
        <ele>311</ele>
        <time>2015-08-23T07:47:18.000Z</time>
      </trkpt>
      <trkpt lat="47.47566" lon="6.7722">
        <ele>311</ele>
        <time>2015-08-23T07:47:19.000Z</time>
      </trkpt>
      <trkpt lat="47.47573" lon="6.77225">
        <ele>311</ele>
        <time>2015-08-23T07:47:20.000Z</time>
      </trkpt>
      <trkpt lat="47.47578" lon="6.7723">
        <ele>311</ele>
        <time>2015-08-23T07:47:21.000Z</time>
      </trkpt>
      <trkpt lat="47.47585" lon="6.77235">
        <ele>311</ele>
        <time>2015-08-23T07:47:22.000Z</time>
      </trkpt>
      <trkpt lat="47.47591" lon="6.7724">
        <ele>311</ele>
        <time>2015-08-23T07:47:23.000Z</time>
      </trkpt>
      <trkpt lat="47.47597" lon="6.77245">
        <ele>311</ele>
        <time>2015-08-23T07:47:24.000Z</time>
      </trkpt>
      <trkpt lat="47.47603" lon="6.7725">
        <ele>311</ele>
        <time>2015-08-23T07:47:25.000Z</time>
      </trkpt>
      <trkpt lat="47.47607" lon="6.77253">
        <ele>311</ele>
        <time>2015-08-23T07:47:26.000Z</time>
      </trkpt>
      <trkpt lat="47.47612" lon="6.77258">
        <ele>311</ele>
        <time>2015-08-23T07:47:26.998Z</time>
      </trkpt>
      <trkpt lat="47.47617" lon="6.77261">
        <ele>311</ele>
        <time>2015-08-23T07:47:28.000Z</time>
      </trkpt>
      <trkpt lat="47.47621" lon="6.77265">
        <ele>311</ele>
        <time>2015-08-23T07:47:29.000Z</time>
      </trkpt>
      <trkpt lat="47.47626" lon="6.77269">
        <ele>311</ele>
        <time>2015-08-23T07:47:30.000Z</time>
      </trkpt>
      <trkpt lat="47.4763" lon="6.77275">
        <ele>311</ele>
        <time>2015-08-23T07:47:31.000Z</time>
      </trkpt>
      <trkpt lat="47.47634" lon="6.77281">
        <ele>311</ele>
        <time>2015-08-23T07:47:32.000Z</time>
      </trkpt>
      <trkpt lat="47.47638" lon="6.77288">
        <ele>311</ele>
        <time>2015-08-23T07:47:32.999Z</time>
      </trkpt>
      <trkpt lat="47.47639" lon="6.77296">
        <ele>311</ele>
        <time>2015-08-23T07:47:34.000Z</time>
      </trkpt>
      <trkpt lat="47.47638" lon="6.77304">
        <ele>311</ele>
        <time>2015-08-23T07:47:35.000Z</time>
      </trkpt>
      <trkpt lat="47.47636" lon="6.7731">
        <ele>311</ele>
        <time>2015-08-23T07:47:36.000Z</time>
      </trkpt>
      <trkpt lat="47.47634" lon="6.77318">
        <ele>311</ele>
        <time>2015-08-23T07:47:36.999Z</time>
      </trkpt>
      <trkpt lat="47.47632" lon="6.77325">
        <ele>311</ele>
        <time>2015-08-23T07:47:38.000Z</time>
      </trkpt>
      <trkpt lat="47.47628" lon="6.77333">
        <ele>311</ele>
        <time>2015-08-23T07:47:39.000Z</time>
      </trkpt>
      <trkpt lat="47.47624" lon="6.77341">
        <ele>312</ele>
        <time>2015-08-23T07:47:40.001Z</time>
      </trkpt>
      <trkpt lat="47.47621" lon="6.77348">
        <ele>312</ele>
        <time>2015-08-23T07:47:41.000Z</time>
      </trkpt>
      <trkpt lat="47.47618" lon="6.77355">
        <ele>312</ele>
        <time>2015-08-23T07:47:42.000Z</time>
      </trkpt>
      <trkpt lat="47.47617" lon="6.77363">
        <ele>312</ele>
        <time>2015-08-23T07:47:43.000Z</time>
      </trkpt>
      <trkpt lat="47.47614" lon="6.77369">
        <ele>312</ele>
        <time>2015-08-23T07:47:44.000Z</time>
      </trkpt>
      <trkpt lat="47.47612" lon="6.77377">
        <ele>312</ele>
        <time>2015-08-23T07:47:45.001Z</time>
      </trkpt>
      <trkpt lat="47.4761" lon="6.77383">
        <ele>312</ele>
        <time>2015-08-23T07:47:46.000Z</time>
      </trkpt>
      <trkpt lat="47.47608" lon="6.77391">
        <ele>312</ele>
        <time>2015-08-23T07:47:47.000Z</time>
      </trkpt>
      <trkpt lat="47.47606" lon="6.77397">
        <ele>313</ele>
        <time>2015-08-23T07:47:48.000Z</time>
      </trkpt>
      <trkpt lat="47.47604" lon="6.77402">
        <ele>313</ele>
        <time>2015-08-23T07:47:49.000Z</time>
      </trkpt>
      <trkpt lat="47.476" lon="6.77407">
        <ele>313</ele>
        <time>2015-08-23T07:47:50.000Z</time>
      </trkpt>
      <trkpt lat="47.47596" lon="6.77411">
        <ele>313</ele>
        <time>2015-08-23T07:47:51.000Z</time>
      </trkpt>
      <trkpt lat="47.47592" lon="6.77413">
        <ele>313</ele>
        <time>2015-08-23T07:47:52.000Z</time>
      </trkpt>
      <trkpt lat="47.47589" lon="6.77412">
        <ele>313</ele>
        <time>2015-08-23T07:47:53.000Z</time>
      </trkpt>
      <trkpt lat="47.47586" lon="6.77408">
        <ele>313</ele>
        <time>2015-08-23T07:47:54.000Z</time>
      </trkpt>
      <trkpt lat="47.47583" lon="6.77406">
        <ele>314</ele>
        <time>2015-08-23T07:47:55.000Z</time>
      </trkpt>
      <trkpt lat="47.4758" lon="6.77407">
        <ele>314</ele>
        <time>2015-08-23T07:47:56.000Z</time>
      </trkpt>
      <trkpt lat="47.47576" lon="6.77409">
        <ele>314</ele>
        <time>2015-08-23T07:47:57.000Z</time>
      </trkpt>
      <trkpt lat="47.4757" lon="6.77409">
        <ele>314</ele>
        <time>2015-08-23T07:47:58.000Z</time>
      </trkpt>
      <trkpt lat="47.47566" lon="6.7741">
        <ele>314</ele>
        <time>2015-08-23T07:47:59.000Z</time>
      </trkpt>
      <trkpt lat="47.47562" lon="6.77411">
        <ele>314</ele>
        <time>2015-08-23T07:48:00.000Z</time>
      </trkpt>
      <trkpt lat="47.47558" lon="6.77409">
        <ele>314</ele>
        <time>2015-08-23T07:48:01.000Z</time>
      </trkpt>
      <trkpt lat="47.47556" lon="6.77406">
        <ele>314</ele>
        <time>2015-08-23T07:48:02.000Z</time>
      </trkpt>
      <trkpt lat="47.47552" lon="6.77405">
        <ele>314</ele>
        <time>2015-08-23T07:48:03.000Z</time>
      </trkpt>
      <trkpt lat="47.47548" lon="6.77407">
        <ele>314</ele>
        <time>2015-08-23T07:48:04.000Z</time>
      </trkpt>
      <trkpt lat="47.47544" lon="6.77406">
        <ele>314</ele>
        <time>2015-08-23T07:48:05.000Z</time>
      </trkpt>
      <trkpt lat="47.4754" lon="6.77405">
        <ele>315</ele>
        <time>2015-08-23T07:48:06.000Z</time>
      </trkpt>
      <trkpt lat="47.47536" lon="6.77407">
        <ele>315</ele>
        <time>2015-08-23T07:48:07.000Z</time>
      </trkpt>
      <trkpt lat="47.47533" lon="6.77409">
        <ele>315</ele>
        <time>2015-08-23T07:48:08.000Z</time>
      </trkpt>
      <trkpt lat="47.47529" lon="6.77411">
        <ele>315</ele>
        <time>2015-08-23T07:48:09.000Z</time>
      </trkpt>
      <trkpt lat="47.47526" lon="6.77415">
        <ele>315</ele>
        <time>2015-08-23T07:48:10.000Z</time>
      </trkpt>
      <trkpt lat="47.47524" lon="6.77418">
        <ele>316</ele>
        <time>2015-08-23T07:48:11.000Z</time>
      </trkpt>
      <trkpt lat="47.47521" lon="6.77422">
        <ele>316</ele>
        <time>2015-08-23T07:48:12.000Z</time>
      </trkpt>
      <trkpt lat="47.47519" lon="6.77426">
        <ele>316</ele>
        <time>2015-08-23T07:48:13.000Z</time>
      </trkpt>
      <trkpt lat="47.47516" lon="6.77429">
        <ele>316</ele>
        <time>2015-08-23T07:48:14.000Z</time>
      </trkpt>
      <trkpt lat="47.47514" lon="6.77432">
        <ele>316</ele>
        <time>2015-08-23T07:48:15.000Z</time>
      </trkpt>
      <trkpt lat="47.47511" lon="6.77436">
        <ele>316</ele>
        <time>2015-08-23T07:48:16.000Z</time>
      </trkpt>
      <trkpt lat="47.47509" lon="6.7744">
        <ele>316</ele>
        <time>2015-08-23T07:48:17.000Z</time>
      </trkpt>
      <trkpt lat="47.47506" lon="6.77445">
        <ele>316</ele>
        <time>2015-08-23T07:48:18.000Z</time>
      </trkpt>
      <trkpt lat="47.47503" lon="6.77449">
        <ele>316</ele>
        <time>2015-08-23T07:48:19.000Z</time>
      </trkpt>
      <trkpt lat="47.47501" lon="6.77454">
        <ele>316</ele>
        <time>2015-08-23T07:48:20.000Z</time>
      </trkpt>
      <trkpt lat="47.47498" lon="6.77459">
        <ele>317</ele>
        <time>2015-08-23T07:48:21.000Z</time>
      </trkpt>
      <trkpt lat="47.47496" lon="6.77463">
        <ele>317</ele>
        <time>2015-08-23T07:48:22.000Z</time>
      </trkpt>
      <trkpt lat="47.47494" lon="6.77468">
        <ele>317</ele>
        <time>2015-08-23T07:48:23.000Z</time>
      </trkpt>
      <trkpt lat="47.47491" lon="6.77472">
        <ele>317</ele>
        <time>2015-08-23T07:48:24.000Z</time>
      </trkpt>
      <trkpt lat="47.47488" lon="6.77476">
        <ele>317</ele>
        <time>2015-08-23T07:48:25.000Z</time>
      </trkpt>
      <trkpt lat="47.47485" lon="6.7748">
        <ele>317</ele>
        <time>2015-08-23T07:48:26.000Z</time>
      </trkpt>
      <trkpt lat="47.47482" lon="6.77484">
        <ele>317</ele>
        <time>2015-08-23T07:48:27.000Z</time>
      </trkpt>
      <trkpt lat="47.47479" lon="6.77491">
        <ele>317</ele>
        <time>2015-08-23T07:48:28.000Z</time>
      </trkpt>
      <trkpt lat="47.47476" lon="6.77496">
        <ele>317</ele>
        <time>2015-08-23T07:48:29.000Z</time>
      </trkpt>
      <trkpt lat="47.47474" lon="6.775">
        <ele>318</ele>
        <time>2015-08-23T07:48:30.000Z</time>
      </trkpt>
      <trkpt lat="47.4747" lon="6.77505">
        <ele>318</ele>
        <time>2015-08-23T07:48:31.000Z</time>
      </trkpt>
      <trkpt lat="47.47467" lon="6.77509">
        <ele>318</ele>
        <time>2015-08-23T07:48:32.000Z</time>
      </trkpt>
      <trkpt lat="47.47464" lon="6.77514">
        <ele>318</ele>
        <time>2015-08-23T07:48:33.000Z</time>
      </trkpt>
      <trkpt lat="47.47462" lon="6.77519">
        <ele>319</ele>
        <time>2015-08-23T07:48:34.000Z</time>
      </trkpt>
      <trkpt lat="47.47459" lon="6.77523">
        <ele>319</ele>
        <time>2015-08-23T07:48:35.000Z</time>
      </trkpt>
      <trkpt lat="47.47456" lon="6.77526">
        <ele>319</ele>
        <time>2015-08-23T07:48:36.000Z</time>
      </trkpt>
      <trkpt lat="47.47452" lon="6.77529">
        <ele>319</ele>
        <time>2015-08-23T07:48:37.000Z</time>
      </trkpt>
      <trkpt lat="47.47449" lon="6.7753">
        <ele>319</ele>
        <time>2015-08-23T07:48:38.000Z</time>
      </trkpt>
      <trkpt lat="47.47444" lon="6.77532">
        <ele>319</ele>
        <time>2015-08-23T07:48:39.000Z</time>
      </trkpt>
      <trkpt lat="47.4744" lon="6.77534">
        <ele>319</ele>
        <time>2015-08-23T07:48:40.000Z</time>
      </trkpt>
      <trkpt lat="47.47436" lon="6.77538">
        <ele>319</ele>
        <time>2015-08-23T07:48:41.000Z</time>
      </trkpt>
      <trkpt lat="47.47431" lon="6.77541">
        <ele>319</ele>
        <time>2015-08-23T07:48:42.000Z</time>
      </trkpt>
      <trkpt lat="47.47428" lon="6.77543">
        <ele>319</ele>
        <time>2015-08-23T07:48:43.000Z</time>
      </trkpt>
      <trkpt lat="47.47426" lon="6.77544">
        <ele>319</ele>
        <time>2015-08-23T07:48:44.000Z</time>
      </trkpt>
      <trkpt lat="47.47422" lon="6.77545">
        <ele>319</ele>
        <time>2015-08-23T07:48:45.000Z</time>
      </trkpt>
      <trkpt lat="47.47418" lon="6.77548">
        <ele>319</ele>
        <time>2015-08-23T07:48:46.000Z</time>
      </trkpt>
      <trkpt lat="47.47413" lon="6.7755">
        <ele>321</ele>
        <time>2015-08-23T07:48:47.000Z</time>
      </trkpt>
      <trkpt lat="47.47409" lon="6.77552">
        <ele>321</ele>
        <time>2015-08-23T07:48:48.000Z</time>
      </trkpt>
      <trkpt lat="47.47405" lon="6.77554">
        <ele>322</ele>
        <time>2015-08-23T07:48:49.000Z</time>
      </trkpt>
      <trkpt lat="47.47401" lon="6.77557">
        <ele>322</ele>
        <time>2015-08-23T07:48:50.000Z</time>
      </trkpt>
      <trkpt lat="47.47396" lon="6.77558">
        <ele>322</ele>
        <time>2015-08-23T07:48:51.000Z</time>
      </trkpt>
      <trkpt lat="47.47392" lon="6.77559">
        <ele>322</ele>
        <time>2015-08-23T07:48:52.000Z</time>
      </trkpt>
      <trkpt lat="47.47389" lon="6.7756">
        <ele>322</ele>
        <time>2015-08-23T07:48:53.000Z</time>
      </trkpt>
      <trkpt lat="47.47385" lon="6.77561">
        <ele>322</ele>
        <time>2015-08-23T07:48:54.000Z</time>
      </trkpt>
      <trkpt lat="47.47381" lon="6.77561">
        <ele>322</ele>
        <time>2015-08-23T07:48:55.000Z</time>
      </trkpt>
      <trkpt lat="47.47377" lon="6.77561">
        <ele>322</ele>
        <time>2015-08-23T07:48:56.000Z</time>
      </trkpt>
      <trkpt lat="47.47374" lon="6.77561">
        <ele>322</ele>
        <time>2015-08-23T07:48:57.000Z</time>
      </trkpt>
      <trkpt lat="47.4737" lon="6.77561">
        <ele>322</ele>
        <time>2015-08-23T07:48:58.000Z</time>
      </trkpt>
      <trkpt lat="47.47366" lon="6.77562">
        <ele>322</ele>
        <time>2015-08-23T07:48:59.000Z</time>
      </trkpt>
      <trkpt lat="47.47363" lon="6.77562">
        <ele>323</ele>
        <time>2015-08-23T07:49:00.000Z</time>
      </trkpt>
      <trkpt lat="47.47359" lon="6.77561">
        <ele>323</ele>
        <time>2015-08-23T07:49:01.000Z</time>
      </trkpt>
      <trkpt lat="47.47356" lon="6.77561">
        <ele>323</ele>
        <time>2015-08-23T07:49:02.000Z</time>
      </trkpt>
      <trkpt lat="47.47352" lon="6.7756">
        <ele>323</ele>
        <time>2015-08-23T07:49:03.000Z</time>
      </trkpt>
      <trkpt lat="47.47349" lon="6.77559">
        <ele>323</ele>
        <time>2015-08-23T07:49:04.000Z</time>
      </trkpt>
      <trkpt lat="47.47347" lon="6.77559">
        <ele>323</ele>
        <time>2015-08-23T07:49:05.000Z</time>
      </trkpt>
      <trkpt lat="47.47344" lon="6.77559">
        <ele>323</ele>
        <time>2015-08-23T07:49:06.000Z</time>
      </trkpt>
      <trkpt lat="47.4734" lon="6.77559">
        <ele>323</ele>
        <time>2015-08-23T07:49:07.000Z</time>
      </trkpt>
      <trkpt lat="47.47337" lon="6.77559">
        <ele>323</ele>
        <time>2015-08-23T07:49:08.000Z</time>
      </trkpt>
      <trkpt lat="47.47333" lon="6.77559">
        <ele>326</ele>
        <time>2015-08-23T07:49:09.000Z</time>
      </trkpt>
      <trkpt lat="47.4733" lon="6.77559">
        <ele>326</ele>
        <time>2015-08-23T07:49:10.000Z</time>
      </trkpt>
      <trkpt lat="47.47326" lon="6.7756">
        <ele>326</ele>
        <time>2015-08-23T07:49:11.000Z</time>
      </trkpt>
      <trkpt lat="47.47323" lon="6.7756">
        <ele>326</ele>
        <time>2015-08-23T07:49:12.000Z</time>
      </trkpt>
      <trkpt lat="47.47319" lon="6.77561">
        <ele>326</ele>
        <time>2015-08-23T07:49:13.000Z</time>
      </trkpt>
      <trkpt lat="47.47316" lon="6.77561">
        <ele>326</ele>
        <time>2015-08-23T07:49:14.000Z</time>
      </trkpt>
      <trkpt lat="47.47312" lon="6.77561">
        <ele>326</ele>
        <time>2015-08-23T07:49:15.000Z</time>
      </trkpt>
      <trkpt lat="47.47309" lon="6.77562">
        <ele>326</ele>
        <time>2015-08-23T07:49:16.000Z</time>
      </trkpt>
      <trkpt lat="47.47306" lon="6.77562">
        <ele>326</ele>
        <time>2015-08-23T07:49:17.000Z</time>
      </trkpt>
      <trkpt lat="47.47302" lon="6.77563">
        <ele>326</ele>
        <time>2015-08-23T07:49:18.000Z</time>
      </trkpt>
      <trkpt lat="47.47299" lon="6.77563">
        <ele>326</ele>
        <time>2015-08-23T07:49:19.000Z</time>
      </trkpt>
      <trkpt lat="47.47295" lon="6.77563">
        <ele>327</ele>
        <time>2015-08-23T07:49:20.000Z</time>
      </trkpt>
      <trkpt lat="47.47292" lon="6.77563">
        <ele>327</ele>
        <time>2015-08-23T07:49:21.000Z</time>
      </trkpt>
      <trkpt lat="47.47289" lon="6.77563">
        <ele>327</ele>
        <time>2015-08-23T07:49:22.000Z</time>
      </trkpt>
      <trkpt lat="47.47286" lon="6.77563">
        <ele>327</ele>
        <time>2015-08-23T07:49:23.000Z</time>
      </trkpt>
      <trkpt lat="47.47282" lon="6.77563">
        <ele>327</ele>
        <time>2015-08-23T07:49:24.000Z</time>
      </trkpt>
      <trkpt lat="47.47279" lon="6.77563">
        <ele>327</ele>
        <time>2015-08-23T07:49:25.000Z</time>
      </trkpt>
      <trkpt lat="47.47276" lon="6.77563">
        <ele>327</ele>
        <time>2015-08-23T07:49:26.000Z</time>
      </trkpt>
      <trkpt lat="47.47273" lon="6.77563">
        <ele>327</ele>
        <time>2015-08-23T07:49:27.000Z</time>
      </trkpt>
      <trkpt lat="47.4727" lon="6.77563">
        <ele>328</ele>
        <time>2015-08-23T07:49:28.000Z</time>
      </trkpt>
      <trkpt lat="47.47266" lon="6.77562">
        <ele>328</ele>
        <time>2015-08-23T07:49:29.000Z</time>
      </trkpt>
      <trkpt lat="47.47263" lon="6.77562">
        <ele>328</ele>
        <time>2015-08-23T07:49:30.000Z</time>
      </trkpt>
      <trkpt lat="47.4726" lon="6.77562">
        <ele>328</ele>
        <time>2015-08-23T07:49:31.000Z</time>
      </trkpt>
      <trkpt lat="47.47257" lon="6.77563">
        <ele>328</ele>
        <time>2015-08-23T07:49:32.000Z</time>
      </trkpt>
      <trkpt lat="47.47254" lon="6.77563">
        <ele>328</ele>
        <time>2015-08-23T07:49:33.000Z</time>
      </trkpt>
      <trkpt lat="47.47251" lon="6.77562">
        <ele>328</ele>
        <time>2015-08-23T07:49:34.000Z</time>
      </trkpt>
      <trkpt lat="47.47248" lon="6.77562">
        <ele>331</ele>
        <time>2015-08-23T07:49:35.000Z</time>
      </trkpt>
      <trkpt lat="47.47246" lon="6.77562">
        <ele>331</ele>
        <time>2015-08-23T07:49:36.000Z</time>
      </trkpt>
      <trkpt lat="47.47243" lon="6.77562">
        <ele>331</ele>
        <time>2015-08-23T07:49:37.000Z</time>
      </trkpt>
      <trkpt lat="47.4724" lon="6.77562">
        <ele>331</ele>
        <time>2015-08-23T07:49:38.000Z</time>
      </trkpt>
      <trkpt lat="47.47237" lon="6.77562">
        <ele>331</ele>
        <time>2015-08-23T07:49:39.000Z</time>
      </trkpt>
      <trkpt lat="47.47235" lon="6.77562">
        <ele>331</ele>
        <time>2015-08-23T07:49:40.000Z</time>
      </trkpt>
      <trkpt lat="47.47232" lon="6.77562">
        <ele>331</ele>
        <time>2015-08-23T07:49:41.000Z</time>
      </trkpt>
      <trkpt lat="47.47229" lon="6.77562">
        <ele>331</ele>
        <time>2015-08-23T07:49:42.000Z</time>
      </trkpt>
      <trkpt lat="47.47227" lon="6.77562">
        <ele>331</ele>
        <time>2015-08-23T07:49:43.000Z</time>
      </trkpt>
      <trkpt lat="47.47224" lon="6.77562">
        <ele>331</ele>
        <time>2015-08-23T07:49:44.000Z</time>
      </trkpt>
      <trkpt lat="47.47221" lon="6.77562">
        <ele>331</ele>
        <time>2015-08-23T07:49:45.000Z</time>
      </trkpt>
      <trkpt lat="47.47218" lon="6.77562">
        <ele>331</ele>
        <time>2015-08-23T07:49:46.000Z</time>
      </trkpt>
      <trkpt lat="47.47216" lon="6.77562">
        <ele>331</ele>
        <time>2015-08-23T07:49:47.000Z</time>
      </trkpt>
      <trkpt lat="47.47213" lon="6.77562">
        <ele>331</ele>
        <time>2015-08-23T07:49:48.000Z</time>
      </trkpt>
      <trkpt lat="47.4721" lon="6.77561">
        <ele>331</ele>
        <time>2015-08-23T07:49:49.000Z</time>
      </trkpt>
      <trkpt lat="47.47208" lon="6.77561">
        <ele>331</ele>
        <time>2015-08-23T07:49:50.000Z</time>
      </trkpt>
      <trkpt lat="47.47205" lon="6.77562">
        <ele>332</ele>
        <time>2015-08-23T07:49:51.000Z</time>
      </trkpt>
      <trkpt lat="47.47202" lon="6.77562">
        <ele>332</ele>
        <time>2015-08-23T07:49:52.000Z</time>
      </trkpt>
      <trkpt lat="47.47199" lon="6.77562">
        <ele>332</ele>
        <time>2015-08-23T07:49:53.000Z</time>
      </trkpt>
      <trkpt lat="47.47196" lon="6.77562">
        <ele>332</ele>
        <time>2015-08-23T07:49:54.000Z</time>
      </trkpt>
      <trkpt lat="47.47193" lon="6.77561">
        <ele>332</ele>
        <time>2015-08-23T07:49:55.000Z</time>
      </trkpt>
      <trkpt lat="47.4719" lon="6.77561">
        <ele>332</ele>
        <time>2015-08-23T07:49:56.000Z</time>
      </trkpt>
      <trkpt lat="47.47187" lon="6.77561">
        <ele>332</ele>
        <time>2015-08-23T07:49:57.000Z</time>
      </trkpt>
      <trkpt lat="47.47184" lon="6.77561">
        <ele>332</ele>
        <time>2015-08-23T07:49:58.000Z</time>
      </trkpt>
      <trkpt lat="47.47182" lon="6.77561">
        <ele>332</ele>
        <time>2015-08-23T07:49:59.000Z</time>
      </trkpt>
      <trkpt lat="47.47179" lon="6.77561">
        <ele>332</ele>
        <time>2015-08-23T07:50:00.000Z</time>
      </trkpt>
      <trkpt lat="47.47176" lon="6.77561">
        <ele>332</ele>
        <time>2015-08-23T07:50:01.000Z</time>
      </trkpt>
      <trkpt lat="47.47173" lon="6.77561">
        <ele>332</ele>
        <time>2015-08-23T07:50:02.000Z</time>
      </trkpt>
      <trkpt lat="47.47169" lon="6.77561">
        <ele>333</ele>
        <time>2015-08-23T07:50:03.000Z</time>
      </trkpt>
      <trkpt lat="47.47166" lon="6.77563">
        <ele>334</ele>
        <time>2015-08-23T07:50:04.000Z</time>
      </trkpt>
      <trkpt lat="47.47163" lon="6.77566">
        <ele>334</ele>
        <time>2015-08-23T07:50:05.000Z</time>
      </trkpt>
      <trkpt lat="47.4716" lon="6.77569">
        <ele>334</ele>
        <time>2015-08-23T07:50:06.000Z</time>
      </trkpt>
      <trkpt lat="47.47157" lon="6.77574">
        <ele>334</ele>
        <time>2015-08-23T07:50:07.000Z</time>
      </trkpt>
      <trkpt lat="47.47154" lon="6.7758">
        <ele>334</ele>
        <time>2015-08-23T07:50:08.000Z</time>
      </trkpt>
      <trkpt lat="47.47152" lon="6.77591">
        <ele>334</ele>
        <time>2015-08-23T07:50:09.000Z</time>
      </trkpt>
      <trkpt lat="47.47149" lon="6.77596">
        <ele>334</ele>
        <time>2015-08-23T07:50:10.000Z</time>
      </trkpt>
      <trkpt lat="47.47147" lon="6.77601">
        <ele>334</ele>
        <time>2015-08-23T07:50:11.000Z</time>
      </trkpt>
      <trkpt lat="47.47144" lon="6.77607">
        <ele>334</ele>
        <time>2015-08-23T07:50:12.000Z</time>
      </trkpt>
      <trkpt lat="47.47142" lon="6.77613">
        <ele>334</ele>
        <time>2015-08-23T07:50:13.000Z</time>
      </trkpt>
      <trkpt lat="47.4714" lon="6.77618">
        <ele>334</ele>
        <time>2015-08-23T07:50:14.000Z</time>
      </trkpt>
      <trkpt lat="47.47137" lon="6.77623">
        <ele>334</ele>
        <time>2015-08-23T07:50:16.000Z</time>
      </trkpt>
      <trkpt lat="47.47135" lon="6.77626">
        <ele>334</ele>
        <time>2015-08-23T07:50:17.000Z</time>
      </trkpt>
      <trkpt lat="47.47134" lon="6.77629">
        <ele>334</ele>
        <time>2015-08-23T07:50:18.000Z</time>
      </trkpt>
      <trkpt lat="47.47132" lon="6.77632">
        <ele>334</ele>
        <time>2015-08-23T07:50:19.000Z</time>
      </trkpt>
      <trkpt lat="47.4713" lon="6.77635">
        <ele>334</ele>
        <time>2015-08-23T07:50:20.000Z</time>
      </trkpt>
      <trkpt lat="47.47128" lon="6.77638">
        <ele>334</ele>
        <time>2015-08-23T07:50:21.000Z</time>
      </trkpt>
      <trkpt lat="47.47122" lon="6.7765">
        <ele>334</ele>
        <time>2015-08-23T07:50:22.000Z</time>
      </trkpt>
      <trkpt lat="47.4712" lon="6.77659">
        <ele>334</ele>
        <time>2015-08-23T07:50:23.000Z</time>
      </trkpt>
      <trkpt lat="47.47117" lon="6.77663">
        <ele>334</ele>
        <time>2015-08-23T07:50:24.000Z</time>
      </trkpt>
      <trkpt lat="47.4711" lon="6.77656">
        <ele>334</ele>
        <time>2015-08-23T07:50:25.000Z</time>
      </trkpt>
      <trkpt lat="47.47106" lon="6.77655">
        <ele>334</ele>
        <time>2015-08-23T07:50:26.000Z</time>
      </trkpt>
      <trkpt lat="47.47101" lon="6.77653">
        <ele>334</ele>
        <time>2015-08-23T07:50:27.000Z</time>
      </trkpt>
      <trkpt lat="47.47097" lon="6.77648">
        <ele>334</ele>
        <time>2015-08-23T07:50:28.000Z</time>
      </trkpt>
      <trkpt lat="47.47092" lon="6.77644">
        <ele>334</ele>
        <time>2015-08-23T07:50:29.000Z</time>
      </trkpt>
      <trkpt lat="47.47088" lon="6.77639">
        <ele>334</ele>
        <time>2015-08-23T07:50:30.000Z</time>
      </trkpt>
      <trkpt lat="47.47084" lon="6.77635">
        <ele>334</ele>
        <time>2015-08-23T07:50:31.000Z</time>
      </trkpt>
      <trkpt lat="47.4708" lon="6.77631">
        <ele>334</ele>
        <time>2015-08-23T07:50:32.000Z</time>
      </trkpt>
      <trkpt lat="47.47077" lon="6.77626">
        <ele>334</ele>
        <time>2015-08-23T07:50:33.000Z</time>
      </trkpt>
      <trkpt lat="47.47073" lon="6.77621">
        <ele>334</ele>
        <time>2015-08-23T07:50:34.000Z</time>
      </trkpt>
      <trkpt lat="47.47069" lon="6.77616">
        <ele>334</ele>
        <time>2015-08-23T07:50:35.000Z</time>
      </trkpt>
      <trkpt lat="47.47066" lon="6.77611">
        <ele>334</ele>
        <time>2015-08-23T07:50:36.000Z</time>
      </trkpt>
      <trkpt lat="47.47062" lon="6.77606">
        <ele>334</ele>
        <time>2015-08-23T07:50:37.000Z</time>
      </trkpt>
      <trkpt lat="47.47057" lon="6.776">
        <ele>334</ele>
        <time>2015-08-23T07:50:38.000Z</time>
      </trkpt>
      <trkpt lat="47.47053" lon="6.77594">
        <ele>334</ele>
        <time>2015-08-23T07:50:39.000Z</time>
      </trkpt>
      <trkpt lat="47.4705" lon="6.7759">
        <ele>334</ele>
        <time>2015-08-23T07:50:40.000Z</time>
      </trkpt>
      <trkpt lat="47.47047" lon="6.77586">
        <ele>334</ele>
        <time>2015-08-23T07:50:41.000Z</time>
      </trkpt>
      <trkpt lat="47.47044" lon="6.77582">
        <ele>335</ele>
        <time>2015-08-23T07:50:42.000Z</time>
      </trkpt>
      <trkpt lat="47.47041" lon="6.77578">
        <ele>335</ele>
        <time>2015-08-23T07:50:43.000Z</time>
      </trkpt>
      <trkpt lat="47.47038" lon="6.77573">
        <ele>335</ele>
        <time>2015-08-23T07:50:44.000Z</time>
      </trkpt>
      <trkpt lat="47.47035" lon="6.77568">
        <ele>335</ele>
        <time>2015-08-23T07:50:45.000Z</time>
      </trkpt>
      <trkpt lat="47.47032" lon="6.77564">
        <ele>335</ele>
        <time>2015-08-23T07:50:46.000Z</time>
      </trkpt>
      <trkpt lat="47.47029" lon="6.77559">
        <ele>335</ele>
        <time>2015-08-23T07:50:47.000Z</time>
      </trkpt>
      <trkpt lat="47.47026" lon="6.77556">
        <ele>335</ele>
        <time>2015-08-23T07:50:48.000Z</time>
      </trkpt>
      <trkpt lat="47.47024" lon="6.77553">
        <ele>335</ele>
        <time>2015-08-23T07:50:49.000Z</time>
      </trkpt>
      <trkpt lat="47.47021" lon="6.77549">
        <ele>336</ele>
        <time>2015-08-23T07:50:50.000Z</time>
      </trkpt>
      <trkpt lat="47.47018" lon="6.77546">
        <ele>336</ele>
        <time>2015-08-23T07:50:51.000Z</time>
      </trkpt>
      <trkpt lat="47.47016" lon="6.77542">
        <ele>336</ele>
        <time>2015-08-23T07:50:52.000Z</time>
      </trkpt>
      <trkpt lat="47.47013" lon="6.77538">
        <ele>336</ele>
        <time>2015-08-23T07:50:53.000Z</time>
      </trkpt>
      <trkpt lat="47.47011" lon="6.77535">
        <ele>336</ele>
        <time>2015-08-23T07:50:54.000Z</time>
      </trkpt>
      <trkpt lat="47.47008" lon="6.77532">
        <ele>336</ele>
        <time>2015-08-23T07:50:55.000Z</time>
      </trkpt>
      <trkpt lat="47.47005" lon="6.77529">
        <ele>336</ele>
        <time>2015-08-23T07:50:56.000Z</time>
      </trkpt>
      <trkpt lat="47.47002" lon="6.77526">
        <ele>336</ele>
        <time>2015-08-23T07:50:57.000Z</time>
      </trkpt>
      <trkpt lat="47.46999" lon="6.77523">
        <ele>339</ele>
        <time>2015-08-23T07:50:58.000Z</time>
      </trkpt>
      <trkpt lat="47.46996" lon="6.77519">
        <ele>339</ele>
        <time>2015-08-23T07:50:59.000Z</time>
      </trkpt>
      <trkpt lat="47.46994" lon="6.77515">
        <ele>339</ele>
        <time>2015-08-23T07:51:00.000Z</time>
      </trkpt>
      <trkpt lat="47.46991" lon="6.77512">
        <ele>339</ele>
        <time>2015-08-23T07:51:01.000Z</time>
      </trkpt>
      <trkpt lat="47.46989" lon="6.77508">
        <ele>339</ele>
        <time>2015-08-23T07:51:02.000Z</time>
      </trkpt>
      <trkpt lat="47.46987" lon="6.77504">
        <ele>339</ele>
        <time>2015-08-23T07:51:03.000Z</time>
      </trkpt>
      <trkpt lat="47.46985" lon="6.775">
        <ele>339</ele>
        <time>2015-08-23T07:51:04.000Z</time>
      </trkpt>
      <trkpt lat="47.46982" lon="6.77496">
        <ele>340</ele>
        <time>2015-08-23T07:51:05.000Z</time>
      </trkpt>
      <trkpt lat="47.4698" lon="6.77492">
        <ele>340</ele>
        <time>2015-08-23T07:51:06.000Z</time>
      </trkpt>
      <trkpt lat="47.46977" lon="6.77488">
        <ele>340</ele>
        <time>2015-08-23T07:51:07.000Z</time>
      </trkpt>
      <trkpt lat="47.46975" lon="6.77484">
        <ele>340</ele>
        <time>2015-08-23T07:51:08.000Z</time>
      </trkpt>
      <trkpt lat="47.46973" lon="6.7748">
        <ele>340</ele>
        <time>2015-08-23T07:51:09.000Z</time>
      </trkpt>
      <trkpt lat="47.46971" lon="6.77475">
        <ele>340</ele>
        <time>2015-08-23T07:51:10.000Z</time>
      </trkpt>
      <trkpt lat="47.46968" lon="6.77471">
        <ele>341</ele>
        <time>2015-08-23T07:51:11.000Z</time>
      </trkpt>
      <trkpt lat="47.46966" lon="6.77467">
        <ele>341</ele>
        <time>2015-08-23T07:51:12.000Z</time>
      </trkpt>
      <trkpt lat="47.46963" lon="6.77463">
        <ele>341</ele>
        <time>2015-08-23T07:51:13.000Z</time>
      </trkpt>
      <trkpt lat="47.4696" lon="6.77459">
        <ele>341</ele>
        <time>2015-08-23T07:51:14.000Z</time>
      </trkpt>
      <trkpt lat="47.46957" lon="6.77455">
        <ele>341</ele>
        <time>2015-08-23T07:51:15.000Z</time>
      </trkpt>
      <trkpt lat="47.46955" lon="6.77452">
        <ele>341</ele>
        <time>2015-08-23T07:51:16.000Z</time>
      </trkpt>
      <trkpt lat="47.46953" lon="6.77448">
        <ele>341</ele>
        <time>2015-08-23T07:51:17.000Z</time>
      </trkpt>
      <trkpt lat="47.46951" lon="6.77445">
        <ele>341</ele>
        <time>2015-08-23T07:51:18.000Z</time>
      </trkpt>
      <trkpt lat="47.46949" lon="6.77442">
        <ele>341</ele>
        <time>2015-08-23T07:51:19.000Z</time>
      </trkpt>
      <trkpt lat="47.46948" lon="6.77439">
        <ele>341</ele>
        <time>2015-08-23T07:51:20.000Z</time>
      </trkpt>
      <trkpt lat="47.46946" lon="6.77436">
        <ele>342</ele>
        <time>2015-08-23T07:51:21.000Z</time>
      </trkpt>
      <trkpt lat="47.46945" lon="6.77433">
        <ele>342</ele>
        <time>2015-08-23T07:51:22.000Z</time>
      </trkpt>
      <trkpt lat="47.46943" lon="6.77429">
        <ele>342</ele>
        <time>2015-08-23T07:51:23.000Z</time>
      </trkpt>
      <trkpt lat="47.46942" lon="6.77426">
        <ele>342</ele>
        <time>2015-08-23T07:51:24.000Z</time>
      </trkpt>
      <trkpt lat="47.4694" lon="6.77423">
        <ele>342</ele>
        <time>2015-08-23T07:51:25.000Z</time>
      </trkpt>
      <trkpt lat="47.46938" lon="6.77421">
        <ele>342</ele>
        <time>2015-08-23T07:51:26.000Z</time>
      </trkpt>
      <trkpt lat="47.46935" lon="6.7742">
        <ele>342</ele>
        <time>2015-08-23T07:51:27.000Z</time>
      </trkpt>
      <trkpt lat="47.46932" lon="6.77419">
        <ele>343</ele>
        <time>2015-08-23T07:51:28.000Z</time>
      </trkpt>
      <trkpt lat="47.46929" lon="6.7742">
        <ele>343</ele>
        <time>2015-08-23T07:51:29.000Z</time>
      </trkpt>
      <trkpt lat="47.46926" lon="6.77422">
        <ele>343</ele>
        <time>2015-08-23T07:51:30.000Z</time>
      </trkpt>
      <trkpt lat="47.46923" lon="6.77424">
        <ele>343</ele>
        <time>2015-08-23T07:51:31.000Z</time>
      </trkpt>
      <trkpt lat="47.46921" lon="6.77427">
        <ele>343</ele>
        <time>2015-08-23T07:51:32.000Z</time>
      </trkpt>
      <trkpt lat="47.46918" lon="6.77431">
        <ele>343</ele>
        <time>2015-08-23T07:51:33.000Z</time>
      </trkpt>
      <trkpt lat="47.46916" lon="6.77434">
        <ele>346</ele>
        <time>2015-08-23T07:51:34.000Z</time>
      </trkpt>
      <trkpt lat="47.46914" lon="6.77436">
        <ele>346</ele>
        <time>2015-08-23T07:51:35.000Z</time>
      </trkpt>
      <trkpt lat="47.46912" lon="6.77438">
        <ele>346</ele>
        <time>2015-08-23T07:51:36.000Z</time>
      </trkpt>
      <trkpt lat="47.4691" lon="6.7744">
        <ele>346</ele>
        <time>2015-08-23T07:51:37.000Z</time>
      </trkpt>
      <trkpt lat="47.46907" lon="6.77442">
        <ele>346</ele>
        <time>2015-08-23T07:51:38.000Z</time>
      </trkpt>
      <trkpt lat="47.46905" lon="6.77444">
        <ele>346</ele>
        <time>2015-08-23T07:51:39.000Z</time>
      </trkpt>
      <trkpt lat="47.46903" lon="6.77445">
        <ele>347</ele>
        <time>2015-08-23T07:51:40.000Z</time>
      </trkpt>
      <trkpt lat="47.469" lon="6.77446">
        <ele>347</ele>
        <time>2015-08-23T07:51:41.000Z</time>
      </trkpt>
      <trkpt lat="47.46897" lon="6.77447">
        <ele>347</ele>
        <time>2015-08-23T07:51:42.000Z</time>
      </trkpt>
      <trkpt lat="47.46895" lon="6.77447">
        <ele>347</ele>
        <time>2015-08-23T07:51:43.000Z</time>
      </trkpt>
      <trkpt lat="47.46893" lon="6.77448">
        <ele>347</ele>
        <time>2015-08-23T07:51:44.000Z</time>
      </trkpt>
      <trkpt lat="47.4689" lon="6.77448">
        <ele>347</ele>
        <time>2015-08-23T07:51:45.000Z</time>
      </trkpt>
      <trkpt lat="47.46888" lon="6.77447">
        <ele>347</ele>
        <time>2015-08-23T07:51:46.000Z</time>
      </trkpt>
      <trkpt lat="47.46885" lon="6.77447">
        <ele>347</ele>
        <time>2015-08-23T07:51:47.000Z</time>
      </trkpt>
      <trkpt lat="47.46883" lon="6.77446">
        <ele>348</ele>
        <time>2015-08-23T07:51:48.000Z</time>
      </trkpt>
      <trkpt lat="47.4688" lon="6.77445">
        <ele>348</ele>
        <time>2015-08-23T07:51:49.000Z</time>
      </trkpt>
      <trkpt lat="47.46878" lon="6.77444">
        <ele>348</ele>
        <time>2015-08-23T07:51:50.000Z</time>
      </trkpt>
      <trkpt lat="47.46875" lon="6.77444">
        <ele>348</ele>
        <time>2015-08-23T07:51:51.000Z</time>
      </trkpt>
      <trkpt lat="47.46872" lon="6.77443">
        <ele>348</ele>
        <time>2015-08-23T07:51:52.000Z</time>
      </trkpt>
      <trkpt lat="47.46869" lon="6.77442">
        <ele>348</ele>
        <time>2015-08-23T07:51:53.000Z</time>
      </trkpt>
      <trkpt lat="47.46867" lon="6.7744">
        <ele>348</ele>
        <time>2015-08-23T07:51:54.000Z</time>
      </trkpt>
      <trkpt lat="47.46864" lon="6.77439">
        <ele>349</ele>
        <time>2015-08-23T07:51:55.000Z</time>
      </trkpt>
      <trkpt lat="47.46861" lon="6.77438">
        <ele>349</ele>
        <time>2015-08-23T07:51:56.000Z</time>
      </trkpt>
      <trkpt lat="47.46858" lon="6.77437">
        <ele>349</ele>
        <time>2015-08-23T07:51:57.000Z</time>
      </trkpt>
      <trkpt lat="47.46855" lon="6.77435">
        <ele>349</ele>
        <time>2015-08-23T07:51:58.000Z</time>
      </trkpt>
      <trkpt lat="47.46852" lon="6.77433">
        <ele>349</ele>
        <time>2015-08-23T07:51:59.000Z</time>
      </trkpt>
      <trkpt lat="47.46848" lon="6.77432">
        <ele>349</ele>
        <time>2015-08-23T07:52:00.000Z</time>
      </trkpt>
      <trkpt lat="47.46845" lon="6.77431">
        <ele>350</ele>
        <time>2015-08-23T07:52:01.000Z</time>
      </trkpt>
      <trkpt lat="47.46842" lon="6.77432">
        <ele>350</ele>
        <time>2015-08-23T07:52:02.000Z</time>
      </trkpt>
      <trkpt lat="47.46839" lon="6.77433">
        <ele>350</ele>
        <time>2015-08-23T07:52:03.000Z</time>
      </trkpt>
      <trkpt lat="47.46837" lon="6.77435">
        <ele>350</ele>
        <time>2015-08-23T07:52:04.000Z</time>
      </trkpt>
      <trkpt lat="47.46835" lon="6.77437">
        <ele>350</ele>
        <time>2015-08-23T07:52:05.000Z</time>
      </trkpt>
      <trkpt lat="47.46833" lon="6.7744">
        <ele>357</ele>
        <time>2015-08-23T07:52:06.000Z</time>
      </trkpt>
      <trkpt lat="47.46832" lon="6.77443">
        <ele>357</ele>
        <time>2015-08-23T07:52:07.000Z</time>
      </trkpt>
      <trkpt lat="47.46831" lon="6.77447">
        <ele>358</ele>
        <time>2015-08-23T07:52:08.000Z</time>
      </trkpt>
      <trkpt lat="47.4683" lon="6.77451">
        <ele>358</ele>
        <time>2015-08-23T07:52:09.000Z</time>
      </trkpt>
      <trkpt lat="47.4683" lon="6.77455">
        <ele>358</ele>
        <time>2015-08-23T07:52:10.000Z</time>
      </trkpt>
      <trkpt lat="47.4683" lon="6.77459">
        <ele>358</ele>
        <time>2015-08-23T07:52:11.000Z</time>
      </trkpt>
      <trkpt lat="47.46829" lon="6.77464">
        <ele>358</ele>
        <time>2015-08-23T07:52:13.000Z</time>
      </trkpt>
      <trkpt lat="47.46829" lon="6.77466">
        <ele>358</ele>
        <time>2015-08-23T07:52:14.000Z</time>
      </trkpt>
      <trkpt lat="47.46829" lon="6.77472">
        <ele>358</ele>
        <time>2015-08-23T07:52:17.000Z</time>
      </trkpt>
      <trkpt lat="47.46829" lon="6.77473">
        <ele>358</ele>
        <time>2015-08-23T07:52:18.000Z</time>
      </trkpt>
      <trkpt lat="47.46826" lon="6.77477">
        <ele>358</ele>
        <time>2015-08-23T07:52:21.000Z</time>
      </trkpt>
      <trkpt lat="47.46825" lon="6.77479">
        <ele>358</ele>
        <time>2015-08-23T07:52:22.000Z</time>
      </trkpt>
      <trkpt lat="47.46823" lon="6.77483">
        <ele>358</ele>
        <time>2015-08-23T07:52:24.000Z</time>
      </trkpt>
      <trkpt lat="47.46822" lon="6.77486">
        <ele>358</ele>
        <time>2015-08-23T07:52:25.000Z</time>
      </trkpt>
      <trkpt lat="47.4682" lon="6.77491">
        <ele>358</ele>
        <time>2015-08-23T07:52:27.000Z</time>
      </trkpt>
      <trkpt lat="47.4682" lon="6.77493">
        <ele>357</ele>
        <time>2015-08-23T07:52:28.000Z</time>
      </trkpt>
      <trkpt lat="47.46818" lon="6.77498">
        <ele>358</ele>
        <time>2015-08-23T07:52:30.000Z</time>
      </trkpt>
      <trkpt lat="47.46817" lon="6.77501">
        <ele>359</ele>
        <time>2015-08-23T07:52:31.000Z</time>
      </trkpt>
      <trkpt lat="47.46816" lon="6.77506">
        <ele>360</ele>
        <time>2015-08-23T07:52:33.000Z</time>
      </trkpt>
      <trkpt lat="47.46814" lon="6.77508">
        <ele>360</ele>
        <time>2015-08-23T07:52:34.000Z</time>
      </trkpt>
      <trkpt lat="47.46812" lon="6.77513">
        <ele>361</ele>
        <time>2015-08-23T07:52:37.000Z</time>
      </trkpt>
      <trkpt lat="47.46813" lon="6.77516">
        <ele>361</ele>
        <time>2015-08-23T07:52:38.000Z</time>
      </trkpt>
      <trkpt lat="47.46813" lon="6.77521">
        <ele>361</ele>
        <time>2015-08-23T07:52:40.000Z</time>
      </trkpt>
      <trkpt lat="47.46814" lon="6.77524">
        <ele>361</ele>
        <time>2015-08-23T07:52:41.000Z</time>
      </trkpt>
      <trkpt lat="47.46813" lon="6.77531">
        <ele>362</ele>
        <time>2015-08-23T07:52:43.000Z</time>
      </trkpt>
      <trkpt lat="47.46813" lon="6.77534">
        <ele>362</ele>
        <time>2015-08-23T07:52:44.000Z</time>
      </trkpt>
      <trkpt lat="47.46813" lon="6.77538">
        <ele>362</ele>
        <time>2015-08-23T07:52:45.000Z</time>
      </trkpt>
      <trkpt lat="47.46812" lon="6.77542">
        <ele>362</ele>
        <time>2015-08-23T07:52:46.000Z</time>
      </trkpt>
      <trkpt lat="47.46812" lon="6.77546">
        <ele>362</ele>
        <time>2015-08-23T07:52:47.000Z</time>
      </trkpt>
      <trkpt lat="47.46811" lon="6.7755">
        <ele>362</ele>
        <time>2015-08-23T07:52:48.000Z</time>
      </trkpt>
      <trkpt lat="47.4681" lon="6.77554">
        <ele>362</ele>
        <time>2015-08-23T07:52:49.000Z</time>
      </trkpt>
      <trkpt lat="47.46809" lon="6.77558">
        <ele>362</ele>
        <time>2015-08-23T07:52:50.000Z</time>
      </trkpt>
      <trkpt lat="47.46809" lon="6.77563">
        <ele>362</ele>
        <time>2015-08-23T07:52:51.000Z</time>
      </trkpt>
      <trkpt lat="47.46808" lon="6.77567">
        <ele>362</ele>
        <time>2015-08-23T07:52:52.000Z</time>
      </trkpt>
      <trkpt lat="47.46806" lon="6.77571">
        <ele>363</ele>
        <time>2015-08-23T07:52:53.000Z</time>
      </trkpt>
      <trkpt lat="47.46805" lon="6.77575">
        <ele>363</ele>
        <time>2015-08-23T07:52:54.000Z</time>
      </trkpt>
      <trkpt lat="47.46804" lon="6.77579">
        <ele>363</ele>
        <time>2015-08-23T07:52:55.000Z</time>
      </trkpt>
      <trkpt lat="47.46802" lon="6.77583">
        <ele>363</ele>
        <time>2015-08-23T07:52:56.000Z</time>
      </trkpt>
      <trkpt lat="47.46801" lon="6.77586">
        <ele>365</ele>
        <time>2015-08-23T07:52:57.000Z</time>
      </trkpt>
      <trkpt lat="47.468" lon="6.77589">
        <ele>365</ele>
        <time>2015-08-23T07:52:58.000Z</time>
      </trkpt>
      <trkpt lat="47.46799" lon="6.77593">
        <ele>366</ele>
        <time>2015-08-23T07:52:59.000Z</time>
      </trkpt>
      <trkpt lat="47.46797" lon="6.77596">
        <ele>366</ele>
        <time>2015-08-23T07:53:00.000Z</time>
      </trkpt>
      <trkpt lat="47.46796" lon="6.77599">
        <ele>366</ele>
        <time>2015-08-23T07:53:01.000Z</time>
      </trkpt>
      <trkpt lat="47.46795" lon="6.77602">
        <ele>366</ele>
        <time>2015-08-23T07:53:02.000Z</time>
      </trkpt>
      <trkpt lat="47.46794" lon="6.77607">
        <ele>367</ele>
        <time>2015-08-23T07:53:04.000Z</time>
      </trkpt>
      <trkpt lat="47.46793" lon="6.7761">
        <ele>367</ele>
        <time>2015-08-23T07:53:05.000Z</time>
      </trkpt>
      <trkpt lat="47.46792" lon="6.77614">
        <ele>367</ele>
        <time>2015-08-23T07:53:07.000Z</time>
      </trkpt>
      <trkpt lat="47.46791" lon="6.77617">
        <ele>367</ele>
        <time>2015-08-23T07:53:08.000Z</time>
      </trkpt>
      <trkpt lat="47.4679" lon="6.7762">
        <ele>367</ele>
        <time>2015-08-23T07:53:09.000Z</time>
      </trkpt>
      <trkpt lat="47.46789" lon="6.77624">
        <ele>368</ele>
        <time>2015-08-23T07:53:10.000Z</time>
      </trkpt>
      <trkpt lat="47.46787" lon="6.77627">
        <ele>368</ele>
        <time>2015-08-23T07:53:11.000Z</time>
      </trkpt>
      <trkpt lat="47.46786" lon="6.77631">
        <ele>368</ele>
        <time>2015-08-23T07:53:12.000Z</time>
      </trkpt>
      <trkpt lat="47.46785" lon="6.77634">
        <ele>368</ele>
        <time>2015-08-23T07:53:13.000Z</time>
      </trkpt>
      <trkpt lat="47.46784" lon="6.77638">
        <ele>369</ele>
        <time>2015-08-23T07:53:14.000Z</time>
      </trkpt>
      <trkpt lat="47.46783" lon="6.77641">
        <ele>369</ele>
        <time>2015-08-23T07:53:15.000Z</time>
      </trkpt>
      <trkpt lat="47.46783" lon="6.77645">
        <ele>369</ele>
        <time>2015-08-23T07:53:16.000Z</time>
      </trkpt>
      <trkpt lat="47.46782" lon="6.77648">
        <ele>369</ele>
        <time>2015-08-23T07:53:17.000Z</time>
      </trkpt>
      <trkpt lat="47.46781" lon="6.77651">
        <ele>369</ele>
        <time>2015-08-23T07:53:18.000Z</time>
      </trkpt>
      <trkpt lat="47.4678" lon="6.77655">
        <ele>370</ele>
        <time>2015-08-23T07:53:19.000Z</time>
      </trkpt>
      <trkpt lat="47.46779" lon="6.77659">
        <ele>370</ele>
        <time>2015-08-23T07:53:20.000Z</time>
      </trkpt>
      <trkpt lat="47.46779" lon="6.77665">
        <ele>370</ele>
        <time>2015-08-23T07:53:21.000Z</time>
      </trkpt>
      <trkpt lat="47.46778" lon="6.77669">
        <ele>370</ele>
        <time>2015-08-23T07:53:22.000Z</time>
      </trkpt>
      <trkpt lat="47.46778" lon="6.77674">
        <ele>370</ele>
        <time>2015-08-23T07:53:23.000Z</time>
      </trkpt>
      <trkpt lat="47.46778" lon="6.77679">
        <ele>370</ele>
        <time>2015-08-23T07:53:24.000Z</time>
      </trkpt>
      <trkpt lat="47.46777" lon="6.77683">
        <ele>370</ele>
        <time>2015-08-23T07:53:25.000Z</time>
      </trkpt>
      <trkpt lat="47.46777" lon="6.77688">
        <ele>369</ele>
        <time>2015-08-23T07:53:26.000Z</time>
      </trkpt>
      <trkpt lat="47.46776" lon="6.77694">
        <ele>369</ele>
        <time>2015-08-23T07:53:27.000Z</time>
      </trkpt>
      <trkpt lat="47.46776" lon="6.777">
        <ele>369</ele>
        <time>2015-08-23T07:53:28.000Z</time>
      </trkpt>
      <trkpt lat="47.46776" lon="6.77707">
        <ele>369</ele>
        <time>2015-08-23T07:53:29.000Z</time>
      </trkpt>
      <trkpt lat="47.46775" lon="6.77714">
        <ele>369</ele>
        <time>2015-08-23T07:53:30.000Z</time>
      </trkpt>
      <trkpt lat="47.46774" lon="6.77721">
        <ele>369</ele>
        <time>2015-08-23T07:53:31.000Z</time>
      </trkpt>
      <trkpt lat="47.46773" lon="6.77728">
        <ele>369</ele>
        <time>2015-08-23T07:53:32.000Z</time>
      </trkpt>
      <trkpt lat="47.46772" lon="6.77736">
        <ele>370</ele>
        <time>2015-08-23T07:53:33.000Z</time>
      </trkpt>
      <trkpt lat="47.46772" lon="6.77744">
        <ele>370</ele>
        <time>2015-08-23T07:53:34.000Z</time>
      </trkpt>
      <trkpt lat="47.46771" lon="6.77752">
        <ele>367</ele>
        <time>2015-08-23T07:53:35.000Z</time>
      </trkpt>
      <trkpt lat="47.46771" lon="6.7776">
        <ele>367</ele>
        <time>2015-08-23T07:53:36.000Z</time>
      </trkpt>
      <trkpt lat="47.46771" lon="6.77768">
        <ele>366</ele>
        <time>2015-08-23T07:53:37.000Z</time>
      </trkpt>
      <trkpt lat="47.46769" lon="6.77775">
        <ele>365</ele>
        <time>2015-08-23T07:53:38.000Z</time>
      </trkpt>
      <trkpt lat="47.46768" lon="6.77784">
        <ele>365</ele>
        <time>2015-08-23T07:53:39.000Z</time>
      </trkpt>
      <trkpt lat="47.46766" lon="6.77793">
        <ele>364</ele>
        <time>2015-08-23T07:53:40.000Z</time>
      </trkpt>
      <trkpt lat="47.46762" lon="6.77816">
        <ele>365</ele>
        <time>2015-08-23T07:53:41.000Z</time>
      </trkpt>
      <trkpt lat="47.46759" lon="6.77825">
        <ele>366</ele>
        <time>2015-08-23T07:53:42.000Z</time>
      </trkpt>
      <trkpt lat="47.46757" lon="6.77835">
        <ele>365</ele>
        <time>2015-08-23T07:53:43.000Z</time>
      </trkpt>
      <trkpt lat="47.46754" lon="6.77845">
        <ele>363</ele>
        <time>2015-08-23T07:53:44.000Z</time>
      </trkpt>
      <trkpt lat="47.46752" lon="6.77853">
        <ele>361</ele>
        <time>2015-08-23T07:53:45.000Z</time>
      </trkpt>
      <trkpt lat="47.46749" lon="6.77859">
        <ele>374</ele>
        <time>2015-08-23T07:53:46.000Z</time>
      </trkpt>
      <trkpt lat="47.46745" lon="6.77863">
        <ele>374</ele>
        <time>2015-08-23T07:53:47.000Z</time>
      </trkpt>
      <trkpt lat="47.46743" lon="6.77867">
        <ele>374</ele>
        <time>2015-08-23T07:53:48.000Z</time>
      </trkpt>
      <trkpt lat="47.46739" lon="6.77877">
        <ele>374</ele>
        <time>2015-08-23T07:53:49.000Z</time>
      </trkpt>
      <trkpt lat="47.46735" lon="6.77884">
        <ele>374</ele>
        <time>2015-08-23T07:53:50.000Z</time>
      </trkpt>
      <trkpt lat="47.46732" lon="6.7789">
        <ele>374</ele>
        <time>2015-08-23T07:53:51.000Z</time>
      </trkpt>
      <trkpt lat="47.4673" lon="6.77896">
        <ele>373</ele>
        <time>2015-08-23T07:53:52.000Z</time>
      </trkpt>
      <trkpt lat="47.46727" lon="6.77902">
        <ele>373</ele>
        <time>2015-08-23T07:53:53.000Z</time>
      </trkpt>
      <trkpt lat="47.46724" lon="6.77913">
        <ele>373</ele>
        <time>2015-08-23T07:53:54.000Z</time>
      </trkpt>
      <trkpt lat="47.46723" lon="6.77919">
        <ele>369</ele>
        <time>2015-08-23T07:53:55.000Z</time>
      </trkpt>
      <trkpt lat="47.46722" lon="6.77921">
        <ele>369</ele>
        <time>2015-08-23T07:53:56.000Z</time>
      </trkpt>
      <trkpt lat="47.46722" lon="6.77925">
        <ele>369</ele>
        <time>2015-08-23T07:53:58.000Z</time>
      </trkpt>
      <trkpt lat="47.46721" lon="6.77927">
        <ele>369</ele>
        <time>2015-08-23T07:53:59.000Z</time>
      </trkpt>
      <trkpt lat="47.4672" lon="6.77934">
        <ele>370</ele>
        <time>2015-08-23T07:54:51.000Z</time>
      </trkpt>
      <trkpt lat="47.46721" lon="6.77934">
        <ele>369</ele>
        <time>2015-08-23T07:54:52.000Z</time>
      </trkpt>
      <trkpt lat="47.46718" lon="6.77938">
        <ele>370</ele>
        <time>2015-08-23T07:59:49.000Z</time>
      </trkpt>
      <trkpt lat="47.46718" lon="6.77939">
        <ele>370</ele>
        <time>2015-08-23T07:59:50.000Z</time>
      </trkpt>
      <trkpt lat="47.46716" lon="6.77944">
        <ele>370</ele>
        <time>2015-08-23T07:59:53.000Z</time>
      </trkpt>
      <trkpt lat="47.46715" lon="6.77946">
        <ele>370</ele>
        <time>2015-08-23T07:59:54.000Z</time>
      </trkpt>
      <trkpt lat="47.46714" lon="6.77949">
        <ele>370</ele>
        <time>2015-08-23T07:59:55.000Z</time>
      </trkpt>
      <trkpt lat="47.46712" lon="6.77952">
        <ele>370</ele>
        <time>2015-08-23T07:59:56.000Z</time>
      </trkpt>
      <trkpt lat="47.46711" lon="6.77956">
        <ele>370</ele>
        <time>2015-08-23T07:59:57.000Z</time>
      </trkpt>
      <trkpt lat="47.46709" lon="6.77959">
        <ele>371</ele>
        <time>2015-08-23T07:59:58.000Z</time>
      </trkpt>
      <trkpt lat="47.46708" lon="6.77962">
        <ele>371</ele>
        <time>2015-08-23T07:59:59.000Z</time>
      </trkpt>
      <trkpt lat="47.46707" lon="6.77966">
        <ele>371</ele>
        <time>2015-08-23T08:00:00.000Z</time>
      </trkpt>
      <trkpt lat="47.46706" lon="6.77971">
        <ele>371</ele>
        <time>2015-08-23T08:00:01.000Z</time>
      </trkpt>
      <trkpt lat="47.46705" lon="6.77976">
        <ele>370</ele>
        <time>2015-08-23T08:00:02.000Z</time>
      </trkpt>
      <trkpt lat="47.46705" lon="6.77983">
        <ele>370</ele>
        <time>2015-08-23T08:00:03.000Z</time>
      </trkpt>
      <trkpt lat="47.46705" lon="6.7799">
        <ele>370</ele>
        <time>2015-08-23T08:00:04.000Z</time>
      </trkpt>
      <trkpt lat="47.46704" lon="6.77997">
        <ele>370</ele>
        <time>2015-08-23T08:00:05.000Z</time>
      </trkpt>
      <trkpt lat="47.46704" lon="6.78004">
        <ele>365</ele>
        <time>2015-08-23T08:00:06.000Z</time>
      </trkpt>
      <trkpt lat="47.46703" lon="6.7801">
        <ele>365</ele>
        <time>2015-08-23T08:00:07.000Z</time>
      </trkpt>
      <trkpt lat="47.46702" lon="6.78016">
        <ele>365</ele>
        <time>2015-08-23T08:00:08.000Z</time>
      </trkpt>
      <trkpt lat="47.46701" lon="6.78022">
        <ele>365</ele>
        <time>2015-08-23T08:00:09.000Z</time>
      </trkpt>
      <trkpt lat="47.46699" lon="6.78027">
        <ele>364</ele>
        <time>2015-08-23T08:00:10.000Z</time>
      </trkpt>
      <trkpt lat="47.46697" lon="6.78032">
        <ele>364</ele>
        <time>2015-08-23T08:00:11.000Z</time>
      </trkpt>
      <trkpt lat="47.46695" lon="6.78036">
        <ele>364</ele>
        <time>2015-08-23T08:00:12.000Z</time>
      </trkpt>
      <trkpt lat="47.46692" lon="6.7804">
        <ele>364</ele>
        <time>2015-08-23T08:00:13.000Z</time>
      </trkpt>
      <trkpt lat="47.46689" lon="6.78044">
        <ele>364</ele>
        <time>2015-08-23T08:00:14.000Z</time>
      </trkpt>
      <trkpt lat="47.46687" lon="6.7805">
        <ele>364</ele>
        <time>2015-08-23T08:00:15.000Z</time>
      </trkpt>
      <trkpt lat="47.46684" lon="6.78056">
        <ele>364</ele>
        <time>2015-08-23T08:00:16.000Z</time>
      </trkpt>
      <trkpt lat="47.46682" lon="6.78075">
        <ele>363</ele>
        <time>2015-08-23T08:00:17.000Z</time>
      </trkpt>
      <trkpt lat="47.46679" lon="6.78082">
        <ele>363</ele>
        <time>2015-08-23T08:00:18.000Z</time>
      </trkpt>
      <trkpt lat="47.46675" lon="6.78089">
        <ele>362</ele>
        <time>2015-08-23T08:00:19.000Z</time>
      </trkpt>
      <trkpt lat="47.46671" lon="6.78099">
        <ele>362</ele>
        <time>2015-08-23T08:00:20.000Z</time>
      </trkpt>
      <trkpt lat="47.46667" lon="6.78107">
        <ele>361</ele>
        <time>2015-08-23T08:00:21.000Z</time>
      </trkpt>
      <trkpt lat="47.46664" lon="6.7811">
        <ele>368</ele>
        <time>2015-08-23T08:00:22.000Z</time>
      </trkpt>
      <trkpt lat="47.46661" lon="6.78114">
        <ele>368</ele>
        <time>2015-08-23T08:00:23.000Z</time>
      </trkpt>
      <trkpt lat="47.46659" lon="6.78116">
        <ele>368</ele>
        <time>2015-08-23T08:00:24.000Z</time>
      </trkpt>
      <trkpt lat="47.46658" lon="6.78123">
        <ele>368</ele>
        <time>2015-08-23T08:00:25.000Z</time>
      </trkpt>
      <trkpt lat="47.46656" lon="6.78127">
        <ele>368</ele>
        <time>2015-08-23T08:00:26.000Z</time>
      </trkpt>
      <trkpt lat="47.46654" lon="6.7813">
        <ele>368</ele>
        <time>2015-08-23T08:00:27.000Z</time>
      </trkpt>
      <trkpt lat="47.46652" lon="6.78133">
        <ele>367</ele>
        <time>2015-08-23T08:00:28.000Z</time>
      </trkpt>
      <trkpt lat="47.46651" lon="6.78136">
        <ele>367</ele>
        <time>2015-08-23T08:00:29.000Z</time>
      </trkpt>
      <trkpt lat="47.46648" lon="6.7814">
        <ele>367</ele>
        <time>2015-08-23T08:00:30.000Z</time>
      </trkpt>
      <trkpt lat="47.46646" lon="6.78144">
        <ele>367</ele>
        <time>2015-08-23T08:00:31.000Z</time>
      </trkpt>
      <trkpt lat="47.46644" lon="6.78148">
        <ele>367</ele>
        <time>2015-08-23T08:00:32.000Z</time>
      </trkpt>
      <trkpt lat="47.46642" lon="6.78152">
        <ele>367</ele>
        <time>2015-08-23T08:00:33.000Z</time>
      </trkpt>
      <trkpt lat="47.46641" lon="6.78157">
        <ele>367</ele>
        <time>2015-08-23T08:00:34.000Z</time>
      </trkpt>
      <trkpt lat="47.46639" lon="6.78162">
        <ele>367</ele>
        <time>2015-08-23T08:00:35.000Z</time>
      </trkpt>
      <trkpt lat="47.46638" lon="6.78166">
        <ele>367</ele>
        <time>2015-08-23T08:00:36.000Z</time>
      </trkpt>
      <trkpt lat="47.46637" lon="6.7817">
        <ele>364</ele>
        <time>2015-08-23T08:00:37.000Z</time>
      </trkpt>
      <trkpt lat="47.46636" lon="6.78174">
        <ele>364</ele>
        <time>2015-08-23T08:00:38.000Z</time>
      </trkpt>
      <trkpt lat="47.46635" lon="6.78178">
        <ele>364</ele>
        <time>2015-08-23T08:00:39.000Z</time>
      </trkpt>
      <trkpt lat="47.46634" lon="6.78182">
        <ele>364</ele>
        <time>2015-08-23T08:00:40.000Z</time>
      </trkpt>
      <trkpt lat="47.46634" lon="6.78186">
        <ele>364</ele>
        <time>2015-08-23T08:00:41.000Z</time>
      </trkpt>
      <trkpt lat="47.46633" lon="6.7819">
        <ele>364</ele>
        <time>2015-08-23T08:00:42.000Z</time>
      </trkpt>
      <trkpt lat="47.46632" lon="6.78195">
        <ele>365</ele>
        <time>2015-08-23T08:00:43.000Z</time>
      </trkpt>
      <trkpt lat="47.46631" lon="6.78199">
        <ele>365</ele>
        <time>2015-08-23T08:00:44.000Z</time>
      </trkpt>
      <trkpt lat="47.4663" lon="6.78204">
        <ele>365</ele>
        <time>2015-08-23T08:00:45.000Z</time>
      </trkpt>
      <trkpt lat="47.46629" lon="6.78209">
        <ele>365</ele>
        <time>2015-08-23T08:00:46.000Z</time>
      </trkpt>
      <trkpt lat="47.46628" lon="6.78214">
        <ele>365</ele>
        <time>2015-08-23T08:00:47.000Z</time>
      </trkpt>
      <trkpt lat="47.46627" lon="6.78218">
        <ele>365</ele>
        <time>2015-08-23T08:00:48.000Z</time>
      </trkpt>
      <trkpt lat="47.46626" lon="6.78222">
        <ele>365</ele>
        <time>2015-08-23T08:00:49.000Z</time>
      </trkpt>
      <trkpt lat="47.46626" lon="6.78226">
        <ele>365</ele>
        <time>2015-08-23T08:00:50.000Z</time>
      </trkpt>
      <trkpt lat="47.46624" lon="6.78229">
        <ele>365</ele>
        <time>2015-08-23T08:00:51.000Z</time>
      </trkpt>
      <trkpt lat="47.46624" lon="6.78232">
        <ele>365</ele>
        <time>2015-08-23T08:00:52.000Z</time>
      </trkpt>
      <trkpt lat="47.46623" lon="6.78236">
        <ele>365</ele>
        <time>2015-08-23T08:00:53.000Z</time>
      </trkpt>
      <trkpt lat="47.46623" lon="6.78239">
        <ele>365</ele>
        <time>2015-08-23T08:00:54.000Z</time>
      </trkpt>
      <trkpt lat="47.46622" lon="6.78242">
        <ele>366</ele>
        <time>2015-08-23T08:00:55.000Z</time>
      </trkpt>
      <trkpt lat="47.46622" lon="6.78246">
        <ele>366</ele>
        <time>2015-08-23T08:00:56.000Z</time>
      </trkpt>
      <trkpt lat="47.46621" lon="6.7825">
        <ele>366</ele>
        <time>2015-08-23T08:00:57.000Z</time>
      </trkpt>
      <trkpt lat="47.4662" lon="6.78254">
        <ele>369</ele>
        <time>2015-08-23T08:00:58.000Z</time>
      </trkpt>
      <trkpt lat="47.46619" lon="6.78258">
        <ele>370</ele>
        <time>2015-08-23T08:00:59.000Z</time>
      </trkpt>
      <trkpt lat="47.46618" lon="6.78262">
        <ele>370</ele>
        <time>2015-08-23T08:01:00.000Z</time>
      </trkpt>
      <trkpt lat="47.46617" lon="6.78265">
        <ele>370</ele>
        <time>2015-08-23T08:01:01.000Z</time>
      </trkpt>
      <trkpt lat="47.46613" lon="6.78268">
        <ele>370</ele>
        <time>2015-08-23T08:01:03.000Z</time>
      </trkpt>
      <trkpt lat="47.46611" lon="6.78269">
        <ele>370</ele>
        <time>2015-08-23T08:01:04.000Z</time>
      </trkpt>
      <trkpt lat="47.46606" lon="6.78269">
        <ele>370</ele>
        <time>2015-08-23T08:01:06.000Z</time>
      </trkpt>
      <trkpt lat="47.46604" lon="6.78269">
        <ele>370</ele>
        <time>2015-08-23T08:01:07.000Z</time>
      </trkpt>
      <trkpt lat="47.466" lon="6.78269">
        <ele>370</ele>
        <time>2015-08-23T08:01:09.000Z</time>
      </trkpt>
      <trkpt lat="47.46598" lon="6.78269">
        <ele>370</ele>
        <time>2015-08-23T08:01:10.000Z</time>
      </trkpt>
      <trkpt lat="47.46595" lon="6.78269">
        <ele>371</ele>
        <time>2015-08-23T08:01:11.000Z</time>
      </trkpt>
      <trkpt lat="47.46593" lon="6.78269">
        <ele>371</ele>
        <time>2015-08-23T08:01:12.000Z</time>
      </trkpt>
      <trkpt lat="47.4659" lon="6.7827">
        <ele>371</ele>
        <time>2015-08-23T08:01:13.000Z</time>
      </trkpt>
      <trkpt lat="47.46588" lon="6.7827">
        <ele>371</ele>
        <time>2015-08-23T08:01:14.000Z</time>
      </trkpt>
      <trkpt lat="47.46584" lon="6.78269">
        <ele>371</ele>
        <time>2015-08-23T08:01:16.000Z</time>
      </trkpt>
      <trkpt lat="47.46583" lon="6.78268">
        <ele>374</ele>
        <time>2015-08-23T08:01:17.000Z</time>
      </trkpt>
      <trkpt lat="47.4658" lon="6.78267">
        <ele>374</ele>
        <time>2015-08-23T08:01:19.000Z</time>
      </trkpt>
      <trkpt lat="47.46578" lon="6.78268">
        <ele>374</ele>
        <time>2015-08-23T08:01:20.000Z</time>
      </trkpt>
      <trkpt lat="47.46574" lon="6.7827">
        <ele>374</ele>
        <time>2015-08-23T08:01:22.000Z</time>
      </trkpt>
      <trkpt lat="47.46572" lon="6.7827">
        <ele>375</ele>
        <time>2015-08-23T08:01:23.000Z</time>
      </trkpt>
      <trkpt lat="47.46567" lon="6.78271">
        <ele>375</ele>
        <time>2015-08-23T08:01:25.000Z</time>
      </trkpt>
      <trkpt lat="47.46565" lon="6.78271">
        <ele>375</ele>
        <time>2015-08-23T08:01:26.000Z</time>
      </trkpt>
      <trkpt lat="47.46563" lon="6.78272">
        <ele>376</ele>
        <time>2015-08-23T08:01:27.000Z</time>
      </trkpt>
      <trkpt lat="47.4656" lon="6.78272">
        <ele>376</ele>
        <time>2015-08-23T08:01:28.000Z</time>
      </trkpt>
      <trkpt lat="47.46558" lon="6.78272">
        <ele>376</ele>
        <time>2015-08-23T08:01:29.000Z</time>
      </trkpt>
      <trkpt lat="47.46556" lon="6.78272">
        <ele>376</ele>
        <time>2015-08-23T08:01:30.000Z</time>
      </trkpt>
      <trkpt lat="47.46553" lon="6.78272">
        <ele>376</ele>
        <time>2015-08-23T08:01:31.000Z</time>
      </trkpt>
      <trkpt lat="47.46551" lon="6.78271">
        <ele>376</ele>
        <time>2015-08-23T08:01:32.000Z</time>
      </trkpt>
      <trkpt lat="47.46548" lon="6.78271">
        <ele>377</ele>
        <time>2015-08-23T08:01:33.000Z</time>
      </trkpt>
      <trkpt lat="47.46546" lon="6.7827">
        <ele>377</ele>
        <time>2015-08-23T08:01:34.000Z</time>
      </trkpt>
      <trkpt lat="47.46543" lon="6.78269">
        <ele>377</ele>
        <time>2015-08-23T08:01:35.000Z</time>
      </trkpt>
      <trkpt lat="47.4654" lon="6.78269">
        <ele>377</ele>
        <time>2015-08-23T08:01:36.000Z</time>
      </trkpt>
      <trkpt lat="47.46537" lon="6.78268">
        <ele>377</ele>
        <time>2015-08-23T08:01:37.000Z</time>
      </trkpt>
      <trkpt lat="47.46533" lon="6.78267">
        <ele>377</ele>
        <time>2015-08-23T08:01:38.000Z</time>
      </trkpt>
      <trkpt lat="47.4653" lon="6.78267">
        <ele>377</ele>
        <time>2015-08-23T08:01:39.000Z</time>
      </trkpt>
      <trkpt lat="47.46527" lon="6.78267">
        <ele>377</ele>
        <time>2015-08-23T08:01:40.000Z</time>
      </trkpt>
      <trkpt lat="47.46524" lon="6.78267">
        <ele>378</ele>
        <time>2015-08-23T08:01:41.000Z</time>
      </trkpt>
      <trkpt lat="47.46521" lon="6.78267">
        <ele>378</ele>
        <time>2015-08-23T08:01:42.000Z</time>
      </trkpt>
      <trkpt lat="47.46519" lon="6.78266">
        <ele>378</ele>
        <time>2015-08-23T08:01:43.000Z</time>
      </trkpt>
      <trkpt lat="47.46516" lon="6.78266">
        <ele>378</ele>
        <time>2015-08-23T08:01:44.000Z</time>
      </trkpt>
      <trkpt lat="47.46513" lon="6.78265">
        <ele>378</ele>
        <time>2015-08-23T08:01:45.000Z</time>
      </trkpt>
      <trkpt lat="47.4651" lon="6.78264">
        <ele>378</ele>
        <time>2015-08-23T08:01:46.000Z</time>
      </trkpt>
      <trkpt lat="47.46508" lon="6.78263">
        <ele>378</ele>
        <time>2015-08-23T08:01:47.000Z</time>
      </trkpt>
      <trkpt lat="47.46505" lon="6.78263">
        <ele>378</ele>
        <time>2015-08-23T08:01:48.000Z</time>
      </trkpt>
      <trkpt lat="47.46502" lon="6.78262">
        <ele>378</ele>
        <time>2015-08-23T08:01:49.000Z</time>
      </trkpt>
      <trkpt lat="47.46499" lon="6.78262">
        <ele>379</ele>
        <time>2015-08-23T08:01:50.000Z</time>
      </trkpt>
      <trkpt lat="47.46497" lon="6.78262">
        <ele>379</ele>
        <time>2015-08-23T08:01:51.000Z</time>
      </trkpt>
      <trkpt lat="47.46494" lon="6.78263">
        <ele>380</ele>
        <time>2015-08-23T08:01:52.000Z</time>
      </trkpt>
      <trkpt lat="47.46492" lon="6.78263">
        <ele>380</ele>
        <time>2015-08-23T08:01:53.000Z</time>
      </trkpt>
      <trkpt lat="47.4649" lon="6.78265">
        <ele>380</ele>
        <time>2015-08-23T08:01:54.000Z</time>
      </trkpt>
      <trkpt lat="47.46488" lon="6.78268">
        <ele>381</ele>
        <time>2015-08-23T08:01:55.000Z</time>
      </trkpt>
      <trkpt lat="47.46487" lon="6.78271">
        <ele>381</ele>
        <time>2015-08-23T08:01:56.000Z</time>
      </trkpt>
      <trkpt lat="47.46485" lon="6.78276">
        <ele>381</ele>
        <time>2015-08-23T08:01:58.000Z</time>
      </trkpt>
      <trkpt lat="47.46483" lon="6.78278">
        <ele>382</ele>
        <time>2015-08-23T08:01:59.000Z</time>
      </trkpt>
      <trkpt lat="47.46481" lon="6.78279">
        <ele>382</ele>
        <time>2015-08-23T08:02:00.000Z</time>
      </trkpt>
      <trkpt lat="47.46479" lon="6.7828">
        <ele>382</ele>
        <time>2015-08-23T08:02:01.000Z</time>
      </trkpt>
      <trkpt lat="47.46474" lon="6.7828">
        <ele>382</ele>
        <time>2015-08-23T08:02:03.000Z</time>
      </trkpt>
      <trkpt lat="47.46472" lon="6.7828">
        <ele>382</ele>
        <time>2015-08-23T08:02:04.000Z</time>
      </trkpt>
      <trkpt lat="47.4647" lon="6.78278">
        <ele>382</ele>
        <time>2015-08-23T08:02:05.000Z</time>
      </trkpt>
      <trkpt lat="47.46468" lon="6.78277">
        <ele>382</ele>
        <time>2015-08-23T08:02:06.000Z</time>
      </trkpt>
      <trkpt lat="47.46466" lon="6.78276">
        <ele>382</ele>
        <time>2015-08-23T08:02:07.000Z</time>
      </trkpt>
      <trkpt lat="47.46463" lon="6.78274">
        <ele>382</ele>
        <time>2015-08-23T08:02:08.000Z</time>
      </trkpt>
      <trkpt lat="47.46459" lon="6.78273">
        <ele>382</ele>
        <time>2015-08-23T08:02:10.000Z</time>
      </trkpt>
      <trkpt lat="47.46457" lon="6.78272">
        <ele>382</ele>
        <time>2015-08-23T08:02:11.000Z</time>
      </trkpt>
      <trkpt lat="47.46453" lon="6.78272">
        <ele>382</ele>
        <time>2015-08-23T08:02:13.000Z</time>
      </trkpt>
      <trkpt lat="47.46451" lon="6.78271">
        <ele>382</ele>
        <time>2015-08-23T08:02:14.000Z</time>
      </trkpt>
      <trkpt lat="47.46449" lon="6.7827">
        <ele>382</ele>
        <time>2015-08-23T08:02:15.000Z</time>
      </trkpt>
      <trkpt lat="47.46446" lon="6.78269">
        <ele>382</ele>
        <time>2015-08-23T08:02:16.000Z</time>
      </trkpt>
      <trkpt lat="47.46444" lon="6.78268">
        <ele>382</ele>
        <time>2015-08-23T08:02:17.000Z</time>
      </trkpt>
      <trkpt lat="47.46442" lon="6.78267">
        <ele>382</ele>
        <time>2015-08-23T08:02:18.000Z</time>
      </trkpt>
      <trkpt lat="47.46439" lon="6.78267">
        <ele>382</ele>
        <time>2015-08-23T08:02:19.000Z</time>
      </trkpt>
      <trkpt lat="47.46437" lon="6.78266">
        <ele>382</ele>
        <time>2015-08-23T08:02:20.000Z</time>
      </trkpt>
      <trkpt lat="47.46433" lon="6.78267">
        <ele>382</ele>
        <time>2015-08-23T08:02:22.000Z</time>
      </trkpt>
      <trkpt lat="47.46432" lon="6.78267">
        <ele>382</ele>
        <time>2015-08-23T08:02:23.000Z</time>
      </trkpt>
      <trkpt lat="47.46429" lon="6.78267">
        <ele>382</ele>
        <time>2015-08-23T08:02:24.000Z</time>
      </trkpt>
      <trkpt lat="47.46427" lon="6.78267">
        <ele>382</ele>
        <time>2015-08-23T08:02:25.000Z</time>
      </trkpt>
      <trkpt lat="47.46424" lon="6.78267">
        <ele>382</ele>
        <time>2015-08-23T08:02:26.000Z</time>
      </trkpt>
      <trkpt lat="47.46422" lon="6.78267">
        <ele>382</ele>
        <time>2015-08-23T08:02:27.000Z</time>
      </trkpt>
      <trkpt lat="47.46418" lon="6.78267">
        <ele>382</ele>
        <time>2015-08-23T08:02:29.000Z</time>
      </trkpt>
      <trkpt lat="47.46416" lon="6.78268">
        <ele>384</ele>
        <time>2015-08-23T08:02:30.000Z</time>
      </trkpt>
      <trkpt lat="47.46412" lon="6.78268">
        <ele>384</ele>
        <time>2015-08-23T08:02:32.000Z</time>
      </trkpt>
      <trkpt lat="47.4641" lon="6.78269">
        <ele>384</ele>
        <time>2015-08-23T08:02:33.000Z</time>
      </trkpt>
      <trkpt lat="47.46407" lon="6.78269">
        <ele>384</ele>
        <time>2015-08-23T08:02:34.000Z</time>
      </trkpt>
      <trkpt lat="47.46404" lon="6.78269">
        <ele>384</ele>
        <time>2015-08-23T08:02:35.000Z</time>
      </trkpt>
      <trkpt lat="47.46401" lon="6.78269">
        <ele>385</ele>
        <time>2015-08-23T08:02:36.000Z</time>
      </trkpt>
      <trkpt lat="47.46398" lon="6.78269">
        <ele>385</ele>
        <time>2015-08-23T08:02:37.000Z</time>
      </trkpt>
      <trkpt lat="47.46394" lon="6.7827">
        <ele>385</ele>
        <time>2015-08-23T08:02:38.000Z</time>
      </trkpt>
      <trkpt lat="47.46391" lon="6.7827">
        <ele>385</ele>
        <time>2015-08-23T08:02:39.000Z</time>
      </trkpt>
      <trkpt lat="47.46388" lon="6.78271">
        <ele>386</ele>
        <time>2015-08-23T08:02:40.000Z</time>
      </trkpt>
      <trkpt lat="47.46385" lon="6.78272">
        <ele>386</ele>
        <time>2015-08-23T08:02:41.000Z</time>
      </trkpt>
      <trkpt lat="47.46382" lon="6.78273">
        <ele>386</ele>
        <time>2015-08-23T08:02:42.000Z</time>
      </trkpt>
      <trkpt lat="47.46379" lon="6.78273">
        <ele>386</ele>
        <time>2015-08-23T08:02:43.000Z</time>
      </trkpt>
      <trkpt lat="47.46376" lon="6.78273">
        <ele>387</ele>
        <time>2015-08-23T08:02:44.000Z</time>
      </trkpt>
      <trkpt lat="47.46372" lon="6.78272">
        <ele>387</ele>
        <time>2015-08-23T08:02:45.000Z</time>
      </trkpt>
      <trkpt lat="47.46368" lon="6.78272">
        <ele>387</ele>
        <time>2015-08-23T08:02:46.000Z</time>
      </trkpt>
      <trkpt lat="47.46365" lon="6.78272">
        <ele>387</ele>
        <time>2015-08-23T08:02:47.000Z</time>
      </trkpt>
      <trkpt lat="47.46361" lon="6.78272">
        <ele>387</ele>
        <time>2015-08-23T08:02:48.000Z</time>
      </trkpt>
      <trkpt lat="47.46357" lon="6.78272">
        <ele>387</ele>
        <time>2015-08-23T08:02:49.000Z</time>
      </trkpt>
      <trkpt lat="47.46354" lon="6.78272">
        <ele>387</ele>
        <time>2015-08-23T08:02:50.000Z</time>
      </trkpt>
      <trkpt lat="47.46351" lon="6.78273">
        <ele>388</ele>
        <time>2015-08-23T08:02:51.000Z</time>
      </trkpt>
      <trkpt lat="47.46348" lon="6.78273">
        <ele>388</ele>
        <time>2015-08-23T08:02:52.000Z</time>
      </trkpt>
      <trkpt lat="47.46344" lon="6.78274">
        <ele>388</ele>
        <time>2015-08-23T08:02:53.000Z</time>
      </trkpt>
      <trkpt lat="47.4634" lon="6.78275">
        <ele>388</ele>
        <time>2015-08-23T08:02:54.000Z</time>
      </trkpt>
      <trkpt lat="47.46335" lon="6.78276">
        <ele>388</ele>
        <time>2015-08-23T08:02:55.000Z</time>
      </trkpt>
      <trkpt lat="47.46331" lon="6.78277">
        <ele>393</ele>
        <time>2015-08-23T08:02:56.000Z</time>
      </trkpt>
      <trkpt lat="47.46328" lon="6.78277">
        <ele>393</ele>
        <time>2015-08-23T08:02:57.000Z</time>
      </trkpt>
      <trkpt lat="47.46324" lon="6.78278">
        <ele>393</ele>
        <time>2015-08-23T08:02:58.000Z</time>
      </trkpt>
      <trkpt lat="47.46321" lon="6.78278">
        <ele>394</ele>
        <time>2015-08-23T08:02:59.000Z</time>
      </trkpt>
      <trkpt lat="47.46317" lon="6.78279">
        <ele>394</ele>
        <time>2015-08-23T08:03:00.000Z</time>
      </trkpt>
      <trkpt lat="47.46313" lon="6.7828">
        <ele>394</ele>
        <time>2015-08-23T08:03:01.000Z</time>
      </trkpt>
      <trkpt lat="47.46308" lon="6.78281">
        <ele>395</ele>
        <time>2015-08-23T08:03:02.000Z</time>
      </trkpt>
      <trkpt lat="47.46305" lon="6.78282">
        <ele>395</ele>
        <time>2015-08-23T08:03:03.000Z</time>
      </trkpt>
      <trkpt lat="47.46301" lon="6.78283">
        <ele>395</ele>
        <time>2015-08-23T08:03:04.000Z</time>
      </trkpt>
      <trkpt lat="47.46298" lon="6.78284">
        <ele>395</ele>
        <time>2015-08-23T08:03:05.000Z</time>
      </trkpt>
      <trkpt lat="47.46295" lon="6.78286">
        <ele>396</ele>
        <time>2015-08-23T08:03:06.000Z</time>
      </trkpt>
      <trkpt lat="47.46292" lon="6.78287">
        <ele>396</ele>
        <time>2015-08-23T08:03:07.000Z</time>
      </trkpt>
      <trkpt lat="47.46289" lon="6.78287">
        <ele>396</ele>
        <time>2015-08-23T08:03:08.000Z</time>
      </trkpt>
      <trkpt lat="47.46286" lon="6.78287">
        <ele>396</ele>
        <time>2015-08-23T08:03:09.000Z</time>
      </trkpt>
      <trkpt lat="47.46282" lon="6.78287">
        <ele>397</ele>
        <time>2015-08-23T08:03:10.000Z</time>
      </trkpt>
      <trkpt lat="47.46279" lon="6.78288">
        <ele>397</ele>
        <time>2015-08-23T08:03:11.000Z</time>
      </trkpt>
      <trkpt lat="47.46275" lon="6.78288">
        <ele>397</ele>
        <time>2015-08-23T08:03:12.000Z</time>
      </trkpt>
      <trkpt lat="47.46271" lon="6.78289">
        <ele>397</ele>
        <time>2015-08-23T08:03:13.000Z</time>
      </trkpt>
      <trkpt lat="47.46267" lon="6.78289">
        <ele>397</ele>
        <time>2015-08-23T08:03:14.000Z</time>
      </trkpt>
      <trkpt lat="47.46264" lon="6.7829">
        <ele>398</ele>
        <time>2015-08-23T08:03:15.000Z</time>
      </trkpt>
      <trkpt lat="47.4626" lon="6.7829">
        <ele>398</ele>
        <time>2015-08-23T08:03:16.000Z</time>
      </trkpt>
      <trkpt lat="47.46257" lon="6.78291">
        <ele>398</ele>
        <time>2015-08-23T08:03:17.000Z</time>
      </trkpt>
      <trkpt lat="47.46254" lon="6.78291">
        <ele>398</ele>
        <time>2015-08-23T08:03:18.000Z</time>
      </trkpt>
      <trkpt lat="47.46251" lon="6.78292">
        <ele>398</ele>
        <time>2015-08-23T08:03:19.000Z</time>
      </trkpt>
      <trkpt lat="47.46248" lon="6.78293">
        <ele>404</ele>
        <time>2015-08-23T08:03:20.000Z</time>
      </trkpt>
      <trkpt lat="47.46245" lon="6.78293">
        <ele>404</ele>
        <time>2015-08-23T08:03:21.000Z</time>
      </trkpt>
      <trkpt lat="47.46242" lon="6.78293">
        <ele>404</ele>
        <time>2015-08-23T08:03:22.000Z</time>
      </trkpt>
      <trkpt lat="47.46239" lon="6.78293">
        <ele>404</ele>
        <time>2015-08-23T08:03:23.000Z</time>
      </trkpt>
      <trkpt lat="47.46236" lon="6.78293">
        <ele>404</ele>
        <time>2015-08-23T08:03:24.000Z</time>
      </trkpt>
      <trkpt lat="47.46233" lon="6.78293">
        <ele>404</ele>
        <time>2015-08-23T08:03:25.000Z</time>
      </trkpt>
      <trkpt lat="47.4623" lon="6.78294">
        <ele>405</ele>
        <time>2015-08-23T08:03:26.000Z</time>
      </trkpt>
      <trkpt lat="47.46227" lon="6.78293">
        <ele>405</ele>
        <time>2015-08-23T08:03:27.000Z</time>
      </trkpt>
      <trkpt lat="47.46223" lon="6.78293">
        <ele>405</ele>
        <time>2015-08-23T08:03:28.000Z</time>
      </trkpt>
      <trkpt lat="47.4622" lon="6.78292">
        <ele>405</ele>
        <time>2015-08-23T08:03:29.000Z</time>
      </trkpt>
      <trkpt lat="47.46217" lon="6.78291">
        <ele>405</ele>
        <time>2015-08-23T08:03:30.000Z</time>
      </trkpt>
      <trkpt lat="47.46214" lon="6.78291">
        <ele>405</ele>
        <time>2015-08-23T08:03:31.000Z</time>
      </trkpt>
      <trkpt lat="47.46211" lon="6.78291">
        <ele>405</ele>
        <time>2015-08-23T08:03:32.000Z</time>
      </trkpt>
      <trkpt lat="47.46209" lon="6.78291">
        <ele>405</ele>
        <time>2015-08-23T08:03:33.000Z</time>
      </trkpt>
      <trkpt lat="47.46205" lon="6.78292">
        <ele>406</ele>
        <time>2015-08-23T08:03:34.000Z</time>
      </trkpt>
      <trkpt lat="47.46202" lon="6.78293">
        <ele>406</ele>
        <time>2015-08-23T08:03:35.000Z</time>
      </trkpt>
      <trkpt lat="47.46199" lon="6.78293">
        <ele>406</ele>
        <time>2015-08-23T08:03:36.000Z</time>
      </trkpt>
      <trkpt lat="47.46196" lon="6.78293">
        <ele>406</ele>
        <time>2015-08-23T08:03:37.000Z</time>
      </trkpt>
      <trkpt lat="47.46193" lon="6.78293">
        <ele>406</ele>
        <time>2015-08-23T08:03:38.000Z</time>
      </trkpt>
      <trkpt lat="47.46191" lon="6.78293">
        <ele>406</ele>
        <time>2015-08-23T08:03:39.000Z</time>
      </trkpt>
      <trkpt lat="47.46187" lon="6.78293">
        <ele>406</ele>
        <time>2015-08-23T08:03:41.000Z</time>
      </trkpt>
      <trkpt lat="47.46185" lon="6.78292">
        <ele>407</ele>
        <time>2015-08-23T08:03:42.000Z</time>
      </trkpt>
      <trkpt lat="47.46183" lon="6.78292">
        <ele>407</ele>
        <time>2015-08-23T08:03:43.000Z</time>
      </trkpt>
      <trkpt lat="47.4618" lon="6.78291">
        <ele>407</ele>
        <time>2015-08-23T08:03:44.000Z</time>
      </trkpt>
      <trkpt lat="47.46176" lon="6.7829">
        <ele>407</ele>
        <time>2015-08-23T08:03:45.000Z</time>
      </trkpt>
      <trkpt lat="47.46173" lon="6.78289">
        <ele>407</ele>
        <time>2015-08-23T08:03:46.000Z</time>
      </trkpt>
      <trkpt lat="47.46169" lon="6.78288">
        <ele>407</ele>
        <time>2015-08-23T08:03:47.000Z</time>
      </trkpt>
      <trkpt lat="47.46165" lon="6.78287">
        <ele>410</ele>
        <time>2015-08-23T08:03:48.000Z</time>
      </trkpt>
      <trkpt lat="47.46161" lon="6.78286">
        <ele>410</ele>
        <time>2015-08-23T08:03:49.000Z</time>
      </trkpt>
      <trkpt lat="47.46158" lon="6.78285">
        <ele>410</ele>
        <time>2015-08-23T08:03:50.000Z</time>
      </trkpt>
      <trkpt lat="47.46155" lon="6.78284">
        <ele>410</ele>
        <time>2015-08-23T08:03:51.000Z</time>
      </trkpt>
      <trkpt lat="47.46151" lon="6.78284">
        <ele>410</ele>
        <time>2015-08-23T08:03:52.000Z</time>
      </trkpt>
      <trkpt lat="47.46148" lon="6.78286">
        <ele>410</ele>
        <time>2015-08-23T08:03:53.000Z</time>
      </trkpt>
      <trkpt lat="47.46145" lon="6.78288">
        <ele>410</ele>
        <time>2015-08-23T08:03:54.000Z</time>
      </trkpt>
      <trkpt lat="47.46141" lon="6.7829">
        <ele>410</ele>
        <time>2015-08-23T08:03:55.000Z</time>
      </trkpt>
      <trkpt lat="47.46138" lon="6.78291">
        <ele>410</ele>
        <time>2015-08-23T08:03:56.000Z</time>
      </trkpt>
      <trkpt lat="47.46134" lon="6.78292">
        <ele>410</ele>
        <time>2015-08-23T08:03:57.000Z</time>
      </trkpt>
      <trkpt lat="47.46131" lon="6.78292">
        <ele>410</ele>
        <time>2015-08-23T08:03:58.000Z</time>
      </trkpt>
      <trkpt lat="47.46128" lon="6.78293">
        <ele>410</ele>
        <time>2015-08-23T08:03:59.000Z</time>
      </trkpt>
      <trkpt lat="47.46125" lon="6.78292">
        <ele>410</ele>
        <time>2015-08-23T08:04:00.000Z</time>
      </trkpt>
      <trkpt lat="47.46121" lon="6.78292">
        <ele>411</ele>
        <time>2015-08-23T08:04:01.000Z</time>
      </trkpt>
      <trkpt lat="47.46117" lon="6.78292">
        <ele>411</ele>
        <time>2015-08-23T08:04:02.000Z</time>
      </trkpt>
      <trkpt lat="47.46113" lon="6.78294">
        <ele>411</ele>
        <time>2015-08-23T08:04:03.000Z</time>
      </trkpt>
      <trkpt lat="47.46102" lon="6.78303">
        <ele>410</ele>
        <time>2015-08-23T08:04:04.000Z</time>
      </trkpt>
      <trkpt lat="47.46097" lon="6.78306">
        <ele>410</ele>
        <time>2015-08-23T08:04:05.000Z</time>
      </trkpt>
      <trkpt lat="47.46093" lon="6.78308">
        <ele>410</ele>
        <time>2015-08-23T08:04:06.000Z</time>
      </trkpt>
      <trkpt lat="47.46088" lon="6.7831">
        <ele>410</ele>
        <time>2015-08-23T08:04:07.000Z</time>
      </trkpt>
      <trkpt lat="47.46083" lon="6.78313">
        <ele>408</ele>
        <time>2015-08-23T08:04:08.000Z</time>
      </trkpt>
      <trkpt lat="47.46079" lon="6.78315">
        <ele>408</ele>
        <time>2015-08-23T08:04:09.000Z</time>
      </trkpt>
      <trkpt lat="47.46075" lon="6.78317">
        <ele>408</ele>
        <time>2015-08-23T08:04:10.000Z</time>
      </trkpt>
      <trkpt lat="47.46072" lon="6.78316">
        <ele>408</ele>
        <time>2015-08-23T08:04:11.000Z</time>
      </trkpt>
      <trkpt lat="47.46069" lon="6.78318">
        <ele>408</ele>
        <time>2015-08-23T08:04:12.000Z</time>
      </trkpt>
      <trkpt lat="47.46064" lon="6.78322">
        <ele>408</ele>
        <time>2015-08-23T08:04:13.000Z</time>
      </trkpt>
      <trkpt lat="47.46059" lon="6.78324">
        <ele>408</ele>
        <time>2015-08-23T08:04:14.000Z</time>
      </trkpt>
      <trkpt lat="47.46054" lon="6.78326">
        <ele>407</ele>
        <time>2015-08-23T08:04:15.000Z</time>
      </trkpt>
      <trkpt lat="47.46049" lon="6.7833">
        <ele>407</ele>
        <time>2015-08-23T08:04:16.000Z</time>
      </trkpt>
      <trkpt lat="47.46045" lon="6.78333">
        <ele>407</ele>
        <time>2015-08-23T08:04:17.000Z</time>
      </trkpt>
      <trkpt lat="47.46041" lon="6.78334">
        <ele>405</ele>
        <time>2015-08-23T08:04:18.000Z</time>
      </trkpt>
      <trkpt lat="47.46038" lon="6.78335">
        <ele>405</ele>
        <time>2015-08-23T08:04:19.000Z</time>
      </trkpt>
      <trkpt lat="47.46034" lon="6.78338">
        <ele>405</ele>
        <time>2015-08-23T08:04:20.000Z</time>
      </trkpt>
      <trkpt lat="47.46031" lon="6.7834">
        <ele>404</ele>
        <time>2015-08-23T08:04:21.000Z</time>
      </trkpt>
      <trkpt lat="47.46027" lon="6.78343">
        <ele>404</ele>
        <time>2015-08-23T08:04:22.000Z</time>
      </trkpt>
      <trkpt lat="47.46024" lon="6.78346">
        <ele>404</ele>
        <time>2015-08-23T08:04:23.000Z</time>
      </trkpt>
      <trkpt lat="47.4602" lon="6.78349">
        <ele>404</ele>
        <time>2015-08-23T08:04:24.000Z</time>
      </trkpt>
      <trkpt lat="47.46018" lon="6.78351">
        <ele>404</ele>
        <time>2015-08-23T08:04:25.000Z</time>
      </trkpt>
      <trkpt lat="47.46016" lon="6.78356">
        <ele>404</ele>
        <time>2015-08-23T08:04:26.000Z</time>
      </trkpt>
      <trkpt lat="47.46014" lon="6.78358">
        <ele>404</ele>
        <time>2015-08-23T08:04:27.000Z</time>
      </trkpt>
      <trkpt lat="47.46014" lon="6.78365">
        <ele>404</ele>
        <time>2015-08-23T08:04:37.000Z</time>
      </trkpt>
      <trkpt lat="47.46015" lon="6.78365">
        <ele>404</ele>
        <time>2015-08-23T08:04:38.000Z</time>
      </trkpt>
      <trkpt lat="47.46012" lon="6.7837">
        <ele>404</ele>
        <time>2015-08-23T08:04:55.000Z</time>
      </trkpt>
      <trkpt lat="47.4601" lon="6.78371">
        <ele>404</ele>
        <time>2015-08-23T08:04:56.000Z</time>
      </trkpt>
      <trkpt lat="47.46006" lon="6.78373">
        <ele>404</ele>
        <time>2015-08-23T08:04:58.000Z</time>
      </trkpt>
      <trkpt lat="47.46004" lon="6.78374">
        <ele>404</ele>
        <time>2015-08-23T08:04:59.000Z</time>
      </trkpt>
      <trkpt lat="47.46001" lon="6.78375">
        <ele>404</ele>
        <time>2015-08-23T08:05:00.000Z</time>
      </trkpt>
      <trkpt lat="47.45999" lon="6.78376">
        <ele>397</ele>
        <time>2015-08-23T08:05:01.000Z</time>
      </trkpt>
      <trkpt lat="47.45996" lon="6.78378">
        <ele>397</ele>
        <time>2015-08-23T08:05:02.000Z</time>
      </trkpt>
      <trkpt lat="47.45992" lon="6.7838">
        <ele>397</ele>
        <time>2015-08-23T08:05:03.000Z</time>
      </trkpt>
      <trkpt lat="47.45989" lon="6.78383">
        <ele>397</ele>
        <time>2015-08-23T08:05:04.000Z</time>
      </trkpt>
      <trkpt lat="47.45985" lon="6.78385">
        <ele>397</ele>
        <time>2015-08-23T08:05:05.000Z</time>
      </trkpt>
      <trkpt lat="47.45982" lon="6.78388">
        <ele>397</ele>
        <time>2015-08-23T08:05:06.000Z</time>
      </trkpt>
      <trkpt lat="47.45978" lon="6.78392">
        <ele>397</ele>
        <time>2015-08-23T08:05:07.000Z</time>
      </trkpt>
      <trkpt lat="47.45967" lon="6.78409">
        <ele>396</ele>
        <time>2015-08-23T08:05:08.000Z</time>
      </trkpt>
      <trkpt lat="47.45959" lon="6.78415">
        <ele>395</ele>
        <time>2015-08-23T08:05:09.000Z</time>
      </trkpt>
      <trkpt lat="47.45951" lon="6.78422">
        <ele>392</ele>
        <time>2015-08-23T08:05:10.000Z</time>
      </trkpt>
      <trkpt lat="47.45945" lon="6.78429">
        <ele>392</ele>
        <time>2015-08-23T08:05:11.000Z</time>
      </trkpt>
      <trkpt lat="47.45941" lon="6.78437">
        <ele>391</ele>
        <time>2015-08-23T08:05:12.000Z</time>
      </trkpt>
      <trkpt lat="47.45942" lon="6.78454">
        <ele>391</ele>
        <time>2015-08-23T08:05:13.000Z</time>
      </trkpt>
      <trkpt lat="47.45941" lon="6.78469">
        <ele>391</ele>
        <time>2015-08-23T08:05:14.000Z</time>
      </trkpt>
      <trkpt lat="47.45943" lon="6.78485">
        <ele>390</ele>
        <time>2015-08-23T08:05:15.000Z</time>
      </trkpt>
      <trkpt lat="47.45945" lon="6.78498">
        <ele>390</ele>
        <time>2015-08-23T08:05:16.000Z</time>
      </trkpt>
      <trkpt lat="47.45944" lon="6.78508">
        <ele>388</ele>
        <time>2015-08-23T08:05:17.000Z</time>
      </trkpt>
      <trkpt lat="47.45943" lon="6.78516">
        <ele>388</ele>
        <time>2015-08-23T08:05:18.000Z</time>
      </trkpt>
      <trkpt lat="47.4594" lon="6.78525">
        <ele>388</ele>
        <time>2015-08-23T08:05:19.000Z</time>
      </trkpt>
      <trkpt lat="47.45936" lon="6.78532">
        <ele>387</ele>
        <time>2015-08-23T08:05:20.000Z</time>
      </trkpt>
      <trkpt lat="47.45929" lon="6.78535">
        <ele>387</ele>
        <time>2015-08-23T08:05:21.000Z</time>
      </trkpt>
      <trkpt lat="47.45923" lon="6.78534">
        <ele>386</ele>
        <time>2015-08-23T08:05:22.000Z</time>
      </trkpt>
      <trkpt lat="47.45917" lon="6.78532">
        <ele>386</ele>
        <time>2015-08-23T08:05:23.000Z</time>
      </trkpt>
      <trkpt lat="47.45911" lon="6.78528">
        <ele>377</ele>
        <time>2015-08-23T08:05:24.000Z</time>
      </trkpt>
      <trkpt lat="47.45906" lon="6.78521">
        <ele>377</ele>
        <time>2015-08-23T08:05:25.000Z</time>
      </trkpt>
      <trkpt lat="47.45901" lon="6.78515">
        <ele>377</ele>
        <time>2015-08-23T08:05:26.000Z</time>
      </trkpt>
      <trkpt lat="47.45895" lon="6.78508">
        <ele>377</ele>
        <time>2015-08-23T08:05:27.000Z</time>
      </trkpt>
      <trkpt lat="47.45888" lon="6.78501">
        <ele>376</ele>
        <time>2015-08-23T08:05:28.000Z</time>
      </trkpt>
      <trkpt lat="47.45883" lon="6.78495">
        <ele>377</ele>
        <time>2015-08-23T08:05:29.000Z</time>
      </trkpt>
      <trkpt lat="47.45875" lon="6.78487">
        <ele>376</ele>
        <time>2015-08-23T08:05:30.000Z</time>
      </trkpt>
      <trkpt lat="47.45867" lon="6.78478">
        <ele>376</ele>
        <time>2015-08-23T08:05:31.000Z</time>
      </trkpt>
      <trkpt lat="47.45858" lon="6.7847">
        <ele>375</ele>
        <time>2015-08-23T08:05:32.000Z</time>
      </trkpt>
      <trkpt lat="47.4585" lon="6.78462">
        <ele>375</ele>
        <time>2015-08-23T08:05:33.000Z</time>
      </trkpt>
      <trkpt lat="47.45841" lon="6.78453">
        <ele>375</ele>
        <time>2015-08-23T08:05:34.000Z</time>
      </trkpt>
      <trkpt lat="47.45832" lon="6.78444">
        <ele>367</ele>
        <time>2015-08-23T08:05:35.000Z</time>
      </trkpt>
      <trkpt lat="47.45823" lon="6.78436">
        <ele>367</ele>
        <time>2015-08-23T08:05:36.000Z</time>
      </trkpt>
      <trkpt lat="47.45814" lon="6.78426">
        <ele>367</ele>
        <time>2015-08-23T08:05:37.000Z</time>
      </trkpt>
      <trkpt lat="47.45805" lon="6.78418">
        <ele>366</ele>
        <time>2015-08-23T08:05:38.000Z</time>
      </trkpt>
      <trkpt lat="47.45796" lon="6.7841">
        <ele>367</ele>
        <time>2015-08-23T08:05:39.000Z</time>
      </trkpt>
      <trkpt lat="47.45786" lon="6.78403">
        <ele>366</ele>
        <time>2015-08-23T08:05:40.000Z</time>
      </trkpt>
      <trkpt lat="47.45776" lon="6.78396">
        <ele>365</ele>
        <time>2015-08-23T08:05:41.000Z</time>
      </trkpt>
      <trkpt lat="47.45765" lon="6.78391">
        <ele>365</ele>
        <time>2015-08-23T08:05:42.000Z</time>
      </trkpt>
      <trkpt lat="47.45754" lon="6.78388">
        <ele>365</ele>
        <time>2015-08-23T08:05:43.000Z</time>
      </trkpt>
      <trkpt lat="47.45743" lon="6.78385">
        <ele>360</ele>
        <time>2015-08-23T08:05:44.000Z</time>
      </trkpt>
      <trkpt lat="47.45732" lon="6.78383">
        <ele>360</ele>
        <time>2015-08-23T08:05:45.000Z</time>
      </trkpt>
      <trkpt lat="47.45722" lon="6.78382">
        <ele>359</ele>
        <time>2015-08-23T08:05:46.000Z</time>
      </trkpt>
      <trkpt lat="47.45711" lon="6.78381">
        <ele>359</ele>
        <time>2015-08-23T08:05:47.000Z</time>
      </trkpt>
      <trkpt lat="47.45701" lon="6.78381">
        <ele>359</ele>
        <time>2015-08-23T08:05:48.000Z</time>
      </trkpt>
      <trkpt lat="47.45691" lon="6.78382">
        <ele>358</ele>
        <time>2015-08-23T08:05:49.000Z</time>
      </trkpt>
      <trkpt lat="47.45681" lon="6.78384">
        <ele>358</ele>
        <time>2015-08-23T08:05:50.000Z</time>
      </trkpt>
      <trkpt lat="47.45672" lon="6.78385">
        <ele>358</ele>
        <time>2015-08-23T08:05:51.000Z</time>
      </trkpt>
      <trkpt lat="47.45663" lon="6.78387">
        <ele>356</ele>
        <time>2015-08-23T08:05:52.000Z</time>
      </trkpt>
      <trkpt lat="47.45654" lon="6.7839">
        <ele>356</ele>
        <time>2015-08-23T08:05:53.000Z</time>
      </trkpt>
      <trkpt lat="47.45645" lon="6.78393">
        <ele>355</ele>
        <time>2015-08-23T08:05:54.000Z</time>
      </trkpt>
      <trkpt lat="47.45637" lon="6.78397">
        <ele>355</ele>
        <time>2015-08-23T08:05:55.000Z</time>
      </trkpt>
      <trkpt lat="47.45629" lon="6.784">
        <ele>355</ele>
        <time>2015-08-23T08:05:56.000Z</time>
      </trkpt>
      <trkpt lat="47.45621" lon="6.78404">
        <ele>355</ele>
        <time>2015-08-23T08:05:57.000Z</time>
      </trkpt>
      <trkpt lat="47.45613" lon="6.78407">
        <ele>355</ele>
        <time>2015-08-23T08:05:58.000Z</time>
      </trkpt>
      <trkpt lat="47.45605" lon="6.78411">
        <ele>355</ele>
        <time>2015-08-23T08:05:59.000Z</time>
      </trkpt>
      <trkpt lat="47.45598" lon="6.78415">
        <ele>355</ele>
        <time>2015-08-23T08:06:00.000Z</time>
      </trkpt>
      <trkpt lat="47.4559" lon="6.78419">
        <ele>354</ele>
        <time>2015-08-23T08:06:01.000Z</time>
      </trkpt>
      <trkpt lat="47.45584" lon="6.78422">
        <ele>354</ele>
        <time>2015-08-23T08:06:02.000Z</time>
      </trkpt>
      <trkpt lat="47.45576" lon="6.78425">
        <ele>353</ele>
        <time>2015-08-23T08:06:03.000Z</time>
      </trkpt>
      <trkpt lat="47.4557" lon="6.78429">
        <ele>352</ele>
        <time>2015-08-23T08:06:04.000Z</time>
      </trkpt>
      <trkpt lat="47.45563" lon="6.78433">
        <ele>352</ele>
        <time>2015-08-23T08:06:05.000Z</time>
      </trkpt>
      <trkpt lat="47.45556" lon="6.78436">
        <ele>352</ele>
        <time>2015-08-23T08:06:06.000Z</time>
      </trkpt>
      <trkpt lat="47.4555" lon="6.7844">
        <ele>352</ele>
        <time>2015-08-23T08:06:07.000Z</time>
      </trkpt>
      <trkpt lat="47.45544" lon="6.78444">
        <ele>351</ele>
        <time>2015-08-23T08:06:08.000Z</time>
      </trkpt>
      <trkpt lat="47.45537" lon="6.78447">
        <ele>351</ele>
        <time>2015-08-23T08:06:09.000Z</time>
      </trkpt>
      <trkpt lat="47.45531" lon="6.78451">
        <ele>351</ele>
        <time>2015-08-23T08:06:10.000Z</time>
      </trkpt>
      <trkpt lat="47.45525" lon="6.78454">
        <ele>351</ele>
        <time>2015-08-23T08:06:11.000Z</time>
      </trkpt>
      <trkpt lat="47.45519" lon="6.78457">
        <ele>351</ele>
        <time>2015-08-23T08:06:12.000Z</time>
      </trkpt>
      <trkpt lat="47.45513" lon="6.7846">
        <ele>351</ele>
        <time>2015-08-23T08:06:13.000Z</time>
      </trkpt>
      <trkpt lat="47.45507" lon="6.78463">
        <ele>350</ele>
        <time>2015-08-23T08:06:14.000Z</time>
      </trkpt>
      <trkpt lat="47.45502" lon="6.78466">
        <ele>350</ele>
        <time>2015-08-23T08:06:15.000Z</time>
      </trkpt>
      <trkpt lat="47.45498" lon="6.78469">
        <ele>348</ele>
        <time>2015-08-23T08:06:16.000Z</time>
      </trkpt>
      <trkpt lat="47.45494" lon="6.78474">
        <ele>348</ele>
        <time>2015-08-23T08:06:17.000Z</time>
      </trkpt>
      <trkpt lat="47.45492" lon="6.78479">
        <ele>348</ele>
        <time>2015-08-23T08:06:18.000Z</time>
      </trkpt>
      <trkpt lat="47.45489" lon="6.78483">
        <ele>348</ele>
        <time>2015-08-23T08:06:19.000Z</time>
      </trkpt>
      <trkpt lat="47.45486" lon="6.78488">
        <ele>348</ele>
        <time>2015-08-23T08:06:20.000Z</time>
      </trkpt>
      <trkpt lat="47.45484" lon="6.78493">
        <ele>348</ele>
        <time>2015-08-23T08:06:21.000Z</time>
      </trkpt>
      <trkpt lat="47.45481" lon="6.78498">
        <ele>348</ele>
        <time>2015-08-23T08:06:22.000Z</time>
      </trkpt>
      <trkpt lat="47.45479" lon="6.78504">
        <ele>345</ele>
        <time>2015-08-23T08:06:23.000Z</time>
      </trkpt>
      <trkpt lat="47.45477" lon="6.78509">
        <ele>345</ele>
        <time>2015-08-23T08:06:24.000Z</time>
      </trkpt>
      <trkpt lat="47.45474" lon="6.78515">
        <ele>345</ele>
        <time>2015-08-23T08:06:25.000Z</time>
      </trkpt>
      <trkpt lat="47.45472" lon="6.78522">
        <ele>345</ele>
        <time>2015-08-23T08:06:26.000Z</time>
      </trkpt>
      <trkpt lat="47.45471" lon="6.78529">
        <ele>344</ele>
        <time>2015-08-23T08:06:27.000Z</time>
      </trkpt>
      <trkpt lat="47.45469" lon="6.78536">
        <ele>344</ele>
        <time>2015-08-23T08:06:28.000Z</time>
      </trkpt>
      <trkpt lat="47.45468" lon="6.78543">
        <ele>344</ele>
        <time>2015-08-23T08:06:29.000Z</time>
      </trkpt>
      <trkpt lat="47.45466" lon="6.7855">
        <ele>343</ele>
        <time>2015-08-23T08:06:30.000Z</time>
      </trkpt>
      <trkpt lat="47.45465" lon="6.78558">
        <ele>343</ele>
        <time>2015-08-23T08:06:31.000Z</time>
      </trkpt>
      <trkpt lat="47.45464" lon="6.78567">
        <ele>343</ele>
        <time>2015-08-23T08:06:32.000Z</time>
      </trkpt>
      <trkpt lat="47.45463" lon="6.78575">
        <ele>343</ele>
        <time>2015-08-23T08:06:33.000Z</time>
      </trkpt>
      <trkpt lat="47.45461" lon="6.78585">
        <ele>340</ele>
        <time>2015-08-23T08:06:34.000Z</time>
      </trkpt>
      <trkpt lat="47.4546" lon="6.78595">
        <ele>339</ele>
        <time>2015-08-23T08:06:35.000Z</time>
      </trkpt>
      <trkpt lat="47.45459" lon="6.78606">
        <ele>339</ele>
        <time>2015-08-23T08:06:36.000Z</time>
      </trkpt>
      <trkpt lat="47.45457" lon="6.78616">
        <ele>339</ele>
        <time>2015-08-23T08:06:37.000Z</time>
      </trkpt>
      <trkpt lat="47.45458" lon="6.78627">
        <ele>338</ele>
        <time>2015-08-23T08:06:38.000Z</time>
      </trkpt>
      <trkpt lat="47.45458" lon="6.78636">
        <ele>338</ele>
        <time>2015-08-23T08:06:39.000Z</time>
      </trkpt>
      <trkpt lat="47.45459" lon="6.78646">
        <ele>338</ele>
        <time>2015-08-23T08:06:40.000Z</time>
      </trkpt>
      <trkpt lat="47.4546" lon="6.78655">
        <ele>338</ele>
        <time>2015-08-23T08:06:41.000Z</time>
      </trkpt>
      <trkpt lat="47.45462" lon="6.78664">
        <ele>338</ele>
        <time>2015-08-23T08:06:42.000Z</time>
      </trkpt>
      <trkpt lat="47.45464" lon="6.78672">
        <ele>335</ele>
        <time>2015-08-23T08:06:43.000Z</time>
      </trkpt>
      <trkpt lat="47.45465" lon="6.7868">
        <ele>335</ele>
        <time>2015-08-23T08:06:44.000Z</time>
      </trkpt>
      <trkpt lat="47.45467" lon="6.78687">
        <ele>335</ele>
        <time>2015-08-23T08:06:45.000Z</time>
      </trkpt>
      <trkpt lat="47.45469" lon="6.78692">
        <ele>335</ele>
        <time>2015-08-23T08:06:46.000Z</time>
      </trkpt>
      <trkpt lat="47.45472" lon="6.78698">
        <ele>335</ele>
        <time>2015-08-23T08:06:47.000Z</time>
      </trkpt>
      <trkpt lat="47.45475" lon="6.78703">
        <ele>335</ele>
        <time>2015-08-23T08:06:48.000Z</time>
      </trkpt>
      <trkpt lat="47.45478" lon="6.78709">
        <ele>335</ele>
        <time>2015-08-23T08:06:49.000Z</time>
      </trkpt>
      <trkpt lat="47.4548" lon="6.78714">
        <ele>335</ele>
        <time>2015-08-23T08:06:50.000Z</time>
      </trkpt>
      <trkpt lat="47.45482" lon="6.78719">
        <ele>335</ele>
        <time>2015-08-23T08:06:51.000Z</time>
      </trkpt>
      <trkpt lat="47.45484" lon="6.78725">
        <ele>335</ele>
        <time>2015-08-23T08:06:52.000Z</time>
      </trkpt>
      <trkpt lat="47.45485" lon="6.7873">
        <ele>335</ele>
        <time>2015-08-23T08:06:53.000Z</time>
      </trkpt>
      <trkpt lat="47.45487" lon="6.78735">
        <ele>335</ele>
        <time>2015-08-23T08:06:54.000Z</time>
      </trkpt>
      <trkpt lat="47.45489" lon="6.7874">
        <ele>335</ele>
        <time>2015-08-23T08:06:55.000Z</time>
      </trkpt>
      <trkpt lat="47.45491" lon="6.78744">
        <ele>335</ele>
        <time>2015-08-23T08:06:56.000Z</time>
      </trkpt>
      <trkpt lat="47.45492" lon="6.78749">
        <ele>335</ele>
        <time>2015-08-23T08:06:57.000Z</time>
      </trkpt>
      <trkpt lat="47.4549" lon="6.78754">
        <ele>334</ele>
        <time>2015-08-23T08:06:59.000Z</time>
      </trkpt>
      <trkpt lat="47.4549" lon="6.78757">
        <ele>334</ele>
        <time>2015-08-23T08:07:00.000Z</time>
      </trkpt>
      <trkpt lat="47.45488" lon="6.7876">
        <ele>334</ele>
        <time>2015-08-23T08:07:01.000Z</time>
      </trkpt>
      <trkpt lat="47.45485" lon="6.78763">
        <ele>334</ele>
        <time>2015-08-23T08:07:02.000Z</time>
      </trkpt>
      <trkpt lat="47.4548" lon="6.78768">
        <ele>334</ele>
        <time>2015-08-23T08:07:03.000Z</time>
      </trkpt>
      <trkpt lat="47.45476" lon="6.78772">
        <ele>334</ele>
        <time>2015-08-23T08:07:04.000Z</time>
      </trkpt>
      <trkpt lat="47.45472" lon="6.78777">
        <ele>334</ele>
        <time>2015-08-23T08:07:05.000Z</time>
      </trkpt>
      <trkpt lat="47.45468" lon="6.78782">
        <ele>333</ele>
        <time>2015-08-23T08:07:06.000Z</time>
      </trkpt>
      <trkpt lat="47.45463" lon="6.78787">
        <ele>333</ele>
        <time>2015-08-23T08:07:07.000Z</time>
      </trkpt>
      <trkpt lat="47.45459" lon="6.78792">
        <ele>333</ele>
        <time>2015-08-23T08:07:08.000Z</time>
      </trkpt>
      <trkpt lat="47.45454" lon="6.78797">
        <ele>333</ele>
        <time>2015-08-23T08:07:09.000Z</time>
      </trkpt>
      <trkpt lat="47.4545" lon="6.78803">
        <ele>333</ele>
        <time>2015-08-23T08:07:10.000Z</time>
      </trkpt>
      <trkpt lat="47.45447" lon="6.78809">
        <ele>333</ele>
        <time>2015-08-23T08:07:11.000Z</time>
      </trkpt>
      <trkpt lat="47.45442" lon="6.78814">
        <ele>333</ele>
        <time>2015-08-23T08:07:12.000Z</time>
      </trkpt>
      <trkpt lat="47.45438" lon="6.7882">
        <ele>333</ele>
        <time>2015-08-23T08:07:13.000Z</time>
      </trkpt>
      <trkpt lat="47.45433" lon="6.78825">
        <ele>333</ele>
        <time>2015-08-23T08:07:14.000Z</time>
      </trkpt>
      <trkpt lat="47.45428" lon="6.78831">
        <ele>332</ele>
        <time>2015-08-23T08:07:15.000Z</time>
      </trkpt>
      <trkpt lat="47.45424" lon="6.78837">
        <ele>332</ele>
        <time>2015-08-23T08:07:16.000Z</time>
      </trkpt>
      <trkpt lat="47.45419" lon="6.78842">
        <ele>332</ele>
        <time>2015-08-23T08:07:17.000Z</time>
      </trkpt>
      <trkpt lat="47.45414" lon="6.78848">
        <ele>332</ele>
        <time>2015-08-23T08:07:18.000Z</time>
      </trkpt>
      <trkpt lat="47.45409" lon="6.78852">
        <ele>332</ele>
        <time>2015-08-23T08:07:19.000Z</time>
      </trkpt>
      <trkpt lat="47.45404" lon="6.78858">
        <ele>332</ele>
        <time>2015-08-23T08:07:20.000Z</time>
      </trkpt>
      <trkpt lat="47.454" lon="6.78864">
        <ele>332</ele>
        <time>2015-08-23T08:07:21.000Z</time>
      </trkpt>
      <trkpt lat="47.45396" lon="6.7887">
        <ele>332</ele>
        <time>2015-08-23T08:07:22.000Z</time>
      </trkpt>
      <trkpt lat="47.45392" lon="6.78878">
        <ele>332</ele>
        <time>2015-08-23T08:07:23.000Z</time>
      </trkpt>
      <trkpt lat="47.45388" lon="6.78884">
        <ele>332</ele>
        <time>2015-08-23T08:07:24.000Z</time>
      </trkpt>
      <trkpt lat="47.45383" lon="6.78887">
        <ele>332</ele>
        <time>2015-08-23T08:07:25.000Z</time>
      </trkpt>
      <trkpt lat="47.45378" lon="6.78891">
        <ele>332</ele>
        <time>2015-08-23T08:07:26.000Z</time>
      </trkpt>
      <trkpt lat="47.45373" lon="6.78896">
        <ele>332</ele>
        <time>2015-08-23T08:07:27.000Z</time>
      </trkpt>
      <trkpt lat="47.45368" lon="6.78901">
        <ele>332</ele>
        <time>2015-08-23T08:07:28.000Z</time>
      </trkpt>
      <trkpt lat="47.45364" lon="6.78906">
        <ele>332</ele>
        <time>2015-08-23T08:07:29.000Z</time>
      </trkpt>
      <trkpt lat="47.45359" lon="6.78911">
        <ele>332</ele>
        <time>2015-08-23T08:07:30.000Z</time>
      </trkpt>
      <trkpt lat="47.45356" lon="6.78918">
        <ele>331</ele>
        <time>2015-08-23T08:07:31.000Z</time>
      </trkpt>
      <trkpt lat="47.45352" lon="6.78923">
        <ele>331</ele>
        <time>2015-08-23T08:07:32.000Z</time>
      </trkpt>
      <trkpt lat="47.45349" lon="6.78928">
        <ele>331</ele>
        <time>2015-08-23T08:07:33.000Z</time>
      </trkpt>
      <trkpt lat="47.45345" lon="6.78934">
        <ele>331</ele>
        <time>2015-08-23T08:07:34.000Z</time>
      </trkpt>
      <trkpt lat="47.45341" lon="6.78942">
        <ele>331</ele>
        <time>2015-08-23T08:07:35.000Z</time>
      </trkpt>
      <trkpt lat="47.45337" lon="6.78947">
        <ele>331</ele>
        <time>2015-08-23T08:07:36.000Z</time>
      </trkpt>
      <trkpt lat="47.45332" lon="6.78951">
        <ele>331</ele>
        <time>2015-08-23T08:07:37.000Z</time>
      </trkpt>
      <trkpt lat="47.45328" lon="6.78954">
        <ele>331</ele>
        <time>2015-08-23T08:07:38.000Z</time>
      </trkpt>
      <trkpt lat="47.45323" lon="6.78959">
        <ele>331</ele>
        <time>2015-08-23T08:07:39.000Z</time>
      </trkpt>
      <trkpt lat="47.45319" lon="6.78964">
        <ele>331</ele>
        <time>2015-08-23T08:07:40.000Z</time>
      </trkpt>
      <trkpt lat="47.45315" lon="6.7897">
        <ele>331</ele>
        <time>2015-08-23T08:07:41.000Z</time>
      </trkpt>
      <trkpt lat="47.45311" lon="6.78975">
        <ele>331</ele>
        <time>2015-08-23T08:07:42.000Z</time>
      </trkpt>
      <trkpt lat="47.45307" lon="6.78981">
        <ele>331</ele>
        <time>2015-08-23T08:07:43.000Z</time>
      </trkpt>
      <trkpt lat="47.45303" lon="6.78987">
        <ele>331</ele>
        <time>2015-08-23T08:07:44.000Z</time>
      </trkpt>
      <trkpt lat="47.453" lon="6.78993">
        <ele>331</ele>
        <time>2015-08-23T08:07:45.000Z</time>
      </trkpt>
      <trkpt lat="47.45296" lon="6.79">
        <ele>331</ele>
        <time>2015-08-23T08:07:46.000Z</time>
      </trkpt>
      <trkpt lat="47.45293" lon="6.79005">
        <ele>331</ele>
        <time>2015-08-23T08:07:47.000Z</time>
      </trkpt>
      <trkpt lat="47.45289" lon="6.79011">
        <ele>331</ele>
        <time>2015-08-23T08:07:48.000Z</time>
      </trkpt>
      <trkpt lat="47.45285" lon="6.79018">
        <ele>331</ele>
        <time>2015-08-23T08:07:49.000Z</time>
      </trkpt>
      <trkpt lat="47.45282" lon="6.79024">
        <ele>331</ele>
        <time>2015-08-23T08:07:50.000Z</time>
      </trkpt>
      <trkpt lat="47.45279" lon="6.7903">
        <ele>331</ele>
        <time>2015-08-23T08:07:51.000Z</time>
      </trkpt>
      <trkpt lat="47.45276" lon="6.79035">
        <ele>331</ele>
        <time>2015-08-23T08:07:52.000Z</time>
      </trkpt>
      <trkpt lat="47.45275" lon="6.79041">
        <ele>331</ele>
        <time>2015-08-23T08:07:53.000Z</time>
      </trkpt>
      <trkpt lat="47.45273" lon="6.79046">
        <ele>331</ele>
        <time>2015-08-23T08:07:54.000Z</time>
      </trkpt>
      <trkpt lat="47.45271" lon="6.79053">
        <ele>331</ele>
        <time>2015-08-23T08:07:55.000Z</time>
      </trkpt>
      <trkpt lat="47.4527" lon="6.79059">
        <ele>331</ele>
        <time>2015-08-23T08:07:56.000Z</time>
      </trkpt>
      <trkpt lat="47.45269" lon="6.79064">
        <ele>332</ele>
        <time>2015-08-23T08:07:57.000Z</time>
      </trkpt>
      <trkpt lat="47.45267" lon="6.79069">
        <ele>332</ele>
        <time>2015-08-23T08:07:58.000Z</time>
      </trkpt>
      <trkpt lat="47.45264" lon="6.79074">
        <ele>332</ele>
        <time>2015-08-23T08:07:59.000Z</time>
      </trkpt>
      <trkpt lat="47.45263" lon="6.79079">
        <ele>332</ele>
        <time>2015-08-23T08:08:00.000Z</time>
      </trkpt>
      <trkpt lat="47.45261" lon="6.79085">
        <ele>332</ele>
        <time>2015-08-23T08:08:01.000Z</time>
      </trkpt>
      <trkpt lat="47.45258" lon="6.79093">
        <ele>332</ele>
        <time>2015-08-23T08:08:02.000Z</time>
      </trkpt>
      <trkpt lat="47.45255" lon="6.79099">
        <ele>332</ele>
        <time>2015-08-23T08:08:03.000Z</time>
      </trkpt>
      <trkpt lat="47.45253" lon="6.79106">
        <ele>332</ele>
        <time>2015-08-23T08:08:04.000Z</time>
      </trkpt>
      <trkpt lat="47.4525" lon="6.79113">
        <ele>333</ele>
        <time>2015-08-23T08:08:05.000Z</time>
      </trkpt>
      <trkpt lat="47.45246" lon="6.79119">
        <ele>333</ele>
        <time>2015-08-23T08:08:06.000Z</time>
      </trkpt>
      <trkpt lat="47.45242" lon="6.79123">
        <ele>333</ele>
        <time>2015-08-23T08:08:07.000Z</time>
      </trkpt>
      <trkpt lat="47.45238" lon="6.79125">
        <ele>333</ele>
        <time>2015-08-23T08:08:08.000Z</time>
      </trkpt>
      <trkpt lat="47.45234" lon="6.79127">
        <ele>333</ele>
        <time>2015-08-23T08:08:09.000Z</time>
      </trkpt>
      <trkpt lat="47.45231" lon="6.79129">
        <ele>333</ele>
        <time>2015-08-23T08:08:10.000Z</time>
      </trkpt>
      <trkpt lat="47.45228" lon="6.79131">
        <ele>333</ele>
        <time>2015-08-23T08:08:11.000Z</time>
      </trkpt>
      <trkpt lat="47.45225" lon="6.79135">
        <ele>333</ele>
        <time>2015-08-23T08:08:12.000Z</time>
      </trkpt>
      <trkpt lat="47.45222" lon="6.7914">
        <ele>333</ele>
        <time>2015-08-23T08:08:13.000Z</time>
      </trkpt>
      <trkpt lat="47.4522" lon="6.79146">
        <ele>333</ele>
        <time>2015-08-23T08:08:14.000Z</time>
      </trkpt>
      <trkpt lat="47.45218" lon="6.79152">
        <ele>333</ele>
        <time>2015-08-23T08:08:15.000Z</time>
      </trkpt>
      <trkpt lat="47.45217" lon="6.79158">
        <ele>333</ele>
        <time>2015-08-23T08:08:16.000Z</time>
      </trkpt>
      <trkpt lat="47.45216" lon="6.79165">
        <ele>333</ele>
        <time>2015-08-23T08:08:17.000Z</time>
      </trkpt>
      <trkpt lat="47.45214" lon="6.79171">
        <ele>333</ele>
        <time>2015-08-23T08:08:18.000Z</time>
      </trkpt>
      <trkpt lat="47.45213" lon="6.79177">
        <ele>333</ele>
        <time>2015-08-23T08:08:19.000Z</time>
      </trkpt>
      <trkpt lat="47.45212" lon="6.79183">
        <ele>333</ele>
        <time>2015-08-23T08:08:20.000Z</time>
      </trkpt>
      <trkpt lat="47.45211" lon="6.79189">
        <ele>334</ele>
        <time>2015-08-23T08:08:21.000Z</time>
      </trkpt>
      <trkpt lat="47.45209" lon="6.79196">
        <ele>334</ele>
        <time>2015-08-23T08:08:22.000Z</time>
      </trkpt>
      <trkpt lat="47.45207" lon="6.79202">
        <ele>334</ele>
        <time>2015-08-23T08:08:23.000Z</time>
      </trkpt>
      <trkpt lat="47.45205" lon="6.79208">
        <ele>334</ele>
        <time>2015-08-23T08:08:24.000Z</time>
      </trkpt>
      <trkpt lat="47.45204" lon="6.79215">
        <ele>334</ele>
        <time>2015-08-23T08:08:25.000Z</time>
      </trkpt>
      <trkpt lat="47.45202" lon="6.79222">
        <ele>334</ele>
        <time>2015-08-23T08:08:26.000Z</time>
      </trkpt>
      <trkpt lat="47.45201" lon="6.79231">
        <ele>334</ele>
        <time>2015-08-23T08:08:27.000Z</time>
      </trkpt>
      <trkpt lat="47.45201" lon="6.7924">
        <ele>334</ele>
        <time>2015-08-23T08:08:28.000Z</time>
      </trkpt>
      <trkpt lat="47.45197" lon="6.79242">
        <ele>334</ele>
        <time>2015-08-23T08:08:29.000Z</time>
      </trkpt>
      <trkpt lat="47.45196" lon="6.79253">
        <ele>335</ele>
        <time>2015-08-23T08:08:30.000Z</time>
      </trkpt>
      <trkpt lat="47.45194" lon="6.79261">
        <ele>335</ele>
        <time>2015-08-23T08:08:31.000Z</time>
      </trkpt>
      <trkpt lat="47.45193" lon="6.7927">
        <ele>334</ele>
        <time>2015-08-23T08:08:32.000Z</time>
      </trkpt>
      <trkpt lat="47.45191" lon="6.79278">
        <ele>334</ele>
        <time>2015-08-23T08:08:33.000Z</time>
      </trkpt>
      <trkpt lat="47.4519" lon="6.79286">
        <ele>334</ele>
        <time>2015-08-23T08:08:34.000Z</time>
      </trkpt>
      <trkpt lat="47.45188" lon="6.79295">
        <ele>334</ele>
        <time>2015-08-23T08:08:35.000Z</time>
      </trkpt>
      <trkpt lat="47.45187" lon="6.79303">
        <ele>334</ele>
        <time>2015-08-23T08:08:36.000Z</time>
      </trkpt>
      <trkpt lat="47.45185" lon="6.79311">
        <ele>334</ele>
        <time>2015-08-23T08:08:37.000Z</time>
      </trkpt>
      <trkpt lat="47.45183" lon="6.79319">
        <ele>334</ele>
        <time>2015-08-23T08:08:38.000Z</time>
      </trkpt>
      <trkpt lat="47.45181" lon="6.79327">
        <ele>334</ele>
        <time>2015-08-23T08:08:39.000Z</time>
      </trkpt>
      <trkpt lat="47.4518" lon="6.79336">
        <ele>334</ele>
        <time>2015-08-23T08:08:40.000Z</time>
      </trkpt>
      <trkpt lat="47.45178" lon="6.79343">
        <ele>334</ele>
        <time>2015-08-23T08:08:41.000Z</time>
      </trkpt>
      <trkpt lat="47.45176" lon="6.79351">
        <ele>334</ele>
        <time>2015-08-23T08:08:42.000Z</time>
      </trkpt>
      <trkpt lat="47.45175" lon="6.79359">
        <ele>334</ele>
        <time>2015-08-23T08:08:43.000Z</time>
      </trkpt>
      <trkpt lat="47.45173" lon="6.79367">
        <ele>334</ele>
        <time>2015-08-23T08:08:44.000Z</time>
      </trkpt>
      <trkpt lat="47.45171" lon="6.79373">
        <ele>333</ele>
        <time>2015-08-23T08:08:45.000Z</time>
      </trkpt>
      <trkpt lat="47.4517" lon="6.79379">
        <ele>333</ele>
        <time>2015-08-23T08:08:46.000Z</time>
      </trkpt>
      <trkpt lat="47.45169" lon="6.79385">
        <ele>333</ele>
        <time>2015-08-23T08:08:47.000Z</time>
      </trkpt>
      <trkpt lat="47.45167" lon="6.79388">
        <ele>333</ele>
        <time>2015-08-23T08:08:48.000Z</time>
      </trkpt>
      <trkpt lat="47.45165" lon="6.79392">
        <ele>334</ele>
        <time>2015-08-23T08:08:49.000Z</time>
      </trkpt>
      <trkpt lat="47.45162" lon="6.79396">
        <ele>333</ele>
        <time>2015-08-23T08:08:50.000Z</time>
      </trkpt>
      <trkpt lat="47.45159" lon="6.794">
        <ele>333</ele>
        <time>2015-08-23T08:08:51.000Z</time>
      </trkpt>
      <trkpt lat="47.45156" lon="6.79405">
        <ele>333</ele>
        <time>2015-08-23T08:08:52.000Z</time>
      </trkpt>
      <trkpt lat="47.45153" lon="6.79412">
        <ele>333</ele>
        <time>2015-08-23T08:08:53.000Z</time>
      </trkpt>
      <trkpt lat="47.4515" lon="6.79418">
        <ele>333</ele>
        <time>2015-08-23T08:08:54.000Z</time>
      </trkpt>
      <trkpt lat="47.45147" lon="6.79424">
        <ele>333</ele>
        <time>2015-08-23T08:08:55.000Z</time>
      </trkpt>
      <trkpt lat="47.45144" lon="6.79429">
        <ele>333</ele>
        <time>2015-08-23T08:08:56.000Z</time>
      </trkpt>
      <trkpt lat="47.45143" lon="6.79436">
        <ele>333</ele>
        <time>2015-08-23T08:08:57.000Z</time>
      </trkpt>
      <trkpt lat="47.45142" lon="6.79444">
        <ele>333</ele>
        <time>2015-08-23T08:08:58.000Z</time>
      </trkpt>
      <trkpt lat="47.45141" lon="6.79451">
        <ele>333</ele>
        <time>2015-08-23T08:08:59.000Z</time>
      </trkpt>
      <trkpt lat="47.45139" lon="6.79458">
        <ele>333</ele>
        <time>2015-08-23T08:09:00.000Z</time>
      </trkpt>
      <trkpt lat="47.45138" lon="6.79465">
        <ele>333</ele>
        <time>2015-08-23T08:09:01.000Z</time>
      </trkpt>
      <trkpt lat="47.45136" lon="6.79473">
        <ele>333</ele>
        <time>2015-08-23T08:09:02.000Z</time>
      </trkpt>
      <trkpt lat="47.45134" lon="6.79479">
        <ele>333</ele>
        <time>2015-08-23T08:09:03.000Z</time>
      </trkpt>
      <trkpt lat="47.45132" lon="6.79486">
        <ele>333</ele>
        <time>2015-08-23T08:09:04.000Z</time>
      </trkpt>
      <trkpt lat="47.45131" lon="6.79493">
        <ele>333</ele>
        <time>2015-08-23T08:09:05.000Z</time>
      </trkpt>
      <trkpt lat="47.45129" lon="6.795">
        <ele>333</ele>
        <time>2015-08-23T08:09:06.000Z</time>
      </trkpt>
      <trkpt lat="47.45127" lon="6.79507">
        <ele>333</ele>
        <time>2015-08-23T08:09:07.000Z</time>
      </trkpt>
      <trkpt lat="47.45127" lon="6.79517">
        <ele>333</ele>
        <time>2015-08-23T08:09:08.000Z</time>
      </trkpt>
      <trkpt lat="47.45125" lon="6.79524">
        <ele>333</ele>
        <time>2015-08-23T08:09:09.000Z</time>
      </trkpt>
      <trkpt lat="47.4512" lon="6.79529">
        <ele>333</ele>
        <time>2015-08-23T08:09:10.000Z</time>
      </trkpt>
      <trkpt lat="47.45116" lon="6.79535">
        <ele>333</ele>
        <time>2015-08-23T08:09:11.000Z</time>
      </trkpt>
      <trkpt lat="47.45112" lon="6.79542">
        <ele>333</ele>
        <time>2015-08-23T08:09:12.000Z</time>
      </trkpt>
      <trkpt lat="47.45109" lon="6.79549">
        <ele>333</ele>
        <time>2015-08-23T08:09:13.000Z</time>
      </trkpt>
      <trkpt lat="47.45104" lon="6.79555">
        <ele>333</ele>
        <time>2015-08-23T08:09:14.000Z</time>
      </trkpt>
      <trkpt lat="47.451" lon="6.79561">
        <ele>333</ele>
        <time>2015-08-23T08:09:15.000Z</time>
      </trkpt>
      <trkpt lat="47.45096" lon="6.79567">
        <ele>333</ele>
        <time>2015-08-23T08:09:16.000Z</time>
      </trkpt>
      <trkpt lat="47.45091" lon="6.79573">
        <ele>333</ele>
        <time>2015-08-23T08:09:17.000Z</time>
      </trkpt>
      <trkpt lat="47.45087" lon="6.79579">
        <ele>333</ele>
        <time>2015-08-23T08:09:18.000Z</time>
      </trkpt>
      <trkpt lat="47.45083" lon="6.79585">
        <ele>333</ele>
        <time>2015-08-23T08:09:19.000Z</time>
      </trkpt>
      <trkpt lat="47.45078" lon="6.79591">
        <ele>333</ele>
        <time>2015-08-23T08:09:20.000Z</time>
      </trkpt>
      <trkpt lat="47.45074" lon="6.79596">
        <ele>334</ele>
        <time>2015-08-23T08:09:21.000Z</time>
      </trkpt>
      <trkpt lat="47.4507" lon="6.79602">
        <ele>334</ele>
        <time>2015-08-23T08:09:22.000Z</time>
      </trkpt>
      <trkpt lat="47.45066" lon="6.79606">
        <ele>334</ele>
        <time>2015-08-23T08:09:23.000Z</time>
      </trkpt>
      <trkpt lat="47.45062" lon="6.79612">
        <ele>334</ele>
        <time>2015-08-23T08:09:24.000Z</time>
      </trkpt>
      <trkpt lat="47.45058" lon="6.79616">
        <ele>334</ele>
        <time>2015-08-23T08:09:25.000Z</time>
      </trkpt>
      <trkpt lat="47.45055" lon="6.79621">
        <ele>334</ele>
        <time>2015-08-23T08:09:26.000Z</time>
      </trkpt>
      <trkpt lat="47.45052" lon="6.79626">
        <ele>334</ele>
        <time>2015-08-23T08:09:27.000Z</time>
      </trkpt>
      <trkpt lat="47.4505" lon="6.79631">
        <ele>335</ele>
        <time>2015-08-23T08:09:28.000Z</time>
      </trkpt>
      <trkpt lat="47.45048" lon="6.79636">
        <ele>335</ele>
        <time>2015-08-23T08:09:29.000Z</time>
      </trkpt>
      <trkpt lat="47.45046" lon="6.79641">
        <ele>335</ele>
        <time>2015-08-23T08:09:30.000Z</time>
      </trkpt>
      <trkpt lat="47.45044" lon="6.79646">
        <ele>335</ele>
        <time>2015-08-23T08:09:31.000Z</time>
      </trkpt>
      <trkpt lat="47.45042" lon="6.79651">
        <ele>335</ele>
        <time>2015-08-23T08:09:32.000Z</time>
      </trkpt>
      <trkpt lat="47.4504" lon="6.79658">
        <ele>335</ele>
        <time>2015-08-23T08:09:33.000Z</time>
      </trkpt>
      <trkpt lat="47.45039" lon="6.79664">
        <ele>335</ele>
        <time>2015-08-23T08:09:34.000Z</time>
      </trkpt>
      <trkpt lat="47.45038" lon="6.7967">
        <ele>338</ele>
        <time>2015-08-23T08:09:35.000Z</time>
      </trkpt>
      <trkpt lat="47.45038" lon="6.79676">
        <ele>338</ele>
        <time>2015-08-23T08:09:36.000Z</time>
      </trkpt>
      <trkpt lat="47.45037" lon="6.79681">
        <ele>338</ele>
        <time>2015-08-23T08:09:37.000Z</time>
      </trkpt>
      <trkpt lat="47.45037" lon="6.79684">
        <ele>338</ele>
        <time>2015-08-23T08:09:38.000Z</time>
      </trkpt>
      <trkpt lat="47.45037" lon="6.79688">
        <ele>338</ele>
        <time>2015-08-23T08:09:39.000Z</time>
      </trkpt>
      <trkpt lat="47.45037" lon="6.79694">
        <ele>339</ele>
        <time>2015-08-23T08:09:40.000Z</time>
      </trkpt>
      <trkpt lat="47.45037" lon="6.79698">
        <ele>339</ele>
        <time>2015-08-23T08:09:41.000Z</time>
      </trkpt>
      <trkpt lat="47.45037" lon="6.79703">
        <ele>339</ele>
        <time>2015-08-23T08:09:43.000Z</time>
      </trkpt>
      <trkpt lat="47.45037" lon="6.79705">
        <ele>339</ele>
        <time>2015-08-23T08:09:44.000Z</time>
      </trkpt>
      <trkpt lat="47.45035" lon="6.7971">
        <ele>339</ele>
        <time>2015-08-23T08:09:48.000Z</time>
      </trkpt>
      <trkpt lat="47.45034" lon="6.79711">
        <ele>339</ele>
        <time>2015-08-23T08:09:49.000Z</time>
      </trkpt>
      <trkpt lat="47.4503" lon="6.79713">
        <ele>339</ele>
        <time>2015-08-23T08:09:52.000Z</time>
      </trkpt>
      <trkpt lat="47.45029" lon="6.79714">
        <ele>340</ele>
        <time>2015-08-23T08:09:53.000Z</time>
      </trkpt>
      <trkpt lat="47.45025" lon="6.79713">
        <ele>340</ele>
        <time>2015-08-23T08:09:57.000Z</time>
      </trkpt>
      <trkpt lat="47.45024" lon="6.79712">
        <ele>340</ele>
        <time>2015-08-23T08:09:58.000Z</time>
      </trkpt>
      <trkpt lat="47.45021" lon="6.7971">
        <ele>340</ele>
        <time>2015-08-23T08:10:02.000Z</time>
      </trkpt>
      <trkpt lat="47.4502" lon="6.79709">
        <ele>340</ele>
        <time>2015-08-23T08:10:03.000Z</time>
      </trkpt>
      <trkpt lat="47.45016" lon="6.79706">
        <ele>339</ele>
        <time>2015-08-23T08:10:07.000Z</time>
      </trkpt>
      <trkpt lat="47.45015" lon="6.79705">
        <ele>339</ele>
        <time>2015-08-23T08:10:08.000Z</time>
      </trkpt>
      <trkpt lat="47.45012" lon="6.79701">
        <ele>339</ele>
        <time>2015-08-23T08:10:12.000Z</time>
      </trkpt>
      <trkpt lat="47.45012" lon="6.797">
        <ele>339</ele>
        <time>2015-08-23T08:10:13.000Z</time>
      </trkpt>
      <trkpt lat="47.45008" lon="6.79697">
        <ele>339</ele>
        <time>2015-08-23T08:10:17.000Z</time>
      </trkpt>
      <trkpt lat="47.45006" lon="6.79697">
        <ele>339</ele>
        <time>2015-08-23T08:10:18.000Z</time>
      </trkpt>
      <trkpt lat="47.45002" lon="6.79696">
        <ele>339</ele>
        <time>2015-08-23T08:10:21.000Z</time>
      </trkpt>
      <trkpt lat="47.45001" lon="6.79696">
        <ele>339</ele>
        <time>2015-08-23T08:10:22.000Z</time>
      </trkpt>
      <trkpt lat="47.44998" lon="6.79694">
        <ele>341</ele>
        <time>2015-08-23T08:10:24.000Z</time>
      </trkpt>
      <trkpt lat="47.44996" lon="6.79693">
        <ele>341</ele>
        <time>2015-08-23T08:10:25.000Z</time>
      </trkpt>
      <trkpt lat="47.44993" lon="6.79691">
        <ele>341</ele>
        <time>2015-08-23T08:10:27.000Z</time>
      </trkpt>
      <trkpt lat="47.44991" lon="6.79691">
        <ele>341</ele>
        <time>2015-08-23T08:10:28.000Z</time>
      </trkpt>
      <trkpt lat="47.44988" lon="6.7969">
        <ele>341</ele>
        <time>2015-08-23T08:10:30.000Z</time>
      </trkpt>
      <trkpt lat="47.44986" lon="6.7969">
        <ele>342</ele>
        <time>2015-08-23T08:10:31.000Z</time>
      </trkpt>
      <trkpt lat="47.44983" lon="6.79688">
        <ele>342</ele>
        <time>2015-08-23T08:10:33.000Z</time>
      </trkpt>
      <trkpt lat="47.44981" lon="6.79687">
        <ele>342</ele>
        <time>2015-08-23T08:10:34.000Z</time>
      </trkpt>
      <trkpt lat="47.44977" lon="6.79686">
        <ele>342</ele>
        <time>2015-08-23T08:10:36.000Z</time>
      </trkpt>
      <trkpt lat="47.44975" lon="6.79686">
        <ele>342</ele>
        <time>2015-08-23T08:10:37.000Z</time>
      </trkpt>
      <trkpt lat="47.44972" lon="6.79688">
        <ele>342</ele>
        <time>2015-08-23T08:10:39.000Z</time>
      </trkpt>
      <trkpt lat="47.4497" lon="6.79689">
        <ele>342</ele>
        <time>2015-08-23T08:10:40.000Z</time>
      </trkpt>
      <trkpt lat="47.44966" lon="6.79693">
        <ele>343</ele>
        <time>2015-08-23T08:10:42.000Z</time>
      </trkpt>
      <trkpt lat="47.44965" lon="6.79694">
        <ele>343</ele>
        <time>2015-08-23T08:10:43.000Z</time>
      </trkpt>
      <trkpt lat="47.44962" lon="6.79697">
        <ele>343</ele>
        <time>2015-08-23T08:10:45.000Z</time>
      </trkpt>
      <trkpt lat="47.44961" lon="6.79699">
        <ele>343</ele>
        <time>2015-08-23T08:10:46.000Z</time>
      </trkpt>
      <trkpt lat="47.44959" lon="6.79704">
        <ele>344</ele>
        <time>2015-08-23T08:10:48.000Z</time>
      </trkpt>
      <trkpt lat="47.44958" lon="6.79706">
        <ele>344</ele>
        <time>2015-08-23T08:10:49.000Z</time>
      </trkpt>
      <trkpt lat="47.44955" lon="6.79711">
        <ele>344</ele>
        <time>2015-08-23T08:10:51.000Z</time>
      </trkpt>
      <trkpt lat="47.44953" lon="6.79713">
        <ele>344</ele>
        <time>2015-08-23T08:10:52.000Z</time>
      </trkpt>
      <trkpt lat="47.44951" lon="6.79715">
        <ele>344</ele>
        <time>2015-08-23T08:10:53.000Z</time>
      </trkpt>
      <trkpt lat="47.44949" lon="6.79716">
        <ele>344</ele>
        <time>2015-08-23T08:10:54.000Z</time>
      </trkpt>
      <trkpt lat="47.44947" lon="6.79717">
        <ele>345</ele>
        <time>2015-08-23T08:10:55.000Z</time>
      </trkpt>
      <trkpt lat="47.44945" lon="6.79718">
        <ele>345</ele>
        <time>2015-08-23T08:10:56.000Z</time>
      </trkpt>
      <trkpt lat="47.44943" lon="6.79719">
        <ele>345</ele>
        <time>2015-08-23T08:10:57.000Z</time>
      </trkpt>
      <trkpt lat="47.4494" lon="6.79719">
        <ele>345</ele>
        <time>2015-08-23T08:10:58.000Z</time>
      </trkpt>
      <trkpt lat="47.44938" lon="6.7972">
        <ele>345</ele>
        <time>2015-08-23T08:10:59.000Z</time>
      </trkpt>
      <trkpt lat="47.44936" lon="6.79721">
        <ele>345</ele>
        <time>2015-08-23T08:11:00.000Z</time>
      </trkpt>
      <trkpt lat="47.44932" lon="6.79722">
        <ele>345</ele>
        <time>2015-08-23T08:11:02.000Z</time>
      </trkpt>
      <trkpt lat="47.4493" lon="6.79724">
        <ele>346</ele>
        <time>2015-08-23T08:11:03.000Z</time>
      </trkpt>
      <trkpt lat="47.44927" lon="6.79727">
        <ele>346</ele>
        <time>2015-08-23T08:11:05.000Z</time>
      </trkpt>
      <trkpt lat="47.44925" lon="6.79729">
        <ele>346</ele>
        <time>2015-08-23T08:11:06.000Z</time>
      </trkpt>
      <trkpt lat="47.44923" lon="6.7973">
        <ele>347</ele>
        <time>2015-08-23T08:11:07.000Z</time>
      </trkpt>
      <trkpt lat="47.4492" lon="6.79732">
        <ele>347</ele>
        <time>2015-08-23T08:11:08.000Z</time>
      </trkpt>
      <trkpt lat="47.44916" lon="6.79734">
        <ele>348</ele>
        <time>2015-08-23T08:11:10.000Z</time>
      </trkpt>
      <trkpt lat="47.44914" lon="6.79735">
        <ele>348</ele>
        <time>2015-08-23T08:11:11.000Z</time>
      </trkpt>
      <trkpt lat="47.44911" lon="6.79737">
        <ele>348</ele>
        <time>2015-08-23T08:11:13.000Z</time>
      </trkpt>
      <trkpt lat="47.44909" lon="6.79738">
        <ele>348</ele>
        <time>2015-08-23T08:11:14.000Z</time>
      </trkpt>
      <trkpt lat="47.44905" lon="6.79738">
        <ele>348</ele>
        <time>2015-08-23T08:11:16.000Z</time>
      </trkpt>
      <trkpt lat="47.44903" lon="6.79738">
        <ele>348</ele>
        <time>2015-08-23T08:11:17.000Z</time>
      </trkpt>
      <trkpt lat="47.44898" lon="6.79738">
        <ele>348</ele>
        <time>2015-08-23T08:11:19.000Z</time>
      </trkpt>
      <trkpt lat="47.44896" lon="6.79737">
        <ele>348</ele>
        <time>2015-08-23T08:11:20.000Z</time>
      </trkpt>
      <trkpt lat="47.44894" lon="6.79736">
        <ele>348</ele>
        <time>2015-08-23T08:11:21.000Z</time>
      </trkpt>
      <trkpt lat="47.44892" lon="6.79735">
        <ele>348</ele>
        <time>2015-08-23T08:11:22.000Z</time>
      </trkpt>
      <trkpt lat="47.4489" lon="6.79733">
        <ele>347</ele>
        <time>2015-08-23T08:11:23.000Z</time>
      </trkpt>
      <trkpt lat="47.44888" lon="6.79731">
        <ele>347</ele>
        <time>2015-08-23T08:11:24.000Z</time>
      </trkpt>
      <trkpt lat="47.44886" lon="6.79728">
        <ele>347</ele>
        <time>2015-08-23T08:11:25.000Z</time>
      </trkpt>
      <trkpt lat="47.44883" lon="6.79726">
        <ele>347</ele>
        <time>2015-08-23T08:11:26.000Z</time>
      </trkpt>
      <trkpt lat="47.44881" lon="6.79724">
        <ele>347</ele>
        <time>2015-08-23T08:11:27.000Z</time>
      </trkpt>
      <trkpt lat="47.44879" lon="6.79723">
        <ele>347</ele>
        <time>2015-08-23T08:11:28.000Z</time>
      </trkpt>
      <trkpt lat="47.44876" lon="6.79722">
        <ele>347</ele>
        <time>2015-08-23T08:11:29.000Z</time>
      </trkpt>
      <trkpt lat="47.44874" lon="6.79722">
        <ele>347</ele>
        <time>2015-08-23T08:11:30.000Z</time>
      </trkpt>
      <trkpt lat="47.44871" lon="6.79721">
        <ele>347</ele>
        <time>2015-08-23T08:11:31.000Z</time>
      </trkpt>
      <trkpt lat="47.44869" lon="6.7972">
        <ele>347</ele>
        <time>2015-08-23T08:11:32.000Z</time>
      </trkpt>
      <trkpt lat="47.44866" lon="6.79718">
        <ele>347</ele>
        <time>2015-08-23T08:11:33.000Z</time>
      </trkpt>
      <trkpt lat="47.44863" lon="6.79717">
        <ele>347</ele>
        <time>2015-08-23T08:11:34.000Z</time>
      </trkpt>
      <trkpt lat="47.4486" lon="6.79716">
        <ele>347</ele>
        <time>2015-08-23T08:11:35.000Z</time>
      </trkpt>
      <trkpt lat="47.44857" lon="6.79715">
        <ele>347</ele>
        <time>2015-08-23T08:11:36.000Z</time>
      </trkpt>
      <trkpt lat="47.44855" lon="6.79715">
        <ele>347</ele>
        <time>2015-08-23T08:11:37.000Z</time>
      </trkpt>
      <trkpt lat="47.44852" lon="6.79715">
        <ele>347</ele>
        <time>2015-08-23T08:11:38.000Z</time>
      </trkpt>
      <trkpt lat="47.44849" lon="6.79715">
        <ele>347</ele>
        <time>2015-08-23T08:11:39.000Z</time>
      </trkpt>
      <trkpt lat="47.44845" lon="6.79716">
        <ele>347</ele>
        <time>2015-08-23T08:11:40.000Z</time>
      </trkpt>
      <trkpt lat="47.44842" lon="6.79717">
        <ele>347</ele>
        <time>2015-08-23T08:11:41.000Z</time>
      </trkpt>
      <trkpt lat="47.44838" lon="6.79718">
        <ele>347</ele>
        <time>2015-08-23T08:11:42.000Z</time>
      </trkpt>
      <trkpt lat="47.44835" lon="6.79719">
        <ele>347</ele>
        <time>2015-08-23T08:11:43.000Z</time>
      </trkpt>
      <trkpt lat="47.44831" lon="6.79721">
        <ele>347</ele>
        <time>2015-08-23T08:11:44.000Z</time>
      </trkpt>
      <trkpt lat="47.44828" lon="6.79723">
        <ele>348</ele>
        <time>2015-08-23T08:11:45.000Z</time>
      </trkpt>
      <trkpt lat="47.44825" lon="6.79725">
        <ele>348</ele>
        <time>2015-08-23T08:11:46.000Z</time>
      </trkpt>
      <trkpt lat="47.44823" lon="6.79728">
        <ele>348</ele>
        <time>2015-08-23T08:11:47.000Z</time>
      </trkpt>
      <trkpt lat="47.44822" lon="6.79731">
        <ele>348</ele>
        <time>2015-08-23T08:11:48.000Z</time>
      </trkpt>
      <trkpt lat="47.44821" lon="6.79736">
        <ele>349</ele>
        <time>2015-08-23T08:11:49.000Z</time>
      </trkpt>
      <trkpt lat="47.44821" lon="6.79741">
        <ele>349</ele>
        <time>2015-08-23T08:11:50.000Z</time>
      </trkpt>
      <trkpt lat="47.44822" lon="6.79754">
        <ele>352</ele>
        <time>2015-08-23T08:11:51.000Z</time>
      </trkpt>
      <trkpt lat="47.44821" lon="6.79759">
        <ele>352</ele>
        <time>2015-08-23T08:11:52.000Z</time>
      </trkpt>
      <trkpt lat="47.4482" lon="6.79764">
        <ele>352</ele>
        <time>2015-08-23T08:11:53.000Z</time>
      </trkpt>
      <trkpt lat="47.44818" lon="6.7977">
        <ele>352</ele>
        <time>2015-08-23T08:11:54.000Z</time>
      </trkpt>
      <trkpt lat="47.44817" lon="6.79775">
        <ele>352</ele>
        <time>2015-08-23T08:11:55.000Z</time>
      </trkpt>
      <trkpt lat="47.44817" lon="6.79782">
        <ele>353</ele>
        <time>2015-08-23T08:11:56.000Z</time>
      </trkpt>
      <trkpt lat="47.44815" lon="6.79787">
        <ele>353</ele>
        <time>2015-08-23T08:11:57.000Z</time>
      </trkpt>
      <trkpt lat="47.44814" lon="6.79794">
        <ele>353</ele>
        <time>2015-08-23T08:11:58.000Z</time>
      </trkpt>
      <trkpt lat="47.44813" lon="6.79801">
        <ele>353</ele>
        <time>2015-08-23T08:11:59.000Z</time>
      </trkpt>
      <trkpt lat="47.44812" lon="6.79807">
        <ele>353</ele>
        <time>2015-08-23T08:12:00.000Z</time>
      </trkpt>
      <trkpt lat="47.44811" lon="6.79813">
        <ele>353</ele>
        <time>2015-08-23T08:12:01.000Z</time>
      </trkpt>
      <trkpt lat="47.4481" lon="6.7982">
        <ele>353</ele>
        <time>2015-08-23T08:12:02.000Z</time>
      </trkpt>
      <trkpt lat="47.44809" lon="6.79827">
        <ele>353</ele>
        <time>2015-08-23T08:12:03.000Z</time>
      </trkpt>
      <trkpt lat="47.44808" lon="6.79833">
        <ele>353</ele>
        <time>2015-08-23T08:12:04.000Z</time>
      </trkpt>
      <trkpt lat="47.44807" lon="6.79841">
        <ele>354</ele>
        <time>2015-08-23T08:12:05.000Z</time>
      </trkpt>
      <trkpt lat="47.44805" lon="6.79848">
        <ele>354</ele>
        <time>2015-08-23T08:12:06.000Z</time>
      </trkpt>
      <trkpt lat="47.44804" lon="6.79854">
        <ele>354</ele>
        <time>2015-08-23T08:12:07.000Z</time>
      </trkpt>
      <trkpt lat="47.44803" lon="6.7986">
        <ele>354</ele>
        <time>2015-08-23T08:12:08.000Z</time>
      </trkpt>
      <trkpt lat="47.44802" lon="6.79866">
        <ele>355</ele>
        <time>2015-08-23T08:12:09.000Z</time>
      </trkpt>
      <trkpt lat="47.44802" lon="6.79871">
        <ele>355</ele>
        <time>2015-08-23T08:12:10.000Z</time>
      </trkpt>
      <trkpt lat="47.44801" lon="6.79878">
        <ele>355</ele>
        <time>2015-08-23T08:12:11.000Z</time>
      </trkpt>
      <trkpt lat="47.44799" lon="6.79884">
        <ele>355</ele>
        <time>2015-08-23T08:12:12.000Z</time>
      </trkpt>
      <trkpt lat="47.44799" lon="6.79891">
        <ele>355</ele>
        <time>2015-08-23T08:12:13.000Z</time>
      </trkpt>
      <trkpt lat="47.44798" lon="6.79898">
        <ele>355</ele>
        <time>2015-08-23T08:12:14.000Z</time>
      </trkpt>
      <trkpt lat="47.44797" lon="6.79904">
        <ele>355</ele>
        <time>2015-08-23T08:12:15.000Z</time>
      </trkpt>
      <trkpt lat="47.44796" lon="6.7991">
        <ele>355</ele>
        <time>2015-08-23T08:12:16.000Z</time>
      </trkpt>
      <trkpt lat="47.44795" lon="6.79916">
        <ele>355</ele>
        <time>2015-08-23T08:12:17.000Z</time>
      </trkpt>
      <trkpt lat="47.44794" lon="6.79921">
        <ele>356</ele>
        <time>2015-08-23T08:12:18.000Z</time>
      </trkpt>
      <trkpt lat="47.44793" lon="6.79927">
        <ele>356</ele>
        <time>2015-08-23T08:12:19.000Z</time>
      </trkpt>
      <trkpt lat="47.44793" lon="6.79933">
        <ele>356</ele>
        <time>2015-08-23T08:12:20.000Z</time>
      </trkpt>
      <trkpt lat="47.44792" lon="6.79938">
        <ele>356</ele>
        <time>2015-08-23T08:12:21.000Z</time>
      </trkpt>
      <trkpt lat="47.44791" lon="6.79943">
        <ele>356</ele>
        <time>2015-08-23T08:12:22.000Z</time>
      </trkpt>
      <trkpt lat="47.4479" lon="6.79948">
        <ele>356</ele>
        <time>2015-08-23T08:12:23.000Z</time>
      </trkpt>
      <trkpt lat="47.4479" lon="6.79953">
        <ele>356</ele>
        <time>2015-08-23T08:12:24.000Z</time>
      </trkpt>
      <trkpt lat="47.44789" lon="6.79958">
        <ele>356</ele>
        <time>2015-08-23T08:12:25.000Z</time>
      </trkpt>
      <trkpt lat="47.44788" lon="6.79962">
        <ele>356</ele>
        <time>2015-08-23T08:12:26.000Z</time>
      </trkpt>
      <trkpt lat="47.44788" lon="6.79967">
        <ele>356</ele>
        <time>2015-08-23T08:12:27.000Z</time>
      </trkpt>
      <trkpt lat="47.44787" lon="6.79971">
        <ele>356</ele>
        <time>2015-08-23T08:12:28.000Z</time>
      </trkpt>
      <trkpt lat="47.44786" lon="6.79975">
        <ele>356</ele>
        <time>2015-08-23T08:12:29.000Z</time>
      </trkpt>
      <trkpt lat="47.44786" lon="6.79979">
        <ele>356</ele>
        <time>2015-08-23T08:12:30.000Z</time>
      </trkpt>
      <trkpt lat="47.44783" lon="6.79983">
        <ele>356</ele>
        <time>2015-08-23T08:12:33.000Z</time>
      </trkpt>
      <trkpt lat="47.4478" lon="6.79982">
        <ele>356</ele>
        <time>2015-08-23T08:12:34.000Z</time>
      </trkpt>
      <trkpt lat="47.44777" lon="6.7998">
        <ele>356</ele>
        <time>2015-08-23T08:12:35.000Z</time>
      </trkpt>
      <trkpt lat="47.44773" lon="6.79978">
        <ele>356</ele>
        <time>2015-08-23T08:12:36.000Z</time>
      </trkpt>
      <trkpt lat="47.4477" lon="6.79976">
        <ele>356</ele>
        <time>2015-08-23T08:12:37.000Z</time>
      </trkpt>
      <trkpt lat="47.44766" lon="6.79975">
        <ele>356</ele>
        <time>2015-08-23T08:12:38.000Z</time>
      </trkpt>
      <trkpt lat="47.44762" lon="6.79973">
        <ele>356</ele>
        <time>2015-08-23T08:12:39.000Z</time>
      </trkpt>
      <trkpt lat="47.44758" lon="6.79973">
        <ele>357</ele>
        <time>2015-08-23T08:12:40.000Z</time>
      </trkpt>
      <trkpt lat="47.44754" lon="6.79972">
        <ele>357</ele>
        <time>2015-08-23T08:12:41.000Z</time>
      </trkpt>
      <trkpt lat="47.4475" lon="6.79971">
        <ele>357</ele>
        <time>2015-08-23T08:12:42.000Z</time>
      </trkpt>
      <trkpt lat="47.44746" lon="6.79971">
        <ele>358</ele>
        <time>2015-08-23T08:12:43.000Z</time>
      </trkpt>
      <trkpt lat="47.44743" lon="6.7997">
        <ele>359</ele>
        <time>2015-08-23T08:12:44.000Z</time>
      </trkpt>
      <trkpt lat="47.44739" lon="6.79969">
        <ele>359</ele>
        <time>2015-08-23T08:12:45.000Z</time>
      </trkpt>
      <trkpt lat="47.44735" lon="6.79968">
        <ele>359</ele>
        <time>2015-08-23T08:12:46.000Z</time>
      </trkpt>
      <trkpt lat="47.44732" lon="6.79967">
        <ele>359</ele>
        <time>2015-08-23T08:12:47.000Z</time>
      </trkpt>
      <trkpt lat="47.44728" lon="6.79966">
        <ele>359</ele>
        <time>2015-08-23T08:12:48.000Z</time>
      </trkpt>
      <trkpt lat="47.44724" lon="6.79966">
        <ele>359</ele>
        <time>2015-08-23T08:12:49.000Z</time>
      </trkpt>
      <trkpt lat="47.44721" lon="6.79965">
        <ele>359</ele>
        <time>2015-08-23T08:12:50.000Z</time>
      </trkpt>
      <trkpt lat="47.44717" lon="6.79965">
        <ele>359</ele>
        <time>2015-08-23T08:12:51.000Z</time>
      </trkpt>
      <trkpt lat="47.44714" lon="6.79965">
        <ele>359</ele>
        <time>2015-08-23T08:12:52.000Z</time>
      </trkpt>
      <trkpt lat="47.4471" lon="6.79965">
        <ele>359</ele>
        <time>2015-08-23T08:12:53.000Z</time>
      </trkpt>
      <trkpt lat="47.44707" lon="6.79965">
        <ele>359</ele>
        <time>2015-08-23T08:12:54.000Z</time>
      </trkpt>
      <trkpt lat="47.44704" lon="6.79964">
        <ele>359</ele>
        <time>2015-08-23T08:12:55.000Z</time>
      </trkpt>
      <trkpt lat="47.44701" lon="6.79964">
        <ele>359</ele>
        <time>2015-08-23T08:12:56.000Z</time>
      </trkpt>
      <trkpt lat="47.44697" lon="6.79963">
        <ele>359</ele>
        <time>2015-08-23T08:12:57.000Z</time>
      </trkpt>
      <trkpt lat="47.44694" lon="6.79962">
        <ele>359</ele>
        <time>2015-08-23T08:12:58.000Z</time>
      </trkpt>
      <trkpt lat="47.4469" lon="6.79961">
        <ele>359</ele>
        <time>2015-08-23T08:12:59.000Z</time>
      </trkpt>
      <trkpt lat="47.44687" lon="6.79961">
        <ele>359</ele>
        <time>2015-08-23T08:13:00.000Z</time>
      </trkpt>
      <trkpt lat="47.44684" lon="6.7996">
        <ele>359</ele>
        <time>2015-08-23T08:13:01.000Z</time>
      </trkpt>
      <trkpt lat="47.44681" lon="6.7996">
        <ele>359</ele>
        <time>2015-08-23T08:13:02.000Z</time>
      </trkpt>
      <trkpt lat="47.44677" lon="6.79959">
        <ele>359</ele>
        <time>2015-08-23T08:13:03.000Z</time>
      </trkpt>
      <trkpt lat="47.44674" lon="6.79958">
        <ele>360</ele>
        <time>2015-08-23T08:13:04.000Z</time>
      </trkpt>
      <trkpt lat="47.44671" lon="6.79957">
        <ele>360</ele>
        <time>2015-08-23T08:13:05.000Z</time>
      </trkpt>
      <trkpt lat="47.44668" lon="6.79957">
        <ele>360</ele>
        <time>2015-08-23T08:13:06.000Z</time>
      </trkpt>
      <trkpt lat="47.44664" lon="6.79956">
        <ele>361</ele>
        <time>2015-08-23T08:13:07.000Z</time>
      </trkpt>
      <trkpt lat="47.44661" lon="6.79955">
        <ele>361</ele>
        <time>2015-08-23T08:13:08.000Z</time>
      </trkpt>
      <trkpt lat="47.44657" lon="6.79955">
        <ele>361</ele>
        <time>2015-08-23T08:13:09.000Z</time>
      </trkpt>
      <trkpt lat="47.44654" lon="6.79954">
        <ele>361</ele>
        <time>2015-08-23T08:13:10.000Z</time>
      </trkpt>
      <trkpt lat="47.44651" lon="6.79953">
        <ele>361</ele>
        <time>2015-08-23T08:13:11.000Z</time>
      </trkpt>
      <trkpt lat="47.44648" lon="6.79952">
        <ele>361</ele>
        <time>2015-08-23T08:13:12.000Z</time>
      </trkpt>
      <trkpt lat="47.44645" lon="6.79952">
        <ele>362</ele>
        <time>2015-08-23T08:13:13.000Z</time>
      </trkpt>
      <trkpt lat="47.44641" lon="6.79952">
        <ele>362</ele>
        <time>2015-08-23T08:13:14.000Z</time>
      </trkpt>
      <trkpt lat="47.44638" lon="6.79951">
        <ele>362</ele>
        <time>2015-08-23T08:13:15.000Z</time>
      </trkpt>
      <trkpt lat="47.44635" lon="6.79951">
        <ele>362</ele>
        <time>2015-08-23T08:13:16.000Z</time>
      </trkpt>
      <trkpt lat="47.44632" lon="6.79951">
        <ele>362</ele>
        <time>2015-08-23T08:13:17.000Z</time>
      </trkpt>
      <trkpt lat="47.44629" lon="6.7995">
        <ele>362</ele>
        <time>2015-08-23T08:13:18.000Z</time>
      </trkpt>
      <trkpt lat="47.44626" lon="6.79949">
        <ele>362</ele>
        <time>2015-08-23T08:13:19.000Z</time>
      </trkpt>
      <trkpt lat="47.44623" lon="6.79948">
        <ele>362</ele>
        <time>2015-08-23T08:13:20.000Z</time>
      </trkpt>
      <trkpt lat="47.4462" lon="6.79947">
        <ele>362</ele>
        <time>2015-08-23T08:13:21.000Z</time>
      </trkpt>
      <trkpt lat="47.44617" lon="6.79945">
        <ele>362</ele>
        <time>2015-08-23T08:13:22.000Z</time>
      </trkpt>
      <trkpt lat="47.44614" lon="6.79944">
        <ele>362</ele>
        <time>2015-08-23T08:13:23.000Z</time>
      </trkpt>
      <trkpt lat="47.4461" lon="6.79943">
        <ele>362</ele>
        <time>2015-08-23T08:13:24.000Z</time>
      </trkpt>
      <trkpt lat="47.44607" lon="6.79941">
        <ele>362</ele>
        <time>2015-08-23T08:13:25.000Z</time>
      </trkpt>
      <trkpt lat="47.44604" lon="6.7994">
        <ele>362</ele>
        <time>2015-08-23T08:13:26.000Z</time>
      </trkpt>
      <trkpt lat="47.446" lon="6.79939">
        <ele>362</ele>
        <time>2015-08-23T08:13:27.000Z</time>
      </trkpt>
      <trkpt lat="47.44597" lon="6.79937">
        <ele>362</ele>
        <time>2015-08-23T08:13:28.000Z</time>
      </trkpt>
      <trkpt lat="47.44593" lon="6.79936">
        <ele>362</ele>
        <time>2015-08-23T08:13:29.000Z</time>
      </trkpt>
      <trkpt lat="47.4459" lon="6.79935">
        <ele>362</ele>
        <time>2015-08-23T08:13:30.000Z</time>
      </trkpt>
      <trkpt lat="47.44586" lon="6.79934">
        <ele>362</ele>
        <time>2015-08-23T08:13:31.000Z</time>
      </trkpt>
      <trkpt lat="47.44583" lon="6.79933">
        <ele>364</ele>
        <time>2015-08-23T08:13:32.000Z</time>
      </trkpt>
      <trkpt lat="47.44579" lon="6.79932">
        <ele>364</ele>
        <time>2015-08-23T08:13:33.000Z</time>
      </trkpt>
      <trkpt lat="47.44576" lon="6.7993">
        <ele>364</ele>
        <time>2015-08-23T08:13:34.000Z</time>
      </trkpt>
      <trkpt lat="47.44573" lon="6.79929">
        <ele>364</ele>
        <time>2015-08-23T08:13:35.000Z</time>
      </trkpt>
      <trkpt lat="47.4457" lon="6.79928">
        <ele>364</ele>
        <time>2015-08-23T08:13:36.000Z</time>
      </trkpt>
      <trkpt lat="47.44566" lon="6.79927">
        <ele>364</ele>
        <time>2015-08-23T08:13:37.000Z</time>
      </trkpt>
      <trkpt lat="47.44563" lon="6.79925">
        <ele>364</ele>
        <time>2015-08-23T08:13:38.000Z</time>
      </trkpt>
      <trkpt lat="47.44559" lon="6.79924">
        <ele>364</ele>
        <time>2015-08-23T08:13:39.000Z</time>
      </trkpt>
      <trkpt lat="47.44556" lon="6.79923">
        <ele>364</ele>
        <time>2015-08-23T08:13:40.000Z</time>
      </trkpt>
      <trkpt lat="47.44552" lon="6.79922">
        <ele>364</ele>
        <time>2015-08-23T08:13:41.000Z</time>
      </trkpt>
      <trkpt lat="47.44548" lon="6.79921">
        <ele>364</ele>
        <time>2015-08-23T08:13:42.000Z</time>
      </trkpt>
      <trkpt lat="47.44545" lon="6.7992">
        <ele>364</ele>
        <time>2015-08-23T08:13:43.000Z</time>
      </trkpt>
      <trkpt lat="47.44541" lon="6.79919">
        <ele>364</ele>
        <time>2015-08-23T08:13:44.000Z</time>
      </trkpt>
      <trkpt lat="47.44538" lon="6.79918">
        <ele>364</ele>
        <time>2015-08-23T08:13:45.000Z</time>
      </trkpt>
      <trkpt lat="47.44535" lon="6.79917">
        <ele>365</ele>
        <time>2015-08-23T08:13:46.000Z</time>
      </trkpt>
      <trkpt lat="47.44532" lon="6.79916">
        <ele>365</ele>
        <time>2015-08-23T08:13:47.000Z</time>
      </trkpt>
      <trkpt lat="47.44529" lon="6.79914">
        <ele>365</ele>
        <time>2015-08-23T08:13:48.000Z</time>
      </trkpt>
      <trkpt lat="47.44526" lon="6.79914">
        <ele>365</ele>
        <time>2015-08-23T08:13:49.000Z</time>
      </trkpt>
      <trkpt lat="47.44524" lon="6.79913">
        <ele>365</ele>
        <time>2015-08-23T08:13:50.000Z</time>
      </trkpt>
      <trkpt lat="47.44521" lon="6.79913">
        <ele>365</ele>
        <time>2015-08-23T08:13:51.000Z</time>
      </trkpt>
      <trkpt lat="47.44518" lon="6.79913">
        <ele>365</ele>
        <time>2015-08-23T08:13:52.000Z</time>
      </trkpt>
      <trkpt lat="47.44515" lon="6.79913">
        <ele>366</ele>
        <time>2015-08-23T08:13:53.000Z</time>
      </trkpt>
      <trkpt lat="47.44512" lon="6.79912">
        <ele>366</ele>
        <time>2015-08-23T08:13:54.000Z</time>
      </trkpt>
      <trkpt lat="47.44509" lon="6.79912">
        <ele>366</ele>
        <time>2015-08-23T08:13:55.000Z</time>
      </trkpt>
      <trkpt lat="47.44507" lon="6.79912">
        <ele>366</ele>
        <time>2015-08-23T08:13:56.000Z</time>
      </trkpt>
      <trkpt lat="47.44504" lon="6.79912">
        <ele>366</ele>
        <time>2015-08-23T08:13:57.000Z</time>
      </trkpt>
      <trkpt lat="47.44501" lon="6.79913">
        <ele>366</ele>
        <time>2015-08-23T08:13:58.000Z</time>
      </trkpt>
      <trkpt lat="47.44499" lon="6.79912">
        <ele>367</ele>
        <time>2015-08-23T08:13:59.000Z</time>
      </trkpt>
      <trkpt lat="47.44496" lon="6.79912">
        <ele>367</ele>
        <time>2015-08-23T08:14:00.000Z</time>
      </trkpt>
      <trkpt lat="47.44494" lon="6.79912">
        <ele>367</ele>
        <time>2015-08-23T08:14:01.000Z</time>
      </trkpt>
      <trkpt lat="47.44492" lon="6.79912">
        <ele>368</ele>
        <time>2015-08-23T08:14:02.000Z</time>
      </trkpt>
      <trkpt lat="47.44489" lon="6.79912">
        <ele>368</ele>
        <time>2015-08-23T08:14:03.000Z</time>
      </trkpt>
      <trkpt lat="47.44487" lon="6.79911">
        <ele>368</ele>
        <time>2015-08-23T08:14:04.000Z</time>
      </trkpt>
      <trkpt lat="47.44485" lon="6.79911">
        <ele>369</ele>
        <time>2015-08-23T08:14:05.000Z</time>
      </trkpt>
      <trkpt lat="47.44483" lon="6.7991">
        <ele>369</ele>
        <time>2015-08-23T08:14:06.000Z</time>
      </trkpt>
      <trkpt lat="47.4448" lon="6.79909">
        <ele>369</ele>
        <time>2015-08-23T08:14:07.000Z</time>
      </trkpt>
      <trkpt lat="47.44478" lon="6.79908">
        <ele>369</ele>
        <time>2015-08-23T08:14:08.000Z</time>
      </trkpt>
      <trkpt lat="47.44475" lon="6.79906">
        <ele>370</ele>
        <time>2015-08-23T08:14:09.000Z</time>
      </trkpt>
      <trkpt lat="47.44473" lon="6.79905">
        <ele>370</ele>
        <time>2015-08-23T08:14:10.000Z</time>
      </trkpt>
      <trkpt lat="47.4447" lon="6.79905">
        <ele>370</ele>
        <time>2015-08-23T08:14:11.000Z</time>
      </trkpt>
      <trkpt lat="47.44468" lon="6.79904">
        <ele>370</ele>
        <time>2015-08-23T08:14:12.000Z</time>
      </trkpt>
      <trkpt lat="47.44464" lon="6.79902">
        <ele>371</ele>
        <time>2015-08-23T08:14:14.000Z</time>
      </trkpt>
      <trkpt lat="47.44462" lon="6.79901">
        <ele>371</ele>
        <time>2015-08-23T08:14:15.000Z</time>
      </trkpt>
      <trkpt lat="47.44458" lon="6.79899">
        <ele>371</ele>
        <time>2015-08-23T08:14:17.000Z</time>
      </trkpt>
      <trkpt lat="47.44456" lon="6.79898">
        <ele>371</ele>
        <time>2015-08-23T08:14:18.000Z</time>
      </trkpt>
      <trkpt lat="47.44452" lon="6.79896">
        <ele>372</ele>
        <time>2015-08-23T08:14:20.000Z</time>
      </trkpt>
      <trkpt lat="47.4445" lon="6.79895">
        <ele>372</ele>
        <time>2015-08-23T08:14:21.000Z</time>
      </trkpt>
      <trkpt lat="47.44445" lon="6.79893">
        <ele>372</ele>
        <time>2015-08-23T08:14:23.000Z</time>
      </trkpt>
      <trkpt lat="47.44443" lon="6.79892">
        <ele>372</ele>
        <time>2015-08-23T08:14:24.000Z</time>
      </trkpt>
      <trkpt lat="47.4444" lon="6.7989">
        <ele>372</ele>
        <time>2015-08-23T08:14:26.000Z</time>
      </trkpt>
      <trkpt lat="47.44438" lon="6.79889">
        <ele>372</ele>
        <time>2015-08-23T08:14:27.000Z</time>
      </trkpt>
      <trkpt lat="47.44434" lon="6.79887">
        <ele>373</ele>
        <time>2015-08-23T08:14:29.000Z</time>
      </trkpt>
      <trkpt lat="47.44431" lon="6.79887">
        <ele>373</ele>
        <time>2015-08-23T08:14:30.000Z</time>
      </trkpt>
      <trkpt lat="47.44429" lon="6.79886">
        <ele>373</ele>
        <time>2015-08-23T08:14:31.000Z</time>
      </trkpt>
      <trkpt lat="47.44427" lon="6.79885">
        <ele>373</ele>
        <time>2015-08-23T08:14:32.000Z</time>
      </trkpt>
      <trkpt lat="47.44423" lon="6.79883">
        <ele>373</ele>
        <time>2015-08-23T08:14:34.000Z</time>
      </trkpt>
      <trkpt lat="47.44421" lon="6.79882">
        <ele>373</ele>
        <time>2015-08-23T08:14:35.000Z</time>
      </trkpt>
      <trkpt lat="47.44417" lon="6.7988">
        <ele>373</ele>
        <time>2015-08-23T08:14:37.000Z</time>
      </trkpt>
      <trkpt lat="47.44415" lon="6.79879">
        <ele>381</ele>
        <time>2015-08-23T08:14:38.000Z</time>
      </trkpt>
      <trkpt lat="47.44411" lon="6.79877">
        <ele>381</ele>
        <time>2015-08-23T08:14:40.000Z</time>
      </trkpt>
      <trkpt lat="47.44409" lon="6.79877">
        <ele>381</ele>
        <time>2015-08-23T08:14:41.000Z</time>
      </trkpt>
      <trkpt lat="47.44405" lon="6.79875">
        <ele>381</ele>
        <time>2015-08-23T08:14:43.000Z</time>
      </trkpt>
      <trkpt lat="47.44403" lon="6.79874">
        <ele>381</ele>
        <time>2015-08-23T08:14:44.000Z</time>
      </trkpt>
      <trkpt lat="47.44399" lon="6.79873">
        <ele>382</ele>
        <time>2015-08-23T08:14:46.000Z</time>
      </trkpt>
      <trkpt lat="47.44397" lon="6.79873">
        <ele>382</ele>
        <time>2015-08-23T08:14:47.000Z</time>
      </trkpt>
      <trkpt lat="47.44395" lon="6.79872">
        <ele>382</ele>
        <time>2015-08-23T08:14:48.000Z</time>
      </trkpt>
      <trkpt lat="47.44392" lon="6.79871">
        <ele>382</ele>
        <time>2015-08-23T08:14:49.000Z</time>
      </trkpt>
      <trkpt lat="47.4439" lon="6.79869">
        <ele>382</ele>
        <time>2015-08-23T08:14:50.000Z</time>
      </trkpt>
      <trkpt lat="47.44388" lon="6.79867">
        <ele>382</ele>
        <time>2015-08-23T08:14:51.000Z</time>
      </trkpt>
      <trkpt lat="47.44386" lon="6.79864">
        <ele>383</ele>
        <time>2015-08-23T08:14:52.000Z</time>
      </trkpt>
      <trkpt lat="47.44385" lon="6.79862">
        <ele>383</ele>
        <time>2015-08-23T08:14:53.000Z</time>
      </trkpt>
      <trkpt lat="47.44382" lon="6.79856">
        <ele>383</ele>
        <time>2015-08-23T08:14:55.000Z</time>
      </trkpt>
      <trkpt lat="47.44382" lon="6.79853">
        <ele>383</ele>
        <time>2015-08-23T08:14:56.000Z</time>
      </trkpt>
      <trkpt lat="47.44384" lon="6.79848">
        <ele>383</ele>
        <time>2015-08-23T08:14:58.000Z</time>
      </trkpt>
      <trkpt lat="47.44385" lon="6.79846">
        <ele>383</ele>
        <time>2015-08-23T08:14:59.000Z</time>
      </trkpt>
      <trkpt lat="47.44386" lon="6.7984">
        <ele>382</ele>
        <time>2015-08-23T08:15:03.000Z</time>
      </trkpt>
      <trkpt lat="47.44387" lon="6.79839">
        <ele>382</ele>
        <time>2015-08-23T08:15:04.000Z</time>
      </trkpt>
      <trkpt lat="47.44388" lon="6.79833">
        <ele>384</ele>
        <time>2015-08-23T08:15:10.000Z</time>
      </trkpt>
      <trkpt lat="47.44388" lon="6.79832">
        <ele>384</ele>
        <time>2015-08-23T08:15:11.000Z</time>
      </trkpt>
      <trkpt lat="47.44391" lon="6.79828">
        <ele>384</ele>
        <time>2015-08-23T08:15:14.000Z</time>
      </trkpt>
      <trkpt lat="47.44392" lon="6.79827">
        <ele>384</ele>
        <time>2015-08-23T08:15:15.000Z</time>
      </trkpt>
      <trkpt lat="47.44393" lon="6.79822">
        <ele>384</ele>
        <time>2015-08-23T08:15:18.000Z</time>
      </trkpt>
      <trkpt lat="47.44394" lon="6.7982">
        <ele>384</ele>
        <time>2015-08-23T08:15:19.000Z</time>
      </trkpt>
      <trkpt lat="47.44395" lon="6.79814">
        <ele>384</ele>
        <time>2015-08-23T08:15:21.000Z</time>
      </trkpt>
      <trkpt lat="47.44396" lon="6.79812">
        <ele>384</ele>
        <time>2015-08-23T08:15:22.000Z</time>
      </trkpt>
      <trkpt lat="47.44398" lon="6.79807">
        <ele>384</ele>
        <time>2015-08-23T08:15:24.000Z</time>
      </trkpt>
      <trkpt lat="47.44399" lon="6.79805">
        <ele>384</ele>
        <time>2015-08-23T08:15:25.000Z</time>
      </trkpt>
      <trkpt lat="47.444" lon="6.79802">
        <ele>384</ele>
        <time>2015-08-23T08:15:26.000Z</time>
      </trkpt>
      <trkpt lat="47.44402" lon="6.79799">
        <ele>384</ele>
        <time>2015-08-23T08:15:27.000Z</time>
      </trkpt>
      <trkpt lat="47.44403" lon="6.79793">
        <ele>385</ele>
        <time>2015-08-23T08:15:29.000Z</time>
      </trkpt>
      <trkpt lat="47.44403" lon="6.7979">
        <ele>385</ele>
        <time>2015-08-23T08:15:30.000Z</time>
      </trkpt>
      <trkpt lat="47.44401" lon="6.79784">
        <ele>385</ele>
        <time>2015-08-23T08:15:33.000Z</time>
      </trkpt>
      <trkpt lat="47.44399" lon="6.79783">
        <ele>385</ele>
        <time>2015-08-23T08:15:34.000Z</time>
      </trkpt>
      <trkpt lat="47.44396" lon="6.79782">
        <ele>386</ele>
        <time>2015-08-23T08:15:36.000Z</time>
      </trkpt>
      <trkpt lat="47.44395" lon="6.79782">
        <ele>386</ele>
        <time>2015-08-23T08:15:37.000Z</time>
      </trkpt>
      <trkpt lat="47.44391" lon="6.79782">
        <ele>386</ele>
        <time>2015-08-23T08:15:39.000Z</time>
      </trkpt>
      <trkpt lat="47.44389" lon="6.79782">
        <ele>386</ele>
        <time>2015-08-23T08:15:40.000Z</time>
      </trkpt>
      <trkpt lat="47.44386" lon="6.79782">
        <ele>387</ele>
        <time>2015-08-23T08:15:42.000Z</time>
      </trkpt>
      <trkpt lat="47.44384" lon="6.79782">
        <ele>387</ele>
        <time>2015-08-23T08:15:43.000Z</time>
      </trkpt>
      <trkpt lat="47.44381" lon="6.79782">
        <ele>387</ele>
        <time>2015-08-23T08:15:45.000Z</time>
      </trkpt>
      <trkpt lat="47.44379" lon="6.79783">
        <ele>388</ele>
        <time>2015-08-23T08:15:46.000Z</time>
      </trkpt>
      <trkpt lat="47.44376" lon="6.79784">
        <ele>388</ele>
        <time>2015-08-23T08:15:48.000Z</time>
      </trkpt>
      <trkpt lat="47.44374" lon="6.79785">
        <ele>388</ele>
        <time>2015-08-23T08:15:49.000Z</time>
      </trkpt>
      <trkpt lat="47.44371" lon="6.79786">
        <ele>388</ele>
        <time>2015-08-23T08:15:51.000Z</time>
      </trkpt>
      <trkpt lat="47.4437" lon="6.79787">
        <ele>389</ele>
        <time>2015-08-23T08:15:52.000Z</time>
      </trkpt>
      <trkpt lat="47.44366" lon="6.79791">
        <ele>389</ele>
        <time>2015-08-23T08:15:54.000Z</time>
      </trkpt>
      <trkpt lat="47.44365" lon="6.79792">
        <ele>389</ele>
        <time>2015-08-23T08:15:55.000Z</time>
      </trkpt>
      <trkpt lat="47.44361" lon="6.79795">
        <ele>389</ele>
        <time>2015-08-23T08:15:57.000Z</time>
      </trkpt>
      <trkpt lat="47.44359" lon="6.79796">
        <ele>389</ele>
        <time>2015-08-23T08:15:58.000Z</time>
      </trkpt>
      <trkpt lat="47.44356" lon="6.79798">
        <ele>390</ele>
        <time>2015-08-23T08:16:01.000Z</time>
      </trkpt>
      <trkpt lat="47.44355" lon="6.79798">
        <ele>390</ele>
        <time>2015-08-23T08:16:02.000Z</time>
      </trkpt>
      <trkpt lat="47.44351" lon="6.798">
        <ele>390</ele>
        <time>2015-08-23T08:16:04.000Z</time>
      </trkpt>
      <trkpt lat="47.4435" lon="6.79801">
        <ele>390</ele>
        <time>2015-08-23T08:16:05.000Z</time>
      </trkpt>
      <trkpt lat="47.44346" lon="6.79804">
        <ele>391</ele>
        <time>2015-08-23T08:16:08.000Z</time>
      </trkpt>
      <trkpt lat="47.44345" lon="6.79805">
        <ele>391</ele>
        <time>2015-08-23T08:16:09.000Z</time>
      </trkpt>
      <trkpt lat="47.44342" lon="6.79809">
        <ele>391</ele>
        <time>2015-08-23T08:16:13.000Z</time>
      </trkpt>
      <trkpt lat="47.44341" lon="6.7981">
        <ele>391</ele>
        <time>2015-08-23T08:16:14.000Z</time>
      </trkpt>
      <trkpt lat="47.44338" lon="6.79814">
        <ele>392</ele>
        <time>2015-08-23T08:16:16.000Z</time>
      </trkpt>
      <trkpt lat="47.44337" lon="6.79815">
        <ele>392</ele>
        <time>2015-08-23T08:16:17.000Z</time>
      </trkpt>
      <trkpt lat="47.44334" lon="6.79818">
        <ele>392</ele>
        <time>2015-08-23T08:16:19.000Z</time>
      </trkpt>
      <trkpt lat="47.44333" lon="6.79819">
        <ele>401</ele>
        <time>2015-08-23T08:16:20.000Z</time>
      </trkpt>
      <trkpt lat="47.4433" lon="6.79823">
        <ele>400</ele>
        <time>2015-08-23T08:16:22.000Z</time>
      </trkpt>
      <trkpt lat="47.44329" lon="6.79825">
        <ele>400</ele>
        <time>2015-08-23T08:16:23.000Z</time>
      </trkpt>
      <trkpt lat="47.44326" lon="6.79828">
        <ele>400</ele>
        <time>2015-08-23T08:16:25.000Z</time>
      </trkpt>
      <trkpt lat="47.44325" lon="6.7983">
        <ele>400</ele>
        <time>2015-08-23T08:16:26.000Z</time>
      </trkpt>
      <trkpt lat="47.44322" lon="6.79834">
        <ele>399</ele>
        <time>2015-08-23T08:16:29.000Z</time>
      </trkpt>
      <trkpt lat="47.4432" lon="6.79835">
        <ele>399</ele>
        <time>2015-08-23T08:16:30.000Z</time>
      </trkpt>
      <trkpt lat="47.44318" lon="6.79838">
        <ele>400</ele>
        <time>2015-08-23T08:16:32.000Z</time>
      </trkpt>
      <trkpt lat="47.44317" lon="6.79839">
        <ele>400</ele>
        <time>2015-08-23T08:16:32.999Z</time>
      </trkpt>
      <trkpt lat="47.44314" lon="6.79842">
        <ele>401</ele>
        <time>2015-08-23T08:16:34.000Z</time>
      </trkpt>
      <trkpt lat="47.44313" lon="6.79844">
        <ele>401</ele>
        <time>2015-08-23T08:16:35.000Z</time>
      </trkpt>
      <trkpt lat="47.4431" lon="6.79848">
        <ele>402</ele>
        <time>2015-08-23T08:16:37.000Z</time>
      </trkpt>
      <trkpt lat="47.44309" lon="6.7985">
        <ele>402</ele>
        <time>2015-08-23T08:16:38.000Z</time>
      </trkpt>
      <trkpt lat="47.44307" lon="6.79854">
        <ele>402</ele>
        <time>2015-08-23T08:16:40.000Z</time>
      </trkpt>
      <trkpt lat="47.44306" lon="6.79855">
        <ele>403</ele>
        <time>2015-08-23T08:16:41.000Z</time>
      </trkpt>
      <trkpt lat="47.44303" lon="6.79858">
        <ele>403</ele>
        <time>2015-08-23T08:16:44.000Z</time>
      </trkpt>
      <trkpt lat="47.44301" lon="6.7986">
        <ele>403</ele>
        <time>2015-08-23T08:16:45.000Z</time>
      </trkpt>
      <trkpt lat="47.44299" lon="6.79863">
        <ele>404</ele>
        <time>2015-08-23T08:16:47.000Z</time>
      </trkpt>
      <trkpt lat="47.44298" lon="6.79865">
        <ele>404</ele>
        <time>2015-08-23T08:16:48.000Z</time>
      </trkpt>
      <trkpt lat="47.44296" lon="6.7987">
        <ele>404</ele>
        <time>2015-08-23T08:16:51.000Z</time>
      </trkpt>
      <trkpt lat="47.44296" lon="6.79871">
        <ele>404</ele>
        <time>2015-08-23T08:16:52.000Z</time>
      </trkpt>
      <trkpt lat="47.44294" lon="6.79876">
        <ele>404</ele>
        <time>2015-08-23T08:16:56.000Z</time>
      </trkpt>
      <trkpt lat="47.44293" lon="6.79876">
        <ele>404</ele>
        <time>2015-08-23T08:16:57.000Z</time>
      </trkpt>
      <trkpt lat="47.4429" lon="6.79878">
        <ele>404</ele>
        <time>2015-08-23T08:16:59.000Z</time>
      </trkpt>
      <trkpt lat="47.44289" lon="6.79878">
        <ele>405</ele>
        <time>2015-08-23T08:17:00.000Z</time>
      </trkpt>
      <trkpt lat="47.44285" lon="6.79878">
        <ele>405</ele>
        <time>2015-08-23T08:17:02.000Z</time>
      </trkpt>
      <trkpt lat="47.44283" lon="6.79878">
        <ele>405</ele>
        <time>2015-08-23T08:17:03.000Z</time>
      </trkpt>
      <trkpt lat="47.44279" lon="6.79879">
        <ele>406</ele>
        <time>2015-08-23T08:17:06.000Z</time>
      </trkpt>
      <trkpt lat="47.44279" lon="6.7988">
        <ele>406</ele>
        <time>2015-08-23T08:17:07.000Z</time>
      </trkpt>
      <trkpt lat="47.44274" lon="6.7988">
        <ele>406</ele>
        <time>2015-08-23T08:17:11.000Z</time>
      </trkpt>
      <trkpt lat="47.44273" lon="6.7988">
        <ele>407</ele>
        <time>2015-08-23T08:17:12.000Z</time>
      </trkpt>
      <trkpt lat="47.44269" lon="6.79881">
        <ele>407</ele>
        <time>2015-08-23T08:17:14.000Z</time>
      </trkpt>
      <trkpt lat="47.44267" lon="6.79882">
        <ele>407</ele>
        <time>2015-08-23T08:17:15.000Z</time>
      </trkpt>
      <trkpt lat="47.44264" lon="6.79884">
        <ele>407</ele>
        <time>2015-08-23T08:17:17.000Z</time>
      </trkpt>
      <trkpt lat="47.44262" lon="6.79885">
        <ele>408</ele>
        <time>2015-08-23T08:17:18.000Z</time>
      </trkpt>
      <trkpt lat="47.44259" lon="6.79886">
        <ele>408</ele>
        <time>2015-08-23T08:17:20.000Z</time>
      </trkpt>
      <trkpt lat="47.44257" lon="6.79887">
        <ele>408</ele>
        <time>2015-08-23T08:17:21.000Z</time>
      </trkpt>
      <trkpt lat="47.44254" lon="6.79888">
        <ele>408</ele>
        <time>2015-08-23T08:17:23.000Z</time>
      </trkpt>
      <trkpt lat="47.44252" lon="6.79888">
        <ele>408</ele>
        <time>2015-08-23T08:17:24.000Z</time>
      </trkpt>
      <trkpt lat="47.4425" lon="6.79889">
        <ele>420</ele>
        <time>2015-08-23T08:17:25.000Z</time>
      </trkpt>
      <trkpt lat="47.44247" lon="6.7989">
        <ele>420</ele>
        <time>2015-08-23T08:17:26.000Z</time>
      </trkpt>
      <trkpt lat="47.44244" lon="6.79891">
        <ele>420</ele>
        <time>2015-08-23T08:17:28.000Z</time>
      </trkpt>
      <trkpt lat="47.44242" lon="6.79891">
        <ele>420</ele>
        <time>2015-08-23T08:17:29.000Z</time>
      </trkpt>
      <trkpt lat="47.44239" lon="6.79893">
        <ele>420</ele>
        <time>2015-08-23T08:17:31.000Z</time>
      </trkpt>
      <trkpt lat="47.44237" lon="6.79894">
        <ele>420</ele>
        <time>2015-08-23T08:17:32.000Z</time>
      </trkpt>
      <trkpt lat="47.44234" lon="6.79896">
        <ele>420</ele>
        <time>2015-08-23T08:17:34.000Z</time>
      </trkpt>
      <trkpt lat="47.44232" lon="6.79897">
        <ele>420</ele>
        <time>2015-08-23T08:17:35.000Z</time>
      </trkpt>
      <trkpt lat="47.44229" lon="6.79899">
        <ele>420</ele>
        <time>2015-08-23T08:17:37.000Z</time>
      </trkpt>
      <trkpt lat="47.44227" lon="6.799">
        <ele>420</ele>
        <time>2015-08-23T08:17:38.000Z</time>
      </trkpt>
      <trkpt lat="47.44224" lon="6.79903">
        <ele>421</ele>
        <time>2015-08-23T08:17:40.000Z</time>
      </trkpt>
      <trkpt lat="47.44222" lon="6.79904">
        <ele>421</ele>
        <time>2015-08-23T08:17:41.000Z</time>
      </trkpt>
      <trkpt lat="47.44219" lon="6.79907">
        <ele>421</ele>
        <time>2015-08-23T08:17:43.000Z</time>
      </trkpt>
      <trkpt lat="47.44217" lon="6.79908">
        <ele>421</ele>
        <time>2015-08-23T08:17:44.000Z</time>
      </trkpt>
      <trkpt lat="47.44214" lon="6.79911">
        <ele>422</ele>
        <time>2015-08-23T08:17:46.000Z</time>
      </trkpt>
      <trkpt lat="47.44212" lon="6.79913">
        <ele>422</ele>
        <time>2015-08-23T08:17:47.000Z</time>
      </trkpt>
      <trkpt lat="47.44209" lon="6.79916">
        <ele>422</ele>
        <time>2015-08-23T08:17:49.000Z</time>
      </trkpt>
      <trkpt lat="47.44208" lon="6.79916">
        <ele>423</ele>
        <time>2015-08-23T08:17:50.000Z</time>
      </trkpt>
      <trkpt lat="47.44204" lon="6.79917">
        <ele>423</ele>
        <time>2015-08-23T08:17:53.000Z</time>
      </trkpt>
      <trkpt lat="47.44203" lon="6.79916">
        <ele>423</ele>
        <time>2015-08-23T08:17:54.000Z</time>
      </trkpt>
      <trkpt lat="47.442" lon="6.79912">
        <ele>424</ele>
        <time>2015-08-23T08:18:00.000Z</time>
      </trkpt>
      <trkpt lat="47.442" lon="6.7991">
        <ele>424</ele>
        <time>2015-08-23T08:18:01.000Z</time>
      </trkpt>
      <trkpt lat="47.442" lon="6.79904">
        <ele>424</ele>
        <time>2015-08-23T08:18:05.000Z</time>
      </trkpt>
      <trkpt lat="47.442" lon="6.79903">
        <ele>424</ele>
        <time>2015-08-23T08:18:06.000Z</time>
      </trkpt>
      <trkpt lat="47.44201" lon="6.79896">
        <ele>424</ele>
        <time>2015-08-23T08:18:12.000Z</time>
      </trkpt>
      <trkpt lat="47.44201" lon="6.79894">
        <ele>424</ele>
        <time>2015-08-23T08:18:13.000Z</time>
      </trkpt>
      <trkpt lat="47.44201" lon="6.79889">
        <ele>424</ele>
        <time>2015-08-23T08:18:15.000Z</time>
      </trkpt>
      <trkpt lat="47.44201" lon="6.79887">
        <ele>424</ele>
        <time>2015-08-23T08:18:16.000Z</time>
      </trkpt>
      <trkpt lat="47.44201" lon="6.79881">
        <ele>424</ele>
        <time>2015-08-23T08:18:19.000Z</time>
      </trkpt>
      <trkpt lat="47.442" lon="6.79879">
        <ele>425</ele>
        <time>2015-08-23T08:18:20.000Z</time>
      </trkpt>
      <trkpt lat="47.442" lon="6.79874">
        <ele>425</ele>
        <time>2015-08-23T08:18:22.000Z</time>
      </trkpt>
      <trkpt lat="47.442" lon="6.79871">
        <ele>425</ele>
        <time>2015-08-23T08:18:23.000Z</time>
      </trkpt>
      <trkpt lat="47.442" lon="6.79866">
        <ele>425</ele>
        <time>2015-08-23T08:18:25.000Z</time>
      </trkpt>
      <trkpt lat="47.442" lon="6.79863">
        <ele>425</ele>
        <time>2015-08-23T08:18:26.000Z</time>
      </trkpt>
      <trkpt lat="47.44199" lon="6.79858">
        <ele>426</ele>
        <time>2015-08-23T08:18:28.000Z</time>
      </trkpt>
      <trkpt lat="47.44199" lon="6.79855">
        <ele>426</ele>
        <time>2015-08-23T08:18:29.000Z</time>
      </trkpt>
      <trkpt lat="47.44198" lon="6.79851">
        <ele>426</ele>
        <time>2015-08-23T08:18:31.000Z</time>
      </trkpt>
      <trkpt lat="47.44198" lon="6.79848">
        <ele>426</ele>
        <time>2015-08-23T08:18:32.000Z</time>
      </trkpt>
      <trkpt lat="47.44197" lon="6.79843">
        <ele>427</ele>
        <time>2015-08-23T08:18:34.000Z</time>
      </trkpt>
      <trkpt lat="47.44197" lon="6.7984">
        <ele>427</ele>
        <time>2015-08-23T08:18:35.000Z</time>
      </trkpt>
      <trkpt lat="47.44197" lon="6.79834">
        <ele>427</ele>
        <time>2015-08-23T08:18:37.000Z</time>
      </trkpt>
      <trkpt lat="47.44197" lon="6.79832">
        <ele>431</ele>
        <time>2015-08-23T08:18:38.000Z</time>
      </trkpt>
      <trkpt lat="47.44196" lon="6.79825">
        <ele>431</ele>
        <time>2015-08-23T08:18:41.000Z</time>
      </trkpt>
      <trkpt lat="47.44196" lon="6.79824">
        <ele>431</ele>
        <time>2015-08-23T08:18:42.000Z</time>
      </trkpt>
      <trkpt lat="47.44198" lon="6.79819">
        <ele>431</ele>
        <time>2015-08-23T08:18:45.000Z</time>
      </trkpt>
      <trkpt lat="47.44198" lon="6.79816">
        <ele>431</ele>
        <time>2015-08-23T08:18:46.000Z</time>
      </trkpt>
      <trkpt lat="47.44199" lon="6.7981">
        <ele>431</ele>
        <time>2015-08-23T08:18:48.000Z</time>
      </trkpt>
      <trkpt lat="47.44199" lon="6.79807">
        <ele>431</ele>
        <time>2015-08-23T08:18:49.000Z</time>
      </trkpt>
      <trkpt lat="47.44199" lon="6.79802">
        <ele>431</ele>
        <time>2015-08-23T08:18:51.000Z</time>
      </trkpt>
      <trkpt lat="47.44199" lon="6.79799">
        <ele>431</ele>
        <time>2015-08-23T08:18:52.000Z</time>
      </trkpt>
      <trkpt lat="47.44198" lon="6.79793">
        <ele>431</ele>
        <time>2015-08-23T08:18:55.000Z</time>
      </trkpt>
      <trkpt lat="47.44197" lon="6.79791">
        <ele>431</ele>
        <time>2015-08-23T08:18:56.000Z</time>
      </trkpt>
      <trkpt lat="47.44197" lon="6.79785">
        <ele>431</ele>
        <time>2015-08-23T08:19:00.000Z</time>
      </trkpt>
      <trkpt lat="47.44197" lon="6.79783">
        <ele>431</ele>
        <time>2015-08-23T08:19:01.000Z</time>
      </trkpt>
      <trkpt lat="47.44195" lon="6.79778">
        <ele>432</ele>
        <time>2015-08-23T08:19:05.000Z</time>
      </trkpt>
      <trkpt lat="47.44194" lon="6.79776">
        <ele>432</ele>
        <time>2015-08-23T08:19:06.000Z</time>
      </trkpt>
      <trkpt lat="47.44194" lon="6.7977">
        <ele>432</ele>
        <time>2015-08-23T08:19:09.000Z</time>
      </trkpt>
      <trkpt lat="47.44194" lon="6.79768">
        <ele>432</ele>
        <time>2015-08-23T08:19:10.000Z</time>
      </trkpt>
      <trkpt lat="47.44194" lon="6.79762">
        <ele>433</ele>
        <time>2015-08-23T08:19:13.000Z</time>
      </trkpt>
      <trkpt lat="47.44195" lon="6.79759">
        <ele>433</ele>
        <time>2015-08-23T08:19:14.000Z</time>
      </trkpt>
      <trkpt lat="47.44197" lon="6.79753">
        <ele>433</ele>
        <time>2015-08-23T08:19:19.000Z</time>
      </trkpt>
      <trkpt lat="47.44196" lon="6.79753">
        <ele>433</ele>
        <time>2015-08-23T08:19:20.000Z</time>
      </trkpt>
      <trkpt lat="47.44196" lon="6.79747">
        <ele>435</ele>
        <time>2015-08-23T08:20:56.000Z</time>
      </trkpt>
      <trkpt lat="47.44196" lon="6.79745">
        <ele>435</ele>
        <time>2015-08-23T08:20:57.000Z</time>
      </trkpt>
      <trkpt lat="47.44197" lon="6.7974">
        <ele>435</ele>
        <time>2015-08-23T08:20:59.000Z</time>
      </trkpt>
      <trkpt lat="47.44198" lon="6.79737">
        <ele>435</ele>
        <time>2015-08-23T08:21:00.000Z</time>
      </trkpt>
      <trkpt lat="47.44199" lon="6.79731">
        <ele>434</ele>
        <time>2015-08-23T08:21:02.000Z</time>
      </trkpt>
      <trkpt lat="47.442" lon="6.79729">
        <ele>434</ele>
        <time>2015-08-23T08:21:03.000Z</time>
      </trkpt>
      <trkpt lat="47.44201" lon="6.79722">
        <ele>434</ele>
        <time>2015-08-23T08:21:05.000Z</time>
      </trkpt>
      <trkpt lat="47.44201" lon="6.79719">
        <ele>434</ele>
        <time>2015-08-23T08:21:06.000Z</time>
      </trkpt>
      <trkpt lat="47.44201" lon="6.79714">
        <ele>434</ele>
        <time>2015-08-23T08:21:07.000Z</time>
      </trkpt>
      <trkpt lat="47.44201" lon="6.7971">
        <ele>434</ele>
        <time>2015-08-23T08:21:08.000Z</time>
      </trkpt>
      <trkpt lat="47.44202" lon="6.79707">
        <ele>434</ele>
        <time>2015-08-23T08:21:09.000Z</time>
      </trkpt>
      <trkpt lat="47.44202" lon="6.79703">
        <ele>434</ele>
        <time>2015-08-23T08:21:10.000Z</time>
      </trkpt>
      <trkpt lat="47.44202" lon="6.79699">
        <ele>435</ele>
        <time>2015-08-23T08:21:11.000Z</time>
      </trkpt>
      <trkpt lat="47.44202" lon="6.79695">
        <ele>435</ele>
        <time>2015-08-23T08:21:12.000Z</time>
      </trkpt>
      <trkpt lat="47.44201" lon="6.79692">
        <ele>435</ele>
        <time>2015-08-23T08:21:13.000Z</time>
      </trkpt>
      <trkpt lat="47.44201" lon="6.79688">
        <ele>435</ele>
        <time>2015-08-23T08:21:14.000Z</time>
      </trkpt>
      <trkpt lat="47.44197" lon="6.79684">
        <ele>436</ele>
        <time>2015-08-23T08:21:16.000Z</time>
      </trkpt>
      <trkpt lat="47.44196" lon="6.79682">
        <ele>436</ele>
        <time>2015-08-23T08:21:17.000Z</time>
      </trkpt>
      <trkpt lat="47.44194" lon="6.7968">
        <ele>436</ele>
        <time>2015-08-23T08:21:18.000Z</time>
      </trkpt>
      <trkpt lat="47.44191" lon="6.79678">
        <ele>437</ele>
        <time>2015-08-23T08:21:19.000Z</time>
      </trkpt>
      <trkpt lat="47.44189" lon="6.79676">
        <ele>437</ele>
        <time>2015-08-23T08:21:20.000Z</time>
      </trkpt>
      <trkpt lat="47.44187" lon="6.79674">
        <ele>437</ele>
        <time>2015-08-23T08:21:21.000Z</time>
      </trkpt>
      <trkpt lat="47.44185" lon="6.79671">
        <ele>438</ele>
        <time>2015-08-23T08:21:22.000Z</time>
      </trkpt>
      <trkpt lat="47.44183" lon="6.79669">
        <ele>438</ele>
        <time>2015-08-23T08:21:23.000Z</time>
      </trkpt>
      <trkpt lat="47.44181" lon="6.79667">
        <ele>439</ele>
        <time>2015-08-23T08:21:24.000Z</time>
      </trkpt>
      <trkpt lat="47.44178" lon="6.79664">
        <ele>440</ele>
        <time>2015-08-23T08:21:25.000Z</time>
      </trkpt>
      <trkpt lat="47.44176" lon="6.79661">
        <ele>440</ele>
        <time>2015-08-23T08:21:26.000Z</time>
      </trkpt>
      <trkpt lat="47.44174" lon="6.79659">
        <ele>440</ele>
        <time>2015-08-23T08:21:27.000Z</time>
      </trkpt>
      <trkpt lat="47.44172" lon="6.79656">
        <ele>440</ele>
        <time>2015-08-23T08:21:28.000Z</time>
      </trkpt>
      <trkpt lat="47.4417" lon="6.79654">
        <ele>440</ele>
        <time>2015-08-23T08:21:29.000Z</time>
      </trkpt>
      <trkpt lat="47.44167" lon="6.79649">
        <ele>440</ele>
        <time>2015-08-23T08:21:31.000Z</time>
      </trkpt>
      <trkpt lat="47.44166" lon="6.79647">
        <ele>445</ele>
        <time>2015-08-23T08:21:32.000Z</time>
      </trkpt>
      <trkpt lat="47.44164" lon="6.79642">
        <ele>445</ele>
        <time>2015-08-23T08:21:34.000Z</time>
      </trkpt>
      <trkpt lat="47.44162" lon="6.79639">
        <ele>446</ele>
        <time>2015-08-23T08:21:35.000Z</time>
      </trkpt>
      <trkpt lat="47.44159" lon="6.79635">
        <ele>446</ele>
        <time>2015-08-23T08:21:37.000Z</time>
      </trkpt>
      <trkpt lat="47.44157" lon="6.79633">
        <ele>446</ele>
        <time>2015-08-23T08:21:38.000Z</time>
      </trkpt>
      <trkpt lat="47.44155" lon="6.79631">
        <ele>446</ele>
        <time>2015-08-23T08:21:39.000Z</time>
      </trkpt>
      <trkpt lat="47.44153" lon="6.79629">
        <ele>446</ele>
        <time>2015-08-23T08:21:40.000Z</time>
      </trkpt>
      <trkpt lat="47.4415" lon="6.79627">
        <ele>446</ele>
        <time>2015-08-23T08:21:41.000Z</time>
      </trkpt>
      <trkpt lat="47.44148" lon="6.79625">
        <ele>446</ele>
        <time>2015-08-23T08:21:42.000Z</time>
      </trkpt>
      <trkpt lat="47.44145" lon="6.79622">
        <ele>446</ele>
        <time>2015-08-23T08:21:44.000Z</time>
      </trkpt>
      <trkpt lat="47.44143" lon="6.7962">
        <ele>446</ele>
        <time>2015-08-23T08:21:45.000Z</time>
      </trkpt>
      <trkpt lat="47.44141" lon="6.79618">
        <ele>447</ele>
        <time>2015-08-23T08:21:46.000Z</time>
      </trkpt>
      <trkpt lat="47.44138" lon="6.79616">
        <ele>447</ele>
        <time>2015-08-23T08:21:47.000Z</time>
      </trkpt>
      <trkpt lat="47.44136" lon="6.79615">
        <ele>447</ele>
        <time>2015-08-23T08:21:48.000Z</time>
      </trkpt>
      <trkpt lat="47.44134" lon="6.79613">
        <ele>447</ele>
        <time>2015-08-23T08:21:49.000Z</time>
      </trkpt>
      <trkpt lat="47.44131" lon="6.79611">
        <ele>447</ele>
        <time>2015-08-23T08:21:50.000Z</time>
      </trkpt>
      <trkpt lat="47.44129" lon="6.7961">
        <ele>447</ele>
        <time>2015-08-23T08:21:51.000Z</time>
      </trkpt>
      <trkpt lat="47.44127" lon="6.79609">
        <ele>447</ele>
        <time>2015-08-23T08:21:52.000Z</time>
      </trkpt>
      <trkpt lat="47.44124" lon="6.79607">
        <ele>447</ele>
        <time>2015-08-23T08:21:53.000Z</time>
      </trkpt>
      <trkpt lat="47.44121" lon="6.79605">
        <ele>448</ele>
        <time>2015-08-23T08:21:55.000Z</time>
      </trkpt>
      <trkpt lat="47.44119" lon="6.79605">
        <ele>448</ele>
        <time>2015-08-23T08:21:56.000Z</time>
      </trkpt>
      <trkpt lat="47.44116" lon="6.79603">
        <ele>448</ele>
        <time>2015-08-23T08:21:58.000Z</time>
      </trkpt>
      <trkpt lat="47.44113" lon="6.79602">
        <ele>448</ele>
        <time>2015-08-23T08:21:59.000Z</time>
      </trkpt>
      <trkpt lat="47.44111" lon="6.79601">
        <ele>448</ele>
        <time>2015-08-23T08:22:00.000Z</time>
      </trkpt>
      <trkpt lat="47.44109" lon="6.796">
        <ele>449</ele>
        <time>2015-08-23T08:22:01.000Z</time>
      </trkpt>
      <trkpt lat="47.44105" lon="6.79597">
        <ele>449</ele>
        <time>2015-08-23T08:22:03.000Z</time>
      </trkpt>
      <trkpt lat="47.44102" lon="6.79595">
        <ele>449</ele>
        <time>2015-08-23T08:22:04.000Z</time>
      </trkpt>
      <trkpt lat="47.441" lon="6.79593">
        <ele>449</ele>
        <time>2015-08-23T08:22:05.000Z</time>
      </trkpt>
      <trkpt lat="47.44098" lon="6.79591">
        <ele>450</ele>
        <time>2015-08-23T08:22:06.000Z</time>
      </trkpt>
      <trkpt lat="47.44094" lon="6.7959">
        <ele>450</ele>
        <time>2015-08-23T08:22:08.000Z</time>
      </trkpt>
      <trkpt lat="47.44091" lon="6.7959">
        <ele>450</ele>
        <time>2015-08-23T08:22:09.000Z</time>
      </trkpt>
      <trkpt lat="47.44087" lon="6.79588">
        <ele>451</ele>
        <time>2015-08-23T08:22:11.000Z</time>
      </trkpt>
      <trkpt lat="47.44085" lon="6.79586">
        <ele>451</ele>
        <time>2015-08-23T08:22:12.000Z</time>
      </trkpt>
      <trkpt lat="47.44082" lon="6.79583">
        <ele>452</ele>
        <time>2015-08-23T08:22:14.000Z</time>
      </trkpt>
      <trkpt lat="47.4408" lon="6.79582">
        <ele>452</ele>
        <time>2015-08-23T08:22:15.000Z</time>
      </trkpt>
      <trkpt lat="47.44077" lon="6.79579">
        <ele>453</ele>
        <time>2015-08-23T08:22:17.000Z</time>
      </trkpt>
      <trkpt lat="47.44075" lon="6.79578">
        <ele>453</ele>
        <time>2015-08-23T08:22:18.000Z</time>
      </trkpt>
      <trkpt lat="47.44072" lon="6.79577">
        <ele>453</ele>
        <time>2015-08-23T08:22:19.000Z</time>
      </trkpt>
      <trkpt lat="47.44069" lon="6.79576">
        <ele>453</ele>
        <time>2015-08-23T08:22:20.000Z</time>
      </trkpt>
      <trkpt lat="47.44065" lon="6.79576">
        <ele>453</ele>
        <time>2015-08-23T08:22:21.000Z</time>
      </trkpt>
      <trkpt lat="47.44062" lon="6.79575">
        <ele>454</ele>
        <time>2015-08-23T08:22:22.000Z</time>
      </trkpt>
      <trkpt lat="47.44059" lon="6.79574">
        <ele>454</ele>
        <time>2015-08-23T08:22:23.000Z</time>
      </trkpt>
      <trkpt lat="47.44056" lon="6.79572">
        <ele>454</ele>
        <time>2015-08-23T08:22:24.000Z</time>
      </trkpt>
      <trkpt lat="47.44053" lon="6.79571">
        <ele>454</ele>
        <time>2015-08-23T08:22:25.000Z</time>
      </trkpt>
      <trkpt lat="47.4405" lon="6.79569">
        <ele>454</ele>
        <time>2015-08-23T08:22:26.000Z</time>
      </trkpt>
      <trkpt lat="47.44047" lon="6.79568">
        <ele>454</ele>
        <time>2015-08-23T08:22:27.000Z</time>
      </trkpt>
      <trkpt lat="47.44044" lon="6.79567">
        <ele>454</ele>
        <time>2015-08-23T08:22:28.000Z</time>
      </trkpt>
      <trkpt lat="47.44041" lon="6.79565">
        <ele>454</ele>
        <time>2015-08-23T08:22:29.000Z</time>
      </trkpt>
      <trkpt lat="47.44039" lon="6.79565">
        <ele>454</ele>
        <time>2015-08-23T08:22:30.000Z</time>
      </trkpt>
      <trkpt lat="47.44036" lon="6.79565">
        <ele>455</ele>
        <time>2015-08-23T08:22:31.000Z</time>
      </trkpt>
      <trkpt lat="47.44034" lon="6.79564">
        <ele>455</ele>
        <time>2015-08-23T08:22:32.000Z</time>
      </trkpt>
      <trkpt lat="47.4403" lon="6.79563">
        <ele>455</ele>
        <time>2015-08-23T08:22:34.000Z</time>
      </trkpt>
      <trkpt lat="47.44027" lon="6.79562">
        <ele>455</ele>
        <time>2015-08-23T08:22:35.000Z</time>
      </trkpt>
      <trkpt lat="47.44023" lon="6.7956">
        <ele>455</ele>
        <time>2015-08-23T08:22:37.000Z</time>
      </trkpt>
      <trkpt lat="47.44021" lon="6.7956">
        <ele>455</ele>
        <time>2015-08-23T08:22:38.000Z</time>
      </trkpt>
      <trkpt lat="47.44017" lon="6.79559">
        <ele>455</ele>
        <time>2015-08-23T08:22:40.000Z</time>
      </trkpt>
      <trkpt lat="47.44015" lon="6.79559">
        <ele>455</ele>
        <time>2015-08-23T08:22:41.000Z</time>
      </trkpt>
      <trkpt lat="47.4401" lon="6.79561">
        <ele>455</ele>
        <time>2015-08-23T08:22:43.000Z</time>
      </trkpt>
      <trkpt lat="47.44008" lon="6.79562">
        <ele>455</ele>
        <time>2015-08-23T08:22:44.000Z</time>
      </trkpt>
      <trkpt lat="47.44006" lon="6.79563">
        <ele>455</ele>
        <time>2015-08-23T08:22:45.000Z</time>
      </trkpt>
      <trkpt lat="47.44003" lon="6.79564">
        <ele>455</ele>
        <time>2015-08-23T08:22:46.000Z</time>
      </trkpt>
      <trkpt lat="47.44001" lon="6.79565">
        <ele>455</ele>
        <time>2015-08-23T08:22:47.000Z</time>
      </trkpt>
      <trkpt lat="47.43998" lon="6.79566">
        <ele>458</ele>
        <time>2015-08-23T08:22:48.000Z</time>
      </trkpt>
      <trkpt lat="47.43996" lon="6.79567">
        <ele>458</ele>
        <time>2015-08-23T08:22:49.000Z</time>
      </trkpt>
      <trkpt lat="47.43993" lon="6.79568">
        <ele>458</ele>
        <time>2015-08-23T08:22:50.000Z</time>
      </trkpt>
      <trkpt lat="47.43991" lon="6.79569">
        <ele>458</ele>
        <time>2015-08-23T08:22:51.000Z</time>
      </trkpt>
      <trkpt lat="47.43989" lon="6.7957">
        <ele>458</ele>
        <time>2015-08-23T08:22:52.000Z</time>
      </trkpt>
      <trkpt lat="47.43987" lon="6.79571">
        <ele>458</ele>
        <time>2015-08-23T08:22:53.000Z</time>
      </trkpt>
      <trkpt lat="47.43985" lon="6.79572">
        <ele>458</ele>
        <time>2015-08-23T08:22:54.000Z</time>
      </trkpt>
      <trkpt lat="47.43982" lon="6.79574">
        <ele>458</ele>
        <time>2015-08-23T08:22:55.000Z</time>
      </trkpt>
      <trkpt lat="47.4398" lon="6.79576">
        <ele>458</ele>
        <time>2015-08-23T08:22:56.000Z</time>
      </trkpt>
      <trkpt lat="47.43977" lon="6.79579">
        <ele>459</ele>
        <time>2015-08-23T08:22:57.000Z</time>
      </trkpt>
      <trkpt lat="47.43975" lon="6.79581">
        <ele>459</ele>
        <time>2015-08-23T08:22:58.000Z</time>
      </trkpt>
      <trkpt lat="47.43972" lon="6.79582">
        <ele>459</ele>
        <time>2015-08-23T08:22:59.000Z</time>
      </trkpt>
      <trkpt lat="47.4397" lon="6.79583">
        <ele>459</ele>
        <time>2015-08-23T08:23:00.000Z</time>
      </trkpt>
      <trkpt lat="47.43966" lon="6.79583">
        <ele>459</ele>
        <time>2015-08-23T08:23:02.000Z</time>
      </trkpt>
      <trkpt lat="47.43965" lon="6.79583">
        <ele>459</ele>
        <time>2015-08-23T08:23:03.000Z</time>
      </trkpt>
      <trkpt lat="47.43962" lon="6.79583">
        <ele>459</ele>
        <time>2015-08-23T08:23:05.000Z</time>
      </trkpt>
      <trkpt lat="47.4396" lon="6.79582">
        <ele>460</ele>
        <time>2015-08-23T08:23:06.000Z</time>
      </trkpt>
      <trkpt lat="47.43958" lon="6.79581">
        <ele>460</ele>
        <time>2015-08-23T08:23:07.000Z</time>
      </trkpt>
      <trkpt lat="47.43955" lon="6.7958">
        <ele>460</ele>
        <time>2015-08-23T08:23:08.000Z</time>
      </trkpt>
      <trkpt lat="47.43952" lon="6.79579">
        <ele>460</ele>
        <time>2015-08-23T08:23:09.000Z</time>
      </trkpt>
      <trkpt lat="47.43949" lon="6.79578">
        <ele>460</ele>
        <time>2015-08-23T08:23:10.000Z</time>
      </trkpt>
      <trkpt lat="47.43947" lon="6.79577">
        <ele>460</ele>
        <time>2015-08-23T08:23:11.000Z</time>
      </trkpt>
      <trkpt lat="47.43945" lon="6.79576">
        <ele>460</ele>
        <time>2015-08-23T08:23:12.000Z</time>
      </trkpt>
      <trkpt lat="47.43941" lon="6.79575">
        <ele>461</ele>
        <time>2015-08-23T08:23:14.000Z</time>
      </trkpt>
      <trkpt lat="47.43939" lon="6.79574">
        <ele>461</ele>
        <time>2015-08-23T08:23:15.000Z</time>
      </trkpt>
      <trkpt lat="47.43936" lon="6.79573">
        <ele>461</ele>
        <time>2015-08-23T08:23:17.000Z</time>
      </trkpt>
      <trkpt lat="47.43933" lon="6.79572">
        <ele>461</ele>
        <time>2015-08-23T08:23:18.000Z</time>
      </trkpt>
      <trkpt lat="47.4393" lon="6.79572">
        <ele>461</ele>
        <time>2015-08-23T08:23:19.000Z</time>
      </trkpt>
      <trkpt lat="47.43927" lon="6.79571">
        <ele>461</ele>
        <time>2015-08-23T08:23:20.000Z</time>
      </trkpt>
      <trkpt lat="47.43924" lon="6.7957">
        <ele>461</ele>
        <time>2015-08-23T08:23:21.000Z</time>
      </trkpt>
      <trkpt lat="47.43922" lon="6.79567">
        <ele>461</ele>
        <time>2015-08-23T08:23:22.000Z</time>
      </trkpt>
      <trkpt lat="47.4392" lon="6.79565">
        <ele>461</ele>
        <time>2015-08-23T08:23:23.000Z</time>
      </trkpt>
      <trkpt lat="47.43917" lon="6.79563">
        <ele>461</ele>
        <time>2015-08-23T08:23:24.000Z</time>
      </trkpt>
      <trkpt lat="47.43915" lon="6.7956">
        <ele>464</ele>
        <time>2015-08-23T08:23:25.000Z</time>
      </trkpt>
      <trkpt lat="47.43914" lon="6.79558">
        <ele>464</ele>
        <time>2015-08-23T08:23:26.000Z</time>
      </trkpt>
      <trkpt lat="47.43911" lon="6.79553">
        <ele>464</ele>
        <time>2015-08-23T08:23:28.000Z</time>
      </trkpt>
      <trkpt lat="47.43909" lon="6.79551">
        <ele>464</ele>
        <time>2015-08-23T08:23:29.000Z</time>
      </trkpt>
      <trkpt lat="47.43907" lon="6.7955">
        <ele>465</ele>
        <time>2015-08-23T08:23:30.000Z</time>
      </trkpt>
      <trkpt lat="47.43904" lon="6.79548">
        <ele>465</ele>
        <time>2015-08-23T08:23:31.000Z</time>
      </trkpt>
      <trkpt lat="47.43902" lon="6.79547">
        <ele>465</ele>
        <time>2015-08-23T08:23:32.000Z</time>
      </trkpt>
      <trkpt lat="47.43899" lon="6.79546">
        <ele>465</ele>
        <time>2015-08-23T08:23:33.000Z</time>
      </trkpt>
      <trkpt lat="47.43896" lon="6.79545">
        <ele>465</ele>
        <time>2015-08-23T08:23:34.000Z</time>
      </trkpt>
      <trkpt lat="47.43893" lon="6.79543">
        <ele>465</ele>
        <time>2015-08-23T08:23:35.000Z</time>
      </trkpt>
      <trkpt lat="47.4389" lon="6.79542">
        <ele>465</ele>
        <time>2015-08-23T08:23:36.000Z</time>
      </trkpt>
      <trkpt lat="47.43887" lon="6.79541">
        <ele>465</ele>
        <time>2015-08-23T08:23:37.000Z</time>
      </trkpt>
      <trkpt lat="47.43884" lon="6.7954">
        <ele>465</ele>
        <time>2015-08-23T08:23:38.000Z</time>
      </trkpt>
      <trkpt lat="47.43881" lon="6.79539">
        <ele>465</ele>
        <time>2015-08-23T08:23:39.000Z</time>
      </trkpt>
      <trkpt lat="47.43878" lon="6.79539">
        <ele>465</ele>
        <time>2015-08-23T08:23:40.000Z</time>
      </trkpt>
      <trkpt lat="47.43876" lon="6.7954">
        <ele>465</ele>
        <time>2015-08-23T08:23:41.000Z</time>
      </trkpt>
      <trkpt lat="47.43873" lon="6.79541">
        <ele>466</ele>
        <time>2015-08-23T08:23:42.000Z</time>
      </trkpt>
      <trkpt lat="47.43869" lon="6.79542">
        <ele>466</ele>
        <time>2015-08-23T08:23:43.000Z</time>
      </trkpt>
      <trkpt lat="47.43866" lon="6.79544">
        <ele>466</ele>
        <time>2015-08-23T08:23:44.000Z</time>
      </trkpt>
      <trkpt lat="47.43864" lon="6.79545">
        <ele>466</ele>
        <time>2015-08-23T08:23:45.000Z</time>
      </trkpt>
      <trkpt lat="47.43861" lon="6.79546">
        <ele>466</ele>
        <time>2015-08-23T08:23:46.000Z</time>
      </trkpt>
      <trkpt lat="47.43858" lon="6.79546">
        <ele>466</ele>
        <time>2015-08-23T08:23:47.000Z</time>
      </trkpt>
      <trkpt lat="47.43855" lon="6.79546">
        <ele>466</ele>
        <time>2015-08-23T08:23:48.000Z</time>
      </trkpt>
      <trkpt lat="47.43853" lon="6.79546">
        <ele>466</ele>
        <time>2015-08-23T08:23:49.000Z</time>
      </trkpt>
      <trkpt lat="47.43848" lon="6.79545">
        <ele>466</ele>
        <time>2015-08-23T08:23:51.000Z</time>
      </trkpt>
      <trkpt lat="47.43847" lon="6.79545">
        <ele>466</ele>
        <time>2015-08-23T08:23:52.000Z</time>
      </trkpt>
      <trkpt lat="47.43843" lon="6.79545">
        <ele>466</ele>
        <time>2015-08-23T08:23:54.000Z</time>
      </trkpt>
      <trkpt lat="47.43841" lon="6.79545">
        <ele>466</ele>
        <time>2015-08-23T08:23:55.000Z</time>
      </trkpt>
      <trkpt lat="47.43839" lon="6.79546">
        <ele>466</ele>
        <time>2015-08-23T08:23:56.000Z</time>
      </trkpt>
      <trkpt lat="47.43836" lon="6.79548">
        <ele>466</ele>
        <time>2015-08-23T08:23:57.000Z</time>
      </trkpt>
      <trkpt lat="47.43834" lon="6.7955">
        <ele>466</ele>
        <time>2015-08-23T08:23:58.000Z</time>
      </trkpt>
      <trkpt lat="47.43832" lon="6.79551">
        <ele>470</ele>
        <time>2015-08-23T08:23:59.000Z</time>
      </trkpt>
      <trkpt lat="47.4383" lon="6.79553">
        <ele>470</ele>
        <time>2015-08-23T08:24:00.000Z</time>
      </trkpt>
      <trkpt lat="47.43827" lon="6.79554">
        <ele>470</ele>
        <time>2015-08-23T08:24:01.000Z</time>
      </trkpt>
      <trkpt lat="47.43823" lon="6.79553">
        <ele>470</ele>
        <time>2015-08-23T08:24:03.000Z</time>
      </trkpt>
      <trkpt lat="47.43821" lon="6.79551">
        <ele>470</ele>
        <time>2015-08-23T08:24:04.000Z</time>
      </trkpt>
      <trkpt lat="47.4382" lon="6.79548">
        <ele>470</ele>
        <time>2015-08-23T08:24:05.000Z</time>
      </trkpt>
      <trkpt lat="47.43818" lon="6.79545">
        <ele>470</ele>
        <time>2015-08-23T08:24:06.000Z</time>
      </trkpt>
      <trkpt lat="47.43817" lon="6.79542">
        <ele>470</ele>
        <time>2015-08-23T08:24:07.000Z</time>
      </trkpt>
      <trkpt lat="47.43816" lon="6.79539">
        <ele>470</ele>
        <time>2015-08-23T08:24:08.000Z</time>
      </trkpt>
      <trkpt lat="47.43815" lon="6.79535">
        <ele>470</ele>
        <time>2015-08-23T08:24:09.000Z</time>
      </trkpt>
      <trkpt lat="47.43814" lon="6.79532">
        <ele>470</ele>
        <time>2015-08-23T08:24:10.000Z</time>
      </trkpt>
      <trkpt lat="47.43814" lon="6.79528">
        <ele>470</ele>
        <time>2015-08-23T08:24:11.000Z</time>
      </trkpt>
      <trkpt lat="47.43813" lon="6.79523">
        <ele>470</ele>
        <time>2015-08-23T08:24:12.000Z</time>
      </trkpt>
      <trkpt lat="47.43813" lon="6.79518">
        <ele>470</ele>
        <time>2015-08-23T08:24:13.000Z</time>
      </trkpt>
      <trkpt lat="47.43813" lon="6.79514">
        <ele>470</ele>
        <time>2015-08-23T08:24:14.000Z</time>
      </trkpt>
      <trkpt lat="47.43813" lon="6.7951">
        <ele>470</ele>
        <time>2015-08-23T08:24:15.000Z</time>
      </trkpt>
      <trkpt lat="47.43813" lon="6.79505">
        <ele>470</ele>
        <time>2015-08-23T08:24:16.000Z</time>
      </trkpt>
      <trkpt lat="47.43814" lon="6.79501">
        <ele>470</ele>
        <time>2015-08-23T08:24:17.000Z</time>
      </trkpt>
      <trkpt lat="47.43813" lon="6.79496">
        <ele>469</ele>
        <time>2015-08-23T08:24:18.000Z</time>
      </trkpt>
      <trkpt lat="47.43812" lon="6.7949">
        <ele>469</ele>
        <time>2015-08-23T08:24:19.000Z</time>
      </trkpt>
      <trkpt lat="47.4381" lon="6.79483">
        <ele>469</ele>
        <time>2015-08-23T08:24:20.000Z</time>
      </trkpt>
      <trkpt lat="47.43809" lon="6.79478">
        <ele>469</ele>
        <time>2015-08-23T08:24:21.000Z</time>
      </trkpt>
      <trkpt lat="47.43807" lon="6.79472">
        <ele>469</ele>
        <time>2015-08-23T08:24:22.000Z</time>
      </trkpt>
      <trkpt lat="47.43806" lon="6.79468">
        <ele>469</ele>
        <time>2015-08-23T08:24:23.000Z</time>
      </trkpt>
      <trkpt lat="47.43806" lon="6.79465">
        <ele>469</ele>
        <time>2015-08-23T08:24:24.000Z</time>
      </trkpt>
      <trkpt lat="47.43806" lon="6.79461">
        <ele>469</ele>
        <time>2015-08-23T08:24:25.000Z</time>
      </trkpt>
      <trkpt lat="47.43806" lon="6.79458">
        <ele>469</ele>
        <time>2015-08-23T08:24:26.000Z</time>
      </trkpt>
      <trkpt lat="47.43805" lon="6.79454">
        <ele>469</ele>
        <time>2015-08-23T08:24:27.000Z</time>
      </trkpt>
      <trkpt lat="47.43804" lon="6.79451">
        <ele>468</ele>
        <time>2015-08-23T08:24:28.000Z</time>
      </trkpt>
      <trkpt lat="47.43803" lon="6.79447">
        <ele>468</ele>
        <time>2015-08-23T08:24:29.000Z</time>
      </trkpt>
      <trkpt lat="47.43802" lon="6.79442">
        <ele>468</ele>
        <time>2015-08-23T08:24:30.000Z</time>
      </trkpt>
      <trkpt lat="47.43801" lon="6.79438">
        <ele>468</ele>
        <time>2015-08-23T08:24:31.000Z</time>
      </trkpt>
      <trkpt lat="47.43801" lon="6.79433">
        <ele>468</ele>
        <time>2015-08-23T08:24:32.000Z</time>
      </trkpt>
      <trkpt lat="47.438" lon="6.79428">
        <ele>468</ele>
        <time>2015-08-23T08:24:33.000Z</time>
      </trkpt>
      <trkpt lat="47.43797" lon="6.79424">
        <ele>468</ele>
        <time>2015-08-23T08:24:34.000Z</time>
      </trkpt>
      <trkpt lat="47.43793" lon="6.79421">
        <ele>468</ele>
        <time>2015-08-23T08:24:35.000Z</time>
      </trkpt>
      <trkpt lat="47.43789" lon="6.79419">
        <ele>469</ele>
        <time>2015-08-23T08:24:36.000Z</time>
      </trkpt>
      <trkpt lat="47.43785" lon="6.79416">
        <ele>458</ele>
        <time>2015-08-23T08:24:37.000Z</time>
      </trkpt>
      <trkpt lat="47.43782" lon="6.79414">
        <ele>458</ele>
        <time>2015-08-23T08:24:38.000Z</time>
      </trkpt>
      <trkpt lat="47.43778" lon="6.79412">
        <ele>459</ele>
        <time>2015-08-23T08:24:39.000Z</time>
      </trkpt>
      <trkpt lat="47.43774" lon="6.79412">
        <ele>460</ele>
        <time>2015-08-23T08:24:40.000Z</time>
      </trkpt>
      <trkpt lat="47.43769" lon="6.79411">
        <ele>461</ele>
        <time>2015-08-23T08:24:41.000Z</time>
      </trkpt>
      <trkpt lat="47.43765" lon="6.79411">
        <ele>462</ele>
        <time>2015-08-23T08:24:42.000Z</time>
      </trkpt>
      <trkpt lat="47.43761" lon="6.79411">
        <ele>463</ele>
        <time>2015-08-23T08:24:43.000Z</time>
      </trkpt>
      <trkpt lat="47.43757" lon="6.79411">
        <ele>464</ele>
        <time>2015-08-23T08:24:44.000Z</time>
      </trkpt>
      <trkpt lat="47.43754" lon="6.79412">
        <ele>466</ele>
        <time>2015-08-23T08:24:45.000Z</time>
      </trkpt>
      <trkpt lat="47.4375" lon="6.79413">
        <ele>467</ele>
        <time>2015-08-23T08:24:46.000Z</time>
      </trkpt>
      <trkpt lat="47.43747" lon="6.79414">
        <ele>467</ele>
        <time>2015-08-23T08:24:47.000Z</time>
      </trkpt>
      <trkpt lat="47.43743" lon="6.79415">
        <ele>466</ele>
        <time>2015-08-23T08:24:48.000Z</time>
      </trkpt>
      <trkpt lat="47.4374" lon="6.79415">
        <ele>464</ele>
        <time>2015-08-23T08:24:49.000Z</time>
      </trkpt>
      <trkpt lat="47.43737" lon="6.79415">
        <ele>463</ele>
        <time>2015-08-23T08:24:50.000Z</time>
      </trkpt>
      <trkpt lat="47.43734" lon="6.79415">
        <ele>462</ele>
        <time>2015-08-23T08:24:51.000Z</time>
      </trkpt>
      <trkpt lat="47.4373" lon="6.79415">
        <ele>461</ele>
        <time>2015-08-23T08:24:52.000Z</time>
      </trkpt>
      <trkpt lat="47.43726" lon="6.79416">
        <ele>460</ele>
        <time>2015-08-23T08:24:53.000Z</time>
      </trkpt>
      <trkpt lat="47.43723" lon="6.79417">
        <ele>471</ele>
        <time>2015-08-23T08:24:54.000Z</time>
      </trkpt>
      <trkpt lat="47.43719" lon="6.79418">
        <ele>471</ele>
        <time>2015-08-23T08:24:55.000Z</time>
      </trkpt>
      <trkpt lat="47.43716" lon="6.79418">
        <ele>471</ele>
        <time>2015-08-23T08:24:56.000Z</time>
      </trkpt>
      <trkpt lat="47.43712" lon="6.7942">
        <ele>471</ele>
        <time>2015-08-23T08:24:57.000Z</time>
      </trkpt>
      <trkpt lat="47.43709" lon="6.79421">
        <ele>471</ele>
        <time>2015-08-23T08:24:58.000Z</time>
      </trkpt>
      <trkpt lat="47.43706" lon="6.79423">
        <ele>471</ele>
        <time>2015-08-23T08:24:59.000Z</time>
      </trkpt>
      <trkpt lat="47.43703" lon="6.79426">
        <ele>471</ele>
        <time>2015-08-23T08:25:00.000Z</time>
      </trkpt>
      <trkpt lat="47.437" lon="6.79428">
        <ele>471</ele>
        <time>2015-08-23T08:25:01.000Z</time>
      </trkpt>
      <trkpt lat="47.43697" lon="6.7943">
        <ele>471</ele>
        <time>2015-08-23T08:25:02.000Z</time>
      </trkpt>
      <trkpt lat="47.43694" lon="6.79432">
        <ele>471</ele>
        <time>2015-08-23T08:25:03.000Z</time>
      </trkpt>
      <trkpt lat="47.43691" lon="6.79433">
        <ele>471</ele>
        <time>2015-08-23T08:25:04.000Z</time>
      </trkpt>
      <trkpt lat="47.43689" lon="6.79434">
        <ele>471</ele>
        <time>2015-08-23T08:25:05.000Z</time>
      </trkpt>
      <trkpt lat="47.43686" lon="6.79435">
        <ele>471</ele>
        <time>2015-08-23T08:25:06.000Z</time>
      </trkpt>
      <trkpt lat="47.43684" lon="6.79436">
        <ele>471</ele>
        <time>2015-08-23T08:25:07.000Z</time>
      </trkpt>
      <trkpt lat="47.43681" lon="6.79437">
        <ele>471</ele>
        <time>2015-08-23T08:25:08.000Z</time>
      </trkpt>
      <trkpt lat="47.43678" lon="6.79438">
        <ele>471</ele>
        <time>2015-08-23T08:25:09.000Z</time>
      </trkpt>
      <trkpt lat="47.43676" lon="6.79438">
        <ele>471</ele>
        <time>2015-08-23T08:25:10.000Z</time>
      </trkpt>
      <trkpt lat="47.43673" lon="6.79439">
        <ele>471</ele>
        <time>2015-08-23T08:25:11.000Z</time>
      </trkpt>
      <trkpt lat="47.43671" lon="6.79439">
        <ele>471</ele>
        <time>2015-08-23T08:25:12.000Z</time>
      </trkpt>
      <trkpt lat="47.43668" lon="6.79439">
        <ele>471</ele>
        <time>2015-08-23T08:25:13.000Z</time>
      </trkpt>
      <trkpt lat="47.43666" lon="6.79439">
        <ele>471</ele>
        <time>2015-08-23T08:25:14.000Z</time>
      </trkpt>
      <trkpt lat="47.43663" lon="6.79439">
        <ele>471</ele>
        <time>2015-08-23T08:25:15.000Z</time>
      </trkpt>
      <trkpt lat="47.4366" lon="6.7944">
        <ele>471</ele>
        <time>2015-08-23T08:25:16.000Z</time>
      </trkpt>
      <trkpt lat="47.43658" lon="6.7944">
        <ele>471</ele>
        <time>2015-08-23T08:25:17.000Z</time>
      </trkpt>
      <trkpt lat="47.43655" lon="6.79439">
        <ele>471</ele>
        <time>2015-08-23T08:25:18.000Z</time>
      </trkpt>
      <trkpt lat="47.43652" lon="6.79439">
        <ele>471</ele>
        <time>2015-08-23T08:25:19.000Z</time>
      </trkpt>
      <trkpt lat="47.43649" lon="6.79439">
        <ele>472</ele>
        <time>2015-08-23T08:25:20.000Z</time>
      </trkpt>
      <trkpt lat="47.43646" lon="6.79439">
        <ele>472</ele>
        <time>2015-08-23T08:25:21.000Z</time>
      </trkpt>
      <trkpt lat="47.43644" lon="6.79439">
        <ele>472</ele>
        <time>2015-08-23T08:25:22.000Z</time>
      </trkpt>
      <trkpt lat="47.43641" lon="6.79439">
        <ele>472</ele>
        <time>2015-08-23T08:25:23.000Z</time>
      </trkpt>
      <trkpt lat="47.43638" lon="6.79439">
        <ele>472</ele>
        <time>2015-08-23T08:25:24.000Z</time>
      </trkpt>
      <trkpt lat="47.43635" lon="6.79438">
        <ele>472</ele>
        <time>2015-08-23T08:25:25.000Z</time>
      </trkpt>
      <trkpt lat="47.43632" lon="6.79437">
        <ele>472</ele>
        <time>2015-08-23T08:25:26.000Z</time>
      </trkpt>
      <trkpt lat="47.43629" lon="6.79436">
        <ele>472</ele>
        <time>2015-08-23T08:25:27.000Z</time>
      </trkpt>
      <trkpt lat="47.43625" lon="6.79435">
        <ele>471</ele>
        <time>2015-08-23T08:25:28.000Z</time>
      </trkpt>
      <trkpt lat="47.43621" lon="6.79434">
        <ele>471</ele>
        <time>2015-08-23T08:25:29.000Z</time>
      </trkpt>
      <trkpt lat="47.43616" lon="6.79433">
        <ele>471</ele>
        <time>2015-08-23T08:25:30.000Z</time>
      </trkpt>
      <trkpt lat="47.43612" lon="6.79432">
        <ele>471</ele>
        <time>2015-08-23T08:25:31.000Z</time>
      </trkpt>
      <trkpt lat="47.43608" lon="6.79432">
        <ele>471</ele>
        <time>2015-08-23T08:25:32.000Z</time>
      </trkpt>
      <trkpt lat="47.43604" lon="6.79432">
        <ele>470</ele>
        <time>2015-08-23T08:25:33.000Z</time>
      </trkpt>
      <trkpt lat="47.436" lon="6.79432">
        <ele>470</ele>
        <time>2015-08-23T08:25:34.000Z</time>
      </trkpt>
      <trkpt lat="47.43596" lon="6.79431">
        <ele>470</ele>
        <time>2015-08-23T08:25:35.000Z</time>
      </trkpt>
      <trkpt lat="47.43593" lon="6.79431">
        <ele>469</ele>
        <time>2015-08-23T08:25:36.000Z</time>
      </trkpt>
      <trkpt lat="47.43589" lon="6.79432">
        <ele>469</ele>
        <time>2015-08-23T08:25:37.000Z</time>
      </trkpt>
      <trkpt lat="47.43587" lon="6.79433">
        <ele>469</ele>
        <time>2015-08-23T08:25:38.000Z</time>
      </trkpt>
      <trkpt lat="47.43584" lon="6.79435">
        <ele>470</ele>
        <time>2015-08-23T08:25:39.000Z</time>
      </trkpt>
      <trkpt lat="47.43582" lon="6.79436">
        <ele>467</ele>
        <time>2015-08-23T08:25:40.000Z</time>
      </trkpt>
      <trkpt lat="47.43579" lon="6.79438">
        <ele>467</ele>
        <time>2015-08-23T08:25:41.000Z</time>
      </trkpt>
      <trkpt lat="47.43576" lon="6.7944">
        <ele>467</ele>
        <time>2015-08-23T08:25:42.000Z</time>
      </trkpt>
      <trkpt lat="47.43573" lon="6.79441">
        <ele>467</ele>
        <time>2015-08-23T08:25:43.000Z</time>
      </trkpt>
      <trkpt lat="47.43569" lon="6.79443">
        <ele>467</ele>
        <time>2015-08-23T08:25:44.000Z</time>
      </trkpt>
      <trkpt lat="47.43566" lon="6.79445">
        <ele>467</ele>
        <time>2015-08-23T08:25:45.000Z</time>
      </trkpt>
      <trkpt lat="47.43562" lon="6.79446">
        <ele>467</ele>
        <time>2015-08-23T08:25:46.000Z</time>
      </trkpt>
      <trkpt lat="47.43559" lon="6.79447">
        <ele>467</ele>
        <time>2015-08-23T08:25:47.000Z</time>
      </trkpt>
      <trkpt lat="47.43557" lon="6.79449">
        <ele>467</ele>
        <time>2015-08-23T08:25:48.000Z</time>
      </trkpt>
      <trkpt lat="47.43552" lon="6.79449">
        <ele>467</ele>
        <time>2015-08-23T08:25:50.000Z</time>
      </trkpt>
      <trkpt lat="47.43551" lon="6.7945">
        <ele>467</ele>
        <time>2015-08-23T08:25:51.000Z</time>
      </trkpt>
      <trkpt lat="47.43548" lon="6.79451">
        <ele>467</ele>
        <time>2015-08-23T08:25:52.000Z</time>
      </trkpt>
      <trkpt lat="47.43545" lon="6.79452">
        <ele>467</ele>
        <time>2015-08-23T08:25:53.000Z</time>
      </trkpt>
      <trkpt lat="47.43542" lon="6.79453">
        <ele>467</ele>
        <time>2015-08-23T08:25:54.000Z</time>
      </trkpt>
      <trkpt lat="47.43538" lon="6.79454">
        <ele>466</ele>
        <time>2015-08-23T08:25:55.000Z</time>
      </trkpt>
      <trkpt lat="47.43535" lon="6.79454">
        <ele>466</ele>
        <time>2015-08-23T08:25:56.000Z</time>
      </trkpt>
      <trkpt lat="47.43533" lon="6.79455">
        <ele>466</ele>
        <time>2015-08-23T08:25:57.000Z</time>
      </trkpt>
      <trkpt lat="47.43529" lon="6.79458">
        <ele>467</ele>
        <time>2015-08-23T08:25:59.000Z</time>
      </trkpt>
      <trkpt lat="47.43527" lon="6.79459">
        <ele>467</ele>
        <time>2015-08-23T08:26:00.000Z</time>
      </trkpt>
      <trkpt lat="47.43525" lon="6.7946">
        <ele>467</ele>
        <time>2015-08-23T08:26:01.000Z</time>
      </trkpt>
      <trkpt lat="47.43522" lon="6.79462">
        <ele>467</ele>
        <time>2015-08-23T08:26:02.000Z</time>
      </trkpt>
      <trkpt lat="47.43519" lon="6.79463">
        <ele>467</ele>
        <time>2015-08-23T08:26:03.000Z</time>
      </trkpt>
      <trkpt lat="47.43515" lon="6.79464">
        <ele>467</ele>
        <time>2015-08-23T08:26:04.000Z</time>
      </trkpt>
      <trkpt lat="47.43512" lon="6.79464">
        <ele>467</ele>
        <time>2015-08-23T08:26:05.000Z</time>
      </trkpt>
      <trkpt lat="47.43508" lon="6.79465">
        <ele>467</ele>
        <time>2015-08-23T08:26:06.000Z</time>
      </trkpt>
      <trkpt lat="47.43505" lon="6.79466">
        <ele>468</ele>
        <time>2015-08-23T08:26:07.000Z</time>
      </trkpt>
      <trkpt lat="47.43502" lon="6.79467">
        <ele>468</ele>
        <time>2015-08-23T08:26:08.000Z</time>
      </trkpt>
      <trkpt lat="47.43498" lon="6.79469">
        <ele>459</ele>
        <time>2015-08-23T08:26:09.000Z</time>
      </trkpt>
      <trkpt lat="47.43487" lon="6.79481">
        <ele>462</ele>
        <time>2015-08-23T08:26:10.000Z</time>
      </trkpt>
      <trkpt lat="47.43483" lon="6.79484">
        <ele>463</ele>
        <time>2015-08-23T08:26:11.000Z</time>
      </trkpt>
      <trkpt lat="47.4348" lon="6.79485">
        <ele>462</ele>
        <time>2015-08-23T08:26:12.000Z</time>
      </trkpt>
      <trkpt lat="47.43478" lon="6.79488">
        <ele>462</ele>
        <time>2015-08-23T08:26:13.000Z</time>
      </trkpt>
      <trkpt lat="47.43474" lon="6.7949">
        <ele>461</ele>
        <time>2015-08-23T08:26:14.000Z</time>
      </trkpt>
      <trkpt lat="47.4347" lon="6.79493">
        <ele>461</ele>
        <time>2015-08-23T08:26:15.000Z</time>
      </trkpt>
      <trkpt lat="47.43466" lon="6.795">
        <ele>461</ele>
        <time>2015-08-23T08:26:16.000Z</time>
      </trkpt>
      <trkpt lat="47.43462" lon="6.79503">
        <ele>477</ele>
        <time>2015-08-23T08:26:17.000Z</time>
      </trkpt>
      <trkpt lat="47.43459" lon="6.79506">
        <ele>477</ele>
        <time>2015-08-23T08:26:18.000Z</time>
      </trkpt>
      <trkpt lat="47.43456" lon="6.79509">
        <ele>477</ele>
        <time>2015-08-23T08:26:19.000Z</time>
      </trkpt>
      <trkpt lat="47.43453" lon="6.79512">
        <ele>476</ele>
        <time>2015-08-23T08:26:20.000Z</time>
      </trkpt>
      <trkpt lat="47.43451" lon="6.79516">
        <ele>476</ele>
        <time>2015-08-23T08:26:21.000Z</time>
      </trkpt>
      <trkpt lat="47.43448" lon="6.79519">
        <ele>476</ele>
        <time>2015-08-23T08:26:22.000Z</time>
      </trkpt>
      <trkpt lat="47.43445" lon="6.79523">
        <ele>476</ele>
        <time>2015-08-23T08:26:23.000Z</time>
      </trkpt>
      <trkpt lat="47.43442" lon="6.79526">
        <ele>476</ele>
        <time>2015-08-23T08:26:24.000Z</time>
      </trkpt>
      <trkpt lat="47.43438" lon="6.79528">
        <ele>476</ele>
        <time>2015-08-23T08:26:25.000Z</time>
      </trkpt>
      <trkpt lat="47.43435" lon="6.79529">
        <ele>476</ele>
        <time>2015-08-23T08:26:26.000Z</time>
      </trkpt>
      <trkpt lat="47.43432" lon="6.79528">
        <ele>476</ele>
        <time>2015-08-23T08:26:27.000Z</time>
      </trkpt>
      <trkpt lat="47.43428" lon="6.79526">
        <ele>475</ele>
        <time>2015-08-23T08:26:28.000Z</time>
      </trkpt>
      <trkpt lat="47.43424" lon="6.79524">
        <ele>474</ele>
        <time>2015-08-23T08:26:29.000Z</time>
      </trkpt>
      <trkpt lat="47.43421" lon="6.79522">
        <ele>474</ele>
        <time>2015-08-23T08:26:30.000Z</time>
      </trkpt>
      <trkpt lat="47.43417" lon="6.7952">
        <ele>469</ele>
        <time>2015-08-23T08:26:31.000Z</time>
      </trkpt>
      <trkpt lat="47.43413" lon="6.79518">
        <ele>469</ele>
        <time>2015-08-23T08:26:32.000Z</time>
      </trkpt>
      <trkpt lat="47.43409" lon="6.79517">
        <ele>469</ele>
        <time>2015-08-23T08:26:33.000Z</time>
      </trkpt>
      <trkpt lat="47.43404" lon="6.79518">
        <ele>469</ele>
        <time>2015-08-23T08:26:34.000Z</time>
      </trkpt>
      <trkpt lat="47.43399" lon="6.79519">
        <ele>469</ele>
        <time>2015-08-23T08:26:35.000Z</time>
      </trkpt>
      <trkpt lat="47.43395" lon="6.7952">
        <ele>469</ele>
        <time>2015-08-23T08:26:36.000Z</time>
      </trkpt>
      <trkpt lat="47.43391" lon="6.79522">
        <ele>469</ele>
        <time>2015-08-23T08:26:37.000Z</time>
      </trkpt>
      <trkpt lat="47.43387" lon="6.79524">
        <ele>469</ele>
        <time>2015-08-23T08:26:38.000Z</time>
      </trkpt>
      <trkpt lat="47.43384" lon="6.79525">
        <ele>469</ele>
        <time>2015-08-23T08:26:39.000Z</time>
      </trkpt>
      <trkpt lat="47.4338" lon="6.79526">
        <ele>469</ele>
        <time>2015-08-23T08:26:40.000Z</time>
      </trkpt>
      <trkpt lat="47.43377" lon="6.79528">
        <ele>469</ele>
        <time>2015-08-23T08:26:41.000Z</time>
      </trkpt>
      <trkpt lat="47.43374" lon="6.7953">
        <ele>469</ele>
        <time>2015-08-23T08:26:42.000Z</time>
      </trkpt>
      <trkpt lat="47.43371" lon="6.7953">
        <ele>469</ele>
        <time>2015-08-23T08:26:43.000Z</time>
      </trkpt>
      <trkpt lat="47.43369" lon="6.7953">
        <ele>469</ele>
        <time>2015-08-23T08:26:44.000Z</time>
      </trkpt>
      <trkpt lat="47.43367" lon="6.7953">
        <ele>469</ele>
        <time>2015-08-23T08:26:45.000Z</time>
      </trkpt>
      <trkpt lat="47.43364" lon="6.7953">
        <ele>469</ele>
        <time>2015-08-23T08:26:46.000Z</time>
      </trkpt>
      <trkpt lat="47.43362" lon="6.7953">
        <ele>468</ele>
        <time>2015-08-23T08:26:47.000Z</time>
      </trkpt>
      <trkpt lat="47.4336" lon="6.7953">
        <ele>468</ele>
        <time>2015-08-23T08:26:48.000Z</time>
      </trkpt>
      <trkpt lat="47.43357" lon="6.7953">
        <ele>468</ele>
        <time>2015-08-23T08:26:49.000Z</time>
      </trkpt>
      <trkpt lat="47.43355" lon="6.79531">
        <ele>468</ele>
        <time>2015-08-23T08:26:50.000Z</time>
      </trkpt>
      <trkpt lat="47.43352" lon="6.79531">
        <ele>468</ele>
        <time>2015-08-23T08:26:51.000Z</time>
      </trkpt>
      <trkpt lat="47.43348" lon="6.79531">
        <ele>468</ele>
        <time>2015-08-23T08:26:53.000Z</time>
      </trkpt>
      <trkpt lat="47.43345" lon="6.79532">
        <ele>468</ele>
        <time>2015-08-23T08:26:54.000Z</time>
      </trkpt>
      <trkpt lat="47.43343" lon="6.79534">
        <ele>468</ele>
        <time>2015-08-23T08:26:55.000Z</time>
      </trkpt>
      <trkpt lat="47.4334" lon="6.79536">
        <ele>469</ele>
        <time>2015-08-23T08:26:56.000Z</time>
      </trkpt>
      <trkpt lat="47.43338" lon="6.79538">
        <ele>469</ele>
        <time>2015-08-23T08:26:57.000Z</time>
      </trkpt>
      <trkpt lat="47.43335" lon="6.7954">
        <ele>470</ele>
        <time>2015-08-23T08:26:58.000Z</time>
      </trkpt>
      <trkpt lat="47.43333" lon="6.79541">
        <ele>467</ele>
        <time>2015-08-23T08:26:59.000Z</time>
      </trkpt>
      <trkpt lat="47.43331" lon="6.79542">
        <ele>467</ele>
        <time>2015-08-23T08:27:00.000Z</time>
      </trkpt>
      <trkpt lat="47.43327" lon="6.79543">
        <ele>468</ele>
        <time>2015-08-23T08:27:02.000Z</time>
      </trkpt>
      <trkpt lat="47.43325" lon="6.79544">
        <ele>468</ele>
        <time>2015-08-23T08:27:03.000Z</time>
      </trkpt>
      <trkpt lat="47.43321" lon="6.79546">
        <ele>469</ele>
        <time>2015-08-23T08:27:05.000Z</time>
      </trkpt>
      <trkpt lat="47.43319" lon="6.79548">
        <ele>469</ele>
        <time>2015-08-23T08:27:06.000Z</time>
      </trkpt>
      <trkpt lat="47.43316" lon="6.79549">
        <ele>469</ele>
        <time>2015-08-23T08:27:07.000Z</time>
      </trkpt>
      <trkpt lat="47.43314" lon="6.7955">
        <ele>469</ele>
        <time>2015-08-23T08:27:08.000Z</time>
      </trkpt>
      <trkpt lat="47.43312" lon="6.79551">
        <ele>470</ele>
        <time>2015-08-23T08:27:09.000Z</time>
      </trkpt>
      <trkpt lat="47.43309" lon="6.79552">
        <ele>470</ele>
        <time>2015-08-23T08:27:10.000Z</time>
      </trkpt>
      <trkpt lat="47.43307" lon="6.79553">
        <ele>470</ele>
        <time>2015-08-23T08:27:11.000Z</time>
      </trkpt>
      <trkpt lat="47.43304" lon="6.79553">
        <ele>470</ele>
        <time>2015-08-23T08:27:12.000Z</time>
      </trkpt>
      <trkpt lat="47.43301" lon="6.79552">
        <ele>469</ele>
        <time>2015-08-23T08:27:13.000Z</time>
      </trkpt>
      <trkpt lat="47.43298" lon="6.79552">
        <ele>469</ele>
        <time>2015-08-23T08:27:14.000Z</time>
      </trkpt>
      <trkpt lat="47.43294" lon="6.79552">
        <ele>469</ele>
        <time>2015-08-23T08:27:15.000Z</time>
      </trkpt>
      <trkpt lat="47.4329" lon="6.79552">
        <ele>469</ele>
        <time>2015-08-23T08:27:16.000Z</time>
      </trkpt>
      <trkpt lat="47.43285" lon="6.79552">
        <ele>469</ele>
        <time>2015-08-23T08:27:17.000Z</time>
      </trkpt>
      <trkpt lat="47.4328" lon="6.79551">
        <ele>469</ele>
        <time>2015-08-23T08:27:18.000Z</time>
      </trkpt>
      <trkpt lat="47.43275" lon="6.79551">
        <ele>469</ele>
        <time>2015-08-23T08:27:19.000Z</time>
      </trkpt>
      <trkpt lat="47.43269" lon="6.7955">
        <ele>469</ele>
        <time>2015-08-23T08:27:20.000Z</time>
      </trkpt>
      <trkpt lat="47.43264" lon="6.7955">
        <ele>469</ele>
        <time>2015-08-23T08:27:21.000Z</time>
      </trkpt>
      <trkpt lat="47.43258" lon="6.79551">
        <ele>470</ele>
        <time>2015-08-23T08:27:22.000Z</time>
      </trkpt>
      <trkpt lat="47.43254" lon="6.79552">
        <ele>470</ele>
        <time>2015-08-23T08:27:23.000Z</time>
      </trkpt>
      <trkpt lat="47.43249" lon="6.79554">
        <ele>470</ele>
        <time>2015-08-23T08:27:24.000Z</time>
      </trkpt>
      <trkpt lat="47.43245" lon="6.79555">
        <ele>471</ele>
        <time>2015-08-23T08:27:25.000Z</time>
      </trkpt>
      <trkpt lat="47.43241" lon="6.79556">
        <ele>471</ele>
        <time>2015-08-23T08:27:26.000Z</time>
      </trkpt>
      <trkpt lat="47.43237" lon="6.79556">
        <ele>470</ele>
        <time>2015-08-23T08:27:27.000Z</time>
      </trkpt>
      <trkpt lat="47.43234" lon="6.79556">
        <ele>470</ele>
        <time>2015-08-23T08:27:28.000Z</time>
      </trkpt>
      <trkpt lat="47.4323" lon="6.79555">
        <ele>469</ele>
        <time>2015-08-23T08:27:29.000Z</time>
      </trkpt>
      <trkpt lat="47.43226" lon="6.79554">
        <ele>469</ele>
        <time>2015-08-23T08:27:30.000Z</time>
      </trkpt>
      <trkpt lat="47.43222" lon="6.79554">
        <ele>468</ele>
        <time>2015-08-23T08:27:31.000Z</time>
      </trkpt>
      <trkpt lat="47.43218" lon="6.79553">
        <ele>468</ele>
        <time>2015-08-23T08:27:32.000Z</time>
      </trkpt>
      <trkpt lat="47.43214" lon="6.79553">
        <ele>468</ele>
        <time>2015-08-23T08:27:33.000Z</time>
      </trkpt>
      <trkpt lat="47.4321" lon="6.79554">
        <ele>468</ele>
        <time>2015-08-23T08:27:34.000Z</time>
      </trkpt>
      <trkpt lat="47.43206" lon="6.79554">
        <ele>468</ele>
        <time>2015-08-23T08:27:35.000Z</time>
      </trkpt>
      <trkpt lat="47.43203" lon="6.79555">
        <ele>468</ele>
        <time>2015-08-23T08:27:36.000Z</time>
      </trkpt>
      <trkpt lat="47.432" lon="6.79555">
        <ele>468</ele>
        <time>2015-08-23T08:27:37.000Z</time>
      </trkpt>
      <trkpt lat="47.43196" lon="6.79555">
        <ele>468</ele>
        <time>2015-08-23T08:27:39.000Z</time>
      </trkpt>
      <trkpt lat="47.43195" lon="6.79555">
        <ele>469</ele>
        <time>2015-08-23T08:27:40.000Z</time>
      </trkpt>
      <trkpt lat="47.43192" lon="6.79556">
        <ele>469</ele>
        <time>2015-08-23T08:27:43.000Z</time>
      </trkpt>
      <trkpt lat="47.4319" lon="6.79556">
        <ele>469</ele>
        <time>2015-08-23T08:27:44.000Z</time>
      </trkpt>
      <trkpt lat="47.43187" lon="6.79558">
        <ele>470</ele>
        <time>2015-08-23T08:27:45.000Z</time>
      </trkpt>
      <trkpt lat="47.43185" lon="6.79559">
        <ele>470</ele>
        <time>2015-08-23T08:27:46.000Z</time>
      </trkpt>
      <trkpt lat="47.43182" lon="6.7956">
        <ele>471</ele>
        <time>2015-08-23T08:27:47.000Z</time>
      </trkpt>
      <trkpt lat="47.43179" lon="6.79561">
        <ele>471</ele>
        <time>2015-08-23T08:27:48.000Z</time>
      </trkpt>
      <trkpt lat="47.43176" lon="6.79562">
        <ele>472</ele>
        <time>2015-08-23T08:27:49.000Z</time>
      </trkpt>
      <trkpt lat="47.43173" lon="6.79564">
        <ele>473</ele>
        <time>2015-08-23T08:27:50.000Z</time>
      </trkpt>
      <trkpt lat="47.43171" lon="6.79568">
        <ele>475</ele>
        <time>2015-08-23T08:27:51.000Z</time>
      </trkpt>
      <trkpt lat="47.43169" lon="6.79571">
        <ele>477</ele>
        <time>2015-08-23T08:27:52.000Z</time>
      </trkpt>
      <trkpt lat="47.43167" lon="6.79575">
        <ele>479</ele>
        <time>2015-08-23T08:27:53.000Z</time>
      </trkpt>
      <trkpt lat="47.43166" lon="6.79579">
        <ele>482</ele>
        <time>2015-08-23T08:27:54.000Z</time>
      </trkpt>
      <trkpt lat="47.43164" lon="6.79583">
        <ele>483</ele>
        <time>2015-08-23T08:27:55.000Z</time>
      </trkpt>
      <trkpt lat="47.43163" lon="6.79586">
        <ele>486</ele>
        <time>2015-08-23T08:27:56.000Z</time>
      </trkpt>
      <trkpt lat="47.4316" lon="6.79589">
        <ele>486</ele>
        <time>2015-08-23T08:27:58.000Z</time>
      </trkpt>
      <trkpt lat="47.43159" lon="6.79591">
        <ele>486</ele>
        <time>2015-08-23T08:27:59.000Z</time>
      </trkpt>
      <trkpt lat="47.43156" lon="6.79595">
        <ele>487</ele>
        <time>2015-08-23T08:28:01.000Z</time>
      </trkpt>
      <trkpt lat="47.43154" lon="6.79596">
        <ele>487</ele>
        <time>2015-08-23T08:28:02.000Z</time>
      </trkpt>
      <trkpt lat="47.43151" lon="6.79597">
        <ele>487</ele>
        <time>2015-08-23T08:28:03.000Z</time>
      </trkpt>
      <trkpt lat="47.43149" lon="6.79596">
        <ele>487</ele>
        <time>2015-08-23T08:28:04.000Z</time>
      </trkpt>
      <trkpt lat="47.43145" lon="6.79595">
        <ele>487</ele>
        <time>2015-08-23T08:28:06.000Z</time>
      </trkpt>
      <trkpt lat="47.43143" lon="6.79595">
        <ele>487</ele>
        <time>2015-08-23T08:28:07.000Z</time>
      </trkpt>
      <trkpt lat="47.43139" lon="6.79595">
        <ele>487</ele>
        <time>2015-08-23T08:28:09.000Z</time>
      </trkpt>
      <trkpt lat="47.43136" lon="6.79594">
        <ele>487</ele>
        <time>2015-08-23T08:28:10.000Z</time>
      </trkpt>
      <trkpt lat="47.43133" lon="6.79593">
        <ele>487</ele>
        <time>2015-08-23T08:28:11.000Z</time>
      </trkpt>
      <trkpt lat="47.43131" lon="6.79592">
        <ele>487</ele>
        <time>2015-08-23T08:28:12.000Z</time>
      </trkpt>
      <trkpt lat="47.43128" lon="6.7959">
        <ele>487</ele>
        <time>2015-08-23T08:28:13.000Z</time>
      </trkpt>
      <trkpt lat="47.43127" lon="6.79588">
        <ele>487</ele>
        <time>2015-08-23T08:28:14.000Z</time>
      </trkpt>
      <trkpt lat="47.43125" lon="6.79585">
        <ele>487</ele>
        <time>2015-08-23T08:28:15.000Z</time>
      </trkpt>
      <trkpt lat="47.43123" lon="6.79582">
        <ele>473</ele>
        <time>2015-08-23T08:28:16.000Z</time>
      </trkpt>
      <trkpt lat="47.43121" lon="6.79579">
        <ele>472</ele>
        <time>2015-08-23T08:28:17.000Z</time>
      </trkpt>
      <trkpt lat="47.43119" lon="6.79578">
        <ele>472</ele>
        <time>2015-08-23T08:28:18.000Z</time>
      </trkpt>
      <trkpt lat="47.43116" lon="6.79577">
        <ele>473</ele>
        <time>2015-08-23T08:28:19.000Z</time>
      </trkpt>
      <trkpt lat="47.43114" lon="6.79576">
        <ele>473</ele>
        <time>2015-08-23T08:28:20.000Z</time>
      </trkpt>
      <trkpt lat="47.43111" lon="6.79578">
        <ele>473</ele>
        <time>2015-08-23T08:28:21.000Z</time>
      </trkpt>
      <trkpt lat="47.43109" lon="6.7958">
        <ele>474</ele>
        <time>2015-08-23T08:28:22.000Z</time>
      </trkpt>
      <trkpt lat="47.43107" lon="6.79582">
        <ele>474</ele>
        <time>2015-08-23T08:28:23.000Z</time>
      </trkpt>
      <trkpt lat="47.43105" lon="6.79584">
        <ele>487</ele>
        <time>2015-08-23T08:28:24.000Z</time>
      </trkpt>
      <trkpt lat="47.43103" lon="6.79584">
        <ele>487</ele>
        <time>2015-08-23T08:28:25.000Z</time>
      </trkpt>
      <trkpt lat="47.431" lon="6.79584">
        <ele>487</ele>
        <time>2015-08-23T08:28:26.000Z</time>
      </trkpt>
      <trkpt lat="47.43097" lon="6.79584">
        <ele>486</ele>
        <time>2015-08-23T08:28:27.000Z</time>
      </trkpt>
      <trkpt lat="47.43093" lon="6.79584">
        <ele>486</ele>
        <time>2015-08-23T08:28:28.000Z</time>
      </trkpt>
      <trkpt lat="47.4309" lon="6.79583">
        <ele>480</ele>
        <time>2015-08-23T08:28:29.000Z</time>
      </trkpt>
      <trkpt lat="47.43088" lon="6.79581">
        <ele>481</ele>
        <time>2015-08-23T08:28:30.000Z</time>
      </trkpt>
      <trkpt lat="47.43086" lon="6.79575">
        <ele>479</ele>
        <time>2015-08-23T08:28:32.000Z</time>
      </trkpt>
      <trkpt lat="47.43086" lon="6.79572">
        <ele>477</ele>
        <time>2015-08-23T08:28:33.000Z</time>
      </trkpt>
      <trkpt lat="47.43082" lon="6.79573">
        <ele>479</ele>
        <time>2015-08-23T08:30:40.000Z</time>
      </trkpt>
      <trkpt lat="47.43082" lon="6.79573">
        <ele>479</ele>
        <time>2015-08-23T08:30:41.000Z</time>
      </trkpt>
      <trkpt lat="47.43083" lon="6.79577">
        <ele>481</ele>
        <time>2015-08-23T08:34:43.000Z</time>
      </trkpt>
      <trkpt lat="47.43083" lon="6.79579">
        <ele>482</ele>
        <time>2015-08-23T08:34:44.000Z</time>
      </trkpt>
      <trkpt lat="47.43083" lon="6.79585">
        <ele>485</ele>
        <time>2015-08-23T08:34:48.000Z</time>
      </trkpt>
      <trkpt lat="47.43083" lon="6.79587">
        <ele>486</ele>
        <time>2015-08-23T08:34:49.000Z</time>
      </trkpt>
      <trkpt lat="47.43082" lon="6.79592">
        <ele>486</ele>
        <time>2015-08-23T08:34:59.000Z</time>
      </trkpt>
      <trkpt lat="47.43082" lon="6.79595">
        <ele>487</ele>
        <time>2015-08-23T08:35:00.000Z</time>
      </trkpt>
      <trkpt lat="47.43082" lon="6.79601">
        <ele>487</ele>
        <time>2015-08-23T08:35:02.000Z</time>
      </trkpt>
      <trkpt lat="47.43081" lon="6.79603">
        <ele>487</ele>
        <time>2015-08-23T08:35:03.000Z</time>
      </trkpt>
      <trkpt lat="47.43079" lon="6.79606">
        <ele>488</ele>
        <time>2015-08-23T08:35:05.000Z</time>
      </trkpt>
      <trkpt lat="47.43078" lon="6.79607">
        <ele>488</ele>
        <time>2015-08-23T08:35:06.000Z</time>
      </trkpt>
      <trkpt lat="47.43074" lon="6.79608">
        <ele>488</ele>
        <time>2015-08-23T08:35:08.000Z</time>
      </trkpt>
      <trkpt lat="47.43071" lon="6.79609">
        <ele>488</ele>
        <time>2015-08-23T08:35:09.000Z</time>
      </trkpt>
      <trkpt lat="47.43067" lon="6.7961">
        <ele>488</ele>
        <time>2015-08-23T08:35:10.000Z</time>
      </trkpt>
      <trkpt lat="47.43063" lon="6.79612">
        <ele>488</ele>
        <time>2015-08-23T08:35:11.000Z</time>
      </trkpt>
      <trkpt lat="47.43059" lon="6.79615">
        <ele>489</ele>
        <time>2015-08-23T08:35:12.000Z</time>
      </trkpt>
      <trkpt lat="47.43056" lon="6.79618">
        <ele>489</ele>
        <time>2015-08-23T08:35:13.000Z</time>
      </trkpt>
      <trkpt lat="47.43053" lon="6.79622">
        <ele>489</ele>
        <time>2015-08-23T08:35:14.000Z</time>
      </trkpt>
      <trkpt lat="47.4305" lon="6.79626">
        <ele>489</ele>
        <time>2015-08-23T08:35:15.000Z</time>
      </trkpt>
      <trkpt lat="47.43046" lon="6.79631">
        <ele>489</ele>
        <time>2015-08-23T08:35:16.000Z</time>
      </trkpt>
      <trkpt lat="47.43043" lon="6.79635">
        <ele>490</ele>
        <time>2015-08-23T08:35:17.000Z</time>
      </trkpt>
      <trkpt lat="47.43039" lon="6.7964">
        <ele>490</ele>
        <time>2015-08-23T08:35:18.000Z</time>
      </trkpt>
      <trkpt lat="47.43037" lon="6.79645">
        <ele>490</ele>
        <time>2015-08-23T08:35:19.000Z</time>
      </trkpt>
      <trkpt lat="47.43034" lon="6.7965">
        <ele>490</ele>
        <time>2015-08-23T08:35:20.000Z</time>
      </trkpt>
      <trkpt lat="47.43032" lon="6.79654">
        <ele>490</ele>
        <time>2015-08-23T08:35:21.000Z</time>
      </trkpt>
      <trkpt lat="47.43029" lon="6.79657">
        <ele>491</ele>
        <time>2015-08-23T08:35:22.000Z</time>
      </trkpt>
      <trkpt lat="47.43027" lon="6.7966">
        <ele>491</ele>
        <time>2015-08-23T08:35:23.000Z</time>
      </trkpt>
      <trkpt lat="47.43024" lon="6.79662">
        <ele>491</ele>
        <time>2015-08-23T08:35:24.000Z</time>
      </trkpt>
      <trkpt lat="47.43021" lon="6.79665">
        <ele>491</ele>
        <time>2015-08-23T08:35:25.000Z</time>
      </trkpt>
      <trkpt lat="47.43019" lon="6.79668">
        <ele>493</ele>
        <time>2015-08-23T08:35:26.000Z</time>
      </trkpt>
      <trkpt lat="47.43017" lon="6.79672">
        <ele>493</ele>
        <time>2015-08-23T08:35:27.000Z</time>
      </trkpt>
      <trkpt lat="47.43015" lon="6.79675">
        <ele>493</ele>
        <time>2015-08-23T08:35:28.000Z</time>
      </trkpt>
      <trkpt lat="47.43013" lon="6.79679">
        <ele>493</ele>
        <time>2015-08-23T08:35:29.000Z</time>
      </trkpt>
      <trkpt lat="47.43012" lon="6.79683">
        <ele>492</ele>
        <time>2015-08-23T08:35:30.000Z</time>
      </trkpt>
      <trkpt lat="47.4301" lon="6.79688">
        <ele>492</ele>
        <time>2015-08-23T08:35:31.000Z</time>
      </trkpt>
      <trkpt lat="47.43009" lon="6.79692">
        <ele>492</ele>
        <time>2015-08-23T08:35:32.000Z</time>
      </trkpt>
      <trkpt lat="47.43008" lon="6.79697">
        <ele>492</ele>
        <time>2015-08-23T08:35:33.000Z</time>
      </trkpt>
      <trkpt lat="47.43008" lon="6.79702">
        <ele>492</ele>
        <time>2015-08-23T08:35:34.000Z</time>
      </trkpt>
      <trkpt lat="47.43007" lon="6.79707">
        <ele>492</ele>
        <time>2015-08-23T08:35:35.000Z</time>
      </trkpt>
      <trkpt lat="47.43006" lon="6.79712">
        <ele>492</ele>
        <time>2015-08-23T08:35:36.000Z</time>
      </trkpt>
      <trkpt lat="47.43006" lon="6.79718">
        <ele>492</ele>
        <time>2015-08-23T08:35:37.000Z</time>
      </trkpt>
      <trkpt lat="47.43005" lon="6.79724">
        <ele>492</ele>
        <time>2015-08-23T08:35:38.000Z</time>
      </trkpt>
      <trkpt lat="47.43004" lon="6.7973">
        <ele>492</ele>
        <time>2015-08-23T08:35:39.000Z</time>
      </trkpt>
      <trkpt lat="47.43004" lon="6.79736">
        <ele>493</ele>
        <time>2015-08-23T08:35:40.000Z</time>
      </trkpt>
      <trkpt lat="47.43003" lon="6.79742">
        <ele>493</ele>
        <time>2015-08-23T08:35:41.000Z</time>
      </trkpt>
      <trkpt lat="47.43003" lon="6.79748">
        <ele>493</ele>
        <time>2015-08-23T08:35:42.000Z</time>
      </trkpt>
      <trkpt lat="47.43002" lon="6.79754">
        <ele>493</ele>
        <time>2015-08-23T08:35:43.000Z</time>
      </trkpt>
      <trkpt lat="47.43" lon="6.7976">
        <ele>493</ele>
        <time>2015-08-23T08:35:44.000Z</time>
      </trkpt>
      <trkpt lat="47.42998" lon="6.79765">
        <ele>493</ele>
        <time>2015-08-23T08:35:45.000Z</time>
      </trkpt>
      <trkpt lat="47.42996" lon="6.7977">
        <ele>493</ele>
        <time>2015-08-23T08:35:46.000Z</time>
      </trkpt>
      <trkpt lat="47.42993" lon="6.79774">
        <ele>493</ele>
        <time>2015-08-23T08:35:47.000Z</time>
      </trkpt>
      <trkpt lat="47.42991" lon="6.79777">
        <ele>492</ele>
        <time>2015-08-23T08:35:48.000Z</time>
      </trkpt>
      <trkpt lat="47.42989" lon="6.79778">
        <ele>492</ele>
        <time>2015-08-23T08:35:49.000Z</time>
      </trkpt>
      <trkpt lat="47.42987" lon="6.79778">
        <ele>492</ele>
        <time>2015-08-23T08:35:50.000Z</time>
      </trkpt>
      <trkpt lat="47.42985" lon="6.79778">
        <ele>492</ele>
        <time>2015-08-23T08:35:51.000Z</time>
      </trkpt>
      <trkpt lat="47.42982" lon="6.79776">
        <ele>492</ele>
        <time>2015-08-23T08:35:52.000Z</time>
      </trkpt>
      <trkpt lat="47.4298" lon="6.79775">
        <ele>492</ele>
        <time>2015-08-23T08:35:53.000Z</time>
      </trkpt>
      <trkpt lat="47.42978" lon="6.79774">
        <ele>492</ele>
        <time>2015-08-23T08:35:54.000Z</time>
      </trkpt>
      <trkpt lat="47.42975" lon="6.79772">
        <ele>492</ele>
        <time>2015-08-23T08:35:55.000Z</time>
      </trkpt>
      <trkpt lat="47.42973" lon="6.7977">
        <ele>492</ele>
        <time>2015-08-23T08:35:56.000Z</time>
      </trkpt>
      <trkpt lat="47.42969" lon="6.79768">
        <ele>492</ele>
        <time>2015-08-23T08:35:58.000Z</time>
      </trkpt>
      <trkpt lat="47.42967" lon="6.79767">
        <ele>492</ele>
        <time>2015-08-23T08:35:59.000Z</time>
      </trkpt>
      <trkpt lat="47.42965" lon="6.79767">
        <ele>492</ele>
        <time>2015-08-23T08:36:00.000Z</time>
      </trkpt>
      <trkpt lat="47.42962" lon="6.79767">
        <ele>492</ele>
        <time>2015-08-23T08:36:01.000Z</time>
      </trkpt>
      <trkpt lat="47.4296" lon="6.79768">
        <ele>492</ele>
        <time>2015-08-23T08:36:02.000Z</time>
      </trkpt>
      <trkpt lat="47.42957" lon="6.79768">
        <ele>492</ele>
        <time>2015-08-23T08:36:03.000Z</time>
      </trkpt>
      <trkpt lat="47.42954" lon="6.79769">
        <ele>492</ele>
        <time>2015-08-23T08:36:04.000Z</time>
      </trkpt>
      <trkpt lat="47.42952" lon="6.79769">
        <ele>492</ele>
        <time>2015-08-23T08:36:05.000Z</time>
      </trkpt>
      <trkpt lat="47.42949" lon="6.79769">
        <ele>492</ele>
        <time>2015-08-23T08:36:06.000Z</time>
      </trkpt>
      <trkpt lat="47.42947" lon="6.79769">
        <ele>492</ele>
        <time>2015-08-23T08:36:07.000Z</time>
      </trkpt>
      <trkpt lat="47.42944" lon="6.79769">
        <ele>492</ele>
        <time>2015-08-23T08:36:08.000Z</time>
      </trkpt>
      <trkpt lat="47.42941" lon="6.79769">
        <ele>492</ele>
        <time>2015-08-23T08:36:09.000Z</time>
      </trkpt>
      <trkpt lat="47.42937" lon="6.79768">
        <ele>492</ele>
        <time>2015-08-23T08:36:10.000Z</time>
      </trkpt>
      <trkpt lat="47.42934" lon="6.79768">
        <ele>492</ele>
        <time>2015-08-23T08:36:11.000Z</time>
      </trkpt>
      <trkpt lat="47.4293" lon="6.79767">
        <ele>492</ele>
        <time>2015-08-23T08:36:12.000Z</time>
      </trkpt>
      <trkpt lat="47.42925" lon="6.79767">
        <ele>491</ele>
        <time>2015-08-23T08:36:13.000Z</time>
      </trkpt>
      <trkpt lat="47.42921" lon="6.79767">
        <ele>491</ele>
        <time>2015-08-23T08:36:14.000Z</time>
      </trkpt>
      <trkpt lat="47.42917" lon="6.79767">
        <ele>491</ele>
        <time>2015-08-23T08:36:15.000Z</time>
      </trkpt>
      <trkpt lat="47.42913" lon="6.79767">
        <ele>490</ele>
        <time>2015-08-23T08:36:16.000Z</time>
      </trkpt>
      <trkpt lat="47.42908" lon="6.79766">
        <ele>490</ele>
        <time>2015-08-23T08:36:17.000Z</time>
      </trkpt>
      <trkpt lat="47.42904" lon="6.79765">
        <ele>490</ele>
        <time>2015-08-23T08:36:18.000Z</time>
      </trkpt>
      <trkpt lat="47.429" lon="6.79765">
        <ele>489</ele>
        <time>2015-08-23T08:36:19.000Z</time>
      </trkpt>
      <trkpt lat="47.42897" lon="6.79765">
        <ele>489</ele>
        <time>2015-08-23T08:36:20.000Z</time>
      </trkpt>
      <trkpt lat="47.42893" lon="6.79765">
        <ele>489</ele>
        <time>2015-08-23T08:36:21.000Z</time>
      </trkpt>
      <trkpt lat="47.42889" lon="6.79765">
        <ele>489</ele>
        <time>2015-08-23T08:36:22.000Z</time>
      </trkpt>
      <trkpt lat="47.42885" lon="6.79765">
        <ele>489</ele>
        <time>2015-08-23T08:36:23.000Z</time>
      </trkpt>
      <trkpt lat="47.42881" lon="6.79765">
        <ele>489</ele>
        <time>2015-08-23T08:36:24.000Z</time>
      </trkpt>
      <trkpt lat="47.42873" lon="6.79769">
        <ele>488</ele>
        <time>2015-08-23T08:36:25.000Z</time>
      </trkpt>
      <trkpt lat="47.42868" lon="6.79771">
        <ele>488</ele>
        <time>2015-08-23T08:36:26.000Z</time>
      </trkpt>
      <trkpt lat="47.42863" lon="6.79772">
        <ele>488</ele>
        <time>2015-08-23T08:36:27.000Z</time>
      </trkpt>
      <trkpt lat="47.42858" lon="6.79775">
        <ele>488</ele>
        <time>2015-08-23T08:36:28.000Z</time>
      </trkpt>
      <trkpt lat="47.42855" lon="6.79775">
        <ele>488</ele>
        <time>2015-08-23T08:36:29.000Z</time>
      </trkpt>
      <trkpt lat="47.42853" lon="6.79775">
        <ele>488</ele>
        <time>2015-08-23T08:36:30.000Z</time>
      </trkpt>
      <trkpt lat="47.4285" lon="6.79777">
        <ele>488</ele>
        <time>2015-08-23T08:36:32.000Z</time>
      </trkpt>
      <trkpt lat="47.42848" lon="6.79779">
        <ele>488</ele>
        <time>2015-08-23T08:36:33.000Z</time>
      </trkpt>
      <trkpt lat="47.42845" lon="6.79782">
        <ele>488</ele>
        <time>2015-08-23T08:36:35.000Z</time>
      </trkpt>
      <trkpt lat="47.42844" lon="6.79781">
        <ele>488</ele>
        <time>2015-08-23T08:36:36.000Z</time>
      </trkpt>
      <trkpt lat="47.4284" lon="6.7978">
        <ele>488</ele>
        <time>2015-08-23T08:36:38.000Z</time>
      </trkpt>
      <trkpt lat="47.42838" lon="6.79779">
        <ele>488</ele>
        <time>2015-08-23T08:36:39.000Z</time>
      </trkpt>
      <trkpt lat="47.42835" lon="6.79779">
        <ele>488</ele>
        <time>2015-08-23T08:36:40.000Z</time>
      </trkpt>
      <trkpt lat="47.42832" lon="6.79779">
        <ele>488</ele>
        <time>2015-08-23T08:36:41.000Z</time>
      </trkpt>
      <trkpt lat="47.4283" lon="6.7978">
        <ele>488</ele>
        <time>2015-08-23T08:36:42.000Z</time>
      </trkpt>
      <trkpt lat="47.42828" lon="6.79781">
        <ele>488</ele>
        <time>2015-08-23T08:36:43.000Z</time>
      </trkpt>
      <trkpt lat="47.42824" lon="6.79783">
        <ele>488</ele>
        <time>2015-08-23T08:36:46.000Z</time>
      </trkpt>
      <trkpt lat="47.42823" lon="6.79783">
        <ele>488</ele>
        <time>2015-08-23T08:36:47.000Z</time>
      </trkpt>
      <trkpt lat="47.42819" lon="6.79784">
        <ele>488</ele>
        <time>2015-08-23T08:36:50.000Z</time>
      </trkpt>
      <trkpt lat="47.42817" lon="6.79784">
        <ele>488</ele>
        <time>2015-08-23T08:36:51.000Z</time>
      </trkpt>
      <trkpt lat="47.42813" lon="6.79786">
        <ele>489</ele>
        <time>2015-08-23T08:36:53.000Z</time>
      </trkpt>
      <trkpt lat="47.42811" lon="6.79786">
        <ele>489</ele>
        <time>2015-08-23T08:36:54.000Z</time>
      </trkpt>
      <trkpt lat="47.42809" lon="6.79788">
        <ele>489</ele>
        <time>2015-08-23T08:36:55.000Z</time>
      </trkpt>
      <trkpt lat="47.42806" lon="6.79789">
        <ele>489</ele>
        <time>2015-08-23T08:36:56.000Z</time>
      </trkpt>
      <trkpt lat="47.42804" lon="6.7979">
        <ele>489</ele>
        <time>2015-08-23T08:36:57.000Z</time>
      </trkpt>
      <trkpt lat="47.42801" lon="6.79791">
        <ele>489</ele>
        <time>2015-08-23T08:36:58.000Z</time>
      </trkpt>
      <trkpt lat="47.42798" lon="6.79792">
        <ele>489</ele>
        <time>2015-08-23T08:37:00.000Z</time>
      </trkpt>
      <trkpt lat="47.42796" lon="6.79793">
        <ele>489</ele>
        <time>2015-08-23T08:37:01.000Z</time>
      </trkpt>
      <trkpt lat="47.42792" lon="6.79794">
        <ele>489</ele>
        <time>2015-08-23T08:37:03.000Z</time>
      </trkpt>
      <trkpt lat="47.4279" lon="6.79794">
        <ele>489</ele>
        <time>2015-08-23T08:37:04.000Z</time>
      </trkpt>
      <trkpt lat="47.42787" lon="6.79795">
        <ele>489</ele>
        <time>2015-08-23T08:37:06.000Z</time>
      </trkpt>
      <trkpt lat="47.42785" lon="6.79796">
        <ele>489</ele>
        <time>2015-08-23T08:37:07.000Z</time>
      </trkpt>
      <trkpt lat="47.42783" lon="6.79797">
        <ele>490</ele>
        <time>2015-08-23T08:37:08.000Z</time>
      </trkpt>
      <trkpt lat="47.42781" lon="6.79799">
        <ele>490</ele>
        <time>2015-08-23T08:37:09.000Z</time>
      </trkpt>
      <trkpt lat="47.42778" lon="6.79801">
        <ele>490</ele>
        <time>2015-08-23T08:37:10.000Z</time>
      </trkpt>
      <trkpt lat="47.42776" lon="6.79802">
        <ele>490</ele>
        <time>2015-08-23T08:37:11.000Z</time>
      </trkpt>
      <trkpt lat="47.42773" lon="6.79803">
        <ele>490</ele>
        <time>2015-08-23T08:37:12.000Z</time>
      </trkpt>
      <trkpt lat="47.42771" lon="6.79804">
        <ele>490</ele>
        <time>2015-08-23T08:37:13.000Z</time>
      </trkpt>
      <trkpt lat="47.42767" lon="6.79804">
        <ele>490</ele>
        <time>2015-08-23T08:37:15.000Z</time>
      </trkpt>
      <trkpt lat="47.42765" lon="6.79804">
        <ele>490</ele>
        <time>2015-08-23T08:37:16.000Z</time>
      </trkpt>
      <trkpt lat="47.42761" lon="6.79804">
        <ele>490</ele>
        <time>2015-08-23T08:37:18.000Z</time>
      </trkpt>
      <trkpt lat="47.42759" lon="6.79803">
        <ele>491</ele>
        <time>2015-08-23T08:37:19.000Z</time>
      </trkpt>
      <trkpt lat="47.42755" lon="6.79803">
        <ele>491</ele>
        <time>2015-08-23T08:37:21.000Z</time>
      </trkpt>
      <trkpt lat="47.42754" lon="6.79803">
        <ele>491</ele>
        <time>2015-08-23T08:37:22.000Z</time>
      </trkpt>
      <trkpt lat="47.4275" lon="6.79803">
        <ele>491</ele>
        <time>2015-08-23T08:37:24.000Z</time>
      </trkpt>
      <trkpt lat="47.42749" lon="6.79802">
        <ele>494</ele>
        <time>2015-08-23T08:37:25.000Z</time>
      </trkpt>
      <trkpt lat="47.42746" lon="6.79802">
        <ele>494</ele>
        <time>2015-08-23T08:37:27.000Z</time>
      </trkpt>
      <trkpt lat="47.42744" lon="6.79801">
        <ele>494</ele>
        <time>2015-08-23T08:37:28.000Z</time>
      </trkpt>
      <trkpt lat="47.42741" lon="6.79801">
        <ele>494</ele>
        <time>2015-08-23T08:37:30.000Z</time>
      </trkpt>
      <trkpt lat="47.42739" lon="6.79802">
        <ele>494</ele>
        <time>2015-08-23T08:37:31.000Z</time>
      </trkpt>
      <trkpt lat="47.42737" lon="6.79803">
        <ele>494</ele>
        <time>2015-08-23T08:37:32.000Z</time>
      </trkpt>
      <trkpt lat="47.42735" lon="6.79805">
        <ele>494</ele>
        <time>2015-08-23T08:37:33.000Z</time>
      </trkpt>
      <trkpt lat="47.42731" lon="6.79806">
        <ele>495</ele>
        <time>2015-08-23T08:37:35.000Z</time>
      </trkpt>
      <trkpt lat="47.42729" lon="6.79806">
        <ele>495</ele>
        <time>2015-08-23T08:37:36.000Z</time>
      </trkpt>
      <trkpt lat="47.42725" lon="6.79807">
        <ele>495</ele>
        <time>2015-08-23T08:37:38.000Z</time>
      </trkpt>
      <trkpt lat="47.42723" lon="6.79808">
        <ele>495</ele>
        <time>2015-08-23T08:37:39.000Z</time>
      </trkpt>
      <trkpt lat="47.42719" lon="6.7981">
        <ele>495</ele>
        <time>2015-08-23T08:37:41.000Z</time>
      </trkpt>
      <trkpt lat="47.42717" lon="6.7981">
        <ele>495</ele>
        <time>2015-08-23T08:37:42.000Z</time>
      </trkpt>
      <trkpt lat="47.42713" lon="6.79811">
        <ele>495</ele>
        <time>2015-08-23T08:37:44.000Z</time>
      </trkpt>
      <trkpt lat="47.42712" lon="6.79812">
        <ele>495</ele>
        <time>2015-08-23T08:37:45.000Z</time>
      </trkpt>
      <trkpt lat="47.42708" lon="6.79813">
        <ele>495</ele>
        <time>2015-08-23T08:37:47.000Z</time>
      </trkpt>
      <trkpt lat="47.42707" lon="6.79813">
        <ele>495</ele>
        <time>2015-08-23T08:37:48.000Z</time>
      </trkpt>
      <trkpt lat="47.42704" lon="6.79813">
        <ele>495</ele>
        <time>2015-08-23T08:37:50.000Z</time>
      </trkpt>
      <trkpt lat="47.42702" lon="6.79813">
        <ele>496</ele>
        <time>2015-08-23T08:37:51.000Z</time>
      </trkpt>
      <trkpt lat="47.42699" lon="6.79813">
        <ele>496</ele>
        <time>2015-08-23T08:37:53.000Z</time>
      </trkpt>
      <trkpt lat="47.42697" lon="6.79813">
        <ele>496</ele>
        <time>2015-08-23T08:37:54.000Z</time>
      </trkpt>
      <trkpt lat="47.42694" lon="6.79814">
        <ele>496</ele>
        <time>2015-08-23T08:37:56.000Z</time>
      </trkpt>
      <trkpt lat="47.42692" lon="6.79814">
        <ele>496</ele>
        <time>2015-08-23T08:37:57.000Z</time>
      </trkpt>
      <trkpt lat="47.42689" lon="6.79814">
        <ele>496</ele>
        <time>2015-08-23T08:37:59.000Z</time>
      </trkpt>
      <trkpt lat="47.42687" lon="6.79815">
        <ele>496</ele>
        <time>2015-08-23T08:38:00.000Z</time>
      </trkpt>
      <trkpt lat="47.42683" lon="6.79816">
        <ele>496</ele>
        <time>2015-08-23T08:38:02.000Z</time>
      </trkpt>
      <trkpt lat="47.42682" lon="6.79817">
        <ele>496</ele>
        <time>2015-08-23T08:38:03.000Z</time>
      </trkpt>
      <trkpt lat="47.42678" lon="6.79816">
        <ele>497</ele>
        <time>2015-08-23T08:38:05.000Z</time>
      </trkpt>
      <trkpt lat="47.42676" lon="6.79816">
        <ele>497</ele>
        <time>2015-08-23T08:38:06.000Z</time>
      </trkpt>
      <trkpt lat="47.42672" lon="6.79815">
        <ele>497</ele>
        <time>2015-08-23T08:38:08.000Z</time>
      </trkpt>
      <trkpt lat="47.4267" lon="6.79816">
        <ele>497</ele>
        <time>2015-08-23T08:38:09.000Z</time>
      </trkpt>
      <trkpt lat="47.42666" lon="6.79817">
        <ele>499</ele>
        <time>2015-08-23T08:38:11.000Z</time>
      </trkpt>
      <trkpt lat="47.42664" lon="6.79817">
        <ele>499</ele>
        <time>2015-08-23T08:38:12.000Z</time>
      </trkpt>
      <trkpt lat="47.4266" lon="6.79818">
        <ele>499</ele>
        <time>2015-08-23T08:38:14.000Z</time>
      </trkpt>
      <trkpt lat="47.42658" lon="6.79819">
        <ele>499</ele>
        <time>2015-08-23T08:38:15.000Z</time>
      </trkpt>
      <trkpt lat="47.42654" lon="6.7982">
        <ele>500</ele>
        <time>2015-08-23T08:38:17.000Z</time>
      </trkpt>
      <trkpt lat="47.42652" lon="6.7982">
        <ele>500</ele>
        <time>2015-08-23T08:38:18.000Z</time>
      </trkpt>
      <trkpt lat="47.42649" lon="6.7982">
        <ele>500</ele>
        <time>2015-08-23T08:38:20.000Z</time>
      </trkpt>
      <trkpt lat="47.42647" lon="6.7982">
        <ele>500</ele>
        <time>2015-08-23T08:38:21.000Z</time>
      </trkpt>
      <trkpt lat="47.42643" lon="6.79821">
        <ele>500</ele>
        <time>2015-08-23T08:38:23.000Z</time>
      </trkpt>
      <trkpt lat="47.42641" lon="6.79821">
        <ele>500</ele>
        <time>2015-08-23T08:38:24.000Z</time>
      </trkpt>
      <trkpt lat="47.42637" lon="6.79821">
        <ele>500</ele>
        <time>2015-08-23T08:38:26.000Z</time>
      </trkpt>
      <trkpt lat="47.42635" lon="6.79821">
        <ele>501</ele>
        <time>2015-08-23T08:38:27.000Z</time>
      </trkpt>
      <trkpt lat="47.4263" lon="6.7982">
        <ele>501</ele>
        <time>2015-08-23T08:38:29.000Z</time>
      </trkpt>
      <trkpt lat="47.42628" lon="6.7982">
        <ele>501</ele>
        <time>2015-08-23T08:38:30.000Z</time>
      </trkpt>
      <trkpt lat="47.42626" lon="6.79821">
        <ele>501</ele>
        <time>2015-08-23T08:38:31.000Z</time>
      </trkpt>
      <trkpt lat="47.42623" lon="6.79821">
        <ele>501</ele>
        <time>2015-08-23T08:38:32.000Z</time>
      </trkpt>
      <trkpt lat="47.4262" lon="6.79821">
        <ele>501</ele>
        <time>2015-08-23T08:38:33.000Z</time>
      </trkpt>
      <trkpt lat="47.42618" lon="6.79821">
        <ele>501</ele>
        <time>2015-08-23T08:38:34.000Z</time>
      </trkpt>
      <trkpt lat="47.42615" lon="6.79821">
        <ele>502</ele>
        <time>2015-08-23T08:38:35.000Z</time>
      </trkpt>
      <trkpt lat="47.42612" lon="6.7982">
        <ele>502</ele>
        <time>2015-08-23T08:38:36.000Z</time>
      </trkpt>
      <trkpt lat="47.4261" lon="6.7982">
        <ele>502</ele>
        <time>2015-08-23T08:38:37.000Z</time>
      </trkpt>
      <trkpt lat="47.42607" lon="6.79819">
        <ele>502</ele>
        <time>2015-08-23T08:38:38.000Z</time>
      </trkpt>
      <trkpt lat="47.42605" lon="6.7982">
        <ele>502</ele>
        <time>2015-08-23T08:38:39.000Z</time>
      </trkpt>
      <trkpt lat="47.42603" lon="6.7982">
        <ele>502</ele>
        <time>2015-08-23T08:38:40.000Z</time>
      </trkpt>
      <trkpt lat="47.426" lon="6.7982">
        <ele>502</ele>
        <time>2015-08-23T08:38:41.000Z</time>
      </trkpt>
      <trkpt lat="47.42598" lon="6.7982">
        <ele>502</ele>
        <time>2015-08-23T08:38:42.000Z</time>
      </trkpt>
      <trkpt lat="47.42595" lon="6.79821">
        <ele>503</ele>
        <time>2015-08-23T08:38:43.000Z</time>
      </trkpt>
      <trkpt lat="47.42592" lon="6.79821">
        <ele>503</ele>
        <time>2015-08-23T08:38:44.000Z</time>
      </trkpt>
      <trkpt lat="47.42589" lon="6.79821">
        <ele>503</ele>
        <time>2015-08-23T08:38:45.000Z</time>
      </trkpt>
      <trkpt lat="47.42586" lon="6.79821">
        <ele>503</ele>
        <time>2015-08-23T08:38:46.000Z</time>
      </trkpt>
      <trkpt lat="47.42584" lon="6.79821">
        <ele>503</ele>
        <time>2015-08-23T08:38:47.000Z</time>
      </trkpt>
      <trkpt lat="47.42581" lon="6.79821">
        <ele>506</ele>
        <time>2015-08-23T08:38:48.000Z</time>
      </trkpt>
      <trkpt lat="47.42578" lon="6.79821">
        <ele>506</ele>
        <time>2015-08-23T08:38:49.000Z</time>
      </trkpt>
      <trkpt lat="47.42574" lon="6.79821">
        <ele>506</ele>
        <time>2015-08-23T08:38:50.000Z</time>
      </trkpt>
      <trkpt lat="47.42571" lon="6.79821">
        <ele>506</ele>
        <time>2015-08-23T08:38:51.000Z</time>
      </trkpt>
      <trkpt lat="47.42568" lon="6.7982">
        <ele>506</ele>
        <time>2015-08-23T08:38:52.000Z</time>
      </trkpt>
      <trkpt lat="47.42565" lon="6.7982">
        <ele>507</ele>
        <time>2015-08-23T08:38:53.000Z</time>
      </trkpt>
      <trkpt lat="47.42563" lon="6.7982">
        <ele>507</ele>
        <time>2015-08-23T08:38:54.000Z</time>
      </trkpt>
      <trkpt lat="47.42558" lon="6.79819">
        <ele>507</ele>
        <time>2015-08-23T08:38:56.000Z</time>
      </trkpt>
      <trkpt lat="47.42556" lon="6.79819">
        <ele>507</ele>
        <time>2015-08-23T08:38:57.000Z</time>
      </trkpt>
      <trkpt lat="47.42554" lon="6.7982">
        <ele>508</ele>
        <time>2015-08-23T08:38:58.000Z</time>
      </trkpt>
      <trkpt lat="47.42551" lon="6.7982">
        <ele>508</ele>
        <time>2015-08-23T08:38:59.000Z</time>
      </trkpt>
      <trkpt lat="47.42548" lon="6.79821">
        <ele>508</ele>
        <time>2015-08-23T08:39:00.000Z</time>
      </trkpt>
      <trkpt lat="47.42546" lon="6.79821">
        <ele>508</ele>
        <time>2015-08-23T08:39:01.000Z</time>
      </trkpt>
      <trkpt lat="47.42543" lon="6.79822">
        <ele>508</ele>
        <time>2015-08-23T08:39:02.000Z</time>
      </trkpt>
      <trkpt lat="47.4254" lon="6.79822">
        <ele>508</ele>
        <time>2015-08-23T08:39:03.000Z</time>
      </trkpt>
      <trkpt lat="47.42537" lon="6.79823">
        <ele>509</ele>
        <time>2015-08-23T08:39:04.000Z</time>
      </trkpt>
      <trkpt lat="47.42535" lon="6.79824">
        <ele>509</ele>
        <time>2015-08-23T08:39:05.000Z</time>
      </trkpt>
      <trkpt lat="47.42532" lon="6.79824">
        <ele>509</ele>
        <time>2015-08-23T08:39:06.000Z</time>
      </trkpt>
      <trkpt lat="47.4253" lon="6.79825">
        <ele>509</ele>
        <time>2015-08-23T08:39:07.000Z</time>
      </trkpt>
      <trkpt lat="47.42528" lon="6.79826">
        <ele>509</ele>
        <time>2015-08-23T08:39:08.000Z</time>
      </trkpt>
      <trkpt lat="47.42525" lon="6.79827">
        <ele>509</ele>
        <time>2015-08-23T08:39:09.000Z</time>
      </trkpt>
      <trkpt lat="47.42523" lon="6.79827">
        <ele>510</ele>
        <time>2015-08-23T08:39:10.000Z</time>
      </trkpt>
      <trkpt lat="47.4252" lon="6.79828">
        <ele>510</ele>
        <time>2015-08-23T08:39:11.000Z</time>
      </trkpt>
      <trkpt lat="47.42518" lon="6.79828">
        <ele>510</ele>
        <time>2015-08-23T08:39:12.000Z</time>
      </trkpt>
      <trkpt lat="47.42516" lon="6.79828">
        <ele>510</ele>
        <time>2015-08-23T08:39:13.000Z</time>
      </trkpt>
      <trkpt lat="47.42514" lon="6.79828">
        <ele>510</ele>
        <time>2015-08-23T08:39:14.000Z</time>
      </trkpt>
      <trkpt lat="47.42511" lon="6.79829">
        <ele>511</ele>
        <time>2015-08-23T08:39:15.000Z</time>
      </trkpt>
      <trkpt lat="47.42509" lon="6.7983">
        <ele>511</ele>
        <time>2015-08-23T08:39:16.000Z</time>
      </trkpt>
      <trkpt lat="47.42506" lon="6.7983">
        <ele>511</ele>
        <time>2015-08-23T08:39:17.000Z</time>
      </trkpt>
      <trkpt lat="47.42504" lon="6.7983">
        <ele>511</ele>
        <time>2015-08-23T08:39:18.000Z</time>
      </trkpt>
      <trkpt lat="47.42501" lon="6.7983">
        <ele>512</ele>
        <time>2015-08-23T08:39:19.000Z</time>
      </trkpt>
      <trkpt lat="47.42499" lon="6.79831">
        <ele>512</ele>
        <time>2015-08-23T08:39:20.000Z</time>
      </trkpt>
      <trkpt lat="47.42496" lon="6.79831">
        <ele>512</ele>
        <time>2015-08-23T08:39:21.000Z</time>
      </trkpt>
      <trkpt lat="47.42494" lon="6.79831">
        <ele>513</ele>
        <time>2015-08-23T08:39:22.000Z</time>
      </trkpt>
      <trkpt lat="47.42491" lon="6.79831">
        <ele>513</ele>
        <time>2015-08-23T08:39:23.000Z</time>
      </trkpt>
      <trkpt lat="47.42489" lon="6.79831">
        <ele>513</ele>
        <time>2015-08-23T08:39:24.000Z</time>
      </trkpt>
      <trkpt lat="47.42486" lon="6.79831">
        <ele>513</ele>
        <time>2015-08-23T08:39:25.000Z</time>
      </trkpt>
      <trkpt lat="47.42484" lon="6.79831">
        <ele>513</ele>
        <time>2015-08-23T08:39:26.000Z</time>
      </trkpt>
      <trkpt lat="47.42481" lon="6.79831">
        <ele>514</ele>
        <time>2015-08-23T08:39:27.000Z</time>
      </trkpt>
      <trkpt lat="47.42478" lon="6.79831">
        <ele>514</ele>
        <time>2015-08-23T08:39:28.000Z</time>
      </trkpt>
      <trkpt lat="47.42476" lon="6.7983">
        <ele>514</ele>
        <time>2015-08-23T08:39:29.000Z</time>
      </trkpt>
      <trkpt lat="47.42473" lon="6.7983">
        <ele>514</ele>
        <time>2015-08-23T08:39:30.000Z</time>
      </trkpt>
      <trkpt lat="47.4247" lon="6.79829">
        <ele>514</ele>
        <time>2015-08-23T08:39:31.000Z</time>
      </trkpt>
      <trkpt lat="47.42468" lon="6.79829">
        <ele>514</ele>
        <time>2015-08-23T08:39:32.000Z</time>
      </trkpt>
      <trkpt lat="47.42465" lon="6.79829">
        <ele>514</ele>
        <time>2015-08-23T08:39:33.000Z</time>
      </trkpt>
      <trkpt lat="47.42463" lon="6.79829">
        <ele>514</ele>
        <time>2015-08-23T08:39:34.000Z</time>
      </trkpt>
      <trkpt lat="47.4246" lon="6.79829">
        <ele>514</ele>
        <time>2015-08-23T08:39:35.000Z</time>
      </trkpt>
      <trkpt lat="47.42457" lon="6.79828">
        <ele>515</ele>
        <time>2015-08-23T08:39:36.000Z</time>
      </trkpt>
      <trkpt lat="47.42455" lon="6.79828">
        <ele>515</ele>
        <time>2015-08-23T08:39:37.000Z</time>
      </trkpt>
      <trkpt lat="47.42452" lon="6.79828">
        <ele>515</ele>
        <time>2015-08-23T08:39:38.000Z</time>
      </trkpt>
      <trkpt lat="47.42449" lon="6.79828">
        <ele>515</ele>
        <time>2015-08-23T08:39:39.000Z</time>
      </trkpt>
      <trkpt lat="47.42447" lon="6.79828">
        <ele>515</ele>
        <time>2015-08-23T08:39:40.000Z</time>
      </trkpt>
      <trkpt lat="47.42444" lon="6.79828">
        <ele>515</ele>
        <time>2015-08-23T08:39:41.000Z</time>
      </trkpt>
      <trkpt lat="47.4244" lon="6.79827">
        <ele>515</ele>
        <time>2015-08-23T08:39:43.000Z</time>
      </trkpt>
      <trkpt lat="47.42438" lon="6.79827">
        <ele>515</ele>
        <time>2015-08-23T08:39:44.000Z</time>
      </trkpt>
      <trkpt lat="47.42435" lon="6.79827">
        <ele>515</ele>
        <time>2015-08-23T08:39:45.000Z</time>
      </trkpt>
      <trkpt lat="47.42433" lon="6.79828">
        <ele>515</ele>
        <time>2015-08-23T08:39:46.000Z</time>
      </trkpt>
      <trkpt lat="47.42431" lon="6.79829">
        <ele>515</ele>
        <time>2015-08-23T08:39:47.000Z</time>
      </trkpt>
      <trkpt lat="47.42428" lon="6.7983">
        <ele>515</ele>
        <time>2015-08-23T08:39:48.000Z</time>
      </trkpt>
      <trkpt lat="47.42426" lon="6.79831">
        <ele>516</ele>
        <time>2015-08-23T08:39:49.000Z</time>
      </trkpt>
      <trkpt lat="47.42423" lon="6.79831">
        <ele>516</ele>
        <time>2015-08-23T08:39:50.000Z</time>
      </trkpt>
      <trkpt lat="47.4242" lon="6.79833">
        <ele>516</ele>
        <time>2015-08-23T08:39:51.000Z</time>
      </trkpt>
      <trkpt lat="47.42417" lon="6.79834">
        <ele>516</ele>
        <time>2015-08-23T08:39:52.000Z</time>
      </trkpt>
      <trkpt lat="47.42414" lon="6.79835">
        <ele>517</ele>
        <time>2015-08-23T08:39:53.000Z</time>
      </trkpt>
      <trkpt lat="47.42411" lon="6.79836">
        <ele>517</ele>
        <time>2015-08-23T08:39:54.000Z</time>
      </trkpt>
      <trkpt lat="47.42408" lon="6.79837">
        <ele>517</ele>
        <time>2015-08-23T08:39:55.000Z</time>
      </trkpt>
      <trkpt lat="47.42405" lon="6.79839">
        <ele>518</ele>
        <time>2015-08-23T08:39:56.000Z</time>
      </trkpt>
      <trkpt lat="47.42403" lon="6.7984">
        <ele>518</ele>
        <time>2015-08-23T08:39:57.000Z</time>
      </trkpt>
      <trkpt lat="47.424" lon="6.79841">
        <ele>518</ele>
        <time>2015-08-23T08:39:58.000Z</time>
      </trkpt>
      <trkpt lat="47.42397" lon="6.79843">
        <ele>519</ele>
        <time>2015-08-23T08:39:59.000Z</time>
      </trkpt>
      <trkpt lat="47.42394" lon="6.79844">
        <ele>519</ele>
        <time>2015-08-23T08:40:00.000Z</time>
      </trkpt>
      <trkpt lat="47.42392" lon="6.79846">
        <ele>519</ele>
        <time>2015-08-23T08:40:01.000Z</time>
      </trkpt>
      <trkpt lat="47.42389" lon="6.79848">
        <ele>519</ele>
        <time>2015-08-23T08:40:02.000Z</time>
      </trkpt>
      <trkpt lat="47.42387" lon="6.7985">
        <ele>519</ele>
        <time>2015-08-23T08:40:03.000Z</time>
      </trkpt>
      <trkpt lat="47.42385" lon="6.79852">
        <ele>519</ele>
        <time>2015-08-23T08:40:04.000Z</time>
      </trkpt>
      <trkpt lat="47.42383" lon="6.79855">
        <ele>520</ele>
        <time>2015-08-23T08:40:05.000Z</time>
      </trkpt>
      <trkpt lat="47.42381" lon="6.79857">
        <ele>520</ele>
        <time>2015-08-23T08:40:06.000Z</time>
      </trkpt>
      <trkpt lat="47.42378" lon="6.79859">
        <ele>520</ele>
        <time>2015-08-23T08:40:07.000Z</time>
      </trkpt>
      <trkpt lat="47.42376" lon="6.79861">
        <ele>520</ele>
        <time>2015-08-23T08:40:08.000Z</time>
      </trkpt>
      <trkpt lat="47.42374" lon="6.79863">
        <ele>520</ele>
        <time>2015-08-23T08:40:09.000Z</time>
      </trkpt>
      <trkpt lat="47.42372" lon="6.79864">
        <ele>520</ele>
        <time>2015-08-23T08:40:10.000Z</time>
      </trkpt>
      <trkpt lat="47.42369" lon="6.79866">
        <ele>520</ele>
        <time>2015-08-23T08:40:11.000Z</time>
      </trkpt>
      <trkpt lat="47.42368" lon="6.79868">
        <ele>520</ele>
        <time>2015-08-23T08:40:12.000Z</time>
      </trkpt>
      <trkpt lat="47.42364" lon="6.79872">
        <ele>521</ele>
        <time>2015-08-23T08:40:14.000Z</time>
      </trkpt>
      <trkpt lat="47.42362" lon="6.79874">
        <ele>521</ele>
        <time>2015-08-23T08:40:15.000Z</time>
      </trkpt>
      <trkpt lat="47.42361" lon="6.79877">
        <ele>521</ele>
        <time>2015-08-23T08:40:16.000Z</time>
      </trkpt>
      <trkpt lat="47.42359" lon="6.79879">
        <ele>521</ele>
        <time>2015-08-23T08:40:17.000Z</time>
      </trkpt>
      <trkpt lat="47.42357" lon="6.79881">
        <ele>521</ele>
        <time>2015-08-23T08:40:18.000Z</time>
      </trkpt>
      <trkpt lat="47.42356" lon="6.79884">
        <ele>521</ele>
        <time>2015-08-23T08:40:19.000Z</time>
      </trkpt>
      <trkpt lat="47.42354" lon="6.79887">
        <ele>521</ele>
        <time>2015-08-23T08:40:20.000Z</time>
      </trkpt>
      <trkpt lat="47.42352" lon="6.79889">
        <ele>521</ele>
        <time>2015-08-23T08:40:21.000Z</time>
      </trkpt>
      <trkpt lat="47.42349" lon="6.79893">
        <ele>522</ele>
        <time>2015-08-23T08:40:23.000Z</time>
      </trkpt>
      <trkpt lat="47.42347" lon="6.79895">
        <ele>522</ele>
        <time>2015-08-23T08:40:24.000Z</time>
      </trkpt>
      <trkpt lat="47.42346" lon="6.79897">
        <ele>522</ele>
        <time>2015-08-23T08:40:25.000Z</time>
      </trkpt>
      <trkpt lat="47.42344" lon="6.799">
        <ele>522</ele>
        <time>2015-08-23T08:40:26.000Z</time>
      </trkpt>
      <trkpt lat="47.42341" lon="6.79902">
        <ele>522</ele>
        <time>2015-08-23T08:40:27.000Z</time>
      </trkpt>
      <trkpt lat="47.42339" lon="6.79905">
        <ele>522</ele>
        <time>2015-08-23T08:40:28.000Z</time>
      </trkpt>
      <trkpt lat="47.42337" lon="6.79908">
        <ele>523</ele>
        <time>2015-08-23T08:40:29.000Z</time>
      </trkpt>
      <trkpt lat="47.42335" lon="6.79911">
        <ele>523</ele>
        <time>2015-08-23T08:40:30.000Z</time>
      </trkpt>
      <trkpt lat="47.42334" lon="6.79914">
        <ele>524</ele>
        <time>2015-08-23T08:40:31.000Z</time>
      </trkpt>
      <trkpt lat="47.42332" lon="6.79916">
        <ele>524</ele>
        <time>2015-08-23T08:40:32.000Z</time>
      </trkpt>
      <trkpt lat="47.42331" lon="6.79919">
        <ele>524</ele>
        <time>2015-08-23T08:40:33.000Z</time>
      </trkpt>
      <trkpt lat="47.42329" lon="6.79921">
        <ele>524</ele>
        <time>2015-08-23T08:40:34.000Z</time>
      </trkpt>
      <trkpt lat="47.42328" lon="6.79924">
        <ele>524</ele>
        <time>2015-08-23T08:40:35.000Z</time>
      </trkpt>
      <trkpt lat="47.42326" lon="6.79927">
        <ele>524</ele>
        <time>2015-08-23T08:40:36.000Z</time>
      </trkpt>
      <trkpt lat="47.42324" lon="6.7993">
        <ele>524</ele>
        <time>2015-08-23T08:40:37.000Z</time>
      </trkpt>
      <trkpt lat="47.42322" lon="6.79932">
        <ele>524</ele>
        <time>2015-08-23T08:40:38.000Z</time>
      </trkpt>
      <trkpt lat="47.4232" lon="6.79934">
        <ele>524</ele>
        <time>2015-08-23T08:40:39.000Z</time>
      </trkpt>
      <trkpt lat="47.42317" lon="6.79937">
        <ele>525</ele>
        <time>2015-08-23T08:40:40.000Z</time>
      </trkpt>
      <trkpt lat="47.42315" lon="6.79939">
        <ele>525</ele>
        <time>2015-08-23T08:40:41.000Z</time>
      </trkpt>
      <trkpt lat="47.42313" lon="6.79941">
        <ele>525</ele>
        <time>2015-08-23T08:40:42.000Z</time>
      </trkpt>
      <trkpt lat="47.4231" lon="6.79943">
        <ele>525</ele>
        <time>2015-08-23T08:40:43.000Z</time>
      </trkpt>
      <trkpt lat="47.42308" lon="6.79946">
        <ele>525</ele>
        <time>2015-08-23T08:40:44.000Z</time>
      </trkpt>
      <trkpt lat="47.42305" lon="6.79948">
        <ele>525</ele>
        <time>2015-08-23T08:40:45.000Z</time>
      </trkpt>
      <trkpt lat="47.42303" lon="6.7995">
        <ele>525</ele>
        <time>2015-08-23T08:40:46.000Z</time>
      </trkpt>
      <trkpt lat="47.42301" lon="6.79952">
        <ele>525</ele>
        <time>2015-08-23T08:40:47.000Z</time>
      </trkpt>
      <trkpt lat="47.42299" lon="6.79954">
        <ele>525</ele>
        <time>2015-08-23T08:40:48.000Z</time>
      </trkpt>
      <trkpt lat="47.42297" lon="6.79956">
        <ele>525</ele>
        <time>2015-08-23T08:40:49.000Z</time>
      </trkpt>
      <trkpt lat="47.42294" lon="6.79958">
        <ele>525</ele>
        <time>2015-08-23T08:40:50.000Z</time>
      </trkpt>
      <trkpt lat="47.42292" lon="6.7996">
        <ele>525</ele>
        <time>2015-08-23T08:40:51.000Z</time>
      </trkpt>
      <trkpt lat="47.4229" lon="6.79963">
        <ele>525</ele>
        <time>2015-08-23T08:40:52.000Z</time>
      </trkpt>
      <trkpt lat="47.42287" lon="6.79966">
        <ele>525</ele>
        <time>2015-08-23T08:40:53.000Z</time>
      </trkpt>
      <trkpt lat="47.42284" lon="6.79969">
        <ele>525</ele>
        <time>2015-08-23T08:40:54.000Z</time>
      </trkpt>
      <trkpt lat="47.42281" lon="6.79972">
        <ele>525</ele>
        <time>2015-08-23T08:40:55.000Z</time>
      </trkpt>
      <trkpt lat="47.42277" lon="6.79977">
        <ele>526</ele>
        <time>2015-08-23T08:40:56.000Z</time>
      </trkpt>
      <trkpt lat="47.42267" lon="6.79998">
        <ele>526</ele>
        <time>2015-08-23T08:40:57.000Z</time>
      </trkpt>
      <trkpt lat="47.42263" lon="6.80003">
        <ele>527</ele>
        <time>2015-08-23T08:40:58.000Z</time>
      </trkpt>
      <trkpt lat="47.42257" lon="6.80004">
        <ele>527</ele>
        <time>2015-08-23T08:40:59.000Z</time>
      </trkpt>
      <trkpt lat="47.42253" lon="6.80007">
        <ele>527</ele>
        <time>2015-08-23T08:41:00.000Z</time>
      </trkpt>
      <trkpt lat="47.4225" lon="6.8001">
        <ele>527</ele>
        <time>2015-08-23T08:41:01.000Z</time>
      </trkpt>
      <trkpt lat="47.42247" lon="6.80014">
        <ele>529</ele>
        <time>2015-08-23T08:41:02.000Z</time>
      </trkpt>
      <trkpt lat="47.42244" lon="6.80018">
        <ele>529</ele>
        <time>2015-08-23T08:41:03.000Z</time>
      </trkpt>
      <trkpt lat="47.42242" lon="6.80021">
        <ele>530</ele>
        <time>2015-08-23T08:41:04.000Z</time>
      </trkpt>
      <trkpt lat="47.42238" lon="6.80024">
        <ele>530</ele>
        <time>2015-08-23T08:41:05.000Z</time>
      </trkpt>
      <trkpt lat="47.42235" lon="6.80028">
        <ele>530</ele>
        <time>2015-08-23T08:41:06.000Z</time>
      </trkpt>
      <trkpt lat="47.42233" lon="6.80032">
        <ele>530</ele>
        <time>2015-08-23T08:41:07.000Z</time>
      </trkpt>
      <trkpt lat="47.4223" lon="6.80037">
        <ele>530</ele>
        <time>2015-08-23T08:41:08.000Z</time>
      </trkpt>
      <trkpt lat="47.42227" lon="6.8004">
        <ele>530</ele>
        <time>2015-08-23T08:41:09.000Z</time>
      </trkpt>
      <trkpt lat="47.42225" lon="6.80044">
        <ele>531</ele>
        <time>2015-08-23T08:41:10.000Z</time>
      </trkpt>
      <trkpt lat="47.42222" lon="6.80047">
        <ele>531</ele>
        <time>2015-08-23T08:41:11.000Z</time>
      </trkpt>
      <trkpt lat="47.42219" lon="6.8005">
        <ele>531</ele>
        <time>2015-08-23T08:41:12.000Z</time>
      </trkpt>
      <trkpt lat="47.42216" lon="6.80054">
        <ele>531</ele>
        <time>2015-08-23T08:41:13.000Z</time>
      </trkpt>
      <trkpt lat="47.42214" lon="6.80057">
        <ele>531</ele>
        <time>2015-08-23T08:41:14.000Z</time>
      </trkpt>
      <trkpt lat="47.42211" lon="6.8006">
        <ele>531</ele>
        <time>2015-08-23T08:41:15.000Z</time>
      </trkpt>
      <trkpt lat="47.42208" lon="6.80063">
        <ele>531</ele>
        <time>2015-08-23T08:41:16.000Z</time>
      </trkpt>
      <trkpt lat="47.42205" lon="6.80065">
        <ele>531</ele>
        <time>2015-08-23T08:41:17.000Z</time>
      </trkpt>
      <trkpt lat="47.42202" lon="6.80067">
        <ele>532</ele>
        <time>2015-08-23T08:41:18.000Z</time>
      </trkpt>
      <trkpt lat="47.422" lon="6.8007">
        <ele>532</ele>
        <time>2015-08-23T08:41:19.000Z</time>
      </trkpt>
      <trkpt lat="47.42197" lon="6.80073">
        <ele>532</ele>
        <time>2015-08-23T08:41:20.000Z</time>
      </trkpt>
      <trkpt lat="47.42194" lon="6.80075">
        <ele>532</ele>
        <time>2015-08-23T08:41:21.000Z</time>
      </trkpt>
      <trkpt lat="47.42191" lon="6.80078">
        <ele>532</ele>
        <time>2015-08-23T08:41:22.000Z</time>
      </trkpt>
      <trkpt lat="47.42187" lon="6.80081">
        <ele>533</ele>
        <time>2015-08-23T08:41:23.000Z</time>
      </trkpt>
      <trkpt lat="47.42183" lon="6.80083">
        <ele>533</ele>
        <time>2015-08-23T08:41:24.000Z</time>
      </trkpt>
      <trkpt lat="47.42179" lon="6.80086">
        <ele>533</ele>
        <time>2015-08-23T08:41:25.000Z</time>
      </trkpt>
      <trkpt lat="47.42176" lon="6.80089">
        <ele>533</ele>
        <time>2015-08-23T08:41:26.000Z</time>
      </trkpt>
      <trkpt lat="47.42173" lon="6.80092">
        <ele>533</ele>
        <time>2015-08-23T08:41:27.000Z</time>
      </trkpt>
      <trkpt lat="47.4217" lon="6.80095">
        <ele>533</ele>
        <time>2015-08-23T08:41:28.000Z</time>
      </trkpt>
      <trkpt lat="47.42167" lon="6.80098">
        <ele>533</ele>
        <time>2015-08-23T08:41:29.000Z</time>
      </trkpt>
      <trkpt lat="47.42164" lon="6.801">
        <ele>533</ele>
        <time>2015-08-23T08:41:30.000Z</time>
      </trkpt>
      <trkpt lat="47.42161" lon="6.80103">
        <ele>533</ele>
        <time>2015-08-23T08:41:31.000Z</time>
      </trkpt>
      <trkpt lat="47.42158" lon="6.80105">
        <ele>533</ele>
        <time>2015-08-23T08:41:32.000Z</time>
      </trkpt>
      <trkpt lat="47.42155" lon="6.80106">
        <ele>533</ele>
        <time>2015-08-23T08:41:33.000Z</time>
      </trkpt>
      <trkpt lat="47.42152" lon="6.80107">
        <ele>532</ele>
        <time>2015-08-23T08:41:34.000Z</time>
      </trkpt>
      <trkpt lat="47.42149" lon="6.80109">
        <ele>532</ele>
        <time>2015-08-23T08:41:35.000Z</time>
      </trkpt>
      <trkpt lat="47.42145" lon="6.8011">
        <ele>532</ele>
        <time>2015-08-23T08:41:36.000Z</time>
      </trkpt>
      <trkpt lat="47.42142" lon="6.80111">
        <ele>532</ele>
        <time>2015-08-23T08:41:37.000Z</time>
      </trkpt>
      <trkpt lat="47.42138" lon="6.80112">
        <ele>532</ele>
        <time>2015-08-23T08:41:38.000Z</time>
      </trkpt>
      <trkpt lat="47.42134" lon="6.80114">
        <ele>532</ele>
        <time>2015-08-23T08:41:39.000Z</time>
      </trkpt>
      <trkpt lat="47.42129" lon="6.80116">
        <ele>531</ele>
        <time>2015-08-23T08:41:40.000Z</time>
      </trkpt>
      <trkpt lat="47.42124" lon="6.80119">
        <ele>531</ele>
        <time>2015-08-23T08:41:41.000Z</time>
      </trkpt>
      <trkpt lat="47.42119" lon="6.80122">
        <ele>531</ele>
        <time>2015-08-23T08:41:42.000Z</time>
      </trkpt>
      <trkpt lat="47.42115" lon="6.80125">
        <ele>531</ele>
        <time>2015-08-23T08:41:43.000Z</time>
      </trkpt>
      <trkpt lat="47.4211" lon="6.80128">
        <ele>531</ele>
        <time>2015-08-23T08:41:44.000Z</time>
      </trkpt>
      <trkpt lat="47.42107" lon="6.80132">
        <ele>531</ele>
        <time>2015-08-23T08:41:45.000Z</time>
      </trkpt>
      <trkpt lat="47.42103" lon="6.80135">
        <ele>531</ele>
        <time>2015-08-23T08:41:46.000Z</time>
      </trkpt>
      <trkpt lat="47.421" lon="6.80139">
        <ele>531</ele>
        <time>2015-08-23T08:41:47.000Z</time>
      </trkpt>
      <trkpt lat="47.42099" lon="6.80144">
        <ele>530</ele>
        <time>2015-08-23T08:41:48.000Z</time>
      </trkpt>
      <trkpt lat="47.42099" lon="6.80148">
        <ele>530</ele>
        <time>2015-08-23T08:41:49.000Z</time>
      </trkpt>
      <trkpt lat="47.421" lon="6.80155">
        <ele>530</ele>
        <time>2015-08-23T08:41:50.000Z</time>
      </trkpt>
      <trkpt lat="47.42103" lon="6.80162">
        <ele>530</ele>
        <time>2015-08-23T08:41:51.000Z</time>
      </trkpt>
      <trkpt lat="47.4211" lon="6.80187">
        <ele>529</ele>
        <time>2015-08-23T08:41:52.000Z</time>
      </trkpt>
      <trkpt lat="47.42114" lon="6.80196">
        <ele>529</ele>
        <time>2015-08-23T08:41:53.000Z</time>
      </trkpt>
      <trkpt lat="47.42116" lon="6.80205">
        <ele>529</ele>
        <time>2015-08-23T08:41:54.000Z</time>
      </trkpt>
      <trkpt lat="47.42119" lon="6.80212">
        <ele>529</ele>
        <time>2015-08-23T08:41:55.000Z</time>
      </trkpt>
      <trkpt lat="47.42121" lon="6.80218">
        <ele>529</ele>
        <time>2015-08-23T08:41:56.000Z</time>
      </trkpt>
      <trkpt lat="47.42122" lon="6.80225">
        <ele>529</ele>
        <time>2015-08-23T08:41:57.000Z</time>
      </trkpt>
      <trkpt lat="47.42127" lon="6.8023">
        <ele>529</ele>
        <time>2015-08-23T08:41:58.000Z</time>
      </trkpt>
      <trkpt lat="47.4213" lon="6.80237">
        <ele>529</ele>
        <time>2015-08-23T08:41:59.000Z</time>
      </trkpt>
      <trkpt lat="47.42133" lon="6.80242">
        <ele>529</ele>
        <time>2015-08-23T08:42:00.000Z</time>
      </trkpt>
      <trkpt lat="47.42134" lon="6.80249">
        <ele>529</ele>
        <time>2015-08-23T08:42:01.000Z</time>
      </trkpt>
      <trkpt lat="47.42138" lon="6.80255">
        <ele>526</ele>
        <time>2015-08-23T08:42:02.000Z</time>
      </trkpt>
      <trkpt lat="47.4214" lon="6.8026">
        <ele>526</ele>
        <time>2015-08-23T08:42:03.000Z</time>
      </trkpt>
      <trkpt lat="47.42142" lon="6.80267">
        <ele>526</ele>
        <time>2015-08-23T08:42:04.000Z</time>
      </trkpt>
      <trkpt lat="47.42144" lon="6.80274">
        <ele>526</ele>
        <time>2015-08-23T08:42:05.000Z</time>
      </trkpt>
      <trkpt lat="47.42148" lon="6.80278">
        <ele>526</ele>
        <time>2015-08-23T08:42:06.000Z</time>
      </trkpt>
      <trkpt lat="47.42151" lon="6.80283">
        <ele>526</ele>
        <time>2015-08-23T08:42:07.000Z</time>
      </trkpt>
      <trkpt lat="47.42153" lon="6.80286">
        <ele>525</ele>
        <time>2015-08-23T08:42:08.000Z</time>
      </trkpt>
      <trkpt lat="47.42155" lon="6.80291">
        <ele>525</ele>
        <time>2015-08-23T08:42:09.000Z</time>
      </trkpt>
      <trkpt lat="47.42158" lon="6.80296">
        <ele>525</ele>
        <time>2015-08-23T08:42:10.000Z</time>
      </trkpt>
      <trkpt lat="47.4216" lon="6.80302">
        <ele>525</ele>
        <time>2015-08-23T08:42:11.000Z</time>
      </trkpt>
      <trkpt lat="47.42163" lon="6.80307">
        <ele>524</ele>
        <time>2015-08-23T08:42:12.000Z</time>
      </trkpt>
      <trkpt lat="47.42167" lon="6.80314">
        <ele>525</ele>
        <time>2015-08-23T08:42:13.000Z</time>
      </trkpt>
      <trkpt lat="47.4217" lon="6.80319">
        <ele>524</ele>
        <time>2015-08-23T08:42:14.000Z</time>
      </trkpt>
      <trkpt lat="47.42174" lon="6.80324">
        <ele>524</ele>
        <time>2015-08-23T08:42:15.000Z</time>
      </trkpt>
      <trkpt lat="47.42176" lon="6.8033">
        <ele>524</ele>
        <time>2015-08-23T08:42:16.000Z</time>
      </trkpt>
      <trkpt lat="47.42179" lon="6.80339">
        <ele>522</ele>
        <time>2015-08-23T08:42:17.000Z</time>
      </trkpt>
      <trkpt lat="47.42181" lon="6.80348">
        <ele>522</ele>
        <time>2015-08-23T08:42:18.000Z</time>
      </trkpt>
      <trkpt lat="47.42182" lon="6.80353">
        <ele>522</ele>
        <time>2015-08-23T08:42:19.000Z</time>
      </trkpt>
      <trkpt lat="47.42183" lon="6.80361">
        <ele>521</ele>
        <time>2015-08-23T08:42:20.000Z</time>
      </trkpt>
      <trkpt lat="47.42188" lon="6.80366">
        <ele>521</ele>
        <time>2015-08-23T08:42:21.000Z</time>
      </trkpt>
      <trkpt lat="47.42191" lon="6.8037">
        <ele>521</ele>
        <time>2015-08-23T08:42:22.000Z</time>
      </trkpt>
      <trkpt lat="47.42193" lon="6.80375">
        <ele>521</ele>
        <time>2015-08-23T08:42:23.000Z</time>
      </trkpt>
      <trkpt lat="47.42195" lon="6.80381">
        <ele>521</ele>
        <time>2015-08-23T08:42:24.000Z</time>
      </trkpt>
      <trkpt lat="47.42198" lon="6.80387">
        <ele>520</ele>
        <time>2015-08-23T08:42:25.000Z</time>
      </trkpt>
      <trkpt lat="47.422" lon="6.80393">
        <ele>520</ele>
        <time>2015-08-23T08:42:26.000Z</time>
      </trkpt>
      <trkpt lat="47.42203" lon="6.80396">
        <ele>520</ele>
        <time>2015-08-23T08:42:27.000Z</time>
      </trkpt>
      <trkpt lat="47.42205" lon="6.804">
        <ele>520</ele>
        <time>2015-08-23T08:42:31.000Z</time>
      </trkpt>
      <trkpt lat="47.42206" lon="6.80402">
        <ele>520</ele>
        <time>2015-08-23T08:42:32.000Z</time>
      </trkpt>
      <trkpt lat="47.42207" lon="6.80404">
        <ele>520</ele>
        <time>2015-08-23T08:42:33.000Z</time>
      </trkpt>
      <trkpt lat="47.42209" lon="6.80407">
        <ele>520</ele>
        <time>2015-08-23T08:42:34.000Z</time>
      </trkpt>
      <trkpt lat="47.42211" lon="6.80411">
        <ele>520</ele>
        <time>2015-08-23T08:42:35.000Z</time>
      </trkpt>
      <trkpt lat="47.42213" lon="6.80414">
        <ele>520</ele>
        <time>2015-08-23T08:42:36.000Z</time>
      </trkpt>
      <trkpt lat="47.42216" lon="6.80418">
        <ele>516</ele>
        <time>2015-08-23T08:42:37.000Z</time>
      </trkpt>
      <trkpt lat="47.42218" lon="6.80421">
        <ele>516</ele>
        <time>2015-08-23T08:42:38.000Z</time>
      </trkpt>
      <trkpt lat="47.42219" lon="6.80425">
        <ele>516</ele>
        <time>2015-08-23T08:42:39.000Z</time>
      </trkpt>
      <trkpt lat="47.42221" lon="6.80429">
        <ele>516</ele>
        <time>2015-08-23T08:42:40.000Z</time>
      </trkpt>
      <trkpt lat="47.42223" lon="6.80434">
        <ele>515</ele>
        <time>2015-08-23T08:42:41.000Z</time>
      </trkpt>
      <trkpt lat="47.42224" lon="6.80439">
        <ele>515</ele>
        <time>2015-08-23T08:42:42.000Z</time>
      </trkpt>
      <trkpt lat="47.42226" lon="6.80444">
        <ele>515</ele>
        <time>2015-08-23T08:42:43.000Z</time>
      </trkpt>
      <trkpt lat="47.42228" lon="6.80449">
        <ele>515</ele>
        <time>2015-08-23T08:42:44.000Z</time>
      </trkpt>
      <trkpt lat="47.4223" lon="6.80454">
        <ele>514</ele>
        <time>2015-08-23T08:42:45.000Z</time>
      </trkpt>
      <trkpt lat="47.42233" lon="6.80461">
        <ele>514</ele>
        <time>2015-08-23T08:42:46.000Z</time>
      </trkpt>
      <trkpt lat="47.42236" lon="6.80467">
        <ele>513</ele>
        <time>2015-08-23T08:42:47.000Z</time>
      </trkpt>
      <trkpt lat="47.42245" lon="6.80485">
        <ele>511</ele>
        <time>2015-08-23T08:42:48.000Z</time>
      </trkpt>
      <trkpt lat="47.4225" lon="6.80493">
        <ele>510</ele>
        <time>2015-08-23T08:42:49.000Z</time>
      </trkpt>
      <trkpt lat="47.42254" lon="6.80502">
        <ele>509</ele>
        <time>2015-08-23T08:42:50.000Z</time>
      </trkpt>
      <trkpt lat="47.42258" lon="6.8051">
        <ele>508</ele>
        <time>2015-08-23T08:42:51.000Z</time>
      </trkpt>
      <trkpt lat="47.42262" lon="6.80517">
        <ele>508</ele>
        <time>2015-08-23T08:42:52.000Z</time>
      </trkpt>
      <trkpt lat="47.42266" lon="6.80527">
        <ele>507</ele>
        <time>2015-08-23T08:42:53.000Z</time>
      </trkpt>
      <trkpt lat="47.42271" lon="6.80536">
        <ele>506</ele>
        <time>2015-08-23T08:42:54.000Z</time>
      </trkpt>
      <trkpt lat="47.42276" lon="6.80546">
        <ele>506</ele>
        <time>2015-08-23T08:42:55.000Z</time>
      </trkpt>
      <trkpt lat="47.42282" lon="6.80556">
        <ele>505</ele>
        <time>2015-08-23T08:42:56.000Z</time>
      </trkpt>
      <trkpt lat="47.42287" lon="6.80564">
        <ele>505</ele>
        <time>2015-08-23T08:42:57.000Z</time>
      </trkpt>
      <trkpt lat="47.42292" lon="6.80571">
        <ele>505</ele>
        <time>2015-08-23T08:42:58.000Z</time>
      </trkpt>
      <trkpt lat="47.42295" lon="6.80577">
        <ele>505</ele>
        <time>2015-08-23T08:42:59.000Z</time>
      </trkpt>
      <trkpt lat="47.42302" lon="6.80585">
        <ele>500</ele>
        <time>2015-08-23T08:43:00.000Z</time>
      </trkpt>
      <trkpt lat="47.42306" lon="6.80594">
        <ele>500</ele>
        <time>2015-08-23T08:43:01.000Z</time>
      </trkpt>
      <trkpt lat="47.4231" lon="6.80602">
        <ele>500</ele>
        <time>2015-08-23T08:43:02.000Z</time>
      </trkpt>
      <trkpt lat="47.42313" lon="6.80608">
        <ele>500</ele>
        <time>2015-08-23T08:43:03.000Z</time>
      </trkpt>
      <trkpt lat="47.42316" lon="6.80616">
        <ele>500</ele>
        <time>2015-08-23T08:43:04.000Z</time>
      </trkpt>
      <trkpt lat="47.42322" lon="6.80624">
        <ele>499</ele>
        <time>2015-08-23T08:43:05.000Z</time>
      </trkpt>
      <trkpt lat="47.42327" lon="6.80632">
        <ele>499</ele>
        <time>2015-08-23T08:43:06.000Z</time>
      </trkpt>
      <trkpt lat="47.42333" lon="6.80642">
        <ele>499</ele>
        <time>2015-08-23T08:43:07.000Z</time>
      </trkpt>
      <trkpt lat="47.42338" lon="6.80652">
        <ele>502</ele>
        <time>2015-08-23T08:43:08.000Z</time>
      </trkpt>
      <trkpt lat="47.42343" lon="6.80661">
        <ele>501</ele>
        <time>2015-08-23T08:43:09.000Z</time>
      </trkpt>
      <trkpt lat="47.42345" lon="6.80668">
        <ele>500</ele>
        <time>2015-08-23T08:43:10.000Z</time>
      </trkpt>
      <trkpt lat="47.4235" lon="6.80674">
        <ele>500</ele>
        <time>2015-08-23T08:43:11.000Z</time>
      </trkpt>
      <trkpt lat="47.42356" lon="6.80677">
        <ele>500</ele>
        <time>2015-08-23T08:43:12.000Z</time>
      </trkpt>
      <trkpt lat="47.42359" lon="6.80679">
        <ele>501</ele>
        <time>2015-08-23T08:43:13.000Z</time>
      </trkpt>
      <trkpt lat="47.42362" lon="6.80682">
        <ele>501</ele>
        <time>2015-08-23T08:43:14.000Z</time>
      </trkpt>
      <trkpt lat="47.42366" lon="6.80684">
        <ele>501</ele>
        <time>2015-08-23T08:43:15.000Z</time>
      </trkpt>
      <trkpt lat="47.42369" lon="6.80685">
        <ele>501</ele>
        <time>2015-08-23T08:43:16.000Z</time>
      </trkpt>
      <trkpt lat="47.42374" lon="6.80688">
        <ele>501</ele>
        <time>2015-08-23T08:43:17.000Z</time>
      </trkpt>
      <trkpt lat="47.42378" lon="6.80691">
        <ele>502</ele>
        <time>2015-08-23T08:43:18.000Z</time>
      </trkpt>
      <trkpt lat="47.4238" lon="6.8069">
        <ele>502</ele>
        <time>2015-08-23T08:43:19.000Z</time>
      </trkpt>
      <trkpt lat="47.42383" lon="6.80691">
        <ele>502</ele>
        <time>2015-08-23T08:43:20.000Z</time>
      </trkpt>
      <trkpt lat="47.42385" lon="6.80693">
        <ele>502</ele>
        <time>2015-08-23T08:43:21.000Z</time>
      </trkpt>
      <trkpt lat="47.42387" lon="6.80697">
        <ele>502</ele>
        <time>2015-08-23T08:43:22.000Z</time>
      </trkpt>
      <trkpt lat="47.4239" lon="6.80701">
        <ele>502</ele>
        <time>2015-08-23T08:43:23.000Z</time>
      </trkpt>
      <trkpt lat="47.42392" lon="6.80706">
        <ele>502</ele>
        <time>2015-08-23T08:43:24.000Z</time>
      </trkpt>
      <trkpt lat="47.42395" lon="6.80712">
        <ele>502</ele>
        <time>2015-08-23T08:43:25.000Z</time>
      </trkpt>
      <trkpt lat="47.42397" lon="6.80717">
        <ele>502</ele>
        <time>2015-08-23T08:43:26.000Z</time>
      </trkpt>
      <trkpt lat="47.42399" lon="6.80722">
        <ele>502</ele>
        <time>2015-08-23T08:43:27.000Z</time>
      </trkpt>
      <trkpt lat="47.42402" lon="6.80726">
        <ele>503</ele>
        <time>2015-08-23T08:43:28.000Z</time>
      </trkpt>
      <trkpt lat="47.42405" lon="6.80731">
        <ele>503</ele>
        <time>2015-08-23T08:43:29.000Z</time>
      </trkpt>
      <trkpt lat="47.42407" lon="6.80737">
        <ele>504</ele>
        <time>2015-08-23T08:43:30.000Z</time>
      </trkpt>
      <trkpt lat="47.4241" lon="6.80742">
        <ele>504</ele>
        <time>2015-08-23T08:43:31.000Z</time>
      </trkpt>
      <trkpt lat="47.42419" lon="6.8075">
        <ele>505</ele>
        <time>2015-08-23T08:43:32.000Z</time>
      </trkpt>
      <trkpt lat="47.42422" lon="6.80756">
        <ele>504</ele>
        <time>2015-08-23T08:43:33.000Z</time>
      </trkpt>
      <trkpt lat="47.42425" lon="6.80761">
        <ele>503</ele>
        <time>2015-08-23T08:43:34.000Z</time>
      </trkpt>
      <trkpt lat="47.42432" lon="6.80772">
        <ele>501</ele>
        <time>2015-08-23T08:43:35.000Z</time>
      </trkpt>
      <trkpt lat="47.42438" lon="6.8078">
        <ele>500</ele>
        <time>2015-08-23T08:43:36.000Z</time>
      </trkpt>
      <trkpt lat="47.42443" lon="6.80788">
        <ele>499</ele>
        <time>2015-08-23T08:43:37.000Z</time>
      </trkpt>
      <trkpt lat="47.42452" lon="6.80793">
        <ele>499</ele>
        <time>2015-08-23T08:43:38.000Z</time>
      </trkpt>
      <trkpt lat="47.42461" lon="6.80799">
        <ele>499</ele>
        <time>2015-08-23T08:43:39.000Z</time>
      </trkpt>
      <trkpt lat="47.4247" lon="6.80804">
        <ele>499</ele>
        <time>2015-08-23T08:43:40.000Z</time>
      </trkpt>
      <trkpt lat="47.42478" lon="6.80812">
        <ele>499</ele>
        <time>2015-08-23T08:43:41.000Z</time>
      </trkpt>
      <trkpt lat="47.42484" lon="6.80823">
        <ele>499</ele>
        <time>2015-08-23T08:43:42.000Z</time>
      </trkpt>
      <trkpt lat="47.42493" lon="6.8083">
        <ele>499</ele>
        <time>2015-08-23T08:43:43.000Z</time>
      </trkpt>
      <trkpt lat="47.42499" lon="6.80838">
        <ele>500</ele>
        <time>2015-08-23T08:43:44.000Z</time>
      </trkpt>
      <trkpt lat="47.42506" lon="6.80843">
        <ele>498</ele>
        <time>2015-08-23T08:43:45.000Z</time>
      </trkpt>
      <trkpt lat="47.42514" lon="6.8085">
        <ele>498</ele>
        <time>2015-08-23T08:43:46.000Z</time>
      </trkpt>
      <trkpt lat="47.4252" lon="6.8086">
        <ele>497</ele>
        <time>2015-08-23T08:43:47.000Z</time>
      </trkpt>
      <trkpt lat="47.4253" lon="6.80862">
        <ele>497</ele>
        <time>2015-08-23T08:43:48.000Z</time>
      </trkpt>
      <trkpt lat="47.42538" lon="6.80867">
        <ele>496</ele>
        <time>2015-08-23T08:43:49.000Z</time>
      </trkpt>
      <trkpt lat="47.42546" lon="6.80871">
        <ele>496</ele>
        <time>2015-08-23T08:43:50.000Z</time>
      </trkpt>
      <trkpt lat="47.42553" lon="6.80876">
        <ele>495</ele>
        <time>2015-08-23T08:43:51.000Z</time>
      </trkpt>
      <trkpt lat="47.42561" lon="6.80881">
        <ele>495</ele>
        <time>2015-08-23T08:43:52.000Z</time>
      </trkpt>
      <trkpt lat="47.42568" lon="6.80887">
        <ele>495</ele>
        <time>2015-08-23T08:43:53.000Z</time>
      </trkpt>
      <trkpt lat="47.42575" lon="6.80891">
        <ele>495</ele>
        <time>2015-08-23T08:43:54.000Z</time>
      </trkpt>
      <trkpt lat="47.42582" lon="6.80896">
        <ele>495</ele>
        <time>2015-08-23T08:43:55.000Z</time>
      </trkpt>
      <trkpt lat="47.4259" lon="6.80902">
        <ele>490</ele>
        <time>2015-08-23T08:43:56.000Z</time>
      </trkpt>
      <trkpt lat="47.42599" lon="6.80907">
        <ele>490</ele>
        <time>2015-08-23T08:43:57.000Z</time>
      </trkpt>
      <trkpt lat="47.42604" lon="6.80913">
        <ele>489</ele>
        <time>2015-08-23T08:43:58.000Z</time>
      </trkpt>
      <trkpt lat="47.42611" lon="6.80918">
        <ele>489</ele>
        <time>2015-08-23T08:43:59.000Z</time>
      </trkpt>
      <trkpt lat="47.42617" lon="6.80924">
        <ele>488</ele>
        <time>2015-08-23T08:44:00.000Z</time>
      </trkpt>
      <trkpt lat="47.42621" lon="6.80928">
        <ele>488</ele>
        <time>2015-08-23T08:44:01.000Z</time>
      </trkpt>
      <trkpt lat="47.42625" lon="6.80932">
        <ele>487</ele>
        <time>2015-08-23T08:44:02.000Z</time>
      </trkpt>
      <trkpt lat="47.42626" lon="6.80935">
        <ele>487</ele>
        <time>2015-08-23T08:44:03.000Z</time>
      </trkpt>
      <trkpt lat="47.42627" lon="6.80939">
        <ele>487</ele>
        <time>2015-08-23T08:44:04.000Z</time>
      </trkpt>
      <trkpt lat="47.4263" lon="6.80944">
        <ele>487</ele>
        <time>2015-08-23T08:44:05.000Z</time>
      </trkpt>
      <trkpt lat="47.42633" lon="6.80947">
        <ele>487</ele>
        <time>2015-08-23T08:44:06.000Z</time>
      </trkpt>
      <trkpt lat="47.42636" lon="6.80954">
        <ele>486</ele>
        <time>2015-08-23T08:44:07.000Z</time>
      </trkpt>
      <trkpt lat="47.42639" lon="6.80958">
        <ele>486</ele>
        <time>2015-08-23T08:44:08.000Z</time>
      </trkpt>
      <trkpt lat="47.42643" lon="6.80961">
        <ele>486</ele>
        <time>2015-08-23T08:44:09.000Z</time>
      </trkpt>
      <trkpt lat="47.42647" lon="6.80963">
        <ele>486</ele>
        <time>2015-08-23T08:44:10.000Z</time>
      </trkpt>
      <trkpt lat="47.4265" lon="6.80967">
        <ele>486</ele>
        <time>2015-08-23T08:44:11.000Z</time>
      </trkpt>
      <trkpt lat="47.42653" lon="6.80969">
        <ele>486</ele>
        <time>2015-08-23T08:44:12.000Z</time>
      </trkpt>
      <trkpt lat="47.42656" lon="6.80971">
        <ele>485</ele>
        <time>2015-08-23T08:44:13.000Z</time>
      </trkpt>
      <trkpt lat="47.42659" lon="6.80974">
        <ele>485</ele>
        <time>2015-08-23T08:44:14.000Z</time>
      </trkpt>
      <trkpt lat="47.4266" lon="6.80976">
        <ele>485</ele>
        <time>2015-08-23T08:44:15.000Z</time>
      </trkpt>
      <trkpt lat="47.42662" lon="6.80979">
        <ele>485</ele>
        <time>2015-08-23T08:44:16.000Z</time>
      </trkpt>
      <trkpt lat="47.42665" lon="6.8098">
        <ele>485</ele>
        <time>2015-08-23T08:44:17.000Z</time>
      </trkpt>
      <trkpt lat="47.42667" lon="6.80982">
        <ele>483</ele>
        <time>2015-08-23T08:44:18.000Z</time>
      </trkpt>
      <trkpt lat="47.4267" lon="6.80983">
        <ele>483</ele>
        <time>2015-08-23T08:44:19.000Z</time>
      </trkpt>
      <trkpt lat="47.42672" lon="6.80984">
        <ele>483</ele>
        <time>2015-08-23T08:44:20.000Z</time>
      </trkpt>
      <trkpt lat="47.42674" lon="6.80986">
        <ele>483</ele>
        <time>2015-08-23T08:44:21.000Z</time>
      </trkpt>
      <trkpt lat="47.42677" lon="6.80989">
        <ele>483</ele>
        <time>2015-08-23T08:44:22.000Z</time>
      </trkpt>
      <trkpt lat="47.42679" lon="6.80993">
        <ele>483</ele>
        <time>2015-08-23T08:44:23.000Z</time>
      </trkpt>
      <trkpt lat="47.42682" lon="6.80997">
        <ele>483</ele>
        <time>2015-08-23T08:44:24.000Z</time>
      </trkpt>
      <trkpt lat="47.42684" lon="6.81">
        <ele>481</ele>
        <time>2015-08-23T08:44:25.000Z</time>
      </trkpt>
      <trkpt lat="47.42686" lon="6.81004">
        <ele>480</ele>
        <time>2015-08-23T08:44:26.000Z</time>
      </trkpt>
      <trkpt lat="47.42689" lon="6.81007">
        <ele>480</ele>
        <time>2015-08-23T08:44:27.000Z</time>
      </trkpt>
      <trkpt lat="47.42691" lon="6.8101">
        <ele>480</ele>
        <time>2015-08-23T08:44:28.000Z</time>
      </trkpt>
      <trkpt lat="47.42694" lon="6.81012">
        <ele>480</ele>
        <time>2015-08-23T08:44:29.000Z</time>
      </trkpt>
      <trkpt lat="47.42696" lon="6.81015">
        <ele>479</ele>
        <time>2015-08-23T08:44:30.000Z</time>
      </trkpt>
      <trkpt lat="47.42699" lon="6.81017">
        <ele>479</ele>
        <time>2015-08-23T08:44:31.000Z</time>
      </trkpt>
      <trkpt lat="47.42701" lon="6.8102">
        <ele>479</ele>
        <time>2015-08-23T08:44:32.000Z</time>
      </trkpt>
      <trkpt lat="47.42704" lon="6.81022">
        <ele>479</ele>
        <time>2015-08-23T08:44:33.000Z</time>
      </trkpt>
      <trkpt lat="47.42706" lon="6.81024">
        <ele>479</ele>
        <time>2015-08-23T08:44:34.000Z</time>
      </trkpt>
      <trkpt lat="47.42708" lon="6.81025">
        <ele>479</ele>
        <time>2015-08-23T08:44:35.000Z</time>
      </trkpt>
      <trkpt lat="47.42711" lon="6.81029">
        <ele>479</ele>
        <time>2015-08-23T08:44:37.000Z</time>
      </trkpt>
      <trkpt lat="47.42714" lon="6.8103">
        <ele>479</ele>
        <time>2015-08-23T08:44:38.000Z</time>
      </trkpt>
      <trkpt lat="47.42716" lon="6.81032">
        <ele>479</ele>
        <time>2015-08-23T08:44:39.000Z</time>
      </trkpt>
      <trkpt lat="47.42719" lon="6.81035">
        <ele>478</ele>
        <time>2015-08-23T08:44:40.000Z</time>
      </trkpt>
      <trkpt lat="47.42722" lon="6.81038">
        <ele>478</ele>
        <time>2015-08-23T08:44:41.000Z</time>
      </trkpt>
      <trkpt lat="47.42725" lon="6.81042">
        <ele>478</ele>
        <time>2015-08-23T08:44:42.000Z</time>
      </trkpt>
      <trkpt lat="47.42728" lon="6.81045">
        <ele>478</ele>
        <time>2015-08-23T08:44:43.000Z</time>
      </trkpt>
      <trkpt lat="47.42731" lon="6.81048">
        <ele>478</ele>
        <time>2015-08-23T08:44:44.000Z</time>
      </trkpt>
      <trkpt lat="47.42734" lon="6.8105">
        <ele>477</ele>
        <time>2015-08-23T08:44:45.000Z</time>
      </trkpt>
      <trkpt lat="47.42736" lon="6.81053">
        <ele>477</ele>
        <time>2015-08-23T08:44:46.000Z</time>
      </trkpt>
      <trkpt lat="47.42739" lon="6.81056">
        <ele>477</ele>
        <time>2015-08-23T08:44:47.000Z</time>
      </trkpt>
      <trkpt lat="47.42742" lon="6.8106">
        <ele>477</ele>
        <time>2015-08-23T08:44:48.000Z</time>
      </trkpt>
      <trkpt lat="47.42745" lon="6.81065">
        <ele>476</ele>
        <time>2015-08-23T08:44:49.000Z</time>
      </trkpt>
      <trkpt lat="47.42749" lon="6.8107">
        <ele>476</ele>
        <time>2015-08-23T08:44:50.000Z</time>
      </trkpt>
      <trkpt lat="47.42752" lon="6.81076">
        <ele>475</ele>
        <time>2015-08-23T08:44:51.000Z</time>
      </trkpt>
      <trkpt lat="47.42756" lon="6.81082">
        <ele>475</ele>
        <time>2015-08-23T08:44:52.000Z</time>
      </trkpt>
      <trkpt lat="47.4276" lon="6.81087">
        <ele>473</ele>
        <time>2015-08-23T08:44:53.000Z</time>
      </trkpt>
      <trkpt lat="47.42763" lon="6.81092">
        <ele>473</ele>
        <time>2015-08-23T08:44:54.000Z</time>
      </trkpt>
      <trkpt lat="47.42766" lon="6.81098">
        <ele>472</ele>
        <time>2015-08-23T08:44:55.000Z</time>
      </trkpt>
      <trkpt lat="47.4277" lon="6.81102">
        <ele>472</ele>
        <time>2015-08-23T08:44:56.000Z</time>
      </trkpt>
      <trkpt lat="47.42773" lon="6.81107">
        <ele>472</ele>
        <time>2015-08-23T08:44:57.000Z</time>
      </trkpt>
      <trkpt lat="47.42776" lon="6.81112">
        <ele>472</ele>
        <time>2015-08-23T08:44:58.000Z</time>
      </trkpt>
      <trkpt lat="47.4278" lon="6.81116">
        <ele>471</ele>
        <time>2015-08-23T08:44:59.000Z</time>
      </trkpt>
      <trkpt lat="47.42783" lon="6.8112">
        <ele>471</ele>
        <time>2015-08-23T08:45:00.000Z</time>
      </trkpt>
      <trkpt lat="47.42786" lon="6.81124">
        <ele>471</ele>
        <time>2015-08-23T08:45:01.000Z</time>
      </trkpt>
      <trkpt lat="47.4279" lon="6.81128">
        <ele>471</ele>
        <time>2015-08-23T08:45:02.000Z</time>
      </trkpt>
      <trkpt lat="47.42793" lon="6.81133">
        <ele>471</ele>
        <time>2015-08-23T08:45:03.000Z</time>
      </trkpt>
      <trkpt lat="47.42797" lon="6.81138">
        <ele>471</ele>
        <time>2015-08-23T08:45:04.000Z</time>
      </trkpt>
      <trkpt lat="47.42801" lon="6.81143">
        <ele>471</ele>
        <time>2015-08-23T08:45:05.000Z</time>
      </trkpt>
      <trkpt lat="47.42806" lon="6.81148">
        <ele>471</ele>
        <time>2015-08-23T08:45:06.000Z</time>
      </trkpt>
      <trkpt lat="47.42811" lon="6.81153">
        <ele>471</ele>
        <time>2015-08-23T08:45:07.000Z</time>
      </trkpt>
      <trkpt lat="47.42825" lon="6.81159">
        <ele>472</ele>
        <time>2015-08-23T08:45:08.000Z</time>
      </trkpt>
      <trkpt lat="47.42829" lon="6.81166">
        <ele>472</ele>
        <time>2015-08-23T08:45:09.000Z</time>
      </trkpt>
      <trkpt lat="47.42832" lon="6.8117">
        <ele>470</ele>
        <time>2015-08-23T08:45:10.000Z</time>
      </trkpt>
      <trkpt lat="47.42834" lon="6.81174">
        <ele>471</ele>
        <time>2015-08-23T08:45:11.000Z</time>
      </trkpt>
      <trkpt lat="47.42836" lon="6.8118">
        <ele>470</ele>
        <time>2015-08-23T08:45:12.000Z</time>
      </trkpt>
      <trkpt lat="47.4284" lon="6.81186">
        <ele>469</ele>
        <time>2015-08-23T08:45:13.000Z</time>
      </trkpt>
      <trkpt lat="47.42844" lon="6.81193">
        <ele>469</ele>
        <time>2015-08-23T08:45:14.000Z</time>
      </trkpt>
      <trkpt lat="47.42846" lon="6.812">
        <ele>468</ele>
        <time>2015-08-23T08:45:15.000Z</time>
      </trkpt>
      <trkpt lat="47.42852" lon="6.81208">
        <ele>468</ele>
        <time>2015-08-23T08:45:16.000Z</time>
      </trkpt>
      <trkpt lat="47.42855" lon="6.81211">
        <ele>468</ele>
        <time>2015-08-23T08:45:17.000Z</time>
      </trkpt>
      <trkpt lat="47.42858" lon="6.81215">
        <ele>467</ele>
        <time>2015-08-23T08:45:18.000Z</time>
      </trkpt>
      <trkpt lat="47.42862" lon="6.81219">
        <ele>467</ele>
        <time>2015-08-23T08:45:19.000Z</time>
      </trkpt>
      <trkpt lat="47.42864" lon="6.81225">
        <ele>467</ele>
        <time>2015-08-23T08:45:20.000Z</time>
      </trkpt>
      <trkpt lat="47.42868" lon="6.81231">
        <ele>467</ele>
        <time>2015-08-23T08:45:21.000Z</time>
      </trkpt>
      <trkpt lat="47.42871" lon="6.81235">
        <ele>467</ele>
        <time>2015-08-23T08:45:22.000Z</time>
      </trkpt>
      <trkpt lat="47.42875" lon="6.81241">
        <ele>467</ele>
        <time>2015-08-23T08:45:23.000Z</time>
      </trkpt>
      <trkpt lat="47.42877" lon="6.81245">
        <ele>467</ele>
        <time>2015-08-23T08:45:24.000Z</time>
      </trkpt>
      <trkpt lat="47.42879" lon="6.81251">
        <ele>463</ele>
        <time>2015-08-23T08:45:25.000Z</time>
      </trkpt>
      <trkpt lat="47.4288" lon="6.81255">
        <ele>463</ele>
        <time>2015-08-23T08:45:26.000Z</time>
      </trkpt>
      <trkpt lat="47.42882" lon="6.81259">
        <ele>463</ele>
        <time>2015-08-23T08:45:27.000Z</time>
      </trkpt>
      <trkpt lat="47.42884" lon="6.81262">
        <ele>463</ele>
        <time>2015-08-23T08:45:28.000Z</time>
      </trkpt>
      <trkpt lat="47.42885" lon="6.81266">
        <ele>463</ele>
        <time>2015-08-23T08:45:29.000Z</time>
      </trkpt>
      <trkpt lat="47.42887" lon="6.8127">
        <ele>463</ele>
        <time>2015-08-23T08:45:30.000Z</time>
      </trkpt>
      <trkpt lat="47.42888" lon="6.81274">
        <ele>462</ele>
        <time>2015-08-23T08:45:31.000Z</time>
      </trkpt>
      <trkpt lat="47.42891" lon="6.81279">
        <ele>462</ele>
        <time>2015-08-23T08:45:32.000Z</time>
      </trkpt>
      <trkpt lat="47.42893" lon="6.81284">
        <ele>462</ele>
        <time>2015-08-23T08:45:33.000Z</time>
      </trkpt>
      <trkpt lat="47.42895" lon="6.81287">
        <ele>462</ele>
        <time>2015-08-23T08:45:34.000Z</time>
      </trkpt>
      <trkpt lat="47.42897" lon="6.8129">
        <ele>462</ele>
        <time>2015-08-23T08:45:35.000Z</time>
      </trkpt>
      <trkpt lat="47.42899" lon="6.81293">
        <ele>462</ele>
        <time>2015-08-23T08:45:36.000Z</time>
      </trkpt>
      <trkpt lat="47.429" lon="6.81296">
        <ele>462</ele>
        <time>2015-08-23T08:45:37.000Z</time>
      </trkpt>
      <trkpt lat="47.42902" lon="6.81299">
        <ele>462</ele>
        <time>2015-08-23T08:45:38.000Z</time>
      </trkpt>
      <trkpt lat="47.42903" lon="6.81302">
        <ele>461</ele>
        <time>2015-08-23T08:45:39.000Z</time>
      </trkpt>
      <trkpt lat="47.42905" lon="6.81304">
        <ele>461</ele>
        <time>2015-08-23T08:45:40.000Z</time>
      </trkpt>
      <trkpt lat="47.42906" lon="6.81306">
        <ele>461</ele>
        <time>2015-08-23T08:45:41.000Z</time>
      </trkpt>
      <trkpt lat="47.42908" lon="6.81309">
        <ele>461</ele>
        <time>2015-08-23T08:45:42.000Z</time>
      </trkpt>
      <trkpt lat="47.42911" lon="6.81312">
        <ele>461</ele>
        <time>2015-08-23T08:45:43.000Z</time>
      </trkpt>
      <trkpt lat="47.42913" lon="6.81315">
        <ele>461</ele>
        <time>2015-08-23T08:45:44.000Z</time>
      </trkpt>
      <trkpt lat="47.42916" lon="6.81318">
        <ele>461</ele>
        <time>2015-08-23T08:45:45.000Z</time>
      </trkpt>
      <trkpt lat="47.42918" lon="6.81321">
        <ele>463</ele>
        <time>2015-08-23T08:45:46.000Z</time>
      </trkpt>
      <trkpt lat="47.42919" lon="6.81323">
        <ele>463</ele>
        <time>2015-08-23T08:45:47.000Z</time>
      </trkpt>
      <trkpt lat="47.42923" lon="6.81325">
        <ele>463</ele>
        <time>2015-08-23T08:45:49.000Z</time>
      </trkpt>
      <trkpt lat="47.42924" lon="6.81326">
        <ele>463</ele>
        <time>2015-08-23T08:45:50.000Z</time>
      </trkpt>
      <trkpt lat="47.42928" lon="6.81329">
        <ele>463</ele>
        <time>2015-08-23T08:45:55.000Z</time>
      </trkpt>
      <trkpt lat="47.42929" lon="6.81329">
        <ele>463</ele>
        <time>2015-08-23T08:45:56.000Z</time>
      </trkpt>
      <trkpt lat="47.42932" lon="6.81332">
        <ele>464</ele>
        <time>2015-08-23T08:46:00.000Z</time>
      </trkpt>
      <trkpt lat="47.42933" lon="6.81333">
        <ele>464</ele>
        <time>2015-08-23T08:46:01.000Z</time>
      </trkpt>
      <trkpt lat="47.42936" lon="6.81337">
        <ele>462</ele>
        <time>2015-08-23T08:46:04.000Z</time>
      </trkpt>
      <trkpt lat="47.42937" lon="6.81338">
        <ele>462</ele>
        <time>2015-08-23T08:46:05.000Z</time>
      </trkpt>
      <trkpt lat="47.42939" lon="6.81342">
        <ele>462</ele>
        <time>2015-08-23T08:46:07.000Z</time>
      </trkpt>
      <trkpt lat="47.42939" lon="6.81345">
        <ele>462</ele>
        <time>2015-08-23T08:46:08.000Z</time>
      </trkpt>
      <trkpt lat="47.4294" lon="6.81348">
        <ele>462</ele>
        <time>2015-08-23T08:46:09.000Z</time>
      </trkpt>
      <trkpt lat="47.42942" lon="6.81351">
        <ele>462</ele>
        <time>2015-08-23T08:46:10.000Z</time>
      </trkpt>
      <trkpt lat="47.42943" lon="6.81354">
        <ele>462</ele>
        <time>2015-08-23T08:46:11.000Z</time>
      </trkpt>
      <trkpt lat="47.42945" lon="6.81356">
        <ele>462</ele>
        <time>2015-08-23T08:46:12.000Z</time>
      </trkpt>
      <trkpt lat="47.42947" lon="6.8136">
        <ele>462</ele>
        <time>2015-08-23T08:46:13.000Z</time>
      </trkpt>
      <trkpt lat="47.42949" lon="6.81363">
        <ele>462</ele>
        <time>2015-08-23T08:46:14.000Z</time>
      </trkpt>
      <trkpt lat="47.4295" lon="6.81367">
        <ele>461</ele>
        <time>2015-08-23T08:46:15.000Z</time>
      </trkpt>
      <trkpt lat="47.42952" lon="6.81372">
        <ele>461</ele>
        <time>2015-08-23T08:46:16.000Z</time>
      </trkpt>
      <trkpt lat="47.42954" lon="6.81376">
        <ele>461</ele>
        <time>2015-08-23T08:46:17.000Z</time>
      </trkpt>
      <trkpt lat="47.42955" lon="6.8138">
        <ele>461</ele>
        <time>2015-08-23T08:46:18.000Z</time>
      </trkpt>
      <trkpt lat="47.42957" lon="6.81384">
        <ele>461</ele>
        <time>2015-08-23T08:46:19.000Z</time>
      </trkpt>
      <trkpt lat="47.42959" lon="6.81389">
        <ele>461</ele>
        <time>2015-08-23T08:46:20.000Z</time>
      </trkpt>
      <trkpt lat="47.42961" lon="6.81393">
        <ele>461</ele>
        <time>2015-08-23T08:46:21.000Z</time>
      </trkpt>
      <trkpt lat="47.42963" lon="6.81398">
        <ele>461</ele>
        <time>2015-08-23T08:46:22.000Z</time>
      </trkpt>
      <trkpt lat="47.42966" lon="6.81403">
        <ele>461</ele>
        <time>2015-08-23T08:46:23.000Z</time>
      </trkpt>
      <trkpt lat="47.42968" lon="6.81408">
        <ele>461</ele>
        <time>2015-08-23T08:46:24.000Z</time>
      </trkpt>
      <trkpt lat="47.42971" lon="6.81413">
        <ele>461</ele>
        <time>2015-08-23T08:46:25.000Z</time>
      </trkpt>
      <trkpt lat="47.42974" lon="6.8142">
        <ele>457</ele>
        <time>2015-08-23T08:46:26.000Z</time>
      </trkpt>
      <trkpt lat="47.42978" lon="6.81426">
        <ele>458</ele>
        <time>2015-08-23T08:46:27.000Z</time>
      </trkpt>
      <trkpt lat="47.42982" lon="6.81431">
        <ele>458</ele>
        <time>2015-08-23T08:46:28.000Z</time>
      </trkpt>
      <trkpt lat="47.42987" lon="6.81437">
        <ele>458</ele>
        <time>2015-08-23T08:46:29.000Z</time>
      </trkpt>
      <trkpt lat="47.42992" lon="6.81441">
        <ele>458</ele>
        <time>2015-08-23T08:46:30.000Z</time>
      </trkpt>
      <trkpt lat="47.42997" lon="6.81445">
        <ele>457</ele>
        <time>2015-08-23T08:46:31.000Z</time>
      </trkpt>
      <trkpt lat="47.43" lon="6.81448">
        <ele>457</ele>
        <time>2015-08-23T08:46:32.000Z</time>
      </trkpt>
      <trkpt lat="47.43003" lon="6.81451">
        <ele>460</ele>
        <time>2015-08-23T08:46:33.000Z</time>
      </trkpt>
      <trkpt lat="47.43007" lon="6.81455">
        <ele>459</ele>
        <time>2015-08-23T08:46:34.000Z</time>
      </trkpt>
      <trkpt lat="47.4301" lon="6.81459">
        <ele>459</ele>
        <time>2015-08-23T08:46:35.000Z</time>
      </trkpt>
      <trkpt lat="47.43014" lon="6.81463">
        <ele>459</ele>
        <time>2015-08-23T08:46:36.000Z</time>
      </trkpt>
      <trkpt lat="47.43018" lon="6.81468">
        <ele>458</ele>
        <time>2015-08-23T08:46:37.000Z</time>
      </trkpt>
      <trkpt lat="47.43032" lon="6.8148">
        <ele>458</ele>
        <time>2015-08-23T08:46:38.000Z</time>
      </trkpt>
      <trkpt lat="47.43038" lon="6.81487">
        <ele>458</ele>
        <time>2015-08-23T08:46:39.000Z</time>
      </trkpt>
      <trkpt lat="47.43042" lon="6.81494">
        <ele>457</ele>
        <time>2015-08-23T08:46:40.000Z</time>
      </trkpt>
      <trkpt lat="47.43046" lon="6.81499">
        <ele>457</ele>
        <time>2015-08-23T08:46:41.000Z</time>
      </trkpt>
      <trkpt lat="47.4305" lon="6.81504">
        <ele>452</ele>
        <time>2015-08-23T08:46:42.000Z</time>
      </trkpt>
      <trkpt lat="47.43053" lon="6.81511">
        <ele>452</ele>
        <time>2015-08-23T08:46:43.000Z</time>
      </trkpt>
      <trkpt lat="47.43054" lon="6.81514">
        <ele>452</ele>
        <time>2015-08-23T08:46:44.000Z</time>
      </trkpt>
      <trkpt lat="47.43053" lon="6.81519">
        <ele>451</ele>
        <time>2015-08-23T08:46:45.000Z</time>
      </trkpt>
      <trkpt lat="47.43052" lon="6.81524">
        <ele>451</ele>
        <time>2015-08-23T08:46:46.000Z</time>
      </trkpt>
      <trkpt lat="47.43044" lon="6.81526">
        <ele>451</ele>
        <time>2015-08-23T08:46:47.000Z</time>
      </trkpt>
      <trkpt lat="47.43041" lon="6.81528">
        <ele>451</ele>
        <time>2015-08-23T08:46:48.000Z</time>
      </trkpt>
      <trkpt lat="47.4304" lon="6.8153">
        <ele>451</ele>
        <time>2015-08-23T08:46:49.000Z</time>
      </trkpt>
      <trkpt lat="47.43044" lon="6.81527">
        <ele>451</ele>
        <time>2015-08-23T08:48:56.000Z</time>
      </trkpt>
      <trkpt lat="47.43044" lon="6.81529">
        <ele>451</ele>
        <time>2015-08-23T08:48:57.000Z</time>
      </trkpt>
      <trkpt lat="47.43049" lon="6.8154">
        <ele>450</ele>
        <time>2015-08-23T08:48:58.000Z</time>
      </trkpt>
      <trkpt lat="47.4305" lon="6.81546">
        <ele>449</ele>
        <time>2015-08-23T08:48:59.000Z</time>
      </trkpt>
      <trkpt lat="47.43056" lon="6.81554">
        <ele>449</ele>
        <time>2015-08-23T08:49:00.000Z</time>
      </trkpt>
      <trkpt lat="47.43059" lon="6.81561">
        <ele>448</ele>
        <time>2015-08-23T08:49:01.000Z</time>
      </trkpt>
      <trkpt lat="47.43063" lon="6.81567">
        <ele>448</ele>
        <time>2015-08-23T08:49:02.000Z</time>
      </trkpt>
      <trkpt lat="47.43066" lon="6.81573">
        <ele>447</ele>
        <time>2015-08-23T08:49:03.000Z</time>
      </trkpt>
      <trkpt lat="47.4307" lon="6.81578">
        <ele>446</ele>
        <time>2015-08-23T08:49:04.000Z</time>
      </trkpt>
      <trkpt lat="47.43073" lon="6.81583">
        <ele>440</ele>
        <time>2015-08-23T08:49:05.000Z</time>
      </trkpt>
      <trkpt lat="47.43082" lon="6.81591">
        <ele>441</ele>
        <time>2015-08-23T08:49:06.000Z</time>
      </trkpt>
      <trkpt lat="47.43091" lon="6.81596">
        <ele>439</ele>
        <time>2015-08-23T08:49:07.000Z</time>
      </trkpt>
      <trkpt lat="47.431" lon="6.81595">
        <ele>438</ele>
        <time>2015-08-23T08:49:08.000Z</time>
      </trkpt>
      <trkpt lat="47.43105" lon="6.81594">
        <ele>437</ele>
        <time>2015-08-23T08:49:09.000Z</time>
      </trkpt>
      <trkpt lat="47.43113" lon="6.81598">
        <ele>436</ele>
        <time>2015-08-23T08:49:10.000Z</time>
      </trkpt>
      <trkpt lat="47.43121" lon="6.816">
        <ele>436</ele>
        <time>2015-08-23T08:49:11.000Z</time>
      </trkpt>
      <trkpt lat="47.43129" lon="6.81605">
        <ele>435</ele>
        <time>2015-08-23T08:49:12.000Z</time>
      </trkpt>
      <trkpt lat="47.43137" lon="6.81605">
        <ele>435</ele>
        <time>2015-08-23T08:49:13.000Z</time>
      </trkpt>
      <trkpt lat="47.43146" lon="6.81607">
        <ele>435</ele>
        <time>2015-08-23T08:49:14.000Z</time>
      </trkpt>
      <trkpt lat="47.43155" lon="6.81606">
        <ele>436</ele>
        <time>2015-08-23T08:49:15.000Z</time>
      </trkpt>
      <trkpt lat="47.43163" lon="6.81606">
        <ele>436</ele>
        <time>2015-08-23T08:49:16.000Z</time>
      </trkpt>
      <trkpt lat="47.43172" lon="6.81607">
        <ele>437</ele>
        <time>2015-08-23T08:49:17.000Z</time>
      </trkpt>
      <trkpt lat="47.43178" lon="6.81607">
        <ele>437</ele>
        <time>2015-08-23T08:49:18.000Z</time>
      </trkpt>
      <trkpt lat="47.43185" lon="6.8161">
        <ele>436</ele>
        <time>2015-08-23T08:49:19.000Z</time>
      </trkpt>
      <trkpt lat="47.43192" lon="6.81611">
        <ele>436</ele>
        <time>2015-08-23T08:49:20.000Z</time>
      </trkpt>
      <trkpt lat="47.43198" lon="6.81612">
        <ele>436</ele>
        <time>2015-08-23T08:49:21.000Z</time>
      </trkpt>
      <trkpt lat="47.43204" lon="6.81615">
        <ele>436</ele>
        <time>2015-08-23T08:49:22.000Z</time>
      </trkpt>
      <trkpt lat="47.43212" lon="6.8162">
        <ele>436</ele>
        <time>2015-08-23T08:49:23.000Z</time>
      </trkpt>
      <trkpt lat="47.4322" lon="6.81622">
        <ele>436</ele>
        <time>2015-08-23T08:49:24.000Z</time>
      </trkpt>
      <trkpt lat="47.43227" lon="6.81626">
        <ele>436</ele>
        <time>2015-08-23T08:49:25.000Z</time>
      </trkpt>
      <trkpt lat="47.43235" lon="6.81632">
        <ele>435</ele>
        <time>2015-08-23T08:49:26.000Z</time>
      </trkpt>
      <trkpt lat="47.43241" lon="6.81634">
        <ele>435</ele>
        <time>2015-08-23T08:49:27.000Z</time>
      </trkpt>
      <trkpt lat="47.43244" lon="6.81634">
        <ele>435</ele>
        <time>2015-08-23T08:49:28.000Z</time>
      </trkpt>
      <trkpt lat="47.43247" lon="6.81636">
        <ele>435</ele>
        <time>2015-08-23T08:49:29.000Z</time>
      </trkpt>
      <trkpt lat="47.43248" lon="6.81641">
        <ele>434</ele>
        <time>2015-08-23T08:49:31.000Z</time>
      </trkpt>
      <trkpt lat="47.4325" lon="6.81642">
        <ele>434</ele>
        <time>2015-08-23T08:49:32.000Z</time>
      </trkpt>
      <trkpt lat="47.43252" lon="6.81646">
        <ele>435</ele>
        <time>2015-08-23T08:49:37.000Z</time>
      </trkpt>
      <trkpt lat="47.43251" lon="6.8165">
        <ele>434</ele>
        <time>2015-08-23T08:49:38.000Z</time>
      </trkpt>
      <trkpt lat="47.43252" lon="6.81653">
        <ele>434</ele>
        <time>2015-08-23T08:49:39.000Z</time>
      </trkpt>
      <trkpt lat="47.43254" lon="6.81658">
        <ele>433</ele>
        <time>2015-08-23T08:49:40.000Z</time>
      </trkpt>
      <trkpt lat="47.43256" lon="6.81662">
        <ele>433</ele>
        <time>2015-08-23T08:49:41.000Z</time>
      </trkpt>
      <trkpt lat="47.43259" lon="6.81666">
        <ele>433</ele>
        <time>2015-08-23T08:49:42.000Z</time>
      </trkpt>
      <trkpt lat="47.43262" lon="6.8167">
        <ele>428</ele>
        <time>2015-08-23T08:49:43.000Z</time>
      </trkpt>
      <trkpt lat="47.43264" lon="6.81675">
        <ele>427</ele>
        <time>2015-08-23T08:49:44.000Z</time>
      </trkpt>
      <trkpt lat="47.43266" lon="6.8168">
        <ele>426</ele>
        <time>2015-08-23T08:49:45.000Z</time>
      </trkpt>
      <trkpt lat="47.43269" lon="6.81686">
        <ele>425</ele>
        <time>2015-08-23T08:49:46.000Z</time>
      </trkpt>
      <trkpt lat="47.43272" lon="6.81692">
        <ele>424</ele>
        <time>2015-08-23T08:49:47.000Z</time>
      </trkpt>
      <trkpt lat="47.43276" lon="6.81697">
        <ele>424</ele>
        <time>2015-08-23T08:49:48.000Z</time>
      </trkpt>
      <trkpt lat="47.43281" lon="6.817">
        <ele>423</ele>
        <time>2015-08-23T08:49:49.000Z</time>
      </trkpt>
      <trkpt lat="47.43285" lon="6.81704">
        <ele>423</ele>
        <time>2015-08-23T08:49:50.000Z</time>
      </trkpt>
      <trkpt lat="47.43288" lon="6.81707">
        <ele>423</ele>
        <time>2015-08-23T08:49:51.000Z</time>
      </trkpt>
      <trkpt lat="47.43293" lon="6.8171">
        <ele>423</ele>
        <time>2015-08-23T08:49:52.000Z</time>
      </trkpt>
      <trkpt lat="47.43297" lon="6.81713">
        <ele>422</ele>
        <time>2015-08-23T08:49:53.000Z</time>
      </trkpt>
      <trkpt lat="47.43302" lon="6.81715">
        <ele>422</ele>
        <time>2015-08-23T08:49:54.000Z</time>
      </trkpt>
      <trkpt lat="47.43306" lon="6.81717">
        <ele>422</ele>
        <time>2015-08-23T08:49:55.000Z</time>
      </trkpt>
      <trkpt lat="47.4331" lon="6.8172">
        <ele>422</ele>
        <time>2015-08-23T08:49:56.000Z</time>
      </trkpt>
      <trkpt lat="47.43314" lon="6.81723">
        <ele>422</ele>
        <time>2015-08-23T08:49:57.000Z</time>
      </trkpt>
      <trkpt lat="47.43317" lon="6.81725">
        <ele>422</ele>
        <time>2015-08-23T08:49:58.000Z</time>
      </trkpt>
      <trkpt lat="47.4332" lon="6.81728">
        <ele>421</ele>
        <time>2015-08-23T08:49:59.000Z</time>
      </trkpt>
      <trkpt lat="47.43323" lon="6.81731">
        <ele>421</ele>
        <time>2015-08-23T08:50:00.000Z</time>
      </trkpt>
      <trkpt lat="47.43325" lon="6.81734">
        <ele>421</ele>
        <time>2015-08-23T08:50:01.000Z</time>
      </trkpt>
      <trkpt lat="47.43328" lon="6.81736">
        <ele>420</ele>
        <time>2015-08-23T08:50:02.000Z</time>
      </trkpt>
      <trkpt lat="47.43331" lon="6.8174">
        <ele>420</ele>
        <time>2015-08-23T08:50:03.000Z</time>
      </trkpt>
      <trkpt lat="47.43335" lon="6.81743">
        <ele>419</ele>
        <time>2015-08-23T08:50:04.000Z</time>
      </trkpt>
      <trkpt lat="47.43339" lon="6.81746">
        <ele>419</ele>
        <time>2015-08-23T08:50:05.000Z</time>
      </trkpt>
      <trkpt lat="47.43344" lon="6.81746">
        <ele>419</ele>
        <time>2015-08-23T08:50:06.000Z</time>
      </trkpt>
      <trkpt lat="47.43348" lon="6.81746">
        <ele>419</ele>
        <time>2015-08-23T08:50:07.000Z</time>
      </trkpt>
      <trkpt lat="47.43352" lon="6.81745">
        <ele>419</ele>
        <time>2015-08-23T08:50:08.000Z</time>
      </trkpt>
      <trkpt lat="47.43355" lon="6.81747">
        <ele>419</ele>
        <time>2015-08-23T08:50:09.000Z</time>
      </trkpt>
      <trkpt lat="47.43357" lon="6.8175">
        <ele>419</ele>
        <time>2015-08-23T08:50:10.000Z</time>
      </trkpt>
      <trkpt lat="47.43364" lon="6.81761">
        <ele>408</ele>
        <time>2015-08-23T08:50:11.000Z</time>
      </trkpt>
      <trkpt lat="47.43368" lon="6.81766">
        <ele>407</ele>
        <time>2015-08-23T08:50:12.000Z</time>
      </trkpt>
      <trkpt lat="47.43373" lon="6.81771">
        <ele>406</ele>
        <time>2015-08-23T08:50:13.000Z</time>
      </trkpt>
      <trkpt lat="47.43379" lon="6.81776">
        <ele>405</ele>
        <time>2015-08-23T08:50:14.000Z</time>
      </trkpt>
      <trkpt lat="47.43384" lon="6.81782">
        <ele>405</ele>
        <time>2015-08-23T08:50:15.000Z</time>
      </trkpt>
      <trkpt lat="47.43389" lon="6.81785">
        <ele>404</ele>
        <time>2015-08-23T08:50:16.000Z</time>
      </trkpt>
      <trkpt lat="47.43396" lon="6.81787">
        <ele>404</ele>
        <time>2015-08-23T08:50:17.000Z</time>
      </trkpt>
      <trkpt lat="47.43401" lon="6.81786">
        <ele>404</ele>
        <time>2015-08-23T08:50:18.000Z</time>
      </trkpt>
      <trkpt lat="47.43404" lon="6.81786">
        <ele>404</ele>
        <time>2015-08-23T08:50:19.000Z</time>
      </trkpt>
      <trkpt lat="47.43408" lon="6.81785">
        <ele>404</ele>
        <time>2015-08-23T08:50:20.000Z</time>
      </trkpt>
      <trkpt lat="47.4341" lon="6.81784">
        <ele>404</ele>
        <time>2015-08-23T08:50:21.000Z</time>
      </trkpt>
      <trkpt lat="47.43412" lon="6.81786">
        <ele>404</ele>
        <time>2015-08-23T08:50:22.000Z</time>
      </trkpt>
      <trkpt lat="47.43416" lon="6.81787">
        <ele>403</ele>
        <time>2015-08-23T08:50:23.000Z</time>
      </trkpt>
      <trkpt lat="47.43419" lon="6.81787">
        <ele>399</ele>
        <time>2015-08-23T08:50:24.000Z</time>
      </trkpt>
      <trkpt lat="47.43421" lon="6.81782">
        <ele>400</ele>
        <time>2015-08-23T08:50:25.000Z</time>
      </trkpt>
      <trkpt lat="47.43423" lon="6.81782">
        <ele>400</ele>
        <time>2015-08-23T08:50:26.000Z</time>
      </trkpt>
      <trkpt lat="47.43425" lon="6.8178">
        <ele>400</ele>
        <time>2015-08-23T08:50:27.000Z</time>
      </trkpt>
      <trkpt lat="47.43428" lon="6.81779">
        <ele>400</ele>
        <time>2015-08-23T08:50:28.000Z</time>
      </trkpt>
      <trkpt lat="47.43431" lon="6.81779">
        <ele>400</ele>
        <time>2015-08-23T08:50:29.000Z</time>
      </trkpt>
      <trkpt lat="47.43434" lon="6.81781">
        <ele>399</ele>
        <time>2015-08-23T08:50:30.000Z</time>
      </trkpt>
      <trkpt lat="47.43439" lon="6.81783">
        <ele>399</ele>
        <time>2015-08-23T08:50:31.000Z</time>
      </trkpt>
      <trkpt lat="47.43443" lon="6.81784">
        <ele>398</ele>
        <time>2015-08-23T08:50:32.000Z</time>
      </trkpt>
      <trkpt lat="47.43448" lon="6.81786">
        <ele>398</ele>
        <time>2015-08-23T08:50:33.000Z</time>
      </trkpt>
      <trkpt lat="47.43453" lon="6.81788">
        <ele>397</ele>
        <time>2015-08-23T08:50:34.000Z</time>
      </trkpt>
      <trkpt lat="47.4347" lon="6.81792">
        <ele>396</ele>
        <time>2015-08-23T08:50:35.000Z</time>
      </trkpt>
      <trkpt lat="47.43478" lon="6.81794">
        <ele>395</ele>
        <time>2015-08-23T08:50:36.000Z</time>
      </trkpt>
      <trkpt lat="47.43488" lon="6.81794">
        <ele>395</ele>
        <time>2015-08-23T08:50:37.000Z</time>
      </trkpt>
      <trkpt lat="47.43495" lon="6.81794">
        <ele>395</ele>
        <time>2015-08-23T08:50:38.000Z</time>
      </trkpt>
      <trkpt lat="47.43501" lon="6.81793">
        <ele>389</ele>
        <time>2015-08-23T08:50:39.000Z</time>
      </trkpt>
      <trkpt lat="47.43508" lon="6.8179">
        <ele>389</ele>
        <time>2015-08-23T08:50:40.000Z</time>
      </trkpt>
      <trkpt lat="47.43511" lon="6.81786">
        <ele>389</ele>
        <time>2015-08-23T08:50:41.000Z</time>
      </trkpt>
      <trkpt lat="47.43514" lon="6.81782">
        <ele>389</ele>
        <time>2015-08-23T08:50:42.000Z</time>
      </trkpt>
      <trkpt lat="47.43517" lon="6.8178">
        <ele>389</ele>
        <time>2015-08-23T08:50:43.000Z</time>
      </trkpt>
      <trkpt lat="47.4352" lon="6.8178">
        <ele>389</ele>
        <time>2015-08-23T08:50:44.000Z</time>
      </trkpt>
      <trkpt lat="47.43524" lon="6.8178">
        <ele>389</ele>
        <time>2015-08-23T08:50:45.000Z</time>
      </trkpt>
      <trkpt lat="47.43528" lon="6.8178">
        <ele>389</ele>
        <time>2015-08-23T08:50:46.000Z</time>
      </trkpt>
      <trkpt lat="47.43531" lon="6.8178">
        <ele>388</ele>
        <time>2015-08-23T08:50:47.000Z</time>
      </trkpt>
      <trkpt lat="47.43534" lon="6.81783">
        <ele>388</ele>
        <time>2015-08-23T08:50:48.000Z</time>
      </trkpt>
      <trkpt lat="47.43537" lon="6.81785">
        <ele>388</ele>
        <time>2015-08-23T08:50:49.000Z</time>
      </trkpt>
      <trkpt lat="47.43541" lon="6.81785">
        <ele>387</ele>
        <time>2015-08-23T08:50:50.000Z</time>
      </trkpt>
      <trkpt lat="47.43544" lon="6.81785">
        <ele>387</ele>
        <time>2015-08-23T08:50:51.000Z</time>
      </trkpt>
      <trkpt lat="47.43548" lon="6.81786">
        <ele>387</ele>
        <time>2015-08-23T08:50:52.000Z</time>
      </trkpt>
      <trkpt lat="47.43551" lon="6.81786">
        <ele>387</ele>
        <time>2015-08-23T08:50:53.000Z</time>
      </trkpt>
      <trkpt lat="47.43554" lon="6.81787">
        <ele>387</ele>
        <time>2015-08-23T08:50:54.000Z</time>
      </trkpt>
      <trkpt lat="47.43557" lon="6.81788">
        <ele>386</ele>
        <time>2015-08-23T08:50:55.000Z</time>
      </trkpt>
      <trkpt lat="47.43561" lon="6.81789">
        <ele>386</ele>
        <time>2015-08-23T08:50:56.000Z</time>
      </trkpt>
      <trkpt lat="47.43566" lon="6.81788">
        <ele>386</ele>
        <time>2015-08-23T08:50:57.000Z</time>
      </trkpt>
      <trkpt lat="47.4357" lon="6.81785">
        <ele>386</ele>
        <time>2015-08-23T08:50:58.000Z</time>
      </trkpt>
      <trkpt lat="47.43575" lon="6.81782">
        <ele>386</ele>
        <time>2015-08-23T08:50:59.000Z</time>
      </trkpt>
      <trkpt lat="47.43579" lon="6.81778">
        <ele>386</ele>
        <time>2015-08-23T08:51:00.000Z</time>
      </trkpt>
      <trkpt lat="47.43584" lon="6.81774">
        <ele>379</ele>
        <time>2015-08-23T08:51:01.000Z</time>
      </trkpt>
      <trkpt lat="47.43588" lon="6.8177">
        <ele>379</ele>
        <time>2015-08-23T08:51:02.000Z</time>
      </trkpt>
      <trkpt lat="47.43592" lon="6.81768">
        <ele>379</ele>
        <time>2015-08-23T08:51:03.000Z</time>
      </trkpt>
      <trkpt lat="47.43596" lon="6.81766">
        <ele>379</ele>
        <time>2015-08-23T08:51:04.000Z</time>
      </trkpt>
      <trkpt lat="47.43599" lon="6.81764">
        <ele>379</ele>
        <time>2015-08-23T08:51:05.000Z</time>
      </trkpt>
      <trkpt lat="47.43602" lon="6.81762">
        <ele>378</ele>
        <time>2015-08-23T08:51:06.000Z</time>
      </trkpt>
      <trkpt lat="47.43605" lon="6.81761">
        <ele>378</ele>
        <time>2015-08-23T08:51:07.000Z</time>
      </trkpt>
      <trkpt lat="47.43608" lon="6.8176">
        <ele>378</ele>
        <time>2015-08-23T08:51:08.000Z</time>
      </trkpt>
      <trkpt lat="47.43611" lon="6.8176">
        <ele>377</ele>
        <time>2015-08-23T08:51:09.000Z</time>
      </trkpt>
      <trkpt lat="47.43613" lon="6.8176">
        <ele>377</ele>
        <time>2015-08-23T08:51:10.000Z</time>
      </trkpt>
      <trkpt lat="47.43616" lon="6.81758">
        <ele>376</ele>
        <time>2015-08-23T08:51:11.000Z</time>
      </trkpt>
      <trkpt lat="47.43618" lon="6.81753">
        <ele>376</ele>
        <time>2015-08-23T08:51:12.000Z</time>
      </trkpt>
      <trkpt lat="47.43621" lon="6.81747">
        <ele>377</ele>
        <time>2015-08-23T08:51:13.000Z</time>
      </trkpt>
      <trkpt lat="47.43624" lon="6.8174">
        <ele>377</ele>
        <time>2015-08-23T08:51:14.000Z</time>
      </trkpt>
      <trkpt lat="47.43626" lon="6.81731">
        <ele>376</ele>
        <time>2015-08-23T08:51:15.000Z</time>
      </trkpt>
      <trkpt lat="47.43628" lon="6.81722">
        <ele>376</ele>
        <time>2015-08-23T08:51:16.000Z</time>
      </trkpt>
      <trkpt lat="47.4363" lon="6.81713">
        <ele>376</ele>
        <time>2015-08-23T08:51:17.000Z</time>
      </trkpt>
      <trkpt lat="47.43632" lon="6.81703">
        <ele>376</ele>
        <time>2015-08-23T08:51:18.000Z</time>
      </trkpt>
      <trkpt lat="47.43638" lon="6.81679">
        <ele>376</ele>
        <time>2015-08-23T08:51:19.000Z</time>
      </trkpt>
      <trkpt lat="47.4364" lon="6.81669">
        <ele>375</ele>
        <time>2015-08-23T08:51:20.000Z</time>
      </trkpt>
      <trkpt lat="47.43642" lon="6.81656">
        <ele>376</ele>
        <time>2015-08-23T08:51:21.000Z</time>
      </trkpt>
      <trkpt lat="47.43642" lon="6.81645">
        <ele>377</ele>
        <time>2015-08-23T08:51:22.000Z</time>
      </trkpt>
      <trkpt lat="47.43643" lon="6.81635">
        <ele>377</ele>
        <time>2015-08-23T08:51:23.000Z</time>
      </trkpt>
      <trkpt lat="47.43641" lon="6.81625">
        <ele>377</ele>
        <time>2015-08-23T08:51:24.000Z</time>
      </trkpt>
      <trkpt lat="47.43642" lon="6.81617">
        <ele>378</ele>
        <time>2015-08-23T08:51:25.000Z</time>
      </trkpt>
      <trkpt lat="47.43641" lon="6.8161">
        <ele>378</ele>
        <time>2015-08-23T08:51:26.000Z</time>
      </trkpt>
      <trkpt lat="47.43641" lon="6.81605">
        <ele>378</ele>
        <time>2015-08-23T08:51:27.000Z</time>
      </trkpt>
      <trkpt lat="47.4364" lon="6.81601">
        <ele>378</ele>
        <time>2015-08-23T08:51:28.000Z</time>
      </trkpt>
      <trkpt lat="47.43637" lon="6.81596">
        <ele>378</ele>
        <time>2015-08-23T08:51:29.000Z</time>
      </trkpt>
      <trkpt lat="47.43635" lon="6.81591">
        <ele>378</ele>
        <time>2015-08-23T08:51:31.000Z</time>
      </trkpt>
      <trkpt lat="47.43634" lon="6.81589">
        <ele>378</ele>
        <time>2015-08-23T08:51:32.000Z</time>
      </trkpt>
      <trkpt lat="47.43634" lon="6.81583">
        <ele>380</ele>
        <time>2015-08-23T08:51:35.000Z</time>
      </trkpt>
      <trkpt lat="47.43635" lon="6.81581">
        <ele>380</ele>
        <time>2015-08-23T08:51:36.000Z</time>
      </trkpt>
      <trkpt lat="47.43633" lon="6.81576">
        <ele>380</ele>
        <time>2015-08-23T08:51:38.000Z</time>
      </trkpt>
      <trkpt lat="47.43632" lon="6.81574">
        <ele>380</ele>
        <time>2015-08-23T08:51:39.000Z</time>
      </trkpt>
      <trkpt lat="47.43629" lon="6.8157">
        <ele>380</ele>
        <time>2015-08-23T08:51:42.000Z</time>
      </trkpt>
      <trkpt lat="47.43629" lon="6.81568">
        <ele>380</ele>
        <time>2015-08-23T08:51:43.000Z</time>
      </trkpt>
      <trkpt lat="47.43627" lon="6.81563">
        <ele>380</ele>
        <time>2015-08-23T08:51:46.000Z</time>
      </trkpt>
      <trkpt lat="47.43627" lon="6.81562">
        <ele>380</ele>
        <time>2015-08-23T08:51:47.000Z</time>
      </trkpt>
      <trkpt lat="47.43625" lon="6.81557">
        <ele>380</ele>
        <time>2015-08-23T08:51:51.000Z</time>
      </trkpt>
      <trkpt lat="47.43624" lon="6.81556">
        <ele>380</ele>
        <time>2015-08-23T08:51:52.000Z</time>
      </trkpt>
      <trkpt lat="47.43622" lon="6.81552">
        <ele>381</ele>
        <time>2015-08-23T08:51:55.000Z</time>
      </trkpt>
      <trkpt lat="47.43621" lon="6.81551">
        <ele>381</ele>
        <time>2015-08-23T08:51:56.000Z</time>
      </trkpt>
      <trkpt lat="47.43618" lon="6.81546">
        <ele>381</ele>
        <time>2015-08-23T08:51:59.000Z</time>
      </trkpt>
      <trkpt lat="47.43617" lon="6.81545">
        <ele>381</ele>
        <time>2015-08-23T08:52:00.000Z</time>
      </trkpt>
      <trkpt lat="47.43613" lon="6.81542">
        <ele>381</ele>
        <time>2015-08-23T08:52:03.000Z</time>
      </trkpt>
      <trkpt lat="47.43613" lon="6.81541">
        <ele>381</ele>
        <time>2015-08-23T08:52:04.000Z</time>
      </trkpt>
      <trkpt lat="47.43613" lon="6.81535">
        <ele>381</ele>
        <time>2015-08-23T08:52:09.000Z</time>
      </trkpt>
      <trkpt lat="47.43613" lon="6.81534">
        <ele>381</ele>
        <time>2015-08-23T08:52:10.000Z</time>
      </trkpt>
      <trkpt lat="47.43612" lon="6.81529">
        <ele>381</ele>
        <time>2015-08-23T08:52:13.000Z</time>
      </trkpt>
      <trkpt lat="47.43611" lon="6.81527">
        <ele>381</ele>
        <time>2015-08-23T08:52:14.000Z</time>
      </trkpt>
      <trkpt lat="47.43609" lon="6.81524">
        <ele>381</ele>
        <time>2015-08-23T08:52:16.000Z</time>
      </trkpt>
      <trkpt lat="47.43607" lon="6.81523">
        <ele>381</ele>
        <time>2015-08-23T08:52:17.000Z</time>
      </trkpt>
      <trkpt lat="47.43603" lon="6.81521">
        <ele>381</ele>
        <time>2015-08-23T08:52:19.000Z</time>
      </trkpt>
      <trkpt lat="47.43601" lon="6.8152">
        <ele>381</ele>
        <time>2015-08-23T08:52:20.000Z</time>
      </trkpt>
      <trkpt lat="47.43598" lon="6.81516">
        <ele>381</ele>
        <time>2015-08-23T08:52:22.000Z</time>
      </trkpt>
      <trkpt lat="47.43598" lon="6.81515">
        <ele>381</ele>
        <time>2015-08-23T08:52:23.000Z</time>
      </trkpt>
      <trkpt lat="47.43594" lon="6.81512">
        <ele>382</ele>
        <time>2015-08-23T08:52:27.000Z</time>
      </trkpt>
      <trkpt lat="47.43593" lon="6.8151">
        <ele>382</ele>
        <time>2015-08-23T08:52:28.000Z</time>
      </trkpt>
      <trkpt lat="47.4359" lon="6.81508">
        <ele>382</ele>
        <time>2015-08-23T08:52:29.000Z</time>
      </trkpt>
      <trkpt lat="47.43588" lon="6.81507">
        <ele>382</ele>
        <time>2015-08-23T08:52:30.000Z</time>
      </trkpt>
      <trkpt lat="47.43585" lon="6.81505">
        <ele>382</ele>
        <time>2015-08-23T08:52:31.000Z</time>
      </trkpt>
      <trkpt lat="47.43583" lon="6.81504">
        <ele>383</ele>
        <time>2015-08-23T08:52:32.000Z</time>
      </trkpt>
      <trkpt lat="47.4358" lon="6.81503">
        <ele>383</ele>
        <time>2015-08-23T08:52:33.000Z</time>
      </trkpt>
      <trkpt lat="47.43577" lon="6.81502">
        <ele>383</ele>
        <time>2015-08-23T08:52:34.000Z</time>
      </trkpt>
      <trkpt lat="47.43574" lon="6.81501">
        <ele>383</ele>
        <time>2015-08-23T08:52:35.000Z</time>
      </trkpt>
      <trkpt lat="47.43571" lon="6.815">
        <ele>384</ele>
        <time>2015-08-23T08:52:36.000Z</time>
      </trkpt>
      <trkpt lat="47.43569" lon="6.81499">
        <ele>384</ele>
        <time>2015-08-23T08:52:37.000Z</time>
      </trkpt>
      <trkpt lat="47.43567" lon="6.81498">
        <ele>384</ele>
        <time>2015-08-23T08:52:38.000Z</time>
      </trkpt>
      <trkpt lat="47.43562" lon="6.81497">
        <ele>385</ele>
        <time>2015-08-23T08:52:40.000Z</time>
      </trkpt>
      <trkpt lat="47.4356" lon="6.81496">
        <ele>385</ele>
        <time>2015-08-23T08:52:41.000Z</time>
      </trkpt>
      <trkpt lat="47.43557" lon="6.81493">
        <ele>385</ele>
        <time>2015-08-23T08:52:49.000Z</time>
      </trkpt>
      <trkpt lat="47.43556" lon="6.81492">
        <ele>385</ele>
        <time>2015-08-23T08:52:50.000Z</time>
      </trkpt>
      <trkpt lat="47.43552" lon="6.8149">
        <ele>385</ele>
        <time>2015-08-23T08:52:54.000Z</time>
      </trkpt>
      <trkpt lat="47.43551" lon="6.81489">
        <ele>385</ele>
        <time>2015-08-23T08:52:55.000Z</time>
      </trkpt>
      <trkpt lat="47.43548" lon="6.81486">
        <ele>386</ele>
        <time>2015-08-23T08:52:57.000Z</time>
      </trkpt>
      <trkpt lat="47.43546" lon="6.81484">
        <ele>386</ele>
        <time>2015-08-23T08:52:58.000Z</time>
      </trkpt>
      <trkpt lat="47.43543" lon="6.81482">
        <ele>386</ele>
        <time>2015-08-23T08:53:00.000Z</time>
      </trkpt>
      <trkpt lat="47.43541" lon="6.81481">
        <ele>386</ele>
        <time>2015-08-23T08:53:01.000Z</time>
      </trkpt>
      <trkpt lat="47.43538" lon="6.8148">
        <ele>386</ele>
        <time>2015-08-23T08:53:03.000Z</time>
      </trkpt>
      <trkpt lat="47.43536" lon="6.81478">
        <ele>386</ele>
        <time>2015-08-23T08:53:04.000Z</time>
      </trkpt>
      <trkpt lat="47.43533" lon="6.81475">
        <ele>386</ele>
        <time>2015-08-23T08:53:06.000Z</time>
      </trkpt>
      <trkpt lat="47.43531" lon="6.81474">
        <ele>386</ele>
        <time>2015-08-23T08:53:07.000Z</time>
      </trkpt>
      <trkpt lat="47.43529" lon="6.81471">
        <ele>386</ele>
        <time>2015-08-23T08:53:09.000Z</time>
      </trkpt>
      <trkpt lat="47.43528" lon="6.81468">
        <ele>386</ele>
        <time>2015-08-23T08:53:10.000Z</time>
      </trkpt>
      <trkpt lat="47.43527" lon="6.81463">
        <ele>386</ele>
        <time>2015-08-23T08:53:12.000Z</time>
      </trkpt>
      <trkpt lat="47.43525" lon="6.81462">
        <ele>386</ele>
        <time>2015-08-23T08:53:13.000Z</time>
      </trkpt>
      <trkpt lat="47.43523" lon="6.8146">
        <ele>386</ele>
        <time>2015-08-23T08:53:14.000Z</time>
      </trkpt>
      <trkpt lat="47.4352" lon="6.81459">
        <ele>386</ele>
        <time>2015-08-23T08:53:15.000Z</time>
      </trkpt>
      <trkpt lat="47.43518" lon="6.81457">
        <ele>386</ele>
        <time>2015-08-23T08:53:16.000Z</time>
      </trkpt>
      <trkpt lat="47.43516" lon="6.81455">
        <ele>386</ele>
        <time>2015-08-23T08:53:17.000Z</time>
      </trkpt>
      <trkpt lat="47.43514" lon="6.81453">
        <ele>386</ele>
        <time>2015-08-23T08:53:18.000Z</time>
      </trkpt>
      <trkpt lat="47.43512" lon="6.81451">
        <ele>386</ele>
        <time>2015-08-23T08:53:19.000Z</time>
      </trkpt>
      <trkpt lat="47.4351" lon="6.81449">
        <ele>386</ele>
        <time>2015-08-23T08:53:20.000Z</time>
      </trkpt>
      <trkpt lat="47.43507" lon="6.81447">
        <ele>386</ele>
        <time>2015-08-23T08:53:21.000Z</time>
      </trkpt>
      <trkpt lat="47.43505" lon="6.81444">
        <ele>386</ele>
        <time>2015-08-23T08:53:22.000Z</time>
      </trkpt>
      <trkpt lat="47.43502" lon="6.81442">
        <ele>386</ele>
        <time>2015-08-23T08:53:23.000Z</time>
      </trkpt>
      <trkpt lat="47.435" lon="6.8144">
        <ele>389</ele>
        <time>2015-08-23T08:53:24.000Z</time>
      </trkpt>
      <trkpt lat="47.43498" lon="6.81438">
        <ele>389</ele>
        <time>2015-08-23T08:53:25.000Z</time>
      </trkpt>
      <trkpt lat="47.43495" lon="6.81436">
        <ele>389</ele>
        <time>2015-08-23T08:53:26.000Z</time>
      </trkpt>
      <trkpt lat="47.43493" lon="6.81433">
        <ele>389</ele>
        <time>2015-08-23T08:53:27.000Z</time>
      </trkpt>
      <trkpt lat="47.43491" lon="6.81431">
        <ele>389</ele>
        <time>2015-08-23T08:53:28.000Z</time>
      </trkpt>
      <trkpt lat="47.43489" lon="6.81427">
        <ele>389</ele>
        <time>2015-08-23T08:53:29.000Z</time>
      </trkpt>
      <trkpt lat="47.43487" lon="6.81425">
        <ele>389</ele>
        <time>2015-08-23T08:53:30.000Z</time>
      </trkpt>
      <trkpt lat="47.43484" lon="6.81423">
        <ele>389</ele>
        <time>2015-08-23T08:53:31.000Z</time>
      </trkpt>
      <trkpt lat="47.43482" lon="6.81421">
        <ele>389</ele>
        <time>2015-08-23T08:53:32.000Z</time>
      </trkpt>
      <trkpt lat="47.43479" lon="6.81419">
        <ele>390</ele>
        <time>2015-08-23T08:53:33.000Z</time>
      </trkpt>
      <trkpt lat="47.43476" lon="6.81416">
        <ele>392</ele>
        <time>2015-08-23T08:53:34.000Z</time>
      </trkpt>
      <trkpt lat="47.43474" lon="6.81414">
        <ele>392</ele>
        <time>2015-08-23T08:53:35.000Z</time>
      </trkpt>
      <trkpt lat="47.43472" lon="6.81411">
        <ele>392</ele>
        <time>2015-08-23T08:53:36.000Z</time>
      </trkpt>
      <trkpt lat="47.4347" lon="6.81409">
        <ele>393</ele>
        <time>2015-08-23T08:53:37.000Z</time>
      </trkpt>
      <trkpt lat="47.43468" lon="6.81406">
        <ele>393</ele>
        <time>2015-08-23T08:53:38.000Z</time>
      </trkpt>
      <trkpt lat="47.43466" lon="6.81404">
        <ele>393</ele>
        <time>2015-08-23T08:53:39.000Z</time>
      </trkpt>
      <trkpt lat="47.43463" lon="6.814">
        <ele>394</ele>
        <time>2015-08-23T08:53:41.000Z</time>
      </trkpt>
      <trkpt lat="47.43462" lon="6.81399">
        <ele>394</ele>
        <time>2015-08-23T08:53:42.000Z</time>
      </trkpt>
      <trkpt lat="47.43458" lon="6.81396">
        <ele>394</ele>
        <time>2015-08-23T08:53:44.000Z</time>
      </trkpt>
      <trkpt lat="47.43455" lon="6.81394">
        <ele>394</ele>
        <time>2015-08-23T08:53:45.000Z</time>
      </trkpt>
      <trkpt lat="47.43453" lon="6.81392">
        <ele>395</ele>
        <time>2015-08-23T08:53:46.000Z</time>
      </trkpt>
      <trkpt lat="47.43451" lon="6.8139">
        <ele>395</ele>
        <time>2015-08-23T08:53:47.000Z</time>
      </trkpt>
      <trkpt lat="47.43449" lon="6.81388">
        <ele>395</ele>
        <time>2015-08-23T08:53:48.000Z</time>
      </trkpt>
      <trkpt lat="47.43447" lon="6.81386">
        <ele>395</ele>
        <time>2015-08-23T08:53:49.000Z</time>
      </trkpt>
      <trkpt lat="47.43445" lon="6.81383">
        <ele>395</ele>
        <time>2015-08-23T08:53:50.000Z</time>
      </trkpt>
      <trkpt lat="47.43442" lon="6.81381">
        <ele>395</ele>
        <time>2015-08-23T08:53:51.000Z</time>
      </trkpt>
      <trkpt lat="47.4344" lon="6.81379">
        <ele>395</ele>
        <time>2015-08-23T08:53:52.000Z</time>
      </trkpt>
      <trkpt lat="47.43439" lon="6.81377">
        <ele>395</ele>
        <time>2015-08-23T08:53:53.000Z</time>
      </trkpt>
      <trkpt lat="47.43435" lon="6.81373">
        <ele>395</ele>
        <time>2015-08-23T08:53:55.000Z</time>
      </trkpt>
      <trkpt lat="47.43433" lon="6.81371">
        <ele>395</ele>
        <time>2015-08-23T08:53:56.000Z</time>
      </trkpt>
      <trkpt lat="47.43431" lon="6.81369">
        <ele>395</ele>
        <time>2015-08-23T08:53:57.000Z</time>
      </trkpt>
      <trkpt lat="47.43428" lon="6.81367">
        <ele>395</ele>
        <time>2015-08-23T08:53:58.000Z</time>
      </trkpt>
      <trkpt lat="47.43426" lon="6.81364">
        <ele>395</ele>
        <time>2015-08-23T08:53:59.000Z</time>
      </trkpt>
      <trkpt lat="47.43424" lon="6.81361">
        <ele>395</ele>
        <time>2015-08-23T08:54:00.000Z</time>
      </trkpt>
      <trkpt lat="47.43421" lon="6.81359">
        <ele>395</ele>
        <time>2015-08-23T08:54:01.000Z</time>
      </trkpt>
      <trkpt lat="47.43419" lon="6.81357">
        <ele>395</ele>
        <time>2015-08-23T08:54:02.000Z</time>
      </trkpt>
      <trkpt lat="47.43417" lon="6.81355">
        <ele>399</ele>
        <time>2015-08-23T08:54:03.000Z</time>
      </trkpt>
      <trkpt lat="47.43414" lon="6.81353">
        <ele>399</ele>
        <time>2015-08-23T08:54:04.000Z</time>
      </trkpt>
      <trkpt lat="47.43412" lon="6.8135">
        <ele>398</ele>
        <time>2015-08-23T08:54:05.000Z</time>
      </trkpt>
      <trkpt lat="47.43409" lon="6.81348">
        <ele>398</ele>
        <time>2015-08-23T08:54:06.000Z</time>
      </trkpt>
      <trkpt lat="47.43406" lon="6.81346">
        <ele>398</ele>
        <time>2015-08-23T08:54:07.000Z</time>
      </trkpt>
      <trkpt lat="47.43403" lon="6.81343">
        <ele>398</ele>
        <time>2015-08-23T08:54:08.000Z</time>
      </trkpt>
      <trkpt lat="47.434" lon="6.81341">
        <ele>399</ele>
        <time>2015-08-23T08:54:09.000Z</time>
      </trkpt>
      <trkpt lat="47.43397" lon="6.81338">
        <ele>399</ele>
        <time>2015-08-23T08:54:10.000Z</time>
      </trkpt>
      <trkpt lat="47.43395" lon="6.81337">
        <ele>399</ele>
        <time>2015-08-23T08:54:11.000Z</time>
      </trkpt>
      <trkpt lat="47.43393" lon="6.81335">
        <ele>399</ele>
        <time>2015-08-23T08:54:12.000Z</time>
      </trkpt>
      <trkpt lat="47.4339" lon="6.8133">
        <ele>399</ele>
        <time>2015-08-23T08:54:14.000Z</time>
      </trkpt>
      <trkpt lat="47.43388" lon="6.81328">
        <ele>399</ele>
        <time>2015-08-23T08:54:15.000Z</time>
      </trkpt>
      <trkpt lat="47.43386" lon="6.81325">
        <ele>399</ele>
        <time>2015-08-23T08:54:16.000Z</time>
      </trkpt>
      <trkpt lat="47.43383" lon="6.81323">
        <ele>400</ele>
        <time>2015-08-23T08:54:17.000Z</time>
      </trkpt>
      <trkpt lat="47.4338" lon="6.81321">
        <ele>400</ele>
        <time>2015-08-23T08:54:18.000Z</time>
      </trkpt>
      <trkpt lat="47.43377" lon="6.81319">
        <ele>400</ele>
        <time>2015-08-23T08:54:19.000Z</time>
      </trkpt>
      <trkpt lat="47.43373" lon="6.81317">
        <ele>400</ele>
        <time>2015-08-23T08:54:20.000Z</time>
      </trkpt>
      <trkpt lat="47.4337" lon="6.81315">
        <ele>400</ele>
        <time>2015-08-23T08:54:21.000Z</time>
      </trkpt>
      <trkpt lat="47.43367" lon="6.81313">
        <ele>401</ele>
        <time>2015-08-23T08:54:22.000Z</time>
      </trkpt>
      <trkpt lat="47.43363" lon="6.8131">
        <ele>401</ele>
        <time>2015-08-23T08:54:23.000Z</time>
      </trkpt>
      <trkpt lat="47.4336" lon="6.81308">
        <ele>401</ele>
        <time>2015-08-23T08:54:24.000Z</time>
      </trkpt>
      <trkpt lat="47.43357" lon="6.81306">
        <ele>401</ele>
        <time>2015-08-23T08:54:25.000Z</time>
      </trkpt>
      <trkpt lat="47.43353" lon="6.81303">
        <ele>401</ele>
        <time>2015-08-23T08:54:26.000Z</time>
      </trkpt>
      <trkpt lat="47.43349" lon="6.813">
        <ele>401</ele>
        <time>2015-08-23T08:54:27.000Z</time>
      </trkpt>
      <trkpt lat="47.43345" lon="6.81298">
        <ele>401</ele>
        <time>2015-08-23T08:54:28.000Z</time>
      </trkpt>
      <trkpt lat="47.43342" lon="6.81295">
        <ele>401</ele>
        <time>2015-08-23T08:54:29.000Z</time>
      </trkpt>
      <trkpt lat="47.43339" lon="6.81292">
        <ele>401</ele>
        <time>2015-08-23T08:54:30.000Z</time>
      </trkpt>
      <trkpt lat="47.43336" lon="6.8129">
        <ele>401</ele>
        <time>2015-08-23T08:54:31.000Z</time>
      </trkpt>
      <trkpt lat="47.43333" lon="6.81287">
        <ele>403</ele>
        <time>2015-08-23T08:54:32.000Z</time>
      </trkpt>
      <trkpt lat="47.4333" lon="6.81285">
        <ele>403</ele>
        <time>2015-08-23T08:54:33.000Z</time>
      </trkpt>
      <trkpt lat="47.43327" lon="6.81283">
        <ele>403</ele>
        <time>2015-08-23T08:54:34.000Z</time>
      </trkpt>
      <trkpt lat="47.43324" lon="6.81281">
        <ele>403</ele>
        <time>2015-08-23T08:54:35.000Z</time>
      </trkpt>
      <trkpt lat="47.43321" lon="6.81279">
        <ele>403</ele>
        <time>2015-08-23T08:54:36.000Z</time>
      </trkpt>
      <trkpt lat="47.43318" lon="6.81277">
        <ele>403</ele>
        <time>2015-08-23T08:54:37.000Z</time>
      </trkpt>
      <trkpt lat="47.43316" lon="6.81275">
        <ele>403</ele>
        <time>2015-08-23T08:54:38.000Z</time>
      </trkpt>
      <trkpt lat="47.43313" lon="6.81273">
        <ele>403</ele>
        <time>2015-08-23T08:54:39.000Z</time>
      </trkpt>
      <trkpt lat="47.43311" lon="6.81271">
        <ele>403</ele>
        <time>2015-08-23T08:54:40.000Z</time>
      </trkpt>
      <trkpt lat="47.43308" lon="6.8127">
        <ele>403</ele>
        <time>2015-08-23T08:54:41.000Z</time>
      </trkpt>
      <trkpt lat="47.43305" lon="6.81268">
        <ele>403</ele>
        <time>2015-08-23T08:54:42.000Z</time>
      </trkpt>
      <trkpt lat="47.43302" lon="6.81265">
        <ele>403</ele>
        <time>2015-08-23T08:54:43.000Z</time>
      </trkpt>
      <trkpt lat="47.433" lon="6.81263">
        <ele>404</ele>
        <time>2015-08-23T08:54:44.000Z</time>
      </trkpt>
      <trkpt lat="47.43297" lon="6.81261">
        <ele>404</ele>
        <time>2015-08-23T08:54:45.000Z</time>
      </trkpt>
      <trkpt lat="47.43295" lon="6.81259">
        <ele>404</ele>
        <time>2015-08-23T08:54:46.000Z</time>
      </trkpt>
      <trkpt lat="47.43292" lon="6.81257">
        <ele>404</ele>
        <time>2015-08-23T08:54:47.000Z</time>
      </trkpt>
      <trkpt lat="47.4329" lon="6.81255">
        <ele>404</ele>
        <time>2015-08-23T08:54:48.000Z</time>
      </trkpt>
      <trkpt lat="47.43288" lon="6.81253">
        <ele>404</ele>
        <time>2015-08-23T08:54:49.000Z</time>
      </trkpt>
      <trkpt lat="47.43285" lon="6.81252">
        <ele>404</ele>
        <time>2015-08-23T08:54:50.000Z</time>
      </trkpt>
      <trkpt lat="47.43283" lon="6.8125">
        <ele>404</ele>
        <time>2015-08-23T08:54:51.000Z</time>
      </trkpt>
      <trkpt lat="47.43281" lon="6.81249">
        <ele>405</ele>
        <time>2015-08-23T08:54:52.000Z</time>
      </trkpt>
      <trkpt lat="47.43278" lon="6.81247">
        <ele>405</ele>
        <time>2015-08-23T08:54:53.000Z</time>
      </trkpt>
      <trkpt lat="47.43276" lon="6.81246">
        <ele>405</ele>
        <time>2015-08-23T08:54:54.000Z</time>
      </trkpt>
      <trkpt lat="47.43273" lon="6.81244">
        <ele>405</ele>
        <time>2015-08-23T08:54:55.000Z</time>
      </trkpt>
      <trkpt lat="47.43271" lon="6.81242">
        <ele>405</ele>
        <time>2015-08-23T08:54:56.000Z</time>
      </trkpt>
      <trkpt lat="47.43269" lon="6.8124">
        <ele>405</ele>
        <time>2015-08-23T08:54:57.000Z</time>
      </trkpt>
      <trkpt lat="47.43266" lon="6.81238">
        <ele>405</ele>
        <time>2015-08-23T08:54:58.000Z</time>
      </trkpt>
      <trkpt lat="47.43264" lon="6.81236">
        <ele>405</ele>
        <time>2015-08-23T08:54:59.000Z</time>
      </trkpt>
      <trkpt lat="47.43261" lon="6.81234">
        <ele>405</ele>
        <time>2015-08-23T08:55:00.000Z</time>
      </trkpt>
      <trkpt lat="47.43258" lon="6.81232">
        <ele>405</ele>
        <time>2015-08-23T08:55:01.000Z</time>
      </trkpt>
      <trkpt lat="47.43255" lon="6.81231">
        <ele>405</ele>
        <time>2015-08-23T08:55:02.000Z</time>
      </trkpt>
      <trkpt lat="47.43252" lon="6.81229">
        <ele>405</ele>
        <time>2015-08-23T08:55:03.000Z</time>
      </trkpt>
      <trkpt lat="47.43249" lon="6.81227">
        <ele>404</ele>
        <time>2015-08-23T08:55:04.000Z</time>
      </trkpt>
      <trkpt lat="47.43247" lon="6.81225">
        <ele>404</ele>
        <time>2015-08-23T08:55:05.000Z</time>
      </trkpt>
      <trkpt lat="47.43244" lon="6.81224">
        <ele>405</ele>
        <time>2015-08-23T08:55:06.000Z</time>
      </trkpt>
      <trkpt lat="47.43241" lon="6.81222">
        <ele>405</ele>
        <time>2015-08-23T08:55:07.000Z</time>
      </trkpt>
      <trkpt lat="47.43237" lon="6.8122">
        <ele>405</ele>
        <time>2015-08-23T08:55:08.000Z</time>
      </trkpt>
      <trkpt lat="47.43234" lon="6.81218">
        <ele>405</ele>
        <time>2015-08-23T08:55:09.000Z</time>
      </trkpt>
      <trkpt lat="47.4323" lon="6.81216">
        <ele>405</ele>
        <time>2015-08-23T08:55:10.000Z</time>
      </trkpt>
      <trkpt lat="47.43228" lon="6.81214">
        <ele>405</ele>
        <time>2015-08-23T08:55:11.000Z</time>
      </trkpt>
      <trkpt lat="47.43226" lon="6.81211">
        <ele>405</ele>
        <time>2015-08-23T08:55:12.000Z</time>
      </trkpt>
      <trkpt lat="47.43224" lon="6.81209">
        <ele>405</ele>
        <time>2015-08-23T08:55:13.000Z</time>
      </trkpt>
      <trkpt lat="47.43222" lon="6.81206">
        <ele>405</ele>
        <time>2015-08-23T08:55:14.000Z</time>
      </trkpt>
      <trkpt lat="47.43219" lon="6.81203">
        <ele>405</ele>
        <time>2015-08-23T08:55:15.000Z</time>
      </trkpt>
      <trkpt lat="47.43218" lon="6.81198">
        <ele>406</ele>
        <time>2015-08-23T08:55:18.000Z</time>
      </trkpt>
      <trkpt lat="47.43217" lon="6.81195">
        <ele>406</ele>
        <time>2015-08-23T08:55:19.000Z</time>
      </trkpt>
      <trkpt lat="47.43215" lon="6.81193">
        <ele>406</ele>
        <time>2015-08-23T08:55:20.000Z</time>
      </trkpt>
      <trkpt lat="47.43212" lon="6.81191">
        <ele>405</ele>
        <time>2015-08-23T08:55:21.000Z</time>
      </trkpt>
      <trkpt lat="47.4321" lon="6.81189">
        <ele>405</ele>
        <time>2015-08-23T08:55:22.000Z</time>
      </trkpt>
      <trkpt lat="47.43208" lon="6.81187">
        <ele>405</ele>
        <time>2015-08-23T08:55:23.000Z</time>
      </trkpt>
      <trkpt lat="47.43206" lon="6.81184">
        <ele>405</ele>
        <time>2015-08-23T08:55:24.000Z</time>
      </trkpt>
      <trkpt lat="47.43205" lon="6.81181">
        <ele>405</ele>
        <time>2015-08-23T08:55:25.000Z</time>
      </trkpt>
      <trkpt lat="47.43202" lon="6.81179">
        <ele>405</ele>
        <time>2015-08-23T08:55:26.000Z</time>
      </trkpt>
      <trkpt lat="47.432" lon="6.81177">
        <ele>405</ele>
        <time>2015-08-23T08:55:27.000Z</time>
      </trkpt>
      <trkpt lat="47.43198" lon="6.81174">
        <ele>405</ele>
        <time>2015-08-23T08:55:28.000Z</time>
      </trkpt>
      <trkpt lat="47.43196" lon="6.81172">
        <ele>404</ele>
        <time>2015-08-23T08:55:29.000Z</time>
      </trkpt>
      <trkpt lat="47.43194" lon="6.81169">
        <ele>404</ele>
        <time>2015-08-23T08:55:30.000Z</time>
      </trkpt>
      <trkpt lat="47.43191" lon="6.81167">
        <ele>404</ele>
        <time>2015-08-23T08:55:31.000Z</time>
      </trkpt>
      <trkpt lat="47.43189" lon="6.81165">
        <ele>408</ele>
        <time>2015-08-23T08:55:32.000Z</time>
      </trkpt>
      <trkpt lat="47.43187" lon="6.81162">
        <ele>407</ele>
        <time>2015-08-23T08:55:33.000Z</time>
      </trkpt>
      <trkpt lat="47.43185" lon="6.81159">
        <ele>407</ele>
        <time>2015-08-23T08:55:34.000Z</time>
      </trkpt>
      <trkpt lat="47.43182" lon="6.81156">
        <ele>407</ele>
        <time>2015-08-23T08:55:35.000Z</time>
      </trkpt>
      <trkpt lat="47.43181" lon="6.81154">
        <ele>407</ele>
        <time>2015-08-23T08:55:36.000Z</time>
      </trkpt>
      <trkpt lat="47.43179" lon="6.81151">
        <ele>407</ele>
        <time>2015-08-23T08:55:37.000Z</time>
      </trkpt>
      <trkpt lat="47.43177" lon="6.81148">
        <ele>408</ele>
        <time>2015-08-23T08:55:38.000Z</time>
      </trkpt>
      <trkpt lat="47.43175" lon="6.81146">
        <ele>408</ele>
        <time>2015-08-23T08:55:39.000Z</time>
      </trkpt>
      <trkpt lat="47.43173" lon="6.81143">
        <ele>408</ele>
        <time>2015-08-23T08:55:40.000Z</time>
      </trkpt>
      <trkpt lat="47.4317" lon="6.8114">
        <ele>409</ele>
        <time>2015-08-23T08:55:41.000Z</time>
      </trkpt>
      <trkpt lat="47.43168" lon="6.81138">
        <ele>409</ele>
        <time>2015-08-23T08:55:42.000Z</time>
      </trkpt>
      <trkpt lat="47.43165" lon="6.81135">
        <ele>408</ele>
        <time>2015-08-23T08:55:43.000Z</time>
      </trkpt>
      <trkpt lat="47.43162" lon="6.81132">
        <ele>408</ele>
        <time>2015-08-23T08:55:44.000Z</time>
      </trkpt>
      <trkpt lat="47.4316" lon="6.8113">
        <ele>409</ele>
        <time>2015-08-23T08:55:45.000Z</time>
      </trkpt>
      <trkpt lat="47.43157" lon="6.81127">
        <ele>409</ele>
        <time>2015-08-23T08:55:46.000Z</time>
      </trkpt>
      <trkpt lat="47.43155" lon="6.81125">
        <ele>409</ele>
        <time>2015-08-23T08:55:47.000Z</time>
      </trkpt>
      <trkpt lat="47.43154" lon="6.81122">
        <ele>410</ele>
        <time>2015-08-23T08:55:48.000Z</time>
      </trkpt>
      <trkpt lat="47.43152" lon="6.81119">
        <ele>410</ele>
        <time>2015-08-23T08:55:49.000Z</time>
      </trkpt>
      <trkpt lat="47.4315" lon="6.81116">
        <ele>410</ele>
        <time>2015-08-23T08:55:50.000Z</time>
      </trkpt>
      <trkpt lat="47.43149" lon="6.81113">
        <ele>410</ele>
        <time>2015-08-23T08:55:51.000Z</time>
      </trkpt>
      <trkpt lat="47.43146" lon="6.81108">
        <ele>411</ele>
        <time>2015-08-23T08:55:53.000Z</time>
      </trkpt>
      <trkpt lat="47.43144" lon="6.81107">
        <ele>411</ele>
        <time>2015-08-23T08:55:54.000Z</time>
      </trkpt>
      <trkpt lat="47.43141" lon="6.81104">
        <ele>411</ele>
        <time>2015-08-23T08:55:56.000Z</time>
      </trkpt>
      <trkpt lat="47.43139" lon="6.81102">
        <ele>411</ele>
        <time>2015-08-23T08:55:57.000Z</time>
      </trkpt>
      <trkpt lat="47.43136" lon="6.81098">
        <ele>411</ele>
        <time>2015-08-23T08:55:59.000Z</time>
      </trkpt>
      <trkpt lat="47.43134" lon="6.81095">
        <ele>411</ele>
        <time>2015-08-23T08:56:00.000Z</time>
      </trkpt>
      <trkpt lat="47.43133" lon="6.81092">
        <ele>411</ele>
        <time>2015-08-23T08:56:01.000Z</time>
      </trkpt>
      <trkpt lat="47.43131" lon="6.81089">
        <ele>411</ele>
        <time>2015-08-23T08:56:02.000Z</time>
      </trkpt>
      <trkpt lat="47.43129" lon="6.81086">
        <ele>410</ele>
        <time>2015-08-23T08:56:03.000Z</time>
      </trkpt>
      <trkpt lat="47.43127" lon="6.81083">
        <ele>415</ele>
        <time>2015-08-23T08:56:04.000Z</time>
      </trkpt>
      <trkpt lat="47.43125" lon="6.81081">
        <ele>415</ele>
        <time>2015-08-23T08:56:05.000Z</time>
      </trkpt>
      <trkpt lat="47.43124" lon="6.81078">
        <ele>415</ele>
        <time>2015-08-23T08:56:06.000Z</time>
      </trkpt>
      <trkpt lat="47.43122" lon="6.81076">
        <ele>415</ele>
        <time>2015-08-23T08:56:07.000Z</time>
      </trkpt>
      <trkpt lat="47.4312" lon="6.81073">
        <ele>415</ele>
        <time>2015-08-23T08:56:08.000Z</time>
      </trkpt>
      <trkpt lat="47.43118" lon="6.81071">
        <ele>415</ele>
        <time>2015-08-23T08:56:09.000Z</time>
      </trkpt>
      <trkpt lat="47.43116" lon="6.81068">
        <ele>415</ele>
        <time>2015-08-23T08:56:10.000Z</time>
      </trkpt>
      <trkpt lat="47.43114" lon="6.81065">
        <ele>415</ele>
        <time>2015-08-23T08:56:11.000Z</time>
      </trkpt>
      <trkpt lat="47.4311" lon="6.81062">
        <ele>414</ele>
        <time>2015-08-23T08:56:12.000Z</time>
      </trkpt>
      <trkpt lat="47.43107" lon="6.81059">
        <ele>414</ele>
        <time>2015-08-23T08:56:13.000Z</time>
      </trkpt>
      <trkpt lat="47.43104" lon="6.81055">
        <ele>414</ele>
        <time>2015-08-23T08:56:14.000Z</time>
      </trkpt>
      <trkpt lat="47.431" lon="6.81051">
        <ele>415</ele>
        <time>2015-08-23T08:56:15.000Z</time>
      </trkpt>
      <trkpt lat="47.43097" lon="6.81047">
        <ele>415</ele>
        <time>2015-08-23T08:56:16.000Z</time>
      </trkpt>
      <trkpt lat="47.43094" lon="6.81043">
        <ele>415</ele>
        <time>2015-08-23T08:56:17.000Z</time>
      </trkpt>
      <trkpt lat="47.43092" lon="6.81039">
        <ele>415</ele>
        <time>2015-08-23T08:56:18.000Z</time>
      </trkpt>
      <trkpt lat="47.4309" lon="6.81034">
        <ele>415</ele>
        <time>2015-08-23T08:56:19.000Z</time>
      </trkpt>
      <trkpt lat="47.43088" lon="6.8103">
        <ele>415</ele>
        <time>2015-08-23T08:56:20.000Z</time>
      </trkpt>
      <trkpt lat="47.43086" lon="6.81026">
        <ele>415</ele>
        <time>2015-08-23T08:56:21.000Z</time>
      </trkpt>
      <trkpt lat="47.43083" lon="6.81022">
        <ele>414</ele>
        <time>2015-08-23T08:56:22.000Z</time>
      </trkpt>
      <trkpt lat="47.4308" lon="6.81019">
        <ele>414</ele>
        <time>2015-08-23T08:56:23.000Z</time>
      </trkpt>
      <trkpt lat="47.43078" lon="6.81015">
        <ele>414</ele>
        <time>2015-08-23T08:56:24.000Z</time>
      </trkpt>
      <trkpt lat="47.43075" lon="6.81011">
        <ele>414</ele>
        <time>2015-08-23T08:56:25.000Z</time>
      </trkpt>
      <trkpt lat="47.43073" lon="6.81008">
        <ele>414</ele>
        <time>2015-08-23T08:56:26.000Z</time>
      </trkpt>
      <trkpt lat="47.43071" lon="6.81004">
        <ele>414</ele>
        <time>2015-08-23T08:56:27.000Z</time>
      </trkpt>
      <trkpt lat="47.43069" lon="6.81">
        <ele>415</ele>
        <time>2015-08-23T08:56:28.000Z</time>
      </trkpt>
      <trkpt lat="47.43067" lon="6.80997">
        <ele>417</ele>
        <time>2015-08-23T08:56:29.000Z</time>
      </trkpt>
      <trkpt lat="47.43065" lon="6.80993">
        <ele>417</ele>
        <time>2015-08-23T08:56:30.000Z</time>
      </trkpt>
      <trkpt lat="47.43063" lon="6.80989">
        <ele>417</ele>
        <time>2015-08-23T08:56:31.000Z</time>
      </trkpt>
      <trkpt lat="47.4306" lon="6.80985">
        <ele>418</ele>
        <time>2015-08-23T08:56:32.000Z</time>
      </trkpt>
      <trkpt lat="47.43057" lon="6.80982">
        <ele>418</ele>
        <time>2015-08-23T08:56:33.000Z</time>
      </trkpt>
      <trkpt lat="47.43054" lon="6.80979">
        <ele>419</ele>
        <time>2015-08-23T08:56:34.000Z</time>
      </trkpt>
      <trkpt lat="47.43052" lon="6.80976">
        <ele>419</ele>
        <time>2015-08-23T08:56:35.000Z</time>
      </trkpt>
      <trkpt lat="47.4305" lon="6.80973">
        <ele>419</ele>
        <time>2015-08-23T08:56:36.000Z</time>
      </trkpt>
      <trkpt lat="47.43048" lon="6.80969">
        <ele>419</ele>
        <time>2015-08-23T08:56:37.000Z</time>
      </trkpt>
      <trkpt lat="47.43046" lon="6.80966">
        <ele>419</ele>
        <time>2015-08-23T08:56:38.000Z</time>
      </trkpt>
      <trkpt lat="47.43045" lon="6.80963">
        <ele>420</ele>
        <time>2015-08-23T08:56:39.000Z</time>
      </trkpt>
      <trkpt lat="47.43043" lon="6.8096">
        <ele>420</ele>
        <time>2015-08-23T08:56:40.000Z</time>
      </trkpt>
      <trkpt lat="47.43041" lon="6.80958">
        <ele>420</ele>
        <time>2015-08-23T08:56:41.000Z</time>
      </trkpt>
      <trkpt lat="47.43039" lon="6.80956">
        <ele>420</ele>
        <time>2015-08-23T08:56:42.000Z</time>
      </trkpt>
      <trkpt lat="47.43037" lon="6.80953">
        <ele>420</ele>
        <time>2015-08-23T08:56:43.000Z</time>
      </trkpt>
      <trkpt lat="47.43035" lon="6.80951">
        <ele>420</ele>
        <time>2015-08-23T08:56:44.000Z</time>
      </trkpt>
      <trkpt lat="47.43032" lon="6.80948">
        <ele>420</ele>
        <time>2015-08-23T08:56:45.000Z</time>
      </trkpt>
      <trkpt lat="47.4303" lon="6.80945">
        <ele>420</ele>
        <time>2015-08-23T08:56:46.000Z</time>
      </trkpt>
      <trkpt lat="47.43029" lon="6.80942">
        <ele>420</ele>
        <time>2015-08-23T08:56:47.000Z</time>
      </trkpt>
      <trkpt lat="47.43027" lon="6.80938">
        <ele>420</ele>
        <time>2015-08-23T08:56:48.000Z</time>
      </trkpt>
      <trkpt lat="47.43026" lon="6.80935">
        <ele>420</ele>
        <time>2015-08-23T08:56:49.000Z</time>
      </trkpt>
      <trkpt lat="47.43024" lon="6.80932">
        <ele>420</ele>
        <time>2015-08-23T08:56:50.000Z</time>
      </trkpt>
      <trkpt lat="47.43021" lon="6.80928">
        <ele>420</ele>
        <time>2015-08-23T08:56:51.000Z</time>
      </trkpt>
      <trkpt lat="47.43019" lon="6.80925">
        <ele>419</ele>
        <time>2015-08-23T08:56:52.000Z</time>
      </trkpt>
      <trkpt lat="47.43017" lon="6.80921">
        <ele>419</ele>
        <time>2015-08-23T08:56:53.000Z</time>
      </trkpt>
      <trkpt lat="47.43016" lon="6.80917">
        <ele>419</ele>
        <time>2015-08-23T08:56:54.000Z</time>
      </trkpt>
      <trkpt lat="47.43014" lon="6.80914">
        <ele>422</ele>
        <time>2015-08-23T08:56:55.000Z</time>
      </trkpt>
      <trkpt lat="47.43012" lon="6.80911">
        <ele>422</ele>
        <time>2015-08-23T08:56:56.000Z</time>
      </trkpt>
      <trkpt lat="47.4301" lon="6.80907">
        <ele>422</ele>
        <time>2015-08-23T08:56:57.000Z</time>
      </trkpt>
      <trkpt lat="47.43008" lon="6.80904">
        <ele>422</ele>
        <time>2015-08-23T08:56:58.000Z</time>
      </trkpt>
      <trkpt lat="47.43005" lon="6.80901">
        <ele>422</ele>
        <time>2015-08-23T08:56:59.000Z</time>
      </trkpt>
      <trkpt lat="47.43003" lon="6.80899">
        <ele>423</ele>
        <time>2015-08-23T08:57:00.000Z</time>
      </trkpt>
      <trkpt lat="47.43002" lon="6.80895">
        <ele>423</ele>
        <time>2015-08-23T08:57:01.000Z</time>
      </trkpt>
      <trkpt lat="47.43" lon="6.80892">
        <ele>424</ele>
        <time>2015-08-23T08:57:02.000Z</time>
      </trkpt>
      <trkpt lat="47.42998" lon="6.80888">
        <ele>425</ele>
        <time>2015-08-23T08:57:03.000Z</time>
      </trkpt>
      <trkpt lat="47.42997" lon="6.80884">
        <ele>425</ele>
        <time>2015-08-23T08:57:04.000Z</time>
      </trkpt>
      <trkpt lat="47.42995" lon="6.8088">
        <ele>425</ele>
        <time>2015-08-23T08:57:05.000Z</time>
      </trkpt>
      <trkpt lat="47.42993" lon="6.80877">
        <ele>426</ele>
        <time>2015-08-23T08:57:06.000Z</time>
      </trkpt>
      <trkpt lat="47.42991" lon="6.80874">
        <ele>426</ele>
        <time>2015-08-23T08:57:07.000Z</time>
      </trkpt>
      <trkpt lat="47.42975" lon="6.80872">
        <ele>427</ele>
        <time>2015-08-23T08:57:08.000Z</time>
      </trkpt>
      <trkpt lat="47.42974" lon="6.80868">
        <ele>427</ele>
        <time>2015-08-23T08:57:09.000Z</time>
      </trkpt>
      <trkpt lat="47.42973" lon="6.80865">
        <ele>427</ele>
        <time>2015-08-23T08:57:10.000Z</time>
      </trkpt>
      <trkpt lat="47.42971" lon="6.8086">
        <ele>427</ele>
        <time>2015-08-23T08:57:12.000Z</time>
      </trkpt>
      <trkpt lat="47.42971" lon="6.80857">
        <ele>427</ele>
        <time>2015-08-23T08:57:13.000Z</time>
      </trkpt>
      <trkpt lat="47.42969" lon="6.80852">
        <ele>427</ele>
        <time>2015-08-23T08:57:15.000Z</time>
      </trkpt>
      <trkpt lat="47.42967" lon="6.80848">
        <ele>427</ele>
        <time>2015-08-23T08:57:16.000Z</time>
      </trkpt>
      <trkpt lat="47.42966" lon="6.80844">
        <ele>427</ele>
        <time>2015-08-23T08:57:17.000Z</time>
      </trkpt>
      <trkpt lat="47.42964" lon="6.80841">
        <ele>427</ele>
        <time>2015-08-23T08:57:18.000Z</time>
      </trkpt>
      <trkpt lat="47.42962" lon="6.80838">
        <ele>427</ele>
        <time>2015-08-23T08:57:19.000Z</time>
      </trkpt>
      <trkpt lat="47.4296" lon="6.80835">
        <ele>427</ele>
        <time>2015-08-23T08:57:20.000Z</time>
      </trkpt>
      <trkpt lat="47.42958" lon="6.80832">
        <ele>427</ele>
        <time>2015-08-23T08:57:21.000Z</time>
      </trkpt>
      <trkpt lat="47.42957" lon="6.80829">
        <ele>427</ele>
        <time>2015-08-23T08:57:22.000Z</time>
      </trkpt>
      <trkpt lat="47.42954" lon="6.80823">
        <ele>427</ele>
        <time>2015-08-23T08:57:24.000Z</time>
      </trkpt>
      <trkpt lat="47.42953" lon="6.8082">
        <ele>427</ele>
        <time>2015-08-23T08:57:25.000Z</time>
      </trkpt>
      <trkpt lat="47.42952" lon="6.80816">
        <ele>427</ele>
        <time>2015-08-23T08:57:26.000Z</time>
      </trkpt>
      <trkpt lat="47.42951" lon="6.80812">
        <ele>427</ele>
        <time>2015-08-23T08:57:27.000Z</time>
      </trkpt>
      <trkpt lat="47.42949" lon="6.80807">
        <ele>427</ele>
        <time>2015-08-23T08:57:28.000Z</time>
      </trkpt>
      <trkpt lat="47.42948" lon="6.80802">
        <ele>427</ele>
        <time>2015-08-23T08:57:29.000Z</time>
      </trkpt>
      <trkpt lat="47.42946" lon="6.80797">
        <ele>427</ele>
        <time>2015-08-23T08:57:30.000Z</time>
      </trkpt>
      <trkpt lat="47.42945" lon="6.80792">
        <ele>427</ele>
        <time>2015-08-23T08:57:31.000Z</time>
      </trkpt>
      <trkpt lat="47.42944" lon="6.80787">
        <ele>427</ele>
        <time>2015-08-23T08:57:32.000Z</time>
      </trkpt>
      <trkpt lat="47.42943" lon="6.80783">
        <ele>427</ele>
        <time>2015-08-23T08:57:33.000Z</time>
      </trkpt>
      <trkpt lat="47.42941" lon="6.80779">
        <ele>427</ele>
        <time>2015-08-23T08:57:34.000Z</time>
      </trkpt>
      <trkpt lat="47.4294" lon="6.80776">
        <ele>427</ele>
        <time>2015-08-23T08:57:35.000Z</time>
      </trkpt>
      <trkpt lat="47.42938" lon="6.80772">
        <ele>427</ele>
        <time>2015-08-23T08:57:36.000Z</time>
      </trkpt>
      <trkpt lat="47.42937" lon="6.80769">
        <ele>427</ele>
        <time>2015-08-23T08:57:37.000Z</time>
      </trkpt>
      <trkpt lat="47.42935" lon="6.80765">
        <ele>427</ele>
        <time>2015-08-23T08:57:38.000Z</time>
      </trkpt>
      <trkpt lat="47.42934" lon="6.80762">
        <ele>426</ele>
        <time>2015-08-23T08:57:39.000Z</time>
      </trkpt>
      <trkpt lat="47.42932" lon="6.80758">
        <ele>426</ele>
        <time>2015-08-23T08:57:40.000Z</time>
      </trkpt>
      <trkpt lat="47.42931" lon="6.80754">
        <ele>426</ele>
        <time>2015-08-23T08:57:41.000Z</time>
      </trkpt>
      <trkpt lat="47.42931" lon="6.8075">
        <ele>426</ele>
        <time>2015-08-23T08:57:42.000Z</time>
      </trkpt>
      <trkpt lat="47.4293" lon="6.80746">
        <ele>428</ele>
        <time>2015-08-23T08:57:43.000Z</time>
      </trkpt>
      <trkpt lat="47.4293" lon="6.80741">
        <ele>428</ele>
        <time>2015-08-23T08:57:44.000Z</time>
      </trkpt>
      <trkpt lat="47.42929" lon="6.80737">
        <ele>429</ele>
        <time>2015-08-23T08:57:45.000Z</time>
      </trkpt>
      <trkpt lat="47.42928" lon="6.80733">
        <ele>429</ele>
        <time>2015-08-23T08:57:46.000Z</time>
      </trkpt>
      <trkpt lat="47.42926" lon="6.80729">
        <ele>429</ele>
        <time>2015-08-23T08:57:47.000Z</time>
      </trkpt>
      <trkpt lat="47.42925" lon="6.80726">
        <ele>430</ele>
        <time>2015-08-23T08:57:48.000Z</time>
      </trkpt>
      <trkpt lat="47.42923" lon="6.80723">
        <ele>430</ele>
        <time>2015-08-23T08:57:49.000Z</time>
      </trkpt>
      <trkpt lat="47.42922" lon="6.80719">
        <ele>430</ele>
        <time>2015-08-23T08:57:50.000Z</time>
      </trkpt>
      <trkpt lat="47.42921" lon="6.80716">
        <ele>431</ele>
        <time>2015-08-23T08:57:51.000Z</time>
      </trkpt>
      <trkpt lat="47.4292" lon="6.80709">
        <ele>431</ele>
        <time>2015-08-23T08:57:53.000Z</time>
      </trkpt>
      <trkpt lat="47.4292" lon="6.80706">
        <ele>431</ele>
        <time>2015-08-23T08:57:54.000Z</time>
      </trkpt>
      <trkpt lat="47.42918" lon="6.807">
        <ele>431</ele>
        <time>2015-08-23T08:57:56.000Z</time>
      </trkpt>
      <trkpt lat="47.42917" lon="6.80697">
        <ele>431</ele>
        <time>2015-08-23T08:57:57.000Z</time>
      </trkpt>
      <trkpt lat="47.42915" lon="6.80692">
        <ele>430</ele>
        <time>2015-08-23T08:57:59.000Z</time>
      </trkpt>
      <trkpt lat="47.42914" lon="6.80689">
        <ele>430</ele>
        <time>2015-08-23T08:58:00.000Z</time>
      </trkpt>
      <trkpt lat="47.42913" lon="6.80686">
        <ele>430</ele>
        <time>2015-08-23T08:58:01.000Z</time>
      </trkpt>
      <trkpt lat="47.42912" lon="6.80682">
        <ele>430</ele>
        <time>2015-08-23T08:58:02.000Z</time>
      </trkpt>
      <trkpt lat="47.42911" lon="6.80678">
        <ele>430</ele>
        <time>2015-08-23T08:58:03.000Z</time>
      </trkpt>
      <trkpt lat="47.4291" lon="6.80674">
        <ele>430</ele>
        <time>2015-08-23T08:58:04.000Z</time>
      </trkpt>
      <trkpt lat="47.42907" lon="6.8067">
        <ele>430</ele>
        <time>2015-08-23T08:58:05.000Z</time>
      </trkpt>
      <trkpt lat="47.42904" lon="6.80666">
        <ele>431</ele>
        <time>2015-08-23T08:58:06.000Z</time>
      </trkpt>
      <trkpt lat="47.42901" lon="6.80662">
        <ele>431</ele>
        <time>2015-08-23T08:58:07.000Z</time>
      </trkpt>
      <trkpt lat="47.42898" lon="6.80659">
        <ele>432</ele>
        <time>2015-08-23T08:58:08.000Z</time>
      </trkpt>
      <trkpt lat="47.42895" lon="6.80655">
        <ele>432</ele>
        <time>2015-08-23T08:58:09.000Z</time>
      </trkpt>
      <trkpt lat="47.42892" lon="6.80652">
        <ele>432</ele>
        <time>2015-08-23T08:58:10.000Z</time>
      </trkpt>
      <trkpt lat="47.42889" lon="6.80649">
        <ele>433</ele>
        <time>2015-08-23T08:58:11.000Z</time>
      </trkpt>
      <trkpt lat="47.42886" lon="6.80647">
        <ele>433</ele>
        <time>2015-08-23T08:58:12.000Z</time>
      </trkpt>
      <trkpt lat="47.42883" lon="6.80645">
        <ele>433</ele>
        <time>2015-08-23T08:58:13.000Z</time>
      </trkpt>
      <trkpt lat="47.42881" lon="6.80643">
        <ele>433</ele>
        <time>2015-08-23T08:58:14.000Z</time>
      </trkpt>
      <trkpt lat="47.42877" lon="6.80641">
        <ele>433</ele>
        <time>2015-08-23T08:58:16.000Z</time>
      </trkpt>
      <trkpt lat="47.42876" lon="6.80639">
        <ele>434</ele>
        <time>2015-08-23T08:58:17.000Z</time>
      </trkpt>
      <trkpt lat="47.42873" lon="6.80638">
        <ele>434</ele>
        <time>2015-08-23T08:58:18.000Z</time>
      </trkpt>
      <trkpt lat="47.42871" lon="6.80635">
        <ele>434</ele>
        <time>2015-08-23T08:58:19.000Z</time>
      </trkpt>
      <trkpt lat="47.42868" lon="6.80633">
        <ele>434</ele>
        <time>2015-08-23T08:58:20.000Z</time>
      </trkpt>
      <trkpt lat="47.42865" lon="6.80632">
        <ele>434</ele>
        <time>2015-08-23T08:58:21.000Z</time>
      </trkpt>
      <trkpt lat="47.42862" lon="6.80631">
        <ele>434</ele>
        <time>2015-08-23T08:58:22.000Z</time>
      </trkpt>
      <trkpt lat="47.4286" lon="6.8063">
        <ele>434</ele>
        <time>2015-08-23T08:58:23.000Z</time>
      </trkpt>
      <trkpt lat="47.42856" lon="6.80626">
        <ele>434</ele>
        <time>2015-08-23T08:58:25.000Z</time>
      </trkpt>
      <trkpt lat="47.42855" lon="6.80625">
        <ele>435</ele>
        <time>2015-08-23T08:58:26.000Z</time>
      </trkpt>
      <trkpt lat="47.42852" lon="6.80622">
        <ele>435</ele>
        <time>2015-08-23T08:58:28.000Z</time>
      </trkpt>
      <trkpt lat="47.42851" lon="6.80621">
        <ele>435</ele>
        <time>2015-08-23T08:58:29.000Z</time>
      </trkpt>
      <trkpt lat="47.42847" lon="6.8062">
        <ele>435</ele>
        <time>2015-08-23T08:58:31.000Z</time>
      </trkpt>
      <trkpt lat="47.42845" lon="6.80619">
        <ele>435</ele>
        <time>2015-08-23T08:58:32.000Z</time>
      </trkpt>
      <trkpt lat="47.42841" lon="6.80618">
        <ele>435</ele>
        <time>2015-08-23T08:58:34.000Z</time>
      </trkpt>
      <trkpt lat="47.42839" lon="6.80617">
        <ele>435</ele>
        <time>2015-08-23T08:58:35.000Z</time>
      </trkpt>
      <trkpt lat="47.42838" lon="6.80616">
        <ele>435</ele>
        <time>2015-08-23T08:58:36.000Z</time>
      </trkpt>
      <trkpt lat="47.42835" lon="6.80615">
        <ele>436</ele>
        <time>2015-08-23T08:58:37.000Z</time>
      </trkpt>
      <trkpt lat="47.42832" lon="6.80613">
        <ele>439</ele>
        <time>2015-08-23T08:58:38.000Z</time>
      </trkpt>
      <trkpt lat="47.42829" lon="6.80611">
        <ele>439</ele>
        <time>2015-08-23T08:58:39.000Z</time>
      </trkpt>
      <trkpt lat="47.42826" lon="6.8061">
        <ele>439</ele>
        <time>2015-08-23T08:58:40.000Z</time>
      </trkpt>
      <trkpt lat="47.42823" lon="6.8061">
        <ele>440</ele>
        <time>2015-08-23T08:58:41.000Z</time>
      </trkpt>
      <trkpt lat="47.4282" lon="6.80609">
        <ele>440</ele>
        <time>2015-08-23T08:58:42.000Z</time>
      </trkpt>
      <trkpt lat="47.42817" lon="6.80609">
        <ele>440</ele>
        <time>2015-08-23T08:58:43.000Z</time>
      </trkpt>
      <trkpt lat="47.42813" lon="6.80609">
        <ele>440</ele>
        <time>2015-08-23T08:58:44.000Z</time>
      </trkpt>
      <trkpt lat="47.42811" lon="6.80609">
        <ele>440</ele>
        <time>2015-08-23T08:58:45.000Z</time>
      </trkpt>
      <trkpt lat="47.42808" lon="6.80608">
        <ele>440</ele>
        <time>2015-08-23T08:58:46.000Z</time>
      </trkpt>
      <trkpt lat="47.42806" lon="6.80606">
        <ele>440</ele>
        <time>2015-08-23T08:58:47.000Z</time>
      </trkpt>
      <trkpt lat="47.42802" lon="6.80605">
        <ele>440</ele>
        <time>2015-08-23T08:58:48.000Z</time>
      </trkpt>
      <trkpt lat="47.42798" lon="6.80604">
        <ele>441</ele>
        <time>2015-08-23T08:58:49.000Z</time>
      </trkpt>
      <trkpt lat="47.42795" lon="6.80603">
        <ele>441</ele>
        <time>2015-08-23T08:58:50.000Z</time>
      </trkpt>
      <trkpt lat="47.42792" lon="6.80603">
        <ele>441</ele>
        <time>2015-08-23T08:58:51.000Z</time>
      </trkpt>
      <trkpt lat="47.42789" lon="6.80603">
        <ele>441</ele>
        <time>2015-08-23T08:58:52.000Z</time>
      </trkpt>
      <trkpt lat="47.42787" lon="6.80603">
        <ele>441</ele>
        <time>2015-08-23T08:58:53.000Z</time>
      </trkpt>
      <trkpt lat="47.42784" lon="6.80604">
        <ele>441</ele>
        <time>2015-08-23T08:58:54.000Z</time>
      </trkpt>
      <trkpt lat="47.42782" lon="6.80604">
        <ele>442</ele>
        <time>2015-08-23T08:58:55.000Z</time>
      </trkpt>
      <trkpt lat="47.42778" lon="6.80603">
        <ele>442</ele>
        <time>2015-08-23T08:58:57.000Z</time>
      </trkpt>
      <trkpt lat="47.42776" lon="6.80602">
        <ele>442</ele>
        <time>2015-08-23T08:58:58.000Z</time>
      </trkpt>
      <trkpt lat="47.42772" lon="6.806">
        <ele>443</ele>
        <time>2015-08-23T08:59:01.000Z</time>
      </trkpt>
      <trkpt lat="47.4277" lon="6.806">
        <ele>443</ele>
        <time>2015-08-23T08:59:02.000Z</time>
      </trkpt>
      <trkpt lat="47.42767" lon="6.80599">
        <ele>443</ele>
        <time>2015-08-23T08:59:04.000Z</time>
      </trkpt>
      <trkpt lat="47.42765" lon="6.80598">
        <ele>443</ele>
        <time>2015-08-23T08:59:05.000Z</time>
      </trkpt>
      <trkpt lat="47.4276" lon="6.80597">
        <ele>444</ele>
        <time>2015-08-23T08:59:07.000Z</time>
      </trkpt>
      <trkpt lat="47.42757" lon="6.80596">
        <ele>444</ele>
        <time>2015-08-23T08:59:08.000Z</time>
      </trkpt>
      <trkpt lat="47.42755" lon="6.80595">
        <ele>444</ele>
        <time>2015-08-23T08:59:09.000Z</time>
      </trkpt>
      <trkpt lat="47.42751" lon="6.80594">
        <ele>445</ele>
        <time>2015-08-23T08:59:10.000Z</time>
      </trkpt>
      <trkpt lat="47.42748" lon="6.80593">
        <ele>448</ele>
        <time>2015-08-23T08:59:11.000Z</time>
      </trkpt>
      <trkpt lat="47.42745" lon="6.80592">
        <ele>448</ele>
        <time>2015-08-23T08:59:12.000Z</time>
      </trkpt>
      <trkpt lat="47.42742" lon="6.80591">
        <ele>448</ele>
        <time>2015-08-23T08:59:13.000Z</time>
      </trkpt>
      <trkpt lat="47.42738" lon="6.80591">
        <ele>448</ele>
        <time>2015-08-23T08:59:14.000Z</time>
      </trkpt>
      <trkpt lat="47.42735" lon="6.8059">
        <ele>448</ele>
        <time>2015-08-23T08:59:15.000Z</time>
      </trkpt>
      <trkpt lat="47.42732" lon="6.8059">
        <ele>449</ele>
        <time>2015-08-23T08:59:16.000Z</time>
      </trkpt>
      <trkpt lat="47.42729" lon="6.80589">
        <ele>449</ele>
        <time>2015-08-23T08:59:17.000Z</time>
      </trkpt>
      <trkpt lat="47.42727" lon="6.80588">
        <ele>449</ele>
        <time>2015-08-23T08:59:18.000Z</time>
      </trkpt>
      <trkpt lat="47.42724" lon="6.80586">
        <ele>449</ele>
        <time>2015-08-23T08:59:21.000Z</time>
      </trkpt>
      <trkpt lat="47.42723" lon="6.80585">
        <ele>449</ele>
        <time>2015-08-23T08:59:22.000Z</time>
      </trkpt>
      <trkpt lat="47.42719" lon="6.80583">
        <ele>454</ele>
        <time>2015-08-23T08:59:24.000Z</time>
      </trkpt>
      <trkpt lat="47.42717" lon="6.80582">
        <ele>454</ele>
        <time>2015-08-23T08:59:25.000Z</time>
      </trkpt>
      <trkpt lat="47.42713" lon="6.80579">
        <ele>455</ele>
        <time>2015-08-23T08:59:27.000Z</time>
      </trkpt>
      <trkpt lat="47.42711" lon="6.80577">
        <ele>455</ele>
        <time>2015-08-23T08:59:28.000Z</time>
      </trkpt>
      <trkpt lat="47.42708" lon="6.80576">
        <ele>455</ele>
        <time>2015-08-23T08:59:29.000Z</time>
      </trkpt>
      <trkpt lat="47.42706" lon="6.80575">
        <ele>455</ele>
        <time>2015-08-23T08:59:30.000Z</time>
      </trkpt>
      <trkpt lat="47.42703" lon="6.80574">
        <ele>455</ele>
        <time>2015-08-23T08:59:31.000Z</time>
      </trkpt>
      <trkpt lat="47.427" lon="6.80574">
        <ele>455</ele>
        <time>2015-08-23T08:59:32.000Z</time>
      </trkpt>
      <trkpt lat="47.42698" lon="6.80573">
        <ele>455</ele>
        <time>2015-08-23T08:59:33.000Z</time>
      </trkpt>
      <trkpt lat="47.42695" lon="6.80572">
        <ele>455</ele>
        <time>2015-08-23T08:59:34.000Z</time>
      </trkpt>
      <trkpt lat="47.42693" lon="6.80572">
        <ele>455</ele>
        <time>2015-08-23T08:59:35.000Z</time>
      </trkpt>
      <trkpt lat="47.4269" lon="6.80571">
        <ele>455</ele>
        <time>2015-08-23T08:59:36.000Z</time>
      </trkpt>
      <trkpt lat="47.42688" lon="6.80571">
        <ele>455</ele>
        <time>2015-08-23T08:59:37.000Z</time>
      </trkpt>
      <trkpt lat="47.42685" lon="6.80571">
        <ele>455</ele>
        <time>2015-08-23T08:59:38.000Z</time>
      </trkpt>
      <trkpt lat="47.42681" lon="6.8057">
        <ele>455</ele>
        <time>2015-08-23T08:59:40.000Z</time>
      </trkpt>
      <trkpt lat="47.42679" lon="6.80569">
        <ele>455</ele>
        <time>2015-08-23T08:59:41.000Z</time>
      </trkpt>
      <trkpt lat="47.42675" lon="6.80566">
        <ele>455</ele>
        <time>2015-08-23T08:59:43.000Z</time>
      </trkpt>
      <trkpt lat="47.42673" lon="6.80564">
        <ele>456</ele>
        <time>2015-08-23T08:59:44.000Z</time>
      </trkpt>
      <trkpt lat="47.42671" lon="6.8056">
        <ele>456</ele>
        <time>2015-08-23T08:59:46.000Z</time>
      </trkpt>
      <trkpt lat="47.4267" lon="6.80559">
        <ele>456</ele>
        <time>2015-08-23T08:59:47.000Z</time>
      </trkpt>
      <trkpt lat="47.42666" lon="6.80554">
        <ele>459</ele>
        <time>2015-08-23T08:59:49.000Z</time>
      </trkpt>
      <trkpt lat="47.42664" lon="6.80552">
        <ele>460</ele>
        <time>2015-08-23T08:59:50.000Z</time>
      </trkpt>
      <trkpt lat="47.42662" lon="6.80549">
        <ele>460</ele>
        <time>2015-08-23T08:59:51.000Z</time>
      </trkpt>
      <trkpt lat="47.42661" lon="6.80546">
        <ele>460</ele>
        <time>2015-08-23T08:59:52.000Z</time>
      </trkpt>
      <trkpt lat="47.42659" lon="6.80542">
        <ele>461</ele>
        <time>2015-08-23T08:59:54.000Z</time>
      </trkpt>
      <trkpt lat="47.42658" lon="6.80539">
        <ele>461</ele>
        <time>2015-08-23T08:59:55.000Z</time>
      </trkpt>
      <trkpt lat="47.42656" lon="6.80536">
        <ele>461</ele>
        <time>2015-08-23T08:59:56.000Z</time>
      </trkpt>
      <trkpt lat="47.42655" lon="6.80533">
        <ele>461</ele>
        <time>2015-08-23T08:59:57.000Z</time>
      </trkpt>
      <trkpt lat="47.42654" lon="6.80527">
        <ele>462</ele>
        <time>2015-08-23T08:59:59.000Z</time>
      </trkpt>
      <trkpt lat="47.42653" lon="6.80525">
        <ele>462</ele>
        <time>2015-08-23T09:00:00.000Z</time>
      </trkpt>
      <trkpt lat="47.42651" lon="6.8052">
        <ele>462</ele>
        <time>2015-08-23T09:00:02.000Z</time>
      </trkpt>
      <trkpt lat="47.4265" lon="6.80518">
        <ele>462</ele>
        <time>2015-08-23T09:00:03.000Z</time>
      </trkpt>
      <trkpt lat="47.42648" lon="6.80512">
        <ele>463</ele>
        <time>2015-08-23T09:00:05.000Z</time>
      </trkpt>
      <trkpt lat="47.42647" lon="6.80509">
        <ele>463</ele>
        <time>2015-08-23T09:00:06.000Z</time>
      </trkpt>
      <trkpt lat="47.42646" lon="6.80506">
        <ele>463</ele>
        <time>2015-08-23T09:00:07.000Z</time>
      </trkpt>
      <trkpt lat="47.42645" lon="6.80503">
        <ele>463</ele>
        <time>2015-08-23T09:00:08.000Z</time>
      </trkpt>
      <trkpt lat="47.42644" lon="6.80499">
        <ele>466</ele>
        <time>2015-08-23T09:00:09.000Z</time>
      </trkpt>
      <trkpt lat="47.42642" lon="6.80496">
        <ele>466</ele>
        <time>2015-08-23T09:00:10.000Z</time>
      </trkpt>
      <trkpt lat="47.4264" lon="6.80493">
        <ele>466</ele>
        <time>2015-08-23T09:00:11.000Z</time>
      </trkpt>
      <trkpt lat="47.42638" lon="6.8049">
        <ele>467</ele>
        <time>2015-08-23T09:00:12.000Z</time>
      </trkpt>
      <trkpt lat="47.42637" lon="6.80487">
        <ele>467</ele>
        <time>2015-08-23T09:00:13.000Z</time>
      </trkpt>
      <trkpt lat="47.42636" lon="6.80483">
        <ele>467</ele>
        <time>2015-08-23T09:00:14.000Z</time>
      </trkpt>
      <trkpt lat="47.42635" lon="6.8048">
        <ele>467</ele>
        <time>2015-08-23T09:00:15.000Z</time>
      </trkpt>
      <trkpt lat="47.42635" lon="6.80477">
        <ele>467</ele>
        <time>2015-08-23T09:00:16.000Z</time>
      </trkpt>
      <trkpt lat="47.42634" lon="6.80474">
        <ele>467</ele>
        <time>2015-08-23T09:00:17.000Z</time>
      </trkpt>
      <trkpt lat="47.42634" lon="6.8047">
        <ele>467</ele>
        <time>2015-08-23T09:00:18.000Z</time>
      </trkpt>
      <trkpt lat="47.42632" lon="6.80467">
        <ele>467</ele>
        <time>2015-08-23T09:00:19.000Z</time>
      </trkpt>
      <trkpt lat="47.4263" lon="6.80464">
        <ele>468</ele>
        <time>2015-08-23T09:00:20.000Z</time>
      </trkpt>
      <trkpt lat="47.42628" lon="6.80461">
        <ele>468</ele>
        <time>2015-08-23T09:00:21.000Z</time>
      </trkpt>
      <trkpt lat="47.42627" lon="6.8046">
        <ele>468</ele>
        <time>2015-08-23T09:00:22.000Z</time>
      </trkpt>
      <trkpt lat="47.42625" lon="6.80456">
        <ele>468</ele>
        <time>2015-08-23T09:00:25.000Z</time>
      </trkpt>
      <trkpt lat="47.42624" lon="6.80454">
        <ele>468</ele>
        <time>2015-08-23T09:00:26.000Z</time>
      </trkpt>
      <trkpt lat="47.42623" lon="6.80448">
        <ele>468</ele>
        <time>2015-08-23T09:00:29.000Z</time>
      </trkpt>
      <trkpt lat="47.42622" lon="6.80446">
        <ele>468</ele>
        <time>2015-08-23T09:00:30.000Z</time>
      </trkpt>
      <trkpt lat="47.42621" lon="6.80442">
        <ele>468</ele>
        <time>2015-08-23T09:00:32.000Z</time>
      </trkpt>
      <trkpt lat="47.42619" lon="6.80441">
        <ele>468</ele>
        <time>2015-08-23T09:00:33.000Z</time>
      </trkpt>
      <trkpt lat="47.42619" lon="6.80435">
        <ele>468</ele>
        <time>2015-08-23T09:00:36.000Z</time>
      </trkpt>
      <trkpt lat="47.42619" lon="6.80434">
        <ele>468</ele>
        <time>2015-08-23T09:00:37.000Z</time>
      </trkpt>
      <trkpt lat="47.42617" lon="6.80429">
        <ele>468</ele>
        <time>2015-08-23T09:00:39.000Z</time>
      </trkpt>
      <trkpt lat="47.42615" lon="6.80427">
        <ele>468</ele>
        <time>2015-08-23T09:00:40.000Z</time>
      </trkpt>
      <trkpt lat="47.42613" lon="6.80425">
        <ele>469</ele>
        <time>2015-08-23T09:00:41.000Z</time>
      </trkpt>
      <trkpt lat="47.42612" lon="6.80422">
        <ele>469</ele>
        <time>2015-08-23T09:00:42.000Z</time>
      </trkpt>
      <trkpt lat="47.42611" lon="6.80416">
        <ele>472</ele>
        <time>2015-08-23T09:00:44.000Z</time>
      </trkpt>
      <trkpt lat="47.4261" lon="6.80412">
        <ele>472</ele>
        <time>2015-08-23T09:00:45.000Z</time>
      </trkpt>
      <trkpt lat="47.4261" lon="6.80408">
        <ele>472</ele>
        <time>2015-08-23T09:00:46.000Z</time>
      </trkpt>
      <trkpt lat="47.42609" lon="6.80404">
        <ele>472</ele>
        <time>2015-08-23T09:00:47.000Z</time>
      </trkpt>
      <trkpt lat="47.42608" lon="6.80401">
        <ele>472</ele>
        <time>2015-08-23T09:00:48.000Z</time>
      </trkpt>
      <trkpt lat="47.42607" lon="6.80397">
        <ele>472</ele>
        <time>2015-08-23T09:00:49.000Z</time>
      </trkpt>
      <trkpt lat="47.42607" lon="6.80394">
        <ele>472</ele>
        <time>2015-08-23T09:00:50.000Z</time>
      </trkpt>
      <trkpt lat="47.42607" lon="6.8039">
        <ele>472</ele>
        <time>2015-08-23T09:00:51.000Z</time>
      </trkpt>
      <trkpt lat="47.42607" lon="6.80386">
        <ele>473</ele>
        <time>2015-08-23T09:00:52.000Z</time>
      </trkpt>
      <trkpt lat="47.42607" lon="6.80382">
        <ele>473</ele>
        <time>2015-08-23T09:00:53.000Z</time>
      </trkpt>
      <trkpt lat="47.42606" lon="6.80378">
        <ele>473</ele>
        <time>2015-08-23T09:00:54.000Z</time>
      </trkpt>
      <trkpt lat="47.42606" lon="6.80373">
        <ele>473</ele>
        <time>2015-08-23T09:00:55.000Z</time>
      </trkpt>
      <trkpt lat="47.42606" lon="6.80368">
        <ele>473</ele>
        <time>2015-08-23T09:00:56.000Z</time>
      </trkpt>
      <trkpt lat="47.42606" lon="6.80363">
        <ele>473</ele>
        <time>2015-08-23T09:00:57.000Z</time>
      </trkpt>
      <trkpt lat="47.42605" lon="6.80358">
        <ele>474</ele>
        <time>2015-08-23T09:00:58.000Z</time>
      </trkpt>
      <trkpt lat="47.42605" lon="6.80353">
        <ele>474</ele>
        <time>2015-08-23T09:00:59.000Z</time>
      </trkpt>
      <trkpt lat="47.42605" lon="6.80348">
        <ele>474</ele>
        <time>2015-08-23T09:01:00.000Z</time>
      </trkpt>
      <trkpt lat="47.42604" lon="6.80343">
        <ele>474</ele>
        <time>2015-08-23T09:01:01.000Z</time>
      </trkpt>
      <trkpt lat="47.42604" lon="6.80338">
        <ele>474</ele>
        <time>2015-08-23T09:01:02.000Z</time>
      </trkpt>
      <trkpt lat="47.42604" lon="6.80332">
        <ele>477</ele>
        <time>2015-08-23T09:01:03.000Z</time>
      </trkpt>
      <trkpt lat="47.42604" lon="6.80327">
        <ele>477</ele>
        <time>2015-08-23T09:01:04.000Z</time>
      </trkpt>
      <trkpt lat="47.42605" lon="6.80323">
        <ele>477</ele>
        <time>2015-08-23T09:01:05.000Z</time>
      </trkpt>
      <trkpt lat="47.42605" lon="6.80319">
        <ele>477</ele>
        <time>2015-08-23T09:01:06.000Z</time>
      </trkpt>
      <trkpt lat="47.42605" lon="6.80315">
        <ele>477</ele>
        <time>2015-08-23T09:01:07.000Z</time>
      </trkpt>
      <trkpt lat="47.42606" lon="6.80311">
        <ele>477</ele>
        <time>2015-08-23T09:01:08.000Z</time>
      </trkpt>
      <trkpt lat="47.42605" lon="6.80307">
        <ele>478</ele>
        <time>2015-08-23T09:01:09.000Z</time>
      </trkpt>
      <trkpt lat="47.42604" lon="6.80303">
        <ele>478</ele>
        <time>2015-08-23T09:01:10.000Z</time>
      </trkpt>
      <trkpt lat="47.42602" lon="6.80299">
        <ele>478</ele>
        <time>2015-08-23T09:01:11.000Z</time>
      </trkpt>
      <trkpt lat="47.42602" lon="6.80295">
        <ele>478</ele>
        <time>2015-08-23T09:01:12.000Z</time>
      </trkpt>
      <trkpt lat="47.42601" lon="6.80291">
        <ele>478</ele>
        <time>2015-08-23T09:01:13.000Z</time>
      </trkpt>
      <trkpt lat="47.42601" lon="6.80287">
        <ele>478</ele>
        <time>2015-08-23T09:01:14.000Z</time>
      </trkpt>
      <trkpt lat="47.426" lon="6.80284">
        <ele>478</ele>
        <time>2015-08-23T09:01:15.000Z</time>
      </trkpt>
      <trkpt lat="47.42598" lon="6.80281">
        <ele>478</ele>
        <time>2015-08-23T09:01:16.000Z</time>
      </trkpt>
      <trkpt lat="47.42597" lon="6.80278">
        <ele>479</ele>
        <time>2015-08-23T09:01:17.000Z</time>
      </trkpt>
      <trkpt lat="47.42597" lon="6.80271">
        <ele>479</ele>
        <time>2015-08-23T09:01:19.000Z</time>
      </trkpt>
      <trkpt lat="47.42597" lon="6.80267">
        <ele>479</ele>
        <time>2015-08-23T09:01:20.000Z</time>
      </trkpt>
      <trkpt lat="47.42597" lon="6.80264">
        <ele>479</ele>
        <time>2015-08-23T09:01:21.000Z</time>
      </trkpt>
      <trkpt lat="47.42597" lon="6.8026">
        <ele>479</ele>
        <time>2015-08-23T09:01:22.000Z</time>
      </trkpt>
      <trkpt lat="47.42597" lon="6.80254">
        <ele>479</ele>
        <time>2015-08-23T09:01:25.000Z</time>
      </trkpt>
      <trkpt lat="47.42598" lon="6.80253">
        <ele>479</ele>
        <time>2015-08-23T09:01:26.000Z</time>
      </trkpt>
      <trkpt lat="47.42601" lon="6.80252">
        <ele>479</ele>
        <time>2015-08-23T09:01:28.000Z</time>
      </trkpt>
      <trkpt lat="47.42602" lon="6.80251">
        <ele>479</ele>
        <time>2015-08-23T09:01:29.000Z</time>
      </trkpt>
      <trkpt lat="47.42606" lon="6.8025">
        <ele>481</ele>
        <time>2015-08-23T09:01:31.000Z</time>
      </trkpt>
      <trkpt lat="47.42608" lon="6.80251">
        <ele>479</ele>
        <time>2015-08-23T09:01:32.000Z</time>
      </trkpt>
      <trkpt lat="47.42611" lon="6.80253">
        <ele>479</ele>
        <time>2015-08-23T09:01:34.000Z</time>
      </trkpt>
      <trkpt lat="47.42612" lon="6.80255">
        <ele>479</ele>
        <time>2015-08-23T09:01:35.000Z</time>
      </trkpt>
      <trkpt lat="47.42614" lon="6.80258">
        <ele>479</ele>
        <time>2015-08-23T09:01:37.000Z</time>
      </trkpt>
      <trkpt lat="47.42615" lon="6.80261">
        <ele>479</ele>
        <time>2015-08-23T09:01:38.000Z</time>
      </trkpt>
      <trkpt lat="47.42618" lon="6.80264">
        <ele>479</ele>
        <time>2015-08-23T09:01:40.000Z</time>
      </trkpt>
      <trkpt lat="47.42619" lon="6.80265">
        <ele>479</ele>
        <time>2015-08-23T09:01:41.000Z</time>
      </trkpt>
      <trkpt lat="47.42622" lon="6.80268">
        <ele>479</ele>
        <time>2015-08-23T09:01:43.000Z</time>
      </trkpt>
      <trkpt lat="47.42624" lon="6.8027">
        <ele>479</ele>
        <time>2015-08-23T09:01:44.000Z</time>
      </trkpt>
      <trkpt lat="47.42628" lon="6.80273">
        <ele>479</ele>
        <time>2015-08-23T09:01:46.000Z</time>
      </trkpt>
      <trkpt lat="47.4263" lon="6.80274">
        <ele>479</ele>
        <time>2015-08-23T09:01:47.000Z</time>
      </trkpt>
      <trkpt lat="47.42632" lon="6.80275">
        <ele>479</ele>
        <time>2015-08-23T09:01:48.000Z</time>
      </trkpt>
      <trkpt lat="47.42634" lon="6.80277">
        <ele>479</ele>
        <time>2015-08-23T09:01:49.000Z</time>
      </trkpt>
      <trkpt lat="47.42637" lon="6.80278">
        <ele>479</ele>
        <time>2015-08-23T09:01:50.000Z</time>
      </trkpt>
      <trkpt lat="47.42639" lon="6.8028">
        <ele>479</ele>
        <time>2015-08-23T09:01:51.000Z</time>
      </trkpt>
      <trkpt lat="47.42641" lon="6.80281">
        <ele>480</ele>
        <time>2015-08-23T09:01:52.000Z</time>
      </trkpt>
      <trkpt lat="47.42644" lon="6.80283">
        <ele>480</ele>
        <time>2015-08-23T09:01:53.000Z</time>
      </trkpt>
      <trkpt lat="47.42646" lon="6.80284">
        <ele>480</ele>
        <time>2015-08-23T09:01:54.000Z</time>
      </trkpt>
      <trkpt lat="47.42648" lon="6.80285">
        <ele>480</ele>
        <time>2015-08-23T09:01:55.000Z</time>
      </trkpt>
      <trkpt lat="47.4265" lon="6.80286">
        <ele>480</ele>
        <time>2015-08-23T09:01:56.000Z</time>
      </trkpt>
      <trkpt lat="47.42653" lon="6.80288">
        <ele>480</ele>
        <time>2015-08-23T09:01:57.000Z</time>
      </trkpt>
      <trkpt lat="47.42655" lon="6.80289">
        <ele>480</ele>
        <time>2015-08-23T09:01:58.000Z</time>
      </trkpt>
      <trkpt lat="47.42657" lon="6.80291">
        <ele>479</ele>
        <time>2015-08-23T09:01:59.000Z</time>
      </trkpt>
      <trkpt lat="47.42658" lon="6.80294">
        <ele>479</ele>
        <time>2015-08-23T09:02:00.000Z</time>
      </trkpt>
      <trkpt lat="47.42661" lon="6.80295">
        <ele>479</ele>
        <time>2015-08-23T09:02:01.000Z</time>
      </trkpt>
      <trkpt lat="47.42663" lon="6.80296">
        <ele>479</ele>
        <time>2015-08-23T09:02:02.000Z</time>
      </trkpt>
      <trkpt lat="47.42666" lon="6.80297">
        <ele>479</ele>
        <time>2015-08-23T09:02:03.000Z</time>
      </trkpt>
      <trkpt lat="47.42669" lon="6.80297">
        <ele>481</ele>
        <time>2015-08-23T09:02:04.000Z</time>
      </trkpt>
      <trkpt lat="47.42672" lon="6.80297">
        <ele>481</ele>
        <time>2015-08-23T09:02:04.998Z</time>
      </trkpt>
      <trkpt lat="47.42676" lon="6.80296">
        <ele>481</ele>
        <time>2015-08-23T09:02:06.000Z</time>
      </trkpt>
      <trkpt lat="47.4268" lon="6.80295">
        <ele>481</ele>
        <time>2015-08-23T09:02:07.000Z</time>
      </trkpt>
      <trkpt lat="47.42683" lon="6.80294">
        <ele>481</ele>
        <time>2015-08-23T09:02:08.000Z</time>
      </trkpt>
      <trkpt lat="47.42686" lon="6.80293">
        <ele>482</ele>
        <time>2015-08-23T09:02:09.000Z</time>
      </trkpt>
      <trkpt lat="47.4269" lon="6.80291">
        <ele>482</ele>
        <time>2015-08-23T09:02:10.000Z</time>
      </trkpt>
      <trkpt lat="47.42693" lon="6.80289">
        <ele>482</ele>
        <time>2015-08-23T09:02:11.000Z</time>
      </trkpt>
      <trkpt lat="47.42697" lon="6.80287">
        <ele>482</ele>
        <time>2015-08-23T09:02:12.000Z</time>
      </trkpt>
      <trkpt lat="47.427" lon="6.80285">
        <ele>482</ele>
        <time>2015-08-23T09:02:13.000Z</time>
      </trkpt>
      <trkpt lat="47.42703" lon="6.80283">
        <ele>482</ele>
        <time>2015-08-23T09:02:14.000Z</time>
      </trkpt>
      <trkpt lat="47.42706" lon="6.80281">
        <ele>482</ele>
        <time>2015-08-23T09:02:15.000Z</time>
      </trkpt>
      <trkpt lat="47.42709" lon="6.8028">
        <ele>482</ele>
        <time>2015-08-23T09:02:16.000Z</time>
      </trkpt>
      <trkpt lat="47.42712" lon="6.80279">
        <ele>482</ele>
        <time>2015-08-23T09:02:17.000Z</time>
      </trkpt>
      <trkpt lat="47.42715" lon="6.80278">
        <ele>482</ele>
        <time>2015-08-23T09:02:18.000Z</time>
      </trkpt>
      <trkpt lat="47.42718" lon="6.80277">
        <ele>482</ele>
        <time>2015-08-23T09:02:19.000Z</time>
      </trkpt>
      <trkpt lat="47.4272" lon="6.80276">
        <ele>482</ele>
        <time>2015-08-23T09:02:20.000Z</time>
      </trkpt>
      <trkpt lat="47.42722" lon="6.80275">
        <ele>482</ele>
        <time>2015-08-23T09:02:21.000Z</time>
      </trkpt>
      <trkpt lat="47.42725" lon="6.80273">
        <ele>482</ele>
        <time>2015-08-23T09:02:22.000Z</time>
      </trkpt>
      <trkpt lat="47.42727" lon="6.80271">
        <ele>482</ele>
        <time>2015-08-23T09:02:23.000Z</time>
      </trkpt>
      <trkpt lat="47.4273" lon="6.80268">
        <ele>483</ele>
        <time>2015-08-23T09:02:24.000Z</time>
      </trkpt>
      <trkpt lat="47.42732" lon="6.80266">
        <ele>483</ele>
        <time>2015-08-23T09:02:25.000Z</time>
      </trkpt>
      <trkpt lat="47.42735" lon="6.80263">
        <ele>483</ele>
        <time>2015-08-23T09:02:26.000Z</time>
      </trkpt>
      <trkpt lat="47.42738" lon="6.8026">
        <ele>483</ele>
        <time>2015-08-23T09:02:27.000Z</time>
      </trkpt>
      <trkpt lat="47.4274" lon="6.80255">
        <ele>483</ele>
        <time>2015-08-23T09:02:28.000Z</time>
      </trkpt>
      <trkpt lat="47.42743" lon="6.8025">
        <ele>484</ele>
        <time>2015-08-23T09:02:29.000Z</time>
      </trkpt>
      <trkpt lat="47.42745" lon="6.80243">
        <ele>484</ele>
        <time>2015-08-23T09:02:30.000Z</time>
      </trkpt>
      <trkpt lat="47.42747" lon="6.80238">
        <ele>484</ele>
        <time>2015-08-23T09:02:31.000Z</time>
      </trkpt>
      <trkpt lat="47.42749" lon="6.80232">
        <ele>484</ele>
        <time>2015-08-23T09:02:32.000Z</time>
      </trkpt>
      <trkpt lat="47.42751" lon="6.80228">
        <ele>481</ele>
        <time>2015-08-23T09:02:33.000Z</time>
      </trkpt>
      <trkpt lat="47.42752" lon="6.80223">
        <ele>481</ele>
        <time>2015-08-23T09:02:34.000Z</time>
      </trkpt>
      <trkpt lat="47.42753" lon="6.80218">
        <ele>480</ele>
        <time>2015-08-23T09:02:35.000Z</time>
      </trkpt>
      <trkpt lat="47.42754" lon="6.80213">
        <ele>480</ele>
        <time>2015-08-23T09:02:36.000Z</time>
      </trkpt>
      <trkpt lat="47.42754" lon="6.80208">
        <ele>480</ele>
        <time>2015-08-23T09:02:37.000Z</time>
      </trkpt>
      <trkpt lat="47.42754" lon="6.80204">
        <ele>480</ele>
        <time>2015-08-23T09:02:38.000Z</time>
      </trkpt>
      <trkpt lat="47.42754" lon="6.80199">
        <ele>480</ele>
        <time>2015-08-23T09:02:39.000Z</time>
      </trkpt>
      <trkpt lat="47.42754" lon="6.80195">
        <ele>480</ele>
        <time>2015-08-23T09:02:40.000Z</time>
      </trkpt>
      <trkpt lat="47.42755" lon="6.8019">
        <ele>481</ele>
        <time>2015-08-23T09:02:41.000Z</time>
      </trkpt>
      <trkpt lat="47.42757" lon="6.80185">
        <ele>481</ele>
        <time>2015-08-23T09:02:42.000Z</time>
      </trkpt>
      <trkpt lat="47.42759" lon="6.8018">
        <ele>481</ele>
        <time>2015-08-23T09:02:43.000Z</time>
      </trkpt>
      <trkpt lat="47.4276" lon="6.80176">
        <ele>481</ele>
        <time>2015-08-23T09:02:44.000Z</time>
      </trkpt>
      <trkpt lat="47.42762" lon="6.8017">
        <ele>482</ele>
        <time>2015-08-23T09:02:45.000Z</time>
      </trkpt>
      <trkpt lat="47.42763" lon="6.80163">
        <ele>482</ele>
        <time>2015-08-23T09:02:46.000Z</time>
      </trkpt>
      <trkpt lat="47.42764" lon="6.80157">
        <ele>482</ele>
        <time>2015-08-23T09:02:47.000Z</time>
      </trkpt>
      <trkpt lat="47.42765" lon="6.80149">
        <ele>481</ele>
        <time>2015-08-23T09:02:48.000Z</time>
      </trkpt>
      <trkpt lat="47.42765" lon="6.80143">
        <ele>481</ele>
        <time>2015-08-23T09:02:49.000Z</time>
      </trkpt>
      <trkpt lat="47.42765" lon="6.80137">
        <ele>481</ele>
        <time>2015-08-23T09:02:50.000Z</time>
      </trkpt>
      <trkpt lat="47.42765" lon="6.80131">
        <ele>481</ele>
        <time>2015-08-23T09:02:51.000Z</time>
      </trkpt>
      <trkpt lat="47.42765" lon="6.80126">
        <ele>481</ele>
        <time>2015-08-23T09:02:52.000Z</time>
      </trkpt>
      <trkpt lat="47.42766" lon="6.80122">
        <ele>481</ele>
        <time>2015-08-23T09:02:53.000Z</time>
      </trkpt>
      <trkpt lat="47.42767" lon="6.80117">
        <ele>481</ele>
        <time>2015-08-23T09:02:54.000Z</time>
      </trkpt>
      <trkpt lat="47.42768" lon="6.80113">
        <ele>482</ele>
        <time>2015-08-23T09:02:55.000Z</time>
      </trkpt>
      <trkpt lat="47.42769" lon="6.80109">
        <ele>482</ele>
        <time>2015-08-23T09:02:56.000Z</time>
      </trkpt>
      <trkpt lat="47.4277" lon="6.80104">
        <ele>482</ele>
        <time>2015-08-23T09:02:57.000Z</time>
      </trkpt>
      <trkpt lat="47.42771" lon="6.80099">
        <ele>482</ele>
        <time>2015-08-23T09:02:58.000Z</time>
      </trkpt>
      <trkpt lat="47.42771" lon="6.80093">
        <ele>483</ele>
        <time>2015-08-23T09:02:59.000Z</time>
      </trkpt>
      <trkpt lat="47.42772" lon="6.80087">
        <ele>483</ele>
        <time>2015-08-23T09:03:00.000Z</time>
      </trkpt>
      <trkpt lat="47.42773" lon="6.80081">
        <ele>484</ele>
        <time>2015-08-23T09:03:01.000Z</time>
      </trkpt>
      <trkpt lat="47.42774" lon="6.80075">
        <ele>484</ele>
        <time>2015-08-23T09:03:02.000Z</time>
      </trkpt>
      <trkpt lat="47.42774" lon="6.80069">
        <ele>483</ele>
        <time>2015-08-23T09:03:03.000Z</time>
      </trkpt>
      <trkpt lat="47.42774" lon="6.80063">
        <ele>483</ele>
        <time>2015-08-23T09:03:04.000Z</time>
      </trkpt>
      <trkpt lat="47.42775" lon="6.80057">
        <ele>483</ele>
        <time>2015-08-23T09:03:05.000Z</time>
      </trkpt>
      <trkpt lat="47.42775" lon="6.8005">
        <ele>483</ele>
        <time>2015-08-23T09:03:06.000Z</time>
      </trkpt>
      <trkpt lat="47.42776" lon="6.80044">
        <ele>483</ele>
        <time>2015-08-23T09:03:07.000Z</time>
      </trkpt>
      <trkpt lat="47.42777" lon="6.80039">
        <ele>483</ele>
        <time>2015-08-23T09:03:08.000Z</time>
      </trkpt>
      <trkpt lat="47.42777" lon="6.80034">
        <ele>483</ele>
        <time>2015-08-23T09:03:09.000Z</time>
      </trkpt>
      <trkpt lat="47.42778" lon="6.80032">
        <ele>483</ele>
        <time>2015-08-23T09:03:10.000Z</time>
      </trkpt>
      <trkpt lat="47.42778" lon="6.80025">
        <ele>483</ele>
        <time>2015-08-23T09:03:11.000Z</time>
      </trkpt>
      <trkpt lat="47.42778" lon="6.80018">
        <ele>483</ele>
        <time>2015-08-23T09:03:12.000Z</time>
      </trkpt>
      <trkpt lat="47.42778" lon="6.8001">
        <ele>483</ele>
        <time>2015-08-23T09:03:13.000Z</time>
      </trkpt>
      <trkpt lat="47.42778" lon="6.80004">
        <ele>484</ele>
        <time>2015-08-23T09:03:14.000Z</time>
      </trkpt>
      <trkpt lat="47.42778" lon="6.79997">
        <ele>485</ele>
        <time>2015-08-23T09:03:15.000Z</time>
      </trkpt>
      <trkpt lat="47.42778" lon="6.79991">
        <ele>485</ele>
        <time>2015-08-23T09:03:16.000Z</time>
      </trkpt>
      <trkpt lat="47.42777" lon="6.79985">
        <ele>485</ele>
        <time>2015-08-23T09:03:17.000Z</time>
      </trkpt>
      <trkpt lat="47.4278" lon="6.79982">
        <ele>484</ele>
        <time>2015-08-23T09:03:18.000Z</time>
      </trkpt>
      <trkpt lat="47.42781" lon="6.79977">
        <ele>484</ele>
        <time>2015-08-23T09:03:19.000Z</time>
      </trkpt>
      <trkpt lat="47.42782" lon="6.79972">
        <ele>484</ele>
        <time>2015-08-23T09:03:20.000Z</time>
      </trkpt>
      <trkpt lat="47.42783" lon="6.79968">
        <ele>484</ele>
        <time>2015-08-23T09:03:21.000Z</time>
      </trkpt>
      <trkpt lat="47.42785" lon="6.79964">
        <ele>484</ele>
        <time>2015-08-23T09:03:22.000Z</time>
      </trkpt>
      <trkpt lat="47.42786" lon="6.7996">
        <ele>484</ele>
        <time>2015-08-23T09:03:23.000Z</time>
      </trkpt>
      <trkpt lat="47.42787" lon="6.79957">
        <ele>484</ele>
        <time>2015-08-23T09:03:24.000Z</time>
      </trkpt>
      <trkpt lat="47.42787" lon="6.79952">
        <ele>484</ele>
        <time>2015-08-23T09:03:25.000Z</time>
      </trkpt>
      <trkpt lat="47.42787" lon="6.79947">
        <ele>484</ele>
        <time>2015-08-23T09:03:26.000Z</time>
      </trkpt>
      <trkpt lat="47.42783" lon="6.79936">
        <ele>485</ele>
        <time>2015-08-23T09:03:27.000Z</time>
      </trkpt>
      <trkpt lat="47.42782" lon="6.7993">
        <ele>485</ele>
        <time>2015-08-23T09:03:28.000Z</time>
      </trkpt>
      <trkpt lat="47.42783" lon="6.79922">
        <ele>485</ele>
        <time>2015-08-23T09:03:29.000Z</time>
      </trkpt>
      <trkpt lat="47.42784" lon="6.79915">
        <ele>487</ele>
        <time>2015-08-23T09:03:30.000Z</time>
      </trkpt>
      <trkpt lat="47.42784" lon="6.79909">
        <ele>487</ele>
        <time>2015-08-23T09:03:31.000Z</time>
      </trkpt>
      <trkpt lat="47.42784" lon="6.79903">
        <ele>487</ele>
        <time>2015-08-23T09:03:32.000Z</time>
      </trkpt>
      <trkpt lat="47.42784" lon="6.79897">
        <ele>487</ele>
        <time>2015-08-23T09:03:33.000Z</time>
      </trkpt>
      <trkpt lat="47.42784" lon="6.79891">
        <ele>487</ele>
        <time>2015-08-23T09:03:34.000Z</time>
      </trkpt>
      <trkpt lat="47.42785" lon="6.79886">
        <ele>487</ele>
        <time>2015-08-23T09:03:35.000Z</time>
      </trkpt>
      <trkpt lat="47.42783" lon="6.7988">
        <ele>487</ele>
        <time>2015-08-23T09:03:36.000Z</time>
      </trkpt>
      <trkpt lat="47.42784" lon="6.79875">
        <ele>487</ele>
        <time>2015-08-23T09:03:37.000Z</time>
      </trkpt>
      <trkpt lat="47.42785" lon="6.7987">
        <ele>487</ele>
        <time>2015-08-23T09:03:38.000Z</time>
      </trkpt>
      <trkpt lat="47.42786" lon="6.79867">
        <ele>487</ele>
        <time>2015-08-23T09:03:39.000Z</time>
      </trkpt>
      <trkpt lat="47.42788" lon="6.79864">
        <ele>487</ele>
        <time>2015-08-23T09:03:40.000Z</time>
      </trkpt>
      <trkpt lat="47.4279" lon="6.79862">
        <ele>487</ele>
        <time>2015-08-23T09:03:41.000Z</time>
      </trkpt>
      <trkpt lat="47.42792" lon="6.7986">
        <ele>487</ele>
        <time>2015-08-23T09:03:42.000Z</time>
      </trkpt>
      <trkpt lat="47.42794" lon="6.79857">
        <ele>487</ele>
        <time>2015-08-23T09:03:43.000Z</time>
      </trkpt>
      <trkpt lat="47.42796" lon="6.79855">
        <ele>487</ele>
        <time>2015-08-23T09:03:44.000Z</time>
      </trkpt>
      <trkpt lat="47.42797" lon="6.79852">
        <ele>487</ele>
        <time>2015-08-23T09:03:45.000Z</time>
      </trkpt>
      <trkpt lat="47.42799" lon="6.7985">
        <ele>487</ele>
        <time>2015-08-23T09:03:46.000Z</time>
      </trkpt>
      <trkpt lat="47.42801" lon="6.79846">
        <ele>487</ele>
        <time>2015-08-23T09:03:47.000Z</time>
      </trkpt>
      <trkpt lat="47.42803" lon="6.79842">
        <ele>487</ele>
        <time>2015-08-23T09:03:48.000Z</time>
      </trkpt>
      <trkpt lat="47.42806" lon="6.79837">
        <ele>487</ele>
        <time>2015-08-23T09:03:49.000Z</time>
      </trkpt>
      <trkpt lat="47.42808" lon="6.79834">
        <ele>487</ele>
        <time>2015-08-23T09:03:50.000Z</time>
      </trkpt>
      <trkpt lat="47.42809" lon="6.7983">
        <ele>488</ele>
        <time>2015-08-23T09:03:51.000Z</time>
      </trkpt>
      <trkpt lat="47.42811" lon="6.79827">
        <ele>488</ele>
        <time>2015-08-23T09:03:52.000Z</time>
      </trkpt>
      <trkpt lat="47.42812" lon="6.79824">
        <ele>488</ele>
        <time>2015-08-23T09:03:53.000Z</time>
      </trkpt>
      <trkpt lat="47.42814" lon="6.79821">
        <ele>488</ele>
        <time>2015-08-23T09:03:54.000Z</time>
      </trkpt>
      <trkpt lat="47.42815" lon="6.79818">
        <ele>488</ele>
        <time>2015-08-23T09:03:55.000Z</time>
      </trkpt>
      <trkpt lat="47.42815" lon="6.79814">
        <ele>488</ele>
        <time>2015-08-23T09:03:56.000Z</time>
      </trkpt>
      <trkpt lat="47.42814" lon="6.79808">
        <ele>488</ele>
        <time>2015-08-23T09:03:58.000Z</time>
      </trkpt>
      <trkpt lat="47.42812" lon="6.79807">
        <ele>488</ele>
        <time>2015-08-23T09:03:59.000Z</time>
      </trkpt>
      <trkpt lat="47.42809" lon="6.79806">
        <ele>488</ele>
        <time>2015-08-23T09:04:01.000Z</time>
      </trkpt>
      <trkpt lat="47.42807" lon="6.79805">
        <ele>488</ele>
        <time>2015-08-23T09:04:02.000Z</time>
      </trkpt>
      <trkpt lat="47.42804" lon="6.79803">
        <ele>489</ele>
        <time>2015-08-23T09:04:08.000Z</time>
      </trkpt>
      <trkpt lat="47.42803" lon="6.79802">
        <ele>489</ele>
        <time>2015-08-23T09:04:09.000Z</time>
      </trkpt>
      <trkpt lat="47.42806" lon="6.79799">
        <ele>489</ele>
        <time>2015-08-23T09:04:16.000Z</time>
      </trkpt>
      <trkpt lat="47.42807" lon="6.79799">
        <ele>489</ele>
        <time>2015-08-23T09:04:17.000Z</time>
      </trkpt>
      <trkpt lat="47.42803" lon="6.79798">
        <ele>489</ele>
        <time>2015-08-23T09:04:25.000Z</time>
      </trkpt>
      <trkpt lat="47.42802" lon="6.79799">
        <ele>489</ele>
        <time>2015-08-23T09:04:26.000Z</time>
      </trkpt>
      <trkpt lat="47.42798" lon="6.798">
        <ele>489</ele>
        <time>2015-08-23T09:04:38.000Z</time>
      </trkpt>
      <trkpt lat="47.42797" lon="6.798">
        <ele>489</ele>
        <time>2015-08-23T09:04:39.000Z</time>
      </trkpt>
      <trkpt lat="47.42794" lon="6.798">
        <ele>489</ele>
        <time>2015-08-23T09:04:41.000Z</time>
      </trkpt>
      <trkpt lat="47.42792" lon="6.798">
        <ele>489</ele>
        <time>2015-08-23T09:04:42.000Z</time>
      </trkpt>
      <trkpt lat="47.42789" lon="6.79802">
        <ele>489</ele>
        <time>2015-08-23T09:04:45.000Z</time>
      </trkpt>
      <trkpt lat="47.42787" lon="6.79802">
        <ele>489</ele>
        <time>2015-08-23T09:04:46.000Z</time>
      </trkpt>
      <trkpt lat="47.42784" lon="6.79802">
        <ele>490</ele>
        <time>2015-08-23T09:04:49.000Z</time>
      </trkpt>
      <trkpt lat="47.42783" lon="6.79802">
        <ele>490</ele>
        <time>2015-08-23T09:04:50.000Z</time>
      </trkpt>
      <trkpt lat="47.4278" lon="6.79805">
        <ele>490</ele>
        <time>2015-08-23T09:05:04.000Z</time>
      </trkpt>
      <trkpt lat="47.42778" lon="6.79805">
        <ele>490</ele>
        <time>2015-08-23T09:05:05.000Z</time>
      </trkpt>
      <trkpt lat="47.42776" lon="6.79806">
        <ele>490</ele>
        <time>2015-08-23T09:05:06.000Z</time>
      </trkpt>
      <trkpt lat="47.42773" lon="6.79806">
        <ele>490</ele>
        <time>2015-08-23T09:05:07.000Z</time>
      </trkpt>
      <trkpt lat="47.4277" lon="6.79807">
        <ele>490</ele>
        <time>2015-08-23T09:05:08.000Z</time>
      </trkpt>
      <trkpt lat="47.42767" lon="6.79808">
        <ele>490</ele>
        <time>2015-08-23T09:05:09.000Z</time>
      </trkpt>
      <trkpt lat="47.42764" lon="6.79808">
        <ele>491</ele>
        <time>2015-08-23T09:05:10.000Z</time>
      </trkpt>
      <trkpt lat="47.42761" lon="6.79809">
        <ele>491</ele>
        <time>2015-08-23T09:05:11.000Z</time>
      </trkpt>
      <trkpt lat="47.42759" lon="6.79809">
        <ele>491</ele>
        <time>2015-08-23T09:05:12.000Z</time>
      </trkpt>
      <trkpt lat="47.42756" lon="6.79809">
        <ele>491</ele>
        <time>2015-08-23T09:05:13.000Z</time>
      </trkpt>
      <trkpt lat="47.42752" lon="6.79808">
        <ele>491</ele>
        <time>2015-08-23T09:05:15.000Z</time>
      </trkpt>
      <trkpt lat="47.4275" lon="6.79807">
        <ele>494</ele>
        <time>2015-08-23T09:05:16.000Z</time>
      </trkpt>
      <trkpt lat="47.42747" lon="6.79807">
        <ele>494</ele>
        <time>2015-08-23T09:05:17.000Z</time>
      </trkpt>
      <trkpt lat="47.42745" lon="6.79806">
        <ele>494</ele>
        <time>2015-08-23T09:05:18.000Z</time>
      </trkpt>
      <trkpt lat="47.42742" lon="6.79806">
        <ele>494</ele>
        <time>2015-08-23T09:05:19.000Z</time>
      </trkpt>
      <trkpt lat="47.4274" lon="6.79806">
        <ele>494</ele>
        <time>2015-08-23T09:05:20.000Z</time>
      </trkpt>
      <trkpt lat="47.42737" lon="6.79806">
        <ele>494</ele>
        <time>2015-08-23T09:05:21.000Z</time>
      </trkpt>
      <trkpt lat="47.42735" lon="6.79806">
        <ele>494</ele>
        <time>2015-08-23T09:05:22.000Z</time>
      </trkpt>
      <trkpt lat="47.42731" lon="6.79806">
        <ele>495</ele>
        <time>2015-08-23T09:05:24.000Z</time>
      </trkpt>
      <trkpt lat="47.4273" lon="6.79806">
        <ele>495</ele>
        <time>2015-08-23T09:05:25.000Z</time>
      </trkpt>
      <trkpt lat="47.42726" lon="6.79807">
        <ele>495</ele>
        <time>2015-08-23T09:05:27.000Z</time>
      </trkpt>
      <trkpt lat="47.42723" lon="6.79808">
        <ele>495</ele>
        <time>2015-08-23T09:05:28.000Z</time>
      </trkpt>
      <trkpt lat="47.42719" lon="6.79807">
        <ele>495</ele>
        <time>2015-08-23T09:05:30.000Z</time>
      </trkpt>
      <trkpt lat="47.42717" lon="6.79806">
        <ele>495</ele>
        <time>2015-08-23T09:05:31.000Z</time>
      </trkpt>
      <trkpt lat="47.42714" lon="6.79805">
        <ele>495</ele>
        <time>2015-08-23T09:05:32.000Z</time>
      </trkpt>
      <trkpt lat="47.42712" lon="6.79805">
        <ele>495</ele>
        <time>2015-08-23T09:05:33.000Z</time>
      </trkpt>
      <trkpt lat="47.4271" lon="6.79806">
        <ele>495</ele>
        <time>2015-08-23T09:05:34.000Z</time>
      </trkpt>
      <trkpt lat="47.42708" lon="6.79808">
        <ele>495</ele>
        <time>2015-08-23T09:05:35.000Z</time>
      </trkpt>
      <trkpt lat="47.42704" lon="6.79812">
        <ele>495</ele>
        <time>2015-08-23T09:05:37.000Z</time>
      </trkpt>
      <trkpt lat="47.42702" lon="6.79812">
        <ele>496</ele>
        <time>2015-08-23T09:05:38.000Z</time>
      </trkpt>
      <trkpt lat="47.427" lon="6.79813">
        <ele>496</ele>
        <time>2015-08-23T09:05:39.000Z</time>
      </trkpt>
      <trkpt lat="47.42697" lon="6.79813">
        <ele>496</ele>
        <time>2015-08-23T09:05:40.000Z</time>
      </trkpt>
      <trkpt lat="47.42695" lon="6.79813">
        <ele>496</ele>
        <time>2015-08-23T09:05:41.000Z</time>
      </trkpt>
      <trkpt lat="47.42692" lon="6.79812">
        <ele>496</ele>
        <time>2015-08-23T09:05:42.000Z</time>
      </trkpt>
      <trkpt lat="47.42689" lon="6.79812">
        <ele>496</ele>
        <time>2015-08-23T09:05:43.000Z</time>
      </trkpt>
      <trkpt lat="47.42687" lon="6.79811">
        <ele>496</ele>
        <time>2015-08-23T09:05:44.000Z</time>
      </trkpt>
      <trkpt lat="47.42683" lon="6.79811">
        <ele>496</ele>
        <time>2015-08-23T09:05:46.000Z</time>
      </trkpt>
      <trkpt lat="47.42682" lon="6.79812">
        <ele>496</ele>
        <time>2015-08-23T09:05:47.000Z</time>
      </trkpt>
      <trkpt lat="47.42677" lon="6.79812">
        <ele>496</ele>
        <time>2015-08-23T09:05:50.000Z</time>
      </trkpt>
      <trkpt lat="47.42676" lon="6.79812">
        <ele>496</ele>
        <time>2015-08-23T09:05:51.000Z</time>
      </trkpt>
      <trkpt lat="47.42672" lon="6.79814">
        <ele>497</ele>
        <time>2015-08-23T09:05:53.000Z</time>
      </trkpt>
      <trkpt lat="47.42669" lon="6.79815">
        <ele>497</ele>
        <time>2015-08-23T09:05:54.000Z</time>
      </trkpt>
      <trkpt lat="47.42667" lon="6.79816">
        <ele>499</ele>
        <time>2015-08-23T09:05:55.000Z</time>
      </trkpt>
      <trkpt lat="47.42664" lon="6.79817">
        <ele>499</ele>
        <time>2015-08-23T09:05:56.000Z</time>
      </trkpt>
      <trkpt lat="47.42661" lon="6.79818">
        <ele>499</ele>
        <time>2015-08-23T09:05:57.000Z</time>
      </trkpt>
      <trkpt lat="47.42659" lon="6.7982">
        <ele>499</ele>
        <time>2015-08-23T09:05:58.000Z</time>
      </trkpt>
      <trkpt lat="47.42657" lon="6.79822">
        <ele>499</ele>
        <time>2015-08-23T09:05:59.000Z</time>
      </trkpt>
      <trkpt lat="47.42654" lon="6.79823">
        <ele>499</ele>
        <time>2015-08-23T09:06:00.000Z</time>
      </trkpt>
      <trkpt lat="47.42651" lon="6.79823">
        <ele>500</ele>
        <time>2015-08-23T09:06:02.000Z</time>
      </trkpt>
      <trkpt lat="47.42649" lon="6.79822">
        <ele>500</ele>
        <time>2015-08-23T09:06:03.000Z</time>
      </trkpt>
      <trkpt lat="47.42646" lon="6.79822">
        <ele>500</ele>
        <time>2015-08-23T09:06:05.000Z</time>
      </trkpt>
      <trkpt lat="47.42644" lon="6.79822">
        <ele>500</ele>
        <time>2015-08-23T09:06:06.000Z</time>
      </trkpt>
      <trkpt lat="47.42642" lon="6.79822">
        <ele>500</ele>
        <time>2015-08-23T09:06:07.000Z</time>
      </trkpt>
      <trkpt lat="47.42639" lon="6.79823">
        <ele>500</ele>
        <time>2015-08-23T09:06:08.000Z</time>
      </trkpt>
      <trkpt lat="47.42637" lon="6.79823">
        <ele>500</ele>
        <time>2015-08-23T09:06:09.000Z</time>
      </trkpt>
      <trkpt lat="47.42635" lon="6.79823">
        <ele>501</ele>
        <time>2015-08-23T09:06:10.000Z</time>
      </trkpt>
      <trkpt lat="47.42631" lon="6.79824">
        <ele>501</ele>
        <time>2015-08-23T09:06:12.000Z</time>
      </trkpt>
      <trkpt lat="47.42629" lon="6.79824">
        <ele>501</ele>
        <time>2015-08-23T09:06:13.000Z</time>
      </trkpt>
      <trkpt lat="47.42625" lon="6.79824">
        <ele>501</ele>
        <time>2015-08-23T09:06:15.000Z</time>
      </trkpt>
      <trkpt lat="47.42623" lon="6.79824">
        <ele>501</ele>
        <time>2015-08-23T09:06:16.000Z</time>
      </trkpt>
      <trkpt lat="47.42619" lon="6.79825">
        <ele>501</ele>
        <time>2015-08-23T09:06:18.000Z</time>
      </trkpt>
      <trkpt lat="47.42616" lon="6.79825">
        <ele>501</ele>
        <time>2015-08-23T09:06:19.000Z</time>
      </trkpt>
      <trkpt lat="47.42612" lon="6.79824">
        <ele>502</ele>
        <time>2015-08-23T09:06:21.000Z</time>
      </trkpt>
      <trkpt lat="47.4261" lon="6.79823">
        <ele>502</ele>
        <time>2015-08-23T09:06:22.000Z</time>
      </trkpt>
      <trkpt lat="47.42606" lon="6.79822">
        <ele>502</ele>
        <time>2015-08-23T09:06:24.000Z</time>
      </trkpt>
      <trkpt lat="47.42605" lon="6.79822">
        <ele>502</ele>
        <time>2015-08-23T09:06:25.000Z</time>
      </trkpt>
      <trkpt lat="47.42601" lon="6.7982">
        <ele>502</ele>
        <time>2015-08-23T09:06:27.000Z</time>
      </trkpt>
      <trkpt lat="47.42599" lon="6.7982">
        <ele>502</ele>
        <time>2015-08-23T09:06:28.000Z</time>
      </trkpt>
      <trkpt lat="47.42596" lon="6.7982">
        <ele>502</ele>
        <time>2015-08-23T09:06:29.000Z</time>
      </trkpt>
      <trkpt lat="47.42594" lon="6.7982">
        <ele>503</ele>
        <time>2015-08-23T09:06:30.000Z</time>
      </trkpt>
      <trkpt lat="47.4259" lon="6.79821">
        <ele>503</ele>
        <time>2015-08-23T09:06:32.000Z</time>
      </trkpt>
      <trkpt lat="47.42589" lon="6.79821">
        <ele>503</ele>
        <time>2015-08-23T09:06:33.000Z</time>
      </trkpt>
      <trkpt lat="47.42585" lon="6.79824">
        <ele>503</ele>
        <time>2015-08-23T09:06:37.000Z</time>
      </trkpt>
      <trkpt lat="47.42584" lon="6.79824">
        <ele>503</ele>
        <time>2015-08-23T09:06:38.000Z</time>
      </trkpt>
      <trkpt lat="47.4258" lon="6.79828">
        <ele>505</ele>
        <time>2015-08-23T09:06:41.000Z</time>
      </trkpt>
      <trkpt lat="47.42579" lon="6.79831">
        <ele>505</ele>
        <time>2015-08-23T09:06:42.000Z</time>
      </trkpt>
      <trkpt lat="47.42578" lon="6.79834">
        <ele>505</ele>
        <time>2015-08-23T09:06:43.000Z</time>
      </trkpt>
      <trkpt lat="47.42578" lon="6.79838">
        <ele>505</ele>
        <time>2015-08-23T09:06:44.000Z</time>
      </trkpt>
      <trkpt lat="47.42575" lon="6.79843">
        <ele>505</ele>
        <time>2015-08-23T09:06:46.000Z</time>
      </trkpt>
      <trkpt lat="47.42574" lon="6.79845">
        <ele>505</ele>
        <time>2015-08-23T09:06:47.000Z</time>
      </trkpt>
      <trkpt lat="47.42571" lon="6.79848">
        <ele>506</ele>
        <time>2015-08-23T09:07:03.000Z</time>
      </trkpt>
      <trkpt lat="47.4257" lon="6.79849">
        <ele>506</ele>
        <time>2015-08-23T09:07:04.000Z</time>
      </trkpt>
      <trkpt lat="47.42569" lon="6.79855">
        <ele>506</ele>
        <time>2015-08-23T09:07:28.000Z</time>
      </trkpt>
      <trkpt lat="47.4257" lon="6.79856">
        <ele>506</ele>
        <time>2015-08-23T09:07:29.000Z</time>
      </trkpt>
      <trkpt lat="47.42574" lon="6.79856">
        <ele>506</ele>
        <time>2015-08-23T09:07:30.000Z</time>
      </trkpt>
      <trkpt lat="47.42575" lon="6.79857">
        <ele>506</ele>
        <time>2015-08-23T09:07:31.000Z</time>
      </trkpt>
      <trkpt lat="47.42578" lon="6.79858">
        <ele>506</ele>
        <time>2015-08-23T09:07:32.000Z</time>
      </trkpt>
      <trkpt lat="47.42581" lon="6.79859">
        <ele>506</ele>
        <time>2015-08-23T09:07:33.000Z</time>
      </trkpt>
      <trkpt lat="47.42584" lon="6.79861">
        <ele>502</ele>
        <time>2015-08-23T09:07:34.000Z</time>
      </trkpt>
      <trkpt lat="47.42586" lon="6.79863">
        <ele>502</ele>
        <time>2015-08-23T09:07:35.000Z</time>
      </trkpt>
      <trkpt lat="47.42589" lon="6.79865">
        <ele>502</ele>
        <time>2015-08-23T09:07:36.000Z</time>
      </trkpt>
      <trkpt lat="47.42592" lon="6.79868">
        <ele>502</ele>
        <time>2015-08-23T09:07:37.000Z</time>
      </trkpt>
      <trkpt lat="47.42595" lon="6.7987">
        <ele>502</ele>
        <time>2015-08-23T09:07:38.000Z</time>
      </trkpt>
      <trkpt lat="47.42599" lon="6.79873">
        <ele>502</ele>
        <time>2015-08-23T09:07:39.000Z</time>
      </trkpt>
      <trkpt lat="47.42608" lon="6.79879">
        <ele>502</ele>
        <time>2015-08-23T09:07:40.000Z</time>
      </trkpt>
      <trkpt lat="47.42617" lon="6.79881">
        <ele>502</ele>
        <time>2015-08-23T09:07:41.000Z</time>
      </trkpt>
      <trkpt lat="47.42626" lon="6.7988">
        <ele>501</ele>
        <time>2015-08-23T09:07:42.000Z</time>
      </trkpt>
      <trkpt lat="47.42638" lon="6.79878">
        <ele>501</ele>
        <time>2015-08-23T09:07:43.000Z</time>
      </trkpt>
      <trkpt lat="47.42649" lon="6.79878">
        <ele>501</ele>
        <time>2015-08-23T09:07:44.000Z</time>
      </trkpt>
      <trkpt lat="47.42657" lon="6.79878">
        <ele>500</ele>
        <time>2015-08-23T09:07:45.000Z</time>
      </trkpt>
      <trkpt lat="47.42663" lon="6.79879">
        <ele>500</ele>
        <time>2015-08-23T09:07:46.000Z</time>
      </trkpt>
      <trkpt lat="47.42668" lon="6.7988">
        <ele>497</ele>
        <time>2015-08-23T09:07:47.000Z</time>
      </trkpt>
      <trkpt lat="47.42674" lon="6.79878">
        <ele>497</ele>
        <time>2015-08-23T09:07:48.000Z</time>
      </trkpt>
      <trkpt lat="47.42679" lon="6.79879">
        <ele>496</ele>
        <time>2015-08-23T09:07:49.000Z</time>
      </trkpt>
      <trkpt lat="47.42686" lon="6.7988">
        <ele>496</ele>
        <time>2015-08-23T09:07:50.000Z</time>
      </trkpt>
      <trkpt lat="47.42692" lon="6.79882">
        <ele>496</ele>
        <time>2015-08-23T09:07:51.000Z</time>
      </trkpt>
      <trkpt lat="47.42696" lon="6.79881">
        <ele>496</ele>
        <time>2015-08-23T09:07:52.000Z</time>
      </trkpt>
      <trkpt lat="47.427" lon="6.79875">
        <ele>496</ele>
        <time>2015-08-23T09:07:53.000Z</time>
      </trkpt>
      <trkpt lat="47.42703" lon="6.79874">
        <ele>496</ele>
        <time>2015-08-23T09:07:54.000Z</time>
      </trkpt>
      <trkpt lat="47.4271" lon="6.79869">
        <ele>495</ele>
        <time>2015-08-23T09:07:55.000Z</time>
      </trkpt>
      <trkpt lat="47.42714" lon="6.79864">
        <ele>495</ele>
        <time>2015-08-23T09:07:56.000Z</time>
      </trkpt>
      <trkpt lat="47.42719" lon="6.79859">
        <ele>495</ele>
        <time>2015-08-23T09:07:57.000Z</time>
      </trkpt>
      <trkpt lat="47.42725" lon="6.79863">
        <ele>495</ele>
        <time>2015-08-23T09:07:58.000Z</time>
      </trkpt>
      <trkpt lat="47.4273" lon="6.79862">
        <ele>495</ele>
        <time>2015-08-23T09:07:59.000Z</time>
      </trkpt>
      <trkpt lat="47.42736" lon="6.7986">
        <ele>495</ele>
        <time>2015-08-23T09:08:00.000Z</time>
      </trkpt>
      <trkpt lat="47.42742" lon="6.79859">
        <ele>494</ele>
        <time>2015-08-23T09:08:01.000Z</time>
      </trkpt>
      <trkpt lat="47.4275" lon="6.79857">
        <ele>494</ele>
        <time>2015-08-23T09:08:02.000Z</time>
      </trkpt>
      <trkpt lat="47.42756" lon="6.79857">
        <ele>489</ele>
        <time>2015-08-23T09:08:03.000Z</time>
      </trkpt>
      <trkpt lat="47.42763" lon="6.79857">
        <ele>489</ele>
        <time>2015-08-23T09:08:04.000Z</time>
      </trkpt>
      <trkpt lat="47.42769" lon="6.79857">
        <ele>489</ele>
        <time>2015-08-23T09:08:05.000Z</time>
      </trkpt>
      <trkpt lat="47.42775" lon="6.79858">
        <ele>488</ele>
        <time>2015-08-23T09:08:06.000Z</time>
      </trkpt>
      <trkpt lat="47.42786" lon="6.79852">
        <ele>488</ele>
        <time>2015-08-23T09:08:07.000Z</time>
      </trkpt>
      <trkpt lat="47.42789" lon="6.79849">
        <ele>488</ele>
        <time>2015-08-23T09:08:08.000Z</time>
      </trkpt>
      <trkpt lat="47.42794" lon="6.79842">
        <ele>487</ele>
        <time>2015-08-23T09:08:09.000Z</time>
      </trkpt>
      <trkpt lat="47.42797" lon="6.79837">
        <ele>487</ele>
        <time>2015-08-23T09:08:10.000Z</time>
      </trkpt>
      <trkpt lat="47.42799" lon="6.79834">
        <ele>487</ele>
        <time>2015-08-23T09:08:11.000Z</time>
      </trkpt>
      <trkpt lat="47.42802" lon="6.7983">
        <ele>488</ele>
        <time>2015-08-23T09:08:13.000Z</time>
      </trkpt>
      <trkpt lat="47.42805" lon="6.79828">
        <ele>488</ele>
        <time>2015-08-23T09:08:14.000Z</time>
      </trkpt>
      <trkpt lat="47.42807" lon="6.79825">
        <ele>488</ele>
        <time>2015-08-23T09:08:15.000Z</time>
      </trkpt>
      <trkpt lat="47.42809" lon="6.79823">
        <ele>488</ele>
        <time>2015-08-23T09:08:16.000Z</time>
      </trkpt>
      <trkpt lat="47.42812" lon="6.7982">
        <ele>488</ele>
        <time>2015-08-23T09:08:18.000Z</time>
      </trkpt>
      <trkpt lat="47.42813" lon="6.79819">
        <ele>488</ele>
        <time>2015-08-23T09:08:19.000Z</time>
      </trkpt>
      <trkpt lat="47.42816" lon="6.79815">
        <ele>488</ele>
        <time>2015-08-23T09:08:22.000Z</time>
      </trkpt>
      <trkpt lat="47.42818" lon="6.79814">
        <ele>488</ele>
        <time>2015-08-23T09:08:23.000Z</time>
      </trkpt>
      <trkpt lat="47.42821" lon="6.7981">
        <ele>488</ele>
        <time>2015-08-23T09:08:25.000Z</time>
      </trkpt>
      <trkpt lat="47.42823" lon="6.79809">
        <ele>488</ele>
        <time>2015-08-23T09:08:26.000Z</time>
      </trkpt>
      <trkpt lat="47.42826" lon="6.79806">
        <ele>488</ele>
        <time>2015-08-23T09:08:30.000Z</time>
      </trkpt>
      <trkpt lat="47.42827" lon="6.79805">
        <ele>488</ele>
        <time>2015-08-23T09:08:31.000Z</time>
      </trkpt>
      <trkpt lat="47.4283" lon="6.79802">
        <ele>488</ele>
        <time>2015-08-23T09:08:34.000Z</time>
      </trkpt>
      <trkpt lat="47.42831" lon="6.79801">
        <ele>488</ele>
        <time>2015-08-23T09:08:35.000Z</time>
      </trkpt>
      <trkpt lat="47.42835" lon="6.79799">
        <ele>487</ele>
        <time>2015-08-23T09:08:39.000Z</time>
      </trkpt>
      <trkpt lat="47.42836" lon="6.79798">
        <ele>487</ele>
        <time>2015-08-23T09:08:40.000Z</time>
      </trkpt>
      <trkpt lat="47.4284" lon="6.79799">
        <ele>487</ele>
        <time>2015-08-23T09:09:51.000Z</time>
      </trkpt>
      <trkpt lat="47.42841" lon="6.798">
        <ele>487</ele>
        <time>2015-08-23T09:09:52.000Z</time>
      </trkpt>
      <trkpt lat="47.42844" lon="6.79804">
        <ele>487</ele>
        <time>2015-08-23T09:09:55.000Z</time>
      </trkpt>
      <trkpt lat="47.42844" lon="6.79807">
        <ele>487</ele>
        <time>2015-08-23T09:09:56.000Z</time>
      </trkpt>
      <trkpt lat="47.42844" lon="6.7981">
        <ele>487</ele>
        <time>2015-08-23T09:09:57.000Z</time>
      </trkpt>
      <trkpt lat="47.42845" lon="6.79815">
        <ele>487</ele>
        <time>2015-08-23T09:09:58.000Z</time>
      </trkpt>
      <trkpt lat="47.42845" lon="6.79819">
        <ele>487</ele>
        <time>2015-08-23T09:09:59.000Z</time>
      </trkpt>
      <trkpt lat="47.42846" lon="6.79824">
        <ele>487</ele>
        <time>2015-08-23T09:10:00.000Z</time>
      </trkpt>
      <trkpt lat="47.42846" lon="6.79828">
        <ele>486</ele>
        <time>2015-08-23T09:10:01.000Z</time>
      </trkpt>
      <trkpt lat="47.42845" lon="6.79832">
        <ele>486</ele>
        <time>2015-08-23T09:10:02.000Z</time>
      </trkpt>
      <trkpt lat="47.42845" lon="6.79836">
        <ele>485</ele>
        <time>2015-08-23T09:10:03.000Z</time>
      </trkpt>
      <trkpt lat="47.42845" lon="6.7984">
        <ele>485</ele>
        <time>2015-08-23T09:10:04.000Z</time>
      </trkpt>
      <trkpt lat="47.42845" lon="6.79844">
        <ele>485</ele>
        <time>2015-08-23T09:10:05.000Z</time>
      </trkpt>
      <trkpt lat="47.42845" lon="6.79847">
        <ele>484</ele>
        <time>2015-08-23T09:10:06.000Z</time>
      </trkpt>
      <trkpt lat="47.42845" lon="6.79852">
        <ele>484</ele>
        <time>2015-08-23T09:10:08.000Z</time>
      </trkpt>
      <trkpt lat="47.42845" lon="6.79855">
        <ele>484</ele>
        <time>2015-08-23T09:10:09.000Z</time>
      </trkpt>
      <trkpt lat="47.42846" lon="6.79861">
        <ele>484</ele>
        <time>2015-08-23T09:10:11.000Z</time>
      </trkpt>
      <trkpt lat="47.42846" lon="6.79866">
        <ele>484</ele>
        <time>2015-08-23T09:10:12.000Z</time>
      </trkpt>
      <trkpt lat="47.42846" lon="6.79871">
        <ele>483</ele>
        <time>2015-08-23T09:10:13.000Z</time>
      </trkpt>
      <trkpt lat="47.42847" lon="6.79877">
        <ele>483</ele>
        <time>2015-08-23T09:10:14.000Z</time>
      </trkpt>
      <trkpt lat="47.42846" lon="6.79882">
        <ele>483</ele>
        <time>2015-08-23T09:10:53.000Z</time>
      </trkpt>
      <trkpt lat="47.42846" lon="6.79885">
        <ele>482</ele>
        <time>2015-08-23T09:10:54.000Z</time>
      </trkpt>
      <trkpt lat="47.42846" lon="6.79888">
        <ele>482</ele>
        <time>2015-08-23T09:10:55.000Z</time>
      </trkpt>
      <trkpt lat="47.42846" lon="6.79892">
        <ele>482</ele>
        <time>2015-08-23T09:10:56.000Z</time>
      </trkpt>
      <trkpt lat="47.42846" lon="6.79897">
        <ele>481</ele>
        <time>2015-08-23T09:10:57.000Z</time>
      </trkpt>
      <trkpt lat="47.42846" lon="6.79903">
        <ele>481</ele>
        <time>2015-08-23T09:10:58.000Z</time>
      </trkpt>
      <trkpt lat="47.42846" lon="6.79911">
        <ele>480</ele>
        <time>2015-08-23T09:10:59.000Z</time>
      </trkpt>
      <trkpt lat="47.42846" lon="6.79919">
        <ele>478</ele>
        <time>2015-08-23T09:11:00.000Z</time>
      </trkpt>
      <trkpt lat="47.42846" lon="6.79927">
        <ele>478</ele>
        <time>2015-08-23T09:11:01.000Z</time>
      </trkpt>
      <trkpt lat="47.42846" lon="6.79934">
        <ele>478</ele>
        <time>2015-08-23T09:11:02.000Z</time>
      </trkpt>
      <trkpt lat="47.42847" lon="6.79941">
        <ele>478</ele>
        <time>2015-08-23T09:11:03.000Z</time>
      </trkpt>
      <trkpt lat="47.42847" lon="6.79947">
        <ele>478</ele>
        <time>2015-08-23T09:11:04.000Z</time>
      </trkpt>
      <trkpt lat="47.42849" lon="6.79952">
        <ele>478</ele>
        <time>2015-08-23T09:11:05.000Z</time>
      </trkpt>
      <trkpt lat="47.4285" lon="6.79957">
        <ele>478</ele>
        <time>2015-08-23T09:11:06.000Z</time>
      </trkpt>
      <trkpt lat="47.42851" lon="6.79963">
        <ele>478</ele>
        <time>2015-08-23T09:11:07.000Z</time>
      </trkpt>
      <trkpt lat="47.42852" lon="6.79968">
        <ele>478</ele>
        <time>2015-08-23T09:11:08.000Z</time>
      </trkpt>
      <trkpt lat="47.42852" lon="6.79974">
        <ele>477</ele>
        <time>2015-08-23T09:11:09.000Z</time>
      </trkpt>
      <trkpt lat="47.42851" lon="6.79981">
        <ele>477</ele>
        <time>2015-08-23T09:11:10.000Z</time>
      </trkpt>
      <trkpt lat="47.4285" lon="6.79988">
        <ele>477</ele>
        <time>2015-08-23T09:11:11.000Z</time>
      </trkpt>
      <trkpt lat="47.42848" lon="6.79994">
        <ele>476</ele>
        <time>2015-08-23T09:11:12.000Z</time>
      </trkpt>
      <trkpt lat="47.42847" lon="6.80001">
        <ele>474</ele>
        <time>2015-08-23T09:11:13.000Z</time>
      </trkpt>
      <trkpt lat="47.42846" lon="6.80009">
        <ele>474</ele>
        <time>2015-08-23T09:11:14.000Z</time>
      </trkpt>
      <trkpt lat="47.42848" lon="6.80033">
        <ele>474</ele>
        <time>2015-08-23T09:11:15.000Z</time>
      </trkpt>
      <trkpt lat="47.42847" lon="6.80044">
        <ele>474</ele>
        <time>2015-08-23T09:11:16.000Z</time>
      </trkpt>
      <trkpt lat="47.42849" lon="6.80054">
        <ele>473</ele>
        <time>2015-08-23T09:11:17.000Z</time>
      </trkpt>
      <trkpt lat="47.4285" lon="6.80067">
        <ele>473</ele>
        <time>2015-08-23T09:11:18.000Z</time>
      </trkpt>
      <trkpt lat="47.4285" lon="6.80076">
        <ele>473</ele>
        <time>2015-08-23T09:11:19.000Z</time>
      </trkpt>
      <trkpt lat="47.42851" lon="6.80087">
        <ele>471</ele>
        <time>2015-08-23T09:11:20.000Z</time>
      </trkpt>
      <trkpt lat="47.42851" lon="6.80094">
        <ele>471</ele>
        <time>2015-08-23T09:11:21.000Z</time>
      </trkpt>
      <trkpt lat="47.42857" lon="6.80101">
        <ele>471</ele>
        <time>2015-08-23T09:11:22.000Z</time>
      </trkpt>
      <trkpt lat="47.42862" lon="6.80106">
        <ele>470</ele>
        <time>2015-08-23T09:11:23.000Z</time>
      </trkpt>
      <trkpt lat="47.42867" lon="6.8011">
        <ele>470</ele>
        <time>2015-08-23T09:11:24.000Z</time>
      </trkpt>
      <trkpt lat="47.42869" lon="6.80113">
        <ele>470</ele>
        <time>2015-08-23T09:11:25.000Z</time>
      </trkpt>
      <trkpt lat="47.42876" lon="6.80118">
        <ele>470</ele>
        <time>2015-08-23T09:11:26.000Z</time>
      </trkpt>
      <trkpt lat="47.4288" lon="6.8012">
        <ele>470</ele>
        <time>2015-08-23T09:11:27.000Z</time>
      </trkpt>
      <trkpt lat="47.42884" lon="6.8012">
        <ele>470</ele>
        <time>2015-08-23T09:11:32.000Z</time>
      </trkpt>
      <trkpt lat="47.42885" lon="6.8012">
        <ele>470</ele>
        <time>2015-08-23T09:11:33.000Z</time>
      </trkpt>
      <trkpt lat="47.42887" lon="6.80125">
        <ele>470</ele>
        <time>2015-08-23T09:11:47.000Z</time>
      </trkpt>
      <trkpt lat="47.42887" lon="6.80126">
        <ele>469</ele>
        <time>2015-08-23T09:11:48.000Z</time>
      </trkpt>
      <trkpt lat="47.42887" lon="6.80133">
        <ele>469</ele>
        <time>2015-08-23T09:11:50.000Z</time>
      </trkpt>
      <trkpt lat="47.42889" lon="6.80154">
        <ele>469</ele>
        <time>2015-08-23T09:11:51.000Z</time>
      </trkpt>
      <trkpt lat="47.4289" lon="6.8016">
        <ele>469</ele>
        <time>2015-08-23T09:11:52.000Z</time>
      </trkpt>
      <trkpt lat="47.42889" lon="6.80164">
        <ele>469</ele>
        <time>2015-08-23T09:11:53.000Z</time>
      </trkpt>
      <trkpt lat="47.42889" lon="6.80171">
        <ele>468</ele>
        <time>2015-08-23T09:11:54.000Z</time>
      </trkpt>
      <trkpt lat="47.42888" lon="6.80177">
        <ele>468</ele>
        <time>2015-08-23T09:11:55.000Z</time>
      </trkpt>
      <trkpt lat="47.42886" lon="6.80183">
        <ele>468</ele>
        <time>2015-08-23T09:11:56.000Z</time>
      </trkpt>
      <trkpt lat="47.42883" lon="6.80192">
        <ele>468</ele>
        <time>2015-08-23T09:11:57.000Z</time>
      </trkpt>
      <trkpt lat="47.42882" lon="6.802">
        <ele>468</ele>
        <time>2015-08-23T09:11:58.000Z</time>
      </trkpt>
      <trkpt lat="47.42881" lon="6.80205">
        <ele>468</ele>
        <time>2015-08-23T09:11:59.000Z</time>
      </trkpt>
      <trkpt lat="47.42882" lon="6.80214">
        <ele>468</ele>
        <time>2015-08-23T09:12:00.000Z</time>
      </trkpt>
      <trkpt lat="47.42882" lon="6.80218">
        <ele>468</ele>
        <time>2015-08-23T09:12:01.000Z</time>
      </trkpt>
      <trkpt lat="47.42882" lon="6.80222">
        <ele>468</ele>
        <time>2015-08-23T09:12:02.000Z</time>
      </trkpt>
      <trkpt lat="47.42882" lon="6.80229">
        <ele>468</ele>
        <time>2015-08-23T09:12:04.000Z</time>
      </trkpt>
      <trkpt lat="47.42883" lon="6.80232">
        <ele>468</ele>
        <time>2015-08-23T09:12:05.000Z</time>
      </trkpt>
      <trkpt lat="47.42883" lon="6.80235">
        <ele>468</ele>
        <time>2015-08-23T09:12:06.000Z</time>
      </trkpt>
      <trkpt lat="47.42884" lon="6.8024">
        <ele>467</ele>
        <time>2015-08-23T09:12:07.000Z</time>
      </trkpt>
      <trkpt lat="47.42885" lon="6.80245">
        <ele>467</ele>
        <time>2015-08-23T09:12:08.000Z</time>
      </trkpt>
      <trkpt lat="47.42886" lon="6.80251">
        <ele>465</ele>
        <time>2015-08-23T09:12:09.000Z</time>
      </trkpt>
      <trkpt lat="47.42887" lon="6.80258">
        <ele>465</ele>
        <time>2015-08-23T09:12:10.000Z</time>
      </trkpt>
      <trkpt lat="47.42887" lon="6.80266">
        <ele>465</ele>
        <time>2015-08-23T09:12:11.000Z</time>
      </trkpt>
      <trkpt lat="47.42888" lon="6.80273">
        <ele>464</ele>
        <time>2015-08-23T09:12:12.000Z</time>
      </trkpt>
      <trkpt lat="47.42888" lon="6.80279">
        <ele>464</ele>
        <time>2015-08-23T09:12:13.000Z</time>
      </trkpt>
      <trkpt lat="47.42888" lon="6.80285">
        <ele>464</ele>
        <time>2015-08-23T09:12:14.000Z</time>
      </trkpt>
      <trkpt lat="47.42888" lon="6.80291">
        <ele>464</ele>
        <time>2015-08-23T09:12:15.000Z</time>
      </trkpt>
      <trkpt lat="47.42887" lon="6.80296">
        <ele>464</ele>
        <time>2015-08-23T09:12:16.000Z</time>
      </trkpt>
      <trkpt lat="47.42886" lon="6.80302">
        <ele>463</ele>
        <time>2015-08-23T09:12:17.000Z</time>
      </trkpt>
      <trkpt lat="47.42884" lon="6.80308">
        <ele>463</ele>
        <time>2015-08-23T09:12:18.000Z</time>
      </trkpt>
      <trkpt lat="47.42883" lon="6.80315">
        <ele>463</ele>
        <time>2015-08-23T09:12:19.000Z</time>
      </trkpt>
      <trkpt lat="47.42882" lon="6.80321">
        <ele>463</ele>
        <time>2015-08-23T09:12:20.000Z</time>
      </trkpt>
      <trkpt lat="47.42882" lon="6.80327">
        <ele>463</ele>
        <time>2015-08-23T09:12:21.000Z</time>
      </trkpt>
      <trkpt lat="47.42881" lon="6.80333">
        <ele>462</ele>
        <time>2015-08-23T09:12:22.000Z</time>
      </trkpt>
      <trkpt lat="47.42881" lon="6.80337">
        <ele>459</ele>
        <time>2015-08-23T09:12:23.000Z</time>
      </trkpt>
      <trkpt lat="47.42881" lon="6.80342">
        <ele>459</ele>
        <time>2015-08-23T09:12:24.000Z</time>
      </trkpt>
      <trkpt lat="47.42882" lon="6.80346">
        <ele>458</ele>
        <time>2015-08-23T09:12:25.000Z</time>
      </trkpt>
      <trkpt lat="47.42882" lon="6.80351">
        <ele>458</ele>
        <time>2015-08-23T09:12:26.000Z</time>
      </trkpt>
      <trkpt lat="47.42882" lon="6.80354">
        <ele>458</ele>
        <time>2015-08-23T09:12:27.000Z</time>
      </trkpt>
      <trkpt lat="47.42883" lon="6.80358">
        <ele>458</ele>
        <time>2015-08-23T09:12:28.000Z</time>
      </trkpt>
      <trkpt lat="47.42885" lon="6.80363">
        <ele>458</ele>
        <time>2015-08-23T09:12:30.000Z</time>
      </trkpt>
      <trkpt lat="47.42886" lon="6.80365">
        <ele>458</ele>
        <time>2015-08-23T09:12:31.000Z</time>
      </trkpt>
      <trkpt lat="47.42889" lon="6.80368">
        <ele>458</ele>
        <time>2015-08-23T09:12:36.000Z</time>
      </trkpt>
      <trkpt lat="47.4289" lon="6.80368">
        <ele>457</ele>
        <time>2015-08-23T09:12:37.000Z</time>
      </trkpt>
      <trkpt lat="47.42887" lon="6.80374">
        <ele>457</ele>
        <time>2015-08-23T09:12:52.000Z</time>
      </trkpt>
      <trkpt lat="47.42887" lon="6.80374">
        <ele>457</ele>
        <time>2015-08-23T09:12:53.000Z</time>
      </trkpt>
      <trkpt lat="47.42891" lon="6.80375">
        <ele>457</ele>
        <time>2015-08-23T09:14:00.000Z</time>
      </trkpt>
      <trkpt lat="47.42892" lon="6.80375">
        <ele>457</ele>
        <time>2015-08-23T09:14:01.000Z</time>
      </trkpt>
      <trkpt lat="47.42896" lon="6.80375">
        <ele>457</ele>
        <time>2015-08-23T09:14:05.000Z</time>
      </trkpt>
      <trkpt lat="47.42897" lon="6.80374">
        <ele>457</ele>
        <time>2015-08-23T09:14:06.000Z</time>
      </trkpt>
      <trkpt lat="47.42901" lon="6.80374">
        <ele>457</ele>
        <time>2015-08-23T09:15:21.000Z</time>
      </trkpt>
      <trkpt lat="47.42902" lon="6.80374">
        <ele>457</ele>
        <time>2015-08-23T09:15:22.000Z</time>
      </trkpt>
      <trkpt lat="47.42899" lon="6.8038">
        <ele>457</ele>
        <time>2015-08-23T09:17:06.000Z</time>
      </trkpt>
      <trkpt lat="47.42897" lon="6.80382">
        <ele>457</ele>
        <time>2015-08-23T09:17:07.000Z</time>
      </trkpt>
      <trkpt lat="47.42895" lon="6.80386">
        <ele>456</ele>
        <time>2015-08-23T09:17:08.000Z</time>
      </trkpt>
      <trkpt lat="47.42894" lon="6.80391">
        <ele>456</ele>
        <time>2015-08-23T09:17:09.000Z</time>
      </trkpt>
      <trkpt lat="47.42892" lon="6.80397">
        <ele>456</ele>
        <time>2015-08-23T09:17:10.000Z</time>
      </trkpt>
      <trkpt lat="47.42892" lon="6.80405">
        <ele>456</ele>
        <time>2015-08-23T09:17:11.000Z</time>
      </trkpt>
      <trkpt lat="47.42892" lon="6.80412">
        <ele>455</ele>
        <time>2015-08-23T09:17:12.000Z</time>
      </trkpt>
      <trkpt lat="47.42892" lon="6.80418">
        <ele>452</ele>
        <time>2015-08-23T09:17:13.000Z</time>
      </trkpt>
      <trkpt lat="47.42893" lon="6.80424">
        <ele>452</ele>
        <time>2015-08-23T09:17:14.000Z</time>
      </trkpt>
      <trkpt lat="47.42893" lon="6.80429">
        <ele>452</ele>
        <time>2015-08-23T09:17:15.000Z</time>
      </trkpt>
      <trkpt lat="47.42892" lon="6.80435">
        <ele>452</ele>
        <time>2015-08-23T09:17:16.000Z</time>
      </trkpt>
      <trkpt lat="47.42892" lon="6.8044">
        <ele>452</ele>
        <time>2015-08-23T09:17:17.000Z</time>
      </trkpt>
      <trkpt lat="47.42891" lon="6.80445">
        <ele>452</ele>
        <time>2015-08-23T09:17:18.000Z</time>
      </trkpt>
      <trkpt lat="47.4289" lon="6.8045">
        <ele>452</ele>
        <time>2015-08-23T09:17:19.000Z</time>
      </trkpt>
      <trkpt lat="47.42889" lon="6.80456">
        <ele>452</ele>
        <time>2015-08-23T09:17:20.000Z</time>
      </trkpt>
      <trkpt lat="47.42887" lon="6.80462">
        <ele>452</ele>
        <time>2015-08-23T09:17:21.000Z</time>
      </trkpt>
      <trkpt lat="47.42886" lon="6.80468">
        <ele>451</ele>
        <time>2015-08-23T09:17:22.000Z</time>
      </trkpt>
      <trkpt lat="47.42885" lon="6.80473">
        <ele>451</ele>
        <time>2015-08-23T09:17:23.000Z</time>
      </trkpt>
      <trkpt lat="47.42883" lon="6.80475">
        <ele>451</ele>
        <time>2015-08-23T09:17:24.000Z</time>
      </trkpt>
      <trkpt lat="47.4288" lon="6.80476">
        <ele>452</ele>
        <time>2015-08-23T09:17:25.000Z</time>
      </trkpt>
      <trkpt lat="47.42876" lon="6.80477">
        <ele>452</ele>
        <time>2015-08-23T09:17:26.000Z</time>
      </trkpt>
      <trkpt lat="47.42873" lon="6.80478">
        <ele>452</ele>
        <time>2015-08-23T09:17:27.000Z</time>
      </trkpt>
      <trkpt lat="47.42871" lon="6.80481">
        <ele>452</ele>
        <time>2015-08-23T09:17:28.000Z</time>
      </trkpt>
      <trkpt lat="47.42869" lon="6.80484">
        <ele>452</ele>
        <time>2015-08-23T09:17:29.000Z</time>
      </trkpt>
      <trkpt lat="47.42869" lon="6.80489">
        <ele>452</ele>
        <time>2015-08-23T09:17:30.000Z</time>
      </trkpt>
      <trkpt lat="47.42871" lon="6.80495">
        <ele>452</ele>
        <time>2015-08-23T09:17:31.000Z</time>
      </trkpt>
      <trkpt lat="47.42874" lon="6.80501">
        <ele>446</ele>
        <time>2015-08-23T09:17:32.000Z</time>
      </trkpt>
      <trkpt lat="47.42876" lon="6.80507">
        <ele>446</ele>
        <time>2015-08-23T09:17:33.000Z</time>
      </trkpt>
      <trkpt lat="47.42878" lon="6.80512">
        <ele>446</ele>
        <time>2015-08-23T09:17:34.000Z</time>
      </trkpt>
      <trkpt lat="47.42879" lon="6.80515">
        <ele>445</ele>
        <time>2015-08-23T09:17:35.000Z</time>
      </trkpt>
      <trkpt lat="47.42881" lon="6.80521">
        <ele>445</ele>
        <time>2015-08-23T09:17:38.000Z</time>
      </trkpt>
      <trkpt lat="47.4288" lon="6.80524">
        <ele>445</ele>
        <time>2015-08-23T09:17:39.000Z</time>
      </trkpt>
      <trkpt lat="47.42879" lon="6.8053">
        <ele>445</ele>
        <time>2015-08-23T09:17:41.000Z</time>
      </trkpt>
      <trkpt lat="47.42878" lon="6.80533">
        <ele>444</ele>
        <time>2015-08-23T09:17:42.000Z</time>
      </trkpt>
      <trkpt lat="47.42877" lon="6.80538">
        <ele>444</ele>
        <time>2015-08-23T09:17:44.000Z</time>
      </trkpt>
      <trkpt lat="47.42877" lon="6.80541">
        <ele>444</ele>
        <time>2015-08-23T09:17:45.000Z</time>
      </trkpt>
      <trkpt lat="47.4288" lon="6.80546">
        <ele>444</ele>
        <time>2015-08-23T09:17:46.000Z</time>
      </trkpt>
      <trkpt lat="47.42883" lon="6.80551">
        <ele>443</ele>
        <time>2015-08-23T09:17:48.000Z</time>
      </trkpt>
      <trkpt lat="47.42883" lon="6.80551">
        <ele>443</ele>
        <time>2015-08-23T09:17:49.000Z</time>
      </trkpt>
      <trkpt lat="47.42888" lon="6.8055">
        <ele>443</ele>
        <time>2015-08-23T09:17:55.000Z</time>
      </trkpt>
      <trkpt lat="47.42888" lon="6.80549">
        <ele>443</ele>
        <time>2015-08-23T09:17:56.000Z</time>
      </trkpt>
      <trkpt lat="47.42892" lon="6.80547">
        <ele>443</ele>
        <time>2015-08-23T09:18:00.000Z</time>
      </trkpt>
      <trkpt lat="47.42893" lon="6.80546">
        <ele>443</ele>
        <time>2015-08-23T09:18:01.000Z</time>
      </trkpt>
      <trkpt lat="47.42892" lon="6.80549">
        <ele>443</ele>
        <time>2015-08-23T09:18:11.000Z</time>
      </trkpt>
      <trkpt lat="47.4289" lon="6.80553">
        <ele>443</ele>
        <time>2015-08-23T09:18:12.000Z</time>
      </trkpt>
      <trkpt lat="47.42889" lon="6.80556">
        <ele>443</ele>
        <time>2015-08-23T09:18:13.000Z</time>
      </trkpt>
      <trkpt lat="47.42887" lon="6.8056">
        <ele>442</ele>
        <time>2015-08-23T09:18:14.000Z</time>
      </trkpt>
      <trkpt lat="47.42886" lon="6.80564">
        <ele>442</ele>
        <time>2015-08-23T09:18:15.000Z</time>
      </trkpt>
      <trkpt lat="47.42884" lon="6.80568">
        <ele>442</ele>
        <time>2015-08-23T09:18:16.000Z</time>
      </trkpt>
      <trkpt lat="47.42883" lon="6.80574">
        <ele>442</ele>
        <time>2015-08-23T09:18:17.000Z</time>
      </trkpt>
      <trkpt lat="47.42883" lon="6.8058">
        <ele>442</ele>
        <time>2015-08-23T09:18:18.000Z</time>
      </trkpt>
      <trkpt lat="47.42884" lon="6.80586">
        <ele>436</ele>
        <time>2015-08-23T09:18:19.000Z</time>
      </trkpt>
      <trkpt lat="47.42885" lon="6.80591">
        <ele>436</ele>
        <time>2015-08-23T09:18:20.000Z</time>
      </trkpt>
      <trkpt lat="47.42886" lon="6.80596">
        <ele>435</ele>
        <time>2015-08-23T09:18:21.000Z</time>
      </trkpt>
      <trkpt lat="47.42888" lon="6.80601">
        <ele>435</ele>
        <time>2015-08-23T09:18:22.000Z</time>
      </trkpt>
      <trkpt lat="47.42889" lon="6.80606">
        <ele>435</ele>
        <time>2015-08-23T09:18:23.000Z</time>
      </trkpt>
      <trkpt lat="47.42889" lon="6.80611">
        <ele>435</ele>
        <time>2015-08-23T09:18:24.000Z</time>
      </trkpt>
      <trkpt lat="47.4289" lon="6.80616">
        <ele>434</ele>
        <time>2015-08-23T09:18:25.000Z</time>
      </trkpt>
      <trkpt lat="47.4289" lon="6.80621">
        <ele>434</ele>
        <time>2015-08-23T09:18:26.000Z</time>
      </trkpt>
      <trkpt lat="47.42891" lon="6.80626">
        <ele>434</ele>
        <time>2015-08-23T09:18:27.000Z</time>
      </trkpt>
      <trkpt lat="47.42891" lon="6.80632">
        <ele>434</ele>
        <time>2015-08-23T09:18:28.000Z</time>
      </trkpt>
      <trkpt lat="47.42892" lon="6.80638">
        <ele>433</ele>
        <time>2015-08-23T09:18:29.000Z</time>
      </trkpt>
      <trkpt lat="47.42892" lon="6.80644">
        <ele>433</ele>
        <time>2015-08-23T09:18:30.000Z</time>
      </trkpt>
      <trkpt lat="47.42893" lon="6.8065">
        <ele>433</ele>
        <time>2015-08-23T09:18:31.000Z</time>
      </trkpt>
      <trkpt lat="47.42894" lon="6.80657">
        <ele>432</ele>
        <time>2015-08-23T09:18:32.000Z</time>
      </trkpt>
      <trkpt lat="47.42896" lon="6.80664">
        <ele>432</ele>
        <time>2015-08-23T09:18:33.000Z</time>
      </trkpt>
      <trkpt lat="47.42897" lon="6.80671">
        <ele>430</ele>
        <time>2015-08-23T09:18:34.000Z</time>
      </trkpt>
      <trkpt lat="47.429" lon="6.80678">
        <ele>430</ele>
        <time>2015-08-23T09:18:35.000Z</time>
      </trkpt>
      <trkpt lat="47.42909" lon="6.80692">
        <ele>430</ele>
        <time>2015-08-23T09:18:36.000Z</time>
      </trkpt>
      <trkpt lat="47.42911" lon="6.80699">
        <ele>430</ele>
        <time>2015-08-23T09:18:37.000Z</time>
      </trkpt>
      <trkpt lat="47.42912" lon="6.80722">
        <ele>429</ele>
        <time>2015-08-23T09:18:38.000Z</time>
      </trkpt>
      <trkpt lat="47.42914" lon="6.80732">
        <ele>428</ele>
        <time>2015-08-23T09:18:39.000Z</time>
      </trkpt>
      <trkpt lat="47.42918" lon="6.80738">
        <ele>427</ele>
        <time>2015-08-23T09:18:40.000Z</time>
      </trkpt>
      <trkpt lat="47.42923" lon="6.80746">
        <ele>426</ele>
        <time>2015-08-23T09:18:41.000Z</time>
      </trkpt>
      <trkpt lat="47.42925" lon="6.80753">
        <ele>425</ele>
        <time>2015-08-23T09:18:42.000Z</time>
      </trkpt>
      <trkpt lat="47.42928" lon="6.80758">
        <ele>426</ele>
        <time>2015-08-23T09:18:43.000Z</time>
      </trkpt>
      <trkpt lat="47.42931" lon="6.80765">
        <ele>426</ele>
        <time>2015-08-23T09:18:44.000Z</time>
      </trkpt>
      <trkpt lat="47.42933" lon="6.80771">
        <ele>427</ele>
        <time>2015-08-23T09:18:45.000Z</time>
      </trkpt>
      <trkpt lat="47.42937" lon="6.80777">
        <ele>427</ele>
        <time>2015-08-23T09:18:46.000Z</time>
      </trkpt>
      <trkpt lat="47.42938" lon="6.80783">
        <ele>427</ele>
        <time>2015-08-23T09:18:47.000Z</time>
      </trkpt>
      <trkpt lat="47.42942" lon="6.80787">
        <ele>427</ele>
        <time>2015-08-23T09:18:48.000Z</time>
      </trkpt>
      <trkpt lat="47.42946" lon="6.80793">
        <ele>427</ele>
        <time>2015-08-23T09:18:49.000Z</time>
      </trkpt>
      <trkpt lat="47.42952" lon="6.80797">
        <ele>427</ele>
        <time>2015-08-23T09:18:50.000Z</time>
      </trkpt>
      <trkpt lat="47.42959" lon="6.80803">
        <ele>427</ele>
        <time>2015-08-23T09:18:51.000Z</time>
      </trkpt>
      <trkpt lat="47.42962" lon="6.80807">
        <ele>427</ele>
        <time>2015-08-23T09:18:52.000Z</time>
      </trkpt>
      <trkpt lat="47.42965" lon="6.80812">
        <ele>427</ele>
        <time>2015-08-23T09:18:53.000Z</time>
      </trkpt>
      <trkpt lat="47.42968" lon="6.80816">
        <ele>427</ele>
        <time>2015-08-23T09:18:54.000Z</time>
      </trkpt>
      <trkpt lat="47.42971" lon="6.8082">
        <ele>426</ele>
        <time>2015-08-23T09:18:55.000Z</time>
      </trkpt>
      <trkpt lat="47.42974" lon="6.80824">
        <ele>426</ele>
        <time>2015-08-23T09:18:56.000Z</time>
      </trkpt>
      <trkpt lat="47.42977" lon="6.80829">
        <ele>426</ele>
        <time>2015-08-23T09:18:57.000Z</time>
      </trkpt>
      <trkpt lat="47.4298" lon="6.80834">
        <ele>425</ele>
        <time>2015-08-23T09:18:58.000Z</time>
      </trkpt>
      <trkpt lat="47.42983" lon="6.80839">
        <ele>425</ele>
        <time>2015-08-23T09:18:59.000Z</time>
      </trkpt>
      <trkpt lat="47.42985" lon="6.80843">
        <ele>425</ele>
        <time>2015-08-23T09:19:00.000Z</time>
      </trkpt>
      <trkpt lat="47.42986" lon="6.80848">
        <ele>425</ele>
        <time>2015-08-23T09:19:01.000Z</time>
      </trkpt>
      <trkpt lat="47.42984" lon="6.80852">
        <ele>426</ele>
        <time>2015-08-23T09:19:09.000Z</time>
      </trkpt>
      <trkpt lat="47.42982" lon="6.80853">
        <ele>426</ele>
        <time>2015-08-23T09:19:10.000Z</time>
      </trkpt>
      <trkpt lat="47.42981" lon="6.80855">
        <ele>426</ele>
        <time>2015-08-23T09:19:12.000Z</time>
      </trkpt>
      <trkpt lat="47.42978" lon="6.80857">
        <ele>426</ele>
        <time>2015-08-23T09:19:13.000Z</time>
      </trkpt>
      <trkpt lat="47.42976" lon="6.80859">
        <ele>427</ele>
        <time>2015-08-23T09:19:14.000Z</time>
      </trkpt>
      <trkpt lat="47.42973" lon="6.80861">
        <ele>427</ele>
        <time>2015-08-23T09:19:15.000Z</time>
      </trkpt>
      <trkpt lat="47.42973" lon="6.80854">
        <ele>427</ele>
        <time>2015-08-23T09:19:23.000Z</time>
      </trkpt>
      <trkpt lat="47.42973" lon="6.80853">
        <ele>427</ele>
        <time>2015-08-23T09:19:24.000Z</time>
      </trkpt>
      <trkpt lat="47.4297" lon="6.80848">
        <ele>427</ele>
        <time>2015-08-23T09:19:29.000Z</time>
      </trkpt>
      <trkpt lat="47.4297" lon="6.80847">
        <ele>427</ele>
        <time>2015-08-23T09:19:30.000Z</time>
      </trkpt>
      <trkpt lat="47.42969" lon="6.80842">
        <ele>427</ele>
        <time>2015-08-23T09:19:35.000Z</time>
      </trkpt>
      <trkpt lat="47.42968" lon="6.80841">
        <ele>427</ele>
        <time>2015-08-23T09:19:36.000Z</time>
      </trkpt>
      <trkpt lat="47.42966" lon="6.80835">
        <ele>427</ele>
        <time>2015-08-23T09:19:40.000Z</time>
      </trkpt>
      <trkpt lat="47.42965" lon="6.80834">
        <ele>427</ele>
        <time>2015-08-23T09:19:41.000Z</time>
      </trkpt>
      <trkpt lat="47.42962" lon="6.80829">
        <ele>427</ele>
        <time>2015-08-23T09:19:43.000Z</time>
      </trkpt>
      <trkpt lat="47.42962" lon="6.80827">
        <ele>427</ele>
        <time>2015-08-23T09:19:44.000Z</time>
      </trkpt>
      <trkpt lat="47.4296" lon="6.80821">
        <ele>427</ele>
        <time>2015-08-23T09:19:47.000Z</time>
      </trkpt>
      <trkpt lat="47.4296" lon="6.80819">
        <ele>427</ele>
        <time>2015-08-23T09:19:48.000Z</time>
      </trkpt>
      <trkpt lat="47.42957" lon="6.80814">
        <ele>427</ele>
        <time>2015-08-23T09:19:50.000Z</time>
      </trkpt>
      <trkpt lat="47.42956" lon="6.80812">
        <ele>427</ele>
        <time>2015-08-23T09:19:51.000Z</time>
      </trkpt>
      <trkpt lat="47.42953" lon="6.80807">
        <ele>427</ele>
        <time>2015-08-23T09:19:53.000Z</time>
      </trkpt>
      <trkpt lat="47.42951" lon="6.80805">
        <ele>427</ele>
        <time>2015-08-23T09:19:54.000Z</time>
      </trkpt>
      <trkpt lat="47.42948" lon="6.80801">
        <ele>427</ele>
        <time>2015-08-23T09:19:56.000Z</time>
      </trkpt>
      <trkpt lat="47.42947" lon="6.808">
        <ele>427</ele>
        <time>2015-08-23T09:19:57.000Z</time>
      </trkpt>
      <trkpt lat="47.42945" lon="6.80795">
        <ele>427</ele>
        <time>2015-08-23T09:19:59.000Z</time>
      </trkpt>
      <trkpt lat="47.42945" lon="6.80792">
        <ele>427</ele>
        <time>2015-08-23T09:20:00.000Z</time>
      </trkpt>
      <trkpt lat="47.42945" lon="6.80789">
        <ele>427</ele>
        <time>2015-08-23T09:20:01.000Z</time>
      </trkpt>
      <trkpt lat="47.42944" lon="6.80785">
        <ele>427</ele>
        <time>2015-08-23T09:20:02.000Z</time>
      </trkpt>
      <trkpt lat="47.42944" lon="6.80781">
        <ele>427</ele>
        <time>2015-08-23T09:20:03.000Z</time>
      </trkpt>
      <trkpt lat="47.42943" lon="6.80777">
        <ele>427</ele>
        <time>2015-08-23T09:20:04.000Z</time>
      </trkpt>
      <trkpt lat="47.42942" lon="6.80772">
        <ele>427</ele>
        <time>2015-08-23T09:20:05.000Z</time>
      </trkpt>
      <trkpt lat="47.42942" lon="6.80768">
        <ele>427</ele>
        <time>2015-08-23T09:20:06.000Z</time>
      </trkpt>
      <trkpt lat="47.42941" lon="6.80764">
        <ele>427</ele>
        <time>2015-08-23T09:20:07.000Z</time>
      </trkpt>
      <trkpt lat="47.42941" lon="6.8076">
        <ele>427</ele>
        <time>2015-08-23T09:20:08.000Z</time>
      </trkpt>
      <trkpt lat="47.4294" lon="6.80755">
        <ele>427</ele>
        <time>2015-08-23T09:20:10.000Z</time>
      </trkpt>
      <trkpt lat="47.42939" lon="6.80752">
        <ele>427</ele>
        <time>2015-08-23T09:20:11.000Z</time>
      </trkpt>
      <trkpt lat="47.42936" lon="6.80747">
        <ele>429</ele>
        <time>2015-08-23T09:20:13.000Z</time>
      </trkpt>
      <trkpt lat="47.42935" lon="6.80744">
        <ele>429</ele>
        <time>2015-08-23T09:20:14.000Z</time>
      </trkpt>
      <trkpt lat="47.42933" lon="6.80739">
        <ele>429</ele>
        <time>2015-08-23T09:20:16.000Z</time>
      </trkpt>
      <trkpt lat="47.42932" lon="6.80736">
        <ele>429</ele>
        <time>2015-08-23T09:20:17.000Z</time>
      </trkpt>
      <trkpt lat="47.42931" lon="6.80733">
        <ele>429</ele>
        <time>2015-08-23T09:20:18.000Z</time>
      </trkpt>
      <trkpt lat="47.4293" lon="6.8073">
        <ele>430</ele>
        <time>2015-08-23T09:20:19.000Z</time>
      </trkpt>
      <trkpt lat="47.42928" lon="6.80727">
        <ele>430</ele>
        <time>2015-08-23T09:20:20.000Z</time>
      </trkpt>
      <trkpt lat="47.42927" lon="6.80723">
        <ele>430</ele>
        <time>2015-08-23T09:20:21.000Z</time>
      </trkpt>
      <trkpt lat="47.42925" lon="6.8072">
        <ele>430</ele>
        <time>2015-08-23T09:20:22.000Z</time>
      </trkpt>
      <trkpt lat="47.42924" lon="6.80716">
        <ele>431</ele>
        <time>2015-08-23T09:20:23.000Z</time>
      </trkpt>
      <trkpt lat="47.42923" lon="6.80712">
        <ele>431</ele>
        <time>2015-08-23T09:20:24.000Z</time>
      </trkpt>
      <trkpt lat="47.42922" lon="6.80708">
        <ele>431</ele>
        <time>2015-08-23T09:20:25.000Z</time>
      </trkpt>
      <trkpt lat="47.42921" lon="6.80704">
        <ele>431</ele>
        <time>2015-08-23T09:20:26.000Z</time>
      </trkpt>
      <trkpt lat="47.4292" lon="6.80702">
        <ele>431</ele>
        <time>2015-08-23T09:20:27.000Z</time>
      </trkpt>
      <trkpt lat="47.42919" lon="6.80696">
        <ele>431</ele>
        <time>2015-08-23T09:20:30.000Z</time>
      </trkpt>
      <trkpt lat="47.4292" lon="6.80693">
        <ele>431</ele>
        <time>2015-08-23T09:20:31.000Z</time>
      </trkpt>
      <trkpt lat="47.42921" lon="6.80689">
        <ele>431</ele>
        <time>2015-08-23T09:20:32.000Z</time>
      </trkpt>
      <trkpt lat="47.42922" lon="6.80685">
        <ele>431</ele>
        <time>2015-08-23T09:20:33.000Z</time>
      </trkpt>
      <trkpt lat="47.42922" lon="6.80682">
        <ele>431</ele>
        <time>2015-08-23T09:20:34.000Z</time>
      </trkpt>
      <trkpt lat="47.42921" lon="6.80679">
        <ele>431</ele>
        <time>2015-08-23T09:20:35.000Z</time>
      </trkpt>
      <trkpt lat="47.4292" lon="6.80675">
        <ele>430</ele>
        <time>2015-08-23T09:20:36.000Z</time>
      </trkpt>
      <trkpt lat="47.42918" lon="6.80673">
        <ele>430</ele>
        <time>2015-08-23T09:20:37.000Z</time>
      </trkpt>
      <trkpt lat="47.42915" lon="6.8067">
        <ele>429</ele>
        <time>2015-08-23T09:20:38.000Z</time>
      </trkpt>
      <trkpt lat="47.42911" lon="6.80667">
        <ele>429</ele>
        <time>2015-08-23T09:20:39.000Z</time>
      </trkpt>
      <trkpt lat="47.42907" lon="6.80665">
        <ele>431</ele>
        <time>2015-08-23T09:20:40.000Z</time>
      </trkpt>
      <trkpt lat="47.42903" lon="6.80663">
        <ele>431</ele>
        <time>2015-08-23T09:20:41.000Z</time>
      </trkpt>
      <trkpt lat="47.429" lon="6.80661">
        <ele>432</ele>
        <time>2015-08-23T09:20:42.000Z</time>
      </trkpt>
      <trkpt lat="47.42897" lon="6.8066">
        <ele>432</ele>
        <time>2015-08-23T09:20:43.000Z</time>
      </trkpt>
      <trkpt lat="47.42894" lon="6.80657">
        <ele>432</ele>
        <time>2015-08-23T09:20:44.000Z</time>
      </trkpt>
      <trkpt lat="47.42893" lon="6.80655">
        <ele>432</ele>
        <time>2015-08-23T09:20:45.000Z</time>
      </trkpt>
      <trkpt lat="47.4289" lon="6.80651">
        <ele>433</ele>
        <time>2015-08-23T09:20:47.000Z</time>
      </trkpt>
      <trkpt lat="47.42889" lon="6.80648">
        <ele>433</ele>
        <time>2015-08-23T09:20:48.000Z</time>
      </trkpt>
      <trkpt lat="47.42887" lon="6.80644">
        <ele>433</ele>
        <time>2015-08-23T09:20:50.000Z</time>
      </trkpt>
      <trkpt lat="47.42886" lon="6.80643">
        <ele>433</ele>
        <time>2015-08-23T09:20:51.000Z</time>
      </trkpt>
      <trkpt lat="47.42884" lon="6.80641">
        <ele>433</ele>
        <time>2015-08-23T09:20:52.000Z</time>
      </trkpt>
      <trkpt lat="47.42882" lon="6.8064">
        <ele>433</ele>
        <time>2015-08-23T09:20:53.000Z</time>
      </trkpt>
      <trkpt lat="47.42879" lon="6.80639">
        <ele>433</ele>
        <time>2015-08-23T09:20:54.000Z</time>
      </trkpt>
      <trkpt lat="47.42876" lon="6.80639">
        <ele>434</ele>
        <time>2015-08-23T09:20:55.000Z</time>
      </trkpt>
      <trkpt lat="47.42873" lon="6.80637">
        <ele>434</ele>
        <time>2015-08-23T09:20:58.000Z</time>
      </trkpt>
      <trkpt lat="47.42872" lon="6.80636">
        <ele>434</ele>
        <time>2015-08-23T09:20:59.000Z</time>
      </trkpt>
      <trkpt lat="47.42869" lon="6.80634">
        <ele>434</ele>
        <time>2015-08-23T09:21:01.000Z</time>
      </trkpt>
      <trkpt lat="47.42867" lon="6.80634">
        <ele>434</ele>
        <time>2015-08-23T09:21:02.000Z</time>
      </trkpt>
      <trkpt lat="47.42865" lon="6.80633">
        <ele>434</ele>
        <time>2015-08-23T09:21:03.000Z</time>
      </trkpt>
      <trkpt lat="47.42863" lon="6.80633">
        <ele>434</ele>
        <time>2015-08-23T09:21:04.000Z</time>
      </trkpt>
      <trkpt lat="47.4286" lon="6.80633">
        <ele>434</ele>
        <time>2015-08-23T09:21:05.000Z</time>
      </trkpt>
      <trkpt lat="47.42857" lon="6.80632">
        <ele>434</ele>
        <time>2015-08-23T09:21:06.000Z</time>
      </trkpt>
      <trkpt lat="47.42854" lon="6.80631">
        <ele>434</ele>
        <time>2015-08-23T09:21:07.000Z</time>
      </trkpt>
      <trkpt lat="47.42852" lon="6.8063">
        <ele>434</ele>
        <time>2015-08-23T09:21:08.000Z</time>
      </trkpt>
      <trkpt lat="47.42849" lon="6.80629">
        <ele>434</ele>
        <time>2015-08-23T09:21:09.000Z</time>
      </trkpt>
      <trkpt lat="47.42846" lon="6.80628">
        <ele>434</ele>
        <time>2015-08-23T09:21:10.000Z</time>
      </trkpt>
      <trkpt lat="47.42842" lon="6.80626">
        <ele>435</ele>
        <time>2015-08-23T09:21:11.000Z</time>
      </trkpt>
      <trkpt lat="47.42839" lon="6.80625">
        <ele>435</ele>
        <time>2015-08-23T09:21:12.000Z</time>
      </trkpt>
      <trkpt lat="47.42835" lon="6.80624">
        <ele>435</ele>
        <time>2015-08-23T09:21:13.000Z</time>
      </trkpt>
      <trkpt lat="47.42831" lon="6.80623">
        <ele>439</ele>
        <time>2015-08-23T09:21:14.000Z</time>
      </trkpt>
      <trkpt lat="47.42828" lon="6.80621">
        <ele>439</ele>
        <time>2015-08-23T09:21:15.000Z</time>
      </trkpt>
      <trkpt lat="47.42825" lon="6.8062">
        <ele>439</ele>
        <time>2015-08-23T09:21:16.000Z</time>
      </trkpt>
      <trkpt lat="47.42822" lon="6.80618">
        <ele>439</ele>
        <time>2015-08-23T09:21:17.000Z</time>
      </trkpt>
      <trkpt lat="47.4282" lon="6.80617">
        <ele>439</ele>
        <time>2015-08-23T09:21:18.000Z</time>
      </trkpt>
      <trkpt lat="47.42818" lon="6.80615">
        <ele>439</ele>
        <time>2015-08-23T09:21:19.000Z</time>
      </trkpt>
      <trkpt lat="47.42815" lon="6.80614">
        <ele>440</ele>
        <time>2015-08-23T09:21:20.000Z</time>
      </trkpt>
      <trkpt lat="47.42813" lon="6.80613">
        <ele>440</ele>
        <time>2015-08-23T09:21:21.000Z</time>
      </trkpt>
      <trkpt lat="47.4281" lon="6.80612">
        <ele>440</ele>
        <time>2015-08-23T09:21:22.000Z</time>
      </trkpt>
      <trkpt lat="47.42807" lon="6.80612">
        <ele>440</ele>
        <time>2015-08-23T09:21:23.000Z</time>
      </trkpt>
      <trkpt lat="47.42805" lon="6.80612">
        <ele>440</ele>
        <time>2015-08-23T09:21:24.000Z</time>
      </trkpt>
      <trkpt lat="47.42802" lon="6.80611">
        <ele>440</ele>
        <time>2015-08-23T09:21:25.000Z</time>
      </trkpt>
      <trkpt lat="47.42799" lon="6.80611">
        <ele>440</ele>
        <time>2015-08-23T09:21:26.000Z</time>
      </trkpt>
      <trkpt lat="47.42796" lon="6.8061">
        <ele>441</ele>
        <time>2015-08-23T09:21:27.000Z</time>
      </trkpt>
      <trkpt lat="47.42794" lon="6.80609">
        <ele>441</ele>
        <time>2015-08-23T09:21:28.000Z</time>
      </trkpt>
      <trkpt lat="47.42791" lon="6.80608">
        <ele>441</ele>
        <time>2015-08-23T09:21:33.000Z</time>
      </trkpt>
      <trkpt lat="47.4279" lon="6.80608">
        <ele>441</ele>
        <time>2015-08-23T09:21:34.000Z</time>
      </trkpt>
      <trkpt lat="47.42786" lon="6.80607">
        <ele>441</ele>
        <time>2015-08-23T09:21:36.000Z</time>
      </trkpt>
      <trkpt lat="47.42784" lon="6.80607">
        <ele>441</ele>
        <time>2015-08-23T09:21:37.000Z</time>
      </trkpt>
      <trkpt lat="47.4278" lon="6.80607">
        <ele>442</ele>
        <time>2015-08-23T09:21:39.000Z</time>
      </trkpt>
      <trkpt lat="47.42778" lon="6.80607">
        <ele>442</ele>
        <time>2015-08-23T09:21:40.000Z</time>
      </trkpt>
      <trkpt lat="47.42775" lon="6.80607">
        <ele>442</ele>
        <time>2015-08-23T09:21:41.000Z</time>
      </trkpt>
      <trkpt lat="47.42772" lon="6.80607">
        <ele>442</ele>
        <time>2015-08-23T09:21:42.000Z</time>
      </trkpt>
      <trkpt lat="47.42769" lon="6.80607">
        <ele>442</ele>
        <time>2015-08-23T09:21:43.000Z</time>
      </trkpt>
      <trkpt lat="47.42766" lon="6.80607">
        <ele>442</ele>
        <time>2015-08-23T09:21:44.000Z</time>
      </trkpt>
      <trkpt lat="47.42764" lon="6.80607">
        <ele>443</ele>
        <time>2015-08-23T09:21:45.000Z</time>
      </trkpt>
      <trkpt lat="47.42762" lon="6.80607">
        <ele>443</ele>
        <time>2015-08-23T09:21:46.000Z</time>
      </trkpt>
      <trkpt lat="47.42758" lon="6.80606">
        <ele>443</ele>
        <time>2015-08-23T09:21:48.000Z</time>
      </trkpt>
      <trkpt lat="47.42756" lon="6.80606">
        <ele>443</ele>
        <time>2015-08-23T09:21:49.000Z</time>
      </trkpt>
      <trkpt lat="47.42752" lon="6.80605">
        <ele>443</ele>
        <time>2015-08-23T09:21:51.000Z</time>
      </trkpt>
      <trkpt lat="47.42751" lon="6.80604">
        <ele>443</ele>
        <time>2015-08-23T09:21:52.000Z</time>
      </trkpt>
      <trkpt lat="47.42749" lon="6.80604">
        <ele>448</ele>
        <time>2015-08-23T09:21:53.000Z</time>
      </trkpt>
      <trkpt lat="47.42747" lon="6.80602">
        <ele>448</ele>
        <time>2015-08-23T09:21:54.000Z</time>
      </trkpt>
      <trkpt lat="47.42744" lon="6.80601">
        <ele>448</ele>
        <time>2015-08-23T09:21:55.000Z</time>
      </trkpt>
      <trkpt lat="47.42742" lon="6.806">
        <ele>448</ele>
        <time>2015-08-23T09:21:56.000Z</time>
      </trkpt>
      <trkpt lat="47.42739" lon="6.80597">
        <ele>448</ele>
        <time>2015-08-23T09:21:59.000Z</time>
      </trkpt>
      <trkpt lat="47.42738" lon="6.80596">
        <ele>448</ele>
        <time>2015-08-23T09:22:00.000Z</time>
      </trkpt>
      <trkpt lat="47.42735" lon="6.80594">
        <ele>448</ele>
        <time>2015-08-23T09:22:02.000Z</time>
      </trkpt>
      <trkpt lat="47.42733" lon="6.80593">
        <ele>449</ele>
        <time>2015-08-23T09:22:03.000Z</time>
      </trkpt>
      <trkpt lat="47.42731" lon="6.80592">
        <ele>449</ele>
        <time>2015-08-23T09:22:04.000Z</time>
      </trkpt>
      <trkpt lat="47.42729" lon="6.80591">
        <ele>449</ele>
        <time>2015-08-23T09:22:05.000Z</time>
      </trkpt>
      <trkpt lat="47.42724" lon="6.80589">
        <ele>449</ele>
        <time>2015-08-23T09:22:07.000Z</time>
      </trkpt>
      <trkpt lat="47.42723" lon="6.80588">
        <ele>449</ele>
        <time>2015-08-23T09:22:08.000Z</time>
      </trkpt>
      <trkpt lat="47.42719" lon="6.80584">
        <ele>449</ele>
        <time>2015-08-23T09:22:11.000Z</time>
      </trkpt>
      <trkpt lat="47.42719" lon="6.80583">
        <ele>449</ele>
        <time>2015-08-23T09:22:12.000Z</time>
      </trkpt>
      <trkpt lat="47.42716" lon="6.80581">
        <ele>454</ele>
        <time>2015-08-23T09:22:14.000Z</time>
      </trkpt>
      <trkpt lat="47.42715" lon="6.8058">
        <ele>454</ele>
        <time>2015-08-23T09:22:15.000Z</time>
      </trkpt>
      <trkpt lat="47.42711" lon="6.80577">
        <ele>455</ele>
        <time>2015-08-23T09:22:18.000Z</time>
      </trkpt>
      <trkpt lat="47.4271" lon="6.80576">
        <ele>455</ele>
        <time>2015-08-23T09:22:19.000Z</time>
      </trkpt>
      <trkpt lat="47.42707" lon="6.80574">
        <ele>455</ele>
        <time>2015-08-23T09:22:21.000Z</time>
      </trkpt>
      <trkpt lat="47.42705" lon="6.80573">
        <ele>455</ele>
        <time>2015-08-23T09:22:22.000Z</time>
      </trkpt>
      <trkpt lat="47.42701" lon="6.80573">
        <ele>455</ele>
        <time>2015-08-23T09:22:24.000Z</time>
      </trkpt>
      <trkpt lat="47.42698" lon="6.80573">
        <ele>455</ele>
        <time>2015-08-23T09:22:25.000Z</time>
      </trkpt>
      <trkpt lat="47.42694" lon="6.80573">
        <ele>455</ele>
        <time>2015-08-23T09:22:27.000Z</time>
      </trkpt>
      <trkpt lat="47.42693" lon="6.80573">
        <ele>455</ele>
        <time>2015-08-23T09:22:28.000Z</time>
      </trkpt>
      <trkpt lat="47.42689" lon="6.80571">
        <ele>455</ele>
        <time>2015-08-23T09:22:30.000Z</time>
      </trkpt>
      <trkpt lat="47.42687" lon="6.8057">
        <ele>455</ele>
        <time>2015-08-23T09:22:31.000Z</time>
      </trkpt>
      <trkpt lat="47.42685" lon="6.80569">
        <ele>455</ele>
        <time>2015-08-23T09:22:32.000Z</time>
      </trkpt>
      <trkpt lat="47.42683" lon="6.80568">
        <ele>455</ele>
        <time>2015-08-23T09:22:33.000Z</time>
      </trkpt>
      <trkpt lat="47.4268" lon="6.80568">
        <ele>455</ele>
        <time>2015-08-23T09:22:34.000Z</time>
      </trkpt>
      <trkpt lat="47.42678" lon="6.80567">
        <ele>455</ele>
        <time>2015-08-23T09:22:35.000Z</time>
      </trkpt>
      <trkpt lat="47.42675" lon="6.80565">
        <ele>456</ele>
        <time>2015-08-23T09:22:37.000Z</time>
      </trkpt>
      <trkpt lat="47.42673" lon="6.80563">
        <ele>456</ele>
        <time>2015-08-23T09:22:38.000Z</time>
      </trkpt>
      <trkpt lat="47.42671" lon="6.80561">
        <ele>456</ele>
        <time>2015-08-23T09:22:39.000Z</time>
      </trkpt>
      <trkpt lat="47.42669" lon="6.80559">
        <ele>456</ele>
        <time>2015-08-23T09:22:40.000Z</time>
      </trkpt>
      <trkpt lat="47.42667" lon="6.80557">
        <ele>456</ele>
        <time>2015-08-23T09:22:41.000Z</time>
      </trkpt>
      <trkpt lat="47.42665" lon="6.80555">
        <ele>459</ele>
        <time>2015-08-23T09:22:42.000Z</time>
      </trkpt>
      <trkpt lat="47.42662" lon="6.80552">
        <ele>460</ele>
        <time>2015-08-23T09:22:44.000Z</time>
      </trkpt>
      <trkpt lat="47.4266" lon="6.8055">
        <ele>460</ele>
        <time>2015-08-23T09:22:45.000Z</time>
      </trkpt>
      <trkpt lat="47.42657" lon="6.80548">
        <ele>460</ele>
        <time>2015-08-23T09:22:47.000Z</time>
      </trkpt>
      <trkpt lat="47.42655" lon="6.80547">
        <ele>460</ele>
        <time>2015-08-23T09:22:48.000Z</time>
      </trkpt>
      <trkpt lat="47.42652" lon="6.80545">
        <ele>461</ele>
        <time>2015-08-23T09:22:51.000Z</time>
      </trkpt>
      <trkpt lat="47.42651" lon="6.80544">
        <ele>461</ele>
        <time>2015-08-23T09:22:52.000Z</time>
      </trkpt>
      <trkpt lat="47.42648" lon="6.8054">
        <ele>461</ele>
        <time>2015-08-23T09:22:55.000Z</time>
      </trkpt>
      <trkpt lat="47.42648" lon="6.80537">
        <ele>461</ele>
        <time>2015-08-23T09:22:56.000Z</time>
      </trkpt>
      <trkpt lat="47.42645" lon="6.80532">
        <ele>462</ele>
        <time>2015-08-23T09:22:59.000Z</time>
      </trkpt>
      <trkpt lat="47.42645" lon="6.80531">
        <ele>462</ele>
        <time>2015-08-23T09:23:00.000Z</time>
      </trkpt>
      <trkpt lat="47.42645" lon="6.80525">
        <ele>462</ele>
        <time>2015-08-23T09:23:04.000Z</time>
      </trkpt>
      <trkpt lat="47.42644" lon="6.80523">
        <ele>462</ele>
        <time>2015-08-23T09:23:05.000Z</time>
      </trkpt>
      <trkpt lat="47.4264" lon="6.80521">
        <ele>462</ele>
        <time>2015-08-23T09:23:07.000Z</time>
      </trkpt>
      <trkpt lat="47.42638" lon="6.8052">
        <ele>462</ele>
        <time>2015-08-23T09:23:08.000Z</time>
      </trkpt>
      <trkpt lat="47.42635" lon="6.80516">
        <ele>462</ele>
        <time>2015-08-23T09:23:10.000Z</time>
      </trkpt>
      <trkpt lat="47.42633" lon="6.80514">
        <ele>463</ele>
        <time>2015-08-23T09:23:11.000Z</time>
      </trkpt>
      <trkpt lat="47.42631" lon="6.80512">
        <ele>463</ele>
        <time>2015-08-23T09:23:12.000Z</time>
      </trkpt>
      <trkpt lat="47.42629" lon="6.8051">
        <ele>463</ele>
        <time>2015-08-23T09:23:13.000Z</time>
      </trkpt>
      <trkpt lat="47.42628" lon="6.80507">
        <ele>463</ele>
        <time>2015-08-23T09:23:14.000Z</time>
      </trkpt>
      <trkpt lat="47.42626" lon="6.80505">
        <ele>463</ele>
        <time>2015-08-23T09:23:15.000Z</time>
      </trkpt>
      <trkpt lat="47.42624" lon="6.80502">
        <ele>463</ele>
        <time>2015-08-23T09:23:16.000Z</time>
      </trkpt>
      <trkpt lat="47.42621" lon="6.805">
        <ele>467</ele>
        <time>2015-08-23T09:23:17.000Z</time>
      </trkpt>
      <trkpt lat="47.42619" lon="6.80498">
        <ele>467</ele>
        <time>2015-08-23T09:23:18.000Z</time>
      </trkpt>
      <trkpt lat="47.42617" lon="6.80496">
        <ele>467</ele>
        <time>2015-08-23T09:23:19.000Z</time>
      </trkpt>
      <trkpt lat="47.42613" lon="6.80492">
        <ele>467</ele>
        <time>2015-08-23T09:23:21.000Z</time>
      </trkpt>
      <trkpt lat="47.42612" lon="6.8049">
        <ele>467</ele>
        <time>2015-08-23T09:23:22.000Z</time>
      </trkpt>
      <trkpt lat="47.42611" lon="6.80484">
        <ele>467</ele>
        <time>2015-08-23T09:23:24.000Z</time>
      </trkpt>
      <trkpt lat="47.4261" lon="6.80482">
        <ele>467</ele>
        <time>2015-08-23T09:23:25.000Z</time>
      </trkpt>
      <trkpt lat="47.42608" lon="6.80477">
        <ele>467</ele>
        <time>2015-08-23T09:23:27.000Z</time>
      </trkpt>
      <trkpt lat="47.42607" lon="6.80475">
        <ele>467</ele>
        <time>2015-08-23T09:23:28.000Z</time>
      </trkpt>
      <trkpt lat="47.42605" lon="6.8047">
        <ele>467</ele>
        <time>2015-08-23T09:23:30.000Z</time>
      </trkpt>
      <trkpt lat="47.42605" lon="6.80467">
        <ele>467</ele>
        <time>2015-08-23T09:23:31.000Z</time>
      </trkpt>
      <trkpt lat="47.42605" lon="6.80463">
        <ele>468</ele>
        <time>2015-08-23T09:23:33.000Z</time>
      </trkpt>
      <trkpt lat="47.42606" lon="6.8046">
        <ele>468</ele>
        <time>2015-08-23T09:23:34.000Z</time>
      </trkpt>
      <trkpt lat="47.42608" lon="6.80456">
        <ele>468</ele>
        <time>2015-08-23T09:23:36.000Z</time>
      </trkpt>
      <trkpt lat="47.42607" lon="6.80454">
        <ele>468</ele>
        <time>2015-08-23T09:23:37.000Z</time>
      </trkpt>
      <trkpt lat="47.42606" lon="6.8045">
        <ele>468</ele>
        <time>2015-08-23T09:23:39.000Z</time>
      </trkpt>
      <trkpt lat="47.42605" lon="6.80448">
        <ele>468</ele>
        <time>2015-08-23T09:23:40.000Z</time>
      </trkpt>
      <trkpt lat="47.42603" lon="6.80443">
        <ele>468</ele>
        <time>2015-08-23T09:23:43.000Z</time>
      </trkpt>
      <trkpt lat="47.42602" lon="6.80442">
        <ele>468</ele>
        <time>2015-08-23T09:23:44.000Z</time>
      </trkpt>
      <trkpt lat="47.42602" lon="6.80437">
        <ele>468</ele>
        <time>2015-08-23T09:23:48.000Z</time>
      </trkpt>
      <trkpt lat="47.42601" lon="6.80435">
        <ele>468</ele>
        <time>2015-08-23T09:23:49.000Z</time>
      </trkpt>
      <trkpt lat="47.426" lon="6.80429">
        <ele>468</ele>
        <time>2015-08-23T09:23:52.000Z</time>
      </trkpt>
      <trkpt lat="47.426" lon="6.80426">
        <ele>469</ele>
        <time>2015-08-23T09:23:53.000Z</time>
      </trkpt>
      <trkpt lat="47.426" lon="6.8042">
        <ele>469</ele>
        <time>2015-08-23T09:23:55.000Z</time>
      </trkpt>
      <trkpt lat="47.426" lon="6.80417">
        <ele>469</ele>
        <time>2015-08-23T09:23:56.000Z</time>
      </trkpt>
      <trkpt lat="47.42599" lon="6.80411">
        <ele>471</ele>
        <time>2015-08-23T09:23:58.000Z</time>
      </trkpt>
      <trkpt lat="47.42598" lon="6.80409">
        <ele>471</ele>
        <time>2015-08-23T09:23:59.000Z</time>
      </trkpt>
      <trkpt lat="47.42598" lon="6.80404">
        <ele>471</ele>
        <time>2015-08-23T09:24:01.000Z</time>
      </trkpt>
      <trkpt lat="47.42597" lon="6.80402">
        <ele>471</ele>
        <time>2015-08-23T09:24:02.000Z</time>
      </trkpt>
      <trkpt lat="47.42597" lon="6.80397">
        <ele>472</ele>
        <time>2015-08-23T09:24:04.000Z</time>
      </trkpt>
      <trkpt lat="47.42597" lon="6.80395">
        <ele>472</ele>
        <time>2015-08-23T09:24:05.000Z</time>
      </trkpt>
      <trkpt lat="47.42597" lon="6.80389">
        <ele>472</ele>
        <time>2015-08-23T09:24:07.000Z</time>
      </trkpt>
      <trkpt lat="47.42596" lon="6.80387">
        <ele>472</ele>
        <time>2015-08-23T09:24:08.000Z</time>
      </trkpt>
      <trkpt lat="47.42595" lon="6.80381">
        <ele>473</ele>
        <time>2015-08-23T09:24:10.000Z</time>
      </trkpt>
      <trkpt lat="47.42595" lon="6.80378">
        <ele>473</ele>
        <time>2015-08-23T09:24:11.000Z</time>
      </trkpt>
      <trkpt lat="47.42597" lon="6.80372">
        <ele>473</ele>
        <time>2015-08-23T09:24:13.000Z</time>
      </trkpt>
      <trkpt lat="47.42597" lon="6.80368">
        <ele>473</ele>
        <time>2015-08-23T09:24:14.000Z</time>
      </trkpt>
      <trkpt lat="47.42597" lon="6.80365">
        <ele>473</ele>
        <time>2015-08-23T09:24:15.000Z</time>
      </trkpt>
      <trkpt lat="47.42596" lon="6.80361">
        <ele>473</ele>
        <time>2015-08-23T09:24:16.000Z</time>
      </trkpt>
      <trkpt lat="47.42595" lon="6.80355">
        <ele>474</ele>
        <time>2015-08-23T09:24:18.000Z</time>
      </trkpt>
      <trkpt lat="47.42595" lon="6.80352">
        <ele>474</ele>
        <time>2015-08-23T09:24:19.000Z</time>
      </trkpt>
      <trkpt lat="47.42596" lon="6.80349">
        <ele>474</ele>
        <time>2015-08-23T09:24:20.000Z</time>
      </trkpt>
      <trkpt lat="47.42596" lon="6.80346">
        <ele>474</ele>
        <time>2015-08-23T09:24:21.000Z</time>
      </trkpt>
      <trkpt lat="47.42597" lon="6.8034">
        <ele>474</ele>
        <time>2015-08-23T09:24:23.000Z</time>
      </trkpt>
      <trkpt lat="47.42597" lon="6.80338">
        <ele>474</ele>
        <time>2015-08-23T09:24:24.000Z</time>
      </trkpt>
      <trkpt lat="47.42595" lon="6.80333">
        <ele>474</ele>
        <time>2015-08-23T09:24:26.000Z</time>
      </trkpt>
      <trkpt lat="47.42594" lon="6.80331">
        <ele>476</ele>
        <time>2015-08-23T09:24:27.000Z</time>
      </trkpt>
      <trkpt lat="47.42593" lon="6.80325">
        <ele>476</ele>
        <time>2015-08-23T09:24:30.000Z</time>
      </trkpt>
      <trkpt lat="47.42594" lon="6.80322">
        <ele>476</ele>
        <time>2015-08-23T09:24:31.000Z</time>
      </trkpt>
      <trkpt lat="47.42595" lon="6.80317">
        <ele>477</ele>
        <time>2015-08-23T09:24:32.000Z</time>
      </trkpt>
      <trkpt lat="47.42595" lon="6.80314">
        <ele>477</ele>
        <time>2015-08-23T09:24:33.000Z</time>
      </trkpt>
      <trkpt lat="47.42594" lon="6.80309">
        <ele>477</ele>
        <time>2015-08-23T09:24:35.000Z</time>
      </trkpt>
      <trkpt lat="47.42593" lon="6.80307">
        <ele>477</ele>
        <time>2015-08-23T09:24:36.000Z</time>
      </trkpt>
      <trkpt lat="47.42593" lon="6.80303">
        <ele>477</ele>
        <time>2015-08-23T09:24:38.000Z</time>
      </trkpt>
      <trkpt lat="47.42592" lon="6.803">
        <ele>478</ele>
        <time>2015-08-23T09:24:39.000Z</time>
      </trkpt>
      <trkpt lat="47.42591" lon="6.80296">
        <ele>478</ele>
        <time>2015-08-23T09:24:41.000Z</time>
      </trkpt>
      <trkpt lat="47.4259" lon="6.80293">
        <ele>478</ele>
        <time>2015-08-23T09:24:42.000Z</time>
      </trkpt>
      <trkpt lat="47.42588" lon="6.80288">
        <ele>478</ele>
        <time>2015-08-23T09:24:44.000Z</time>
      </trkpt>
      <trkpt lat="47.42588" lon="6.80286">
        <ele>478</ele>
        <time>2015-08-23T09:24:45.000Z</time>
      </trkpt>
      <trkpt lat="47.42586" lon="6.80282">
        <ele>478</ele>
        <time>2015-08-23T09:24:47.000Z</time>
      </trkpt>
      <trkpt lat="47.42584" lon="6.8028">
        <ele>478</ele>
        <time>2015-08-23T09:24:48.000Z</time>
      </trkpt>
      <trkpt lat="47.42581" lon="6.80275">
        <ele>481</ele>
        <time>2015-08-23T09:24:50.000Z</time>
      </trkpt>
      <trkpt lat="47.4258" lon="6.80272">
        <ele>481</ele>
        <time>2015-08-23T09:24:51.000Z</time>
      </trkpt>
      <trkpt lat="47.42579" lon="6.80267">
        <ele>481</ele>
        <time>2015-08-23T09:24:53.000Z</time>
      </trkpt>
      <trkpt lat="47.42579" lon="6.80265">
        <ele>480</ele>
        <time>2015-08-23T09:24:54.000Z</time>
      </trkpt>
      <trkpt lat="47.42579" lon="6.80259">
        <ele>480</ele>
        <time>2015-08-23T09:24:57.000Z</time>
      </trkpt>
      <trkpt lat="47.42579" lon="6.80258">
        <ele>480</ele>
        <time>2015-08-23T09:24:58.000Z</time>
      </trkpt>
      <trkpt lat="47.42583" lon="6.80256">
        <ele>480</ele>
        <time>2015-08-23T09:25:01.000Z</time>
      </trkpt>
      <trkpt lat="47.42585" lon="6.80256">
        <ele>479</ele>
        <time>2015-08-23T09:25:02.000Z</time>
      </trkpt>
      <trkpt lat="47.42588" lon="6.80257">
        <ele>479</ele>
        <time>2015-08-23T09:25:04.000Z</time>
      </trkpt>
      <trkpt lat="47.4259" lon="6.80258">
        <ele>479</ele>
        <time>2015-08-23T09:25:05.000Z</time>
      </trkpt>
      <trkpt lat="47.42593" lon="6.8026">
        <ele>479</ele>
        <time>2015-08-23T09:25:07.000Z</time>
      </trkpt>
      <trkpt lat="47.42595" lon="6.80261">
        <ele>479</ele>
        <time>2015-08-23T09:25:08.000Z</time>
      </trkpt>
      <trkpt lat="47.42599" lon="6.80262">
        <ele>479</ele>
        <time>2015-08-23T09:25:10.000Z</time>
      </trkpt>
      <trkpt lat="47.42601" lon="6.80263">
        <ele>479</ele>
        <time>2015-08-23T09:25:11.000Z</time>
      </trkpt>
      <trkpt lat="47.42604" lon="6.80266">
        <ele>479</ele>
        <time>2015-08-23T09:25:14.000Z</time>
      </trkpt>
      <trkpt lat="47.42605" lon="6.80267">
        <ele>479</ele>
        <time>2015-08-23T09:25:15.000Z</time>
      </trkpt>
      <trkpt lat="47.42609" lon="6.8027">
        <ele>479</ele>
        <time>2015-08-23T09:25:18.000Z</time>
      </trkpt>
      <trkpt lat="47.4261" lon="6.80271">
        <ele>479</ele>
        <time>2015-08-23T09:25:19.000Z</time>
      </trkpt>
      <trkpt lat="47.42613" lon="6.80273">
        <ele>479</ele>
        <time>2015-08-23T09:25:21.000Z</time>
      </trkpt>
      <trkpt lat="47.42615" lon="6.80274">
        <ele>479</ele>
        <time>2015-08-23T09:25:22.000Z</time>
      </trkpt>
      <trkpt lat="47.42619" lon="6.80275">
        <ele>479</ele>
        <time>2015-08-23T09:25:24.000Z</time>
      </trkpt>
      <trkpt lat="47.42621" lon="6.80276">
        <ele>479</ele>
        <time>2015-08-23T09:25:25.000Z</time>
      </trkpt>
      <trkpt lat="47.42625" lon="6.80278">
        <ele>479</ele>
        <time>2015-08-23T09:25:27.000Z</time>
      </trkpt>
      <trkpt lat="47.42627" lon="6.80279">
        <ele>479</ele>
        <time>2015-08-23T09:25:28.000Z</time>
      </trkpt>
      <trkpt lat="47.42629" lon="6.8028">
        <ele>479</ele>
        <time>2015-08-23T09:25:29.000Z</time>
      </trkpt>
      <trkpt lat="47.42632" lon="6.80281">
        <ele>479</ele>
        <time>2015-08-23T09:25:30.000Z</time>
      </trkpt>
      <trkpt lat="47.42636" lon="6.80282">
        <ele>479</ele>
        <time>2015-08-23T09:25:32.000Z</time>
      </trkpt>
      <trkpt lat="47.42638" lon="6.80281">
        <ele>479</ele>
        <time>2015-08-23T09:25:33.000Z</time>
      </trkpt>
      <trkpt lat="47.42642" lon="6.80281">
        <ele>480</ele>
        <time>2015-08-23T09:25:35.000Z</time>
      </trkpt>
      <trkpt lat="47.42643" lon="6.80282">
        <ele>480</ele>
        <time>2015-08-23T09:25:36.000Z</time>
      </trkpt>
      <trkpt lat="47.42648" lon="6.80283">
        <ele>480</ele>
        <time>2015-08-23T09:25:38.000Z</time>
      </trkpt>
      <trkpt lat="47.4265" lon="6.80284">
        <ele>480</ele>
        <time>2015-08-23T09:25:39.000Z</time>
      </trkpt>
      <trkpt lat="47.42654" lon="6.80286">
        <ele>480</ele>
        <time>2015-08-23T09:25:41.000Z</time>
      </trkpt>
      <trkpt lat="47.42656" lon="6.80287">
        <ele>480</ele>
        <time>2015-08-23T09:25:42.000Z</time>
      </trkpt>
      <trkpt lat="47.42658" lon="6.80288">
        <ele>480</ele>
        <time>2015-08-23T09:25:43.000Z</time>
      </trkpt>
      <trkpt lat="47.42661" lon="6.80289">
        <ele>480</ele>
        <time>2015-08-23T09:25:44.000Z</time>
      </trkpt>
      <trkpt lat="47.42663" lon="6.80289">
        <ele>480</ele>
        <time>2015-08-23T09:25:45.000Z</time>
      </trkpt>
      <trkpt lat="47.42666" lon="6.8029">
        <ele>480</ele>
        <time>2015-08-23T09:25:46.000Z</time>
      </trkpt>
      <trkpt lat="47.42668" lon="6.8029">
        <ele>482</ele>
        <time>2015-08-23T09:25:47.000Z</time>
      </trkpt>
      <trkpt lat="47.42671" lon="6.8029">
        <ele>482</ele>
        <time>2015-08-23T09:25:48.000Z</time>
      </trkpt>
      <trkpt lat="47.42674" lon="6.80289">
        <ele>482</ele>
        <time>2015-08-23T09:25:49.000Z</time>
      </trkpt>
      <trkpt lat="47.42676" lon="6.80288">
        <ele>482</ele>
        <time>2015-08-23T09:25:50.000Z</time>
      </trkpt>
      <trkpt lat="47.42679" lon="6.80288">
        <ele>482</ele>
        <time>2015-08-23T09:25:51.000Z</time>
      </trkpt>
      <trkpt lat="47.42682" lon="6.80287">
        <ele>482</ele>
        <time>2015-08-23T09:25:52.000Z</time>
      </trkpt>
      <trkpt lat="47.42684" lon="6.80287">
        <ele>482</ele>
        <time>2015-08-23T09:25:53.000Z</time>
      </trkpt>
      <trkpt lat="47.42686" lon="6.80286">
        <ele>482</ele>
        <time>2015-08-23T09:25:54.000Z</time>
      </trkpt>
      <trkpt lat="47.42689" lon="6.80285">
        <ele>482</ele>
        <time>2015-08-23T09:25:55.000Z</time>
      </trkpt>
      <trkpt lat="47.42691" lon="6.80284">
        <ele>482</ele>
        <time>2015-08-23T09:25:56.000Z</time>
      </trkpt>
      <trkpt lat="47.42693" lon="6.80282">
        <ele>482</ele>
        <time>2015-08-23T09:25:57.000Z</time>
      </trkpt>
      <trkpt lat="47.42695" lon="6.80279">
        <ele>482</ele>
        <time>2015-08-23T09:25:58.000Z</time>
      </trkpt>
      <trkpt lat="47.42698" lon="6.80277">
        <ele>482</ele>
        <time>2015-08-23T09:25:59.000Z</time>
      </trkpt>
      <trkpt lat="47.427" lon="6.80274">
        <ele>482</ele>
        <time>2015-08-23T09:26:00.000Z</time>
      </trkpt>
      <trkpt lat="47.42702" lon="6.80272">
        <ele>482</ele>
        <time>2015-08-23T09:26:01.000Z</time>
      </trkpt>
      <trkpt lat="47.42704" lon="6.80269">
        <ele>482</ele>
        <time>2015-08-23T09:26:02.000Z</time>
      </trkpt>
      <trkpt lat="47.42707" lon="6.80267">
        <ele>482</ele>
        <time>2015-08-23T09:26:03.000Z</time>
      </trkpt>
      <trkpt lat="47.4271" lon="6.80264">
        <ele>482</ele>
        <time>2015-08-23T09:26:04.000Z</time>
      </trkpt>
      <trkpt lat="47.42712" lon="6.80262">
        <ele>482</ele>
        <time>2015-08-23T09:26:05.000Z</time>
      </trkpt>
      <trkpt lat="47.42714" lon="6.8026">
        <ele>482</ele>
        <time>2015-08-23T09:26:06.000Z</time>
      </trkpt>
      <trkpt lat="47.42717" lon="6.80258">
        <ele>482</ele>
        <time>2015-08-23T09:26:07.000Z</time>
      </trkpt>
      <trkpt lat="47.42719" lon="6.80255">
        <ele>483</ele>
        <time>2015-08-23T09:26:08.000Z</time>
      </trkpt>
      <trkpt lat="47.42722" lon="6.80253">
        <ele>483</ele>
        <time>2015-08-23T09:26:09.000Z</time>
      </trkpt>
      <trkpt lat="47.42724" lon="6.80251">
        <ele>483</ele>
        <time>2015-08-23T09:26:10.000Z</time>
      </trkpt>
      <trkpt lat="47.42727" lon="6.80249">
        <ele>484</ele>
        <time>2015-08-23T09:26:11.000Z</time>
      </trkpt>
      <trkpt lat="47.42728" lon="6.80247">
        <ele>484</ele>
        <time>2015-08-23T09:26:12.000Z</time>
      </trkpt>
      <trkpt lat="47.42731" lon="6.80245">
        <ele>484</ele>
        <time>2015-08-23T09:26:14.000Z</time>
      </trkpt>
      <trkpt lat="47.42732" lon="6.80243">
        <ele>484</ele>
        <time>2015-08-23T09:26:15.000Z</time>
      </trkpt>
      <trkpt lat="47.42734" lon="6.8024">
        <ele>484</ele>
        <time>2015-08-23T09:26:16.000Z</time>
      </trkpt>
      <trkpt lat="47.42736" lon="6.80236">
        <ele>484</ele>
        <time>2015-08-23T09:26:17.000Z</time>
      </trkpt>
      <trkpt lat="47.42738" lon="6.80232">
        <ele>484</ele>
        <time>2015-08-23T09:26:18.000Z</time>
      </trkpt>
      <trkpt lat="47.4274" lon="6.80228">
        <ele>484</ele>
        <time>2015-08-23T09:26:19.000Z</time>
      </trkpt>
      <trkpt lat="47.42742" lon="6.80224">
        <ele>484</ele>
        <time>2015-08-23T09:26:20.000Z</time>
      </trkpt>
      <trkpt lat="47.42743" lon="6.80221">
        <ele>484</ele>
        <time>2015-08-23T09:26:21.000Z</time>
      </trkpt>
      <trkpt lat="47.42744" lon="6.80217">
        <ele>484</ele>
        <time>2015-08-23T09:26:22.000Z</time>
      </trkpt>
      <trkpt lat="47.42745" lon="6.80213">
        <ele>484</ele>
        <time>2015-08-23T09:26:23.000Z</time>
      </trkpt>
      <trkpt lat="47.42745" lon="6.80209">
        <ele>484</ele>
        <time>2015-08-23T09:26:24.000Z</time>
      </trkpt>
      <trkpt lat="47.42746" lon="6.80206">
        <ele>484</ele>
        <time>2015-08-23T09:26:25.000Z</time>
      </trkpt>
      <trkpt lat="47.42747" lon="6.80202">
        <ele>484</ele>
        <time>2015-08-23T09:26:26.000Z</time>
      </trkpt>
      <trkpt lat="47.42748" lon="6.80198">
        <ele>484</ele>
        <time>2015-08-23T09:26:27.000Z</time>
      </trkpt>
      <trkpt lat="47.42749" lon="6.80194">
        <ele>484</ele>
        <time>2015-08-23T09:26:28.000Z</time>
      </trkpt>
      <trkpt lat="47.4275" lon="6.8019">
        <ele>484</ele>
        <time>2015-08-23T09:26:29.000Z</time>
      </trkpt>
      <trkpt lat="47.4275" lon="6.80186">
        <ele>481</ele>
        <time>2015-08-23T09:26:30.000Z</time>
      </trkpt>
      <trkpt lat="47.42751" lon="6.80181">
        <ele>482</ele>
        <time>2015-08-23T09:26:31.000Z</time>
      </trkpt>
      <trkpt lat="47.42752" lon="6.80177">
        <ele>482</ele>
        <time>2015-08-23T09:26:32.000Z</time>
      </trkpt>
      <trkpt lat="47.42753" lon="6.80173">
        <ele>483</ele>
        <time>2015-08-23T09:26:33.000Z</time>
      </trkpt>
      <trkpt lat="47.42753" lon="6.80169">
        <ele>483</ele>
        <time>2015-08-23T09:26:34.000Z</time>
      </trkpt>
      <trkpt lat="47.42754" lon="6.80165">
        <ele>483</ele>
        <time>2015-08-23T09:26:35.000Z</time>
      </trkpt>
      <trkpt lat="47.42754" lon="6.80161">
        <ele>483</ele>
        <time>2015-08-23T09:26:36.000Z</time>
      </trkpt>
      <trkpt lat="47.42755" lon="6.80156">
        <ele>482</ele>
        <time>2015-08-23T09:26:37.000Z</time>
      </trkpt>
      <trkpt lat="47.42755" lon="6.80152">
        <ele>482</ele>
        <time>2015-08-23T09:26:38.000Z</time>
      </trkpt>
      <trkpt lat="47.42754" lon="6.80148">
        <ele>482</ele>
        <time>2015-08-23T09:26:39.000Z</time>
      </trkpt>
      <trkpt lat="47.42754" lon="6.80144">
        <ele>482</ele>
        <time>2015-08-23T09:26:40.000Z</time>
      </trkpt>
      <trkpt lat="47.42754" lon="6.80139">
        <ele>482</ele>
        <time>2015-08-23T09:26:41.000Z</time>
      </trkpt>
      <trkpt lat="47.42755" lon="6.80135">
        <ele>481</ele>
        <time>2015-08-23T09:26:42.000Z</time>
      </trkpt>
      <trkpt lat="47.42756" lon="6.80131">
        <ele>481</ele>
        <time>2015-08-23T09:26:43.000Z</time>
      </trkpt>
      <trkpt lat="47.42758" lon="6.80128">
        <ele>481</ele>
        <time>2015-08-23T09:26:44.000Z</time>
      </trkpt>
      <trkpt lat="47.42759" lon="6.80125">
        <ele>482</ele>
        <time>2015-08-23T09:26:45.000Z</time>
      </trkpt>
      <trkpt lat="47.4276" lon="6.80121">
        <ele>482</ele>
        <time>2015-08-23T09:26:46.000Z</time>
      </trkpt>
      <trkpt lat="47.42761" lon="6.80117">
        <ele>482</ele>
        <time>2015-08-23T09:26:47.000Z</time>
      </trkpt>
      <trkpt lat="47.42762" lon="6.80114">
        <ele>482</ele>
        <time>2015-08-23T09:26:48.000Z</time>
      </trkpt>
      <trkpt lat="47.42762" lon="6.8011">
        <ele>482</ele>
        <time>2015-08-23T09:26:49.000Z</time>
      </trkpt>
      <trkpt lat="47.42763" lon="6.80106">
        <ele>483</ele>
        <time>2015-08-23T09:26:50.000Z</time>
      </trkpt>
      <trkpt lat="47.42763" lon="6.80102">
        <ele>483</ele>
        <time>2015-08-23T09:26:51.000Z</time>
      </trkpt>
      <trkpt lat="47.42764" lon="6.80097">
        <ele>483</ele>
        <time>2015-08-23T09:26:52.000Z</time>
      </trkpt>
      <trkpt lat="47.42764" lon="6.80093">
        <ele>484</ele>
        <time>2015-08-23T09:26:53.000Z</time>
      </trkpt>
      <trkpt lat="47.42765" lon="6.80088">
        <ele>484</ele>
        <time>2015-08-23T09:26:54.000Z</time>
      </trkpt>
      <trkpt lat="47.42765" lon="6.80084">
        <ele>484</ele>
        <time>2015-08-23T09:26:55.000Z</time>
      </trkpt>
      <trkpt lat="47.42765" lon="6.80079">
        <ele>485</ele>
        <time>2015-08-23T09:26:56.000Z</time>
      </trkpt>
      <trkpt lat="47.42765" lon="6.80076">
        <ele>485</ele>
        <time>2015-08-23T09:26:57.000Z</time>
      </trkpt>
      <trkpt lat="47.42765" lon="6.80072">
        <ele>485</ele>
        <time>2015-08-23T09:26:58.000Z</time>
      </trkpt>
      <trkpt lat="47.42764" lon="6.80069">
        <ele>485</ele>
        <time>2015-08-23T09:26:59.000Z</time>
      </trkpt>
      <trkpt lat="47.42764" lon="6.80065">
        <ele>484</ele>
        <time>2015-08-23T09:27:00.000Z</time>
      </trkpt>
      <trkpt lat="47.42764" lon="6.80061">
        <ele>484</ele>
        <time>2015-08-23T09:27:01.000Z</time>
      </trkpt>
      <trkpt lat="47.42764" lon="6.80057">
        <ele>484</ele>
        <time>2015-08-23T09:27:02.000Z</time>
      </trkpt>
      <trkpt lat="47.42764" lon="6.80052">
        <ele>484</ele>
        <time>2015-08-23T09:27:03.000Z</time>
      </trkpt>
      <trkpt lat="47.42764" lon="6.80048">
        <ele>484</ele>
        <time>2015-08-23T09:27:04.000Z</time>
      </trkpt>
      <trkpt lat="47.42764" lon="6.80044">
        <ele>484</ele>
        <time>2015-08-23T09:27:05.000Z</time>
      </trkpt>
      <trkpt lat="47.42765" lon="6.8004">
        <ele>484</ele>
        <time>2015-08-23T09:27:06.000Z</time>
      </trkpt>
      <trkpt lat="47.42765" lon="6.80035">
        <ele>484</ele>
        <time>2015-08-23T09:27:07.000Z</time>
      </trkpt>
      <trkpt lat="47.42765" lon="6.80031">
        <ele>484</ele>
        <time>2015-08-23T09:27:08.000Z</time>
      </trkpt>
      <trkpt lat="47.42766" lon="6.80026">
        <ele>484</ele>
        <time>2015-08-23T09:27:09.000Z</time>
      </trkpt>
      <trkpt lat="47.42766" lon="6.80021">
        <ele>484</ele>
        <time>2015-08-23T09:27:10.000Z</time>
      </trkpt>
      <trkpt lat="47.42766" lon="6.80016">
        <ele>485</ele>
        <time>2015-08-23T09:27:11.000Z</time>
      </trkpt>
      <trkpt lat="47.42767" lon="6.80011">
        <ele>485</ele>
        <time>2015-08-23T09:27:12.000Z</time>
      </trkpt>
      <trkpt lat="47.42766" lon="6.80007">
        <ele>485</ele>
        <time>2015-08-23T09:27:13.000Z</time>
      </trkpt>
      <trkpt lat="47.42766" lon="6.80003">
        <ele>486</ele>
        <time>2015-08-23T09:27:14.000Z</time>
      </trkpt>
      <trkpt lat="47.42767" lon="6.79999">
        <ele>486</ele>
        <time>2015-08-23T09:27:15.000Z</time>
      </trkpt>
      <trkpt lat="47.42767" lon="6.79993">
        <ele>486</ele>
        <time>2015-08-23T09:27:16.000Z</time>
      </trkpt>
      <trkpt lat="47.42767" lon="6.79988">
        <ele>486</ele>
        <time>2015-08-23T09:27:17.000Z</time>
      </trkpt>
      <trkpt lat="47.42768" lon="6.79983">
        <ele>486</ele>
        <time>2015-08-23T09:27:18.000Z</time>
      </trkpt>
      <trkpt lat="47.42768" lon="6.79978">
        <ele>485</ele>
        <time>2015-08-23T09:27:19.000Z</time>
      </trkpt>
      <trkpt lat="47.42768" lon="6.79973">
        <ele>485</ele>
        <time>2015-08-23T09:27:20.000Z</time>
      </trkpt>
      <trkpt lat="47.42769" lon="6.79968">
        <ele>485</ele>
        <time>2015-08-23T09:27:21.000Z</time>
      </trkpt>
      <trkpt lat="47.42769" lon="6.79963">
        <ele>485</ele>
        <time>2015-08-23T09:27:22.000Z</time>
      </trkpt>
      <trkpt lat="47.42769" lon="6.79958">
        <ele>485</ele>
        <time>2015-08-23T09:27:23.000Z</time>
      </trkpt>
      <trkpt lat="47.42769" lon="6.79953">
        <ele>485</ele>
        <time>2015-08-23T09:27:24.000Z</time>
      </trkpt>
      <trkpt lat="47.42769" lon="6.79947">
        <ele>486</ele>
        <time>2015-08-23T09:27:25.000Z</time>
      </trkpt>
      <trkpt lat="47.42769" lon="6.79942">
        <ele>486</ele>
        <time>2015-08-23T09:27:26.000Z</time>
      </trkpt>
      <trkpt lat="47.42769" lon="6.79936">
        <ele>486</ele>
        <time>2015-08-23T09:27:27.000Z</time>
      </trkpt>
      <trkpt lat="47.42769" lon="6.7993">
        <ele>487</ele>
        <time>2015-08-23T09:27:28.000Z</time>
      </trkpt>
      <trkpt lat="47.42769" lon="6.79925">
        <ele>487</ele>
        <time>2015-08-23T09:27:29.000Z</time>
      </trkpt>
      <trkpt lat="47.42769" lon="6.79919">
        <ele>487</ele>
        <time>2015-08-23T09:27:30.000Z</time>
      </trkpt>
      <trkpt lat="47.42769" lon="6.79913">
        <ele>489</ele>
        <time>2015-08-23T09:27:31.000Z</time>
      </trkpt>
      <trkpt lat="47.4277" lon="6.79907">
        <ele>489</ele>
        <time>2015-08-23T09:27:32.000Z</time>
      </trkpt>
      <trkpt lat="47.4277" lon="6.79901">
        <ele>488</ele>
        <time>2015-08-23T09:27:33.000Z</time>
      </trkpt>
      <trkpt lat="47.4277" lon="6.79895">
        <ele>488</ele>
        <time>2015-08-23T09:27:34.000Z</time>
      </trkpt>
      <trkpt lat="47.42771" lon="6.7989">
        <ele>488</ele>
        <time>2015-08-23T09:27:35.000Z</time>
      </trkpt>
      <trkpt lat="47.42771" lon="6.79884">
        <ele>488</ele>
        <time>2015-08-23T09:27:36.000Z</time>
      </trkpt>
      <trkpt lat="47.42773" lon="6.79879">
        <ele>488</ele>
        <time>2015-08-23T09:27:37.000Z</time>
      </trkpt>
      <trkpt lat="47.42774" lon="6.79873">
        <ele>488</ele>
        <time>2015-08-23T09:27:38.000Z</time>
      </trkpt>
      <trkpt lat="47.42776" lon="6.79867">
        <ele>488</ele>
        <time>2015-08-23T09:27:39.000Z</time>
      </trkpt>
      <trkpt lat="47.42777" lon="6.79862">
        <ele>488</ele>
        <time>2015-08-23T09:27:40.000Z</time>
      </trkpt>
      <trkpt lat="47.42779" lon="6.79857">
        <ele>488</ele>
        <time>2015-08-23T09:27:41.000Z</time>
      </trkpt>
      <trkpt lat="47.42781" lon="6.79853">
        <ele>488</ele>
        <time>2015-08-23T09:27:42.000Z</time>
      </trkpt>
      <trkpt lat="47.42784" lon="6.79849">
        <ele>488</ele>
        <time>2015-08-23T09:27:43.000Z</time>
      </trkpt>
      <trkpt lat="47.42787" lon="6.79845">
        <ele>488</ele>
        <time>2015-08-23T09:27:44.000Z</time>
      </trkpt>
      <trkpt lat="47.4279" lon="6.79842">
        <ele>488</ele>
        <time>2015-08-23T09:27:45.000Z</time>
      </trkpt>
      <trkpt lat="47.42792" lon="6.79838">
        <ele>488</ele>
        <time>2015-08-23T09:27:46.000Z</time>
      </trkpt>
      <trkpt lat="47.42802" lon="6.79834">
        <ele>487</ele>
        <time>2015-08-23T09:27:47.000Z</time>
      </trkpt>
      <trkpt lat="47.42804" lon="6.79829">
        <ele>488</ele>
        <time>2015-08-23T09:27:48.000Z</time>
      </trkpt>
      <trkpt lat="47.42808" lon="6.79827">
        <ele>488</ele>
        <time>2015-08-23T09:27:49.000Z</time>
      </trkpt>
      <trkpt lat="47.4281" lon="6.79824">
        <ele>488</ele>
        <time>2015-08-23T09:27:50.000Z</time>
      </trkpt>
      <trkpt lat="47.42812" lon="6.7982">
        <ele>488</ele>
        <time>2015-08-23T09:27:51.000Z</time>
      </trkpt>
      <trkpt lat="47.42814" lon="6.79815">
        <ele>488</ele>
        <time>2015-08-23T09:27:53.000Z</time>
      </trkpt>
      <trkpt lat="47.42815" lon="6.79814">
        <ele>488</ele>
        <time>2015-08-23T09:27:54.000Z</time>
      </trkpt>
      <trkpt lat="47.42818" lon="6.79809">
        <ele>488</ele>
        <time>2015-08-23T09:27:59.000Z</time>
      </trkpt>
      <trkpt lat="47.42818" lon="6.79809">
        <ele>488</ele>
        <time>2015-08-23T09:28:00.000Z</time>
      </trkpt>
      <trkpt lat="47.42822" lon="6.79806">
        <ele>488</ele>
        <time>2015-08-23T09:28:07.000Z</time>
      </trkpt>
      <trkpt lat="47.42823" lon="6.79805">
        <ele>488</ele>
        <time>2015-08-23T09:28:08.000Z</time>
      </trkpt>
      <trkpt lat="47.42827" lon="6.79802">
        <ele>488</ele>
        <time>2015-08-23T09:28:12.000Z</time>
      </trkpt>
      <trkpt lat="47.42827" lon="6.79801">
        <ele>488</ele>
        <time>2015-08-23T09:28:13.000Z</time>
      </trkpt>
      <trkpt lat="47.4283" lon="6.79797">
        <ele>488</ele>
        <time>2015-08-23T09:28:17.000Z</time>
      </trkpt>
      <trkpt lat="47.42831" lon="6.79797">
        <ele>488</ele>
        <time>2015-08-23T09:28:18.000Z</time>
      </trkpt>
      <trkpt lat="47.42834" lon="6.79796">
        <ele>487</ele>
        <time>2015-08-23T09:28:21.000Z</time>
      </trkpt>
      <trkpt lat="47.42835" lon="6.79795">
        <ele>487</ele>
        <time>2015-08-23T09:28:22.000Z</time>
      </trkpt>
      <trkpt lat="47.42838" lon="6.79791">
        <ele>487</ele>
        <time>2015-08-23T09:28:45.000Z</time>
      </trkpt>
      <trkpt lat="47.42839" lon="6.79791">
        <ele>487</ele>
        <time>2015-08-23T09:28:46.000Z</time>
      </trkpt>
      <trkpt lat="47.42842" lon="6.79789">
        <ele>488</ele>
        <time>2015-08-23T09:28:48.000Z</time>
      </trkpt>
      <trkpt lat="47.42844" lon="6.79789">
        <ele>488</ele>
        <time>2015-08-23T09:28:49.000Z</time>
      </trkpt>
      <trkpt lat="47.42847" lon="6.79788">
        <ele>488</ele>
        <time>2015-08-23T09:28:50.000Z</time>
      </trkpt>
      <trkpt lat="47.42849" lon="6.79787">
        <ele>488</ele>
        <time>2015-08-23T09:28:51.000Z</time>
      </trkpt>
      <trkpt lat="47.42852" lon="6.79786">
        <ele>488</ele>
        <time>2015-08-23T09:28:52.000Z</time>
      </trkpt>
      <trkpt lat="47.42855" lon="6.79785">
        <ele>488</ele>
        <time>2015-08-23T09:28:53.000Z</time>
      </trkpt>
      <trkpt lat="47.42859" lon="6.79784">
        <ele>488</ele>
        <time>2015-08-23T09:28:54.000Z</time>
      </trkpt>
      <trkpt lat="47.42862" lon="6.79784">
        <ele>488</ele>
        <time>2015-08-23T09:28:55.000Z</time>
      </trkpt>
      <trkpt lat="47.42865" lon="6.79784">
        <ele>488</ele>
        <time>2015-08-23T09:28:56.000Z</time>
      </trkpt>
      <trkpt lat="47.42868" lon="6.79784">
        <ele>488</ele>
        <time>2015-08-23T09:28:57.000Z</time>
      </trkpt>
      <trkpt lat="47.42871" lon="6.79784">
        <ele>488</ele>
        <time>2015-08-23T09:28:58.000Z</time>
      </trkpt>
      <trkpt lat="47.42873" lon="6.79784">
        <ele>488</ele>
        <time>2015-08-23T09:28:59.000Z</time>
      </trkpt>
      <trkpt lat="47.42876" lon="6.79784">
        <ele>488</ele>
        <time>2015-08-23T09:29:00.000Z</time>
      </trkpt>
      <trkpt lat="47.42879" lon="6.79784">
        <ele>488</ele>
        <time>2015-08-23T09:29:01.000Z</time>
      </trkpt>
      <trkpt lat="47.42882" lon="6.79784">
        <ele>489</ele>
        <time>2015-08-23T09:29:02.000Z</time>
      </trkpt>
      <trkpt lat="47.42885" lon="6.79784">
        <ele>489</ele>
        <time>2015-08-23T09:29:03.000Z</time>
      </trkpt>
      <trkpt lat="47.42888" lon="6.79784">
        <ele>489</ele>
        <time>2015-08-23T09:29:04.000Z</time>
      </trkpt>
      <trkpt lat="47.42891" lon="6.79785">
        <ele>489</ele>
        <time>2015-08-23T09:29:05.000Z</time>
      </trkpt>
      <trkpt lat="47.42894" lon="6.79786">
        <ele>489</ele>
        <time>2015-08-23T09:29:06.000Z</time>
      </trkpt>
      <trkpt lat="47.42898" lon="6.79787">
        <ele>489</ele>
        <time>2015-08-23T09:29:07.000Z</time>
      </trkpt>
      <trkpt lat="47.42901" lon="6.79787">
        <ele>489</ele>
        <time>2015-08-23T09:29:08.000Z</time>
      </trkpt>
      <trkpt lat="47.42904" lon="6.79788">
        <ele>489</ele>
        <time>2015-08-23T09:29:09.000Z</time>
      </trkpt>
      <trkpt lat="47.42907" lon="6.79788">
        <ele>489</ele>
        <time>2015-08-23T09:29:10.000Z</time>
      </trkpt>
      <trkpt lat="47.4291" lon="6.79789">
        <ele>489</ele>
        <time>2015-08-23T09:29:11.000Z</time>
      </trkpt>
      <trkpt lat="47.42913" lon="6.7979">
        <ele>489</ele>
        <time>2015-08-23T09:29:12.000Z</time>
      </trkpt>
      <trkpt lat="47.42916" lon="6.79791">
        <ele>489</ele>
        <time>2015-08-23T09:29:13.000Z</time>
      </trkpt>
      <trkpt lat="47.42919" lon="6.79792">
        <ele>491</ele>
        <time>2015-08-23T09:29:14.000Z</time>
      </trkpt>
      <trkpt lat="47.42923" lon="6.79793">
        <ele>491</ele>
        <time>2015-08-23T09:29:15.000Z</time>
      </trkpt>
      <trkpt lat="47.42926" lon="6.79792">
        <ele>492</ele>
        <time>2015-08-23T09:29:16.000Z</time>
      </trkpt>
      <trkpt lat="47.4293" lon="6.79792">
        <ele>492</ele>
        <time>2015-08-23T09:29:17.000Z</time>
      </trkpt>
      <trkpt lat="47.42934" lon="6.79792">
        <ele>492</ele>
        <time>2015-08-23T09:29:18.000Z</time>
      </trkpt>
      <trkpt lat="47.42938" lon="6.79792">
        <ele>492</ele>
        <time>2015-08-23T09:29:19.000Z</time>
      </trkpt>
      <trkpt lat="47.42942" lon="6.79792">
        <ele>492</ele>
        <time>2015-08-23T09:29:20.000Z</time>
      </trkpt>
      <trkpt lat="47.42946" lon="6.79793">
        <ele>492</ele>
        <time>2015-08-23T09:29:21.000Z</time>
      </trkpt>
      <trkpt lat="47.42949" lon="6.79793">
        <ele>492</ele>
        <time>2015-08-23T09:29:22.000Z</time>
      </trkpt>
      <trkpt lat="47.42952" lon="6.79795">
        <ele>492</ele>
        <time>2015-08-23T09:29:23.000Z</time>
      </trkpt>
      <trkpt lat="47.42956" lon="6.79796">
        <ele>492</ele>
        <time>2015-08-23T09:29:24.000Z</time>
      </trkpt>
      <trkpt lat="47.4296" lon="6.79795">
        <ele>492</ele>
        <time>2015-08-23T09:29:25.000Z</time>
      </trkpt>
      <trkpt lat="47.42963" lon="6.79793">
        <ele>492</ele>
        <time>2015-08-23T09:29:26.000Z</time>
      </trkpt>
      <trkpt lat="47.42966" lon="6.7979">
        <ele>492</ele>
        <time>2015-08-23T09:29:27.000Z</time>
      </trkpt>
      <trkpt lat="47.42969" lon="6.79786">
        <ele>492</ele>
        <time>2015-08-23T09:29:28.000Z</time>
      </trkpt>
      <trkpt lat="47.42971" lon="6.7978">
        <ele>492</ele>
        <time>2015-08-23T09:29:29.000Z</time>
      </trkpt>
      <trkpt lat="47.42971" lon="6.79774">
        <ele>492</ele>
        <time>2015-08-23T09:29:30.000Z</time>
      </trkpt>
      <trkpt lat="47.42972" lon="6.79767">
        <ele>492</ele>
        <time>2015-08-23T09:29:31.000Z</time>
      </trkpt>
      <trkpt lat="47.42972" lon="6.7976">
        <ele>492</ele>
        <time>2015-08-23T09:29:32.000Z</time>
      </trkpt>
      <trkpt lat="47.42971" lon="6.79754">
        <ele>492</ele>
        <time>2015-08-23T09:29:33.000Z</time>
      </trkpt>
      <trkpt lat="47.4297" lon="6.79748">
        <ele>492</ele>
        <time>2015-08-23T09:29:34.000Z</time>
      </trkpt>
      <trkpt lat="47.42969" lon="6.79742">
        <ele>492</ele>
        <time>2015-08-23T09:29:35.000Z</time>
      </trkpt>
      <trkpt lat="47.42969" lon="6.79737">
        <ele>492</ele>
        <time>2015-08-23T09:29:36.000Z</time>
      </trkpt>
      <trkpt lat="47.42969" lon="6.79731">
        <ele>492</ele>
        <time>2015-08-23T09:29:37.000Z</time>
      </trkpt>
      <trkpt lat="47.42969" lon="6.79727">
        <ele>492</ele>
        <time>2015-08-23T09:29:38.000Z</time>
      </trkpt>
      <trkpt lat="47.4297" lon="6.79722">
        <ele>492</ele>
        <time>2015-08-23T09:29:39.000Z</time>
      </trkpt>
      <trkpt lat="47.42971" lon="6.79719">
        <ele>492</ele>
        <time>2015-08-23T09:29:40.000Z</time>
      </trkpt>
      <trkpt lat="47.42973" lon="6.79714">
        <ele>492</ele>
        <time>2015-08-23T09:29:42.000Z</time>
      </trkpt>
      <trkpt lat="47.42974" lon="6.79711">
        <ele>492</ele>
        <time>2015-08-23T09:29:43.000Z</time>
      </trkpt>
      <trkpt lat="47.42976" lon="6.79707">
        <ele>492</ele>
        <time>2015-08-23T09:29:44.000Z</time>
      </trkpt>
      <trkpt lat="47.42978" lon="6.79703">
        <ele>492</ele>
        <time>2015-08-23T09:29:45.000Z</time>
      </trkpt>
      <trkpt lat="47.42979" lon="6.79698">
        <ele>492</ele>
        <time>2015-08-23T09:29:46.000Z</time>
      </trkpt>
      <trkpt lat="47.4298" lon="6.79694">
        <ele>492</ele>
        <time>2015-08-23T09:29:47.000Z</time>
      </trkpt>
      <trkpt lat="47.4298" lon="6.79689">
        <ele>493</ele>
        <time>2015-08-23T09:29:48.000Z</time>
      </trkpt>
      <trkpt lat="47.42981" lon="6.79684">
        <ele>493</ele>
        <time>2015-08-23T09:29:49.000Z</time>
      </trkpt>
      <trkpt lat="47.42982" lon="6.79679">
        <ele>493</ele>
        <time>2015-08-23T09:29:50.000Z</time>
      </trkpt>
      <trkpt lat="47.42983" lon="6.79676">
        <ele>493</ele>
        <time>2015-08-23T09:29:51.000Z</time>
      </trkpt>
      <trkpt lat="47.42984" lon="6.79673">
        <ele>493</ele>
        <time>2015-08-23T09:29:52.000Z</time>
      </trkpt>
      <trkpt lat="47.42986" lon="6.79671">
        <ele>493</ele>
        <time>2015-08-23T09:29:53.000Z</time>
      </trkpt>
      <trkpt lat="47.42988" lon="6.79668">
        <ele>493</ele>
        <time>2015-08-23T09:29:54.000Z</time>
      </trkpt>
      <trkpt lat="47.4299" lon="6.79665">
        <ele>492</ele>
        <time>2015-08-23T09:29:55.000Z</time>
      </trkpt>
      <trkpt lat="47.42993" lon="6.79661">
        <ele>492</ele>
        <time>2015-08-23T09:29:56.000Z</time>
      </trkpt>
      <trkpt lat="47.42996" lon="6.79657">
        <ele>492</ele>
        <time>2015-08-23T09:29:57.000Z</time>
      </trkpt>
      <trkpt lat="47.42999" lon="6.79653">
        <ele>492</ele>
        <time>2015-08-23T09:29:58.000Z</time>
      </trkpt>
      <trkpt lat="47.43002" lon="6.79648">
        <ele>491</ele>
        <time>2015-08-23T09:29:59.000Z</time>
      </trkpt>
      <trkpt lat="47.43004" lon="6.79643">
        <ele>491</ele>
        <time>2015-08-23T09:30:00.000Z</time>
      </trkpt>
      <trkpt lat="47.43007" lon="6.79637">
        <ele>490</ele>
        <time>2015-08-23T09:30:01.000Z</time>
      </trkpt>
      <trkpt lat="47.43008" lon="6.79631">
        <ele>490</ele>
        <time>2015-08-23T09:30:02.000Z</time>
      </trkpt>
      <trkpt lat="47.43009" lon="6.79626">
        <ele>490</ele>
        <time>2015-08-23T09:30:03.000Z</time>
      </trkpt>
      <trkpt lat="47.4301" lon="6.79621">
        <ele>489</ele>
        <time>2015-08-23T09:30:04.000Z</time>
      </trkpt>
      <trkpt lat="47.43009" lon="6.79616">
        <ele>489</ele>
        <time>2015-08-23T09:30:05.000Z</time>
      </trkpt>
      <trkpt lat="47.43008" lon="6.79612">
        <ele>489</ele>
        <time>2015-08-23T09:30:06.000Z</time>
      </trkpt>
      <trkpt lat="47.43007" lon="6.79608">
        <ele>489</ele>
        <time>2015-08-23T09:30:07.000Z</time>
      </trkpt>
      <trkpt lat="47.43006" lon="6.79604">
        <ele>488</ele>
        <time>2015-08-23T09:30:08.000Z</time>
      </trkpt>
      <trkpt lat="47.43006" lon="6.796">
        <ele>488</ele>
        <time>2015-08-23T09:30:09.000Z</time>
      </trkpt>
      <trkpt lat="47.43006" lon="6.79594">
        <ele>488</ele>
        <time>2015-08-23T09:30:11.000Z</time>
      </trkpt>
      <trkpt lat="47.43007" lon="6.79591">
        <ele>488</ele>
        <time>2015-08-23T09:30:12.000Z</time>
      </trkpt>
      <trkpt lat="47.43011" lon="6.79589">
        <ele>488</ele>
        <time>2015-08-23T09:30:14.000Z</time>
      </trkpt>
      <trkpt lat="47.43013" lon="6.79589">
        <ele>488</ele>
        <time>2015-08-23T09:30:15.000Z</time>
      </trkpt>
      <trkpt lat="47.43015" lon="6.7959">
        <ele>488</ele>
        <time>2015-08-23T09:30:16.000Z</time>
      </trkpt>
      <trkpt lat="47.43017" lon="6.7959">
        <ele>488</ele>
        <time>2015-08-23T09:30:17.000Z</time>
      </trkpt>
      <trkpt lat="47.4302" lon="6.79589">
        <ele>488</ele>
        <time>2015-08-23T09:30:18.000Z</time>
      </trkpt>
      <trkpt lat="47.43023" lon="6.79589">
        <ele>488</ele>
        <time>2015-08-23T09:30:19.000Z</time>
      </trkpt>
      <trkpt lat="47.43026" lon="6.7959">
        <ele>488</ele>
        <time>2015-08-23T09:30:20.000Z</time>
      </trkpt>
      <trkpt lat="47.43028" lon="6.79591">
        <ele>488</ele>
        <time>2015-08-23T09:30:21.000Z</time>
      </trkpt>
      <trkpt lat="47.43031" lon="6.79593">
        <ele>488</ele>
        <time>2015-08-23T09:30:22.000Z</time>
      </trkpt>
      <trkpt lat="47.43034" lon="6.79596">
        <ele>488</ele>
        <time>2015-08-23T09:30:23.000Z</time>
      </trkpt>
      <trkpt lat="47.43037" lon="6.79598">
        <ele>488</ele>
        <time>2015-08-23T09:30:24.000Z</time>
      </trkpt>
      <trkpt lat="47.43039" lon="6.79599">
        <ele>488</ele>
        <time>2015-08-23T09:30:25.000Z</time>
      </trkpt>
      <trkpt lat="47.43042" lon="6.796">
        <ele>488</ele>
        <time>2015-08-23T09:30:26.000Z</time>
      </trkpt>
      <trkpt lat="47.43044" lon="6.796">
        <ele>488</ele>
        <time>2015-08-23T09:30:27.000Z</time>
      </trkpt>
      <trkpt lat="47.43046" lon="6.796">
        <ele>488</ele>
        <time>2015-08-23T09:30:28.000Z</time>
      </trkpt>
      <trkpt lat="47.43049" lon="6.79599">
        <ele>488</ele>
        <time>2015-08-23T09:30:29.000Z</time>
      </trkpt>
      <trkpt lat="47.43052" lon="6.79598">
        <ele>488</ele>
        <time>2015-08-23T09:30:30.000Z</time>
      </trkpt>
      <trkpt lat="47.43055" lon="6.79597">
        <ele>488</ele>
        <time>2015-08-23T09:30:31.000Z</time>
      </trkpt>
      <trkpt lat="47.43058" lon="6.79597">
        <ele>488</ele>
        <time>2015-08-23T09:30:32.000Z</time>
      </trkpt>
      <trkpt lat="47.4306" lon="6.79597">
        <ele>488</ele>
        <time>2015-08-23T09:30:33.000Z</time>
      </trkpt>
      <trkpt lat="47.43062" lon="6.79597">
        <ele>488</ele>
        <time>2015-08-23T09:30:34.000Z</time>
      </trkpt>
      <trkpt lat="47.43065" lon="6.79596">
        <ele>488</ele>
        <time>2015-08-23T09:30:35.000Z</time>
      </trkpt>
      <trkpt lat="47.43067" lon="6.79595">
        <ele>487</ele>
        <time>2015-08-23T09:30:36.000Z</time>
      </trkpt>
      <trkpt lat="47.43069" lon="6.79594">
        <ele>487</ele>
        <time>2015-08-23T09:30:37.000Z</time>
      </trkpt>
      <trkpt lat="47.43071" lon="6.79594">
        <ele>487</ele>
        <time>2015-08-23T09:30:38.000Z</time>
      </trkpt>
      <trkpt lat="47.43074" lon="6.79593">
        <ele>487</ele>
        <time>2015-08-23T09:30:39.000Z</time>
      </trkpt>
      <trkpt lat="47.43077" lon="6.79593">
        <ele>487</ele>
        <time>2015-08-23T09:30:40.000Z</time>
      </trkpt>
      <trkpt lat="47.4308" lon="6.79593">
        <ele>486</ele>
        <time>2015-08-23T09:30:41.000Z</time>
      </trkpt>
      <trkpt lat="47.43083" lon="6.79593">
        <ele>486</ele>
        <time>2015-08-23T09:30:42.000Z</time>
      </trkpt>
      <trkpt lat="47.43086" lon="6.79593">
        <ele>486</ele>
        <time>2015-08-23T09:30:43.000Z</time>
      </trkpt>
      <trkpt lat="47.4309" lon="6.79592">
        <ele>486</ele>
        <time>2015-08-23T09:30:44.000Z</time>
      </trkpt>
      <trkpt lat="47.43094" lon="6.79592">
        <ele>486</ele>
        <time>2015-08-23T09:30:45.000Z</time>
      </trkpt>
      <trkpt lat="47.43097" lon="6.79591">
        <ele>487</ele>
        <time>2015-08-23T09:30:46.000Z</time>
      </trkpt>
      <trkpt lat="47.431" lon="6.79592">
        <ele>487</ele>
        <time>2015-08-23T09:30:47.000Z</time>
      </trkpt>
      <trkpt lat="47.43103" lon="6.79593">
        <ele>487</ele>
        <time>2015-08-23T09:30:48.000Z</time>
      </trkpt>
      <trkpt lat="47.43106" lon="6.79595">
        <ele>487</ele>
        <time>2015-08-23T09:30:49.000Z</time>
      </trkpt>
      <trkpt lat="47.43109" lon="6.79598">
        <ele>487</ele>
        <time>2015-08-23T09:30:50.000Z</time>
      </trkpt>
      <trkpt lat="47.43113" lon="6.79601">
        <ele>488</ele>
        <time>2015-08-23T09:30:51.000Z</time>
      </trkpt>
      <trkpt lat="47.43117" lon="6.79604">
        <ele>488</ele>
        <time>2015-08-23T09:30:52.000Z</time>
      </trkpt>
      <trkpt lat="47.43122" lon="6.79608">
        <ele>488</ele>
        <time>2015-08-23T09:30:53.000Z</time>
      </trkpt>
      <trkpt lat="47.43126" lon="6.7961">
        <ele>488</ele>
        <time>2015-08-23T09:30:54.000Z</time>
      </trkpt>
      <trkpt lat="47.43131" lon="6.79612">
        <ele>488</ele>
        <time>2015-08-23T09:30:55.000Z</time>
      </trkpt>
      <trkpt lat="47.43135" lon="6.79612">
        <ele>488</ele>
        <time>2015-08-23T09:30:56.000Z</time>
      </trkpt>
      <trkpt lat="47.43139" lon="6.79611">
        <ele>488</ele>
        <time>2015-08-23T09:30:57.000Z</time>
      </trkpt>
      <trkpt lat="47.43145" lon="6.79596">
        <ele>487</ele>
        <time>2015-08-23T09:30:58.000Z</time>
      </trkpt>
      <trkpt lat="47.43148" lon="6.7959">
        <ele>487</ele>
        <time>2015-08-23T09:30:59.000Z</time>
      </trkpt>
      <trkpt lat="47.43152" lon="6.79583">
        <ele>487</ele>
        <time>2015-08-23T09:31:00.000Z</time>
      </trkpt>
      <trkpt lat="47.43156" lon="6.79577">
        <ele>477</ele>
        <time>2015-08-23T09:31:01.000Z</time>
      </trkpt>
      <trkpt lat="47.43159" lon="6.79574">
        <ele>477</ele>
        <time>2015-08-23T09:31:02.000Z</time>
      </trkpt>
      <trkpt lat="47.43165" lon="6.79573">
        <ele>478</ele>
        <time>2015-08-23T09:31:03.000Z</time>
      </trkpt>
      <trkpt lat="47.43174" lon="6.79574">
        <ele>477</ele>
        <time>2015-08-23T09:31:04.000Z</time>
      </trkpt>
      <trkpt lat="47.43179" lon="6.79575">
        <ele>476</ele>
        <time>2015-08-23T09:31:05.000Z</time>
      </trkpt>
      <trkpt lat="47.43184" lon="6.79576">
        <ele>475</ele>
        <time>2015-08-23T09:31:06.000Z</time>
      </trkpt>
      <trkpt lat="47.43192" lon="6.79571">
        <ele>472</ele>
        <time>2015-08-23T09:31:07.000Z</time>
      </trkpt>
      <trkpt lat="47.43198" lon="6.79569">
        <ele>471</ele>
        <time>2015-08-23T09:31:08.000Z</time>
      </trkpt>
      <trkpt lat="47.43203" lon="6.79568">
        <ele>471</ele>
        <time>2015-08-23T09:31:09.000Z</time>
      </trkpt>
      <trkpt lat="47.43208" lon="6.79571">
        <ele>471</ele>
        <time>2015-08-23T09:31:10.000Z</time>
      </trkpt>
      <trkpt lat="47.43213" lon="6.79574">
        <ele>472</ele>
        <time>2015-08-23T09:31:11.000Z</time>
      </trkpt>
      <trkpt lat="47.43219" lon="6.79577">
        <ele>473</ele>
        <time>2015-08-23T09:31:12.000Z</time>
      </trkpt>
      <trkpt lat="47.43226" lon="6.79578">
        <ele>475</ele>
        <time>2015-08-23T09:31:13.000Z</time>
      </trkpt>
      <trkpt lat="47.43233" lon="6.79578">
        <ele>477</ele>
        <time>2015-08-23T09:31:14.000Z</time>
      </trkpt>
      <trkpt lat="47.43239" lon="6.79573">
        <ele>477</ele>
        <time>2015-08-23T09:31:15.000Z</time>
      </trkpt>
      <trkpt lat="47.43246" lon="6.79571">
        <ele>478</ele>
        <time>2015-08-23T09:31:16.000Z</time>
      </trkpt>
      <trkpt lat="47.43251" lon="6.79573">
        <ele>480</ele>
        <time>2015-08-23T09:31:17.000Z</time>
      </trkpt>
      <trkpt lat="47.43255" lon="6.79576">
        <ele>481</ele>
        <time>2015-08-23T09:31:18.000Z</time>
      </trkpt>
      <trkpt lat="47.43261" lon="6.79577">
        <ele>479</ele>
        <time>2015-08-23T09:31:19.000Z</time>
      </trkpt>
      <trkpt lat="47.43267" lon="6.79576">
        <ele>477</ele>
        <time>2015-08-23T09:31:20.000Z</time>
      </trkpt>
      <trkpt lat="47.43274" lon="6.79576">
        <ele>475</ele>
        <time>2015-08-23T09:31:21.000Z</time>
      </trkpt>
      <trkpt lat="47.43279" lon="6.79574">
        <ele>474</ele>
        <time>2015-08-23T09:31:22.000Z</time>
      </trkpt>
      <trkpt lat="47.43286" lon="6.79575">
        <ele>474</ele>
        <time>2015-08-23T09:31:23.000Z</time>
      </trkpt>
      <trkpt lat="47.43292" lon="6.79575">
        <ele>473</ele>
        <time>2015-08-23T09:31:24.000Z</time>
      </trkpt>
      <trkpt lat="47.43299" lon="6.79571">
        <ele>473</ele>
        <time>2015-08-23T09:31:25.000Z</time>
      </trkpt>
      <trkpt lat="47.43307" lon="6.79563">
        <ele>472</ele>
        <time>2015-08-23T09:31:26.000Z</time>
      </trkpt>
      <trkpt lat="47.43313" lon="6.79558">
        <ele>471</ele>
        <time>2015-08-23T09:31:27.000Z</time>
      </trkpt>
      <trkpt lat="47.4332" lon="6.79558">
        <ele>472</ele>
        <time>2015-08-23T09:31:28.000Z</time>
      </trkpt>
      <trkpt lat="47.43325" lon="6.79558">
        <ele>472</ele>
        <time>2015-08-23T09:31:29.000Z</time>
      </trkpt>
      <trkpt lat="47.43331" lon="6.79554">
        <ele>471</ele>
        <time>2015-08-23T09:31:30.000Z</time>
      </trkpt>
      <trkpt lat="47.43337" lon="6.79552">
        <ele>473</ele>
        <time>2015-08-23T09:31:31.000Z</time>
      </trkpt>
      <trkpt lat="47.43345" lon="6.79554">
        <ele>474</ele>
        <time>2015-08-23T09:31:32.000Z</time>
      </trkpt>
      <trkpt lat="47.43351" lon="6.79553">
        <ele>473</ele>
        <time>2015-08-23T09:31:33.000Z</time>
      </trkpt>
      <trkpt lat="47.43355" lon="6.79551">
        <ele>473</ele>
        <time>2015-08-23T09:31:34.000Z</time>
      </trkpt>
      <trkpt lat="47.43359" lon="6.79547">
        <ele>472</ele>
        <time>2015-08-23T09:31:35.000Z</time>
      </trkpt>
      <trkpt lat="47.43362" lon="6.79551">
        <ele>473</ele>
        <time>2015-08-23T09:31:36.000Z</time>
      </trkpt>
      <trkpt lat="47.43366" lon="6.79551">
        <ele>473</ele>
        <time>2015-08-23T09:31:37.000Z</time>
      </trkpt>
      <trkpt lat="47.4337" lon="6.79549">
        <ele>473</ele>
        <time>2015-08-23T09:31:38.000Z</time>
      </trkpt>
      <trkpt lat="47.43375" lon="6.79547">
        <ele>472</ele>
        <time>2015-08-23T09:31:39.000Z</time>
      </trkpt>
      <trkpt lat="47.43383" lon="6.79544">
        <ele>472</ele>
        <time>2015-08-23T09:31:40.000Z</time>
      </trkpt>
      <trkpt lat="47.43389" lon="6.7954">
        <ele>472</ele>
        <time>2015-08-23T09:31:41.000Z</time>
      </trkpt>
      <trkpt lat="47.43397" lon="6.79538">
        <ele>472</ele>
        <time>2015-08-23T09:31:42.000Z</time>
      </trkpt>
      <trkpt lat="47.43404" lon="6.79537">
        <ele>472</ele>
        <time>2015-08-23T09:31:43.000Z</time>
      </trkpt>
      <trkpt lat="47.4341" lon="6.79541">
        <ele>473</ele>
        <time>2015-08-23T09:31:44.000Z</time>
      </trkpt>
      <trkpt lat="47.43417" lon="6.79534">
        <ele>476</ele>
        <time>2015-08-23T09:31:45.000Z</time>
      </trkpt>
      <trkpt lat="47.43423" lon="6.79532">
        <ele>476</ele>
        <time>2015-08-23T09:31:46.000Z</time>
      </trkpt>
      <trkpt lat="47.43428" lon="6.79529">
        <ele>476</ele>
        <time>2015-08-23T09:31:47.000Z</time>
      </trkpt>
      <trkpt lat="47.4343" lon="6.79528">
        <ele>476</ele>
        <time>2015-08-23T09:31:48.000Z</time>
      </trkpt>
      <trkpt lat="47.43436" lon="6.79527">
        <ele>476</ele>
        <time>2015-08-23T09:31:49.000Z</time>
      </trkpt>
      <trkpt lat="47.4344" lon="6.79526">
        <ele>476</ele>
        <time>2015-08-23T09:31:50.000Z</time>
      </trkpt>
      <trkpt lat="47.43444" lon="6.79525">
        <ele>476</ele>
        <time>2015-08-23T09:31:51.000Z</time>
      </trkpt>
      <trkpt lat="47.43449" lon="6.79523">
        <ele>477</ele>
        <time>2015-08-23T09:31:52.000Z</time>
      </trkpt>
      <trkpt lat="47.43452" lon="6.79517">
        <ele>477</ele>
        <time>2015-08-23T09:31:53.000Z</time>
      </trkpt>
      <trkpt lat="47.43454" lon="6.79513">
        <ele>477</ele>
        <time>2015-08-23T09:31:54.000Z</time>
      </trkpt>
      <trkpt lat="47.43457" lon="6.79511">
        <ele>477</ele>
        <time>2015-08-23T09:31:55.000Z</time>
      </trkpt>
      <trkpt lat="47.43461" lon="6.79513">
        <ele>477</ele>
        <time>2015-08-23T09:31:56.000Z</time>
      </trkpt>
      <trkpt lat="47.43464" lon="6.79513">
        <ele>478</ele>
        <time>2015-08-23T09:31:57.000Z</time>
      </trkpt>
      <trkpt lat="47.43466" lon="6.79512">
        <ele>478</ele>
        <time>2015-08-23T09:31:58.000Z</time>
      </trkpt>
      <trkpt lat="47.43468" lon="6.79512">
        <ele>478</ele>
        <time>2015-08-23T09:31:59.000Z</time>
      </trkpt>
      <trkpt lat="47.43471" lon="6.79511">
        <ele>478</ele>
        <time>2015-08-23T09:32:00.000Z</time>
      </trkpt>
      <trkpt lat="47.43473" lon="6.7951">
        <ele>478</ele>
        <time>2015-08-23T09:32:01.000Z</time>
      </trkpt>
      <trkpt lat="47.43475" lon="6.79508">
        <ele>478</ele>
        <time>2015-08-23T09:32:02.000Z</time>
      </trkpt>
      <trkpt lat="47.43478" lon="6.79506">
        <ele>479</ele>
        <time>2015-08-23T09:32:03.000Z</time>
      </trkpt>
      <trkpt lat="47.4348" lon="6.79503">
        <ele>479</ele>
        <time>2015-08-23T09:32:04.000Z</time>
      </trkpt>
      <trkpt lat="47.43483" lon="6.79501">
        <ele>479</ele>
        <time>2015-08-23T09:32:05.000Z</time>
      </trkpt>
      <trkpt lat="47.43486" lon="6.79498">
        <ele>468</ele>
        <time>2015-08-23T09:32:06.000Z</time>
      </trkpt>
      <trkpt lat="47.4349" lon="6.79496">
        <ele>470</ele>
        <time>2015-08-23T09:32:07.000Z</time>
      </trkpt>
      <trkpt lat="47.43493" lon="6.79494">
        <ele>471</ele>
        <time>2015-08-23T09:32:08.000Z</time>
      </trkpt>
      <trkpt lat="47.43497" lon="6.79493">
        <ele>472</ele>
        <time>2015-08-23T09:32:09.000Z</time>
      </trkpt>
      <trkpt lat="47.435" lon="6.79492">
        <ele>472</ele>
        <time>2015-08-23T09:32:10.000Z</time>
      </trkpt>
      <trkpt lat="47.43503" lon="6.79491">
        <ele>476</ele>
        <time>2015-08-23T09:32:11.000Z</time>
      </trkpt>
      <trkpt lat="47.43507" lon="6.7949">
        <ele>475</ele>
        <time>2015-08-23T09:32:12.000Z</time>
      </trkpt>
      <trkpt lat="47.43511" lon="6.79489">
        <ele>474</ele>
        <time>2015-08-23T09:32:13.000Z</time>
      </trkpt>
      <trkpt lat="47.43515" lon="6.79487">
        <ele>473</ele>
        <time>2015-08-23T09:32:14.000Z</time>
      </trkpt>
      <trkpt lat="47.43519" lon="6.79486">
        <ele>472</ele>
        <time>2015-08-23T09:32:15.000Z</time>
      </trkpt>
      <trkpt lat="47.43522" lon="6.79484">
        <ele>472</ele>
        <time>2015-08-23T09:32:16.000Z</time>
      </trkpt>
      <trkpt lat="47.43525" lon="6.79483">
        <ele>471</ele>
        <time>2015-08-23T09:32:17.000Z</time>
      </trkpt>
      <trkpt lat="47.43529" lon="6.79482">
        <ele>471</ele>
        <time>2015-08-23T09:32:18.000Z</time>
      </trkpt>
      <trkpt lat="47.43532" lon="6.7948">
        <ele>471</ele>
        <time>2015-08-23T09:32:19.000Z</time>
      </trkpt>
      <trkpt lat="47.43536" lon="6.79479">
        <ele>470</ele>
        <time>2015-08-23T09:32:20.000Z</time>
      </trkpt>
      <trkpt lat="47.43539" lon="6.79477">
        <ele>470</ele>
        <time>2015-08-23T09:32:21.000Z</time>
      </trkpt>
      <trkpt lat="47.43543" lon="6.79475">
        <ele>470</ele>
        <time>2015-08-23T09:32:22.000Z</time>
      </trkpt>
      <trkpt lat="47.43547" lon="6.79472">
        <ele>470</ele>
        <time>2015-08-23T09:32:23.000Z</time>
      </trkpt>
      <trkpt lat="47.4355" lon="6.7947">
        <ele>470</ele>
        <time>2015-08-23T09:32:24.000Z</time>
      </trkpt>
      <trkpt lat="47.43554" lon="6.79468">
        <ele>470</ele>
        <time>2015-08-23T09:32:25.000Z</time>
      </trkpt>
      <trkpt lat="47.43558" lon="6.79466">
        <ele>470</ele>
        <time>2015-08-23T09:32:26.000Z</time>
      </trkpt>
      <trkpt lat="47.43562" lon="6.79464">
        <ele>470</ele>
        <time>2015-08-23T09:32:27.000Z</time>
      </trkpt>
      <trkpt lat="47.43566" lon="6.79461">
        <ele>470</ele>
        <time>2015-08-23T09:32:28.000Z</time>
      </trkpt>
      <trkpt lat="47.4357" lon="6.79458">
        <ele>469</ele>
        <time>2015-08-23T09:32:29.000Z</time>
      </trkpt>
      <trkpt lat="47.43574" lon="6.79456">
        <ele>469</ele>
        <time>2015-08-23T09:32:30.000Z</time>
      </trkpt>
      <trkpt lat="47.43578" lon="6.79453">
        <ele>469</ele>
        <time>2015-08-23T09:32:31.000Z</time>
      </trkpt>
      <trkpt lat="47.43582" lon="6.79451">
        <ele>469</ele>
        <time>2015-08-23T09:32:32.000Z</time>
      </trkpt>
      <trkpt lat="47.43587" lon="6.7945">
        <ele>472</ele>
        <time>2015-08-23T09:32:33.000Z</time>
      </trkpt>
      <trkpt lat="47.43591" lon="6.7945">
        <ele>472</ele>
        <time>2015-08-23T09:32:34.000Z</time>
      </trkpt>
      <trkpt lat="47.43596" lon="6.7945">
        <ele>472</ele>
        <time>2015-08-23T09:32:35.000Z</time>
      </trkpt>
      <trkpt lat="47.436" lon="6.79451">
        <ele>472</ele>
        <time>2015-08-23T09:32:36.000Z</time>
      </trkpt>
      <trkpt lat="47.43604" lon="6.79453">
        <ele>473</ele>
        <time>2015-08-23T09:32:37.000Z</time>
      </trkpt>
      <trkpt lat="47.43609" lon="6.79456">
        <ele>473</ele>
        <time>2015-08-23T09:32:38.000Z</time>
      </trkpt>
      <trkpt lat="47.43615" lon="6.79457">
        <ele>473</ele>
        <time>2015-08-23T09:32:39.000Z</time>
      </trkpt>
      <trkpt lat="47.4362" lon="6.79459">
        <ele>473</ele>
        <time>2015-08-23T09:32:40.000Z</time>
      </trkpt>
      <trkpt lat="47.43625" lon="6.79459">
        <ele>473</ele>
        <time>2015-08-23T09:32:41.000Z</time>
      </trkpt>
      <trkpt lat="47.4363" lon="6.7946">
        <ele>473</ele>
        <time>2015-08-23T09:32:42.000Z</time>
      </trkpt>
      <trkpt lat="47.4364" lon="6.79456">
        <ele>473</ele>
        <time>2015-08-23T09:32:43.000Z</time>
      </trkpt>
      <trkpt lat="47.43645" lon="6.79453">
        <ele>473</ele>
        <time>2015-08-23T09:32:44.000Z</time>
      </trkpt>
      <trkpt lat="47.4365" lon="6.79451">
        <ele>473</ele>
        <time>2015-08-23T09:32:45.000Z</time>
      </trkpt>
      <trkpt lat="47.43657" lon="6.79451">
        <ele>472</ele>
        <time>2015-08-23T09:32:46.000Z</time>
      </trkpt>
      <trkpt lat="47.43665" lon="6.79451">
        <ele>472</ele>
        <time>2015-08-23T09:32:47.000Z</time>
      </trkpt>
      <trkpt lat="47.43675" lon="6.79449">
        <ele>472</ele>
        <time>2015-08-23T09:32:48.000Z</time>
      </trkpt>
      <trkpt lat="47.4368" lon="6.79446">
        <ele>472</ele>
        <time>2015-08-23T09:32:49.000Z</time>
      </trkpt>
      <trkpt lat="47.43686" lon="6.79442">
        <ele>471</ele>
        <time>2015-08-23T09:32:50.000Z</time>
      </trkpt>
      <trkpt lat="47.43692" lon="6.79441">
        <ele>471</ele>
        <time>2015-08-23T09:32:51.000Z</time>
      </trkpt>
      <trkpt lat="47.43699" lon="6.79439">
        <ele>471</ele>
        <time>2015-08-23T09:32:52.000Z</time>
      </trkpt>
      <trkpt lat="47.43706" lon="6.79439">
        <ele>472</ele>
        <time>2015-08-23T09:32:53.000Z</time>
      </trkpt>
      <trkpt lat="47.43712" lon="6.79438">
        <ele>472</ele>
        <time>2015-08-23T09:32:54.000Z</time>
      </trkpt>
      <trkpt lat="47.4372" lon="6.79437">
        <ele>471</ele>
        <time>2015-08-23T09:32:55.000Z</time>
      </trkpt>
      <trkpt lat="47.43726" lon="6.79432">
        <ele>471</ele>
        <time>2015-08-23T09:32:56.000Z</time>
      </trkpt>
      <trkpt lat="47.43731" lon="6.79429">
        <ele>471</ele>
        <time>2015-08-23T09:32:57.000Z</time>
      </trkpt>
      <trkpt lat="47.43735" lon="6.79429">
        <ele>471</ele>
        <time>2015-08-23T09:32:58.000Z</time>
      </trkpt>
      <trkpt lat="47.4374" lon="6.79429">
        <ele>471</ele>
        <time>2015-08-23T09:32:59.000Z</time>
      </trkpt>
      <trkpt lat="47.43747" lon="6.79428">
        <ele>471</ele>
        <time>2015-08-23T09:33:00.000Z</time>
      </trkpt>
      <trkpt lat="47.43753" lon="6.79428">
        <ele>470</ele>
        <time>2015-08-23T09:33:01.000Z</time>
      </trkpt>
      <trkpt lat="47.43757" lon="6.79428">
        <ele>470</ele>
        <time>2015-08-23T09:33:02.000Z</time>
      </trkpt>
      <trkpt lat="47.43763" lon="6.79427">
        <ele>469</ele>
        <time>2015-08-23T09:33:03.000Z</time>
      </trkpt>
      <trkpt lat="47.4377" lon="6.79428">
        <ele>469</ele>
        <time>2015-08-23T09:33:04.000Z</time>
      </trkpt>
      <trkpt lat="47.43775" lon="6.79427">
        <ele>469</ele>
        <time>2015-08-23T09:33:05.000Z</time>
      </trkpt>
      <trkpt lat="47.43783" lon="6.79426">
        <ele>469</ele>
        <time>2015-08-23T09:33:06.000Z</time>
      </trkpt>
      <trkpt lat="47.4379" lon="6.79423">
        <ele>469</ele>
        <time>2015-08-23T09:33:07.000Z</time>
      </trkpt>
      <trkpt lat="47.43794" lon="6.79423">
        <ele>468</ele>
        <time>2015-08-23T09:33:08.000Z</time>
      </trkpt>
      <trkpt lat="47.43798" lon="6.79426">
        <ele>468</ele>
        <time>2015-08-23T09:33:09.000Z</time>
      </trkpt>
      <trkpt lat="47.43802" lon="6.79424">
        <ele>468</ele>
        <time>2015-08-23T09:33:10.000Z</time>
      </trkpt>
      <trkpt lat="47.43806" lon="6.79421">
        <ele>468</ele>
        <time>2015-08-23T09:33:11.000Z</time>
      </trkpt>
      <trkpt lat="47.4381" lon="6.79421">
        <ele>467</ele>
        <time>2015-08-23T09:33:12.000Z</time>
      </trkpt>
      <trkpt lat="47.43814" lon="6.79422">
        <ele>467</ele>
        <time>2015-08-23T09:33:13.000Z</time>
      </trkpt>
      <trkpt lat="47.43816" lon="6.79422">
        <ele>467</ele>
        <time>2015-08-23T09:33:14.000Z</time>
      </trkpt>
      <trkpt lat="47.4382" lon="6.79423">
        <ele>467</ele>
        <time>2015-08-23T09:33:15.000Z</time>
      </trkpt>
      <trkpt lat="47.43822" lon="6.79422">
        <ele>467</ele>
        <time>2015-08-23T09:33:16.000Z</time>
      </trkpt>
      <trkpt lat="47.43825" lon="6.7942">
        <ele>466</ele>
        <time>2015-08-23T09:33:18.000Z</time>
      </trkpt>
      <trkpt lat="47.43826" lon="6.79419">
        <ele>466</ele>
        <time>2015-08-23T09:33:19.000Z</time>
      </trkpt>
      <trkpt lat="47.4383" lon="6.79417">
        <ele>466</ele>
        <time>2015-08-23T09:33:22.000Z</time>
      </trkpt>
      <trkpt lat="47.43831" lon="6.79417">
        <ele>465</ele>
        <time>2015-08-23T09:33:23.000Z</time>
      </trkpt>
      <trkpt lat="47.43835" lon="6.79418">
        <ele>465</ele>
        <time>2015-08-23T09:33:32.000Z</time>
      </trkpt>
      <trkpt lat="47.43835" lon="6.79418">
        <ele>465</ele>
        <time>2015-08-23T09:33:33.000Z</time>
      </trkpt>
      <trkpt lat="47.43839" lon="6.79419">
        <ele>465</ele>
        <time>2015-08-23T09:34:46.000Z</time>
      </trkpt>
      <trkpt lat="47.43841" lon="6.79421">
        <ele>465</ele>
        <time>2015-08-23T09:34:47.000Z</time>
      </trkpt>
      <trkpt lat="47.43843" lon="6.79424">
        <ele>464</ele>
        <time>2015-08-23T09:34:48.000Z</time>
      </trkpt>
      <trkpt lat="47.43845" lon="6.79427">
        <ele>464</ele>
        <time>2015-08-23T09:34:49.000Z</time>
      </trkpt>
      <trkpt lat="47.43848" lon="6.7943">
        <ele>464</ele>
        <time>2015-08-23T09:34:50.000Z</time>
      </trkpt>
      <trkpt lat="47.43851" lon="6.79434">
        <ele>464</ele>
        <time>2015-08-23T09:34:51.000Z</time>
      </trkpt>
      <trkpt lat="47.43854" lon="6.79438">
        <ele>464</ele>
        <time>2015-08-23T09:34:52.000Z</time>
      </trkpt>
      <trkpt lat="47.43856" lon="6.79442">
        <ele>464</ele>
        <time>2015-08-23T09:34:53.000Z</time>
      </trkpt>
      <trkpt lat="47.4386" lon="6.79447">
        <ele>464</ele>
        <time>2015-08-23T09:34:54.000Z</time>
      </trkpt>
      <trkpt lat="47.43863" lon="6.79451">
        <ele>464</ele>
        <time>2015-08-23T09:34:55.000Z</time>
      </trkpt>
      <trkpt lat="47.43868" lon="6.79455">
        <ele>464</ele>
        <time>2015-08-23T09:34:56.000Z</time>
      </trkpt>
      <trkpt lat="47.43873" lon="6.79458">
        <ele>464</ele>
        <time>2015-08-23T09:34:57.000Z</time>
      </trkpt>
      <trkpt lat="47.43878" lon="6.79459">
        <ele>464</ele>
        <time>2015-08-23T09:34:58.000Z</time>
      </trkpt>
      <trkpt lat="47.43884" lon="6.79461">
        <ele>464</ele>
        <time>2015-08-23T09:34:59.000Z</time>
      </trkpt>
      <trkpt lat="47.43889" lon="6.79462">
        <ele>463</ele>
        <time>2015-08-23T09:35:00.000Z</time>
      </trkpt>
      <trkpt lat="47.43894" lon="6.79465">
        <ele>463</ele>
        <time>2015-08-23T09:35:01.000Z</time>
      </trkpt>
      <trkpt lat="47.43905" lon="6.79471">
        <ele>463</ele>
        <time>2015-08-23T09:35:02.000Z</time>
      </trkpt>
      <trkpt lat="47.4391" lon="6.79476">
        <ele>464</ele>
        <time>2015-08-23T09:35:03.000Z</time>
      </trkpt>
      <trkpt lat="47.43916" lon="6.79479">
        <ele>464</ele>
        <time>2015-08-23T09:35:04.000Z</time>
      </trkpt>
      <trkpt lat="47.43923" lon="6.79484">
        <ele>461</ele>
        <time>2015-08-23T09:35:05.000Z</time>
      </trkpt>
      <trkpt lat="47.4393" lon="6.79486">
        <ele>461</ele>
        <time>2015-08-23T09:35:06.000Z</time>
      </trkpt>
      <trkpt lat="47.43939" lon="6.79481">
        <ele>460</ele>
        <time>2015-08-23T09:35:07.000Z</time>
      </trkpt>
      <trkpt lat="47.43949" lon="6.79478">
        <ele>460</ele>
        <time>2015-08-23T09:35:08.000Z</time>
      </trkpt>
      <trkpt lat="47.4396" lon="6.79474">
        <ele>459</ele>
        <time>2015-08-23T09:35:09.000Z</time>
      </trkpt>
      <trkpt lat="47.43973" lon="6.79473">
        <ele>459</ele>
        <time>2015-08-23T09:35:10.000Z</time>
      </trkpt>
      <trkpt lat="47.4398" lon="6.7947">
        <ele>459</ele>
        <time>2015-08-23T09:35:11.000Z</time>
      </trkpt>
      <trkpt lat="47.43986" lon="6.79472">
        <ele>459</ele>
        <time>2015-08-23T09:35:12.000Z</time>
      </trkpt>
      <trkpt lat="47.43994" lon="6.79473">
        <ele>458</ele>
        <time>2015-08-23T09:35:13.000Z</time>
      </trkpt>
      <trkpt lat="47.44003" lon="6.79473">
        <ele>456</ele>
        <time>2015-08-23T09:35:14.000Z</time>
      </trkpt>
      <trkpt lat="47.4401" lon="6.7947">
        <ele>455</ele>
        <time>2015-08-23T09:35:15.000Z</time>
      </trkpt>
      <trkpt lat="47.44017" lon="6.79469">
        <ele>455</ele>
        <time>2015-08-23T09:35:16.000Z</time>
      </trkpt>
      <trkpt lat="47.44023" lon="6.79465">
        <ele>455</ele>
        <time>2015-08-23T09:35:17.000Z</time>
      </trkpt>
      <trkpt lat="47.44031" lon="6.79461">
        <ele>455</ele>
        <time>2015-08-23T09:35:18.000Z</time>
      </trkpt>
      <trkpt lat="47.44039" lon="6.79459">
        <ele>454</ele>
        <time>2015-08-23T09:35:19.000Z</time>
      </trkpt>
      <trkpt lat="47.44044" lon="6.7946">
        <ele>454</ele>
        <time>2015-08-23T09:35:20.000Z</time>
      </trkpt>
      <trkpt lat="47.44049" lon="6.79464">
        <ele>454</ele>
        <time>2015-08-23T09:35:21.000Z</time>
      </trkpt>
      <trkpt lat="47.44054" lon="6.79468">
        <ele>454</ele>
        <time>2015-08-23T09:35:22.000Z</time>
      </trkpt>
      <trkpt lat="47.44062" lon="6.79472">
        <ele>454</ele>
        <time>2015-08-23T09:35:23.000Z</time>
      </trkpt>
      <trkpt lat="47.44066" lon="6.7948">
        <ele>453</ele>
        <time>2015-08-23T09:35:24.000Z</time>
      </trkpt>
      <trkpt lat="47.44071" lon="6.79483">
        <ele>453</ele>
        <time>2015-08-23T09:35:25.000Z</time>
      </trkpt>
      <trkpt lat="47.44088" lon="6.79483">
        <ele>450</ele>
        <time>2015-08-23T09:35:26.000Z</time>
      </trkpt>
      <trkpt lat="47.44096" lon="6.79483">
        <ele>450</ele>
        <time>2015-08-23T09:35:27.000Z</time>
      </trkpt>
      <trkpt lat="47.44102" lon="6.79481">
        <ele>450</ele>
        <time>2015-08-23T09:35:28.000Z</time>
      </trkpt>
      <trkpt lat="47.44108" lon="6.79479">
        <ele>449</ele>
        <time>2015-08-23T09:35:29.000Z</time>
      </trkpt>
      <trkpt lat="47.44114" lon="6.79478">
        <ele>449</ele>
        <time>2015-08-23T09:35:30.000Z</time>
      </trkpt>
      <trkpt lat="47.44122" lon="6.79475">
        <ele>449</ele>
        <time>2015-08-23T09:35:31.000Z</time>
      </trkpt>
      <trkpt lat="47.44128" lon="6.79473">
        <ele>448</ele>
        <time>2015-08-23T09:35:32.000Z</time>
      </trkpt>
      <trkpt lat="47.44134" lon="6.7947">
        <ele>448</ele>
        <time>2015-08-23T09:35:33.000Z</time>
      </trkpt>
      <trkpt lat="47.44142" lon="6.79468">
        <ele>448</ele>
        <time>2015-08-23T09:35:34.000Z</time>
      </trkpt>
      <trkpt lat="47.44154" lon="6.79468">
        <ele>447</ele>
        <time>2015-08-23T09:35:35.000Z</time>
      </trkpt>
      <trkpt lat="47.44161" lon="6.79465">
        <ele>447</ele>
        <time>2015-08-23T09:35:36.000Z</time>
      </trkpt>
      <trkpt lat="47.44169" lon="6.79456">
        <ele>442</ele>
        <time>2015-08-23T09:35:37.000Z</time>
      </trkpt>
      <trkpt lat="47.44174" lon="6.79452">
        <ele>442</ele>
        <time>2015-08-23T09:35:38.000Z</time>
      </trkpt>
      <trkpt lat="47.44178" lon="6.79451">
        <ele>442</ele>
        <time>2015-08-23T09:35:39.000Z</time>
      </trkpt>
      <trkpt lat="47.4418" lon="6.79453">
        <ele>442</ele>
        <time>2015-08-23T09:35:40.000Z</time>
      </trkpt>
      <trkpt lat="47.44182" lon="6.79455">
        <ele>441</ele>
        <time>2015-08-23T09:35:41.000Z</time>
      </trkpt>
      <trkpt lat="47.44187" lon="6.79454">
        <ele>441</ele>
        <time>2015-08-23T09:35:42.000Z</time>
      </trkpt>
      <trkpt lat="47.44189" lon="6.79454">
        <ele>441</ele>
        <time>2015-08-23T09:35:43.000Z</time>
      </trkpt>
      <trkpt lat="47.44193" lon="6.79457">
        <ele>441</ele>
        <time>2015-08-23T09:35:44.000Z</time>
      </trkpt>
      <trkpt lat="47.44197" lon="6.79456">
        <ele>441</ele>
        <time>2015-08-23T09:35:45.000Z</time>
      </trkpt>
      <trkpt lat="47.44202" lon="6.79455">
        <ele>440</ele>
        <time>2015-08-23T09:35:46.000Z</time>
      </trkpt>
      <trkpt lat="47.44204" lon="6.79455">
        <ele>440</ele>
        <time>2015-08-23T09:35:47.000Z</time>
      </trkpt>
      <trkpt lat="47.44206" lon="6.79455">
        <ele>440</ele>
        <time>2015-08-23T09:35:48.000Z</time>
      </trkpt>
      <trkpt lat="47.4421" lon="6.79453">
        <ele>440</ele>
        <time>2015-08-23T09:35:50.000Z</time>
      </trkpt>
      <trkpt lat="47.44213" lon="6.79453">
        <ele>440</ele>
        <time>2015-08-23T09:35:51.000Z</time>
      </trkpt>
      <trkpt lat="47.44217" lon="6.79454">
        <ele>439</ele>
        <time>2015-08-23T09:35:52.000Z</time>
      </trkpt>
      <trkpt lat="47.44221" lon="6.79455">
        <ele>439</ele>
        <time>2015-08-23T09:35:53.000Z</time>
      </trkpt>
      <trkpt lat="47.44225" lon="6.79454">
        <ele>439</ele>
        <time>2015-08-23T09:35:54.000Z</time>
      </trkpt>
      <trkpt lat="47.4423" lon="6.79452">
        <ele>438</ele>
        <time>2015-08-23T09:35:55.000Z</time>
      </trkpt>
      <trkpt lat="47.4424" lon="6.79451">
        <ele>438</ele>
        <time>2015-08-23T09:35:56.000Z</time>
      </trkpt>
      <trkpt lat="47.44246" lon="6.79448">
        <ele>438</ele>
        <time>2015-08-23T09:35:57.000Z</time>
      </trkpt>
      <trkpt lat="47.4425" lon="6.79441">
        <ele>431</ele>
        <time>2015-08-23T09:35:58.000Z</time>
      </trkpt>
      <trkpt lat="47.44253" lon="6.79435">
        <ele>431</ele>
        <time>2015-08-23T09:35:59.000Z</time>
      </trkpt>
      <trkpt lat="47.44256" lon="6.79432">
        <ele>432</ele>
        <time>2015-08-23T09:36:00.000Z</time>
      </trkpt>
      <trkpt lat="47.44263" lon="6.79441">
        <ele>430</ele>
        <time>2015-08-23T09:36:01.000Z</time>
      </trkpt>
      <trkpt lat="47.44267" lon="6.7944">
        <ele>430</ele>
        <time>2015-08-23T09:36:02.000Z</time>
      </trkpt>
      <trkpt lat="47.4427" lon="6.7944">
        <ele>429</ele>
        <time>2015-08-23T09:36:03.000Z</time>
      </trkpt>
      <trkpt lat="47.4427" lon="6.79435">
        <ele>430</ele>
        <time>2015-08-23T09:36:07.000Z</time>
      </trkpt>
      <trkpt lat="47.4427" lon="6.79432">
        <ele>430</ele>
        <time>2015-08-23T09:36:08.000Z</time>
      </trkpt>
      <trkpt lat="47.44267" lon="6.79428">
        <ele>431</ele>
        <time>2015-08-23T09:36:13.000Z</time>
      </trkpt>
      <trkpt lat="47.44266" lon="6.79427">
        <ele>431</ele>
        <time>2015-08-23T09:36:14.000Z</time>
      </trkpt>
      <trkpt lat="47.44264" lon="6.79422">
        <ele>432</ele>
        <time>2015-08-23T09:36:24.000Z</time>
      </trkpt>
      <trkpt lat="47.44264" lon="6.79421">
        <ele>432</ele>
        <time>2015-08-23T09:36:25.000Z</time>
      </trkpt>
      <trkpt lat="47.44267" lon="6.79422">
        <ele>431</ele>
        <time>2015-08-23T09:36:34.000Z</time>
      </trkpt>
      <trkpt lat="47.4427" lon="6.79423">
        <ele>430</ele>
        <time>2015-08-23T09:36:35.000Z</time>
      </trkpt>
      <trkpt lat="47.44274" lon="6.79424">
        <ele>430</ele>
        <time>2015-08-23T09:36:36.000Z</time>
      </trkpt>
      <trkpt lat="47.44286" lon="6.79425">
        <ele>428</ele>
        <time>2015-08-23T09:36:37.000Z</time>
      </trkpt>
      <trkpt lat="47.44291" lon="6.79422">
        <ele>427</ele>
        <time>2015-08-23T09:36:38.000Z</time>
      </trkpt>
      <trkpt lat="47.44296" lon="6.79417">
        <ele>427</ele>
        <time>2015-08-23T09:36:39.000Z</time>
      </trkpt>
      <trkpt lat="47.443" lon="6.79412">
        <ele>423</ele>
        <time>2015-08-23T09:36:40.000Z</time>
      </trkpt>
      <trkpt lat="47.44303" lon="6.79412">
        <ele>423</ele>
        <time>2015-08-23T09:36:41.000Z</time>
      </trkpt>
      <trkpt lat="47.44307" lon="6.79413">
        <ele>422</ele>
        <time>2015-08-23T09:36:42.000Z</time>
      </trkpt>
      <trkpt lat="47.4431" lon="6.79413">
        <ele>422</ele>
        <time>2015-08-23T09:36:43.000Z</time>
      </trkpt>
      <trkpt lat="47.44313" lon="6.7941">
        <ele>422</ele>
        <time>2015-08-23T09:36:44.000Z</time>
      </trkpt>
      <trkpt lat="47.44317" lon="6.79402">
        <ele>421</ele>
        <time>2015-08-23T09:36:45.000Z</time>
      </trkpt>
      <trkpt lat="47.44321" lon="6.79399">
        <ele>421</ele>
        <time>2015-08-23T09:36:46.000Z</time>
      </trkpt>
      <trkpt lat="47.44325" lon="6.79396">
        <ele>421</ele>
        <time>2015-08-23T09:36:47.000Z</time>
      </trkpt>
      <trkpt lat="47.44331" lon="6.79394">
        <ele>421</ele>
        <time>2015-08-23T09:36:48.000Z</time>
      </trkpt>
      <trkpt lat="47.44337" lon="6.79395">
        <ele>410</ele>
        <time>2015-08-23T09:36:49.000Z</time>
      </trkpt>
      <trkpt lat="47.44346" lon="6.79398">
        <ele>410</ele>
        <time>2015-08-23T09:36:50.000Z</time>
      </trkpt>
      <trkpt lat="47.44353" lon="6.79404">
        <ele>409</ele>
        <time>2015-08-23T09:36:51.000Z</time>
      </trkpt>
      <trkpt lat="47.4436" lon="6.7941">
        <ele>408</ele>
        <time>2015-08-23T09:36:52.000Z</time>
      </trkpt>
      <trkpt lat="47.44363" lon="6.79418">
        <ele>412</ele>
        <time>2015-08-23T09:36:53.000Z</time>
      </trkpt>
      <trkpt lat="47.44369" lon="6.79423">
        <ele>410</ele>
        <time>2015-08-23T09:36:54.000Z</time>
      </trkpt>
      <trkpt lat="47.44372" lon="6.7943">
        <ele>410</ele>
        <time>2015-08-23T09:36:55.000Z</time>
      </trkpt>
      <trkpt lat="47.44373" lon="6.79436">
        <ele>410</ele>
        <time>2015-08-23T09:36:56.000Z</time>
      </trkpt>
      <trkpt lat="47.44375" lon="6.79442">
        <ele>409</ele>
        <time>2015-08-23T09:36:57.000Z</time>
      </trkpt>
      <trkpt lat="47.44376" lon="6.79449">
        <ele>409</ele>
        <time>2015-08-23T09:36:58.000Z</time>
      </trkpt>
      <trkpt lat="47.44377" lon="6.79461">
        <ele>409</ele>
        <time>2015-08-23T09:36:59.000Z</time>
      </trkpt>
      <trkpt lat="47.44372" lon="6.7947">
        <ele>410</ele>
        <time>2015-08-23T09:37:00.000Z</time>
      </trkpt>
      <trkpt lat="47.44372" lon="6.79479">
        <ele>410</ele>
        <time>2015-08-23T09:37:01.000Z</time>
      </trkpt>
      <trkpt lat="47.44375" lon="6.79488">
        <ele>409</ele>
        <time>2015-08-23T09:37:02.000Z</time>
      </trkpt>
      <trkpt lat="47.44381" lon="6.79493">
        <ele>409</ele>
        <time>2015-08-23T09:37:03.000Z</time>
      </trkpt>
      <trkpt lat="47.44383" lon="6.79497">
        <ele>408</ele>
        <time>2015-08-23T09:37:04.000Z</time>
      </trkpt>
      <trkpt lat="47.44385" lon="6.79501">
        <ele>407</ele>
        <time>2015-08-23T09:37:05.000Z</time>
      </trkpt>
      <trkpt lat="47.44388" lon="6.79501">
        <ele>406</ele>
        <time>2015-08-23T09:37:06.000Z</time>
      </trkpt>
      <trkpt lat="47.44392" lon="6.79501">
        <ele>406</ele>
        <time>2015-08-23T09:37:07.000Z</time>
      </trkpt>
      <trkpt lat="47.44392" lon="6.79506">
        <ele>406</ele>
        <time>2015-08-23T09:37:09.000Z</time>
      </trkpt>
      <trkpt lat="47.44392" lon="6.79509">
        <ele>406</ele>
        <time>2015-08-23T09:37:10.000Z</time>
      </trkpt>
      <trkpt lat="47.44397" lon="6.7951">
        <ele>405</ele>
        <time>2015-08-23T09:37:11.000Z</time>
      </trkpt>
      <trkpt lat="47.44401" lon="6.79508">
        <ele>405</ele>
        <time>2015-08-23T09:37:13.000Z</time>
      </trkpt>
      <trkpt lat="47.44403" lon="6.79504">
        <ele>404</ele>
        <time>2015-08-23T09:37:14.000Z</time>
      </trkpt>
      <trkpt lat="47.44405" lon="6.795">
        <ele>405</ele>
        <time>2015-08-23T09:37:15.000Z</time>
      </trkpt>
      <trkpt lat="47.44407" lon="6.79496">
        <ele>404</ele>
        <time>2015-08-23T09:37:16.000Z</time>
      </trkpt>
      <trkpt lat="47.44409" lon="6.79494">
        <ele>404</ele>
        <time>2015-08-23T09:37:17.000Z</time>
      </trkpt>
      <trkpt lat="47.44412" lon="6.79494">
        <ele>404</ele>
        <time>2015-08-23T09:37:18.000Z</time>
      </trkpt>
      <trkpt lat="47.44414" lon="6.79495">
        <ele>403</ele>
        <time>2015-08-23T09:37:19.000Z</time>
      </trkpt>
      <trkpt lat="47.44416" lon="6.79496">
        <ele>403</ele>
        <time>2015-08-23T09:37:20.000Z</time>
      </trkpt>
      <trkpt lat="47.44419" lon="6.79498">
        <ele>400</ele>
        <time>2015-08-23T09:37:21.000Z</time>
      </trkpt>
      <trkpt lat="47.44422" lon="6.79501">
        <ele>399</ele>
        <time>2015-08-23T09:37:22.000Z</time>
      </trkpt>
      <trkpt lat="47.44425" lon="6.79503">
        <ele>397</ele>
        <time>2015-08-23T09:37:23.000Z</time>
      </trkpt>
      <trkpt lat="47.44426" lon="6.79503">
        <ele>397</ele>
        <time>2015-08-23T09:37:24.000Z</time>
      </trkpt>
      <trkpt lat="47.4443" lon="6.79505">
        <ele>395</ele>
        <time>2015-08-23T09:37:47.000Z</time>
      </trkpt>
      <trkpt lat="47.44434" lon="6.79505">
        <ele>394</ele>
        <time>2015-08-23T09:37:48.000Z</time>
      </trkpt>
      <trkpt lat="47.44436" lon="6.79506">
        <ele>393</ele>
        <time>2015-08-23T09:37:49.000Z</time>
      </trkpt>
      <trkpt lat="47.4444" lon="6.79506">
        <ele>391</ele>
        <time>2015-08-23T09:37:50.000Z</time>
      </trkpt>
      <trkpt lat="47.44444" lon="6.79507">
        <ele>390</ele>
        <time>2015-08-23T09:37:51.000Z</time>
      </trkpt>
      <trkpt lat="47.44447" lon="6.7951">
        <ele>389</ele>
        <time>2015-08-23T09:37:52.000Z</time>
      </trkpt>
      <trkpt lat="47.4445" lon="6.79513">
        <ele>389</ele>
        <time>2015-08-23T09:37:53.000Z</time>
      </trkpt>
      <trkpt lat="47.44453" lon="6.79518">
        <ele>388</ele>
        <time>2015-08-23T09:37:54.000Z</time>
      </trkpt>
      <trkpt lat="47.44456" lon="6.79522">
        <ele>387</ele>
        <time>2015-08-23T09:37:55.000Z</time>
      </trkpt>
      <trkpt lat="47.44461" lon="6.79525">
        <ele>386</ele>
        <time>2015-08-23T09:37:56.000Z</time>
      </trkpt>
      <trkpt lat="47.44466" lon="6.79526">
        <ele>385</ele>
        <time>2015-08-23T09:37:57.000Z</time>
      </trkpt>
      <trkpt lat="47.4447" lon="6.79527">
        <ele>384</ele>
        <time>2015-08-23T09:37:58.000Z</time>
      </trkpt>
      <trkpt lat="47.44474" lon="6.79528">
        <ele>384</ele>
        <time>2015-08-23T09:37:59.000Z</time>
      </trkpt>
      <trkpt lat="47.44478" lon="6.7953">
        <ele>383</ele>
        <time>2015-08-23T09:38:00.000Z</time>
      </trkpt>
      <trkpt lat="47.44482" lon="6.79534">
        <ele>383</ele>
        <time>2015-08-23T09:38:01.000Z</time>
      </trkpt>
      <trkpt lat="47.44486" lon="6.79536">
        <ele>382</ele>
        <time>2015-08-23T09:38:02.000Z</time>
      </trkpt>
      <trkpt lat="47.4449" lon="6.79536">
        <ele>382</ele>
        <time>2015-08-23T09:38:03.000Z</time>
      </trkpt>
      <trkpt lat="47.44496" lon="6.79535">
        <ele>382</ele>
        <time>2015-08-23T09:38:04.000Z</time>
      </trkpt>
      <trkpt lat="47.44501" lon="6.79531">
        <ele>365</ele>
        <time>2015-08-23T09:38:05.000Z</time>
      </trkpt>
      <trkpt lat="47.44505" lon="6.79527">
        <ele>365</ele>
        <time>2015-08-23T09:38:06.000Z</time>
      </trkpt>
      <trkpt lat="47.44509" lon="6.79522">
        <ele>366</ele>
        <time>2015-08-23T09:38:07.000Z</time>
      </trkpt>
      <trkpt lat="47.44513" lon="6.79516">
        <ele>366</ele>
        <time>2015-08-23T09:38:08.000Z</time>
      </trkpt>
      <trkpt lat="47.44516" lon="6.7951">
        <ele>366</ele>
        <time>2015-08-23T09:38:09.000Z</time>
      </trkpt>
      <trkpt lat="47.44517" lon="6.79504">
        <ele>366</ele>
        <time>2015-08-23T09:38:10.000Z</time>
      </trkpt>
      <trkpt lat="47.44515" lon="6.79491">
        <ele>365</ele>
        <time>2015-08-23T09:38:11.000Z</time>
      </trkpt>
      <trkpt lat="47.44519" lon="6.79491">
        <ele>363</ele>
        <time>2015-08-23T09:38:15.000Z</time>
      </trkpt>
      <trkpt lat="47.4452" lon="6.79493">
        <ele>363</ele>
        <time>2015-08-23T09:38:16.000Z</time>
      </trkpt>
      <trkpt lat="47.44521" lon="6.79497">
        <ele>363</ele>
        <time>2015-08-23T09:38:17.000Z</time>
      </trkpt>
      <trkpt lat="47.44522" lon="6.795">
        <ele>365</ele>
        <time>2015-08-23T09:38:18.000Z</time>
      </trkpt>
      <trkpt lat="47.44523" lon="6.79504">
        <ele>365</ele>
        <time>2015-08-23T09:38:19.000Z</time>
      </trkpt>
      <trkpt lat="47.44525" lon="6.79509">
        <ele>364</ele>
        <time>2015-08-23T09:38:20.000Z</time>
      </trkpt>
      <trkpt lat="47.44527" lon="6.79512">
        <ele>363</ele>
        <time>2015-08-23T09:38:21.000Z</time>
      </trkpt>
      <trkpt lat="47.4453" lon="6.79515">
        <ele>362</ele>
        <time>2015-08-23T09:38:22.000Z</time>
      </trkpt>
      <trkpt lat="47.44532" lon="6.79517">
        <ele>362</ele>
        <time>2015-08-23T09:38:23.000Z</time>
      </trkpt>
      <trkpt lat="47.44534" lon="6.79519">
        <ele>361</ele>
        <time>2015-08-23T09:38:24.000Z</time>
      </trkpt>
      <trkpt lat="47.44536" lon="6.79519">
        <ele>361</ele>
        <time>2015-08-23T09:38:25.000Z</time>
      </trkpt>
      <trkpt lat="47.44538" lon="6.7952">
        <ele>360</ele>
        <time>2015-08-23T09:38:26.000Z</time>
      </trkpt>
      <trkpt lat="47.44541" lon="6.79519">
        <ele>359</ele>
        <time>2015-08-23T09:38:27.000Z</time>
      </trkpt>
      <trkpt lat="47.44544" lon="6.79519">
        <ele>359</ele>
        <time>2015-08-23T09:38:28.000Z</time>
      </trkpt>
      <trkpt lat="47.44546" lon="6.79519">
        <ele>358</ele>
        <time>2015-08-23T09:38:29.000Z</time>
      </trkpt>
      <trkpt lat="47.44548" lon="6.79521">
        <ele>358</ele>
        <time>2015-08-23T09:38:30.000Z</time>
      </trkpt>
      <trkpt lat="47.44551" lon="6.79524">
        <ele>357</ele>
        <time>2015-08-23T09:38:32.000Z</time>
      </trkpt>
      <trkpt lat="47.44552" lon="6.79524">
        <ele>357</ele>
        <time>2015-08-23T09:38:33.000Z</time>
      </trkpt>
      <trkpt lat="47.44554" lon="6.7952">
        <ele>356</ele>
        <time>2015-08-23T09:38:35.000Z</time>
      </trkpt>
      <trkpt lat="47.44555" lon="6.79515">
        <ele>356</ele>
        <time>2015-08-23T09:38:36.000Z</time>
      </trkpt>
      <trkpt lat="47.44556" lon="6.79511">
        <ele>355</ele>
        <time>2015-08-23T09:38:37.000Z</time>
      </trkpt>
      <trkpt lat="47.44556" lon="6.79506">
        <ele>355</ele>
        <time>2015-08-23T09:38:38.000Z</time>
      </trkpt>
      <trkpt lat="47.44556" lon="6.79502">
        <ele>355</ele>
        <time>2015-08-23T09:38:39.000Z</time>
      </trkpt>
      <trkpt lat="47.44555" lon="6.79498">
        <ele>353</ele>
        <time>2015-08-23T09:38:40.000Z</time>
      </trkpt>
      <trkpt lat="47.44554" lon="6.79494">
        <ele>353</ele>
        <time>2015-08-23T09:38:41.000Z</time>
      </trkpt>
      <trkpt lat="47.44554" lon="6.79491">
        <ele>353</ele>
        <time>2015-08-23T09:38:42.000Z</time>
      </trkpt>
      <trkpt lat="47.44553" lon="6.79485">
        <ele>353</ele>
        <time>2015-08-23T09:38:44.000Z</time>
      </trkpt>
      <trkpt lat="47.44552" lon="6.79482">
        <ele>353</ele>
        <time>2015-08-23T09:38:45.000Z</time>
      </trkpt>
      <trkpt lat="47.44553" lon="6.79478">
        <ele>353</ele>
        <time>2015-08-23T09:38:47.000Z</time>
      </trkpt>
      <trkpt lat="47.44554" lon="6.79475">
        <ele>353</ele>
        <time>2015-08-23T09:38:48.000Z</time>
      </trkpt>
      <trkpt lat="47.44553" lon="6.79469">
        <ele>353</ele>
        <time>2015-08-23T09:38:51.000Z</time>
      </trkpt>
      <trkpt lat="47.44552" lon="6.79468">
        <ele>353</ele>
        <time>2015-08-23T09:38:52.000Z</time>
      </trkpt>
      <trkpt lat="47.44548" lon="6.79469">
        <ele>354</ele>
        <time>2015-08-23T09:39:39.000Z</time>
      </trkpt>
      <trkpt lat="47.44548" lon="6.7947">
        <ele>354</ele>
        <time>2015-08-23T09:39:40.000Z</time>
      </trkpt>
      <trkpt lat="47.44546" lon="6.79477">
        <ele>355</ele>
        <time>2015-08-23T09:39:44.000Z</time>
      </trkpt>
      <trkpt lat="47.44547" lon="6.79478">
        <ele>355</ele>
        <time>2015-08-23T09:39:45.000Z</time>
      </trkpt>
      <trkpt lat="47.44549" lon="6.79484">
        <ele>354</ele>
        <time>2015-08-23T09:39:49.000Z</time>
      </trkpt>
      <trkpt lat="47.44549" lon="6.79485">
        <ele>354</ele>
        <time>2015-08-23T09:39:50.000Z</time>
      </trkpt>
      <trkpt lat="47.4455" lon="6.79491">
        <ele>354</ele>
        <time>2015-08-23T09:40:24.000Z</time>
      </trkpt>
      <trkpt lat="47.44551" lon="6.79492">
        <ele>354</ele>
        <time>2015-08-23T09:40:25.000Z</time>
      </trkpt>
      <trkpt lat="47.44552" lon="6.79498">
        <ele>353</ele>
        <time>2015-08-23T09:40:44.000Z</time>
      </trkpt>
      <trkpt lat="47.44552" lon="6.79498">
        <ele>353</ele>
        <time>2015-08-23T09:40:45.000Z</time>
      </trkpt>
      <trkpt lat="47.44552" lon="6.79504">
        <ele>356</ele>
        <time>2015-08-23T09:40:58.000Z</time>
      </trkpt>
      <trkpt lat="47.44552" lon="6.79506">
        <ele>356</ele>
        <time>2015-08-23T09:40:59.000Z</time>
      </trkpt>
      <trkpt lat="47.44551" lon="6.79512">
        <ele>357</ele>
        <time>2015-08-23T09:41:04.000Z</time>
      </trkpt>
      <trkpt lat="47.44551" lon="6.79514">
        <ele>357</ele>
        <time>2015-08-23T09:41:05.000Z</time>
      </trkpt>
      <trkpt lat="47.44547" lon="6.79517">
        <ele>358</ele>
        <time>2015-08-23T09:41:12.000Z</time>
      </trkpt>
      <trkpt lat="47.44546" lon="6.79517">
        <ele>358</ele>
        <time>2015-08-23T09:41:13.000Z</time>
      </trkpt>
      <trkpt lat="47.44551" lon="6.79518">
        <ele>357</ele>
        <time>2015-08-23T09:41:20.000Z</time>
      </trkpt>
      <trkpt lat="47.44551" lon="6.79518">
        <ele>357</ele>
        <time>2015-08-23T09:41:21.000Z</time>
      </trkpt>
      <trkpt lat="47.44554" lon="6.79523">
        <ele>356</ele>
        <time>2015-08-23T09:44:36.000Z</time>
      </trkpt>
      <trkpt lat="47.44554" lon="6.79523">
        <ele>356</ele>
        <time>2015-08-23T09:44:37.000Z</time>
      </trkpt>
      <trkpt lat="47.44555" lon="6.79516">
        <ele>356</ele>
        <time>2015-08-23T09:45:21.000Z</time>
      </trkpt>
      <trkpt lat="47.44554" lon="6.79515">
        <ele>356</ele>
        <time>2015-08-23T09:45:22.000Z</time>
      </trkpt>
      <trkpt lat="47.44555" lon="6.7951">
        <ele>356</ele>
        <time>2015-08-23T09:45:25.000Z</time>
      </trkpt>
      <trkpt lat="47.44555" lon="6.79508">
        <ele>355</ele>
        <time>2015-08-23T09:45:26.000Z</time>
      </trkpt>
      <trkpt lat="47.44554" lon="6.79503">
        <ele>355</ele>
        <time>2015-08-23T09:45:29.000Z</time>
      </trkpt>
      <trkpt lat="47.44553" lon="6.79501">
        <ele>356</ele>
        <time>2015-08-23T09:45:30.000Z</time>
      </trkpt>
      <trkpt lat="47.44551" lon="6.79498">
        <ele>354</ele>
        <time>2015-08-23T09:45:32.000Z</time>
      </trkpt>
      <trkpt lat="47.4455" lon="6.79495">
        <ele>354</ele>
        <time>2015-08-23T09:45:33.000Z</time>
      </trkpt>
      <trkpt lat="47.44549" lon="6.79491">
        <ele>354</ele>
        <time>2015-08-23T09:45:34.000Z</time>
      </trkpt>
      <trkpt lat="47.44548" lon="6.79488">
        <ele>354</ele>
        <time>2015-08-23T09:45:35.000Z</time>
      </trkpt>
      <trkpt lat="47.44549" lon="6.79484">
        <ele>354</ele>
        <time>2015-08-23T09:45:36.000Z</time>
      </trkpt>
      <trkpt lat="47.44549" lon="6.7948">
        <ele>354</ele>
        <time>2015-08-23T09:45:37.000Z</time>
      </trkpt>
      <trkpt lat="47.4455" lon="6.79474">
        <ele>354</ele>
        <time>2015-08-23T09:45:39.000Z</time>
      </trkpt>
      <trkpt lat="47.4455" lon="6.79472">
        <ele>354</ele>
        <time>2015-08-23T09:45:40.000Z</time>
      </trkpt>
      <trkpt lat="47.4455" lon="6.79467">
        <ele>354</ele>
        <time>2015-08-23T09:45:44.000Z</time>
      </trkpt>
      <trkpt lat="47.4455" lon="6.79465">
        <ele>354</ele>
        <time>2015-08-23T09:45:45.000Z</time>
      </trkpt>
      <trkpt lat="47.4455" lon="6.79459">
        <ele>353</ele>
        <time>2015-08-23T09:45:47.000Z</time>
      </trkpt>
      <trkpt lat="47.4455" lon="6.79455">
        <ele>353</ele>
        <time>2015-08-23T09:45:48.000Z</time>
      </trkpt>
      <trkpt lat="47.4455" lon="6.79449">
        <ele>353</ele>
        <time>2015-08-23T09:45:49.000Z</time>
      </trkpt>
      <trkpt lat="47.4455" lon="6.79443">
        <ele>352</ele>
        <time>2015-08-23T09:45:50.000Z</time>
      </trkpt>
      <trkpt lat="47.44549" lon="6.79436">
        <ele>352</ele>
        <time>2015-08-23T09:45:51.000Z</time>
      </trkpt>
      <trkpt lat="47.44549" lon="6.7943">
        <ele>352</ele>
        <time>2015-08-23T09:45:52.000Z</time>
      </trkpt>
      <trkpt lat="47.44545" lon="6.79411">
        <ele>347</ele>
        <time>2015-08-23T09:45:53.000Z</time>
      </trkpt>
      <trkpt lat="47.44541" lon="6.794">
        <ele>347</ele>
        <time>2015-08-23T09:45:54.000Z</time>
      </trkpt>
      <trkpt lat="47.4454" lon="6.79391">
        <ele>347</ele>
        <time>2015-08-23T09:45:55.000Z</time>
      </trkpt>
      <trkpt lat="47.44538" lon="6.79381">
        <ele>347</ele>
        <time>2015-08-23T09:45:56.000Z</time>
      </trkpt>
      <trkpt lat="47.44532" lon="6.79373">
        <ele>347</ele>
        <time>2015-08-23T09:45:57.000Z</time>
      </trkpt>
      <trkpt lat="47.44529" lon="6.79364">
        <ele>347</ele>
        <time>2015-08-23T09:45:58.000Z</time>
      </trkpt>
      <trkpt lat="47.44523" lon="6.79358">
        <ele>347</ele>
        <time>2015-08-23T09:45:59.000Z</time>
      </trkpt>
      <trkpt lat="47.44519" lon="6.79351">
        <ele>348</ele>
        <time>2015-08-23T09:46:00.000Z</time>
      </trkpt>
      <trkpt lat="47.44515" lon="6.79344">
        <ele>348</ele>
        <time>2015-08-23T09:46:01.000Z</time>
      </trkpt>
      <trkpt lat="47.44511" lon="6.79337">
        <ele>349</ele>
        <time>2015-08-23T09:46:02.000Z</time>
      </trkpt>
      <trkpt lat="47.44508" lon="6.7933">
        <ele>346</ele>
        <time>2015-08-23T09:46:03.000Z</time>
      </trkpt>
      <trkpt lat="47.44504" lon="6.79323">
        <ele>346</ele>
        <time>2015-08-23T09:46:04.000Z</time>
      </trkpt>
      <trkpt lat="47.44501" lon="6.79317">
        <ele>344</ele>
        <time>2015-08-23T09:46:05.000Z</time>
      </trkpt>
      <trkpt lat="47.44497" lon="6.79313">
        <ele>352</ele>
        <time>2015-08-23T09:46:06.000Z</time>
      </trkpt>
      <trkpt lat="47.44493" lon="6.79311">
        <ele>352</ele>
        <time>2015-08-23T09:46:09.000Z</time>
      </trkpt>
      <trkpt lat="47.44492" lon="6.7931">
        <ele>352</ele>
        <time>2015-08-23T09:46:10.000Z</time>
      </trkpt>
      <trkpt lat="47.44492" lon="6.79305">
        <ele>352</ele>
        <time>2015-08-23T09:46:13.000Z</time>
      </trkpt>
      <trkpt lat="47.44495" lon="6.79303">
        <ele>352</ele>
        <time>2015-08-23T09:46:14.000Z</time>
      </trkpt>
      <trkpt lat="47.44498" lon="6.79299">
        <ele>351</ele>
        <time>2015-08-23T09:46:17.000Z</time>
      </trkpt>
      <trkpt lat="47.44499" lon="6.79297">
        <ele>351</ele>
        <time>2015-08-23T09:46:18.000Z</time>
      </trkpt>
      <trkpt lat="47.44499" lon="6.79293">
        <ele>351</ele>
        <time>2015-08-23T09:46:19.000Z</time>
      </trkpt>
      <trkpt lat="47.44498" lon="6.79289">
        <ele>350</ele>
        <time>2015-08-23T09:46:20.000Z</time>
      </trkpt>
      <trkpt lat="47.44497" lon="6.79283">
        <ele>349</ele>
        <time>2015-08-23T09:46:21.000Z</time>
      </trkpt>
      <trkpt lat="47.44496" lon="6.79277">
        <ele>348</ele>
        <time>2015-08-23T09:46:22.000Z</time>
      </trkpt>
      <trkpt lat="47.44496" lon="6.79272">
        <ele>347</ele>
        <time>2015-08-23T09:46:23.000Z</time>
      </trkpt>
      <trkpt lat="47.44496" lon="6.79268">
        <ele>346</ele>
        <time>2015-08-23T09:46:24.000Z</time>
      </trkpt>
      <trkpt lat="47.44496" lon="6.79264">
        <ele>345</ele>
        <time>2015-08-23T09:46:25.000Z</time>
      </trkpt>
      <trkpt lat="47.44495" lon="6.7926">
        <ele>343</ele>
        <time>2015-08-23T09:46:26.000Z</time>
      </trkpt>
      <trkpt lat="47.44495" lon="6.79256">
        <ele>342</ele>
        <time>2015-08-23T09:46:27.000Z</time>
      </trkpt>
      <trkpt lat="47.44495" lon="6.79251">
        <ele>340</ele>
        <time>2015-08-23T09:46:28.000Z</time>
      </trkpt>
      <trkpt lat="47.44496" lon="6.79246">
        <ele>338</ele>
        <time>2015-08-23T09:46:29.000Z</time>
      </trkpt>
      <trkpt lat="47.44497" lon="6.79242">
        <ele>338</ele>
        <time>2015-08-23T09:46:30.000Z</time>
      </trkpt>
      <trkpt lat="47.44499" lon="6.7924">
        <ele>338</ele>
        <time>2015-08-23T09:46:31.000Z</time>
      </trkpt>
      <trkpt lat="47.44502" lon="6.79239">
        <ele>336</ele>
        <time>2015-08-23T09:46:32.000Z</time>
      </trkpt>
      <trkpt lat="47.44505" lon="6.7924">
        <ele>336</ele>
        <time>2015-08-23T09:46:33.000Z</time>
      </trkpt>
      <trkpt lat="47.44508" lon="6.79241">
        <ele>336</ele>
        <time>2015-08-23T09:46:34.000Z</time>
      </trkpt>
      <trkpt lat="47.44511" lon="6.79242">
        <ele>336</ele>
        <time>2015-08-23T09:46:35.000Z</time>
      </trkpt>
      <trkpt lat="47.44514" lon="6.79242">
        <ele>336</ele>
        <time>2015-08-23T09:46:36.000Z</time>
      </trkpt>
      <trkpt lat="47.44517" lon="6.79244">
        <ele>336</ele>
        <time>2015-08-23T09:46:37.000Z</time>
      </trkpt>
      <trkpt lat="47.44519" lon="6.79245">
        <ele>336</ele>
        <time>2015-08-23T09:46:38.000Z</time>
      </trkpt>
      <trkpt lat="47.44522" lon="6.79248">
        <ele>336</ele>
        <time>2015-08-23T09:46:39.000Z</time>
      </trkpt>
      <trkpt lat="47.44525" lon="6.7925">
        <ele>335</ele>
        <time>2015-08-23T09:46:40.000Z</time>
      </trkpt>
      <trkpt lat="47.44529" lon="6.79252">
        <ele>337</ele>
        <time>2015-08-23T09:46:41.000Z</time>
      </trkpt>
      <trkpt lat="47.44532" lon="6.79254">
        <ele>337</ele>
        <time>2015-08-23T09:46:42.000Z</time>
      </trkpt>
      <trkpt lat="47.44536" lon="6.79255">
        <ele>337</ele>
        <time>2015-08-23T09:46:43.000Z</time>
      </trkpt>
      <trkpt lat="47.44539" lon="6.79256">
        <ele>337</ele>
        <time>2015-08-23T09:46:44.000Z</time>
      </trkpt>
      <trkpt lat="47.44543" lon="6.79257">
        <ele>337</ele>
        <time>2015-08-23T09:46:45.000Z</time>
      </trkpt>
      <trkpt lat="47.44546" lon="6.79258">
        <ele>337</ele>
        <time>2015-08-23T09:46:46.000Z</time>
      </trkpt>
      <trkpt lat="47.4455" lon="6.79261">
        <ele>337</ele>
        <time>2015-08-23T09:46:48.000Z</time>
      </trkpt>
      <trkpt lat="47.44551" lon="6.79263">
        <ele>337</ele>
        <time>2015-08-23T09:46:49.000Z</time>
      </trkpt>
      <trkpt lat="47.44552" lon="6.79269">
        <ele>337</ele>
        <time>2015-08-23T09:46:51.000Z</time>
      </trkpt>
      <trkpt lat="47.44552" lon="6.79272">
        <ele>337</ele>
        <time>2015-08-23T09:46:52.000Z</time>
      </trkpt>
      <trkpt lat="47.44555" lon="6.79277">
        <ele>337</ele>
        <time>2015-08-23T09:46:54.000Z</time>
      </trkpt>
      <trkpt lat="47.44557" lon="6.79279">
        <ele>337</ele>
        <time>2015-08-23T09:46:55.000Z</time>
      </trkpt>
      <trkpt lat="47.44559" lon="6.7928">
        <ele>337</ele>
        <time>2015-08-23T09:46:56.000Z</time>
      </trkpt>
      <trkpt lat="47.44562" lon="6.7928">
        <ele>337</ele>
        <time>2015-08-23T09:46:57.000Z</time>
      </trkpt>
      <trkpt lat="47.44566" lon="6.79281">
        <ele>337</ele>
        <time>2015-08-23T09:46:58.000Z</time>
      </trkpt>
      <trkpt lat="47.4457" lon="6.79281">
        <ele>336</ele>
        <time>2015-08-23T09:46:59.000Z</time>
      </trkpt>
      <trkpt lat="47.44574" lon="6.79281">
        <ele>336</ele>
        <time>2015-08-23T09:47:00.000Z</time>
      </trkpt>
      <trkpt lat="47.44578" lon="6.79282">
        <ele>336</ele>
        <time>2015-08-23T09:47:01.000Z</time>
      </trkpt>
      <trkpt lat="47.44582" lon="6.79283">
        <ele>336</ele>
        <time>2015-08-23T09:47:02.000Z</time>
      </trkpt>
      <trkpt lat="47.44585" lon="6.79285">
        <ele>332</ele>
        <time>2015-08-23T09:47:03.000Z</time>
      </trkpt>
      <trkpt lat="47.44589" lon="6.79287">
        <ele>332</ele>
        <time>2015-08-23T09:47:04.000Z</time>
      </trkpt>
      <trkpt lat="47.44592" lon="6.79289">
        <ele>332</ele>
        <time>2015-08-23T09:47:05.000Z</time>
      </trkpt>
      <trkpt lat="47.44596" lon="6.7929">
        <ele>332</ele>
        <time>2015-08-23T09:47:06.000Z</time>
      </trkpt>
      <trkpt lat="47.446" lon="6.79292">
        <ele>332</ele>
        <time>2015-08-23T09:47:07.000Z</time>
      </trkpt>
      <trkpt lat="47.44604" lon="6.79293">
        <ele>332</ele>
        <time>2015-08-23T09:47:08.000Z</time>
      </trkpt>
      <trkpt lat="47.44609" lon="6.79294">
        <ele>332</ele>
        <time>2015-08-23T09:47:09.000Z</time>
      </trkpt>
      <trkpt lat="47.44613" lon="6.79295">
        <ele>332</ele>
        <time>2015-08-23T09:47:10.000Z</time>
      </trkpt>
      <trkpt lat="47.44618" lon="6.79296">
        <ele>332</ele>
        <time>2015-08-23T09:47:11.000Z</time>
      </trkpt>
      <trkpt lat="47.44622" lon="6.79297">
        <ele>332</ele>
        <time>2015-08-23T09:47:12.000Z</time>
      </trkpt>
      <trkpt lat="47.44626" lon="6.79298">
        <ele>332</ele>
        <time>2015-08-23T09:47:13.000Z</time>
      </trkpt>
      <trkpt lat="47.44629" lon="6.79299">
        <ele>332</ele>
        <time>2015-08-23T09:47:14.000Z</time>
      </trkpt>
      <trkpt lat="47.44633" lon="6.79301">
        <ele>332</ele>
        <time>2015-08-23T09:47:15.000Z</time>
      </trkpt>
      <trkpt lat="47.44636" lon="6.79302">
        <ele>332</ele>
        <time>2015-08-23T09:47:16.000Z</time>
      </trkpt>
      <trkpt lat="47.4464" lon="6.79304">
        <ele>332</ele>
        <time>2015-08-23T09:47:17.000Z</time>
      </trkpt>
      <trkpt lat="47.44643" lon="6.79306">
        <ele>332</ele>
        <time>2015-08-23T09:47:18.000Z</time>
      </trkpt>
      <trkpt lat="47.44647" lon="6.79308">
        <ele>332</ele>
        <time>2015-08-23T09:47:19.000Z</time>
      </trkpt>
      <trkpt lat="47.44651" lon="6.7931">
        <ele>332</ele>
        <time>2015-08-23T09:47:20.000Z</time>
      </trkpt>
      <trkpt lat="47.44655" lon="6.79312">
        <ele>332</ele>
        <time>2015-08-23T09:47:21.000Z</time>
      </trkpt>
      <trkpt lat="47.44659" lon="6.79313">
        <ele>332</ele>
        <time>2015-08-23T09:47:22.000Z</time>
      </trkpt>
      <trkpt lat="47.44663" lon="6.79315">
        <ele>331</ele>
        <time>2015-08-23T09:47:23.000Z</time>
      </trkpt>
      <trkpt lat="47.44667" lon="6.79316">
        <ele>331</ele>
        <time>2015-08-23T09:47:24.000Z</time>
      </trkpt>
      <trkpt lat="47.4467" lon="6.79318">
        <ele>331</ele>
        <time>2015-08-23T09:47:25.000Z</time>
      </trkpt>
      <trkpt lat="47.44674" lon="6.7932">
        <ele>331</ele>
        <time>2015-08-23T09:47:26.000Z</time>
      </trkpt>
      <trkpt lat="47.44678" lon="6.79323">
        <ele>331</ele>
        <time>2015-08-23T09:47:27.000Z</time>
      </trkpt>
      <trkpt lat="47.44683" lon="6.79325">
        <ele>331</ele>
        <time>2015-08-23T09:47:28.000Z</time>
      </trkpt>
      <trkpt lat="47.44687" lon="6.79326">
        <ele>331</ele>
        <time>2015-08-23T09:47:29.000Z</time>
      </trkpt>
      <trkpt lat="47.44693" lon="6.79328">
        <ele>331</ele>
        <time>2015-08-23T09:47:30.000Z</time>
      </trkpt>
      <trkpt lat="47.44697" lon="6.79333">
        <ele>331</ele>
        <time>2015-08-23T09:47:31.000Z</time>
      </trkpt>
      <trkpt lat="47.44701" lon="6.79335">
        <ele>331</ele>
        <time>2015-08-23T09:47:32.000Z</time>
      </trkpt>
      <trkpt lat="47.44706" lon="6.79337">
        <ele>331</ele>
        <time>2015-08-23T09:47:33.000Z</time>
      </trkpt>
      <trkpt lat="47.4471" lon="6.79339">
        <ele>331</ele>
        <time>2015-08-23T09:47:34.000Z</time>
      </trkpt>
      <trkpt lat="47.44714" lon="6.79341">
        <ele>331</ele>
        <time>2015-08-23T09:47:35.000Z</time>
      </trkpt>
      <trkpt lat="47.44718" lon="6.79343">
        <ele>331</ele>
        <time>2015-08-23T09:47:36.000Z</time>
      </trkpt>
      <trkpt lat="47.44722" lon="6.79345">
        <ele>331</ele>
        <time>2015-08-23T09:47:37.000Z</time>
      </trkpt>
      <trkpt lat="47.44726" lon="6.79349">
        <ele>331</ele>
        <time>2015-08-23T09:47:38.000Z</time>
      </trkpt>
      <trkpt lat="47.4473" lon="6.79351">
        <ele>331</ele>
        <time>2015-08-23T09:47:39.000Z</time>
      </trkpt>
      <trkpt lat="47.44735" lon="6.79352">
        <ele>331</ele>
        <time>2015-08-23T09:47:40.000Z</time>
      </trkpt>
      <trkpt lat="47.4474" lon="6.79354">
        <ele>331</ele>
        <time>2015-08-23T09:47:41.000Z</time>
      </trkpt>
      <trkpt lat="47.44745" lon="6.79356">
        <ele>331</ele>
        <time>2015-08-23T09:47:42.000Z</time>
      </trkpt>
      <trkpt lat="47.44749" lon="6.79359">
        <ele>331</ele>
        <time>2015-08-23T09:47:43.000Z</time>
      </trkpt>
      <trkpt lat="47.44754" lon="6.79362">
        <ele>331</ele>
        <time>2015-08-23T09:47:44.000Z</time>
      </trkpt>
      <trkpt lat="47.44759" lon="6.79364">
        <ele>331</ele>
        <time>2015-08-23T09:47:45.000Z</time>
      </trkpt>
      <trkpt lat="47.44763" lon="6.79366">
        <ele>331</ele>
        <time>2015-08-23T09:47:46.000Z</time>
      </trkpt>
      <trkpt lat="47.44768" lon="6.79369">
        <ele>331</ele>
        <time>2015-08-23T09:47:47.000Z</time>
      </trkpt>
      <trkpt lat="47.44773" lon="6.79368">
        <ele>331</ele>
        <time>2015-08-23T09:47:48.000Z</time>
      </trkpt>
      <trkpt lat="47.44777" lon="6.79371">
        <ele>331</ele>
        <time>2015-08-23T09:47:49.000Z</time>
      </trkpt>
      <trkpt lat="47.44782" lon="6.79373">
        <ele>331</ele>
        <time>2015-08-23T09:47:50.000Z</time>
      </trkpt>
      <trkpt lat="47.44786" lon="6.79376">
        <ele>331</ele>
        <time>2015-08-23T09:47:51.000Z</time>
      </trkpt>
      <trkpt lat="47.4479" lon="6.79378">
        <ele>331</ele>
        <time>2015-08-23T09:47:52.000Z</time>
      </trkpt>
      <trkpt lat="47.44794" lon="6.79381">
        <ele>331</ele>
        <time>2015-08-23T09:47:53.000Z</time>
      </trkpt>
      <trkpt lat="47.44798" lon="6.79384">
        <ele>331</ele>
        <time>2015-08-23T09:47:54.000Z</time>
      </trkpt>
      <trkpt lat="47.44802" lon="6.79387">
        <ele>331</ele>
        <time>2015-08-23T09:47:55.000Z</time>
      </trkpt>
      <trkpt lat="47.44806" lon="6.79389">
        <ele>331</ele>
        <time>2015-08-23T09:47:56.000Z</time>
      </trkpt>
      <trkpt lat="47.44809" lon="6.79392">
        <ele>331</ele>
        <time>2015-08-23T09:47:57.000Z</time>
      </trkpt>
      <trkpt lat="47.44813" lon="6.79394">
        <ele>331</ele>
        <time>2015-08-23T09:47:58.000Z</time>
      </trkpt>
      <trkpt lat="47.44817" lon="6.79397">
        <ele>331</ele>
        <time>2015-08-23T09:47:59.000Z</time>
      </trkpt>
      <trkpt lat="47.44821" lon="6.794">
        <ele>331</ele>
        <time>2015-08-23T09:48:00.000Z</time>
      </trkpt>
      <trkpt lat="47.44825" lon="6.79402">
        <ele>331</ele>
        <time>2015-08-23T09:48:01.000Z</time>
      </trkpt>
      <trkpt lat="47.44829" lon="6.79405">
        <ele>331</ele>
        <time>2015-08-23T09:48:02.000Z</time>
      </trkpt>
      <trkpt lat="47.44833" lon="6.79408">
        <ele>331</ele>
        <time>2015-08-23T09:48:03.000Z</time>
      </trkpt>
      <trkpt lat="47.44837" lon="6.79411">
        <ele>331</ele>
        <time>2015-08-23T09:48:04.000Z</time>
      </trkpt>
      <trkpt lat="47.4484" lon="6.79416">
        <ele>331</ele>
        <time>2015-08-23T09:48:05.000Z</time>
      </trkpt>
      <trkpt lat="47.44844" lon="6.79419">
        <ele>331</ele>
        <time>2015-08-23T09:48:06.000Z</time>
      </trkpt>
      <trkpt lat="47.44848" lon="6.79422">
        <ele>332</ele>
        <time>2015-08-23T09:48:07.000Z</time>
      </trkpt>
      <trkpt lat="47.44853" lon="6.79425">
        <ele>332</ele>
        <time>2015-08-23T09:48:08.000Z</time>
      </trkpt>
      <trkpt lat="47.44856" lon="6.79428">
        <ele>332</ele>
        <time>2015-08-23T09:48:09.000Z</time>
      </trkpt>
      <trkpt lat="47.44861" lon="6.79432">
        <ele>332</ele>
        <time>2015-08-23T09:48:10.000Z</time>
      </trkpt>
      <trkpt lat="47.44864" lon="6.79435">
        <ele>332</ele>
        <time>2015-08-23T09:48:11.000Z</time>
      </trkpt>
      <trkpt lat="47.44868" lon="6.79439">
        <ele>332</ele>
        <time>2015-08-23T09:48:12.000Z</time>
      </trkpt>
      <trkpt lat="47.44872" lon="6.79442">
        <ele>332</ele>
        <time>2015-08-23T09:48:13.000Z</time>
      </trkpt>
      <trkpt lat="47.44876" lon="6.79445">
        <ele>332</ele>
        <time>2015-08-23T09:48:14.000Z</time>
      </trkpt>
      <trkpt lat="47.4488" lon="6.79448">
        <ele>332</ele>
        <time>2015-08-23T09:48:15.000Z</time>
      </trkpt>
      <trkpt lat="47.44884" lon="6.79451">
        <ele>332</ele>
        <time>2015-08-23T09:48:16.000Z</time>
      </trkpt>
      <trkpt lat="47.44888" lon="6.79454">
        <ele>332</ele>
        <time>2015-08-23T09:48:17.000Z</time>
      </trkpt>
      <trkpt lat="47.44892" lon="6.79457">
        <ele>332</ele>
        <time>2015-08-23T09:48:18.000Z</time>
      </trkpt>
      <trkpt lat="47.44896" lon="6.79461">
        <ele>332</ele>
        <time>2015-08-23T09:48:19.000Z</time>
      </trkpt>
      <trkpt lat="47.449" lon="6.79465">
        <ele>332</ele>
        <time>2015-08-23T09:48:20.000Z</time>
      </trkpt>
      <trkpt lat="47.44904" lon="6.79467">
        <ele>332</ele>
        <time>2015-08-23T09:48:21.000Z</time>
      </trkpt>
      <trkpt lat="47.44908" lon="6.79471">
        <ele>332</ele>
        <time>2015-08-23T09:48:22.000Z</time>
      </trkpt>
      <trkpt lat="47.44913" lon="6.79475">
        <ele>332</ele>
        <time>2015-08-23T09:48:23.000Z</time>
      </trkpt>
      <trkpt lat="47.44917" lon="6.79479">
        <ele>332</ele>
        <time>2015-08-23T09:48:24.000Z</time>
      </trkpt>
      <trkpt lat="47.44922" lon="6.79485">
        <ele>332</ele>
        <time>2015-08-23T09:48:25.000Z</time>
      </trkpt>
      <trkpt lat="47.44927" lon="6.79489">
        <ele>332</ele>
        <time>2015-08-23T09:48:26.000Z</time>
      </trkpt>
      <trkpt lat="47.44931" lon="6.79492">
        <ele>332</ele>
        <time>2015-08-23T09:48:27.000Z</time>
      </trkpt>
      <trkpt lat="47.44935" lon="6.79494">
        <ele>332</ele>
        <time>2015-08-23T09:48:28.000Z</time>
      </trkpt>
      <trkpt lat="47.44939" lon="6.79497">
        <ele>332</ele>
        <time>2015-08-23T09:48:29.000Z</time>
      </trkpt>
      <trkpt lat="47.44943" lon="6.795">
        <ele>333</ele>
        <time>2015-08-23T09:48:30.000Z</time>
      </trkpt>
      <trkpt lat="47.44947" lon="6.79504">
        <ele>333</ele>
        <time>2015-08-23T09:48:31.000Z</time>
      </trkpt>
      <trkpt lat="47.44951" lon="6.79507">
        <ele>333</ele>
        <time>2015-08-23T09:48:32.000Z</time>
      </trkpt>
      <trkpt lat="47.44954" lon="6.7951">
        <ele>333</ele>
        <time>2015-08-23T09:48:33.000Z</time>
      </trkpt>
      <trkpt lat="47.44959" lon="6.79514">
        <ele>333</ele>
        <time>2015-08-23T09:48:34.000Z</time>
      </trkpt>
      <trkpt lat="47.44963" lon="6.79517">
        <ele>333</ele>
        <time>2015-08-23T09:48:35.000Z</time>
      </trkpt>
      <trkpt lat="47.44968" lon="6.7952">
        <ele>333</ele>
        <time>2015-08-23T09:48:36.000Z</time>
      </trkpt>
      <trkpt lat="47.44971" lon="6.79522">
        <ele>333</ele>
        <time>2015-08-23T09:48:37.000Z</time>
      </trkpt>
      <trkpt lat="47.44975" lon="6.79525">
        <ele>333</ele>
        <time>2015-08-23T09:48:38.000Z</time>
      </trkpt>
      <trkpt lat="47.44979" lon="6.79528">
        <ele>333</ele>
        <time>2015-08-23T09:48:39.000Z</time>
      </trkpt>
      <trkpt lat="47.44983" lon="6.79532">
        <ele>333</ele>
        <time>2015-08-23T09:48:40.000Z</time>
      </trkpt>
      <trkpt lat="47.44986" lon="6.79535">
        <ele>333</ele>
        <time>2015-08-23T09:48:41.000Z</time>
      </trkpt>
      <trkpt lat="47.4499" lon="6.79538">
        <ele>333</ele>
        <time>2015-08-23T09:48:42.000Z</time>
      </trkpt>
      <trkpt lat="47.44994" lon="6.79542">
        <ele>333</ele>
        <time>2015-08-23T09:48:43.000Z</time>
      </trkpt>
      <trkpt lat="47.44998" lon="6.79546">
        <ele>333</ele>
        <time>2015-08-23T09:48:44.000Z</time>
      </trkpt>
      <trkpt lat="47.45001" lon="6.79549">
        <ele>333</ele>
        <time>2015-08-23T09:48:45.000Z</time>
      </trkpt>
      <trkpt lat="47.45005" lon="6.79552">
        <ele>333</ele>
        <time>2015-08-23T09:48:46.000Z</time>
      </trkpt>
      <trkpt lat="47.45007" lon="6.79554">
        <ele>333</ele>
        <time>2015-08-23T09:48:47.000Z</time>
      </trkpt>
      <trkpt lat="47.45011" lon="6.79557">
        <ele>333</ele>
        <time>2015-08-23T09:48:48.000Z</time>
      </trkpt>
      <trkpt lat="47.45013" lon="6.79561">
        <ele>333</ele>
        <time>2015-08-23T09:48:49.000Z</time>
      </trkpt>
      <trkpt lat="47.45017" lon="6.79566">
        <ele>333</ele>
        <time>2015-08-23T09:48:50.000Z</time>
      </trkpt>
      <trkpt lat="47.4502" lon="6.79571">
        <ele>333</ele>
        <time>2015-08-23T09:48:51.000Z</time>
      </trkpt>
      <trkpt lat="47.45023" lon="6.79575">
        <ele>333</ele>
        <time>2015-08-23T09:48:52.000Z</time>
      </trkpt>
      <trkpt lat="47.45025" lon="6.7958">
        <ele>333</ele>
        <time>2015-08-23T09:48:53.000Z</time>
      </trkpt>
      <trkpt lat="47.45029" lon="6.79585">
        <ele>334</ele>
        <time>2015-08-23T09:48:54.000Z</time>
      </trkpt>
      <trkpt lat="47.45031" lon="6.79591">
        <ele>334</ele>
        <time>2015-08-23T09:48:55.000Z</time>
      </trkpt>
      <trkpt lat="47.45035" lon="6.79597">
        <ele>334</ele>
        <time>2015-08-23T09:48:56.000Z</time>
      </trkpt>
      <trkpt lat="47.45038" lon="6.79603">
        <ele>334</ele>
        <time>2015-08-23T09:48:57.000Z</time>
      </trkpt>
      <trkpt lat="47.4504" lon="6.79608">
        <ele>334</ele>
        <time>2015-08-23T09:48:58.000Z</time>
      </trkpt>
      <trkpt lat="47.45043" lon="6.79615">
        <ele>334</ele>
        <time>2015-08-23T09:48:59.000Z</time>
      </trkpt>
      <trkpt lat="47.45045" lon="6.79619">
        <ele>334</ele>
        <time>2015-08-23T09:49:00.000Z</time>
      </trkpt>
      <trkpt lat="47.45048" lon="6.79625">
        <ele>334</ele>
        <time>2015-08-23T09:49:01.000Z</time>
      </trkpt>
      <trkpt lat="47.45051" lon="6.7963">
        <ele>335</ele>
        <time>2015-08-23T09:49:02.000Z</time>
      </trkpt>
      <trkpt lat="47.45052" lon="6.79635">
        <ele>335</ele>
        <time>2015-08-23T09:49:03.000Z</time>
      </trkpt>
      <trkpt lat="47.45053" lon="6.79639">
        <ele>335</ele>
        <time>2015-08-23T09:49:04.000Z</time>
      </trkpt>
      <trkpt lat="47.45055" lon="6.79643">
        <ele>335</ele>
        <time>2015-08-23T09:49:05.000Z</time>
      </trkpt>
      <trkpt lat="47.45057" lon="6.79647">
        <ele>335</ele>
        <time>2015-08-23T09:49:06.000Z</time>
      </trkpt>
      <trkpt lat="47.45058" lon="6.79651">
        <ele>335</ele>
        <time>2015-08-23T09:49:07.000Z</time>
      </trkpt>
      <trkpt lat="47.45055" lon="6.79649">
        <ele>335</ele>
        <time>2015-08-23T09:49:11.000Z</time>
      </trkpt>
      <trkpt lat="47.45053" lon="6.79645">
        <ele>335</ele>
        <time>2015-08-23T09:49:12.000Z</time>
      </trkpt>
      <trkpt lat="47.45052" lon="6.79639">
        <ele>335</ele>
        <time>2015-08-23T09:49:13.000Z</time>
      </trkpt>
      <trkpt lat="47.45051" lon="6.79634">
        <ele>335</ele>
        <time>2015-08-23T09:49:14.000Z</time>
      </trkpt>
      <trkpt lat="47.45051" lon="6.79629">
        <ele>335</ele>
        <time>2015-08-23T09:49:15.000Z</time>
      </trkpt>
      <trkpt lat="47.45052" lon="6.79626">
        <ele>334</ele>
        <time>2015-08-23T09:49:16.000Z</time>
      </trkpt>
      <trkpt lat="47.45054" lon="6.79623">
        <ele>334</ele>
        <time>2015-08-23T09:49:17.000Z</time>
      </trkpt>
      <trkpt lat="47.45056" lon="6.79621">
        <ele>334</ele>
        <time>2015-08-23T09:49:18.000Z</time>
      </trkpt>
      <trkpt lat="47.45059" lon="6.79619">
        <ele>334</ele>
        <time>2015-08-23T09:49:19.000Z</time>
      </trkpt>
      <trkpt lat="47.45062" lon="6.79615">
        <ele>334</ele>
        <time>2015-08-23T09:49:20.000Z</time>
      </trkpt>
      <trkpt lat="47.45065" lon="6.79611">
        <ele>334</ele>
        <time>2015-08-23T09:49:21.000Z</time>
      </trkpt>
      <trkpt lat="47.45068" lon="6.79607">
        <ele>334</ele>
        <time>2015-08-23T09:49:22.000Z</time>
      </trkpt>
      <trkpt lat="47.45072" lon="6.79602">
        <ele>334</ele>
        <time>2015-08-23T09:49:23.000Z</time>
      </trkpt>
      <trkpt lat="47.45075" lon="6.79597">
        <ele>334</ele>
        <time>2015-08-23T09:49:24.000Z</time>
      </trkpt>
      <trkpt lat="47.45079" lon="6.79592">
        <ele>333</ele>
        <time>2015-08-23T09:49:25.000Z</time>
      </trkpt>
      <trkpt lat="47.45082" lon="6.79588">
        <ele>333</ele>
        <time>2015-08-23T09:49:26.000Z</time>
      </trkpt>
      <trkpt lat="47.45085" lon="6.79583">
        <ele>333</ele>
        <time>2015-08-23T09:49:27.000Z</time>
      </trkpt>
      <trkpt lat="47.45088" lon="6.79579">
        <ele>333</ele>
        <time>2015-08-23T09:49:28.000Z</time>
      </trkpt>
      <trkpt lat="47.45092" lon="6.79575">
        <ele>333</ele>
        <time>2015-08-23T09:49:29.000Z</time>
      </trkpt>
      <trkpt lat="47.45095" lon="6.79571">
        <ele>333</ele>
        <time>2015-08-23T09:49:30.000Z</time>
      </trkpt>
      <trkpt lat="47.45101" lon="6.79564">
        <ele>333</ele>
        <time>2015-08-23T09:49:31.000Z</time>
      </trkpt>
      <trkpt lat="47.45105" lon="6.7956">
        <ele>333</ele>
        <time>2015-08-23T09:49:32.000Z</time>
      </trkpt>
      <trkpt lat="47.45108" lon="6.79556">
        <ele>333</ele>
        <time>2015-08-23T09:49:33.000Z</time>
      </trkpt>
      <trkpt lat="47.45111" lon="6.79552">
        <ele>333</ele>
        <time>2015-08-23T09:49:34.000Z</time>
      </trkpt>
      <trkpt lat="47.45113" lon="6.79546">
        <ele>333</ele>
        <time>2015-08-23T09:49:35.000Z</time>
      </trkpt>
      <trkpt lat="47.45115" lon="6.79541">
        <ele>333</ele>
        <time>2015-08-23T09:49:36.000Z</time>
      </trkpt>
      <trkpt lat="47.45118" lon="6.79536">
        <ele>333</ele>
        <time>2015-08-23T09:49:37.000Z</time>
      </trkpt>
      <trkpt lat="47.45122" lon="6.79529">
        <ele>333</ele>
        <time>2015-08-23T09:49:38.000Z</time>
      </trkpt>
      <trkpt lat="47.45124" lon="6.79524">
        <ele>333</ele>
        <time>2015-08-23T09:49:39.000Z</time>
      </trkpt>
      <trkpt lat="47.45126" lon="6.79517">
        <ele>333</ele>
        <time>2015-08-23T09:49:40.000Z</time>
      </trkpt>
      <trkpt lat="47.45128" lon="6.7951">
        <ele>333</ele>
        <time>2015-08-23T09:49:41.000Z</time>
      </trkpt>
      <trkpt lat="47.4513" lon="6.79504">
        <ele>333</ele>
        <time>2015-08-23T09:49:42.000Z</time>
      </trkpt>
      <trkpt lat="47.4513" lon="6.79498">
        <ele>333</ele>
        <time>2015-08-23T09:49:43.000Z</time>
      </trkpt>
      <trkpt lat="47.45132" lon="6.79492">
        <ele>333</ele>
        <time>2015-08-23T09:49:44.000Z</time>
      </trkpt>
      <trkpt lat="47.45133" lon="6.79484">
        <ele>333</ele>
        <time>2015-08-23T09:49:45.000Z</time>
      </trkpt>
      <trkpt lat="47.45135" lon="6.79476">
        <ele>333</ele>
        <time>2015-08-23T09:49:46.000Z</time>
      </trkpt>
      <trkpt lat="47.45137" lon="6.79469">
        <ele>333</ele>
        <time>2015-08-23T09:49:47.000Z</time>
      </trkpt>
      <trkpt lat="47.45138" lon="6.79461">
        <ele>333</ele>
        <time>2015-08-23T09:49:48.000Z</time>
      </trkpt>
      <trkpt lat="47.45141" lon="6.79454">
        <ele>333</ele>
        <time>2015-08-23T09:49:49.000Z</time>
      </trkpt>
      <trkpt lat="47.45142" lon="6.79447">
        <ele>333</ele>
        <time>2015-08-23T09:49:50.000Z</time>
      </trkpt>
      <trkpt lat="47.45144" lon="6.79441">
        <ele>333</ele>
        <time>2015-08-23T09:49:51.000Z</time>
      </trkpt>
      <trkpt lat="47.45146" lon="6.79433">
        <ele>333</ele>
        <time>2015-08-23T09:49:52.000Z</time>
      </trkpt>
      <trkpt lat="47.45148" lon="6.79428">
        <ele>333</ele>
        <time>2015-08-23T09:49:53.000Z</time>
      </trkpt>
      <trkpt lat="47.4515" lon="6.79424">
        <ele>333</ele>
        <time>2015-08-23T09:49:54.000Z</time>
      </trkpt>
      <trkpt lat="47.45152" lon="6.79418">
        <ele>333</ele>
        <time>2015-08-23T09:49:55.000Z</time>
      </trkpt>
      <trkpt lat="47.45152" lon="6.79411">
        <ele>333</ele>
        <time>2015-08-23T09:49:56.000Z</time>
      </trkpt>
      <trkpt lat="47.45154" lon="6.79405">
        <ele>333</ele>
        <time>2015-08-23T09:49:57.000Z</time>
      </trkpt>
      <trkpt lat="47.45155" lon="6.79399">
        <ele>333</ele>
        <time>2015-08-23T09:49:58.000Z</time>
      </trkpt>
      <trkpt lat="47.45156" lon="6.79393">
        <ele>334</ele>
        <time>2015-08-23T09:49:59.000Z</time>
      </trkpt>
      <trkpt lat="47.45156" lon="6.79387">
        <ele>334</ele>
        <time>2015-08-23T09:50:00.000Z</time>
      </trkpt>
      <trkpt lat="47.45158" lon="6.79379">
        <ele>334</ele>
        <time>2015-08-23T09:50:01.000Z</time>
      </trkpt>
      <trkpt lat="47.45159" lon="6.79372">
        <ele>334</ele>
        <time>2015-08-23T09:50:02.000Z</time>
      </trkpt>
      <trkpt lat="47.4516" lon="6.79366">
        <ele>334</ele>
        <time>2015-08-23T09:50:03.000Z</time>
      </trkpt>
      <trkpt lat="47.45161" lon="6.79359">
        <ele>334</ele>
        <time>2015-08-23T09:50:04.000Z</time>
      </trkpt>
      <trkpt lat="47.45163" lon="6.79352">
        <ele>334</ele>
        <time>2015-08-23T09:50:05.000Z</time>
      </trkpt>
      <trkpt lat="47.45165" lon="6.79351">
        <ele>334</ele>
        <time>2015-08-23T09:50:06.000Z</time>
      </trkpt>
      <trkpt lat="47.45172" lon="6.79348">
        <ele>334</ele>
        <time>2015-08-23T09:50:07.000Z</time>
      </trkpt>
      <trkpt lat="47.45174" lon="6.79339">
        <ele>334</ele>
        <time>2015-08-23T09:50:08.000Z</time>
      </trkpt>
      <trkpt lat="47.45178" lon="6.79334">
        <ele>334</ele>
        <time>2015-08-23T09:50:09.000Z</time>
      </trkpt>
      <trkpt lat="47.45181" lon="6.79329">
        <ele>335</ele>
        <time>2015-08-23T09:50:10.000Z</time>
      </trkpt>
      <trkpt lat="47.45182" lon="6.79322">
        <ele>334</ele>
        <time>2015-08-23T09:50:11.000Z</time>
      </trkpt>
      <trkpt lat="47.45184" lon="6.79314">
        <ele>334</ele>
        <time>2015-08-23T09:50:12.000Z</time>
      </trkpt>
      <trkpt lat="47.45187" lon="6.79307">
        <ele>334</ele>
        <time>2015-08-23T09:50:13.000Z</time>
      </trkpt>
      <trkpt lat="47.45188" lon="6.79296">
        <ele>334</ele>
        <time>2015-08-23T09:50:14.000Z</time>
      </trkpt>
      <trkpt lat="47.45189" lon="6.79291">
        <ele>334</ele>
        <time>2015-08-23T09:50:15.000Z</time>
      </trkpt>
      <trkpt lat="47.45191" lon="6.79285">
        <ele>334</ele>
        <time>2015-08-23T09:50:16.000Z</time>
      </trkpt>
      <trkpt lat="47.45194" lon="6.79277">
        <ele>334</ele>
        <time>2015-08-23T09:50:17.000Z</time>
      </trkpt>
      <trkpt lat="47.45195" lon="6.79269">
        <ele>334</ele>
        <time>2015-08-23T09:50:18.000Z</time>
      </trkpt>
      <trkpt lat="47.45197" lon="6.79262">
        <ele>334</ele>
        <time>2015-08-23T09:50:19.000Z</time>
      </trkpt>
      <trkpt lat="47.45198" lon="6.79254">
        <ele>334</ele>
        <time>2015-08-23T09:50:20.000Z</time>
      </trkpt>
      <trkpt lat="47.452" lon="6.79246">
        <ele>334</ele>
        <time>2015-08-23T09:50:21.000Z</time>
      </trkpt>
      <trkpt lat="47.45202" lon="6.79239">
        <ele>334</ele>
        <time>2015-08-23T09:50:22.000Z</time>
      </trkpt>
      <trkpt lat="47.45205" lon="6.79233">
        <ele>334</ele>
        <time>2015-08-23T09:50:23.000Z</time>
      </trkpt>
      <trkpt lat="47.45206" lon="6.79227">
        <ele>334</ele>
        <time>2015-08-23T09:50:24.000Z</time>
      </trkpt>
      <trkpt lat="47.45207" lon="6.7922">
        <ele>334</ele>
        <time>2015-08-23T09:50:25.000Z</time>
      </trkpt>
      <trkpt lat="47.45209" lon="6.79213">
        <ele>334</ele>
        <time>2015-08-23T09:50:26.000Z</time>
      </trkpt>
      <trkpt lat="47.4521" lon="6.79205">
        <ele>334</ele>
        <time>2015-08-23T09:50:27.000Z</time>
      </trkpt>
      <trkpt lat="47.45212" lon="6.79197">
        <ele>334</ele>
        <time>2015-08-23T09:50:28.000Z</time>
      </trkpt>
      <trkpt lat="47.45213" lon="6.7919">
        <ele>334</ele>
        <time>2015-08-23T09:50:29.000Z</time>
      </trkpt>
      <trkpt lat="47.45215" lon="6.79183">
        <ele>333</ele>
        <time>2015-08-23T09:50:30.000Z</time>
      </trkpt>
      <trkpt lat="47.45217" lon="6.79176">
        <ele>333</ele>
        <time>2015-08-23T09:50:31.000Z</time>
      </trkpt>
      <trkpt lat="47.45218" lon="6.7917">
        <ele>333</ele>
        <time>2015-08-23T09:50:32.000Z</time>
      </trkpt>
      <trkpt lat="47.4522" lon="6.79163">
        <ele>333</ele>
        <time>2015-08-23T09:50:33.000Z</time>
      </trkpt>
      <trkpt lat="47.45221" lon="6.79156">
        <ele>333</ele>
        <time>2015-08-23T09:50:34.000Z</time>
      </trkpt>
      <trkpt lat="47.45223" lon="6.7915">
        <ele>333</ele>
        <time>2015-08-23T09:50:35.000Z</time>
      </trkpt>
      <trkpt lat="47.45225" lon="6.79144">
        <ele>333</ele>
        <time>2015-08-23T09:50:36.000Z</time>
      </trkpt>
      <trkpt lat="47.45227" lon="6.79139">
        <ele>333</ele>
        <time>2015-08-23T09:50:37.000Z</time>
      </trkpt>
      <trkpt lat="47.45232" lon="6.79137">
        <ele>333</ele>
        <time>2015-08-23T09:50:38.000Z</time>
      </trkpt>
      <trkpt lat="47.45236" lon="6.79135">
        <ele>333</ele>
        <time>2015-08-23T09:50:39.000Z</time>
      </trkpt>
      <trkpt lat="47.45242" lon="6.79133">
        <ele>333</ele>
        <time>2015-08-23T09:50:40.000Z</time>
      </trkpt>
      <trkpt lat="47.45247" lon="6.79127">
        <ele>333</ele>
        <time>2015-08-23T09:50:41.000Z</time>
      </trkpt>
      <trkpt lat="47.4525" lon="6.7912">
        <ele>332</ele>
        <time>2015-08-23T09:50:42.000Z</time>
      </trkpt>
      <trkpt lat="47.45253" lon="6.79114">
        <ele>332</ele>
        <time>2015-08-23T09:50:43.000Z</time>
      </trkpt>
      <trkpt lat="47.45256" lon="6.79106">
        <ele>332</ele>
        <time>2015-08-23T09:50:44.000Z</time>
      </trkpt>
      <trkpt lat="47.45259" lon="6.79098">
        <ele>332</ele>
        <time>2015-08-23T09:50:45.000Z</time>
      </trkpt>
      <trkpt lat="47.45261" lon="6.79091">
        <ele>332</ele>
        <time>2015-08-23T09:50:46.000Z</time>
      </trkpt>
      <trkpt lat="47.45264" lon="6.79084">
        <ele>332</ele>
        <time>2015-08-23T09:50:47.000Z</time>
      </trkpt>
      <trkpt lat="47.45266" lon="6.79076">
        <ele>332</ele>
        <time>2015-08-23T09:50:48.000Z</time>
      </trkpt>
      <trkpt lat="47.45268" lon="6.79069">
        <ele>332</ele>
        <time>2015-08-23T09:50:49.000Z</time>
      </trkpt>
      <trkpt lat="47.4527" lon="6.79062">
        <ele>332</ele>
        <time>2015-08-23T09:50:50.000Z</time>
      </trkpt>
      <trkpt lat="47.45272" lon="6.79056">
        <ele>331</ele>
        <time>2015-08-23T09:50:51.000Z</time>
      </trkpt>
      <trkpt lat="47.45274" lon="6.79049">
        <ele>331</ele>
        <time>2015-08-23T09:50:52.000Z</time>
      </trkpt>
      <trkpt lat="47.45276" lon="6.79042">
        <ele>331</ele>
        <time>2015-08-23T09:50:53.000Z</time>
      </trkpt>
      <trkpt lat="47.45278" lon="6.79039">
        <ele>331</ele>
        <time>2015-08-23T09:50:54.000Z</time>
      </trkpt>
      <trkpt lat="47.45282" lon="6.79031">
        <ele>331</ele>
        <time>2015-08-23T09:50:55.000Z</time>
      </trkpt>
      <trkpt lat="47.45286" lon="6.79023">
        <ele>331</ele>
        <time>2015-08-23T09:50:56.000Z</time>
      </trkpt>
      <trkpt lat="47.4529" lon="6.79016">
        <ele>331</ele>
        <time>2015-08-23T09:50:57.000Z</time>
      </trkpt>
      <trkpt lat="47.45295" lon="6.79011">
        <ele>331</ele>
        <time>2015-08-23T09:50:58.000Z</time>
      </trkpt>
      <trkpt lat="47.45299" lon="6.79004">
        <ele>331</ele>
        <time>2015-08-23T09:50:59.000Z</time>
      </trkpt>
      <trkpt lat="47.45302" lon="6.78996">
        <ele>331</ele>
        <time>2015-08-23T09:51:00.000Z</time>
      </trkpt>
      <trkpt lat="47.45306" lon="6.78989">
        <ele>331</ele>
        <time>2015-08-23T09:51:01.000Z</time>
      </trkpt>
      <trkpt lat="47.4531" lon="6.78983">
        <ele>331</ele>
        <time>2015-08-23T09:51:02.000Z</time>
      </trkpt>
      <trkpt lat="47.45315" lon="6.78978">
        <ele>331</ele>
        <time>2015-08-23T09:51:03.000Z</time>
      </trkpt>
      <trkpt lat="47.45319" lon="6.78973">
        <ele>331</ele>
        <time>2015-08-23T09:51:04.000Z</time>
      </trkpt>
      <trkpt lat="47.45323" lon="6.78967">
        <ele>331</ele>
        <time>2015-08-23T09:51:05.000Z</time>
      </trkpt>
      <trkpt lat="47.45327" lon="6.78962">
        <ele>331</ele>
        <time>2015-08-23T09:51:06.000Z</time>
      </trkpt>
      <trkpt lat="47.45333" lon="6.78958">
        <ele>331</ele>
        <time>2015-08-23T09:51:07.000Z</time>
      </trkpt>
      <trkpt lat="47.45338" lon="6.78955">
        <ele>331</ele>
        <time>2015-08-23T09:51:08.000Z</time>
      </trkpt>
      <trkpt lat="47.45343" lon="6.7895">
        <ele>331</ele>
        <time>2015-08-23T09:51:09.000Z</time>
      </trkpt>
      <trkpt lat="47.45346" lon="6.78944">
        <ele>331</ele>
        <time>2015-08-23T09:51:10.000Z</time>
      </trkpt>
      <trkpt lat="47.4535" lon="6.78937">
        <ele>331</ele>
        <time>2015-08-23T09:51:11.000Z</time>
      </trkpt>
      <trkpt lat="47.45354" lon="6.7893">
        <ele>331</ele>
        <time>2015-08-23T09:51:12.000Z</time>
      </trkpt>
      <trkpt lat="47.45357" lon="6.78923">
        <ele>331</ele>
        <time>2015-08-23T09:51:13.000Z</time>
      </trkpt>
      <trkpt lat="47.45361" lon="6.78917">
        <ele>331</ele>
        <time>2015-08-23T09:51:14.000Z</time>
      </trkpt>
      <trkpt lat="47.45365" lon="6.78911">
        <ele>332</ele>
        <time>2015-08-23T09:51:15.000Z</time>
      </trkpt>
      <trkpt lat="47.45369" lon="6.78906">
        <ele>332</ele>
        <time>2015-08-23T09:51:16.000Z</time>
      </trkpt>
      <trkpt lat="47.45373" lon="6.78901">
        <ele>332</ele>
        <time>2015-08-23T09:51:17.000Z</time>
      </trkpt>
      <trkpt lat="47.45377" lon="6.78897">
        <ele>332</ele>
        <time>2015-08-23T09:51:18.000Z</time>
      </trkpt>
      <trkpt lat="47.45382" lon="6.78894">
        <ele>332</ele>
        <time>2015-08-23T09:51:19.000Z</time>
      </trkpt>
      <trkpt lat="47.45386" lon="6.7889">
        <ele>332</ele>
        <time>2015-08-23T09:51:20.000Z</time>
      </trkpt>
      <trkpt lat="47.4539" lon="6.78886">
        <ele>332</ele>
        <time>2015-08-23T09:51:21.000Z</time>
      </trkpt>
      <trkpt lat="47.45394" lon="6.7888">
        <ele>332</ele>
        <time>2015-08-23T09:51:22.000Z</time>
      </trkpt>
      <trkpt lat="47.45397" lon="6.78873">
        <ele>332</ele>
        <time>2015-08-23T09:51:23.000Z</time>
      </trkpt>
      <trkpt lat="47.454" lon="6.78868">
        <ele>332</ele>
        <time>2015-08-23T09:51:24.000Z</time>
      </trkpt>
      <trkpt lat="47.45404" lon="6.78863">
        <ele>332</ele>
        <time>2015-08-23T09:51:25.000Z</time>
      </trkpt>
      <trkpt lat="47.45407" lon="6.78858">
        <ele>332</ele>
        <time>2015-08-23T09:51:26.000Z</time>
      </trkpt>
      <trkpt lat="47.4541" lon="6.78854">
        <ele>332</ele>
        <time>2015-08-23T09:51:27.000Z</time>
      </trkpt>
      <trkpt lat="47.45414" lon="6.7885">
        <ele>332</ele>
        <time>2015-08-23T09:51:28.000Z</time>
      </trkpt>
      <trkpt lat="47.45419" lon="6.78847">
        <ele>332</ele>
        <time>2015-08-23T09:51:29.000Z</time>
      </trkpt>
      <trkpt lat="47.45423" lon="6.78842">
        <ele>332</ele>
        <time>2015-08-23T09:51:30.000Z</time>
      </trkpt>
      <trkpt lat="47.45426" lon="6.78838">
        <ele>332</ele>
        <time>2015-08-23T09:51:31.000Z</time>
      </trkpt>
      <trkpt lat="47.45429" lon="6.78834">
        <ele>332</ele>
        <time>2015-08-23T09:51:32.000Z</time>
      </trkpt>
      <trkpt lat="47.45432" lon="6.7883">
        <ele>333</ele>
        <time>2015-08-23T09:51:33.000Z</time>
      </trkpt>
      <trkpt lat="47.45436" lon="6.78826">
        <ele>333</ele>
        <time>2015-08-23T09:51:34.000Z</time>
      </trkpt>
      <trkpt lat="47.45439" lon="6.78822">
        <ele>333</ele>
        <time>2015-08-23T09:51:35.000Z</time>
      </trkpt>
      <trkpt lat="47.45442" lon="6.78818">
        <ele>333</ele>
        <time>2015-08-23T09:51:36.000Z</time>
      </trkpt>
      <trkpt lat="47.45445" lon="6.78815">
        <ele>333</ele>
        <time>2015-08-23T09:51:37.000Z</time>
      </trkpt>
      <trkpt lat="47.45448" lon="6.78811">
        <ele>333</ele>
        <time>2015-08-23T09:51:38.000Z</time>
      </trkpt>
      <trkpt lat="47.45451" lon="6.78807">
        <ele>333</ele>
        <time>2015-08-23T09:51:39.000Z</time>
      </trkpt>
      <trkpt lat="47.45454" lon="6.78803">
        <ele>333</ele>
        <time>2015-08-23T09:51:40.000Z</time>
      </trkpt>
      <trkpt lat="47.45457" lon="6.78799">
        <ele>333</ele>
        <time>2015-08-23T09:51:41.000Z</time>
      </trkpt>
      <trkpt lat="47.4546" lon="6.78794">
        <ele>333</ele>
        <time>2015-08-23T09:51:42.000Z</time>
      </trkpt>
      <trkpt lat="47.45463" lon="6.7879">
        <ele>333</ele>
        <time>2015-08-23T09:51:43.000Z</time>
      </trkpt>
      <trkpt lat="47.45466" lon="6.78787">
        <ele>333</ele>
        <time>2015-08-23T09:51:44.000Z</time>
      </trkpt>
      <trkpt lat="47.4547" lon="6.78783">
        <ele>333</ele>
        <time>2015-08-23T09:51:45.000Z</time>
      </trkpt>
      <trkpt lat="47.45473" lon="6.7878">
        <ele>334</ele>
        <time>2015-08-23T09:51:46.000Z</time>
      </trkpt>
      <trkpt lat="47.45477" lon="6.78777">
        <ele>334</ele>
        <time>2015-08-23T09:51:47.000Z</time>
      </trkpt>
      <trkpt lat="47.4548" lon="6.78773">
        <ele>334</ele>
        <time>2015-08-23T09:51:48.000Z</time>
      </trkpt>
      <trkpt lat="47.45483" lon="6.7877">
        <ele>334</ele>
        <time>2015-08-23T09:51:49.000Z</time>
      </trkpt>
      <trkpt lat="47.45485" lon="6.78767">
        <ele>334</ele>
        <time>2015-08-23T09:51:50.000Z</time>
      </trkpt>
      <trkpt lat="47.45487" lon="6.78765">
        <ele>334</ele>
        <time>2015-08-23T09:51:51.000Z</time>
      </trkpt>
      <trkpt lat="47.45487" lon="6.78759">
        <ele>334</ele>
        <time>2015-08-23T09:51:55.000Z</time>
      </trkpt>
      <trkpt lat="47.45487" lon="6.78757">
        <ele>334</ele>
        <time>2015-08-23T09:51:56.000Z</time>
      </trkpt>
      <trkpt lat="47.45485" lon="6.78752">
        <ele>334</ele>
        <time>2015-08-23T09:51:58.000Z</time>
      </trkpt>
      <trkpt lat="47.45485" lon="6.7875">
        <ele>334</ele>
        <time>2015-08-23T09:51:59.000Z</time>
      </trkpt>
      <trkpt lat="47.45482" lon="6.78746">
        <ele>335</ele>
        <time>2015-08-23T09:52:03.000Z</time>
      </trkpt>
      <trkpt lat="47.45481" lon="6.78745">
        <ele>335</ele>
        <time>2015-08-23T09:52:04.000Z</time>
      </trkpt>
      <trkpt lat="47.45479" lon="6.7874">
        <ele>335</ele>
        <time>2015-08-23T09:52:07.000Z</time>
      </trkpt>
      <trkpt lat="47.45477" lon="6.78737">
        <ele>335</ele>
        <time>2015-08-23T09:52:08.000Z</time>
      </trkpt>
      <trkpt lat="47.45476" lon="6.78734">
        <ele>335</ele>
        <time>2015-08-23T09:52:09.000Z</time>
      </trkpt>
      <trkpt lat="47.45475" lon="6.78731">
        <ele>335</ele>
        <time>2015-08-23T09:52:10.000Z</time>
      </trkpt>
      <trkpt lat="47.45473" lon="6.78727">
        <ele>335</ele>
        <time>2015-08-23T09:52:11.000Z</time>
      </trkpt>
      <trkpt lat="47.45472" lon="6.78722">
        <ele>335</ele>
        <time>2015-08-23T09:52:12.000Z</time>
      </trkpt>
      <trkpt lat="47.45471" lon="6.78717">
        <ele>335</ele>
        <time>2015-08-23T09:52:13.000Z</time>
      </trkpt>
      <trkpt lat="47.4547" lon="6.78711">
        <ele>335</ele>
        <time>2015-08-23T09:52:14.000Z</time>
      </trkpt>
      <trkpt lat="47.45468" lon="6.78705">
        <ele>335</ele>
        <time>2015-08-23T09:52:15.000Z</time>
      </trkpt>
      <trkpt lat="47.45466" lon="6.78699">
        <ele>335</ele>
        <time>2015-08-23T09:52:16.000Z</time>
      </trkpt>
      <trkpt lat="47.45462" lon="6.7869">
        <ele>335</ele>
        <time>2015-08-23T09:52:17.000Z</time>
      </trkpt>
      <trkpt lat="47.45459" lon="6.78685">
        <ele>335</ele>
        <time>2015-08-23T09:52:18.000Z</time>
      </trkpt>
      <trkpt lat="47.45456" lon="6.78679">
        <ele>335</ele>
        <time>2015-08-23T09:52:19.000Z</time>
      </trkpt>
      <trkpt lat="47.45453" lon="6.78673">
        <ele>335</ele>
        <time>2015-08-23T09:52:20.000Z</time>
      </trkpt>
      <trkpt lat="47.4545" lon="6.78668">
        <ele>335</ele>
        <time>2015-08-23T09:52:21.000Z</time>
      </trkpt>
      <trkpt lat="47.45448" lon="6.78662">
        <ele>337</ele>
        <time>2015-08-23T09:52:22.000Z</time>
      </trkpt>
      <trkpt lat="47.45444" lon="6.78657">
        <ele>337</ele>
        <time>2015-08-23T09:52:23.000Z</time>
      </trkpt>
      <trkpt lat="47.45443" lon="6.78651">
        <ele>337</ele>
        <time>2015-08-23T09:52:24.000Z</time>
      </trkpt>
      <trkpt lat="47.4544" lon="6.78645">
        <ele>338</ele>
        <time>2015-08-23T09:52:25.000Z</time>
      </trkpt>
      <trkpt lat="47.45437" lon="6.78639">
        <ele>338</ele>
        <time>2015-08-23T09:52:26.000Z</time>
      </trkpt>
      <trkpt lat="47.45434" lon="6.78633">
        <ele>338</ele>
        <time>2015-08-23T09:52:27.000Z</time>
      </trkpt>
      <trkpt lat="47.45432" lon="6.78628">
        <ele>338</ele>
        <time>2015-08-23T09:52:28.000Z</time>
      </trkpt>
      <trkpt lat="47.45429" lon="6.78622">
        <ele>338</ele>
        <time>2015-08-23T09:52:29.000Z</time>
      </trkpt>
      <trkpt lat="47.45426" lon="6.78616">
        <ele>338</ele>
        <time>2015-08-23T09:52:30.000Z</time>
      </trkpt>
      <trkpt lat="47.45423" lon="6.7861">
        <ele>338</ele>
        <time>2015-08-23T09:52:31.000Z</time>
      </trkpt>
      <trkpt lat="47.45419" lon="6.78604">
        <ele>339</ele>
        <time>2015-08-23T09:52:32.000Z</time>
      </trkpt>
      <trkpt lat="47.45416" lon="6.78598">
        <ele>337</ele>
        <time>2015-08-23T09:52:33.000Z</time>
      </trkpt>
      <trkpt lat="47.45413" lon="6.78593">
        <ele>338</ele>
        <time>2015-08-23T09:52:34.000Z</time>
      </trkpt>
      <trkpt lat="47.45409" lon="6.78587">
        <ele>338</ele>
        <time>2015-08-23T09:52:35.000Z</time>
      </trkpt>
      <trkpt lat="47.45406" lon="6.78581">
        <ele>339</ele>
        <time>2015-08-23T09:52:36.000Z</time>
      </trkpt>
      <trkpt lat="47.45402" lon="6.78575">
        <ele>339</ele>
        <time>2015-08-23T09:52:37.000Z</time>
      </trkpt>
      <trkpt lat="47.45398" lon="6.7857">
        <ele>339</ele>
        <time>2015-08-23T09:52:38.000Z</time>
      </trkpt>
      <trkpt lat="47.45395" lon="6.78564">
        <ele>339</ele>
        <time>2015-08-23T09:52:39.000Z</time>
      </trkpt>
      <trkpt lat="47.45392" lon="6.78558">
        <ele>339</ele>
        <time>2015-08-23T09:52:40.000Z</time>
      </trkpt>
      <trkpt lat="47.4539" lon="6.78553">
        <ele>339</ele>
        <time>2015-08-23T09:52:41.000Z</time>
      </trkpt>
      <trkpt lat="47.45387" lon="6.78547">
        <ele>339</ele>
        <time>2015-08-23T09:52:42.000Z</time>
      </trkpt>
      <trkpt lat="47.45385" lon="6.78541">
        <ele>339</ele>
        <time>2015-08-23T09:52:43.000Z</time>
      </trkpt>
      <trkpt lat="47.45383" lon="6.78536">
        <ele>339</ele>
        <time>2015-08-23T09:52:44.000Z</time>
      </trkpt>
      <trkpt lat="47.45381" lon="6.7853">
        <ele>339</ele>
        <time>2015-08-23T09:52:45.000Z</time>
      </trkpt>
      <trkpt lat="47.4538" lon="6.78526">
        <ele>339</ele>
        <time>2015-08-23T09:52:46.000Z</time>
      </trkpt>
      <trkpt lat="47.45379" lon="6.78522">
        <ele>339</ele>
        <time>2015-08-23T09:52:47.000Z</time>
      </trkpt>
      <trkpt lat="47.45378" lon="6.78518">
        <ele>339</ele>
        <time>2015-08-23T09:52:48.000Z</time>
      </trkpt>
      <trkpt lat="47.45377" lon="6.78513">
        <ele>339</ele>
        <time>2015-08-23T09:52:49.000Z</time>
      </trkpt>
      <trkpt lat="47.45376" lon="6.78509">
        <ele>339</ele>
        <time>2015-08-23T09:52:50.000Z</time>
      </trkpt>
      <trkpt lat="47.45375" lon="6.78505">
        <ele>339</ele>
        <time>2015-08-23T09:52:51.000Z</time>
      </trkpt>
      <trkpt lat="47.45373" lon="6.785">
        <ele>339</ele>
        <time>2015-08-23T09:52:52.000Z</time>
      </trkpt>
      <trkpt lat="47.45374" lon="6.78494">
        <ele>342</ele>
        <time>2015-08-23T09:52:53.000Z</time>
      </trkpt>
      <trkpt lat="47.45374" lon="6.78489">
        <ele>342</ele>
        <time>2015-08-23T09:52:54.000Z</time>
      </trkpt>
      <trkpt lat="47.45375" lon="6.78485">
        <ele>342</ele>
        <time>2015-08-23T09:52:55.000Z</time>
      </trkpt>
      <trkpt lat="47.45378" lon="6.78482">
        <ele>342</ele>
        <time>2015-08-23T09:52:56.000Z</time>
      </trkpt>
      <trkpt lat="47.45381" lon="6.78481">
        <ele>342</ele>
        <time>2015-08-23T09:52:57.000Z</time>
      </trkpt>
      <trkpt lat="47.45385" lon="6.78481">
        <ele>342</ele>
        <time>2015-08-23T09:52:58.000Z</time>
      </trkpt>
      <trkpt lat="47.45388" lon="6.78483">
        <ele>342</ele>
        <time>2015-08-23T09:52:59.000Z</time>
      </trkpt>
      <trkpt lat="47.45392" lon="6.78485">
        <ele>343</ele>
        <time>2015-08-23T09:53:00.000Z</time>
      </trkpt>
      <trkpt lat="47.45395" lon="6.78488">
        <ele>343</ele>
        <time>2015-08-23T09:53:01.000Z</time>
      </trkpt>
      <trkpt lat="47.45397" lon="6.78491">
        <ele>343</ele>
        <time>2015-08-23T09:53:02.000Z</time>
      </trkpt>
      <trkpt lat="47.454" lon="6.78494">
        <ele>343</ele>
        <time>2015-08-23T09:53:03.000Z</time>
      </trkpt>
      <trkpt lat="47.45402" lon="6.78496">
        <ele>343</ele>
        <time>2015-08-23T09:53:04.000Z</time>
      </trkpt>
      <trkpt lat="47.45405" lon="6.78498">
        <ele>343</ele>
        <time>2015-08-23T09:53:05.000Z</time>
      </trkpt>
      <trkpt lat="47.45407" lon="6.785">
        <ele>342</ele>
        <time>2015-08-23T09:53:06.000Z</time>
      </trkpt>
      <trkpt lat="47.45409" lon="6.78502">
        <ele>343</ele>
        <time>2015-08-23T09:53:07.000Z</time>
      </trkpt>
      <trkpt lat="47.45412" lon="6.78504">
        <ele>343</ele>
        <time>2015-08-23T09:53:08.000Z</time>
      </trkpt>
      <trkpt lat="47.45414" lon="6.78505">
        <ele>343</ele>
        <time>2015-08-23T09:53:09.000Z</time>
      </trkpt>
      <trkpt lat="47.45416" lon="6.78507">
        <ele>343</ele>
        <time>2015-08-23T09:53:10.000Z</time>
      </trkpt>
      <trkpt lat="47.45418" lon="6.78508">
        <ele>344</ele>
        <time>2015-08-23T09:53:11.000Z</time>
      </trkpt>
      <trkpt lat="47.45421" lon="6.78509">
        <ele>344</ele>
        <time>2015-08-23T09:53:12.000Z</time>
      </trkpt>
      <trkpt lat="47.45423" lon="6.78511">
        <ele>344</ele>
        <time>2015-08-23T09:53:13.000Z</time>
      </trkpt>
      <trkpt lat="47.45426" lon="6.78511">
        <ele>344</ele>
        <time>2015-08-23T09:53:14.000Z</time>
      </trkpt>
      <trkpt lat="47.45428" lon="6.78512">
        <ele>344</ele>
        <time>2015-08-23T09:53:15.000Z</time>
      </trkpt>
      <trkpt lat="47.45431" lon="6.78512">
        <ele>344</ele>
        <time>2015-08-23T09:53:16.000Z</time>
      </trkpt>
      <trkpt lat="47.45433" lon="6.78512">
        <ele>344</ele>
        <time>2015-08-23T09:53:17.000Z</time>
      </trkpt>
      <trkpt lat="47.45436" lon="6.78511">
        <ele>344</ele>
        <time>2015-08-23T09:53:18.000Z</time>
      </trkpt>
      <trkpt lat="47.45438" lon="6.78511">
        <ele>344</ele>
        <time>2015-08-23T09:53:19.000Z</time>
      </trkpt>
      <trkpt lat="47.45441" lon="6.7851">
        <ele>344</ele>
        <time>2015-08-23T09:53:20.000Z</time>
      </trkpt>
      <trkpt lat="47.45444" lon="6.7851">
        <ele>344</ele>
        <time>2015-08-23T09:53:21.000Z</time>
      </trkpt>
      <trkpt lat="47.45446" lon="6.78509">
        <ele>344</ele>
        <time>2015-08-23T09:53:22.000Z</time>
      </trkpt>
      <trkpt lat="47.45449" lon="6.78507">
        <ele>344</ele>
        <time>2015-08-23T09:53:23.000Z</time>
      </trkpt>
      <trkpt lat="47.45452" lon="6.78506">
        <ele>344</ele>
        <time>2015-08-23T09:53:24.000Z</time>
      </trkpt>
      <trkpt lat="47.45454" lon="6.78505">
        <ele>344</ele>
        <time>2015-08-23T09:53:25.000Z</time>
      </trkpt>
      <trkpt lat="47.45457" lon="6.78504">
        <ele>344</ele>
        <time>2015-08-23T09:53:26.000Z</time>
      </trkpt>
      <trkpt lat="47.45459" lon="6.78503">
        <ele>344</ele>
        <time>2015-08-23T09:53:27.000Z</time>
      </trkpt>
      <trkpt lat="47.45462" lon="6.78501">
        <ele>345</ele>
        <time>2015-08-23T09:53:28.000Z</time>
      </trkpt>
      <trkpt lat="47.45464" lon="6.78499">
        <ele>347</ele>
        <time>2015-08-23T09:53:29.000Z</time>
      </trkpt>
      <trkpt lat="47.45467" lon="6.78498">
        <ele>347</ele>
        <time>2015-08-23T09:53:30.000Z</time>
      </trkpt>
      <trkpt lat="47.4547" lon="6.78496">
        <ele>347</ele>
        <time>2015-08-23T09:53:31.000Z</time>
      </trkpt>
      <trkpt lat="47.45473" lon="6.78495">
        <ele>348</ele>
        <time>2015-08-23T09:53:32.000Z</time>
      </trkpt>
      <trkpt lat="47.45475" lon="6.78493">
        <ele>348</ele>
        <time>2015-08-23T09:53:33.000Z</time>
      </trkpt>
      <trkpt lat="47.45478" lon="6.78492">
        <ele>348</ele>
        <time>2015-08-23T09:53:34.000Z</time>
      </trkpt>
      <trkpt lat="47.45481" lon="6.78491">
        <ele>348</ele>
        <time>2015-08-23T09:53:35.000Z</time>
      </trkpt>
      <trkpt lat="47.45484" lon="6.78489">
        <ele>348</ele>
        <time>2015-08-23T09:53:36.000Z</time>
      </trkpt>
      <trkpt lat="47.45487" lon="6.78488">
        <ele>348</ele>
        <time>2015-08-23T09:53:37.000Z</time>
      </trkpt>
      <trkpt lat="47.45489" lon="6.78486">
        <ele>348</ele>
        <time>2015-08-23T09:53:38.000Z</time>
      </trkpt>
      <trkpt lat="47.45492" lon="6.78484">
        <ele>348</ele>
        <time>2015-08-23T09:53:39.000Z</time>
      </trkpt>
      <trkpt lat="47.45495" lon="6.78482">
        <ele>348</ele>
        <time>2015-08-23T09:53:40.000Z</time>
      </trkpt>
      <trkpt lat="47.45498" lon="6.78481">
        <ele>348</ele>
        <time>2015-08-23T09:53:41.000Z</time>
      </trkpt>
      <trkpt lat="47.45501" lon="6.78479">
        <ele>350</ele>
        <time>2015-08-23T09:53:42.000Z</time>
      </trkpt>
      <trkpt lat="47.45504" lon="6.78477">
        <ele>350</ele>
        <time>2015-08-23T09:53:43.000Z</time>
      </trkpt>
      <trkpt lat="47.45507" lon="6.78476">
        <ele>350</ele>
        <time>2015-08-23T09:53:44.000Z</time>
      </trkpt>
      <trkpt lat="47.4551" lon="6.78474">
        <ele>350</ele>
        <time>2015-08-23T09:53:45.000Z</time>
      </trkpt>
      <trkpt lat="47.45513" lon="6.78473">
        <ele>350</ele>
        <time>2015-08-23T09:53:46.000Z</time>
      </trkpt>
      <trkpt lat="47.45516" lon="6.78471">
        <ele>350</ele>
        <time>2015-08-23T09:53:47.000Z</time>
      </trkpt>
      <trkpt lat="47.45519" lon="6.78469">
        <ele>350</ele>
        <time>2015-08-23T09:53:48.000Z</time>
      </trkpt>
      <trkpt lat="47.45522" lon="6.78467">
        <ele>351</ele>
        <time>2015-08-23T09:53:48.999Z</time>
      </trkpt>
      <trkpt lat="47.45525" lon="6.78465">
        <ele>351</ele>
        <time>2015-08-23T09:53:49.999Z</time>
      </trkpt>
      <trkpt lat="47.45528" lon="6.78463">
        <ele>351</ele>
        <time>2015-08-23T09:53:51.000Z</time>
      </trkpt>
      <trkpt lat="47.45531" lon="6.78461">
        <ele>351</ele>
        <time>2015-08-23T09:53:52.000Z</time>
      </trkpt>
      <trkpt lat="47.45535" lon="6.7846">
        <ele>351</ele>
        <time>2015-08-23T09:53:53.000Z</time>
      </trkpt>
      <trkpt lat="47.45538" lon="6.78458">
        <ele>351</ele>
        <time>2015-08-23T09:53:54.000Z</time>
      </trkpt>
      <trkpt lat="47.45542" lon="6.78456">
        <ele>351</ele>
        <time>2015-08-23T09:53:55.000Z</time>
      </trkpt>
      <trkpt lat="47.45545" lon="6.78454">
        <ele>351</ele>
        <time>2015-08-23T09:53:56.000Z</time>
      </trkpt>
      <trkpt lat="47.45548" lon="6.78453">
        <ele>351</ele>
        <time>2015-08-23T09:53:57.000Z</time>
      </trkpt>
      <trkpt lat="47.45551" lon="6.78452">
        <ele>351</ele>
        <time>2015-08-23T09:53:58.000Z</time>
      </trkpt>
      <trkpt lat="47.45554" lon="6.78451">
        <ele>351</ele>
        <time>2015-08-23T09:53:59.000Z</time>
      </trkpt>
      <trkpt lat="47.45558" lon="6.7845">
        <ele>351</ele>
        <time>2015-08-23T09:54:00.000Z</time>
      </trkpt>
      <trkpt lat="47.45561" lon="6.78448">
        <ele>352</ele>
        <time>2015-08-23T09:54:01.000Z</time>
      </trkpt>
      <trkpt lat="47.45564" lon="6.78446">
        <ele>352</ele>
        <time>2015-08-23T09:54:02.000Z</time>
      </trkpt>
      <trkpt lat="47.45567" lon="6.78444">
        <ele>352</ele>
        <time>2015-08-23T09:54:03.000Z</time>
      </trkpt>
      <trkpt lat="47.4557" lon="6.78442">
        <ele>352</ele>
        <time>2015-08-23T09:54:04.000Z</time>
      </trkpt>
      <trkpt lat="47.45573" lon="6.7844">
        <ele>352</ele>
        <time>2015-08-23T09:54:05.000Z</time>
      </trkpt>
      <trkpt lat="47.45577" lon="6.78438">
        <ele>352</ele>
        <time>2015-08-23T09:54:06.000Z</time>
      </trkpt>
      <trkpt lat="47.4558" lon="6.78437">
        <ele>352</ele>
        <time>2015-08-23T09:54:07.000Z</time>
      </trkpt>
      <trkpt lat="47.45583" lon="6.78435">
        <ele>352</ele>
        <time>2015-08-23T09:54:08.000Z</time>
      </trkpt>
      <trkpt lat="47.45587" lon="6.78433">
        <ele>353</ele>
        <time>2015-08-23T09:54:08.999Z</time>
      </trkpt>
      <trkpt lat="47.4559" lon="6.78432">
        <ele>353</ele>
        <time>2015-08-23T09:54:10.000Z</time>
      </trkpt>
      <trkpt lat="47.45593" lon="6.78431">
        <ele>353</ele>
        <time>2015-08-23T09:54:11.000Z</time>
      </trkpt>
      <trkpt lat="47.45596" lon="6.7843">
        <ele>353</ele>
        <time>2015-08-23T09:54:11.999Z</time>
      </trkpt>
      <trkpt lat="47.456" lon="6.78428">
        <ele>353</ele>
        <time>2015-08-23T09:54:13.000Z</time>
      </trkpt>
      <trkpt lat="47.45604" lon="6.78425">
        <ele>354</ele>
        <time>2015-08-23T09:54:14.000Z</time>
      </trkpt>
      <trkpt lat="47.45607" lon="6.78423">
        <ele>354</ele>
        <time>2015-08-23T09:54:15.000Z</time>
      </trkpt>
      <trkpt lat="47.4561" lon="6.78422">
        <ele>354</ele>
        <time>2015-08-23T09:54:16.000Z</time>
      </trkpt>
      <trkpt lat="47.45614" lon="6.7842">
        <ele>354</ele>
        <time>2015-08-23T09:54:17.000Z</time>
      </trkpt>
      <trkpt lat="47.45617" lon="6.78418">
        <ele>354</ele>
        <time>2015-08-23T09:54:18.000Z</time>
      </trkpt>
      <trkpt lat="47.45621" lon="6.78417">
        <ele>355</ele>
        <time>2015-08-23T09:54:19.000Z</time>
      </trkpt>
      <trkpt lat="47.45624" lon="6.78415">
        <ele>355</ele>
        <time>2015-08-23T09:54:20.000Z</time>
      </trkpt>
      <trkpt lat="47.45627" lon="6.78413">
        <ele>355</ele>
        <time>2015-08-23T09:54:21.000Z</time>
      </trkpt>
      <trkpt lat="47.4563" lon="6.78411">
        <ele>355</ele>
        <time>2015-08-23T09:54:21.999Z</time>
      </trkpt>
      <trkpt lat="47.45633" lon="6.7841">
        <ele>355</ele>
        <time>2015-08-23T09:54:23.000Z</time>
      </trkpt>
      <trkpt lat="47.45637" lon="6.78409">
        <ele>355</ele>
        <time>2015-08-23T09:54:24.000Z</time>
      </trkpt>
      <trkpt lat="47.45641" lon="6.78408">
        <ele>355</ele>
        <time>2015-08-23T09:54:25.000Z</time>
      </trkpt>
      <trkpt lat="47.45644" lon="6.78407">
        <ele>355</ele>
        <time>2015-08-23T09:54:26.001Z</time>
      </trkpt>
      <trkpt lat="47.45648" lon="6.78405">
        <ele>356</ele>
        <time>2015-08-23T09:54:27.000Z</time>
      </trkpt>
      <trkpt lat="47.45651" lon="6.78403">
        <ele>356</ele>
        <time>2015-08-23T09:54:28.000Z</time>
      </trkpt>
      <trkpt lat="47.45655" lon="6.78401">
        <ele>356</ele>
        <time>2015-08-23T09:54:28.999Z</time>
      </trkpt>
      <trkpt lat="47.45659" lon="6.784">
        <ele>356</ele>
        <time>2015-08-23T09:54:30.000Z</time>
      </trkpt>
      <trkpt lat="47.45662" lon="6.78398">
        <ele>356</ele>
        <time>2015-08-23T09:54:31.000Z</time>
      </trkpt>
      <trkpt lat="47.45666" lon="6.78396">
        <ele>356</ele>
        <time>2015-08-23T09:54:32.000Z</time>
      </trkpt>
      <trkpt lat="47.4567" lon="6.78395">
        <ele>358</ele>
        <time>2015-08-23T09:54:33.000Z</time>
      </trkpt>
      <trkpt lat="47.45674" lon="6.78394">
        <ele>358</ele>
        <time>2015-08-23T09:54:34.000Z</time>
      </trkpt>
      <trkpt lat="47.45677" lon="6.78393">
        <ele>358</ele>
        <time>2015-08-23T09:54:35.000Z</time>
      </trkpt>
      <trkpt lat="47.45681" lon="6.78391">
        <ele>358</ele>
        <time>2015-08-23T09:54:36.000Z</time>
      </trkpt>
      <trkpt lat="47.45684" lon="6.78391">
        <ele>358</ele>
        <time>2015-08-23T09:54:37.000Z</time>
      </trkpt>
      <trkpt lat="47.45688" lon="6.7839">
        <ele>358</ele>
        <time>2015-08-23T09:54:38.000Z</time>
      </trkpt>
      <trkpt lat="47.45691" lon="6.7839">
        <ele>358</ele>
        <time>2015-08-23T09:54:39.000Z</time>
      </trkpt>
      <trkpt lat="47.45695" lon="6.78391">
        <ele>358</ele>
        <time>2015-08-23T09:54:40.000Z</time>
      </trkpt>
      <trkpt lat="47.45699" lon="6.78391">
        <ele>359</ele>
        <time>2015-08-23T09:54:41.000Z</time>
      </trkpt>
      <trkpt lat="47.45702" lon="6.78391">
        <ele>359</ele>
        <time>2015-08-23T09:54:41.999Z</time>
      </trkpt>
      <trkpt lat="47.45705" lon="6.78391">
        <ele>359</ele>
        <time>2015-08-23T09:54:43.000Z</time>
      </trkpt>
      <trkpt lat="47.45709" lon="6.78392">
        <ele>359</ele>
        <time>2015-08-23T09:54:44.000Z</time>
      </trkpt>
      <trkpt lat="47.45712" lon="6.78393">
        <ele>359</ele>
        <time>2015-08-23T09:54:45.000Z</time>
      </trkpt>
      <trkpt lat="47.45715" lon="6.78393">
        <ele>359</ele>
        <time>2015-08-23T09:54:46.000Z</time>
      </trkpt>
      <trkpt lat="47.45719" lon="6.78394">
        <ele>359</ele>
        <time>2015-08-23T09:54:47.000Z</time>
      </trkpt>
      <trkpt lat="47.45722" lon="6.78394">
        <ele>359</ele>
        <time>2015-08-23T09:54:48.000Z</time>
      </trkpt>
      <trkpt lat="47.45725" lon="6.78395">
        <ele>359</ele>
        <time>2015-08-23T09:54:49.000Z</time>
      </trkpt>
      <trkpt lat="47.45728" lon="6.78395">
        <ele>359</ele>
        <time>2015-08-23T09:54:49.999Z</time>
      </trkpt>
      <trkpt lat="47.45731" lon="6.78396">
        <ele>359</ele>
        <time>2015-08-23T09:54:51.000Z</time>
      </trkpt>
      <trkpt lat="47.45734" lon="6.78396">
        <ele>359</ele>
        <time>2015-08-23T09:54:52.000Z</time>
      </trkpt>
      <trkpt lat="47.45736" lon="6.78396">
        <ele>360</ele>
        <time>2015-08-23T09:54:53.000Z</time>
      </trkpt>
      <trkpt lat="47.45739" lon="6.78396">
        <ele>360</ele>
        <time>2015-08-23T09:54:54.000Z</time>
      </trkpt>
      <trkpt lat="47.45742" lon="6.78395">
        <ele>360</ele>
        <time>2015-08-23T09:54:55.000Z</time>
      </trkpt>
      <trkpt lat="47.45745" lon="6.78395">
        <ele>360</ele>
        <time>2015-08-23T09:54:56.000Z</time>
      </trkpt>
      <trkpt lat="47.45749" lon="6.78396">
        <ele>360</ele>
        <time>2015-08-23T09:54:57.000Z</time>
      </trkpt>
      <trkpt lat="47.45752" lon="6.78396">
        <ele>364</ele>
        <time>2015-08-23T09:54:58.000Z</time>
      </trkpt>
      <trkpt lat="47.45756" lon="6.78397">
        <ele>364</ele>
        <time>2015-08-23T09:54:59.000Z</time>
      </trkpt>
      <trkpt lat="47.4576" lon="6.78398">
        <ele>364</ele>
        <time>2015-08-23T09:55:00.000Z</time>
      </trkpt>
      <trkpt lat="47.45763" lon="6.78399">
        <ele>364</ele>
        <time>2015-08-23T09:55:01.000Z</time>
      </trkpt>
      <trkpt lat="47.45766" lon="6.784">
        <ele>364</ele>
        <time>2015-08-23T09:55:02.000Z</time>
      </trkpt>
      <trkpt lat="47.45769" lon="6.78401">
        <ele>365</ele>
        <time>2015-08-23T09:55:03.000Z</time>
      </trkpt>
      <trkpt lat="47.45772" lon="6.78403">
        <ele>365</ele>
        <time>2015-08-23T09:55:04.000Z</time>
      </trkpt>
      <trkpt lat="47.45775" lon="6.78405">
        <ele>365</ele>
        <time>2015-08-23T09:55:05.000Z</time>
      </trkpt>
      <trkpt lat="47.45778" lon="6.78408">
        <ele>365</ele>
        <time>2015-08-23T09:55:06.000Z</time>
      </trkpt>
      <trkpt lat="47.45781" lon="6.7841">
        <ele>366</ele>
        <time>2015-08-23T09:55:07.000Z</time>
      </trkpt>
      <trkpt lat="47.45784" lon="6.78412">
        <ele>366</ele>
        <time>2015-08-23T09:55:08.000Z</time>
      </trkpt>
      <trkpt lat="47.45787" lon="6.78415">
        <ele>366</ele>
        <time>2015-08-23T09:55:09.000Z</time>
      </trkpt>
      <trkpt lat="47.4579" lon="6.78417">
        <ele>366</ele>
        <time>2015-08-23T09:55:10.000Z</time>
      </trkpt>
      <trkpt lat="47.45793" lon="6.78419">
        <ele>365</ele>
        <time>2015-08-23T09:55:11.000Z</time>
      </trkpt>
      <trkpt lat="47.45795" lon="6.78421">
        <ele>365</ele>
        <time>2015-08-23T09:55:12.000Z</time>
      </trkpt>
      <trkpt lat="47.45798" lon="6.78424">
        <ele>365</ele>
        <time>2015-08-23T09:55:13.000Z</time>
      </trkpt>
      <trkpt lat="47.45801" lon="6.78428">
        <ele>366</ele>
        <time>2015-08-23T09:55:14.000Z</time>
      </trkpt>
      <trkpt lat="47.45804" lon="6.78431">
        <ele>366</ele>
        <time>2015-08-23T09:55:14.999Z</time>
      </trkpt>
      <trkpt lat="47.45807" lon="6.78434">
        <ele>366</ele>
        <time>2015-08-23T09:55:16.000Z</time>
      </trkpt>
      <trkpt lat="47.4581" lon="6.78436">
        <ele>366</ele>
        <time>2015-08-23T09:55:17.000Z</time>
      </trkpt>
      <trkpt lat="47.45813" lon="6.78438">
        <ele>366</ele>
        <time>2015-08-23T09:55:18.000Z</time>
      </trkpt>
      <trkpt lat="47.45816" lon="6.78441">
        <ele>366</ele>
        <time>2015-08-23T09:55:19.000Z</time>
      </trkpt>
      <trkpt lat="47.45818" lon="6.78443">
        <ele>366</ele>
        <time>2015-08-23T09:55:20.000Z</time>
      </trkpt>
      <trkpt lat="47.4582" lon="6.78445">
        <ele>366</ele>
        <time>2015-08-23T09:55:21.000Z</time>
      </trkpt>
      <trkpt lat="47.45822" lon="6.78448">
        <ele>366</ele>
        <time>2015-08-23T09:55:22.000Z</time>
      </trkpt>
      <trkpt lat="47.45824" lon="6.78451">
        <ele>366</ele>
        <time>2015-08-23T09:55:23.000Z</time>
      </trkpt>
      <trkpt lat="47.45827" lon="6.78457">
        <ele>366</ele>
        <time>2015-08-23T09:55:24.000Z</time>
      </trkpt>
      <trkpt lat="47.4583" lon="6.78461">
        <ele>366</ele>
        <time>2015-08-23T09:55:25.000Z</time>
      </trkpt>
      <trkpt lat="47.45833" lon="6.78464">
        <ele>366</ele>
        <time>2015-08-23T09:55:26.000Z</time>
      </trkpt>
      <trkpt lat="47.45836" lon="6.78466">
        <ele>374</ele>
        <time>2015-08-23T09:55:27.000Z</time>
      </trkpt>
      <trkpt lat="47.45838" lon="6.7847">
        <ele>374</ele>
        <time>2015-08-23T09:55:28.000Z</time>
      </trkpt>
      <trkpt lat="47.4584" lon="6.78471">
        <ele>374</ele>
        <time>2015-08-23T09:55:29.000Z</time>
      </trkpt>
      <trkpt lat="47.45843" lon="6.78473">
        <ele>374</ele>
        <time>2015-08-23T09:55:30.000Z</time>
      </trkpt>
      <trkpt lat="47.45845" lon="6.78476">
        <ele>374</ele>
        <time>2015-08-23T09:55:31.000Z</time>
      </trkpt>
      <trkpt lat="47.45847" lon="6.78478">
        <ele>374</ele>
        <time>2015-08-23T09:55:32.000Z</time>
      </trkpt>
      <trkpt lat="47.45849" lon="6.7848">
        <ele>374</ele>
        <time>2015-08-23T09:55:33.000Z</time>
      </trkpt>
      <trkpt lat="47.45852" lon="6.78482">
        <ele>374</ele>
        <time>2015-08-23T09:55:34.000Z</time>
      </trkpt>
      <trkpt lat="47.45854" lon="6.78484">
        <ele>374</ele>
        <time>2015-08-23T09:55:35.000Z</time>
      </trkpt>
      <trkpt lat="47.45856" lon="6.78486">
        <ele>374</ele>
        <time>2015-08-23T09:55:36.000Z</time>
      </trkpt>
      <trkpt lat="47.45858" lon="6.78488">
        <ele>374</ele>
        <time>2015-08-23T09:55:37.000Z</time>
      </trkpt>
      <trkpt lat="47.4586" lon="6.78491">
        <ele>374</ele>
        <time>2015-08-23T09:55:38.000Z</time>
      </trkpt>
      <trkpt lat="47.45862" lon="6.78494">
        <ele>375</ele>
        <time>2015-08-23T09:55:39.000Z</time>
      </trkpt>
      <trkpt lat="47.45865" lon="6.78498">
        <ele>375</ele>
        <time>2015-08-23T09:55:40.000Z</time>
      </trkpt>
      <trkpt lat="47.45868" lon="6.78501">
        <ele>374</ele>
        <time>2015-08-23T09:55:41.000Z</time>
      </trkpt>
      <trkpt lat="47.45871" lon="6.78505">
        <ele>374</ele>
        <time>2015-08-23T09:55:42.000Z</time>
      </trkpt>
      <trkpt lat="47.45874" lon="6.78509">
        <ele>374</ele>
        <time>2015-08-23T09:55:43.000Z</time>
      </trkpt>
      <trkpt lat="47.45876" lon="6.78512">
        <ele>375</ele>
        <time>2015-08-23T09:55:44.001Z</time>
      </trkpt>
      <trkpt lat="47.45879" lon="6.78516">
        <ele>375</ele>
        <time>2015-08-23T09:55:45.000Z</time>
      </trkpt>
      <trkpt lat="47.45882" lon="6.78519">
        <ele>375</ele>
        <time>2015-08-23T09:55:46.000Z</time>
      </trkpt>
      <trkpt lat="47.45884" lon="6.78521">
        <ele>375</ele>
        <time>2015-08-23T09:55:47.000Z</time>
      </trkpt>
      <trkpt lat="47.45887" lon="6.78522">
        <ele>376</ele>
        <time>2015-08-23T09:55:48.000Z</time>
      </trkpt>
      <trkpt lat="47.4589" lon="6.78524">
        <ele>376</ele>
        <time>2015-08-23T09:55:49.000Z</time>
      </trkpt>
      <trkpt lat="47.45893" lon="6.78526">
        <ele>376</ele>
        <time>2015-08-23T09:55:50.000Z</time>
      </trkpt>
      <trkpt lat="47.45896" lon="6.78529">
        <ele>376</ele>
        <time>2015-08-23T09:55:51.000Z</time>
      </trkpt>
      <trkpt lat="47.45898" lon="6.78532">
        <ele>376</ele>
        <time>2015-08-23T09:55:52.000Z</time>
      </trkpt>
      <trkpt lat="47.45901" lon="6.78536">
        <ele>376</ele>
        <time>2015-08-23T09:55:53.000Z</time>
      </trkpt>
      <trkpt lat="47.45904" lon="6.7854">
        <ele>376</ele>
        <time>2015-08-23T09:55:54.001Z</time>
      </trkpt>
      <trkpt lat="47.45906" lon="6.78543">
        <ele>376</ele>
        <time>2015-08-23T09:55:55.000Z</time>
      </trkpt>
      <trkpt lat="47.45909" lon="6.78545">
        <ele>376</ele>
        <time>2015-08-23T09:55:56.000Z</time>
      </trkpt>
      <trkpt lat="47.45911" lon="6.78548">
        <ele>376</ele>
        <time>2015-08-23T09:55:56.999Z</time>
      </trkpt>
      <trkpt lat="47.45915" lon="6.78547">
        <ele>376</ele>
        <time>2015-08-23T09:55:58.000Z</time>
      </trkpt>
      <trkpt lat="47.45918" lon="6.78547">
        <ele>386</ele>
        <time>2015-08-23T09:55:59.000Z</time>
      </trkpt>
      <trkpt lat="47.45921" lon="6.78546">
        <ele>386</ele>
        <time>2015-08-23T09:56:00.000Z</time>
      </trkpt>
      <trkpt lat="47.45925" lon="6.78546">
        <ele>386</ele>
        <time>2015-08-23T09:56:01.000Z</time>
      </trkpt>
      <trkpt lat="47.45929" lon="6.78545">
        <ele>386</ele>
        <time>2015-08-23T09:56:02.000Z</time>
      </trkpt>
      <trkpt lat="47.45933" lon="6.78544">
        <ele>387</ele>
        <time>2015-08-23T09:56:03.000Z</time>
      </trkpt>
      <trkpt lat="47.45936" lon="6.78543">
        <ele>387</ele>
        <time>2015-08-23T09:56:04.000Z</time>
      </trkpt>
      <trkpt lat="47.45939" lon="6.7854">
        <ele>387</ele>
        <time>2015-08-23T09:56:05.002Z</time>
      </trkpt>
      <trkpt lat="47.45942" lon="6.78535">
        <ele>388</ele>
        <time>2015-08-23T09:56:06.000Z</time>
      </trkpt>
      <trkpt lat="47.45944" lon="6.78531">
        <ele>388</ele>
        <time>2015-08-23T09:56:07.000Z</time>
      </trkpt>
      <trkpt lat="47.45944" lon="6.78525">
        <ele>388</ele>
        <time>2015-08-23T09:56:08.000Z</time>
      </trkpt>
      <trkpt lat="47.45945" lon="6.78521">
        <ele>388</ele>
        <time>2015-08-23T09:56:09.000Z</time>
      </trkpt>
      <trkpt lat="47.45944" lon="6.78517">
        <ele>388</ele>
        <time>2015-08-23T09:56:10.001Z</time>
      </trkpt>
      <trkpt lat="47.4594" lon="6.78511">
        <ele>387</ele>
        <time>2015-08-23T09:56:11.000Z</time>
      </trkpt>
      <trkpt lat="47.45938" lon="6.78507">
        <ele>387</ele>
        <time>2015-08-23T09:56:12.000Z</time>
      </trkpt>
      <trkpt lat="47.45937" lon="6.78504">
        <ele>386</ele>
        <time>2015-08-23T09:56:13.000Z</time>
      </trkpt>
      <trkpt lat="47.45935" lon="6.785">
        <ele>386</ele>
        <time>2015-08-23T09:56:14.000Z</time>
      </trkpt>
      <trkpt lat="47.45935" lon="6.78497">
        <ele>388</ele>
        <time>2015-08-23T09:56:15.000Z</time>
      </trkpt>
      <trkpt lat="47.45934" lon="6.7849">
        <ele>388</ele>
        <time>2015-08-23T09:56:17.000Z</time>
      </trkpt>
      <trkpt lat="47.45934" lon="6.78487">
        <ele>388</ele>
        <time>2015-08-23T09:56:18.000Z</time>
      </trkpt>
      <trkpt lat="47.45934" lon="6.78483">
        <ele>389</ele>
        <time>2015-08-23T09:56:19.000Z</time>
      </trkpt>
      <trkpt lat="47.45935" lon="6.78479">
        <ele>389</ele>
        <time>2015-08-23T09:56:20.000Z</time>
      </trkpt>
      <trkpt lat="47.45936" lon="6.78476">
        <ele>390</ele>
        <time>2015-08-23T09:56:21.000Z</time>
      </trkpt>
      <trkpt lat="47.45938" lon="6.78472">
        <ele>390</ele>
        <time>2015-08-23T09:56:22.000Z</time>
      </trkpt>
      <trkpt lat="47.45941" lon="6.78469">
        <ele>391</ele>
        <time>2015-08-23T09:56:23.000Z</time>
      </trkpt>
      <trkpt lat="47.45943" lon="6.78466">
        <ele>391</ele>
        <time>2015-08-23T09:56:24.000Z</time>
      </trkpt>
      <trkpt lat="47.45946" lon="6.78464">
        <ele>391</ele>
        <time>2015-08-23T09:56:25.000Z</time>
      </trkpt>
      <trkpt lat="47.45948" lon="6.78461">
        <ele>392</ele>
        <time>2015-08-23T09:56:26.000Z</time>
      </trkpt>
      <trkpt lat="47.4595" lon="6.78459">
        <ele>392</ele>
        <time>2015-08-23T09:56:27.000Z</time>
      </trkpt>
      <trkpt lat="47.45953" lon="6.78457">
        <ele>392</ele>
        <time>2015-08-23T09:56:28.000Z</time>
      </trkpt>
      <trkpt lat="47.45955" lon="6.78455">
        <ele>392</ele>
        <time>2015-08-23T09:56:29.000Z</time>
      </trkpt>
      <trkpt lat="47.45957" lon="6.78452">
        <ele>393</ele>
        <time>2015-08-23T09:56:30.000Z</time>
      </trkpt>
      <trkpt lat="47.45959" lon="6.78449">
        <ele>393</ele>
        <time>2015-08-23T09:56:31.000Z</time>
      </trkpt>
      <trkpt lat="47.45961" lon="6.78446">
        <ele>393</ele>
        <time>2015-08-23T09:56:32.000Z</time>
      </trkpt>
      <trkpt lat="47.45963" lon="6.78443">
        <ele>394</ele>
        <time>2015-08-23T09:56:33.000Z</time>
      </trkpt>
      <trkpt lat="47.45966" lon="6.78439">
        <ele>394</ele>
        <time>2015-08-23T09:56:34.000Z</time>
      </trkpt>
      <trkpt lat="47.45968" lon="6.78436">
        <ele>394</ele>
        <time>2015-08-23T09:56:35.000Z</time>
      </trkpt>
      <trkpt lat="47.45971" lon="6.78433">
        <ele>395</ele>
        <time>2015-08-23T09:56:36.000Z</time>
      </trkpt>
      <trkpt lat="47.45974" lon="6.7843">
        <ele>395</ele>
        <time>2015-08-23T09:56:37.000Z</time>
      </trkpt>
      <trkpt lat="47.45977" lon="6.78427">
        <ele>396</ele>
        <time>2015-08-23T09:56:38.000Z</time>
      </trkpt>
      <trkpt lat="47.4598" lon="6.78424">
        <ele>397</ele>
        <time>2015-08-23T09:56:39.000Z</time>
      </trkpt>
      <trkpt lat="47.45983" lon="6.78422">
        <ele>397</ele>
        <time>2015-08-23T09:56:40.000Z</time>
      </trkpt>
      <trkpt lat="47.45987" lon="6.7842">
        <ele>398</ele>
        <time>2015-08-23T09:56:41.000Z</time>
      </trkpt>
      <trkpt lat="47.4599" lon="6.78418">
        <ele>399</ele>
        <time>2015-08-23T09:56:42.000Z</time>
      </trkpt>
      <trkpt lat="47.45994" lon="6.78416">
        <ele>400</ele>
        <time>2015-08-23T09:56:43.000Z</time>
      </trkpt>
      <trkpt lat="47.45996" lon="6.78413">
        <ele>401</ele>
        <time>2015-08-23T09:56:44.000Z</time>
      </trkpt>
      <trkpt lat="47.45999" lon="6.7841">
        <ele>400</ele>
        <time>2015-08-23T09:56:45.000Z</time>
      </trkpt>
      <trkpt lat="47.46001" lon="6.78407">
        <ele>403</ele>
        <time>2015-08-23T09:56:46.000Z</time>
      </trkpt>
      <trkpt lat="47.46004" lon="6.78404">
        <ele>403</ele>
        <time>2015-08-23T09:56:47.000Z</time>
      </trkpt>
      <trkpt lat="47.46006" lon="6.78401">
        <ele>404</ele>
        <time>2015-08-23T09:56:48.000Z</time>
      </trkpt>
      <trkpt lat="47.46009" lon="6.78399">
        <ele>404</ele>
        <time>2015-08-23T09:56:49.000Z</time>
      </trkpt>
      <trkpt lat="47.46012" lon="6.78397">
        <ele>404</ele>
        <time>2015-08-23T09:56:50.000Z</time>
      </trkpt>
      <trkpt lat="47.46014" lon="6.78395">
        <ele>404</ele>
        <time>2015-08-23T09:56:51.000Z</time>
      </trkpt>
      <trkpt lat="47.46018" lon="6.78393">
        <ele>404</ele>
        <time>2015-08-23T09:56:52.000Z</time>
      </trkpt>
      <trkpt lat="47.46021" lon="6.7839">
        <ele>405</ele>
        <time>2015-08-23T09:56:53.000Z</time>
      </trkpt>
      <trkpt lat="47.46024" lon="6.78388">
        <ele>405</ele>
        <time>2015-08-23T09:56:54.000Z</time>
      </trkpt>
      <trkpt lat="47.46026" lon="6.78386">
        <ele>405</ele>
        <time>2015-08-23T09:56:55.000Z</time>
      </trkpt>
      <trkpt lat="47.46028" lon="6.78384">
        <ele>405</ele>
        <time>2015-08-23T09:56:56.000Z</time>
      </trkpt>
      <trkpt lat="47.4603" lon="6.78382">
        <ele>405</ele>
        <time>2015-08-23T09:56:57.000Z</time>
      </trkpt>
      <trkpt lat="47.46033" lon="6.7838">
        <ele>405</ele>
        <time>2015-08-23T09:56:58.000Z</time>
      </trkpt>
      <trkpt lat="47.46036" lon="6.78377">
        <ele>405</ele>
        <time>2015-08-23T09:56:59.000Z</time>
      </trkpt>
      <trkpt lat="47.46038" lon="6.78376">
        <ele>405</ele>
        <time>2015-08-23T09:57:00.000Z</time>
      </trkpt>
      <trkpt lat="47.46041" lon="6.78374">
        <ele>405</ele>
        <time>2015-08-23T09:57:01.000Z</time>
      </trkpt>
      <trkpt lat="47.46044" lon="6.78372">
        <ele>406</ele>
        <time>2015-08-23T09:57:02.000Z</time>
      </trkpt>
      <trkpt lat="47.46046" lon="6.7837">
        <ele>406</ele>
        <time>2015-08-23T09:57:03.000Z</time>
      </trkpt>
      <trkpt lat="47.46049" lon="6.78368">
        <ele>406</ele>
        <time>2015-08-23T09:57:04.000Z</time>
      </trkpt>
      <trkpt lat="47.46052" lon="6.78367">
        <ele>406</ele>
        <time>2015-08-23T09:57:05.000Z</time>
      </trkpt>
      <trkpt lat="47.46055" lon="6.78365">
        <ele>406</ele>
        <time>2015-08-23T09:57:06.000Z</time>
      </trkpt>
      <trkpt lat="47.46058" lon="6.78362">
        <ele>406</ele>
        <time>2015-08-23T09:57:07.000Z</time>
      </trkpt>
      <trkpt lat="47.46061" lon="6.78361">
        <ele>406</ele>
        <time>2015-08-23T09:57:08.000Z</time>
      </trkpt>
      <trkpt lat="47.46064" lon="6.78359">
        <ele>406</ele>
        <time>2015-08-23T09:57:09.000Z</time>
      </trkpt>
      <trkpt lat="47.46066" lon="6.78358">
        <ele>406</ele>
        <time>2015-08-23T09:57:10.000Z</time>
      </trkpt>
      <trkpt lat="47.46069" lon="6.78357">
        <ele>407</ele>
        <time>2015-08-23T09:57:12.000Z</time>
      </trkpt>
      <trkpt lat="47.46071" lon="6.78357">
        <ele>407</ele>
        <time>2015-08-23T09:57:13.000Z</time>
      </trkpt>
      <trkpt lat="47.46074" lon="6.78355">
        <ele>407</ele>
        <time>2015-08-23T09:57:16.000Z</time>
      </trkpt>
      <trkpt lat="47.46076" lon="6.78354">
        <ele>407</ele>
        <time>2015-08-23T09:57:17.000Z</time>
      </trkpt>
      <trkpt lat="47.46079" lon="6.78353">
        <ele>407</ele>
        <time>2015-08-23T09:57:19.000Z</time>
      </trkpt>
      <trkpt lat="47.46081" lon="6.78352">
        <ele>407</ele>
        <time>2015-08-23T09:57:20.000Z</time>
      </trkpt>
      <trkpt lat="47.46085" lon="6.78352">
        <ele>409</ele>
        <time>2015-08-23T09:57:22.000Z</time>
      </trkpt>
      <trkpt lat="47.46087" lon="6.78353">
        <ele>409</ele>
        <time>2015-08-23T09:57:23.000Z</time>
      </trkpt>
      <trkpt lat="47.46091" lon="6.78353">
        <ele>409</ele>
        <time>2015-08-23T09:57:26.000Z</time>
      </trkpt>
      <trkpt lat="47.46092" lon="6.78353">
        <ele>409</ele>
        <time>2015-08-23T09:57:27.000Z</time>
      </trkpt>
      <trkpt lat="47.46096" lon="6.78352">
        <ele>409</ele>
        <time>2015-08-23T09:57:29.000Z</time>
      </trkpt>
      <trkpt lat="47.46098" lon="6.78352">
        <ele>409</ele>
        <time>2015-08-23T09:57:30.000Z</time>
      </trkpt>
      <trkpt lat="47.461" lon="6.78351">
        <ele>409</ele>
        <time>2015-08-23T09:57:31.000Z</time>
      </trkpt>
      <trkpt lat="47.46102" lon="6.78351">
        <ele>409</ele>
        <time>2015-08-23T09:57:32.000Z</time>
      </trkpt>
      <trkpt lat="47.46104" lon="6.78351">
        <ele>409</ele>
        <time>2015-08-23T09:57:33.000Z</time>
      </trkpt>
      <trkpt lat="47.46107" lon="6.7835">
        <ele>409</ele>
        <time>2015-08-23T09:57:34.000Z</time>
      </trkpt>
      <trkpt lat="47.4611" lon="6.7835">
        <ele>409</ele>
        <time>2015-08-23T09:57:35.000Z</time>
      </trkpt>
      <trkpt lat="47.46113" lon="6.7835">
        <ele>409</ele>
        <time>2015-08-23T09:57:36.000Z</time>
      </trkpt>
      <trkpt lat="47.46117" lon="6.7835">
        <ele>409</ele>
        <time>2015-08-23T09:57:37.000Z</time>
      </trkpt>
      <trkpt lat="47.4612" lon="6.7835">
        <ele>409</ele>
        <time>2015-08-23T09:57:38.000Z</time>
      </trkpt>
      <trkpt lat="47.46123" lon="6.7835">
        <ele>409</ele>
        <time>2015-08-23T09:57:39.000Z</time>
      </trkpt>
      <trkpt lat="47.46126" lon="6.7835">
        <ele>409</ele>
        <time>2015-08-23T09:57:40.000Z</time>
      </trkpt>
      <trkpt lat="47.46128" lon="6.78349">
        <ele>409</ele>
        <time>2015-08-23T09:57:41.000Z</time>
      </trkpt>
      <trkpt lat="47.46131" lon="6.78349">
        <ele>409</ele>
        <time>2015-08-23T09:57:42.000Z</time>
      </trkpt>
      <trkpt lat="47.46135" lon="6.78348">
        <ele>409</ele>
        <time>2015-08-23T09:57:44.000Z</time>
      </trkpt>
      <trkpt lat="47.46136" lon="6.78348">
        <ele>409</ele>
        <time>2015-08-23T09:57:45.000Z</time>
      </trkpt>
      <trkpt lat="47.4614" lon="6.78348">
        <ele>409</ele>
        <time>2015-08-23T09:57:47.000Z</time>
      </trkpt>
      <trkpt lat="47.46142" lon="6.78347">
        <ele>409</ele>
        <time>2015-08-23T09:57:48.000Z</time>
      </trkpt>
      <trkpt lat="47.46144" lon="6.78347">
        <ele>409</ele>
        <time>2015-08-23T09:57:49.000Z</time>
      </trkpt>
      <trkpt lat="47.46147" lon="6.78346">
        <ele>409</ele>
        <time>2015-08-23T09:57:50.000Z</time>
      </trkpt>
      <trkpt lat="47.46149" lon="6.78345">
        <ele>409</ele>
        <time>2015-08-23T09:57:51.000Z</time>
      </trkpt>
      <trkpt lat="47.46151" lon="6.78345">
        <ele>409</ele>
        <time>2015-08-23T09:57:52.000Z</time>
      </trkpt>
      <trkpt lat="47.46154" lon="6.78344">
        <ele>409</ele>
        <time>2015-08-23T09:57:53.000Z</time>
      </trkpt>
      <trkpt lat="47.46156" lon="6.78344">
        <ele>409</ele>
        <time>2015-08-23T09:57:54.000Z</time>
      </trkpt>
      <trkpt lat="47.4616" lon="6.78343">
        <ele>409</ele>
        <time>2015-08-23T09:57:56.000Z</time>
      </trkpt>
      <trkpt lat="47.46161" lon="6.78344">
        <ele>409</ele>
        <time>2015-08-23T09:57:57.000Z</time>
      </trkpt>
      <trkpt lat="47.46165" lon="6.78344">
        <ele>409</ele>
        <time>2015-08-23T09:57:59.000Z</time>
      </trkpt>
      <trkpt lat="47.46167" lon="6.78344">
        <ele>408</ele>
        <time>2015-08-23T09:58:00.000Z</time>
      </trkpt>
      <trkpt lat="47.46171" lon="6.78344">
        <ele>408</ele>
        <time>2015-08-23T09:58:02.000Z</time>
      </trkpt>
      <trkpt lat="47.46173" lon="6.78344">
        <ele>407</ele>
        <time>2015-08-23T09:58:03.000Z</time>
      </trkpt>
      <trkpt lat="47.46177" lon="6.78344">
        <ele>407</ele>
        <time>2015-08-23T09:58:05.000Z</time>
      </trkpt>
      <trkpt lat="47.4618" lon="6.78344">
        <ele>407</ele>
        <time>2015-08-23T09:58:06.000Z</time>
      </trkpt>
      <trkpt lat="47.46184" lon="6.78342">
        <ele>407</ele>
        <time>2015-08-23T09:58:07.000Z</time>
      </trkpt>
      <trkpt lat="47.46189" lon="6.7834">
        <ele>407</ele>
        <time>2015-08-23T09:58:08.000Z</time>
      </trkpt>
      <trkpt lat="47.46194" lon="6.78338">
        <ele>407</ele>
        <time>2015-08-23T09:58:09.000Z</time>
      </trkpt>
      <trkpt lat="47.46199" lon="6.78337">
        <ele>406</ele>
        <time>2015-08-23T09:58:10.000Z</time>
      </trkpt>
      <trkpt lat="47.46204" lon="6.78335">
        <ele>406</ele>
        <time>2015-08-23T09:58:11.000Z</time>
      </trkpt>
      <trkpt lat="47.46209" lon="6.78335">
        <ele>406</ele>
        <time>2015-08-23T09:58:12.000Z</time>
      </trkpt>
      <trkpt lat="47.46219" lon="6.78333">
        <ele>405</ele>
        <time>2015-08-23T09:58:13.000Z</time>
      </trkpt>
      <trkpt lat="47.46225" lon="6.78331">
        <ele>404</ele>
        <time>2015-08-23T09:58:14.000Z</time>
      </trkpt>
      <trkpt lat="47.46231" lon="6.7833">
        <ele>404</ele>
        <time>2015-08-23T09:58:15.000Z</time>
      </trkpt>
      <trkpt lat="47.46237" lon="6.78328">
        <ele>403</ele>
        <time>2015-08-23T09:58:16.000Z</time>
      </trkpt>
      <trkpt lat="47.46245" lon="6.78328">
        <ele>403</ele>
        <time>2015-08-23T09:58:17.000Z</time>
      </trkpt>
      <trkpt lat="47.46254" lon="6.78324">
        <ele>400</ele>
        <time>2015-08-23T09:58:18.000Z</time>
      </trkpt>
      <trkpt lat="47.46263" lon="6.78321">
        <ele>399</ele>
        <time>2015-08-23T09:58:19.000Z</time>
      </trkpt>
      <trkpt lat="47.46273" lon="6.78319">
        <ele>398</ele>
        <time>2015-08-23T09:58:20.000Z</time>
      </trkpt>
      <trkpt lat="47.46284" lon="6.78317">
        <ele>397</ele>
        <time>2015-08-23T09:58:21.000Z</time>
      </trkpt>
      <trkpt lat="47.46292" lon="6.78316">
        <ele>396</ele>
        <time>2015-08-23T09:58:22.000Z</time>
      </trkpt>
      <trkpt lat="47.463" lon="6.78313">
        <ele>396</ele>
        <time>2015-08-23T09:58:23.000Z</time>
      </trkpt>
      <trkpt lat="47.46307" lon="6.78309">
        <ele>395</ele>
        <time>2015-08-23T09:58:24.000Z</time>
      </trkpt>
      <trkpt lat="47.46316" lon="6.7831">
        <ele>395</ele>
        <time>2015-08-23T09:58:25.000Z</time>
      </trkpt>
      <trkpt lat="47.46325" lon="6.78308">
        <ele>394</ele>
        <time>2015-08-23T09:58:26.000Z</time>
      </trkpt>
      <trkpt lat="47.46332" lon="6.78305">
        <ele>394</ele>
        <time>2015-08-23T09:58:27.000Z</time>
      </trkpt>
      <trkpt lat="47.4634" lon="6.78305">
        <ele>389</ele>
        <time>2015-08-23T09:58:28.000Z</time>
      </trkpt>
      <trkpt lat="47.46348" lon="6.78307">
        <ele>389</ele>
        <time>2015-08-23T09:58:29.000Z</time>
      </trkpt>
      <trkpt lat="47.46355" lon="6.78305">
        <ele>389</ele>
        <time>2015-08-23T09:58:30.000Z</time>
      </trkpt>
      <trkpt lat="47.46363" lon="6.78306">
        <ele>388</ele>
        <time>2015-08-23T09:58:31.000Z</time>
      </trkpt>
      <trkpt lat="47.46372" lon="6.78308">
        <ele>388</ele>
        <time>2015-08-23T09:58:32.000Z</time>
      </trkpt>
      <trkpt lat="47.4638" lon="6.78308">
        <ele>388</ele>
        <time>2015-08-23T09:58:33.000Z</time>
      </trkpt>
      <trkpt lat="47.46385" lon="6.78309">
        <ele>388</ele>
        <time>2015-08-23T09:58:34.000Z</time>
      </trkpt>
      <trkpt lat="47.46389" lon="6.7831">
        <ele>387</ele>
        <time>2015-08-23T09:58:35.000Z</time>
      </trkpt>
      <trkpt lat="47.46395" lon="6.7831">
        <ele>387</ele>
        <time>2015-08-23T09:58:36.000Z</time>
      </trkpt>
      <trkpt lat="47.46397" lon="6.78312">
        <ele>387</ele>
        <time>2015-08-23T09:58:37.000Z</time>
      </trkpt>
      <trkpt lat="47.46401" lon="6.78313">
        <ele>387</ele>
        <time>2015-08-23T09:58:38.000Z</time>
      </trkpt>
      <trkpt lat="47.46407" lon="6.78311">
        <ele>387</ele>
        <time>2015-08-23T09:58:39.000Z</time>
      </trkpt>
      <trkpt lat="47.46413" lon="6.78314">
        <ele>387</ele>
        <time>2015-08-23T09:58:40.000Z</time>
      </trkpt>
      <trkpt lat="47.46424" lon="6.78313">
        <ele>385</ele>
        <time>2015-08-23T09:58:41.000Z</time>
      </trkpt>
      <trkpt lat="47.4643" lon="6.78315">
        <ele>385</ele>
        <time>2015-08-23T09:58:42.000Z</time>
      </trkpt>
      <trkpt lat="47.46442" lon="6.78317">
        <ele>385</ele>
        <time>2015-08-23T09:58:43.000Z</time>
      </trkpt>
      <trkpt lat="47.4645" lon="6.78316">
        <ele>384</ele>
        <time>2015-08-23T09:58:44.000Z</time>
      </trkpt>
      <trkpt lat="47.46453" lon="6.78317">
        <ele>384</ele>
        <time>2015-08-23T09:58:45.000Z</time>
      </trkpt>
      <trkpt lat="47.4646" lon="6.78315">
        <ele>384</ele>
        <time>2015-08-23T09:58:46.000Z</time>
      </trkpt>
      <trkpt lat="47.46465" lon="6.78314">
        <ele>384</ele>
        <time>2015-08-23T09:58:47.000Z</time>
      </trkpt>
      <trkpt lat="47.46472" lon="6.78308">
        <ele>384</ele>
        <time>2015-08-23T09:58:48.000Z</time>
      </trkpt>
      <trkpt lat="47.46478" lon="6.78309">
        <ele>384</ele>
        <time>2015-08-23T09:58:49.000Z</time>
      </trkpt>
      <trkpt lat="47.46482" lon="6.78306">
        <ele>384</ele>
        <time>2015-08-23T09:58:50.000Z</time>
      </trkpt>
      <trkpt lat="47.46485" lon="6.78304">
        <ele>384</ele>
        <time>2015-08-23T09:58:51.000Z</time>
      </trkpt>
      <trkpt lat="47.46487" lon="6.78303">
        <ele>384</ele>
        <time>2015-08-23T09:58:52.000Z</time>
      </trkpt>
      <trkpt lat="47.46491" lon="6.78302">
        <ele>383</ele>
        <time>2015-08-23T09:58:53.000Z</time>
      </trkpt>
      <trkpt lat="47.46494" lon="6.78301">
        <ele>383</ele>
        <time>2015-08-23T09:58:54.000Z</time>
      </trkpt>
      <trkpt lat="47.46497" lon="6.78297">
        <ele>383</ele>
        <time>2015-08-23T09:58:55.000Z</time>
      </trkpt>
      <trkpt lat="47.46498" lon="6.78294">
        <ele>383</ele>
        <time>2015-08-23T09:58:56.000Z</time>
      </trkpt>
      <trkpt lat="47.46499" lon="6.78288">
        <ele>382</ele>
        <time>2015-08-23T09:58:58.000Z</time>
      </trkpt>
      <trkpt lat="47.46499" lon="6.78286">
        <ele>382</ele>
        <time>2015-08-23T09:58:59.000Z</time>
      </trkpt>
      <trkpt lat="47.46503" lon="6.78283">
        <ele>379</ele>
        <time>2015-08-23T09:59:02.000Z</time>
      </trkpt>
      <trkpt lat="47.46504" lon="6.78282">
        <ele>379</ele>
        <time>2015-08-23T09:59:03.000Z</time>
      </trkpt>
      <trkpt lat="47.46507" lon="6.7828">
        <ele>379</ele>
        <time>2015-08-23T09:59:08.000Z</time>
      </trkpt>
      <trkpt lat="47.46508" lon="6.7828">
        <ele>379</ele>
        <time>2015-08-23T09:59:09.000Z</time>
      </trkpt>
      <trkpt lat="47.46512" lon="6.7828">
        <ele>379</ele>
        <time>2015-08-23T09:59:12.000Z</time>
      </trkpt>
      <trkpt lat="47.46514" lon="6.78281">
        <ele>379</ele>
        <time>2015-08-23T09:59:13.000Z</time>
      </trkpt>
      <trkpt lat="47.46517" lon="6.78282">
        <ele>379</ele>
        <time>2015-08-23T09:59:14.000Z</time>
      </trkpt>
      <trkpt lat="47.46519" lon="6.78282">
        <ele>379</ele>
        <time>2015-08-23T09:59:15.000Z</time>
      </trkpt>
      <trkpt lat="47.46522" lon="6.78284">
        <ele>379</ele>
        <time>2015-08-23T09:59:17.000Z</time>
      </trkpt>
      <trkpt lat="47.46524" lon="6.78285">
        <ele>379</ele>
        <time>2015-08-23T09:59:18.000Z</time>
      </trkpt>
      <trkpt lat="47.46526" lon="6.7828">
        <ele>378</ele>
        <time>2015-08-23T10:00:23.000Z</time>
      </trkpt>
      <trkpt lat="47.46527" lon="6.7828">
        <ele>378</ele>
        <time>2015-08-23T10:00:24.000Z</time>
      </trkpt>
      <trkpt lat="47.46531" lon="6.78279">
        <ele>378</ele>
        <time>2015-08-23T10:00:26.000Z</time>
      </trkpt>
      <trkpt lat="47.46534" lon="6.78278">
        <ele>378</ele>
        <time>2015-08-23T10:00:27.000Z</time>
      </trkpt>
      <trkpt lat="47.46538" lon="6.78277">
        <ele>378</ele>
        <time>2015-08-23T10:00:28.000Z</time>
      </trkpt>
      <trkpt lat="47.46542" lon="6.78277">
        <ele>377</ele>
        <time>2015-08-23T10:00:29.000Z</time>
      </trkpt>
      <trkpt lat="47.46546" lon="6.78277">
        <ele>377</ele>
        <time>2015-08-23T10:00:30.000Z</time>
      </trkpt>
      <trkpt lat="47.46551" lon="6.78279">
        <ele>377</ele>
        <time>2015-08-23T10:00:31.000Z</time>
      </trkpt>
      <trkpt lat="47.46555" lon="6.7828">
        <ele>377</ele>
        <time>2015-08-23T10:00:32.000Z</time>
      </trkpt>
      <trkpt lat="47.46563" lon="6.78281">
        <ele>376</ele>
        <time>2015-08-23T10:00:33.000Z</time>
      </trkpt>
      <trkpt lat="47.46566" lon="6.78282">
        <ele>376</ele>
        <time>2015-08-23T10:00:34.000Z</time>
      </trkpt>
      <trkpt lat="47.46571" lon="6.78281">
        <ele>376</ele>
        <time>2015-08-23T10:00:35.000Z</time>
      </trkpt>
      <trkpt lat="47.46576" lon="6.78279">
        <ele>376</ele>
        <time>2015-08-23T10:00:36.000Z</time>
      </trkpt>
      <trkpt lat="47.4658" lon="6.7828">
        <ele>376</ele>
        <time>2015-08-23T10:00:37.000Z</time>
      </trkpt>
      <trkpt lat="47.46583" lon="6.7828">
        <ele>376</ele>
        <time>2015-08-23T10:00:38.000Z</time>
      </trkpt>
      <trkpt lat="47.46586" lon="6.7828">
        <ele>371</ele>
        <time>2015-08-23T10:00:39.000Z</time>
      </trkpt>
      <trkpt lat="47.4659" lon="6.7828">
        <ele>371</ele>
        <time>2015-08-23T10:00:40.000Z</time>
      </trkpt>
      <trkpt lat="47.46594" lon="6.7828">
        <ele>371</ele>
        <time>2015-08-23T10:00:41.000Z</time>
      </trkpt>
      <trkpt lat="47.46598" lon="6.7828">
        <ele>371</ele>
        <time>2015-08-23T10:00:42.000Z</time>
      </trkpt>
      <trkpt lat="47.46605" lon="6.7828">
        <ele>371</ele>
        <time>2015-08-23T10:00:43.000Z</time>
      </trkpt>
      <trkpt lat="47.46608" lon="6.78281">
        <ele>371</ele>
        <time>2015-08-23T10:00:44.000Z</time>
      </trkpt>
      <trkpt lat="47.46612" lon="6.78281">
        <ele>371</ele>
        <time>2015-08-23T10:00:45.000Z</time>
      </trkpt>
      <trkpt lat="47.46615" lon="6.7828">
        <ele>371</ele>
        <time>2015-08-23T10:00:46.000Z</time>
      </trkpt>
      <trkpt lat="47.46617" lon="6.78279">
        <ele>371</ele>
        <time>2015-08-23T10:00:47.000Z</time>
      </trkpt>
      <trkpt lat="47.46619" lon="6.78274">
        <ele>370</ele>
        <time>2015-08-23T10:00:48.000Z</time>
      </trkpt>
      <trkpt lat="47.46621" lon="6.7827">
        <ele>370</ele>
        <time>2015-08-23T10:00:49.000Z</time>
      </trkpt>
      <trkpt lat="47.46623" lon="6.78265">
        <ele>370</ele>
        <time>2015-08-23T10:00:50.000Z</time>
      </trkpt>
      <trkpt lat="47.46624" lon="6.78261">
        <ele>369</ele>
        <time>2015-08-23T10:00:51.000Z</time>
      </trkpt>
      <trkpt lat="47.46626" lon="6.78255">
        <ele>369</ele>
        <time>2015-08-23T10:00:52.000Z</time>
      </trkpt>
      <trkpt lat="47.46628" lon="6.78249">
        <ele>365</ele>
        <time>2015-08-23T10:00:53.000Z</time>
      </trkpt>
      <trkpt lat="47.4663" lon="6.78243">
        <ele>365</ele>
        <time>2015-08-23T10:00:54.000Z</time>
      </trkpt>
      <trkpt lat="47.46632" lon="6.78236">
        <ele>365</ele>
        <time>2015-08-23T10:00:55.000Z</time>
      </trkpt>
      <trkpt lat="47.46635" lon="6.78224">
        <ele>365</ele>
        <time>2015-08-23T10:00:56.000Z</time>
      </trkpt>
      <trkpt lat="47.46636" lon="6.78216">
        <ele>365</ele>
        <time>2015-08-23T10:00:57.000Z</time>
      </trkpt>
      <trkpt lat="47.46639" lon="6.78208">
        <ele>364</ele>
        <time>2015-08-23T10:00:58.000Z</time>
      </trkpt>
      <trkpt lat="47.46641" lon="6.78201">
        <ele>364</ele>
        <time>2015-08-23T10:00:59.000Z</time>
      </trkpt>
      <trkpt lat="47.46642" lon="6.78194">
        <ele>364</ele>
        <time>2015-08-23T10:01:00.000Z</time>
      </trkpt>
      <trkpt lat="47.46644" lon="6.78186">
        <ele>363</ele>
        <time>2015-08-23T10:01:01.000Z</time>
      </trkpt>
      <trkpt lat="47.46648" lon="6.78179">
        <ele>362</ele>
        <time>2015-08-23T10:01:02.000Z</time>
      </trkpt>
      <trkpt lat="47.46651" lon="6.78171">
        <ele>362</ele>
        <time>2015-08-23T10:01:03.000Z</time>
      </trkpt>
      <trkpt lat="47.46653" lon="6.78163">
        <ele>363</ele>
        <time>2015-08-23T10:01:04.000Z</time>
      </trkpt>
      <trkpt lat="47.46657" lon="6.78154">
        <ele>364</ele>
        <time>2015-08-23T10:01:05.000Z</time>
      </trkpt>
      <trkpt lat="47.46661" lon="6.78147">
        <ele>365</ele>
        <time>2015-08-23T10:01:06.000Z</time>
      </trkpt>
      <trkpt lat="47.46666" lon="6.78138">
        <ele>366</ele>
        <time>2015-08-23T10:01:07.000Z</time>
      </trkpt>
      <trkpt lat="47.46671" lon="6.78129">
        <ele>360</ele>
        <time>2015-08-23T10:01:08.000Z</time>
      </trkpt>
      <trkpt lat="47.46676" lon="6.78122">
        <ele>360</ele>
        <time>2015-08-23T10:01:09.000Z</time>
      </trkpt>
      <trkpt lat="47.46682" lon="6.78112">
        <ele>360</ele>
        <time>2015-08-23T10:01:10.000Z</time>
      </trkpt>
      <trkpt lat="47.46688" lon="6.78103">
        <ele>360</ele>
        <time>2015-08-23T10:01:11.000Z</time>
      </trkpt>
      <trkpt lat="47.46692" lon="6.78094">
        <ele>360</ele>
        <time>2015-08-23T10:01:12.000Z</time>
      </trkpt>
      <trkpt lat="47.46696" lon="6.78086">
        <ele>360</ele>
        <time>2015-08-23T10:01:13.000Z</time>
      </trkpt>
      <trkpt lat="47.46698" lon="6.78078">
        <ele>362</ele>
        <time>2015-08-23T10:01:14.000Z</time>
      </trkpt>
      <trkpt lat="47.46699" lon="6.78074">
        <ele>362</ele>
        <time>2015-08-23T10:01:15.000Z</time>
      </trkpt>
      <trkpt lat="47.46702" lon="6.78072">
        <ele>362</ele>
        <time>2015-08-23T10:01:16.000Z</time>
      </trkpt>
      <trkpt lat="47.46704" lon="6.78069">
        <ele>362</ele>
        <time>2015-08-23T10:01:17.000Z</time>
      </trkpt>
      <trkpt lat="47.46706" lon="6.78066">
        <ele>362</ele>
        <time>2015-08-23T10:01:18.000Z</time>
      </trkpt>
      <trkpt lat="47.46708" lon="6.78064">
        <ele>362</ele>
        <time>2015-08-23T10:01:19.000Z</time>
      </trkpt>
      <trkpt lat="47.4671" lon="6.78061">
        <ele>362</ele>
        <time>2015-08-23T10:01:20.000Z</time>
      </trkpt>
      <trkpt lat="47.46712" lon="6.78059">
        <ele>361</ele>
        <time>2015-08-23T10:01:21.000Z</time>
      </trkpt>
      <trkpt lat="47.46717" lon="6.78054">
        <ele>361</ele>
        <time>2015-08-23T10:01:22.000Z</time>
      </trkpt>
      <trkpt lat="47.46717" lon="6.78048">
        <ele>361</ele>
        <time>2015-08-23T10:01:23.000Z</time>
      </trkpt>
      <trkpt lat="47.46719" lon="6.78044">
        <ele>361</ele>
        <time>2015-08-23T10:01:24.000Z</time>
      </trkpt>
      <trkpt lat="47.4672" lon="6.7804">
        <ele>361</ele>
        <time>2015-08-23T10:01:25.000Z</time>
      </trkpt>
      <trkpt lat="47.46721" lon="6.78036">
        <ele>361</ele>
        <time>2015-08-23T10:01:26.000Z</time>
      </trkpt>
      <trkpt lat="47.46722" lon="6.78031">
        <ele>361</ele>
        <time>2015-08-23T10:01:27.000Z</time>
      </trkpt>
      <trkpt lat="47.46721" lon="6.78026">
        <ele>361</ele>
        <time>2015-08-23T10:01:28.000Z</time>
      </trkpt>
      <trkpt lat="47.4672" lon="6.78021">
        <ele>361</ele>
        <time>2015-08-23T10:01:29.000Z</time>
      </trkpt>
      <trkpt lat="47.46718" lon="6.78016">
        <ele>362</ele>
        <time>2015-08-23T10:01:30.000Z</time>
      </trkpt>
      <trkpt lat="47.46716" lon="6.78011">
        <ele>362</ele>
        <time>2015-08-23T10:01:31.000Z</time>
      </trkpt>
      <trkpt lat="47.46715" lon="6.78006">
        <ele>362</ele>
        <time>2015-08-23T10:01:32.000Z</time>
      </trkpt>
      <trkpt lat="47.46714" lon="6.78001">
        <ele>362</ele>
        <time>2015-08-23T10:01:33.000Z</time>
      </trkpt>
      <trkpt lat="47.46715" lon="6.77996">
        <ele>367</ele>
        <time>2015-08-23T10:01:34.000Z</time>
      </trkpt>
      <trkpt lat="47.46716" lon="6.77991">
        <ele>367</ele>
        <time>2015-08-23T10:01:35.000Z</time>
      </trkpt>
      <trkpt lat="47.46718" lon="6.77987">
        <ele>367</ele>
        <time>2015-08-23T10:01:36.000Z</time>
      </trkpt>
      <trkpt lat="47.4672" lon="6.77982">
        <ele>367</ele>
        <time>2015-08-23T10:01:37.000Z</time>
      </trkpt>
      <trkpt lat="47.46722" lon="6.77978">
        <ele>367</ele>
        <time>2015-08-23T10:01:38.000Z</time>
      </trkpt>
      <trkpt lat="47.46723" lon="6.77974">
        <ele>367</ele>
        <time>2015-08-23T10:01:39.000Z</time>
      </trkpt>
      <trkpt lat="47.46725" lon="6.77969">
        <ele>367</ele>
        <time>2015-08-23T10:01:40.000Z</time>
      </trkpt>
      <trkpt lat="47.46726" lon="6.77964">
        <ele>368</ele>
        <time>2015-08-23T10:01:41.000Z</time>
      </trkpt>
      <trkpt lat="47.46727" lon="6.7796">
        <ele>368</ele>
        <time>2015-08-23T10:01:42.000Z</time>
      </trkpt>
      <trkpt lat="47.46729" lon="6.77955">
        <ele>368</ele>
        <time>2015-08-23T10:01:43.000Z</time>
      </trkpt>
      <trkpt lat="47.46731" lon="6.7795">
        <ele>368</ele>
        <time>2015-08-23T10:01:44.000Z</time>
      </trkpt>
      <trkpt lat="47.46734" lon="6.77946">
        <ele>367</ele>
        <time>2015-08-23T10:01:45.000Z</time>
      </trkpt>
      <trkpt lat="47.46737" lon="6.77942">
        <ele>367</ele>
        <time>2015-08-23T10:01:46.000Z</time>
      </trkpt>
      <trkpt lat="47.46741" lon="6.77937">
        <ele>366</ele>
        <time>2015-08-23T10:01:47.000Z</time>
      </trkpt>
      <trkpt lat="47.46749" lon="6.77922">
        <ele>363</ele>
        <time>2015-08-23T10:01:48.000Z</time>
      </trkpt>
      <trkpt lat="47.46752" lon="6.77915">
        <ele>360</ele>
        <time>2015-08-23T10:01:49.000Z</time>
      </trkpt>
      <trkpt lat="47.46754" lon="6.77906">
        <ele>359</ele>
        <time>2015-08-23T10:01:50.000Z</time>
      </trkpt>
      <trkpt lat="47.46757" lon="6.77899">
        <ele>358</ele>
        <time>2015-08-23T10:01:51.000Z</time>
      </trkpt>
      <trkpt lat="47.46758" lon="6.77894">
        <ele>357</ele>
        <time>2015-08-23T10:01:52.000Z</time>
      </trkpt>
      <trkpt lat="47.4676" lon="6.77889">
        <ele>357</ele>
        <time>2015-08-23T10:01:53.000Z</time>
      </trkpt>
      <trkpt lat="47.46759" lon="6.77882">
        <ele>357</ele>
        <time>2015-08-23T10:01:54.000Z</time>
      </trkpt>
      <trkpt lat="47.46761" lon="6.77873">
        <ele>358</ele>
        <time>2015-08-23T10:01:55.000Z</time>
      </trkpt>
      <trkpt lat="47.46762" lon="6.77865">
        <ele>358</ele>
        <time>2015-08-23T10:01:56.000Z</time>
      </trkpt>
      <trkpt lat="47.46763" lon="6.77859">
        <ele>359</ele>
        <time>2015-08-23T10:01:57.000Z</time>
      </trkpt>
      <trkpt lat="47.46764" lon="6.77853">
        <ele>360</ele>
        <time>2015-08-23T10:01:58.000Z</time>
      </trkpt>
      <trkpt lat="47.46765" lon="6.7785">
        <ele>360</ele>
        <time>2015-08-23T10:01:59.000Z</time>
      </trkpt>
      <trkpt lat="47.46765" lon="6.77845">
        <ele>361</ele>
        <time>2015-08-23T10:02:00.000Z</time>
      </trkpt>
      <trkpt lat="47.46765" lon="6.77841">
        <ele>362</ele>
        <time>2015-08-23T10:02:01.000Z</time>
      </trkpt>
      <trkpt lat="47.46765" lon="6.77836">
        <ele>362</ele>
        <time>2015-08-23T10:02:02.000Z</time>
      </trkpt>
      <trkpt lat="47.46766" lon="6.7783">
        <ele>365</ele>
        <time>2015-08-23T10:02:03.000Z</time>
      </trkpt>
      <trkpt lat="47.46768" lon="6.77825">
        <ele>364</ele>
        <time>2015-08-23T10:02:04.000Z</time>
      </trkpt>
      <trkpt lat="47.46769" lon="6.7782">
        <ele>364</ele>
        <time>2015-08-23T10:02:05.000Z</time>
      </trkpt>
      <trkpt lat="47.4677" lon="6.77815">
        <ele>363</ele>
        <time>2015-08-23T10:02:06.000Z</time>
      </trkpt>
      <trkpt lat="47.4677" lon="6.77809">
        <ele>363</ele>
        <time>2015-08-23T10:02:07.000Z</time>
      </trkpt>
      <trkpt lat="47.4677" lon="6.77804">
        <ele>363</ele>
        <time>2015-08-23T10:02:08.000Z</time>
      </trkpt>
      <trkpt lat="47.4677" lon="6.77799">
        <ele>363</ele>
        <time>2015-08-23T10:02:09.000Z</time>
      </trkpt>
      <trkpt lat="47.46771" lon="6.77795">
        <ele>363</ele>
        <time>2015-08-23T10:02:10.000Z</time>
      </trkpt>
      <trkpt lat="47.46772" lon="6.7779">
        <ele>364</ele>
        <time>2015-08-23T10:02:11.000Z</time>
      </trkpt>
      <trkpt lat="47.46772" lon="6.77787">
        <ele>364</ele>
        <time>2015-08-23T10:02:12.000Z</time>
      </trkpt>
      <trkpt lat="47.46773" lon="6.77783">
        <ele>364</ele>
        <time>2015-08-23T10:02:13.000Z</time>
      </trkpt>
      <trkpt lat="47.46775" lon="6.77778">
        <ele>364</ele>
        <time>2015-08-23T10:02:15.000Z</time>
      </trkpt>
      <trkpt lat="47.46777" lon="6.77775">
        <ele>364</ele>
        <time>2015-08-23T10:02:16.000Z</time>
      </trkpt>
      <trkpt lat="47.46779" lon="6.77772">
        <ele>364</ele>
        <time>2015-08-23T10:02:17.000Z</time>
      </trkpt>
      <trkpt lat="47.46781" lon="6.77769">
        <ele>364</ele>
        <time>2015-08-23T10:02:18.000Z</time>
      </trkpt>
      <trkpt lat="47.46782" lon="6.77766">
        <ele>364</ele>
        <time>2015-08-23T10:02:19.000Z</time>
      </trkpt>
      <trkpt lat="47.46784" lon="6.77764">
        <ele>364</ele>
        <time>2015-08-23T10:02:20.000Z</time>
      </trkpt>
      <trkpt lat="47.46786" lon="6.77762">
        <ele>363</ele>
        <time>2015-08-23T10:02:21.000Z</time>
      </trkpt>
      <trkpt lat="47.46787" lon="6.77758">
        <ele>363</ele>
        <time>2015-08-23T10:02:22.000Z</time>
      </trkpt>
      <trkpt lat="47.46789" lon="6.77755">
        <ele>363</ele>
        <time>2015-08-23T10:02:23.000Z</time>
      </trkpt>
      <trkpt lat="47.46791" lon="6.77752">
        <ele>362</ele>
        <time>2015-08-23T10:02:24.000Z</time>
      </trkpt>
      <trkpt lat="47.46792" lon="6.77748">
        <ele>366</ele>
        <time>2015-08-23T10:02:25.000Z</time>
      </trkpt>
      <trkpt lat="47.46794" lon="6.77743">
        <ele>365</ele>
        <time>2015-08-23T10:02:26.000Z</time>
      </trkpt>
      <trkpt lat="47.46796" lon="6.77738">
        <ele>365</ele>
        <time>2015-08-23T10:02:27.000Z</time>
      </trkpt>
      <trkpt lat="47.46798" lon="6.77733">
        <ele>365</ele>
        <time>2015-08-23T10:02:28.000Z</time>
      </trkpt>
      <trkpt lat="47.46799" lon="6.77728">
        <ele>364</ele>
        <time>2015-08-23T10:02:29.000Z</time>
      </trkpt>
      <trkpt lat="47.46801" lon="6.77724">
        <ele>364</ele>
        <time>2015-08-23T10:02:30.000Z</time>
      </trkpt>
      <trkpt lat="47.46802" lon="6.77719">
        <ele>364</ele>
        <time>2015-08-23T10:02:31.000Z</time>
      </trkpt>
      <trkpt lat="47.46803" lon="6.77716">
        <ele>364</ele>
        <time>2015-08-23T10:02:32.000Z</time>
      </trkpt>
      <trkpt lat="47.46804" lon="6.77711">
        <ele>364</ele>
        <time>2015-08-23T10:02:33.000Z</time>
      </trkpt>
      <trkpt lat="47.46805" lon="6.77706">
        <ele>364</ele>
        <time>2015-08-23T10:02:34.000Z</time>
      </trkpt>
      <trkpt lat="47.46806" lon="6.777">
        <ele>364</ele>
        <time>2015-08-23T10:02:35.000Z</time>
      </trkpt>
      <trkpt lat="47.46808" lon="6.77694">
        <ele>364</ele>
        <time>2015-08-23T10:02:36.000Z</time>
      </trkpt>
      <trkpt lat="47.46809" lon="6.77689">
        <ele>364</ele>
        <time>2015-08-23T10:02:37.000Z</time>
      </trkpt>
      <trkpt lat="47.46811" lon="6.77684">
        <ele>363</ele>
        <time>2015-08-23T10:02:38.000Z</time>
      </trkpt>
      <trkpt lat="47.46812" lon="6.77678">
        <ele>363</ele>
        <time>2015-08-23T10:02:39.000Z</time>
      </trkpt>
      <trkpt lat="47.46814" lon="6.77673">
        <ele>362</ele>
        <time>2015-08-23T10:02:40.000Z</time>
      </trkpt>
      <trkpt lat="47.46815" lon="6.77667">
        <ele>362</ele>
        <time>2015-08-23T10:02:41.000Z</time>
      </trkpt>
      <trkpt lat="47.46817" lon="6.77659">
        <ele>362</ele>
        <time>2015-08-23T10:02:42.000Z</time>
      </trkpt>
      <trkpt lat="47.46818" lon="6.77652">
        <ele>362</ele>
        <time>2015-08-23T10:02:43.000Z</time>
      </trkpt>
      <trkpt lat="47.4682" lon="6.77644">
        <ele>363</ele>
        <time>2015-08-23T10:02:44.000Z</time>
      </trkpt>
      <trkpt lat="47.46821" lon="6.77636">
        <ele>363</ele>
        <time>2015-08-23T10:02:45.000Z</time>
      </trkpt>
      <trkpt lat="47.46822" lon="6.77616">
        <ele>363</ele>
        <time>2015-08-23T10:02:46.000Z</time>
      </trkpt>
      <trkpt lat="47.46824" lon="6.77605">
        <ele>362</ele>
        <time>2015-08-23T10:02:47.000Z</time>
      </trkpt>
      <trkpt lat="47.46826" lon="6.77595">
        <ele>360</ele>
        <time>2015-08-23T10:02:48.000Z</time>
      </trkpt>
      <trkpt lat="47.46827" lon="6.77583">
        <ele>358</ele>
        <time>2015-08-23T10:02:49.000Z</time>
      </trkpt>
      <trkpt lat="47.46828" lon="6.77571">
        <ele>359</ele>
        <time>2015-08-23T10:02:50.000Z</time>
      </trkpt>
      <trkpt lat="47.46829" lon="6.77559">
        <ele>360</ele>
        <time>2015-08-23T10:02:51.000Z</time>
      </trkpt>
      <trkpt lat="47.4683" lon="6.77549">
        <ele>361</ele>
        <time>2015-08-23T10:02:52.000Z</time>
      </trkpt>
      <trkpt lat="47.46833" lon="6.77535">
        <ele>351</ele>
        <time>2015-08-23T10:02:53.000Z</time>
      </trkpt>
      <trkpt lat="47.46835" lon="6.77524">
        <ele>351</ele>
        <time>2015-08-23T10:02:54.000Z</time>
      </trkpt>
      <trkpt lat="47.46835" lon="6.77511">
        <ele>352</ele>
        <time>2015-08-23T10:02:55.000Z</time>
      </trkpt>
      <trkpt lat="47.46837" lon="6.77498">
        <ele>353</ele>
        <time>2015-08-23T10:02:56.000Z</time>
      </trkpt>
      <trkpt lat="47.46839" lon="6.77487">
        <ele>351</ele>
        <time>2015-08-23T10:02:57.000Z</time>
      </trkpt>
      <trkpt lat="47.4684" lon="6.77473">
        <ele>350</ele>
        <time>2015-08-23T10:02:58.000Z</time>
      </trkpt>
      <trkpt lat="47.46843" lon="6.7746">
        <ele>350</ele>
        <time>2015-08-23T10:02:59.000Z</time>
      </trkpt>
      <trkpt lat="47.46846" lon="6.77449">
        <ele>349</ele>
        <time>2015-08-23T10:03:00.000Z</time>
      </trkpt>
      <trkpt lat="47.46849" lon="6.7744">
        <ele>349</ele>
        <time>2015-08-23T10:03:01.000Z</time>
      </trkpt>
      <trkpt lat="47.46857" lon="6.77444">
        <ele>349</ele>
        <time>2015-08-23T10:03:02.000Z</time>
      </trkpt>
      <trkpt lat="47.46863" lon="6.77445">
        <ele>349</ele>
        <time>2015-08-23T10:03:03.000Z</time>
      </trkpt>
      <trkpt lat="47.46867" lon="6.77448">
        <ele>348</ele>
        <time>2015-08-23T10:03:04.000Z</time>
      </trkpt>
      <trkpt lat="47.46872" lon="6.77449">
        <ele>348</ele>
        <time>2015-08-23T10:03:05.000Z</time>
      </trkpt>
      <trkpt lat="47.46877" lon="6.7745">
        <ele>348</ele>
        <time>2015-08-23T10:03:06.000Z</time>
      </trkpt>
      <trkpt lat="47.46881" lon="6.77452">
        <ele>348</ele>
        <time>2015-08-23T10:03:07.000Z</time>
      </trkpt>
      <trkpt lat="47.46888" lon="6.77454">
        <ele>347</ele>
        <time>2015-08-23T10:03:08.000Z</time>
      </trkpt>
      <trkpt lat="47.46894" lon="6.77454">
        <ele>347</ele>
        <time>2015-08-23T10:03:09.000Z</time>
      </trkpt>
      <trkpt lat="47.46901" lon="6.77451">
        <ele>347</ele>
        <time>2015-08-23T10:03:10.000Z</time>
      </trkpt>
      <trkpt lat="47.46908" lon="6.77447">
        <ele>346</ele>
        <time>2015-08-23T10:03:11.000Z</time>
      </trkpt>
      <trkpt lat="47.46915" lon="6.77443">
        <ele>346</ele>
        <time>2015-08-23T10:03:12.000Z</time>
      </trkpt>
      <trkpt lat="47.46922" lon="6.77436">
        <ele>342</ele>
        <time>2015-08-23T10:03:13.000Z</time>
      </trkpt>
      <trkpt lat="47.46928" lon="6.77431">
        <ele>342</ele>
        <time>2015-08-23T10:03:14.000Z</time>
      </trkpt>
      <trkpt lat="47.46935" lon="6.7743">
        <ele>342</ele>
        <time>2015-08-23T10:03:15.000Z</time>
      </trkpt>
      <trkpt lat="47.46941" lon="6.7743">
        <ele>342</ele>
        <time>2015-08-23T10:03:16.000Z</time>
      </trkpt>
      <trkpt lat="47.46945" lon="6.77437">
        <ele>342</ele>
        <time>2015-08-23T10:03:17.000Z</time>
      </trkpt>
      <trkpt lat="47.46948" lon="6.77445">
        <ele>341</ele>
        <time>2015-08-23T10:03:18.000Z</time>
      </trkpt>
      <trkpt lat="47.46953" lon="6.77453">
        <ele>341</ele>
        <time>2015-08-23T10:03:19.000Z</time>
      </trkpt>
      <trkpt lat="47.46957" lon="6.77461">
        <ele>341</ele>
        <time>2015-08-23T10:03:20.000Z</time>
      </trkpt>
      <trkpt lat="47.46962" lon="6.77468">
        <ele>341</ele>
        <time>2015-08-23T10:03:21.000Z</time>
      </trkpt>
      <trkpt lat="47.46967" lon="6.77477">
        <ele>341</ele>
        <time>2015-08-23T10:03:22.000Z</time>
      </trkpt>
      <trkpt lat="47.46972" lon="6.77485">
        <ele>340</ele>
        <time>2015-08-23T10:03:23.000Z</time>
      </trkpt>
      <trkpt lat="47.46976" lon="6.77493">
        <ele>340</ele>
        <time>2015-08-23T10:03:24.000Z</time>
      </trkpt>
      <trkpt lat="47.46981" lon="6.77501">
        <ele>339</ele>
        <time>2015-08-23T10:03:25.000Z</time>
      </trkpt>
      <trkpt lat="47.46986" lon="6.7751">
        <ele>339</ele>
        <time>2015-08-23T10:03:26.000Z</time>
      </trkpt>
      <trkpt lat="47.46991" lon="6.77519">
        <ele>339</ele>
        <time>2015-08-23T10:03:27.000Z</time>
      </trkpt>
      <trkpt lat="47.46996" lon="6.77528">
        <ele>339</ele>
        <time>2015-08-23T10:03:28.000Z</time>
      </trkpt>
      <trkpt lat="47.47002" lon="6.77536">
        <ele>336</ele>
        <time>2015-08-23T10:03:29.000Z</time>
      </trkpt>
      <trkpt lat="47.47008" lon="6.77544">
        <ele>336</ele>
        <time>2015-08-23T10:03:30.000Z</time>
      </trkpt>
      <trkpt lat="47.47014" lon="6.77552">
        <ele>336</ele>
        <time>2015-08-23T10:03:31.000Z</time>
      </trkpt>
      <trkpt lat="47.4702" lon="6.77561">
        <ele>336</ele>
        <time>2015-08-23T10:03:32.000Z</time>
      </trkpt>
      <trkpt lat="47.47026" lon="6.77569">
        <ele>335</ele>
        <time>2015-08-23T10:03:33.000Z</time>
      </trkpt>
      <trkpt lat="47.47031" lon="6.77577">
        <ele>335</ele>
        <time>2015-08-23T10:03:34.000Z</time>
      </trkpt>
      <trkpt lat="47.47037" lon="6.77586">
        <ele>335</ele>
        <time>2015-08-23T10:03:35.000Z</time>
      </trkpt>
      <trkpt lat="47.47043" lon="6.77594">
        <ele>334</ele>
        <time>2015-08-23T10:03:36.000Z</time>
      </trkpt>
      <trkpt lat="47.47048" lon="6.77602">
        <ele>334</ele>
        <time>2015-08-23T10:03:37.000Z</time>
      </trkpt>
      <trkpt lat="47.47054" lon="6.7761">
        <ele>334</ele>
        <time>2015-08-23T10:03:38.000Z</time>
      </trkpt>
      <trkpt lat="47.4706" lon="6.77618">
        <ele>334</ele>
        <time>2015-08-23T10:03:39.000Z</time>
      </trkpt>
      <trkpt lat="47.47066" lon="6.77625">
        <ele>334</ele>
        <time>2015-08-23T10:03:40.000Z</time>
      </trkpt>
      <trkpt lat="47.47071" lon="6.77632">
        <ele>334</ele>
        <time>2015-08-23T10:03:41.000Z</time>
      </trkpt>
      <trkpt lat="47.47077" lon="6.77639">
        <ele>334</ele>
        <time>2015-08-23T10:03:42.000Z</time>
      </trkpt>
      <trkpt lat="47.47082" lon="6.77645">
        <ele>334</ele>
        <time>2015-08-23T10:03:43.000Z</time>
      </trkpt>
      <trkpt lat="47.47087" lon="6.77651">
        <ele>334</ele>
        <time>2015-08-23T10:03:44.000Z</time>
      </trkpt>
      <trkpt lat="47.47092" lon="6.77657">
        <ele>334</ele>
        <time>2015-08-23T10:03:45.000Z</time>
      </trkpt>
      <trkpt lat="47.47097" lon="6.77662">
        <ele>334</ele>
        <time>2015-08-23T10:03:46.000Z</time>
      </trkpt>
      <trkpt lat="47.47102" lon="6.77667">
        <ele>335</ele>
        <time>2015-08-23T10:03:47.000Z</time>
      </trkpt>
      <trkpt lat="47.47106" lon="6.77671">
        <ele>335</ele>
        <time>2015-08-23T10:03:48.000Z</time>
      </trkpt>
      <trkpt lat="47.4711" lon="6.77674">
        <ele>335</ele>
        <time>2015-08-23T10:03:49.000Z</time>
      </trkpt>
      <trkpt lat="47.47113" lon="6.77676">
        <ele>335</ele>
        <time>2015-08-23T10:03:50.000Z</time>
      </trkpt>
      <trkpt lat="47.47116" lon="6.77677">
        <ele>335</ele>
        <time>2015-08-23T10:03:51.000Z</time>
      </trkpt>
      <trkpt lat="47.47119" lon="6.77677">
        <ele>335</ele>
        <time>2015-08-23T10:03:52.000Z</time>
      </trkpt>
      <trkpt lat="47.47122" lon="6.77677">
        <ele>336</ele>
        <time>2015-08-23T10:03:53.000Z</time>
      </trkpt>
      <trkpt lat="47.47124" lon="6.77675">
        <ele>336</ele>
        <time>2015-08-23T10:03:54.000Z</time>
      </trkpt>
      <trkpt lat="47.47124" lon="6.77673">
        <ele>336</ele>
        <time>2015-08-23T10:03:55.000Z</time>
      </trkpt>
      <trkpt lat="47.47127" lon="6.7767">
        <ele>336</ele>
        <time>2015-08-23T10:03:56.000Z</time>
      </trkpt>
      <trkpt lat="47.47136" lon="6.77658">
        <ele>335</ele>
        <time>2015-08-23T10:03:57.000Z</time>
      </trkpt>
      <trkpt lat="47.47141" lon="6.77647">
        <ele>335</ele>
        <time>2015-08-23T10:03:58.000Z</time>
      </trkpt>
      <trkpt lat="47.47142" lon="6.77637">
        <ele>335</ele>
        <time>2015-08-23T10:03:59.000Z</time>
      </trkpt>
      <trkpt lat="47.47146" lon="6.77629">
        <ele>335</ele>
        <time>2015-08-23T10:04:00.000Z</time>
      </trkpt>
      <trkpt lat="47.47148" lon="6.7762">
        <ele>334</ele>
        <time>2015-08-23T10:04:01.000Z</time>
      </trkpt>
      <trkpt lat="47.47154" lon="6.77614">
        <ele>334</ele>
        <time>2015-08-23T10:04:02.000Z</time>
      </trkpt>
      <trkpt lat="47.47156" lon="6.77607">
        <ele>334</ele>
        <time>2015-08-23T10:04:03.000Z</time>
      </trkpt>
      <trkpt lat="47.47158" lon="6.776">
        <ele>334</ele>
        <time>2015-08-23T10:04:04.000Z</time>
      </trkpt>
      <trkpt lat="47.47161" lon="6.77592">
        <ele>334</ele>
        <time>2015-08-23T10:04:05.000Z</time>
      </trkpt>
      <trkpt lat="47.47163" lon="6.77584">
        <ele>334</ele>
        <time>2015-08-23T10:04:06.000Z</time>
      </trkpt>
      <trkpt lat="47.47165" lon="6.77579">
        <ele>334</ele>
        <time>2015-08-23T10:04:07.000Z</time>
      </trkpt>
      <trkpt lat="47.47167" lon="6.77573">
        <ele>333</ele>
        <time>2015-08-23T10:04:08.000Z</time>
      </trkpt>
      <trkpt lat="47.47171" lon="6.7757">
        <ele>333</ele>
        <time>2015-08-23T10:04:09.000Z</time>
      </trkpt>
      <trkpt lat="47.47176" lon="6.77571">
        <ele>333</ele>
        <time>2015-08-23T10:04:10.000Z</time>
      </trkpt>
      <trkpt lat="47.4718" lon="6.7757">
        <ele>333</ele>
        <time>2015-08-23T10:04:11.000Z</time>
      </trkpt>
      <trkpt lat="47.47186" lon="6.77571">
        <ele>332</ele>
        <time>2015-08-23T10:04:12.000Z</time>
      </trkpt>
      <trkpt lat="47.47191" lon="6.77571">
        <ele>332</ele>
        <time>2015-08-23T10:04:13.000Z</time>
      </trkpt>
      <trkpt lat="47.47195" lon="6.77571">
        <ele>332</ele>
        <time>2015-08-23T10:04:14.000Z</time>
      </trkpt>
      <trkpt lat="47.472" lon="6.77569">
        <ele>332</ele>
        <time>2015-08-23T10:04:15.000Z</time>
      </trkpt>
      <trkpt lat="47.47204" lon="6.77569">
        <ele>332</ele>
        <time>2015-08-23T10:04:16.000Z</time>
      </trkpt>
      <trkpt lat="47.47207" lon="6.7757">
        <ele>332</ele>
        <time>2015-08-23T10:04:17.000Z</time>
      </trkpt>
      <trkpt lat="47.47211" lon="6.7757">
        <ele>331</ele>
        <time>2015-08-23T10:04:18.000Z</time>
      </trkpt>
      <trkpt lat="47.47214" lon="6.7757">
        <ele>331</ele>
        <time>2015-08-23T10:04:19.000Z</time>
      </trkpt>
      <trkpt lat="47.47217" lon="6.7757">
        <ele>331</ele>
        <time>2015-08-23T10:04:20.000Z</time>
      </trkpt>
      <trkpt lat="47.47221" lon="6.7757">
        <ele>331</ele>
        <time>2015-08-23T10:04:21.000Z</time>
      </trkpt>
      <trkpt lat="47.47225" lon="6.7757">
        <ele>331</ele>
        <time>2015-08-23T10:04:22.000Z</time>
      </trkpt>
      <trkpt lat="47.4723" lon="6.77569">
        <ele>331</ele>
        <time>2015-08-23T10:04:23.000Z</time>
      </trkpt>
      <trkpt lat="47.47235" lon="6.77569">
        <ele>331</ele>
        <time>2015-08-23T10:04:24.000Z</time>
      </trkpt>
      <trkpt lat="47.4724" lon="6.7757">
        <ele>331</ele>
        <time>2015-08-23T10:04:25.000Z</time>
      </trkpt>
      <trkpt lat="47.47246" lon="6.77571">
        <ele>330</ele>
        <time>2015-08-23T10:04:26.000Z</time>
      </trkpt>
      <trkpt lat="47.47251" lon="6.77572">
        <ele>329</ele>
        <time>2015-08-23T10:04:27.000Z</time>
      </trkpt>
      <trkpt lat="47.47256" lon="6.77572">
        <ele>329</ele>
        <time>2015-08-23T10:04:28.000Z</time>
      </trkpt>
      <trkpt lat="47.47262" lon="6.7757">
        <ele>328</ele>
        <time>2015-08-23T10:04:29.000Z</time>
      </trkpt>
      <trkpt lat="47.47269" lon="6.7757">
        <ele>328</ele>
        <time>2015-08-23T10:04:30.000Z</time>
      </trkpt>
      <trkpt lat="47.47276" lon="6.77571">
        <ele>328</ele>
        <time>2015-08-23T10:04:31.000Z</time>
      </trkpt>
      <trkpt lat="47.47283" lon="6.77571">
        <ele>327</ele>
        <time>2015-08-23T10:04:32.000Z</time>
      </trkpt>
      <trkpt lat="47.47291" lon="6.7757">
        <ele>327</ele>
        <time>2015-08-23T10:04:33.000Z</time>
      </trkpt>
      <trkpt lat="47.47299" lon="6.7757">
        <ele>327</ele>
        <time>2015-08-23T10:04:34.000Z</time>
      </trkpt>
      <trkpt lat="47.47306" lon="6.77569">
        <ele>326</ele>
        <time>2015-08-23T10:04:35.000Z</time>
      </trkpt>
      <trkpt lat="47.47313" lon="6.77568">
        <ele>326</ele>
        <time>2015-08-23T10:04:36.000Z</time>
      </trkpt>
      <trkpt lat="47.4732" lon="6.77568">
        <ele>326</ele>
        <time>2015-08-23T10:04:37.000Z</time>
      </trkpt>
      <trkpt lat="47.47328" lon="6.77567">
        <ele>326</ele>
        <time>2015-08-23T10:04:38.000Z</time>
      </trkpt>
      <trkpt lat="47.47335" lon="6.77567">
        <ele>324</ele>
        <time>2015-08-23T10:04:39.000Z</time>
      </trkpt>
      <trkpt lat="47.47342" lon="6.77566">
        <ele>323</ele>
        <time>2015-08-23T10:04:40.000Z</time>
      </trkpt>
      <trkpt lat="47.47349" lon="6.77568">
        <ele>323</ele>
        <time>2015-08-23T10:04:41.000Z</time>
      </trkpt>
      <trkpt lat="47.47357" lon="6.77569">
        <ele>323</ele>
        <time>2015-08-23T10:04:42.000Z</time>
      </trkpt>
      <trkpt lat="47.47364" lon="6.77571">
        <ele>323</ele>
        <time>2015-08-23T10:04:43.000Z</time>
      </trkpt>
      <trkpt lat="47.47371" lon="6.77571">
        <ele>322</ele>
        <time>2015-08-23T10:04:44.000Z</time>
      </trkpt>
      <trkpt lat="47.47379" lon="6.7757">
        <ele>322</ele>
        <time>2015-08-23T10:04:45.000Z</time>
      </trkpt>
      <trkpt lat="47.47386" lon="6.77569">
        <ele>322</ele>
        <time>2015-08-23T10:04:46.000Z</time>
      </trkpt>
      <trkpt lat="47.47395" lon="6.77568">
        <ele>322</ele>
        <time>2015-08-23T10:04:47.000Z</time>
      </trkpt>
      <trkpt lat="47.47402" lon="6.77567">
        <ele>322</ele>
        <time>2015-08-23T10:04:48.000Z</time>
      </trkpt>
      <trkpt lat="47.4741" lon="6.77566">
        <ele>321</ele>
        <time>2015-08-23T10:04:49.000Z</time>
      </trkpt>
      <trkpt lat="47.4742" lon="6.77561">
        <ele>320</ele>
        <time>2015-08-23T10:04:50.000Z</time>
      </trkpt>
      <trkpt lat="47.47426" lon="6.77555">
        <ele>319</ele>
        <time>2015-08-23T10:04:51.000Z</time>
      </trkpt>
      <trkpt lat="47.47433" lon="6.77551">
        <ele>319</ele>
        <time>2015-08-23T10:04:52.000Z</time>
      </trkpt>
      <trkpt lat="47.47439" lon="6.77547">
        <ele>319</ele>
        <time>2015-08-23T10:04:53.000Z</time>
      </trkpt>
      <trkpt lat="47.47445" lon="6.77542">
        <ele>319</ele>
        <time>2015-08-23T10:04:54.000Z</time>
      </trkpt>
      <trkpt lat="47.47451" lon="6.77538">
        <ele>319</ele>
        <time>2015-08-23T10:04:55.000Z</time>
      </trkpt>
      <trkpt lat="47.47458" lon="6.77537">
        <ele>319</ele>
        <time>2015-08-23T10:04:56.000Z</time>
      </trkpt>
      <trkpt lat="47.47464" lon="6.77533">
        <ele>319</ele>
        <time>2015-08-23T10:04:57.000Z</time>
      </trkpt>
      <trkpt lat="47.47468" lon="6.77527">
        <ele>318</ele>
        <time>2015-08-23T10:04:58.000Z</time>
      </trkpt>
      <trkpt lat="47.47473" lon="6.7752">
        <ele>318</ele>
        <time>2015-08-23T10:04:59.000Z</time>
      </trkpt>
      <trkpt lat="47.47477" lon="6.77512">
        <ele>318</ele>
        <time>2015-08-23T10:05:00.000Z</time>
      </trkpt>
      <trkpt lat="47.47482" lon="6.77506">
        <ele>318</ele>
        <time>2015-08-23T10:05:01.000Z</time>
      </trkpt>
      <trkpt lat="47.47486" lon="6.77499">
        <ele>317</ele>
        <time>2015-08-23T10:05:02.000Z</time>
      </trkpt>
      <trkpt lat="47.47489" lon="6.77491">
        <ele>317</ele>
        <time>2015-08-23T10:05:03.000Z</time>
      </trkpt>
      <trkpt lat="47.47493" lon="6.77483">
        <ele>317</ele>
        <time>2015-08-23T10:05:04.000Z</time>
      </trkpt>
      <trkpt lat="47.47496" lon="6.77476">
        <ele>317</ele>
        <time>2015-08-23T10:05:05.000Z</time>
      </trkpt>
      <trkpt lat="47.47499" lon="6.77469">
        <ele>317</ele>
        <time>2015-08-23T10:05:06.000Z</time>
      </trkpt>
      <trkpt lat="47.47503" lon="6.77462">
        <ele>316</ele>
        <time>2015-08-23T10:05:07.000Z</time>
      </trkpt>
      <trkpt lat="47.47506" lon="6.77454">
        <ele>316</ele>
        <time>2015-08-23T10:05:08.000Z</time>
      </trkpt>
      <trkpt lat="47.47511" lon="6.77446">
        <ele>316</ele>
        <time>2015-08-23T10:05:09.000Z</time>
      </trkpt>
      <trkpt lat="47.47514" lon="6.77438">
        <ele>316</ele>
        <time>2015-08-23T10:05:10.000Z</time>
      </trkpt>
      <trkpt lat="47.47516" lon="6.77432">
        <ele>316</ele>
        <time>2015-08-23T10:05:11.000Z</time>
      </trkpt>
      <trkpt lat="47.47522" lon="6.77425">
        <ele>316</ele>
        <time>2015-08-23T10:05:12.000Z</time>
      </trkpt>
      <trkpt lat="47.47527" lon="6.7742">
        <ele>316</ele>
        <time>2015-08-23T10:05:13.000Z</time>
      </trkpt>
      <trkpt lat="47.47531" lon="6.77414">
        <ele>315</ele>
        <time>2015-08-23T10:05:14.000Z</time>
      </trkpt>
      <trkpt lat="47.47535" lon="6.77413">
        <ele>315</ele>
        <time>2015-08-23T10:05:15.000Z</time>
      </trkpt>
      <trkpt lat="47.4754" lon="6.77411">
        <ele>315</ele>
        <time>2015-08-23T10:05:16.000Z</time>
      </trkpt>
      <trkpt lat="47.47544" lon="6.77409">
        <ele>314</ele>
        <time>2015-08-23T10:05:17.000Z</time>
      </trkpt>
      <trkpt lat="47.47546" lon="6.77405">
        <ele>314</ele>
        <time>2015-08-23T10:05:18.000Z</time>
      </trkpt>
      <trkpt lat="47.4755" lon="6.77401">
        <ele>314</ele>
        <time>2015-08-23T10:05:19.000Z</time>
      </trkpt>
      <trkpt lat="47.47554" lon="6.774">
        <ele>314</ele>
        <time>2015-08-23T10:05:20.000Z</time>
      </trkpt>
      <trkpt lat="47.47559" lon="6.774">
        <ele>314</ele>
        <time>2015-08-23T10:05:21.000Z</time>
      </trkpt>
      <trkpt lat="47.47563" lon="6.77398">
        <ele>314</ele>
        <time>2015-08-23T10:05:22.000Z</time>
      </trkpt>
      <trkpt lat="47.47568" lon="6.774">
        <ele>314</ele>
        <time>2015-08-23T10:05:23.000Z</time>
      </trkpt>
      <trkpt lat="47.47572" lon="6.77404">
        <ele>314</ele>
        <time>2015-08-23T10:05:24.000Z</time>
      </trkpt>
      <trkpt lat="47.47576" lon="6.77409">
        <ele>314</ele>
        <time>2015-08-23T10:05:25.000Z</time>
      </trkpt>
      <trkpt lat="47.47581" lon="6.77412">
        <ele>314</ele>
        <time>2015-08-23T10:05:26.000Z</time>
      </trkpt>
      <trkpt lat="47.47587" lon="6.77412">
        <ele>314</ele>
        <time>2015-08-23T10:05:27.000Z</time>
      </trkpt>
      <trkpt lat="47.47592" lon="6.77414">
        <ele>313</ele>
        <time>2015-08-23T10:05:28.000Z</time>
      </trkpt>
      <trkpt lat="47.47597" lon="6.77412">
        <ele>313</ele>
        <time>2015-08-23T10:05:29.000Z</time>
      </trkpt>
      <trkpt lat="47.476" lon="6.77408">
        <ele>313</ele>
        <time>2015-08-23T10:05:30.000Z</time>
      </trkpt>
      <trkpt lat="47.47604" lon="6.77402">
        <ele>313</ele>
        <time>2015-08-23T10:05:31.000Z</time>
      </trkpt>
      <trkpt lat="47.47608" lon="6.77394">
        <ele>313</ele>
        <time>2015-08-23T10:05:32.000Z</time>
      </trkpt>
      <trkpt lat="47.47611" lon="6.77387">
        <ele>312</ele>
        <time>2015-08-23T10:05:33.000Z</time>
      </trkpt>
      <trkpt lat="47.47613" lon="6.77378">
        <ele>312</ele>
        <time>2015-08-23T10:05:34.000Z</time>
      </trkpt>
      <trkpt lat="47.47616" lon="6.7737">
        <ele>312</ele>
        <time>2015-08-23T10:05:35.000Z</time>
      </trkpt>
      <trkpt lat="47.47619" lon="6.77362">
        <ele>312</ele>
        <time>2015-08-23T10:05:36.000Z</time>
      </trkpt>
      <trkpt lat="47.47621" lon="6.77355">
        <ele>312</ele>
        <time>2015-08-23T10:05:37.000Z</time>
      </trkpt>
      <trkpt lat="47.47624" lon="6.77349">
        <ele>312</ele>
        <time>2015-08-23T10:05:38.000Z</time>
      </trkpt>
      <trkpt lat="47.47627" lon="6.77341">
        <ele>312</ele>
        <time>2015-08-23T10:05:39.000Z</time>
      </trkpt>
      <trkpt lat="47.4763" lon="6.77334">
        <ele>312</ele>
        <time>2015-08-23T10:05:40.000Z</time>
      </trkpt>
      <trkpt lat="47.47633" lon="6.77326">
        <ele>311</ele>
        <time>2015-08-23T10:05:41.000Z</time>
      </trkpt>
      <trkpt lat="47.47636" lon="6.77318">
        <ele>311</ele>
        <time>2015-08-23T10:05:42.000Z</time>
      </trkpt>
      <trkpt lat="47.47638" lon="6.77309">
        <ele>311</ele>
        <time>2015-08-23T10:05:43.000Z</time>
      </trkpt>
      <trkpt lat="47.47639" lon="6.773">
        <ele>311</ele>
        <time>2015-08-23T10:05:44.000Z</time>
      </trkpt>
      <trkpt lat="47.47641" lon="6.77291">
        <ele>311</ele>
        <time>2015-08-23T10:05:45.000Z</time>
      </trkpt>
      <trkpt lat="47.47636" lon="6.77281">
        <ele>311</ele>
        <time>2015-08-23T10:05:46.000Z</time>
      </trkpt>
      <trkpt lat="47.47632" lon="6.77273">
        <ele>311</ele>
        <time>2015-08-23T10:05:47.000Z</time>
      </trkpt>
      <trkpt lat="47.47627" lon="6.77267">
        <ele>311</ele>
        <time>2015-08-23T10:05:48.000Z</time>
      </trkpt>
      <trkpt lat="47.47622" lon="6.77262">
        <ele>311</ele>
        <time>2015-08-23T10:05:49.000Z</time>
      </trkpt>
      <trkpt lat="47.47617" lon="6.77256">
        <ele>311</ele>
        <time>2015-08-23T10:05:50.000Z</time>
      </trkpt>
      <trkpt lat="47.47611" lon="6.77251">
        <ele>311</ele>
        <time>2015-08-23T10:05:51.000Z</time>
      </trkpt>
      <trkpt lat="47.47606" lon="6.77246">
        <ele>311</ele>
        <time>2015-08-23T10:05:52.000Z</time>
      </trkpt>
      <trkpt lat="47.47601" lon="6.77241">
        <ele>311</ele>
        <time>2015-08-23T10:05:53.000Z</time>
      </trkpt>
      <trkpt lat="47.47596" lon="6.77237">
        <ele>311</ele>
        <time>2015-08-23T10:05:54.000Z</time>
      </trkpt>
      <trkpt lat="47.47591" lon="6.77233">
        <ele>311</ele>
        <time>2015-08-23T10:05:55.000Z</time>
      </trkpt>
      <trkpt lat="47.47586" lon="6.77229">
        <ele>311</ele>
        <time>2015-08-23T10:05:56.000Z</time>
      </trkpt>
      <trkpt lat="47.47581" lon="6.77224">
        <ele>311</ele>
        <time>2015-08-23T10:05:57.000Z</time>
      </trkpt>
      <trkpt lat="47.47576" lon="6.77221">
        <ele>311</ele>
        <time>2015-08-23T10:05:58.000Z</time>
      </trkpt>
      <trkpt lat="47.47571" lon="6.77217">
        <ele>311</ele>
        <time>2015-08-23T10:05:59.000Z</time>
      </trkpt>
      <trkpt lat="47.47566" lon="6.77212">
        <ele>311</ele>
        <time>2015-08-23T10:06:00.000Z</time>
      </trkpt>
      <trkpt lat="47.47563" lon="6.7721">
        <ele>311</ele>
        <time>2015-08-23T10:06:01.000Z</time>
      </trkpt>
      <trkpt lat="47.47557" lon="6.77206">
        <ele>310</ele>
        <time>2015-08-23T10:06:02.000Z</time>
      </trkpt>
      <trkpt lat="47.47553" lon="6.77202">
        <ele>310</ele>
        <time>2015-08-23T10:06:03.000Z</time>
      </trkpt>
      <trkpt lat="47.47548" lon="6.77198">
        <ele>310</ele>
        <time>2015-08-23T10:06:04.000Z</time>
      </trkpt>
      <trkpt lat="47.47542" lon="6.77196">
        <ele>310</ele>
        <time>2015-08-23T10:06:05.000Z</time>
      </trkpt>
      <trkpt lat="47.47539" lon="6.77193">
        <ele>310</ele>
        <time>2015-08-23T10:06:06.000Z</time>
      </trkpt>
      <trkpt lat="47.47534" lon="6.77191">
        <ele>310</ele>
        <time>2015-08-23T10:06:07.000Z</time>
      </trkpt>
      <trkpt lat="47.47529" lon="6.7719">
        <ele>310</ele>
        <time>2015-08-23T10:06:08.000Z</time>
      </trkpt>
      <trkpt lat="47.47524" lon="6.77189">
        <ele>310</ele>
        <time>2015-08-23T10:06:09.000Z</time>
      </trkpt>
      <trkpt lat="47.47521" lon="6.77186">
        <ele>310</ele>
        <time>2015-08-23T10:06:10.000Z</time>
      </trkpt>
      <trkpt lat="47.47522" lon="6.77178">
        <ele>310</ele>
        <time>2015-08-23T10:06:11.000Z</time>
      </trkpt>
      <trkpt lat="47.47522" lon="6.77171">
        <ele>310</ele>
        <time>2015-08-23T10:06:12.000Z</time>
      </trkpt>
      <trkpt lat="47.47522" lon="6.77165">
        <ele>310</ele>
        <time>2015-08-23T10:06:13.000Z</time>
      </trkpt>
      <trkpt lat="47.47522" lon="6.77158">
        <ele>310</ele>
        <time>2015-08-23T10:06:14.000Z</time>
      </trkpt>
      <trkpt lat="47.47523" lon="6.7715">
        <ele>310</ele>
        <time>2015-08-23T10:06:15.000Z</time>
      </trkpt>
      <trkpt lat="47.47525" lon="6.77142">
        <ele>310</ele>
        <time>2015-08-23T10:06:16.000Z</time>
      </trkpt>
      <trkpt lat="47.47532" lon="6.77141">
        <ele>310</ele>
        <time>2015-08-23T10:06:17.000Z</time>
      </trkpt>
      <trkpt lat="47.47537" lon="6.77141">
        <ele>310</ele>
        <time>2015-08-23T10:06:18.000Z</time>
      </trkpt>
      <trkpt lat="47.47541" lon="6.77147">
        <ele>310</ele>
        <time>2015-08-23T10:06:19.000Z</time>
      </trkpt>
      <trkpt lat="47.47546" lon="6.77148">
        <ele>310</ele>
        <time>2015-08-23T10:06:20.000Z</time>
      </trkpt>
      <trkpt lat="47.47551" lon="6.77152">
        <ele>310</ele>
        <time>2015-08-23T10:06:21.000Z</time>
      </trkpt>
      <trkpt lat="47.47555" lon="6.77156">
        <ele>310</ele>
        <time>2015-08-23T10:06:22.000Z</time>
      </trkpt>
      <trkpt lat="47.47561" lon="6.77158">
        <ele>310</ele>
        <time>2015-08-23T10:06:23.000Z</time>
      </trkpt>
      <trkpt lat="47.47565" lon="6.77162">
        <ele>309</ele>
        <time>2015-08-23T10:06:24.000Z</time>
      </trkpt>
      <trkpt lat="47.47569" lon="6.77164">
        <ele>309</ele>
        <time>2015-08-23T10:06:25.000Z</time>
      </trkpt>
      <trkpt lat="47.47573" lon="6.77167">
        <ele>309</ele>
        <time>2015-08-23T10:06:26.000Z</time>
      </trkpt>
      <trkpt lat="47.47577" lon="6.77171">
        <ele>309</ele>
        <time>2015-08-23T10:06:27.000Z</time>
      </trkpt>
      <trkpt lat="47.47581" lon="6.77173">
        <ele>309</ele>
        <time>2015-08-23T10:06:28.000Z</time>
      </trkpt>
      <trkpt lat="47.47585" lon="6.77176">
        <ele>309</ele>
        <time>2015-08-23T10:06:29.000Z</time>
      </trkpt>
      <trkpt lat="47.47588" lon="6.77179">
        <ele>309</ele>
        <time>2015-08-23T10:06:30.000Z</time>
      </trkpt>
      <trkpt lat="47.47593" lon="6.77182">
        <ele>310</ele>
        <time>2015-08-23T10:06:31.000Z</time>
      </trkpt>
      <trkpt lat="47.47598" lon="6.77185">
        <ele>310</ele>
        <time>2015-08-23T10:06:32.000Z</time>
      </trkpt>
      <trkpt lat="47.47603" lon="6.77188">
        <ele>310</ele>
        <time>2015-08-23T10:06:33.000Z</time>
      </trkpt>
      <trkpt lat="47.47608" lon="6.77189">
        <ele>310</ele>
        <time>2015-08-23T10:06:34.000Z</time>
      </trkpt>
      <trkpt lat="47.47613" lon="6.77185">
        <ele>310</ele>
        <time>2015-08-23T10:06:35.000Z</time>
      </trkpt>
      <trkpt lat="47.47618" lon="6.77179">
        <ele>310</ele>
        <time>2015-08-23T10:06:36.000Z</time>
      </trkpt>
      <trkpt lat="47.47622" lon="6.77173">
        <ele>310</ele>
        <time>2015-08-23T10:06:37.000Z</time>
      </trkpt>
      <trkpt lat="47.47624" lon="6.77166">
        <ele>310</ele>
        <time>2015-08-23T10:06:38.000Z</time>
      </trkpt>
      <trkpt lat="47.47626" lon="6.7716">
        <ele>310</ele>
        <time>2015-08-23T10:06:39.000Z</time>
      </trkpt>
      <trkpt lat="47.47629" lon="6.77155">
        <ele>310</ele>
        <time>2015-08-23T10:06:40.000Z</time>
      </trkpt>
      <trkpt lat="47.4763" lon="6.7715">
        <ele>310</ele>
        <time>2015-08-23T10:06:41.000Z</time>
      </trkpt>
      <trkpt lat="47.47633" lon="6.77146">
        <ele>310</ele>
        <time>2015-08-23T10:06:42.000Z</time>
      </trkpt>
      <trkpt lat="47.47635" lon="6.7714">
        <ele>310</ele>
        <time>2015-08-23T10:06:43.000Z</time>
      </trkpt>
      <trkpt lat="47.47636" lon="6.77134">
        <ele>310</ele>
        <time>2015-08-23T10:06:44.000Z</time>
      </trkpt>
      <trkpt lat="47.47637" lon="6.77128">
        <ele>310</ele>
        <time>2015-08-23T10:06:45.000Z</time>
      </trkpt>
      <trkpt lat="47.47638" lon="6.77123">
        <ele>310</ele>
        <time>2015-08-23T10:06:46.000Z</time>
      </trkpt>
      <trkpt lat="47.47639" lon="6.7712">
        <ele>310</ele>
        <time>2015-08-23T10:06:47.000Z</time>
      </trkpt>
      <trkpt lat="47.4764" lon="6.77114">
        <ele>310</ele>
        <time>2015-08-23T10:06:48.000Z</time>
      </trkpt>
      <trkpt lat="47.47641" lon="6.7711">
        <ele>310</ele>
        <time>2015-08-23T10:06:49.000Z</time>
      </trkpt>
      <trkpt lat="47.47641" lon="6.77106">
        <ele>310</ele>
        <time>2015-08-23T10:06:50.000Z</time>
      </trkpt>
      <trkpt lat="47.47642" lon="6.77102">
        <ele>310</ele>
        <time>2015-08-23T10:06:51.000Z</time>
      </trkpt>
      <trkpt lat="47.47642" lon="6.77098">
        <ele>311</ele>
        <time>2015-08-23T10:06:52.000Z</time>
      </trkpt>
      <trkpt lat="47.47643" lon="6.77094">
        <ele>311</ele>
        <time>2015-08-23T10:06:53.000Z</time>
      </trkpt>
      <trkpt lat="47.47644" lon="6.7709">
        <ele>311</ele>
        <time>2015-08-23T10:06:54.000Z</time>
      </trkpt>
      <trkpt lat="47.47645" lon="6.77086">
        <ele>311</ele>
        <time>2015-08-23T10:06:55.000Z</time>
      </trkpt>
      <trkpt lat="47.47646" lon="6.77081">
        <ele>311</ele>
        <time>2015-08-23T10:06:56.000Z</time>
      </trkpt>
      <trkpt lat="47.47647" lon="6.77075">
        <ele>311</ele>
        <time>2015-08-23T10:06:57.000Z</time>
      </trkpt>
      <trkpt lat="47.47648" lon="6.77069">
        <ele>311</ele>
        <time>2015-08-23T10:06:58.000Z</time>
      </trkpt>
      <trkpt lat="47.47649" lon="6.77063">
        <ele>311</ele>
        <time>2015-08-23T10:06:59.000Z</time>
      </trkpt>
      <trkpt lat="47.4765" lon="6.77049">
        <ele>311</ele>
        <time>2015-08-23T10:07:00.000Z</time>
      </trkpt>
      <trkpt lat="47.47651" lon="6.77041">
        <ele>311</ele>
        <time>2015-08-23T10:07:01.000Z</time>
      </trkpt>
      <trkpt lat="47.47652" lon="6.77032">
        <ele>311</ele>
        <time>2015-08-23T10:07:02.000Z</time>
      </trkpt>
      <trkpt lat="47.47653" lon="6.77023">
        <ele>311</ele>
        <time>2015-08-23T10:07:03.000Z</time>
      </trkpt>
      <trkpt lat="47.47655" lon="6.77013">
        <ele>311</ele>
        <time>2015-08-23T10:07:04.000Z</time>
      </trkpt>
      <trkpt lat="47.47657" lon="6.77003">
        <ele>311</ele>
        <time>2015-08-23T10:07:05.000Z</time>
      </trkpt>
      <trkpt lat="47.47661" lon="6.76994">
        <ele>311</ele>
        <time>2015-08-23T10:07:06.000Z</time>
      </trkpt>
      <trkpt lat="47.47664" lon="6.76984">
        <ele>311</ele>
        <time>2015-08-23T10:07:07.000Z</time>
      </trkpt>
      <trkpt lat="47.47668" lon="6.76974">
        <ele>311</ele>
        <time>2015-08-23T10:07:08.000Z</time>
      </trkpt>
      <trkpt lat="47.47673" lon="6.76962">
        <ele>311</ele>
        <time>2015-08-23T10:07:09.000Z</time>
      </trkpt>
      <trkpt lat="47.47676" lon="6.76951">
        <ele>311</ele>
        <time>2015-08-23T10:07:10.000Z</time>
      </trkpt>
      <trkpt lat="47.4768" lon="6.7694">
        <ele>311</ele>
        <time>2015-08-23T10:07:11.000Z</time>
      </trkpt>
      <trkpt lat="47.47683" lon="6.76929">
        <ele>311</ele>
        <time>2015-08-23T10:07:12.000Z</time>
      </trkpt>
      <trkpt lat="47.47687" lon="6.76919">
        <ele>311</ele>
        <time>2015-08-23T10:07:13.000Z</time>
      </trkpt>
      <trkpt lat="47.47689" lon="6.76909">
        <ele>311</ele>
        <time>2015-08-23T10:07:14.000Z</time>
      </trkpt>
      <trkpt lat="47.47693" lon="6.769">
        <ele>311</ele>
        <time>2015-08-23T10:07:15.000Z</time>
      </trkpt>
      <trkpt lat="47.47696" lon="6.7689">
        <ele>311</ele>
        <time>2015-08-23T10:07:16.000Z</time>
      </trkpt>
      <trkpt lat="47.47699" lon="6.76881">
        <ele>311</ele>
        <time>2015-08-23T10:07:17.000Z</time>
      </trkpt>
      <trkpt lat="47.47702" lon="6.76872">
        <ele>311</ele>
        <time>2015-08-23T10:07:18.000Z</time>
      </trkpt>
      <trkpt lat="47.47705" lon="6.76864">
        <ele>311</ele>
        <time>2015-08-23T10:07:19.000Z</time>
      </trkpt>
      <trkpt lat="47.47708" lon="6.76856">
        <ele>311</ele>
        <time>2015-08-23T10:07:20.000Z</time>
      </trkpt>
      <trkpt lat="47.47711" lon="6.76849">
        <ele>311</ele>
        <time>2015-08-23T10:07:21.000Z</time>
      </trkpt>
      <trkpt lat="47.47713" lon="6.7684">
        <ele>311</ele>
        <time>2015-08-23T10:07:22.000Z</time>
      </trkpt>
      <trkpt lat="47.47716" lon="6.76833">
        <ele>311</ele>
        <time>2015-08-23T10:07:23.000Z</time>
      </trkpt>
      <trkpt lat="47.4772" lon="6.76825">
        <ele>311</ele>
        <time>2015-08-23T10:07:24.000Z</time>
      </trkpt>
      <trkpt lat="47.47723" lon="6.76819">
        <ele>311</ele>
        <time>2015-08-23T10:07:25.000Z</time>
      </trkpt>
      <trkpt lat="47.47727" lon="6.76812">
        <ele>311</ele>
        <time>2015-08-23T10:07:26.000Z</time>
      </trkpt>
      <trkpt lat="47.4773" lon="6.76807">
        <ele>311</ele>
        <time>2015-08-23T10:07:27.000Z</time>
      </trkpt>
      <trkpt lat="47.47733" lon="6.76802">
        <ele>311</ele>
        <time>2015-08-23T10:07:28.000Z</time>
      </trkpt>
      <trkpt lat="47.47738" lon="6.768">
        <ele>311</ele>
        <time>2015-08-23T10:07:29.000Z</time>
      </trkpt>
      <trkpt lat="47.47741" lon="6.76799">
        <ele>311</ele>
        <time>2015-08-23T10:07:30.000Z</time>
      </trkpt>
      <trkpt lat="47.47744" lon="6.76799">
        <ele>311</ele>
        <time>2015-08-23T10:07:31.000Z</time>
      </trkpt>
      <trkpt lat="47.47748" lon="6.76799">
        <ele>311</ele>
        <time>2015-08-23T10:07:32.000Z</time>
      </trkpt>
      <trkpt lat="47.47751" lon="6.76799">
        <ele>311</ele>
        <time>2015-08-23T10:07:33.000Z</time>
      </trkpt>
      <trkpt lat="47.47755" lon="6.76799">
        <ele>311</ele>
        <time>2015-08-23T10:07:34.000Z</time>
      </trkpt>
      <trkpt lat="47.47759" lon="6.76799">
        <ele>311</ele>
        <time>2015-08-23T10:07:35.000Z</time>
      </trkpt>
      <trkpt lat="47.47764" lon="6.768">
        <ele>311</ele>
        <time>2015-08-23T10:07:36.000Z</time>
      </trkpt>
      <trkpt lat="47.47769" lon="6.768">
        <ele>311</ele>
        <time>2015-08-23T10:07:37.000Z</time>
      </trkpt>
      <trkpt lat="47.47774" lon="6.76804">
        <ele>311</ele>
        <time>2015-08-23T10:07:38.000Z</time>
      </trkpt>
      <trkpt lat="47.47779" lon="6.76806">
        <ele>311</ele>
        <time>2015-08-23T10:07:39.000Z</time>
      </trkpt>
      <trkpt lat="47.47785" lon="6.76808">
        <ele>311</ele>
        <time>2015-08-23T10:07:40.000Z</time>
      </trkpt>
      <trkpt lat="47.47791" lon="6.76811">
        <ele>311</ele>
        <time>2015-08-23T10:07:41.000Z</time>
      </trkpt>
      <trkpt lat="47.47798" lon="6.76813">
        <ele>310</ele>
        <time>2015-08-23T10:07:42.000Z</time>
      </trkpt>
      <trkpt lat="47.47803" lon="6.76815">
        <ele>310</ele>
        <time>2015-08-23T10:07:43.000Z</time>
      </trkpt>
      <trkpt lat="47.47808" lon="6.76816">
        <ele>310</ele>
        <time>2015-08-23T10:07:44.000Z</time>
      </trkpt>
      <trkpt lat="47.47814" lon="6.76818">
        <ele>310</ele>
        <time>2015-08-23T10:07:45.000Z</time>
      </trkpt>
      <trkpt lat="47.4782" lon="6.7682">
        <ele>310</ele>
        <time>2015-08-23T10:07:46.000Z</time>
      </trkpt>
      <trkpt lat="47.47825" lon="6.76825">
        <ele>310</ele>
        <time>2015-08-23T10:07:47.000Z</time>
      </trkpt>
      <trkpt lat="47.47829" lon="6.76824">
        <ele>310</ele>
        <time>2015-08-23T10:07:48.000Z</time>
      </trkpt>
      <trkpt lat="47.47832" lon="6.76818">
        <ele>310</ele>
        <time>2015-08-23T10:07:49.000Z</time>
      </trkpt>
      <trkpt lat="47.47836" lon="6.76807">
        <ele>311</ele>
        <time>2015-08-23T10:07:50.000Z</time>
      </trkpt>
      <trkpt lat="47.47842" lon="6.76795">
        <ele>311</ele>
        <time>2015-08-23T10:07:51.000Z</time>
      </trkpt>
      <trkpt lat="47.47847" lon="6.76784">
        <ele>311</ele>
        <time>2015-08-23T10:07:52.000Z</time>
      </trkpt>
      <trkpt lat="47.47852" lon="6.76776">
        <ele>311</ele>
        <time>2015-08-23T10:07:53.000Z</time>
      </trkpt>
      <trkpt lat="47.47855" lon="6.76765">
        <ele>311</ele>
        <time>2015-08-23T10:07:54.000Z</time>
      </trkpt>
      <trkpt lat="47.47859" lon="6.76756">
        <ele>311</ele>
        <time>2015-08-23T10:07:55.000Z</time>
      </trkpt>
      <trkpt lat="47.47863" lon="6.76748">
        <ele>310</ele>
        <time>2015-08-23T10:07:56.000Z</time>
      </trkpt>
      <trkpt lat="47.47867" lon="6.7674">
        <ele>310</ele>
        <time>2015-08-23T10:07:57.000Z</time>
      </trkpt>
      <trkpt lat="47.4787" lon="6.7673">
        <ele>310</ele>
        <time>2015-08-23T10:07:58.000Z</time>
      </trkpt>
      <trkpt lat="47.47874" lon="6.76723">
        <ele>310</ele>
        <time>2015-08-23T10:07:59.000Z</time>
      </trkpt>
      <trkpt lat="47.47879" lon="6.76714">
        <ele>310</ele>
        <time>2015-08-23T10:08:00.000Z</time>
      </trkpt>
      <trkpt lat="47.47882" lon="6.76705">
        <ele>310</ele>
        <time>2015-08-23T10:08:01.000Z</time>
      </trkpt>
      <trkpt lat="47.47885" lon="6.76696">
        <ele>310</ele>
        <time>2015-08-23T10:08:02.000Z</time>
      </trkpt>
      <trkpt lat="47.47888" lon="6.76688">
        <ele>310</ele>
        <time>2015-08-23T10:08:03.000Z</time>
      </trkpt>
      <trkpt lat="47.47893" lon="6.76681">
        <ele>310</ele>
        <time>2015-08-23T10:08:04.000Z</time>
      </trkpt>
      <trkpt lat="47.47897" lon="6.76673">
        <ele>311</ele>
        <time>2015-08-23T10:08:05.000Z</time>
      </trkpt>
      <trkpt lat="47.47901" lon="6.76668">
        <ele>311</ele>
        <time>2015-08-23T10:08:06.000Z</time>
      </trkpt>
      <trkpt lat="47.47907" lon="6.76662">
        <ele>311</ele>
        <time>2015-08-23T10:08:07.000Z</time>
      </trkpt>
      <trkpt lat="47.47911" lon="6.76657">
        <ele>311</ele>
        <time>2015-08-23T10:08:08.000Z</time>
      </trkpt>
      <trkpt lat="47.47917" lon="6.76652">
        <ele>310</ele>
        <time>2015-08-23T10:08:09.000Z</time>
      </trkpt>
      <trkpt lat="47.47922" lon="6.7665">
        <ele>311</ele>
        <time>2015-08-23T10:08:10.000Z</time>
      </trkpt>
      <trkpt lat="47.47928" lon="6.76647">
        <ele>311</ele>
        <time>2015-08-23T10:08:11.000Z</time>
      </trkpt>
      <trkpt lat="47.47931" lon="6.76643">
        <ele>311</ele>
        <time>2015-08-23T10:08:12.000Z</time>
      </trkpt>
      <trkpt lat="47.47935" lon="6.76639">
        <ele>311</ele>
        <time>2015-08-23T10:08:13.000Z</time>
      </trkpt>
      <trkpt lat="47.47939" lon="6.76637">
        <ele>311</ele>
        <time>2015-08-23T10:08:14.000Z</time>
      </trkpt>
      <trkpt lat="47.47943" lon="6.76635">
        <ele>311</ele>
        <time>2015-08-23T10:08:15.000Z</time>
      </trkpt>
      <trkpt lat="47.47948" lon="6.76634">
        <ele>311</ele>
        <time>2015-08-23T10:08:16.000Z</time>
      </trkpt>
      <trkpt lat="47.47953" lon="6.76632">
        <ele>311</ele>
        <time>2015-08-23T10:08:17.000Z</time>
      </trkpt>
      <trkpt lat="47.47959" lon="6.76628">
        <ele>311</ele>
        <time>2015-08-23T10:08:18.000Z</time>
      </trkpt>
      <trkpt lat="47.47963" lon="6.76625">
        <ele>311</ele>
        <time>2015-08-23T10:08:19.000Z</time>
      </trkpt>
      <trkpt lat="47.47968" lon="6.76622">
        <ele>311</ele>
        <time>2015-08-23T10:08:20.000Z</time>
      </trkpt>
      <trkpt lat="47.47972" lon="6.7662">
        <ele>311</ele>
        <time>2015-08-23T10:08:21.000Z</time>
      </trkpt>
      <trkpt lat="47.47977" lon="6.76618">
        <ele>311</ele>
        <time>2015-08-23T10:08:22.000Z</time>
      </trkpt>
      <trkpt lat="47.47982" lon="6.76615">
        <ele>311</ele>
        <time>2015-08-23T10:08:23.000Z</time>
      </trkpt>
      <trkpt lat="47.47987" lon="6.76611">
        <ele>311</ele>
        <time>2015-08-23T10:08:24.000Z</time>
      </trkpt>
      <trkpt lat="47.47993" lon="6.76608">
        <ele>312</ele>
        <time>2015-08-23T10:08:25.000Z</time>
      </trkpt>
      <trkpt lat="47.47997" lon="6.76605">
        <ele>312</ele>
        <time>2015-08-23T10:08:26.000Z</time>
      </trkpt>
      <trkpt lat="47.48002" lon="6.76601">
        <ele>312</ele>
        <time>2015-08-23T10:08:27.000Z</time>
      </trkpt>
      <trkpt lat="47.48007" lon="6.76598">
        <ele>312</ele>
        <time>2015-08-23T10:08:28.000Z</time>
      </trkpt>
      <trkpt lat="47.48012" lon="6.76595">
        <ele>312</ele>
        <time>2015-08-23T10:08:29.000Z</time>
      </trkpt>
      <trkpt lat="47.48017" lon="6.76593">
        <ele>312</ele>
        <time>2015-08-23T10:08:30.000Z</time>
      </trkpt>
      <trkpt lat="47.48023" lon="6.7659">
        <ele>312</ele>
        <time>2015-08-23T10:08:31.000Z</time>
      </trkpt>
      <trkpt lat="47.48028" lon="6.76586">
        <ele>312</ele>
        <time>2015-08-23T10:08:32.000Z</time>
      </trkpt>
      <trkpt lat="47.48034" lon="6.76582">
        <ele>312</ele>
        <time>2015-08-23T10:08:33.000Z</time>
      </trkpt>
      <trkpt lat="47.48038" lon="6.76579">
        <ele>312</ele>
        <time>2015-08-23T10:08:34.000Z</time>
      </trkpt>
      <trkpt lat="47.48043" lon="6.76574">
        <ele>312</ele>
        <time>2015-08-23T10:08:35.000Z</time>
      </trkpt>
      <trkpt lat="47.48048" lon="6.76569">
        <ele>312</ele>
        <time>2015-08-23T10:08:36.000Z</time>
      </trkpt>
      <trkpt lat="47.48052" lon="6.76563">
        <ele>312</ele>
        <time>2015-08-23T10:08:37.000Z</time>
      </trkpt>
      <trkpt lat="47.48058" lon="6.76557">
        <ele>312</ele>
        <time>2015-08-23T10:08:38.000Z</time>
      </trkpt>
      <trkpt lat="47.48064" lon="6.76553">
        <ele>312</ele>
        <time>2015-08-23T10:08:39.000Z</time>
      </trkpt>
      <trkpt lat="47.48069" lon="6.76549">
        <ele>312</ele>
        <time>2015-08-23T10:08:40.000Z</time>
      </trkpt>
      <trkpt lat="47.48075" lon="6.76544">
        <ele>312</ele>
        <time>2015-08-23T10:08:41.000Z</time>
      </trkpt>
      <trkpt lat="47.4808" lon="6.76539">
        <ele>312</ele>
        <time>2015-08-23T10:08:42.000Z</time>
      </trkpt>
      <trkpt lat="47.48085" lon="6.76534">
        <ele>317</ele>
        <time>2015-08-23T10:08:43.000Z</time>
      </trkpt>
      <trkpt lat="47.4809" lon="6.76529">
        <ele>317</ele>
        <time>2015-08-23T10:08:44.000Z</time>
      </trkpt>
      <trkpt lat="47.48095" lon="6.76524">
        <ele>318</ele>
        <time>2015-08-23T10:08:45.000Z</time>
      </trkpt>
      <trkpt lat="47.48099" lon="6.7652">
        <ele>318</ele>
        <time>2015-08-23T10:08:46.000Z</time>
      </trkpt>
      <trkpt lat="47.48104" lon="6.76516">
        <ele>318</ele>
        <time>2015-08-23T10:08:47.000Z</time>
      </trkpt>
      <trkpt lat="47.48106" lon="6.76519">
        <ele>319</ele>
        <time>2015-08-23T10:08:48.000Z</time>
      </trkpt>
      <trkpt lat="47.48109" lon="6.76521">
        <ele>319</ele>
        <time>2015-08-23T10:08:49.000Z</time>
      </trkpt>
      <trkpt lat="47.48112" lon="6.76524">
        <ele>319</ele>
        <time>2015-08-23T10:08:50.000Z</time>
      </trkpt>
      <trkpt lat="47.48115" lon="6.7653">
        <ele>320</ele>
        <time>2015-08-23T10:08:51.000Z</time>
      </trkpt>
      <trkpt lat="47.48119" lon="6.76538">
        <ele>320</ele>
        <time>2015-08-23T10:08:52.000Z</time>
      </trkpt>
      <trkpt lat="47.48119" lon="6.76546">
        <ele>319</ele>
        <time>2015-08-23T10:08:53.000Z</time>
      </trkpt>
      <trkpt lat="47.48117" lon="6.76553">
        <ele>319</ele>
        <time>2015-08-23T10:08:54.000Z</time>
      </trkpt>
      <trkpt lat="47.48113" lon="6.76561">
        <ele>318</ele>
        <time>2015-08-23T10:08:55.000Z</time>
      </trkpt>
      <trkpt lat="47.4811" lon="6.76569">
        <ele>317</ele>
        <time>2015-08-23T10:08:56.000Z</time>
      </trkpt>
      <trkpt lat="47.48106" lon="6.76577">
        <ele>317</ele>
        <time>2015-08-23T10:08:57.000Z</time>
      </trkpt>
      <trkpt lat="47.48103" lon="6.76584">
        <ele>313</ele>
        <time>2015-08-23T10:08:58.000Z</time>
      </trkpt>
      <trkpt lat="47.481" lon="6.76595">
        <ele>313</ele>
        <time>2015-08-23T10:08:59.000Z</time>
      </trkpt>
      <trkpt lat="47.48098" lon="6.76602">
        <ele>313</ele>
        <time>2015-08-23T10:09:00.000Z</time>
      </trkpt>
      <trkpt lat="47.48097" lon="6.76611">
        <ele>313</ele>
        <time>2015-08-23T10:09:01.000Z</time>
      </trkpt>
      <trkpt lat="47.48094" lon="6.7662">
        <ele>313</ele>
        <time>2015-08-23T10:09:02.000Z</time>
      </trkpt>
      <trkpt lat="47.48098" lon="6.76628">
        <ele>313</ele>
        <time>2015-08-23T10:09:03.000Z</time>
      </trkpt>
      <trkpt lat="47.481" lon="6.76636">
        <ele>313</ele>
        <time>2015-08-23T10:09:04.000Z</time>
      </trkpt>
      <trkpt lat="47.48103" lon="6.76643">
        <ele>312</ele>
        <time>2015-08-23T10:09:05.000Z</time>
      </trkpt>
      <trkpt lat="47.48107" lon="6.7665">
        <ele>312</ele>
        <time>2015-08-23T10:09:06.000Z</time>
      </trkpt>
      <trkpt lat="47.48112" lon="6.76658">
        <ele>312</ele>
        <time>2015-08-23T10:09:07.000Z</time>
      </trkpt>
      <trkpt lat="47.48115" lon="6.76665">
        <ele>312</ele>
        <time>2015-08-23T10:09:08.000Z</time>
      </trkpt>
      <trkpt lat="47.4812" lon="6.76671">
        <ele>312</ele>
        <time>2015-08-23T10:09:09.000Z</time>
      </trkpt>
      <trkpt lat="47.48124" lon="6.76677">
        <ele>312</ele>
        <time>2015-08-23T10:09:10.000Z</time>
      </trkpt>
      <trkpt lat="47.48128" lon="6.76683">
        <ele>312</ele>
        <time>2015-08-23T10:09:11.000Z</time>
      </trkpt>
      <trkpt lat="47.48131" lon="6.76688">
        <ele>312</ele>
        <time>2015-08-23T10:09:12.000Z</time>
      </trkpt>
      <trkpt lat="47.48135" lon="6.76693">
        <ele>312</ele>
        <time>2015-08-23T10:09:13.000Z</time>
      </trkpt>
      <trkpt lat="47.48137" lon="6.76698">
        <ele>312</ele>
        <time>2015-08-23T10:09:14.000Z</time>
      </trkpt>
      <trkpt lat="47.4814" lon="6.76703">
        <ele>312</ele>
        <time>2015-08-23T10:09:15.000Z</time>
      </trkpt>
      <trkpt lat="47.48142" lon="6.76707">
        <ele>312</ele>
        <time>2015-08-23T10:09:16.000Z</time>
      </trkpt>
      <trkpt lat="47.48143" lon="6.7671">
        <ele>312</ele>
        <time>2015-08-23T10:09:17.000Z</time>
      </trkpt>
      <trkpt lat="47.48145" lon="6.76716">
        <ele>312</ele>
        <time>2015-08-23T10:09:19.000Z</time>
      </trkpt>
      <trkpt lat="47.48147" lon="6.76718">
        <ele>312</ele>
        <time>2015-08-23T10:09:20.000Z</time>
      </trkpt>
      <trkpt lat="47.48148" lon="6.76721">
        <ele>312</ele>
        <time>2015-08-23T10:09:21.000Z</time>
      </trkpt>
      <trkpt lat="47.4815" lon="6.76725">
        <ele>312</ele>
        <time>2015-08-23T10:09:22.000Z</time>
      </trkpt>
      <trkpt lat="47.48151" lon="6.76728">
        <ele>312</ele>
        <time>2015-08-23T10:09:23.000Z</time>
      </trkpt>
      <trkpt lat="47.48153" lon="6.76732">
        <ele>312</ele>
        <time>2015-08-23T10:09:24.000Z</time>
      </trkpt>
      <trkpt lat="47.48154" lon="6.76737">
        <ele>312</ele>
        <time>2015-08-23T10:09:25.000Z</time>
      </trkpt>
      <trkpt lat="47.48157" lon="6.76742">
        <ele>313</ele>
        <time>2015-08-23T10:09:26.000Z</time>
      </trkpt>
      <trkpt lat="47.4816" lon="6.76749">
        <ele>313</ele>
        <time>2015-08-23T10:09:27.000Z</time>
      </trkpt>
      <trkpt lat="47.48165" lon="6.76755">
        <ele>313</ele>
        <time>2015-08-23T10:09:28.000Z</time>
      </trkpt>
      <trkpt lat="47.48169" lon="6.76761">
        <ele>313</ele>
        <time>2015-08-23T10:09:29.000Z</time>
      </trkpt>
      <trkpt lat="47.48173" lon="6.76767">
        <ele>312</ele>
        <time>2015-08-23T10:09:30.000Z</time>
      </trkpt>
      <trkpt lat="47.48179" lon="6.76773">
        <ele>312</ele>
        <time>2015-08-23T10:09:31.000Z</time>
      </trkpt>
      <trkpt lat="47.48185" lon="6.76779">
        <ele>312</ele>
        <time>2015-08-23T10:09:32.000Z</time>
      </trkpt>
      <trkpt lat="47.48192" lon="6.76783">
        <ele>312</ele>
        <time>2015-08-23T10:09:33.000Z</time>
      </trkpt>
      <trkpt lat="47.48199" lon="6.76787">
        <ele>312</ele>
        <time>2015-08-23T10:09:34.000Z</time>
      </trkpt>
      <trkpt lat="47.48206" lon="6.7679">
        <ele>312</ele>
        <time>2015-08-23T10:09:35.000Z</time>
      </trkpt>
      <trkpt lat="47.48213" lon="6.76793">
        <ele>312</ele>
        <time>2015-08-23T10:09:36.000Z</time>
      </trkpt>
      <trkpt lat="47.4822" lon="6.76795">
        <ele>312</ele>
        <time>2015-08-23T10:09:37.000Z</time>
      </trkpt>
      <trkpt lat="47.48227" lon="6.76799">
        <ele>312</ele>
        <time>2015-08-23T10:09:38.000Z</time>
      </trkpt>
      <trkpt lat="47.48234" lon="6.76804">
        <ele>312</ele>
        <time>2015-08-23T10:09:39.000Z</time>
      </trkpt>
      <trkpt lat="47.4824" lon="6.76808">
        <ele>312</ele>
        <time>2015-08-23T10:09:40.000Z</time>
      </trkpt>
      <trkpt lat="47.48246" lon="6.76814">
        <ele>312</ele>
        <time>2015-08-23T10:09:41.000Z</time>
      </trkpt>
      <trkpt lat="47.48251" lon="6.76821">
        <ele>312</ele>
        <time>2015-08-23T10:09:42.000Z</time>
      </trkpt>
      <trkpt lat="47.48257" lon="6.76828">
        <ele>312</ele>
        <time>2015-08-23T10:09:43.000Z</time>
      </trkpt>
      <trkpt lat="47.48262" lon="6.76834">
        <ele>311</ele>
        <time>2015-08-23T10:09:44.000Z</time>
      </trkpt>
      <trkpt lat="47.48267" lon="6.76842">
        <ele>311</ele>
        <time>2015-08-23T10:09:45.000Z</time>
      </trkpt>
      <trkpt lat="47.48272" lon="6.76849">
        <ele>311</ele>
        <time>2015-08-23T10:09:46.000Z</time>
      </trkpt>
      <trkpt lat="47.48276" lon="6.76856">
        <ele>310</ele>
        <time>2015-08-23T10:09:47.000Z</time>
      </trkpt>
      <trkpt lat="47.48281" lon="6.76862">
        <ele>310</ele>
        <time>2015-08-23T10:09:48.000Z</time>
      </trkpt>
      <trkpt lat="47.48285" lon="6.76868">
        <ele>310</ele>
        <time>2015-08-23T10:09:49.000Z</time>
      </trkpt>
      <trkpt lat="47.4829" lon="6.76874">
        <ele>310</ele>
        <time>2015-08-23T10:09:50.000Z</time>
      </trkpt>
      <trkpt lat="47.48295" lon="6.76879">
        <ele>310</ele>
        <time>2015-08-23T10:09:51.000Z</time>
      </trkpt>
      <trkpt lat="47.48299" lon="6.76885">
        <ele>310</ele>
        <time>2015-08-23T10:09:52.000Z</time>
      </trkpt>
      <trkpt lat="47.48304" lon="6.7689">
        <ele>310</ele>
        <time>2015-08-23T10:09:53.000Z</time>
      </trkpt>
      <trkpt lat="47.4831" lon="6.76895">
        <ele>310</ele>
        <time>2015-08-23T10:09:54.000Z</time>
      </trkpt>
      <trkpt lat="47.48314" lon="6.76898">
        <ele>310</ele>
        <time>2015-08-23T10:09:55.000Z</time>
      </trkpt>
      <trkpt lat="47.48319" lon="6.76902">
        <ele>310</ele>
        <time>2015-08-23T10:09:56.000Z</time>
      </trkpt>
      <trkpt lat="47.48325" lon="6.76907">
        <ele>310</ele>
        <time>2015-08-23T10:09:57.000Z</time>
      </trkpt>
      <trkpt lat="47.48331" lon="6.76912">
        <ele>309</ele>
        <time>2015-08-23T10:09:58.000Z</time>
      </trkpt>
      <trkpt lat="47.48337" lon="6.76915">
        <ele>309</ele>
        <time>2015-08-23T10:09:59.000Z</time>
      </trkpt>
      <trkpt lat="47.48342" lon="6.76919">
        <ele>310</ele>
        <time>2015-08-23T10:10:00.000Z</time>
      </trkpt>
      <trkpt lat="47.48348" lon="6.76922">
        <ele>310</ele>
        <time>2015-08-23T10:10:01.000Z</time>
      </trkpt>
      <trkpt lat="47.48354" lon="6.76926">
        <ele>311</ele>
        <time>2015-08-23T10:10:02.000Z</time>
      </trkpt>
      <trkpt lat="47.4836" lon="6.7693">
        <ele>311</ele>
        <time>2015-08-23T10:10:03.000Z</time>
      </trkpt>
      <trkpt lat="47.48365" lon="6.76933">
        <ele>311</ele>
        <time>2015-08-23T10:10:04.000Z</time>
      </trkpt>
      <trkpt lat="47.48371" lon="6.76938">
        <ele>312</ele>
        <time>2015-08-23T10:10:05.000Z</time>
      </trkpt>
      <trkpt lat="47.48377" lon="6.76941">
        <ele>312</ele>
        <time>2015-08-23T10:10:06.000Z</time>
      </trkpt>
      <trkpt lat="47.48382" lon="6.76944">
        <ele>312</ele>
        <time>2015-08-23T10:10:07.000Z</time>
      </trkpt>
      <trkpt lat="47.48388" lon="6.76947">
        <ele>312</ele>
        <time>2015-08-23T10:10:08.000Z</time>
      </trkpt>
      <trkpt lat="47.48394" lon="6.7695">
        <ele>312</ele>
        <time>2015-08-23T10:10:09.000Z</time>
      </trkpt>
      <trkpt lat="47.484" lon="6.76953">
        <ele>312</ele>
        <time>2015-08-23T10:10:10.000Z</time>
      </trkpt>
      <trkpt lat="47.48404" lon="6.76957">
        <ele>312</ele>
        <time>2015-08-23T10:10:11.000Z</time>
      </trkpt>
      <trkpt lat="47.4841" lon="6.7696">
        <ele>312</ele>
        <time>2015-08-23T10:10:12.000Z</time>
      </trkpt>
      <trkpt lat="47.48416" lon="6.76962">
        <ele>312</ele>
        <time>2015-08-23T10:10:13.000Z</time>
      </trkpt>
      <trkpt lat="47.48421" lon="6.76966">
        <ele>314</ele>
        <time>2015-08-23T10:10:14.000Z</time>
      </trkpt>
      <trkpt lat="47.48427" lon="6.76969">
        <ele>314</ele>
        <time>2015-08-23T10:10:15.000Z</time>
      </trkpt>
      <trkpt lat="47.48432" lon="6.76972">
        <ele>314</ele>
        <time>2015-08-23T10:10:16.000Z</time>
      </trkpt>
      <trkpt lat="47.48438" lon="6.76976">
        <ele>314</ele>
        <time>2015-08-23T10:10:17.000Z</time>
      </trkpt>
      <trkpt lat="47.48443" lon="6.7698">
        <ele>314</ele>
        <time>2015-08-23T10:10:18.000Z</time>
      </trkpt>
      <trkpt lat="47.48448" lon="6.76984">
        <ele>315</ele>
        <time>2015-08-23T10:10:19.000Z</time>
      </trkpt>
      <trkpt lat="47.48454" lon="6.76987">
        <ele>315</ele>
        <time>2015-08-23T10:10:20.000Z</time>
      </trkpt>
      <trkpt lat="47.48459" lon="6.76991">
        <ele>315</ele>
        <time>2015-08-23T10:10:21.000Z</time>
      </trkpt>
      <trkpt lat="47.48464" lon="6.76995">
        <ele>315</ele>
        <time>2015-08-23T10:10:22.000Z</time>
      </trkpt>
      <trkpt lat="47.4847" lon="6.76999">
        <ele>315</ele>
        <time>2015-08-23T10:10:23.000Z</time>
      </trkpt>
      <trkpt lat="47.48476" lon="6.77002">
        <ele>314</ele>
        <time>2015-08-23T10:10:24.000Z</time>
      </trkpt>
      <trkpt lat="47.48482" lon="6.77006">
        <ele>315</ele>
        <time>2015-08-23T10:10:25.000Z</time>
      </trkpt>
      <trkpt lat="47.48487" lon="6.77009">
        <ele>315</ele>
        <time>2015-08-23T10:10:26.000Z</time>
      </trkpt>
      <trkpt lat="47.48492" lon="6.77012">
        <ele>315</ele>
        <time>2015-08-23T10:10:27.000Z</time>
      </trkpt>
      <trkpt lat="47.48496" lon="6.77016">
        <ele>315</ele>
        <time>2015-08-23T10:10:28.000Z</time>
      </trkpt>
      <trkpt lat="47.48501" lon="6.7702">
        <ele>315</ele>
        <time>2015-08-23T10:10:29.000Z</time>
      </trkpt>
      <trkpt lat="47.48506" lon="6.77025">
        <ele>315</ele>
        <time>2015-08-23T10:10:30.000Z</time>
      </trkpt>
      <trkpt lat="47.48515" lon="6.77029">
        <ele>314</ele>
        <time>2015-08-23T10:10:31.000Z</time>
      </trkpt>
      <trkpt lat="47.4852" lon="6.77032">
        <ele>314</ele>
        <time>2015-08-23T10:10:32.000Z</time>
      </trkpt>
      <trkpt lat="47.48525" lon="6.77035">
        <ele>314</ele>
        <time>2015-08-23T10:10:33.000Z</time>
      </trkpt>
      <trkpt lat="47.4853" lon="6.77038">
        <ele>314</ele>
        <time>2015-08-23T10:10:34.000Z</time>
      </trkpt>
      <trkpt lat="47.48536" lon="6.77042">
        <ele>314</ele>
        <time>2015-08-23T10:10:35.000Z</time>
      </trkpt>
      <trkpt lat="47.48542" lon="6.77046">
        <ele>314</ele>
        <time>2015-08-23T10:10:36.000Z</time>
      </trkpt>
      <trkpt lat="47.48548" lon="6.77049">
        <ele>314</ele>
        <time>2015-08-23T10:10:37.000Z</time>
      </trkpt>
      <trkpt lat="47.48553" lon="6.77051">
        <ele>314</ele>
        <time>2015-08-23T10:10:38.000Z</time>
      </trkpt>
      <trkpt lat="47.48558" lon="6.77051">
        <ele>314</ele>
        <time>2015-08-23T10:10:39.000Z</time>
      </trkpt>
      <trkpt lat="47.48564" lon="6.77054">
        <ele>314</ele>
        <time>2015-08-23T10:10:40.000Z</time>
      </trkpt>
      <trkpt lat="47.48568" lon="6.77055">
        <ele>314</ele>
        <time>2015-08-23T10:10:41.000Z</time>
      </trkpt>
      <trkpt lat="47.48573" lon="6.77058">
        <ele>314</ele>
        <time>2015-08-23T10:10:42.000Z</time>
      </trkpt>
      <trkpt lat="47.48578" lon="6.77061">
        <ele>314</ele>
        <time>2015-08-23T10:10:43.000Z</time>
      </trkpt>
      <trkpt lat="47.48583" lon="6.77064">
        <ele>313</ele>
        <time>2015-08-23T10:10:44.000Z</time>
      </trkpt>
      <trkpt lat="47.48589" lon="6.77067">
        <ele>313</ele>
        <time>2015-08-23T10:10:45.000Z</time>
      </trkpt>
      <trkpt lat="47.48595" lon="6.7707">
        <ele>313</ele>
        <time>2015-08-23T10:10:46.000Z</time>
      </trkpt>
      <trkpt lat="47.48601" lon="6.77074">
        <ele>313</ele>
        <time>2015-08-23T10:10:47.000Z</time>
      </trkpt>
      <trkpt lat="47.48606" lon="6.77077">
        <ele>313</ele>
        <time>2015-08-23T10:10:48.000Z</time>
      </trkpt>
      <trkpt lat="47.48612" lon="6.77081">
        <ele>313</ele>
        <time>2015-08-23T10:10:49.000Z</time>
      </trkpt>
      <trkpt lat="47.48617" lon="6.77085">
        <ele>312</ele>
        <time>2015-08-23T10:10:50.000Z</time>
      </trkpt>
      <trkpt lat="47.48623" lon="6.7709">
        <ele>312</ele>
        <time>2015-08-23T10:10:51.000Z</time>
      </trkpt>
      <trkpt lat="47.48627" lon="6.77094">
        <ele>312</ele>
        <time>2015-08-23T10:10:52.000Z</time>
      </trkpt>
      <trkpt lat="47.48633" lon="6.77098">
        <ele>312</ele>
        <time>2015-08-23T10:10:53.000Z</time>
      </trkpt>
      <trkpt lat="47.48637" lon="6.77105">
        <ele>312</ele>
        <time>2015-08-23T10:10:54.000Z</time>
      </trkpt>
      <trkpt lat="47.48643" lon="6.7711">
        <ele>312</ele>
        <time>2015-08-23T10:10:55.000Z</time>
      </trkpt>
      <trkpt lat="47.48648" lon="6.77117">
        <ele>312</ele>
        <time>2015-08-23T10:10:56.000Z</time>
      </trkpt>
      <trkpt lat="47.48653" lon="6.77122">
        <ele>312</ele>
        <time>2015-08-23T10:10:57.000Z</time>
      </trkpt>
      <trkpt lat="47.48658" lon="6.77129">
        <ele>312</ele>
        <time>2015-08-23T10:10:58.000Z</time>
      </trkpt>
      <trkpt lat="47.48663" lon="6.77134">
        <ele>312</ele>
        <time>2015-08-23T10:10:59.000Z</time>
      </trkpt>
      <trkpt lat="47.48668" lon="6.7714">
        <ele>311</ele>
        <time>2015-08-23T10:11:00.000Z</time>
      </trkpt>
      <trkpt lat="47.48673" lon="6.77146">
        <ele>311</ele>
        <time>2015-08-23T10:11:01.000Z</time>
      </trkpt>
      <trkpt lat="47.48677" lon="6.77151">
        <ele>311</ele>
        <time>2015-08-23T10:11:02.000Z</time>
      </trkpt>
      <trkpt lat="47.48683" lon="6.77157">
        <ele>311</ele>
        <time>2015-08-23T10:11:03.000Z</time>
      </trkpt>
      <trkpt lat="47.48688" lon="6.77163">
        <ele>311</ele>
        <time>2015-08-23T10:11:04.000Z</time>
      </trkpt>
      <trkpt lat="47.48693" lon="6.77167">
        <ele>311</ele>
        <time>2015-08-23T10:11:05.000Z</time>
      </trkpt>
      <trkpt lat="47.48698" lon="6.77171">
        <ele>311</ele>
        <time>2015-08-23T10:11:06.000Z</time>
      </trkpt>
      <trkpt lat="47.48703" lon="6.77176">
        <ele>311</ele>
        <time>2015-08-23T10:11:07.000Z</time>
      </trkpt>
      <trkpt lat="47.48709" lon="6.77181">
        <ele>310</ele>
        <time>2015-08-23T10:11:08.000Z</time>
      </trkpt>
      <trkpt lat="47.48714" lon="6.77185">
        <ele>310</ele>
        <time>2015-08-23T10:11:09.000Z</time>
      </trkpt>
      <trkpt lat="47.4872" lon="6.77189">
        <ele>310</ele>
        <time>2015-08-23T10:11:10.000Z</time>
      </trkpt>
      <trkpt lat="47.48725" lon="6.77193">
        <ele>310</ele>
        <time>2015-08-23T10:11:11.000Z</time>
      </trkpt>
      <trkpt lat="47.48731" lon="6.77197">
        <ele>310</ele>
        <time>2015-08-23T10:11:12.000Z</time>
      </trkpt>
      <trkpt lat="47.48737" lon="6.77201">
        <ele>310</ele>
        <time>2015-08-23T10:11:13.000Z</time>
      </trkpt>
      <trkpt lat="47.48741" lon="6.77206">
        <ele>310</ele>
        <time>2015-08-23T10:11:14.000Z</time>
      </trkpt>
      <trkpt lat="47.48747" lon="6.7721">
        <ele>310</ele>
        <time>2015-08-23T10:11:15.000Z</time>
      </trkpt>
      <trkpt lat="47.48752" lon="6.77213">
        <ele>310</ele>
        <time>2015-08-23T10:11:16.000Z</time>
      </trkpt>
      <trkpt lat="47.48758" lon="6.77217">
        <ele>310</ele>
        <time>2015-08-23T10:11:17.000Z</time>
      </trkpt>
      <trkpt lat="47.48764" lon="6.77221">
        <ele>310</ele>
        <time>2015-08-23T10:11:18.000Z</time>
      </trkpt>
      <trkpt lat="47.48769" lon="6.77226">
        <ele>310</ele>
        <time>2015-08-23T10:11:19.000Z</time>
      </trkpt>
      <trkpt lat="47.48774" lon="6.77231">
        <ele>310</ele>
        <time>2015-08-23T10:11:20.000Z</time>
      </trkpt>
      <trkpt lat="47.48779" lon="6.77235">
        <ele>310</ele>
        <time>2015-08-23T10:11:21.000Z</time>
      </trkpt>
      <trkpt lat="47.48785" lon="6.77239">
        <ele>310</ele>
        <time>2015-08-23T10:11:22.000Z</time>
      </trkpt>
      <trkpt lat="47.48791" lon="6.77243">
        <ele>310</ele>
        <time>2015-08-23T10:11:23.000Z</time>
      </trkpt>
      <trkpt lat="47.48796" lon="6.77247">
        <ele>310</ele>
        <time>2015-08-23T10:11:24.000Z</time>
      </trkpt>
      <trkpt lat="47.48801" lon="6.77251">
        <ele>310</ele>
        <time>2015-08-23T10:11:25.000Z</time>
      </trkpt>
      <trkpt lat="47.48807" lon="6.77255">
        <ele>310</ele>
        <time>2015-08-23T10:11:26.000Z</time>
      </trkpt>
      <trkpt lat="47.48813" lon="6.7726">
        <ele>310</ele>
        <time>2015-08-23T10:11:27.000Z</time>
      </trkpt>
      <trkpt lat="47.48819" lon="6.77265">
        <ele>310</ele>
        <time>2015-08-23T10:11:28.000Z</time>
      </trkpt>
      <trkpt lat="47.48824" lon="6.77268">
        <ele>310</ele>
        <time>2015-08-23T10:11:29.000Z</time>
      </trkpt>
      <trkpt lat="47.48829" lon="6.77272">
        <ele>310</ele>
        <time>2015-08-23T10:11:30.000Z</time>
      </trkpt>
      <trkpt lat="47.48835" lon="6.77275">
        <ele>310</ele>
        <time>2015-08-23T10:11:31.000Z</time>
      </trkpt>
      <trkpt lat="47.48841" lon="6.77279">
        <ele>310</ele>
        <time>2015-08-23T10:11:32.000Z</time>
      </trkpt>
      <trkpt lat="47.48848" lon="6.77282">
        <ele>310</ele>
        <time>2015-08-23T10:11:33.000Z</time>
      </trkpt>
      <trkpt lat="47.48854" lon="6.77285">
        <ele>310</ele>
        <time>2015-08-23T10:11:34.000Z</time>
      </trkpt>
      <trkpt lat="47.48861" lon="6.77289">
        <ele>310</ele>
        <time>2015-08-23T10:11:35.000Z</time>
      </trkpt>
      <trkpt lat="47.48867" lon="6.77291">
        <ele>310</ele>
        <time>2015-08-23T10:11:36.000Z</time>
      </trkpt>
      <trkpt lat="47.48875" lon="6.77293">
        <ele>310</ele>
        <time>2015-08-23T10:11:37.000Z</time>
      </trkpt>
      <trkpt lat="47.4888" lon="6.77296">
        <ele>310</ele>
        <time>2015-08-23T10:11:38.000Z</time>
      </trkpt>
      <trkpt lat="47.48886" lon="6.77298">
        <ele>310</ele>
        <time>2015-08-23T10:11:39.000Z</time>
      </trkpt>
      <trkpt lat="47.48892" lon="6.77299">
        <ele>310</ele>
        <time>2015-08-23T10:11:40.000Z</time>
      </trkpt>
      <trkpt lat="47.48899" lon="6.77302">
        <ele>310</ele>
        <time>2015-08-23T10:11:41.000Z</time>
      </trkpt>
      <trkpt lat="47.48905" lon="6.77304">
        <ele>310</ele>
        <time>2015-08-23T10:11:42.000Z</time>
      </trkpt>
      <trkpt lat="47.48911" lon="6.77307">
        <ele>310</ele>
        <time>2015-08-23T10:11:43.000Z</time>
      </trkpt>
      <trkpt lat="47.48916" lon="6.77308">
        <ele>310</ele>
        <time>2015-08-23T10:11:44.000Z</time>
      </trkpt>
      <trkpt lat="47.48922" lon="6.77311">
        <ele>310</ele>
        <time>2015-08-23T10:11:45.000Z</time>
      </trkpt>
      <trkpt lat="47.48928" lon="6.77312">
        <ele>310</ele>
        <time>2015-08-23T10:11:46.000Z</time>
      </trkpt>
      <trkpt lat="47.48933" lon="6.77314">
        <ele>311</ele>
        <time>2015-08-23T10:11:47.000Z</time>
      </trkpt>
      <trkpt lat="47.48938" lon="6.77318">
        <ele>311</ele>
        <time>2015-08-23T10:11:48.000Z</time>
      </trkpt>
      <trkpt lat="47.48945" lon="6.77321">
        <ele>311</ele>
        <time>2015-08-23T10:11:49.000Z</time>
      </trkpt>
      <trkpt lat="47.48951" lon="6.77324">
        <ele>311</ele>
        <time>2015-08-23T10:11:50.000Z</time>
      </trkpt>
      <trkpt lat="47.48956" lon="6.77326">
        <ele>311</ele>
        <time>2015-08-23T10:11:51.000Z</time>
      </trkpt>
      <trkpt lat="47.48962" lon="6.77327">
        <ele>311</ele>
        <time>2015-08-23T10:11:52.000Z</time>
      </trkpt>
      <trkpt lat="47.48968" lon="6.77328">
        <ele>311</ele>
        <time>2015-08-23T10:11:53.000Z</time>
      </trkpt>
      <trkpt lat="47.48974" lon="6.77329">
        <ele>311</ele>
        <time>2015-08-23T10:11:54.000Z</time>
      </trkpt>
      <trkpt lat="47.4898" lon="6.77328">
        <ele>311</ele>
        <time>2015-08-23T10:11:55.000Z</time>
      </trkpt>
      <trkpt lat="47.48985" lon="6.77328">
        <ele>311</ele>
        <time>2015-08-23T10:11:56.000Z</time>
      </trkpt>
      <trkpt lat="47.4899" lon="6.77328">
        <ele>311</ele>
        <time>2015-08-23T10:11:57.000Z</time>
      </trkpt>
      <trkpt lat="47.48996" lon="6.77329">
        <ele>311</ele>
        <time>2015-08-23T10:11:58.000Z</time>
      </trkpt>
      <trkpt lat="47.49003" lon="6.7733">
        <ele>311</ele>
        <time>2015-08-23T10:11:59.000Z</time>
      </trkpt>
      <trkpt lat="47.49009" lon="6.7733">
        <ele>311</ele>
        <time>2015-08-23T10:12:00.000Z</time>
      </trkpt>
      <trkpt lat="47.49015" lon="6.7733">
        <ele>311</ele>
        <time>2015-08-23T10:12:01.000Z</time>
      </trkpt>
      <trkpt lat="47.49021" lon="6.77332">
        <ele>311</ele>
        <time>2015-08-23T10:12:02.000Z</time>
      </trkpt>
      <trkpt lat="47.49027" lon="6.77332">
        <ele>311</ele>
        <time>2015-08-23T10:12:03.000Z</time>
      </trkpt>
      <trkpt lat="47.49032" lon="6.77332">
        <ele>311</ele>
        <time>2015-08-23T10:12:04.000Z</time>
      </trkpt>
      <trkpt lat="47.49038" lon="6.77334">
        <ele>311</ele>
        <time>2015-08-23T10:12:05.000Z</time>
      </trkpt>
      <trkpt lat="47.49044" lon="6.77336">
        <ele>311</ele>
        <time>2015-08-23T10:12:06.000Z</time>
      </trkpt>
      <trkpt lat="47.49051" lon="6.77336">
        <ele>311</ele>
        <time>2015-08-23T10:12:07.000Z</time>
      </trkpt>
      <trkpt lat="47.49056" lon="6.77334">
        <ele>311</ele>
        <time>2015-08-23T10:12:08.000Z</time>
      </trkpt>
      <trkpt lat="47.49063" lon="6.77334">
        <ele>311</ele>
        <time>2015-08-23T10:12:09.000Z</time>
      </trkpt>
      <trkpt lat="47.49069" lon="6.77336">
        <ele>311</ele>
        <time>2015-08-23T10:12:10.000Z</time>
      </trkpt>
      <trkpt lat="47.49076" lon="6.77336">
        <ele>311</ele>
        <time>2015-08-23T10:12:11.000Z</time>
      </trkpt>
      <trkpt lat="47.49084" lon="6.77334">
        <ele>311</ele>
        <time>2015-08-23T10:12:12.000Z</time>
      </trkpt>
      <trkpt lat="47.49091" lon="6.77334">
        <ele>311</ele>
        <time>2015-08-23T10:12:13.000Z</time>
      </trkpt>
      <trkpt lat="47.49097" lon="6.77335">
        <ele>310</ele>
        <time>2015-08-23T10:12:14.000Z</time>
      </trkpt>
      <trkpt lat="47.49103" lon="6.77336">
        <ele>310</ele>
        <time>2015-08-23T10:12:15.000Z</time>
      </trkpt>
      <trkpt lat="47.49109" lon="6.77337">
        <ele>310</ele>
        <time>2015-08-23T10:12:16.000Z</time>
      </trkpt>
      <trkpt lat="47.49117" lon="6.77338">
        <ele>310</ele>
        <time>2015-08-23T10:12:17.000Z</time>
      </trkpt>
      <trkpt lat="47.49124" lon="6.77338">
        <ele>310</ele>
        <time>2015-08-23T10:12:18.000Z</time>
      </trkpt>
      <trkpt lat="47.49131" lon="6.77338">
        <ele>310</ele>
        <time>2015-08-23T10:12:19.000Z</time>
      </trkpt>
      <trkpt lat="47.49137" lon="6.77338">
        <ele>310</ele>
        <time>2015-08-23T10:12:20.000Z</time>
      </trkpt>
      <trkpt lat="47.49144" lon="6.77338">
        <ele>310</ele>
        <time>2015-08-23T10:12:21.000Z</time>
      </trkpt>
      <trkpt lat="47.4915" lon="6.77339">
        <ele>310</ele>
        <time>2015-08-23T10:12:22.000Z</time>
      </trkpt>
      <trkpt lat="47.49156" lon="6.7734">
        <ele>310</ele>
        <time>2015-08-23T10:12:23.000Z</time>
      </trkpt>
      <trkpt lat="47.49162" lon="6.77341">
        <ele>310</ele>
        <time>2015-08-23T10:12:24.000Z</time>
      </trkpt>
      <trkpt lat="47.49169" lon="6.77342">
        <ele>310</ele>
        <time>2015-08-23T10:12:25.000Z</time>
      </trkpt>
      <trkpt lat="47.49176" lon="6.77343">
        <ele>310</ele>
        <time>2015-08-23T10:12:26.000Z</time>
      </trkpt>
      <trkpt lat="47.49182" lon="6.77343">
        <ele>309</ele>
        <time>2015-08-23T10:12:27.000Z</time>
      </trkpt>
      <trkpt lat="47.49188" lon="6.7734">
        <ele>309</ele>
        <time>2015-08-23T10:12:28.000Z</time>
      </trkpt>
      <trkpt lat="47.49195" lon="6.7734">
        <ele>309</ele>
        <time>2015-08-23T10:12:29.000Z</time>
      </trkpt>
      <trkpt lat="47.49202" lon="6.77342">
        <ele>309</ele>
        <time>2015-08-23T10:12:30.000Z</time>
      </trkpt>
      <trkpt lat="47.49207" lon="6.77344">
        <ele>309</ele>
        <time>2015-08-23T10:12:31.000Z</time>
      </trkpt>
      <trkpt lat="47.4921" lon="6.77344">
        <ele>309</ele>
        <time>2015-08-23T10:12:32.000Z</time>
      </trkpt>
      <trkpt lat="47.49212" lon="6.77342">
        <ele>309</ele>
        <time>2015-08-23T10:12:33.000Z</time>
      </trkpt>
      <trkpt lat="47.49212" lon="6.77338">
        <ele>309</ele>
        <time>2015-08-23T10:12:34.000Z</time>
      </trkpt>
      <trkpt lat="47.4921" lon="6.77336">
        <ele>309</ele>
        <time>2015-08-23T10:12:35.000Z</time>
      </trkpt>
      <trkpt lat="47.49207" lon="6.77335">
        <ele>309</ele>
        <time>2015-08-23T10:12:37.000Z</time>
      </trkpt>
      <trkpt lat="47.49205" lon="6.77335">
        <ele>309</ele>
        <time>2015-08-23T10:12:38.000Z</time>
      </trkpt>
      <trkpt lat="47.49201" lon="6.77335">
        <ele>309</ele>
        <time>2015-08-23T10:12:40.000Z</time>
      </trkpt>
      <trkpt lat="47.49199" lon="6.77335">
        <ele>309</ele>
        <time>2015-08-23T10:12:41.000Z</time>
      </trkpt>
      <trkpt lat="47.49195" lon="6.77335">
        <ele>309</ele>
        <time>2015-08-23T10:12:43.000Z</time>
      </trkpt>
      <trkpt lat="47.49193" lon="6.77335">
        <ele>309</ele>
        <time>2015-08-23T10:12:44.000Z</time>
      </trkpt>
      <trkpt lat="47.49194" lon="6.77332">
        <ele>310</ele>
        <time>2015-08-23T10:14:46.000Z</time>
      </trkpt>
      <trkpt lat="47.49198" lon="6.77334">
        <ele>309</ele>
        <time>2015-08-23T10:14:47.000Z</time>
      </trkpt>
      <trkpt lat="47.49202" lon="6.77336">
        <ele>309</ele>
        <time>2015-08-23T10:14:48.000Z</time>
      </trkpt>
      <trkpt lat="47.4921" lon="6.7734">
        <ele>309</ele>
        <time>2015-08-23T10:14:49.000Z</time>
      </trkpt>
      <trkpt lat="47.49213" lon="6.7734">
        <ele>309</ele>
        <time>2015-08-23T10:14:50.000Z</time>
      </trkpt>
      <trkpt lat="47.49218" lon="6.77339">
        <ele>309</ele>
        <time>2015-08-23T10:14:51.000Z</time>
      </trkpt>
      <trkpt lat="47.49222" lon="6.7734">
        <ele>309</ele>
        <time>2015-08-23T10:14:52.000Z</time>
      </trkpt>
      <trkpt lat="47.49228" lon="6.77341">
        <ele>309</ele>
        <time>2015-08-23T10:14:53.000Z</time>
      </trkpt>
      <trkpt lat="47.49233" lon="6.77342">
        <ele>309</ele>
        <time>2015-08-23T10:14:54.000Z</time>
      </trkpt>
      <trkpt lat="47.49238" lon="6.77342">
        <ele>310</ele>
        <time>2015-08-23T10:14:55.000Z</time>
      </trkpt>
      <trkpt lat="47.49243" lon="6.77339">
        <ele>310</ele>
        <time>2015-08-23T10:14:56.000Z</time>
      </trkpt>
      <trkpt lat="47.49249" lon="6.77336">
        <ele>310</ele>
        <time>2015-08-23T10:14:57.000Z</time>
      </trkpt>
      <trkpt lat="47.49254" lon="6.77333">
        <ele>310</ele>
        <time>2015-08-23T10:14:58.000Z</time>
      </trkpt>
      <trkpt lat="47.49259" lon="6.7733">
        <ele>310</ele>
        <time>2015-08-23T10:14:59.000Z</time>
      </trkpt>
      <trkpt lat="47.49266" lon="6.7733">
        <ele>310</ele>
        <time>2015-08-23T10:15:00.000Z</time>
      </trkpt>
      <trkpt lat="47.49272" lon="6.7733">
        <ele>310</ele>
        <time>2015-08-23T10:15:01.000Z</time>
      </trkpt>
      <trkpt lat="47.49279" lon="6.77331">
        <ele>310</ele>
        <time>2015-08-23T10:15:02.000Z</time>
      </trkpt>
      <trkpt lat="47.49286" lon="6.77332">
        <ele>310</ele>
        <time>2015-08-23T10:15:02.999Z</time>
      </trkpt>
      <trkpt lat="47.49294" lon="6.77332">
        <ele>310</ele>
        <time>2015-08-23T10:15:04.000Z</time>
      </trkpt>
      <trkpt lat="47.493" lon="6.77333">
        <ele>310</ele>
        <time>2015-08-23T10:15:05.000Z</time>
      </trkpt>
      <trkpt lat="47.49308" lon="6.77331">
        <ele>310</ele>
        <time>2015-08-23T10:15:06.000Z</time>
      </trkpt>
      <trkpt lat="47.49313" lon="6.77332">
        <ele>310</ele>
        <time>2015-08-23T10:15:07.000Z</time>
      </trkpt>
      <trkpt lat="47.49319" lon="6.77334">
        <ele>310</ele>
        <time>2015-08-23T10:15:08.000Z</time>
      </trkpt>
      <trkpt lat="47.49325" lon="6.77335">
        <ele>310</ele>
        <time>2015-08-23T10:15:09.000Z</time>
      </trkpt>
      <trkpt lat="47.49331" lon="6.77339">
        <ele>310</ele>
        <time>2015-08-23T10:15:10.000Z</time>
      </trkpt>
      <trkpt lat="47.49335" lon="6.77344">
        <ele>310</ele>
        <time>2015-08-23T10:15:11.000Z</time>
      </trkpt>
      <trkpt lat="47.49339" lon="6.77346">
        <ele>310</ele>
        <time>2015-08-23T10:15:12.000Z</time>
      </trkpt>
      <trkpt lat="47.49344" lon="6.77348">
        <ele>310</ele>
        <time>2015-08-23T10:15:13.000Z</time>
      </trkpt>
      <trkpt lat="47.49349" lon="6.77349">
        <ele>310</ele>
        <time>2015-08-23T10:15:14.000Z</time>
      </trkpt>
      <trkpt lat="47.49355" lon="6.7735">
        <ele>310</ele>
        <time>2015-08-23T10:15:14.999Z</time>
      </trkpt>
      <trkpt lat="47.49362" lon="6.77349">
        <ele>310</ele>
        <time>2015-08-23T10:15:16.000Z</time>
      </trkpt>
      <trkpt lat="47.49368" lon="6.77347">
        <ele>310</ele>
        <time>2015-08-23T10:15:17.000Z</time>
      </trkpt>
      <trkpt lat="47.49373" lon="6.77347">
        <ele>310</ele>
        <time>2015-08-23T10:15:18.000Z</time>
      </trkpt>
      <trkpt lat="47.49379" lon="6.77347">
        <ele>310</ele>
        <time>2015-08-23T10:15:19.000Z</time>
      </trkpt>
      <trkpt lat="47.49386" lon="6.77351">
        <ele>310</ele>
        <time>2015-08-23T10:15:20.000Z</time>
      </trkpt>
      <trkpt lat="47.4939" lon="6.77354">
        <ele>310</ele>
        <time>2015-08-23T10:15:21.000Z</time>
      </trkpt>
      <trkpt lat="47.49396" lon="6.77354">
        <ele>310</ele>
        <time>2015-08-23T10:15:22.000Z</time>
      </trkpt>
      <trkpt lat="47.49403" lon="6.77355">
        <ele>310</ele>
        <time>2015-08-23T10:15:22.999Z</time>
      </trkpt>
      <trkpt lat="47.49408" lon="6.77356">
        <ele>310</ele>
        <time>2015-08-23T10:15:24.000Z</time>
      </trkpt>
      <trkpt lat="47.49413" lon="6.77356">
        <ele>310</ele>
        <time>2015-08-23T10:15:25.000Z</time>
      </trkpt>
      <trkpt lat="47.49418" lon="6.77357">
        <ele>311</ele>
        <time>2015-08-23T10:15:26.000Z</time>
      </trkpt>
      <trkpt lat="47.49424" lon="6.77358">
        <ele>311</ele>
        <time>2015-08-23T10:15:27.001Z</time>
      </trkpt>
      <trkpt lat="47.4943" lon="6.77357">
        <ele>311</ele>
        <time>2015-08-23T10:15:28.000Z</time>
      </trkpt>
      <trkpt lat="47.49435" lon="6.77358">
        <ele>311</ele>
        <time>2015-08-23T10:15:29.000Z</time>
      </trkpt>
      <trkpt lat="47.4944" lon="6.77359">
        <ele>311</ele>
        <time>2015-08-23T10:15:30.000Z</time>
      </trkpt>
      <trkpt lat="47.49445" lon="6.77359">
        <ele>311</ele>
        <time>2015-08-23T10:15:31.000Z</time>
      </trkpt>
      <trkpt lat="47.4945" lon="6.77359">
        <ele>311</ele>
        <time>2015-08-23T10:15:31.999Z</time>
      </trkpt>
      <trkpt lat="47.49456" lon="6.77358">
        <ele>311</ele>
        <time>2015-08-23T10:15:33.000Z</time>
      </trkpt>
      <trkpt lat="47.4946" lon="6.77359">
        <ele>311</ele>
        <time>2015-08-23T10:15:34.000Z</time>
      </trkpt>
      <trkpt lat="47.49465" lon="6.77359">
        <ele>311</ele>
        <time>2015-08-23T10:15:35.000Z</time>
      </trkpt>
      <trkpt lat="47.49471" lon="6.7736">
        <ele>311</ele>
        <time>2015-08-23T10:15:36.000Z</time>
      </trkpt>
      <trkpt lat="47.49475" lon="6.7736">
        <ele>311</ele>
        <time>2015-08-23T10:15:37.000Z</time>
      </trkpt>
      <trkpt lat="47.49481" lon="6.77359">
        <ele>311</ele>
        <time>2015-08-23T10:15:38.000Z</time>
      </trkpt>
      <trkpt lat="47.49487" lon="6.77359">
        <ele>311</ele>
        <time>2015-08-23T10:15:39.000Z</time>
      </trkpt>
      <trkpt lat="47.49491" lon="6.77358">
        <ele>311</ele>
        <time>2015-08-23T10:15:40.000Z</time>
      </trkpt>
      <trkpt lat="47.49497" lon="6.7736">
        <ele>311</ele>
        <time>2015-08-23T10:15:41.000Z</time>
      </trkpt>
      <trkpt lat="47.49502" lon="6.7736">
        <ele>312</ele>
        <time>2015-08-23T10:15:42.000Z</time>
      </trkpt>
      <trkpt lat="47.49507" lon="6.77361">
        <ele>312</ele>
        <time>2015-08-23T10:15:43.000Z</time>
      </trkpt>
      <trkpt lat="47.49513" lon="6.77363">
        <ele>312</ele>
        <time>2015-08-23T10:15:44.000Z</time>
      </trkpt>
      <trkpt lat="47.49517" lon="6.77362">
        <ele>312</ele>
        <time>2015-08-23T10:15:45.000Z</time>
      </trkpt>
      <trkpt lat="47.49522" lon="6.77361">
        <ele>312</ele>
        <time>2015-08-23T10:15:46.000Z</time>
      </trkpt>
      <trkpt lat="47.49527" lon="6.77361">
        <ele>312</ele>
        <time>2015-08-23T10:15:47.000Z</time>
      </trkpt>
      <trkpt lat="47.49532" lon="6.77363">
        <ele>312</ele>
        <time>2015-08-23T10:15:48.000Z</time>
      </trkpt>
      <trkpt lat="47.49538" lon="6.77363">
        <ele>312</ele>
        <time>2015-08-23T10:15:49.000Z</time>
      </trkpt>
      <trkpt lat="47.49543" lon="6.77363">
        <ele>312</ele>
        <time>2015-08-23T10:15:50.000Z</time>
      </trkpt>
      <trkpt lat="47.49547" lon="6.77363">
        <ele>312</ele>
        <time>2015-08-23T10:15:51.000Z</time>
      </trkpt>
      <trkpt lat="47.49553" lon="6.77362">
        <ele>312</ele>
        <time>2015-08-23T10:15:52.000Z</time>
      </trkpt>
      <trkpt lat="47.49557" lon="6.77361">
        <ele>312</ele>
        <time>2015-08-23T10:15:53.000Z</time>
      </trkpt>
      <trkpt lat="47.49562" lon="6.7736">
        <ele>312</ele>
        <time>2015-08-23T10:15:54.000Z</time>
      </trkpt>
      <trkpt lat="47.49568" lon="6.77361">
        <ele>313</ele>
        <time>2015-08-23T10:15:55.000Z</time>
      </trkpt>
      <trkpt lat="47.49573" lon="6.77361">
        <ele>313</ele>
        <time>2015-08-23T10:15:56.000Z</time>
      </trkpt>
      <trkpt lat="47.49578" lon="6.77361">
        <ele>313</ele>
        <time>2015-08-23T10:15:57.000Z</time>
      </trkpt>
      <trkpt lat="47.49583" lon="6.7736">
        <ele>313</ele>
        <time>2015-08-23T10:15:58.000Z</time>
      </trkpt>
      <trkpt lat="47.49588" lon="6.77361">
        <ele>313</ele>
        <time>2015-08-23T10:15:59.000Z</time>
      </trkpt>
      <trkpt lat="47.49593" lon="6.77359">
        <ele>313</ele>
        <time>2015-08-23T10:16:00.000Z</time>
      </trkpt>
      <trkpt lat="47.49599" lon="6.77358">
        <ele>313</ele>
        <time>2015-08-23T10:16:01.000Z</time>
      </trkpt>
      <trkpt lat="47.49604" lon="6.77358">
        <ele>313</ele>
        <time>2015-08-23T10:16:02.000Z</time>
      </trkpt>
      <trkpt lat="47.49609" lon="6.77358">
        <ele>313</ele>
        <time>2015-08-23T10:16:03.000Z</time>
      </trkpt>
      <trkpt lat="47.49613" lon="6.77359">
        <ele>313</ele>
        <time>2015-08-23T10:16:04.000Z</time>
      </trkpt>
      <trkpt lat="47.49616" lon="6.77358">
        <ele>313</ele>
        <time>2015-08-23T10:16:05.000Z</time>
      </trkpt>
      <trkpt lat="47.4962" lon="6.77357">
        <ele>313</ele>
        <time>2015-08-23T10:16:06.000Z</time>
      </trkpt>
      <trkpt lat="47.49625" lon="6.77355">
        <ele>313</ele>
        <time>2015-08-23T10:16:07.000Z</time>
      </trkpt>
      <trkpt lat="47.4963" lon="6.77354">
        <ele>313</ele>
        <time>2015-08-23T10:16:08.000Z</time>
      </trkpt>
      <trkpt lat="47.49636" lon="6.77351">
        <ele>313</ele>
        <time>2015-08-23T10:16:09.000Z</time>
      </trkpt>
      <trkpt lat="47.49641" lon="6.7735">
        <ele>313</ele>
        <time>2015-08-23T10:16:10.000Z</time>
      </trkpt>
      <trkpt lat="47.49646" lon="6.7735">
        <ele>313</ele>
        <time>2015-08-23T10:16:11.000Z</time>
      </trkpt>
      <trkpt lat="47.49651" lon="6.77349">
        <ele>313</ele>
        <time>2015-08-23T10:16:11.999Z</time>
      </trkpt>
      <trkpt lat="47.49655" lon="6.77346">
        <ele>313</ele>
        <time>2015-08-23T10:16:13.000Z</time>
      </trkpt>
      <trkpt lat="47.49659" lon="6.77345">
        <ele>313</ele>
        <time>2015-08-23T10:16:14.000Z</time>
      </trkpt>
      <trkpt lat="47.49663" lon="6.77344">
        <ele>313</ele>
        <time>2015-08-23T10:16:15.000Z</time>
      </trkpt>
      <trkpt lat="47.49668" lon="6.77343">
        <ele>313</ele>
        <time>2015-08-23T10:16:16.000Z</time>
      </trkpt>
      <trkpt lat="47.49672" lon="6.77343">
        <ele>313</ele>
        <time>2015-08-23T10:16:17.000Z</time>
      </trkpt>
      <trkpt lat="47.49677" lon="6.77342">
        <ele>313</ele>
        <time>2015-08-23T10:16:18.000Z</time>
      </trkpt>
      <trkpt lat="47.49683" lon="6.77341">
        <ele>313</ele>
        <time>2015-08-23T10:16:19.000Z</time>
      </trkpt>
      <trkpt lat="47.49687" lon="6.77339">
        <ele>313</ele>
        <time>2015-08-23T10:16:20.000Z</time>
      </trkpt>
      <trkpt lat="47.49693" lon="6.77337">
        <ele>313</ele>
        <time>2015-08-23T10:16:21.000Z</time>
      </trkpt>
      <trkpt lat="47.49697" lon="6.77336">
        <ele>313</ele>
        <time>2015-08-23T10:16:22.000Z</time>
      </trkpt>
      <trkpt lat="47.49701" lon="6.77336">
        <ele>313</ele>
        <time>2015-08-23T10:16:23.000Z</time>
      </trkpt>
      <trkpt lat="47.49706" lon="6.77336">
        <ele>313</ele>
        <time>2015-08-23T10:16:24.000Z</time>
      </trkpt>
      <trkpt lat="47.49711" lon="6.77337">
        <ele>313</ele>
        <time>2015-08-23T10:16:25.000Z</time>
      </trkpt>
      <trkpt lat="47.49715" lon="6.77336">
        <ele>313</ele>
        <time>2015-08-23T10:16:26.000Z</time>
      </trkpt>
      <trkpt lat="47.49719" lon="6.77334">
        <ele>313</ele>
        <time>2015-08-23T10:16:27.000Z</time>
      </trkpt>
      <trkpt lat="47.49722" lon="6.77334">
        <ele>313</ele>
        <time>2015-08-23T10:16:28.000Z</time>
      </trkpt>
      <trkpt lat="47.49725" lon="6.77332">
        <ele>314</ele>
        <time>2015-08-23T10:16:29.000Z</time>
      </trkpt>
      <trkpt lat="47.49728" lon="6.77328">
        <ele>314</ele>
        <time>2015-08-23T10:16:30.000Z</time>
      </trkpt>
      <trkpt lat="47.4973" lon="6.77325">
        <ele>314</ele>
        <time>2015-08-23T10:16:31.000Z</time>
      </trkpt>
      <trkpt lat="47.49732" lon="6.77324">
        <ele>314</ele>
        <time>2015-08-23T10:16:32.000Z</time>
      </trkpt>
      <trkpt lat="47.49735" lon="6.77322">
        <ele>314</ele>
        <time>2015-08-23T10:16:33.000Z</time>
      </trkpt>
      <trkpt lat="47.49738" lon="6.77321">
        <ele>314</ele>
        <time>2015-08-23T10:16:34.000Z</time>
      </trkpt>
      <trkpt lat="47.4974" lon="6.77319">
        <ele>314</ele>
        <time>2015-08-23T10:16:35.000Z</time>
      </trkpt>
      <trkpt lat="47.49743" lon="6.77318">
        <ele>314</ele>
        <time>2015-08-23T10:16:36.000Z</time>
      </trkpt>
      <trkpt lat="47.49745" lon="6.77317">
        <ele>314</ele>
        <time>2015-08-23T10:16:37.001Z</time>
      </trkpt>
      <trkpt lat="47.49748" lon="6.77315">
        <ele>314</ele>
        <time>2015-08-23T10:16:38.000Z</time>
      </trkpt>
      <trkpt lat="47.49751" lon="6.77314">
        <ele>315</ele>
        <time>2015-08-23T10:16:39.000Z</time>
      </trkpt>
      <trkpt lat="47.49755" lon="6.77313">
        <ele>316</ele>
        <time>2015-08-23T10:16:40.000Z</time>
      </trkpt>
      <trkpt lat="47.49759" lon="6.77312">
        <ele>316</ele>
        <time>2015-08-23T10:16:41.000Z</time>
      </trkpt>
      <trkpt lat="47.49763" lon="6.7731">
        <ele>316</ele>
        <time>2015-08-23T10:16:42.000Z</time>
      </trkpt>
      <trkpt lat="47.49767" lon="6.7731">
        <ele>316</ele>
        <time>2015-08-23T10:16:43.000Z</time>
      </trkpt>
      <trkpt lat="47.49776" lon="6.77314">
        <ele>316</ele>
        <time>2015-08-23T10:16:44.000Z</time>
      </trkpt>
      <trkpt lat="47.49781" lon="6.77314">
        <ele>316</ele>
        <time>2015-08-23T10:16:45.000Z</time>
      </trkpt>
      <trkpt lat="47.49786" lon="6.77314">
        <ele>316</ele>
        <time>2015-08-23T10:16:46.000Z</time>
      </trkpt>
      <trkpt lat="47.49791" lon="6.77313">
        <ele>317</ele>
        <time>2015-08-23T10:16:47.000Z</time>
      </trkpt>
      <trkpt lat="47.49796" lon="6.77313">
        <ele>317</ele>
        <time>2015-08-23T10:16:48.000Z</time>
      </trkpt>
      <trkpt lat="47.49801" lon="6.77312">
        <ele>317</ele>
        <time>2015-08-23T10:16:49.000Z</time>
      </trkpt>
      <trkpt lat="47.49807" lon="6.77311">
        <ele>317</ele>
        <time>2015-08-23T10:16:50.000Z</time>
      </trkpt>
      <trkpt lat="47.49812" lon="6.77311">
        <ele>317</ele>
        <time>2015-08-23T10:16:51.000Z</time>
      </trkpt>
      <trkpt lat="47.49817" lon="6.77311">
        <ele>317</ele>
        <time>2015-08-23T10:16:52.000Z</time>
      </trkpt>
      <trkpt lat="47.49821" lon="6.77311">
        <ele>316</ele>
        <time>2015-08-23T10:16:53.000Z</time>
      </trkpt>
      <trkpt lat="47.49826" lon="6.77312">
        <ele>316</ele>
        <time>2015-08-23T10:16:54.000Z</time>
      </trkpt>
      <trkpt lat="47.49831" lon="6.77312">
        <ele>316</ele>
        <time>2015-08-23T10:16:55.000Z</time>
      </trkpt>
      <trkpt lat="47.49836" lon="6.77312">
        <ele>317</ele>
        <time>2015-08-23T10:16:56.000Z</time>
      </trkpt>
      <trkpt lat="47.4984" lon="6.77312">
        <ele>317</ele>
        <time>2015-08-23T10:16:57.000Z</time>
      </trkpt>
      <trkpt lat="47.49845" lon="6.77311">
        <ele>317</ele>
        <time>2015-08-23T10:16:58.000Z</time>
      </trkpt>
      <trkpt lat="47.49851" lon="6.77309">
        <ele>317</ele>
        <time>2015-08-23T10:16:59.000Z</time>
      </trkpt>
      <trkpt lat="47.49855" lon="6.77309">
        <ele>318</ele>
        <time>2015-08-23T10:17:00.000Z</time>
      </trkpt>
      <trkpt lat="47.49861" lon="6.77307">
        <ele>318</ele>
        <time>2015-08-23T10:17:01.000Z</time>
      </trkpt>
      <trkpt lat="47.49866" lon="6.77306">
        <ele>318</ele>
        <time>2015-08-23T10:17:02.000Z</time>
      </trkpt>
      <trkpt lat="47.49871" lon="6.77305">
        <ele>318</ele>
        <time>2015-08-23T10:17:03.000Z</time>
      </trkpt>
      <trkpt lat="47.49876" lon="6.77303">
        <ele>318</ele>
        <time>2015-08-23T10:17:04.000Z</time>
      </trkpt>
      <trkpt lat="47.4988" lon="6.77302">
        <ele>318</ele>
        <time>2015-08-23T10:17:05.000Z</time>
      </trkpt>
      <trkpt lat="47.49884" lon="6.77301">
        <ele>318</ele>
        <time>2015-08-23T10:17:06.000Z</time>
      </trkpt>
      <trkpt lat="47.49888" lon="6.77301">
        <ele>318</ele>
        <time>2015-08-23T10:17:07.000Z</time>
      </trkpt>
      <trkpt lat="47.49892" lon="6.773">
        <ele>318</ele>
        <time>2015-08-23T10:17:08.000Z</time>
      </trkpt>
      <trkpt lat="47.49896" lon="6.77297">
        <ele>318</ele>
        <time>2015-08-23T10:17:09.000Z</time>
      </trkpt>
      <trkpt lat="47.49899" lon="6.77296">
        <ele>318</ele>
        <time>2015-08-23T10:17:10.000Z</time>
      </trkpt>
      <trkpt lat="47.49902" lon="6.77294">
        <ele>318</ele>
        <time>2015-08-23T10:17:11.000Z</time>
      </trkpt>
      <trkpt lat="47.49906" lon="6.77293">
        <ele>319</ele>
        <time>2015-08-23T10:17:12.000Z</time>
      </trkpt>
      <trkpt lat="47.49909" lon="6.77291">
        <ele>319</ele>
        <time>2015-08-23T10:17:13.000Z</time>
      </trkpt>
      <trkpt lat="47.49912" lon="6.77289">
        <ele>319</ele>
        <time>2015-08-23T10:17:14.000Z</time>
      </trkpt>
      <trkpt lat="47.49915" lon="6.77288">
        <ele>319</ele>
        <time>2015-08-23T10:17:15.000Z</time>
      </trkpt>
      <trkpt lat="47.49919" lon="6.77287">
        <ele>317</ele>
        <time>2015-08-23T10:17:16.000Z</time>
      </trkpt>
      <trkpt lat="47.49922" lon="6.77285">
        <ele>317</ele>
        <time>2015-08-23T10:17:17.001Z</time>
      </trkpt>
      <trkpt lat="47.49926" lon="6.77284">
        <ele>317</ele>
        <time>2015-08-23T10:17:18.000Z</time>
      </trkpt>
      <trkpt lat="47.49929" lon="6.77282">
        <ele>318</ele>
        <time>2015-08-23T10:17:19.000Z</time>
      </trkpt>
      <trkpt lat="47.49933" lon="6.7728">
        <ele>318</ele>
        <time>2015-08-23T10:17:20.000Z</time>
      </trkpt>
      <trkpt lat="47.49937" lon="6.77279">
        <ele>318</ele>
        <time>2015-08-23T10:17:21.000Z</time>
      </trkpt>
      <trkpt lat="47.49943" lon="6.77273">
        <ele>318</ele>
        <time>2015-08-23T10:17:22.000Z</time>
      </trkpt>
      <trkpt lat="47.49947" lon="6.77271">
        <ele>318</ele>
        <time>2015-08-23T10:17:23.000Z</time>
      </trkpt>
      <trkpt lat="47.49952" lon="6.77266">
        <ele>317</ele>
        <time>2015-08-23T10:17:24.000Z</time>
      </trkpt>
      <trkpt lat="47.49957" lon="6.77264">
        <ele>317</ele>
        <time>2015-08-23T10:17:25.000Z</time>
      </trkpt>
      <trkpt lat="47.49963" lon="6.7726">
        <ele>317</ele>
        <time>2015-08-23T10:17:26.000Z</time>
      </trkpt>
      <trkpt lat="47.49969" lon="6.77258">
        <ele>317</ele>
        <time>2015-08-23T10:17:27.000Z</time>
      </trkpt>
      <trkpt lat="47.49974" lon="6.77255">
        <ele>317</ele>
        <time>2015-08-23T10:17:28.000Z</time>
      </trkpt>
      <trkpt lat="47.4998" lon="6.77253">
        <ele>316</ele>
        <time>2015-08-23T10:17:29.000Z</time>
      </trkpt>
      <trkpt lat="47.49985" lon="6.77251">
        <ele>316</ele>
        <time>2015-08-23T10:17:30.000Z</time>
      </trkpt>
      <trkpt lat="47.49991" lon="6.7725">
        <ele>322</ele>
        <time>2015-08-23T10:17:31.000Z</time>
      </trkpt>
      <trkpt lat="47.49997" lon="6.77247">
        <ele>319</ele>
        <time>2015-08-23T10:17:32.000Z</time>
      </trkpt>
      <trkpt lat="47.50003" lon="6.77244">
        <ele>320</ele>
        <time>2015-08-23T10:17:33.000Z</time>
      </trkpt>
      <trkpt lat="47.50009" lon="6.7724">
        <ele>322</ele>
        <time>2015-08-23T10:17:34.000Z</time>
      </trkpt>
      <trkpt lat="47.50015" lon="6.77237">
        <ele>324</ele>
        <time>2015-08-23T10:17:35.000Z</time>
      </trkpt>
      <trkpt lat="47.5002" lon="6.77233">
        <ele>325</ele>
        <time>2015-08-23T10:17:36.000Z</time>
      </trkpt>
      <trkpt lat="47.50025" lon="6.77229">
        <ele>326</ele>
        <time>2015-08-23T10:17:37.000Z</time>
      </trkpt>
      <trkpt lat="47.5003" lon="6.77227">
        <ele>327</ele>
        <time>2015-08-23T10:17:37.971Z</time>
      </trkpt>
      <trkpt lat="47.50037" lon="6.77223">
        <ele>327</ele>
        <time>2015-08-23T10:17:39.000Z</time>
      </trkpt>
      <trkpt lat="47.50043" lon="6.77222">
        <ele>328</ele>
        <time>2015-08-23T10:17:40.001Z</time>
      </trkpt>
      <trkpt lat="47.50048" lon="6.77219">
        <ele>328</ele>
        <time>2015-08-23T10:17:41.000Z</time>
      </trkpt>
      <trkpt lat="47.50054" lon="6.77218">
        <ele>328</ele>
        <time>2015-08-23T10:17:42.000Z</time>
      </trkpt>
      <trkpt lat="47.50059" lon="6.77217">
        <ele>328</ele>
        <time>2015-08-23T10:17:43.000Z</time>
      </trkpt>
      <trkpt lat="47.50065" lon="6.77216">
        <ele>328</ele>
        <time>2015-08-23T10:17:44.000Z</time>
      </trkpt>
      <trkpt lat="47.50072" lon="6.77216">
        <ele>327</ele>
        <time>2015-08-23T10:17:45.000Z</time>
      </trkpt>
      <trkpt lat="47.50078" lon="6.77211">
        <ele>328</ele>
        <time>2015-08-23T10:17:46.000Z</time>
      </trkpt>
      <trkpt lat="47.50083" lon="6.7721">
        <ele>328</ele>
        <time>2015-08-23T10:17:47.000Z</time>
      </trkpt>
      <trkpt lat="47.50088" lon="6.77208">
        <ele>324</ele>
        <time>2015-08-23T10:17:48.000Z</time>
      </trkpt>
      <trkpt lat="47.50094" lon="6.77207">
        <ele>324</ele>
        <time>2015-08-23T10:17:49.000Z</time>
      </trkpt>
      <trkpt lat="47.501" lon="6.77205">
        <ele>325</ele>
        <time>2015-08-23T10:17:50.000Z</time>
      </trkpt>
      <trkpt lat="47.50107" lon="6.77204">
        <ele>324</ele>
        <time>2015-08-23T10:17:51.000Z</time>
      </trkpt>
      <trkpt lat="47.50114" lon="6.77204">
        <ele>324</ele>
        <time>2015-08-23T10:17:52.000Z</time>
      </trkpt>
      <trkpt lat="47.50121" lon="6.77206">
        <ele>323</ele>
        <time>2015-08-23T10:17:53.000Z</time>
      </trkpt>
      <trkpt lat="47.50129" lon="6.77207">
        <ele>323</ele>
        <time>2015-08-23T10:17:54.000Z</time>
      </trkpt>
      <trkpt lat="47.50136" lon="6.77208">
        <ele>322</ele>
        <time>2015-08-23T10:17:54.999Z</time>
      </trkpt>
      <trkpt lat="47.50142" lon="6.77208">
        <ele>322</ele>
        <time>2015-08-23T10:17:56.000Z</time>
      </trkpt>
      <trkpt lat="47.50149" lon="6.7721">
        <ele>321</ele>
        <time>2015-08-23T10:17:57.000Z</time>
      </trkpt>
      <trkpt lat="47.50155" lon="6.77218">
        <ele>320</ele>
        <time>2015-08-23T10:17:58.000Z</time>
      </trkpt>
      <trkpt lat="47.50161" lon="6.77223">
        <ele>319</ele>
        <time>2015-08-23T10:17:59.000Z</time>
      </trkpt>
      <trkpt lat="47.50167" lon="6.77227">
        <ele>316</ele>
        <time>2015-08-23T10:18:00.000Z</time>
      </trkpt>
      <trkpt lat="47.50173" lon="6.77232">
        <ele>315</ele>
        <time>2015-08-23T10:18:01.000Z</time>
      </trkpt>
      <trkpt lat="47.50179" lon="6.77236">
        <ele>315</ele>
        <time>2015-08-23T10:18:02.000Z</time>
      </trkpt>
      <trkpt lat="47.50185" lon="6.7724">
        <ele>315</ele>
        <time>2015-08-23T10:18:03.000Z</time>
      </trkpt>
      <trkpt lat="47.5019" lon="6.77245">
        <ele>315</ele>
        <time>2015-08-23T10:18:04.000Z</time>
      </trkpt>
      <trkpt lat="47.50196" lon="6.7725">
        <ele>313</ele>
        <time>2015-08-23T10:18:05.000Z</time>
      </trkpt>
      <trkpt lat="47.50201" lon="6.77255">
        <ele>313</ele>
        <time>2015-08-23T10:18:06.000Z</time>
      </trkpt>
      <trkpt lat="47.50207" lon="6.7726">
        <ele>313</ele>
        <time>2015-08-23T10:18:07.000Z</time>
      </trkpt>
      <trkpt lat="47.50212" lon="6.77264">
        <ele>313</ele>
        <time>2015-08-23T10:18:08.000Z</time>
      </trkpt>
      <trkpt lat="47.50218" lon="6.77268">
        <ele>313</ele>
        <time>2015-08-23T10:18:09.000Z</time>
      </trkpt>
      <trkpt lat="47.50223" lon="6.77271">
        <ele>313</ele>
        <time>2015-08-23T10:18:10.000Z</time>
      </trkpt>
      <trkpt lat="47.50229" lon="6.77275">
        <ele>313</ele>
        <time>2015-08-23T10:18:11.000Z</time>
      </trkpt>
      <trkpt lat="47.50235" lon="6.77279">
        <ele>313</ele>
        <time>2015-08-23T10:18:12.000Z</time>
      </trkpt>
      <trkpt lat="47.5024" lon="6.77282">
        <ele>313</ele>
        <time>2015-08-23T10:18:13.000Z</time>
      </trkpt>
      <trkpt lat="47.50245" lon="6.77285">
        <ele>313</ele>
        <time>2015-08-23T10:18:14.000Z</time>
      </trkpt>
      <trkpt lat="47.5025" lon="6.77289">
        <ele>313</ele>
        <time>2015-08-23T10:18:15.000Z</time>
      </trkpt>
      <trkpt lat="47.50256" lon="6.77293">
        <ele>313</ele>
        <time>2015-08-23T10:18:16.000Z</time>
      </trkpt>
      <trkpt lat="47.50262" lon="6.77297">
        <ele>313</ele>
        <time>2015-08-23T10:18:17.000Z</time>
      </trkpt>
      <trkpt lat="47.50268" lon="6.77301">
        <ele>313</ele>
        <time>2015-08-23T10:18:18.000Z</time>
      </trkpt>
      <trkpt lat="47.50273" lon="6.77305">
        <ele>313</ele>
        <time>2015-08-23T10:18:19.000Z</time>
      </trkpt>
      <trkpt lat="47.50278" lon="6.77308">
        <ele>313</ele>
        <time>2015-08-23T10:18:20.000Z</time>
      </trkpt>
      <trkpt lat="47.50284" lon="6.77312">
        <ele>313</ele>
        <time>2015-08-23T10:18:21.000Z</time>
      </trkpt>
      <trkpt lat="47.50289" lon="6.77316">
        <ele>313</ele>
        <time>2015-08-23T10:18:22.000Z</time>
      </trkpt>
      <trkpt lat="47.50295" lon="6.77321">
        <ele>313</ele>
        <time>2015-08-23T10:18:23.000Z</time>
      </trkpt>
      <trkpt lat="47.503" lon="6.77325">
        <ele>312</ele>
        <time>2015-08-23T10:18:24.000Z</time>
      </trkpt>
      <trkpt lat="47.50306" lon="6.77329">
        <ele>312</ele>
        <time>2015-08-23T10:18:25.000Z</time>
      </trkpt>
      <trkpt lat="47.50312" lon="6.77333">
        <ele>312</ele>
        <time>2015-08-23T10:18:26.000Z</time>
      </trkpt>
      <trkpt lat="47.50317" lon="6.77338">
        <ele>312</ele>
        <time>2015-08-23T10:18:27.000Z</time>
      </trkpt>
      <trkpt lat="47.50323" lon="6.77343">
        <ele>312</ele>
        <time>2015-08-23T10:18:28.000Z</time>
      </trkpt>
      <trkpt lat="47.50328" lon="6.77348">
        <ele>312</ele>
        <time>2015-08-23T10:18:28.999Z</time>
      </trkpt>
      <trkpt lat="47.50334" lon="6.7735">
        <ele>312</ele>
        <time>2015-08-23T10:18:30.000Z</time>
      </trkpt>
      <trkpt lat="47.50339" lon="6.77354">
        <ele>312</ele>
        <time>2015-08-23T10:18:31.000Z</time>
      </trkpt>
      <trkpt lat="47.50345" lon="6.77358">
        <ele>312</ele>
        <time>2015-08-23T10:18:32.000Z</time>
      </trkpt>
      <trkpt lat="47.5035" lon="6.77363">
        <ele>312</ele>
        <time>2015-08-23T10:18:33.000Z</time>
      </trkpt>
      <trkpt lat="47.50355" lon="6.77368">
        <ele>312</ele>
        <time>2015-08-23T10:18:33.999Z</time>
      </trkpt>
      <trkpt lat="47.50359" lon="6.77371">
        <ele>312</ele>
        <time>2015-08-23T10:18:35.000Z</time>
      </trkpt>
      <trkpt lat="47.50364" lon="6.77375">
        <ele>312</ele>
        <time>2015-08-23T10:18:36.000Z</time>
      </trkpt>
      <trkpt lat="47.5037" lon="6.77379">
        <ele>312</ele>
        <time>2015-08-23T10:18:37.000Z</time>
      </trkpt>
      <trkpt lat="47.50375" lon="6.77385">
        <ele>312</ele>
        <time>2015-08-23T10:18:38.000Z</time>
      </trkpt>
      <trkpt lat="47.5038" lon="6.77391">
        <ele>312</ele>
        <time>2015-08-23T10:18:39.000Z</time>
      </trkpt>
      <trkpt lat="47.50386" lon="6.77394">
        <ele>312</ele>
        <time>2015-08-23T10:18:40.000Z</time>
      </trkpt>
      <trkpt lat="47.5039" lon="6.77398">
        <ele>312</ele>
        <time>2015-08-23T10:18:41.000Z</time>
      </trkpt>
      <trkpt lat="47.50396" lon="6.77404">
        <ele>312</ele>
        <time>2015-08-23T10:18:42.000Z</time>
      </trkpt>
      <trkpt lat="47.50401" lon="6.77409">
        <ele>312</ele>
        <time>2015-08-23T10:18:43.000Z</time>
      </trkpt>
      <trkpt lat="47.50407" lon="6.77414">
        <ele>311</ele>
        <time>2015-08-23T10:18:44.000Z</time>
      </trkpt>
      <trkpt lat="47.50413" lon="6.77419">
        <ele>311</ele>
        <time>2015-08-23T10:18:45.000Z</time>
      </trkpt>
      <trkpt lat="47.50417" lon="6.77423">
        <ele>311</ele>
        <time>2015-08-23T10:18:46.000Z</time>
      </trkpt>
      <trkpt lat="47.50422" lon="6.77425">
        <ele>311</ele>
        <time>2015-08-23T10:18:47.000Z</time>
      </trkpt>
      <trkpt lat="47.50428" lon="6.7743">
        <ele>312</ele>
        <time>2015-08-23T10:18:48.000Z</time>
      </trkpt>
      <trkpt lat="47.50434" lon="6.77436">
        <ele>312</ele>
        <time>2015-08-23T10:18:49.000Z</time>
      </trkpt>
      <trkpt lat="47.50439" lon="6.7744">
        <ele>312</ele>
        <time>2015-08-23T10:18:50.000Z</time>
      </trkpt>
      <trkpt lat="47.50444" lon="6.77444">
        <ele>312</ele>
        <time>2015-08-23T10:18:51.000Z</time>
      </trkpt>
      <trkpt lat="47.5045" lon="6.7745">
        <ele>312</ele>
        <time>2015-08-23T10:18:52.000Z</time>
      </trkpt>
      <trkpt lat="47.50455" lon="6.77455">
        <ele>312</ele>
        <time>2015-08-23T10:18:53.000Z</time>
      </trkpt>
      <trkpt lat="47.50461" lon="6.7746">
        <ele>313</ele>
        <time>2015-08-23T10:18:54.000Z</time>
      </trkpt>
      <trkpt lat="47.50467" lon="6.77464">
        <ele>313</ele>
        <time>2015-08-23T10:18:54.999Z</time>
      </trkpt>
      <trkpt lat="47.50472" lon="6.77468">
        <ele>313</ele>
        <time>2015-08-23T10:18:56.000Z</time>
      </trkpt>
      <trkpt lat="47.50478" lon="6.77472">
        <ele>313</ele>
        <time>2015-08-23T10:18:57.000Z</time>
      </trkpt>
      <trkpt lat="47.50483" lon="6.77475">
        <ele>313</ele>
        <time>2015-08-23T10:18:58.000Z</time>
      </trkpt>
      <trkpt lat="47.50488" lon="6.77481">
        <ele>313</ele>
        <time>2015-08-23T10:18:59.000Z</time>
      </trkpt>
      <trkpt lat="47.50494" lon="6.77486">
        <ele>313</ele>
        <time>2015-08-23T10:19:00.000Z</time>
      </trkpt>
      <trkpt lat="47.50499" lon="6.7749">
        <ele>314</ele>
        <time>2015-08-23T10:19:01.000Z</time>
      </trkpt>
      <trkpt lat="47.50504" lon="6.77494">
        <ele>314</ele>
        <time>2015-08-23T10:19:02.000Z</time>
      </trkpt>
      <trkpt lat="47.5051" lon="6.77498">
        <ele>314</ele>
        <time>2015-08-23T10:19:03.000Z</time>
      </trkpt>
      <trkpt lat="47.50516" lon="6.775">
        <ele>314</ele>
        <time>2015-08-23T10:19:04.000Z</time>
      </trkpt>
      <trkpt lat="47.50522" lon="6.77503">
        <ele>314</ele>
        <time>2015-08-23T10:19:05.000Z</time>
      </trkpt>
      <trkpt lat="47.50527" lon="6.77508">
        <ele>314</ele>
        <time>2015-08-23T10:19:06.000Z</time>
      </trkpt>
      <trkpt lat="47.50532" lon="6.77512">
        <ele>313</ele>
        <time>2015-08-23T10:19:07.000Z</time>
      </trkpt>
      <trkpt lat="47.50538" lon="6.77515">
        <ele>313</ele>
        <time>2015-08-23T10:19:08.000Z</time>
      </trkpt>
      <trkpt lat="47.50544" lon="6.7752">
        <ele>313</ele>
        <time>2015-08-23T10:19:09.000Z</time>
      </trkpt>
      <trkpt lat="47.50549" lon="6.77525">
        <ele>313</ele>
        <time>2015-08-23T10:19:10.000Z</time>
      </trkpt>
      <trkpt lat="47.50552" lon="6.77531">
        <ele>313</ele>
        <time>2015-08-23T10:19:11.000Z</time>
      </trkpt>
      <trkpt lat="47.50556" lon="6.77538">
        <ele>313</ele>
        <time>2015-08-23T10:19:12.000Z</time>
      </trkpt>
      <trkpt lat="47.50559" lon="6.77544">
        <ele>313</ele>
        <time>2015-08-23T10:19:13.001Z</time>
      </trkpt>
      <trkpt lat="47.50561" lon="6.77549">
        <ele>313</ele>
        <time>2015-08-23T10:19:14.000Z</time>
      </trkpt>
      <trkpt lat="47.50567" lon="6.77551">
        <ele>313</ele>
        <time>2015-08-23T10:19:15.000Z</time>
      </trkpt>
      <trkpt lat="47.50572" lon="6.77554">
        <ele>313</ele>
        <time>2015-08-23T10:19:16.000Z</time>
      </trkpt>
      <trkpt lat="47.50577" lon="6.77553">
        <ele>313</ele>
        <time>2015-08-23T10:19:17.000Z</time>
      </trkpt>
      <trkpt lat="47.50582" lon="6.77551">
        <ele>313</ele>
        <time>2015-08-23T10:19:18.000Z</time>
      </trkpt>
      <trkpt lat="47.50587" lon="6.77547">
        <ele>313</ele>
        <time>2015-08-23T10:19:19.000Z</time>
      </trkpt>
      <trkpt lat="47.50589" lon="6.77541">
        <ele>313</ele>
        <time>2015-08-23T10:19:20.000Z</time>
      </trkpt>
      <trkpt lat="47.50591" lon="6.77538">
        <ele>313</ele>
        <time>2015-08-23T10:19:21.000Z</time>
      </trkpt>
      <trkpt lat="47.50597" lon="6.77539">
        <ele>313</ele>
        <time>2015-08-23T10:19:22.000Z</time>
      </trkpt>
      <trkpt lat="47.506" lon="6.77539">
        <ele>313</ele>
        <time>2015-08-23T10:19:23.000Z</time>
      </trkpt>
      <trkpt lat="47.50603" lon="6.77539">
        <ele>313</ele>
        <time>2015-08-23T10:19:24.000Z</time>
      </trkpt>
      <trkpt lat="47.50607" lon="6.77537">
        <ele>313</ele>
        <time>2015-08-23T10:19:25.000Z</time>
      </trkpt>
      <trkpt lat="47.50611" lon="6.77534">
        <ele>313</ele>
        <time>2015-08-23T10:19:26.000Z</time>
      </trkpt>
      <trkpt lat="47.50614" lon="6.77532">
        <ele>313</ele>
        <time>2015-08-23T10:19:27.000Z</time>
      </trkpt>
      <trkpt lat="47.50617" lon="6.77531">
        <ele>313</ele>
        <time>2015-08-23T10:19:28.000Z</time>
      </trkpt>
      <trkpt lat="47.50622" lon="6.77534">
        <ele>313</ele>
        <time>2015-08-23T10:19:29.000Z</time>
      </trkpt>
      <trkpt lat="47.50626" lon="6.77533">
        <ele>313</ele>
        <time>2015-08-23T10:19:30.000Z</time>
      </trkpt>
      <trkpt lat="47.5063" lon="6.77533">
        <ele>313</ele>
        <time>2015-08-23T10:19:31.000Z</time>
      </trkpt>
      <trkpt lat="47.50634" lon="6.77533">
        <ele>313</ele>
        <time>2015-08-23T10:19:32.000Z</time>
      </trkpt>
      <trkpt lat="47.50642" lon="6.77533">
        <ele>313</ele>
        <time>2015-08-23T10:19:33.000Z</time>
      </trkpt>
      <trkpt lat="47.50648" lon="6.77534">
        <ele>313</ele>
        <time>2015-08-23T10:19:34.000Z</time>
      </trkpt>
      <trkpt lat="47.50653" lon="6.77535">
        <ele>313</ele>
        <time>2015-08-23T10:19:35.000Z</time>
      </trkpt>
      <trkpt lat="47.50658" lon="6.77534">
        <ele>313</ele>
        <time>2015-08-23T10:19:36.000Z</time>
      </trkpt>
      <trkpt lat="47.50661" lon="6.77535">
        <ele>313</ele>
        <time>2015-08-23T10:19:37.000Z</time>
      </trkpt>
      <trkpt lat="47.50665" lon="6.77535">
        <ele>313</ele>
        <time>2015-08-23T10:19:38.000Z</time>
      </trkpt>
      <trkpt lat="47.5067" lon="6.77535">
        <ele>313</ele>
        <time>2015-08-23T10:19:39.000Z</time>
      </trkpt>
      <trkpt lat="47.50675" lon="6.77536">
        <ele>313</ele>
        <time>2015-08-23T10:19:40.000Z</time>
      </trkpt>
      <trkpt lat="47.5068" lon="6.77538">
        <ele>313</ele>
        <time>2015-08-23T10:19:41.000Z</time>
      </trkpt>
      <trkpt lat="47.50685" lon="6.77538">
        <ele>313</ele>
        <time>2015-08-23T10:19:42.000Z</time>
      </trkpt>
      <trkpt lat="47.50692" lon="6.77538">
        <ele>313</ele>
        <time>2015-08-23T10:19:43.000Z</time>
      </trkpt>
      <trkpt lat="47.50696" lon="6.77537">
        <ele>313</ele>
        <time>2015-08-23T10:19:44.000Z</time>
      </trkpt>
      <trkpt lat="47.50702" lon="6.77538">
        <ele>313</ele>
        <time>2015-08-23T10:19:45.000Z</time>
      </trkpt>
      <trkpt lat="47.50708" lon="6.7754">
        <ele>313</ele>
        <time>2015-08-23T10:19:46.000Z</time>
      </trkpt>
      <trkpt lat="47.50714" lon="6.77541">
        <ele>313</ele>
        <time>2015-08-23T10:19:47.000Z</time>
      </trkpt>
      <trkpt lat="47.50721" lon="6.77543">
        <ele>313</ele>
        <time>2015-08-23T10:19:48.000Z</time>
      </trkpt>
      <trkpt lat="47.50727" lon="6.77545">
        <ele>313</ele>
        <time>2015-08-23T10:19:49.000Z</time>
      </trkpt>
      <trkpt lat="47.50732" lon="6.77549">
        <ele>313</ele>
        <time>2015-08-23T10:19:50.000Z</time>
      </trkpt>
      <trkpt lat="47.50736" lon="6.77552">
        <ele>313</ele>
        <time>2015-08-23T10:19:51.000Z</time>
      </trkpt>
      <trkpt lat="47.50743" lon="6.77558">
        <ele>313</ele>
        <time>2015-08-23T10:19:52.000Z</time>
      </trkpt>
      <trkpt lat="47.5075" lon="6.77563">
        <ele>313</ele>
        <time>2015-08-23T10:19:53.000Z</time>
      </trkpt>
      <trkpt lat="47.50755" lon="6.77567">
        <ele>314</ele>
        <time>2015-08-23T10:19:54.000Z</time>
      </trkpt>
      <trkpt lat="47.50759" lon="6.77569">
        <ele>314</ele>
        <time>2015-08-23T10:19:55.000Z</time>
      </trkpt>
      <trkpt lat="47.50761" lon="6.77571">
        <ele>314</ele>
        <time>2015-08-23T10:19:56.000Z</time>
      </trkpt>
      <trkpt lat="47.50763" lon="6.77573">
        <ele>314</ele>
        <time>2015-08-23T10:19:57.000Z</time>
      </trkpt>
      <trkpt lat="47.5077" lon="6.77577">
        <ele>314</ele>
        <time>2015-08-23T10:19:58.000Z</time>
      </trkpt>
      <trkpt lat="47.50774" lon="6.77581">
        <ele>314</ele>
        <time>2015-08-23T10:19:59.000Z</time>
      </trkpt>
      <trkpt lat="47.50778" lon="6.77584">
        <ele>314</ele>
        <time>2015-08-23T10:20:00.000Z</time>
      </trkpt>
      <trkpt lat="47.50782" lon="6.77588">
        <ele>315</ele>
        <time>2015-08-23T10:20:01.000Z</time>
      </trkpt>
      <trkpt lat="47.50786" lon="6.7759">
        <ele>315</ele>
        <time>2015-08-23T10:20:02.000Z</time>
      </trkpt>
      <trkpt lat="47.5079" lon="6.77593">
        <ele>315</ele>
        <time>2015-08-23T10:20:03.000Z</time>
      </trkpt>
      <trkpt lat="47.50793" lon="6.77596">
        <ele>315</ele>
        <time>2015-08-23T10:20:04.000Z</time>
      </trkpt>
      <trkpt lat="47.50797" lon="6.77598">
        <ele>315</ele>
        <time>2015-08-23T10:20:05.000Z</time>
      </trkpt>
      <trkpt lat="47.50802" lon="6.77603">
        <ele>315</ele>
        <time>2015-08-23T10:20:06.000Z</time>
      </trkpt>
      <trkpt lat="47.50807" lon="6.77607">
        <ele>315</ele>
        <time>2015-08-23T10:20:07.000Z</time>
      </trkpt>
      <trkpt lat="47.50811" lon="6.7761">
        <ele>316</ele>
        <time>2015-08-23T10:20:08.000Z</time>
      </trkpt>
      <trkpt lat="47.50814" lon="6.77615">
        <ele>316</ele>
        <time>2015-08-23T10:20:09.000Z</time>
      </trkpt>
      <trkpt lat="47.50816" lon="6.77618">
        <ele>316</ele>
        <time>2015-08-23T10:20:10.000Z</time>
      </trkpt>
      <trkpt lat="47.5082" lon="6.77624">
        <ele>316</ele>
        <time>2015-08-23T10:20:11.000Z</time>
      </trkpt>
      <trkpt lat="47.50823" lon="6.77628">
        <ele>316</ele>
        <time>2015-08-23T10:20:12.000Z</time>
      </trkpt>
      <trkpt lat="47.50828" lon="6.77633">
        <ele>316</ele>
        <time>2015-08-23T10:20:13.000Z</time>
      </trkpt>
      <trkpt lat="47.50834" lon="6.77637">
        <ele>317</ele>
        <time>2015-08-23T10:20:14.000Z</time>
      </trkpt>
      <trkpt lat="47.50837" lon="6.77641">
        <ele>317</ele>
        <time>2015-08-23T10:20:15.000Z</time>
      </trkpt>
      <trkpt lat="47.50841" lon="6.77646">
        <ele>317</ele>
        <time>2015-08-23T10:20:16.000Z</time>
      </trkpt>
      <trkpt lat="47.50846" lon="6.77651">
        <ele>317</ele>
        <time>2015-08-23T10:20:17.000Z</time>
      </trkpt>
      <trkpt lat="47.50849" lon="6.77656">
        <ele>317</ele>
        <time>2015-08-23T10:20:18.000Z</time>
      </trkpt>
      <trkpt lat="47.50852" lon="6.77662">
        <ele>317</ele>
        <time>2015-08-23T10:20:19.000Z</time>
      </trkpt>
      <trkpt lat="47.50856" lon="6.77668">
        <ele>316</ele>
        <time>2015-08-23T10:20:20.000Z</time>
      </trkpt>
      <trkpt lat="47.50859" lon="6.77674">
        <ele>316</ele>
        <time>2015-08-23T10:20:21.000Z</time>
      </trkpt>
      <trkpt lat="47.50863" lon="6.77679">
        <ele>316</ele>
        <time>2015-08-23T10:20:22.000Z</time>
      </trkpt>
      <trkpt lat="47.50866" lon="6.77684">
        <ele>316</ele>
        <time>2015-08-23T10:20:23.000Z</time>
      </trkpt>
      <trkpt lat="47.50869" lon="6.77689">
        <ele>316</ele>
        <time>2015-08-23T10:20:24.000Z</time>
      </trkpt>
      <trkpt lat="47.50872" lon="6.77694">
        <ele>316</ele>
        <time>2015-08-23T10:20:25.000Z</time>
      </trkpt>
      <trkpt lat="47.50875" lon="6.77699">
        <ele>316</ele>
        <time>2015-08-23T10:20:26.000Z</time>
      </trkpt>
      <trkpt lat="47.5088" lon="6.77702">
        <ele>316</ele>
        <time>2015-08-23T10:20:27.000Z</time>
      </trkpt>
      <trkpt lat="47.50886" lon="6.77705">
        <ele>316</ele>
        <time>2015-08-23T10:20:28.000Z</time>
      </trkpt>
      <trkpt lat="47.5089" lon="6.77704">
        <ele>316</ele>
        <time>2015-08-23T10:20:29.000Z</time>
      </trkpt>
      <trkpt lat="47.50896" lon="6.77703">
        <ele>316</ele>
        <time>2015-08-23T10:20:30.000Z</time>
      </trkpt>
      <trkpt lat="47.50901" lon="6.77703">
        <ele>316</ele>
        <time>2015-08-23T10:20:31.000Z</time>
      </trkpt>
      <trkpt lat="47.50905" lon="6.77703">
        <ele>316</ele>
        <time>2015-08-23T10:20:32.000Z</time>
      </trkpt>
      <trkpt lat="47.50909" lon="6.77702">
        <ele>316</ele>
        <time>2015-08-23T10:20:33.000Z</time>
      </trkpt>
      <trkpt lat="47.50913" lon="6.77702">
        <ele>316</ele>
        <time>2015-08-23T10:20:34.000Z</time>
      </trkpt>
      <trkpt lat="47.50917" lon="6.77701">
        <ele>315</ele>
        <time>2015-08-23T10:20:35.000Z</time>
      </trkpt>
      <trkpt lat="47.50921" lon="6.77702">
        <ele>315</ele>
        <time>2015-08-23T10:20:36.000Z</time>
      </trkpt>
      <trkpt lat="47.50925" lon="6.77703">
        <ele>315</ele>
        <time>2015-08-23T10:20:37.000Z</time>
      </trkpt>
      <trkpt lat="47.5093" lon="6.77704">
        <ele>315</ele>
        <time>2015-08-23T10:20:38.000Z</time>
      </trkpt>
      <trkpt lat="47.50934" lon="6.77704">
        <ele>315</ele>
        <time>2015-08-23T10:20:39.000Z</time>
      </trkpt>
      <trkpt lat="47.50937" lon="6.77703">
        <ele>315</ele>
        <time>2015-08-23T10:20:40.000Z</time>
      </trkpt>
      <trkpt lat="47.50941" lon="6.77702">
        <ele>315</ele>
        <time>2015-08-23T10:20:41.000Z</time>
      </trkpt>
      <trkpt lat="47.50943" lon="6.77701">
        <ele>315</ele>
        <time>2015-08-23T10:20:42.000Z</time>
      </trkpt>
      <trkpt lat="47.50946" lon="6.77701">
        <ele>315</ele>
        <time>2015-08-23T10:20:44.000Z</time>
      </trkpt>
      <trkpt lat="47.50948" lon="6.77701">
        <ele>315</ele>
        <time>2015-08-23T10:20:45.000Z</time>
      </trkpt>
      <trkpt lat="47.50951" lon="6.77701">
        <ele>315</ele>
        <time>2015-08-23T10:20:46.000Z</time>
      </trkpt>
      <trkpt lat="47.50954" lon="6.777">
        <ele>315</ele>
        <time>2015-08-23T10:20:47.000Z</time>
      </trkpt>
      <trkpt lat="47.50957" lon="6.77699">
        <ele>315</ele>
        <time>2015-08-23T10:20:48.000Z</time>
      </trkpt>
      <trkpt lat="47.50961" lon="6.77697">
        <ele>315</ele>
        <time>2015-08-23T10:20:49.000Z</time>
      </trkpt>
      <trkpt lat="47.50965" lon="6.77696">
        <ele>315</ele>
        <time>2015-08-23T10:20:50.000Z</time>
      </trkpt>
      <trkpt lat="47.50969" lon="6.77696">
        <ele>315</ele>
        <time>2015-08-23T10:20:51.000Z</time>
      </trkpt>
      <trkpt lat="47.50973" lon="6.77698">
        <ele>315</ele>
        <time>2015-08-23T10:20:52.000Z</time>
      </trkpt>
      <trkpt lat="47.50977" lon="6.77701">
        <ele>315</ele>
        <time>2015-08-23T10:20:53.000Z</time>
      </trkpt>
      <trkpt lat="47.50984" lon="6.7771">
        <ele>315</ele>
        <time>2015-08-23T10:20:54.000Z</time>
      </trkpt>
      <trkpt lat="47.50987" lon="6.77714">
        <ele>315</ele>
        <time>2015-08-23T10:20:55.000Z</time>
      </trkpt>
      <trkpt lat="47.50991" lon="6.77717">
        <ele>315</ele>
        <time>2015-08-23T10:20:56.000Z</time>
      </trkpt>
      <trkpt lat="47.50995" lon="6.77721">
        <ele>315</ele>
        <time>2015-08-23T10:20:56.998Z</time>
      </trkpt>
      <trkpt lat="47.50999" lon="6.77723">
        <ele>315</ele>
        <time>2015-08-23T10:20:58.000Z</time>
      </trkpt>
      <trkpt lat="47.51003" lon="6.77727">
        <ele>316</ele>
        <time>2015-08-23T10:20:59.000Z</time>
      </trkpt>
      <trkpt lat="47.51007" lon="6.7773">
        <ele>316</ele>
        <time>2015-08-23T10:21:00.000Z</time>
      </trkpt>
      <trkpt lat="47.51011" lon="6.77733">
        <ele>317</ele>
        <time>2015-08-23T10:21:01.000Z</time>
      </trkpt>
      <trkpt lat="47.51014" lon="6.77736">
        <ele>317</ele>
        <time>2015-08-23T10:21:02.000Z</time>
      </trkpt>
      <trkpt lat="47.51018" lon="6.77739">
        <ele>317</ele>
        <time>2015-08-23T10:21:03.000Z</time>
      </trkpt>
      <trkpt lat="47.51021" lon="6.77742">
        <ele>317</ele>
        <time>2015-08-23T10:21:04.000Z</time>
      </trkpt>
      <trkpt lat="47.51024" lon="6.77745">
        <ele>317</ele>
        <time>2015-08-23T10:21:05.000Z</time>
      </trkpt>
      <trkpt lat="47.51028" lon="6.77746">
        <ele>317</ele>
        <time>2015-08-23T10:21:06.000Z</time>
      </trkpt>
      <trkpt lat="47.51031" lon="6.77747">
        <ele>317</ele>
        <time>2015-08-23T10:21:07.000Z</time>
      </trkpt>
      <trkpt lat="47.51034" lon="6.7775">
        <ele>318</ele>
        <time>2015-08-23T10:21:08.000Z</time>
      </trkpt>
      <trkpt lat="47.51037" lon="6.77752">
        <ele>318</ele>
        <time>2015-08-23T10:21:09.000Z</time>
      </trkpt>
      <trkpt lat="47.5104" lon="6.77754">
        <ele>318</ele>
        <time>2015-08-23T10:21:10.000Z</time>
      </trkpt>
      <trkpt lat="47.51043" lon="6.77757">
        <ele>318</ele>
        <time>2015-08-23T10:21:11.000Z</time>
      </trkpt>
      <trkpt lat="47.51046" lon="6.77759">
        <ele>318</ele>
        <time>2015-08-23T10:21:12.000Z</time>
      </trkpt>
      <trkpt lat="47.51049" lon="6.77762">
        <ele>318</ele>
        <time>2015-08-23T10:21:13.000Z</time>
      </trkpt>
      <trkpt lat="47.51051" lon="6.77764">
        <ele>318</ele>
        <time>2015-08-23T10:21:14.000Z</time>
      </trkpt>
      <trkpt lat="47.51053" lon="6.77767">
        <ele>318</ele>
        <time>2015-08-23T10:21:15.000Z</time>
      </trkpt>
      <trkpt lat="47.51056" lon="6.7777">
        <ele>318</ele>
        <time>2015-08-23T10:21:16.000Z</time>
      </trkpt>
      <trkpt lat="47.51058" lon="6.77772">
        <ele>318</ele>
        <time>2015-08-23T10:21:17.000Z</time>
      </trkpt>
      <trkpt lat="47.51061" lon="6.77774">
        <ele>318</ele>
        <time>2015-08-23T10:21:18.000Z</time>
      </trkpt>
      <trkpt lat="47.51063" lon="6.77775">
        <ele>318</ele>
        <time>2015-08-23T10:21:19.000Z</time>
      </trkpt>
      <trkpt lat="47.51066" lon="6.77776">
        <ele>318</ele>
        <time>2015-08-23T10:21:20.000Z</time>
      </trkpt>
      <trkpt lat="47.5107" lon="6.77776">
        <ele>319</ele>
        <time>2015-08-23T10:21:21.000Z</time>
      </trkpt>
      <trkpt lat="47.51074" lon="6.77776">
        <ele>319</ele>
        <time>2015-08-23T10:21:22.000Z</time>
      </trkpt>
      <trkpt lat="47.51078" lon="6.77777">
        <ele>319</ele>
        <time>2015-08-23T10:21:23.000Z</time>
      </trkpt>
      <trkpt lat="47.51082" lon="6.77777">
        <ele>319</ele>
        <time>2015-08-23T10:21:24.000Z</time>
      </trkpt>
      <trkpt lat="47.51087" lon="6.77778">
        <ele>321</ele>
        <time>2015-08-23T10:21:25.000Z</time>
      </trkpt>
      <trkpt lat="47.51091" lon="6.77778">
        <ele>321</ele>
        <time>2015-08-23T10:21:26.000Z</time>
      </trkpt>
      <trkpt lat="47.51095" lon="6.77779">
        <ele>321</ele>
        <time>2015-08-23T10:21:27.000Z</time>
      </trkpt>
      <trkpt lat="47.51099" lon="6.77781">
        <ele>322</ele>
        <time>2015-08-23T10:21:28.000Z</time>
      </trkpt>
      <trkpt lat="47.51102" lon="6.77782">
        <ele>322</ele>
        <time>2015-08-23T10:21:29.000Z</time>
      </trkpt>
      <trkpt lat="47.51106" lon="6.77784">
        <ele>322</ele>
        <time>2015-08-23T10:21:30.000Z</time>
      </trkpt>
      <trkpt lat="47.51109" lon="6.77785">
        <ele>322</ele>
        <time>2015-08-23T10:21:31.000Z</time>
      </trkpt>
      <trkpt lat="47.51113" lon="6.77786">
        <ele>322</ele>
        <time>2015-08-23T10:21:32.000Z</time>
      </trkpt>
      <trkpt lat="47.51116" lon="6.77787">
        <ele>322</ele>
        <time>2015-08-23T10:21:33.000Z</time>
      </trkpt>
      <trkpt lat="47.5112" lon="6.77788">
        <ele>322</ele>
        <time>2015-08-23T10:21:34.000Z</time>
      </trkpt>
      <trkpt lat="47.51124" lon="6.77789">
        <ele>322</ele>
        <time>2015-08-23T10:21:35.000Z</time>
      </trkpt>
      <trkpt lat="47.51127" lon="6.7779">
        <ele>322</ele>
        <time>2015-08-23T10:21:36.000Z</time>
      </trkpt>
      <trkpt lat="47.5113" lon="6.77791">
        <ele>322</ele>
        <time>2015-08-23T10:21:37.000Z</time>
      </trkpt>
      <trkpt lat="47.51133" lon="6.77792">
        <ele>322</ele>
        <time>2015-08-23T10:21:38.000Z</time>
      </trkpt>
      <trkpt lat="47.51136" lon="6.77793">
        <ele>323</ele>
        <time>2015-08-23T10:21:39.000Z</time>
      </trkpt>
      <trkpt lat="47.5114" lon="6.77794">
        <ele>323</ele>
        <time>2015-08-23T10:21:40.000Z</time>
      </trkpt>
      <trkpt lat="47.51143" lon="6.77795">
        <ele>323</ele>
        <time>2015-08-23T10:21:41.000Z</time>
      </trkpt>
      <trkpt lat="47.51147" lon="6.77795">
        <ele>323</ele>
        <time>2015-08-23T10:21:42.000Z</time>
      </trkpt>
      <trkpt lat="47.5115" lon="6.77796">
        <ele>323</ele>
        <time>2015-08-23T10:21:43.000Z</time>
      </trkpt>
      <trkpt lat="47.51153" lon="6.77796">
        <ele>323</ele>
        <time>2015-08-23T10:21:44.000Z</time>
      </trkpt>
      <trkpt lat="47.51156" lon="6.77796">
        <ele>323</ele>
        <time>2015-08-23T10:21:45.000Z</time>
      </trkpt>
      <trkpt lat="47.5116" lon="6.77796">
        <ele>323</ele>
        <time>2015-08-23T10:21:46.000Z</time>
      </trkpt>
      <trkpt lat="47.51163" lon="6.77796">
        <ele>323</ele>
        <time>2015-08-23T10:21:47.000Z</time>
      </trkpt>
      <trkpt lat="47.51167" lon="6.77796">
        <ele>326</ele>
        <time>2015-08-23T10:21:48.000Z</time>
      </trkpt>
      <trkpt lat="47.51171" lon="6.77796">
        <ele>326</ele>
        <time>2015-08-23T10:21:49.000Z</time>
      </trkpt>
      <trkpt lat="47.51174" lon="6.77796">
        <ele>326</ele>
        <time>2015-08-23T10:21:50.000Z</time>
      </trkpt>
      <trkpt lat="47.51177" lon="6.77795">
        <ele>326</ele>
        <time>2015-08-23T10:21:51.000Z</time>
      </trkpt>
      <trkpt lat="47.5118" lon="6.77794">
        <ele>326</ele>
        <time>2015-08-23T10:21:52.000Z</time>
      </trkpt>
      <trkpt lat="47.51184" lon="6.77794">
        <ele>326</ele>
        <time>2015-08-23T10:21:53.000Z</time>
      </trkpt>
      <trkpt lat="47.51187" lon="6.77793">
        <ele>326</ele>
        <time>2015-08-23T10:21:54.000Z</time>
      </trkpt>
      <trkpt lat="47.5119" lon="6.77792">
        <ele>326</ele>
        <time>2015-08-23T10:21:55.000Z</time>
      </trkpt>
      <trkpt lat="47.51193" lon="6.77792">
        <ele>327</ele>
        <time>2015-08-23T10:21:56.000Z</time>
      </trkpt>
      <trkpt lat="47.51196" lon="6.77791">
        <ele>327</ele>
        <time>2015-08-23T10:21:57.000Z</time>
      </trkpt>
      <trkpt lat="47.51199" lon="6.77791">
        <ele>327</ele>
        <time>2015-08-23T10:21:58.000Z</time>
      </trkpt>
      <trkpt lat="47.51202" lon="6.7779">
        <ele>327</ele>
        <time>2015-08-23T10:21:59.000Z</time>
      </trkpt>
      <trkpt lat="47.51205" lon="6.7779">
        <ele>327</ele>
        <time>2015-08-23T10:22:00.000Z</time>
      </trkpt>
      <trkpt lat="47.51208" lon="6.7779">
        <ele>327</ele>
        <time>2015-08-23T10:22:00.998Z</time>
      </trkpt>
      <trkpt lat="47.5121" lon="6.77789">
        <ele>327</ele>
        <time>2015-08-23T10:22:02.000Z</time>
      </trkpt>
      <trkpt lat="47.51213" lon="6.77788">
        <ele>327</ele>
        <time>2015-08-23T10:22:03.000Z</time>
      </trkpt>
      <trkpt lat="47.51216" lon="6.77788">
        <ele>327</ele>
        <time>2015-08-23T10:22:04.000Z</time>
      </trkpt>
      <trkpt lat="47.51218" lon="6.77788">
        <ele>327</ele>
        <time>2015-08-23T10:22:05.000Z</time>
      </trkpt>
      <trkpt lat="47.51221" lon="6.77787">
        <ele>327</ele>
        <time>2015-08-23T10:22:06.000Z</time>
      </trkpt>
      <trkpt lat="47.51223" lon="6.77787">
        <ele>327</ele>
        <time>2015-08-23T10:22:07.000Z</time>
      </trkpt>
      <trkpt lat="47.51226" lon="6.77786">
        <ele>327</ele>
        <time>2015-08-23T10:22:08.000Z</time>
      </trkpt>
      <trkpt lat="47.51228" lon="6.77784">
        <ele>328</ele>
        <time>2015-08-23T10:22:09.000Z</time>
      </trkpt>
      <trkpt lat="47.5123" lon="6.77783">
        <ele>328</ele>
        <time>2015-08-23T10:22:10.000Z</time>
      </trkpt>
      <trkpt lat="47.51233" lon="6.77781">
        <ele>328</ele>
        <time>2015-08-23T10:22:11.000Z</time>
      </trkpt>
      <trkpt lat="47.51235" lon="6.77781">
        <ele>328</ele>
        <time>2015-08-23T10:22:12.000Z</time>
      </trkpt>
      <trkpt lat="47.51237" lon="6.77781">
        <ele>328</ele>
        <time>2015-08-23T10:22:13.000Z</time>
      </trkpt>
      <trkpt lat="47.51239" lon="6.77782">
        <ele>328</ele>
        <time>2015-08-23T10:22:14.000Z</time>
      </trkpt>
      <trkpt lat="47.51243" lon="6.77783">
        <ele>328</ele>
        <time>2015-08-23T10:22:16.000Z</time>
      </trkpt>
      <trkpt lat="47.51244" lon="6.77784">
        <ele>328</ele>
        <time>2015-08-23T10:22:17.000Z</time>
      </trkpt>
      <trkpt lat="47.51247" lon="6.77786">
        <ele>328</ele>
        <time>2015-08-23T10:22:21.000Z</time>
      </trkpt>
      <trkpt lat="47.51249" lon="6.77786">
        <ele>328</ele>
        <time>2015-08-23T10:22:22.000Z</time>
      </trkpt>
      <trkpt lat="47.51253" lon="6.77784">
        <ele>334</ele>
        <time>2015-08-23T10:22:24.000Z</time>
      </trkpt>
      <trkpt lat="47.51255" lon="6.77783">
        <ele>334</ele>
        <time>2015-08-23T10:22:25.000Z</time>
      </trkpt>
      <trkpt lat="47.51259" lon="6.77783">
        <ele>334</ele>
        <time>2015-08-23T10:22:27.000Z</time>
      </trkpt>
      <trkpt lat="47.51261" lon="6.77783">
        <ele>334</ele>
        <time>2015-08-23T10:22:28.000Z</time>
      </trkpt>
      <trkpt lat="47.51265" lon="6.77783">
        <ele>334</ele>
        <time>2015-08-23T10:22:30.000Z</time>
      </trkpt>
      <trkpt lat="47.51266" lon="6.77783">
        <ele>334</ele>
        <time>2015-08-23T10:22:31.000Z</time>
      </trkpt>
      <trkpt lat="47.5127" lon="6.77783">
        <ele>334</ele>
        <time>2015-08-23T10:22:34.000Z</time>
      </trkpt>
      <trkpt lat="47.51271" lon="6.77783">
        <ele>335</ele>
        <time>2015-08-23T10:22:35.000Z</time>
      </trkpt>
      <trkpt lat="47.51275" lon="6.77783">
        <ele>335</ele>
        <time>2015-08-23T10:22:37.000Z</time>
      </trkpt>
      <trkpt lat="47.51277" lon="6.77783">
        <ele>335</ele>
        <time>2015-08-23T10:22:38.000Z</time>
      </trkpt>
      <trkpt lat="47.51281" lon="6.77783">
        <ele>335</ele>
        <time>2015-08-23T10:22:40.000Z</time>
      </trkpt>
      <trkpt lat="47.51283" lon="6.77783">
        <ele>336</ele>
        <time>2015-08-23T10:22:41.000Z</time>
      </trkpt>
      <trkpt lat="47.51286" lon="6.77783">
        <ele>336</ele>
        <time>2015-08-23T10:22:42.000Z</time>
      </trkpt>
      <trkpt lat="47.51288" lon="6.77783">
        <ele>336</ele>
        <time>2015-08-23T10:22:43.000Z</time>
      </trkpt>
      <trkpt lat="47.51292" lon="6.77783">
        <ele>336</ele>
        <time>2015-08-23T10:22:45.000Z</time>
      </trkpt>
      <trkpt lat="47.51293" lon="6.77782">
        <ele>336</ele>
        <time>2015-08-23T10:22:46.000Z</time>
      </trkpt>
      <trkpt lat="47.51296" lon="6.77782">
        <ele>337</ele>
        <time>2015-08-23T10:22:48.000Z</time>
      </trkpt>
      <trkpt lat="47.51297" lon="6.77781">
        <ele>337</ele>
        <time>2015-08-23T10:22:49.000Z</time>
      </trkpt>
      <trkpt lat="47.51299" lon="6.77781">
        <ele>337</ele>
        <time>2015-08-23T10:22:50.000Z</time>
      </trkpt>
      <trkpt lat="47.51302" lon="6.7778">
        <ele>337</ele>
        <time>2015-08-23T10:22:51.000Z</time>
      </trkpt>
      <trkpt lat="47.51304" lon="6.77779">
        <ele>337</ele>
        <time>2015-08-23T10:22:52.000Z</time>
      </trkpt>
      <trkpt lat="47.51307" lon="6.77778">
        <ele>338</ele>
        <time>2015-08-23T10:22:53.000Z</time>
      </trkpt>
      <trkpt lat="47.51311" lon="6.77777">
        <ele>338</ele>
        <time>2015-08-23T10:22:55.000Z</time>
      </trkpt>
      <trkpt lat="47.51313" lon="6.77776">
        <ele>338</ele>
        <time>2015-08-23T10:22:56.000Z</time>
      </trkpt>
      <trkpt lat="47.51317" lon="6.77775">
        <ele>338</ele>
        <time>2015-08-23T10:22:58.000Z</time>
      </trkpt>
      <trkpt lat="47.51319" lon="6.77775">
        <ele>339</ele>
        <time>2015-08-23T10:22:59.000Z</time>
      </trkpt>
      <trkpt lat="47.51323" lon="6.77776">
        <ele>339</ele>
        <time>2015-08-23T10:23:01.000Z</time>
      </trkpt>
      <trkpt lat="47.51325" lon="6.77777">
        <ele>339</ele>
        <time>2015-08-23T10:23:02.000Z</time>
      </trkpt>
      <trkpt lat="47.51329" lon="6.77779">
        <ele>339</ele>
        <time>2015-08-23T10:23:04.000Z</time>
      </trkpt>
      <trkpt lat="47.51331" lon="6.7778">
        <ele>339</ele>
        <time>2015-08-23T10:23:05.000Z</time>
      </trkpt>
      <trkpt lat="47.51333" lon="6.77781">
        <ele>339</ele>
        <time>2015-08-23T10:23:06.000Z</time>
      </trkpt>
      <trkpt lat="47.51335" lon="6.77781">
        <ele>348</ele>
        <time>2015-08-23T10:23:07.000Z</time>
      </trkpt>
      <trkpt lat="47.51339" lon="6.77782">
        <ele>348</ele>
        <time>2015-08-23T10:23:09.000Z</time>
      </trkpt>
      <trkpt lat="47.51341" lon="6.77781">
        <ele>348</ele>
        <time>2015-08-23T10:23:10.000Z</time>
      </trkpt>
      <trkpt lat="47.51345" lon="6.77779">
        <ele>348</ele>
        <time>2015-08-23T10:23:12.000Z</time>
      </trkpt>
      <trkpt lat="47.51346" lon="6.77778">
        <ele>348</ele>
        <time>2015-08-23T10:23:13.000Z</time>
      </trkpt>
      <trkpt lat="47.51349" lon="6.77775">
        <ele>349</ele>
        <time>2015-08-23T10:23:15.000Z</time>
      </trkpt>
      <trkpt lat="47.51351" lon="6.77774">
        <ele>349</ele>
        <time>2015-08-23T10:23:16.000Z</time>
      </trkpt>
      <trkpt lat="47.51353" lon="6.77772">
        <ele>349</ele>
        <time>2015-08-23T10:23:17.000Z</time>
      </trkpt>
      <trkpt lat="47.51356" lon="6.77771">
        <ele>349</ele>
        <time>2015-08-23T10:23:18.000Z</time>
      </trkpt>
      <trkpt lat="47.51358" lon="6.77769">
        <ele>349</ele>
        <time>2015-08-23T10:23:19.000Z</time>
      </trkpt>
      <trkpt lat="47.51361" lon="6.77768">
        <ele>349</ele>
        <time>2015-08-23T10:23:20.000Z</time>
      </trkpt>
      <trkpt lat="47.51365" lon="6.77766">
        <ele>350</ele>
        <time>2015-08-23T10:23:22.000Z</time>
      </trkpt>
      <trkpt lat="47.51366" lon="6.77765">
        <ele>350</ele>
        <time>2015-08-23T10:23:23.000Z</time>
      </trkpt>
      <trkpt lat="47.5137" lon="6.77762">
        <ele>350</ele>
        <time>2015-08-23T10:23:25.000Z</time>
      </trkpt>
      <trkpt lat="47.51371" lon="6.77761">
        <ele>350</ele>
        <time>2015-08-23T10:23:26.000Z</time>
      </trkpt>
      <trkpt lat="47.51375" lon="6.7776">
        <ele>351</ele>
        <time>2015-08-23T10:23:28.000Z</time>
      </trkpt>
      <trkpt lat="47.51376" lon="6.77759">
        <ele>351</ele>
        <time>2015-08-23T10:23:29.000Z</time>
      </trkpt>
      <trkpt lat="47.5138" lon="6.77756">
        <ele>351</ele>
        <time>2015-08-23T10:23:31.000Z</time>
      </trkpt>
      <trkpt lat="47.51382" lon="6.77755">
        <ele>352</ele>
        <time>2015-08-23T10:23:32.000Z</time>
      </trkpt>
      <trkpt lat="47.51385" lon="6.77752">
        <ele>352</ele>
        <time>2015-08-23T10:23:34.000Z</time>
      </trkpt>
      <trkpt lat="47.51386" lon="6.77752">
        <ele>352</ele>
        <time>2015-08-23T10:23:35.000Z</time>
      </trkpt>
      <trkpt lat="47.5139" lon="6.7775">
        <ele>355</ele>
        <time>2015-08-23T10:23:37.000Z</time>
      </trkpt>
      <trkpt lat="47.51392" lon="6.77748">
        <ele>355</ele>
        <time>2015-08-23T10:23:38.000Z</time>
      </trkpt>
      <trkpt lat="47.51394" lon="6.77744">
        <ele>355</ele>
        <time>2015-08-23T10:23:40.000Z</time>
      </trkpt>
      <trkpt lat="47.51396" lon="6.77744">
        <ele>355</ele>
        <time>2015-08-23T10:23:41.000Z</time>
      </trkpt>
      <trkpt lat="47.51399" lon="6.77744">
        <ele>356</ele>
        <time>2015-08-23T10:23:43.000Z</time>
      </trkpt>
      <trkpt lat="47.51401" lon="6.77743">
        <ele>356</ele>
        <time>2015-08-23T10:23:44.000Z</time>
      </trkpt>
      <trkpt lat="47.51404" lon="6.77741">
        <ele>356</ele>
        <time>2015-08-23T10:23:46.000Z</time>
      </trkpt>
      <trkpt lat="47.51406" lon="6.77739">
        <ele>356</ele>
        <time>2015-08-23T10:23:47.000Z</time>
      </trkpt>
      <trkpt lat="47.5141" lon="6.77737">
        <ele>356</ele>
        <time>2015-08-23T10:23:49.000Z</time>
      </trkpt>
      <trkpt lat="47.51411" lon="6.77737">
        <ele>356</ele>
        <time>2015-08-23T10:23:50.000Z</time>
      </trkpt>
      <trkpt lat="47.51414" lon="6.77736">
        <ele>356</ele>
        <time>2015-08-23T10:23:52.000Z</time>
      </trkpt>
      <trkpt lat="47.51416" lon="6.77736">
        <ele>356</ele>
        <time>2015-08-23T10:23:53.000Z</time>
      </trkpt>
      <trkpt lat="47.5142" lon="6.77735">
        <ele>361</ele>
        <time>2015-08-23T10:23:55.000Z</time>
      </trkpt>
      <trkpt lat="47.51422" lon="6.77735">
        <ele>361</ele>
        <time>2015-08-23T10:23:56.000Z</time>
      </trkpt>
      <trkpt lat="47.51425" lon="6.77734">
        <ele>362</ele>
        <time>2015-08-23T10:23:59.000Z</time>
      </trkpt>
      <trkpt lat="47.51427" lon="6.77734">
        <ele>362</ele>
        <time>2015-08-23T10:24:00.000Z</time>
      </trkpt>
      <trkpt lat="47.5143" lon="6.77735">
        <ele>362</ele>
        <time>2015-08-23T10:24:02.000Z</time>
      </trkpt>
      <trkpt lat="47.51432" lon="6.77735">
        <ele>362</ele>
        <time>2015-08-23T10:24:03.000Z</time>
      </trkpt>
      <trkpt lat="47.51435" lon="6.77735">
        <ele>363</ele>
        <time>2015-08-23T10:24:04.000Z</time>
      </trkpt>
      <trkpt lat="47.51437" lon="6.77735">
        <ele>363</ele>
        <time>2015-08-23T10:24:05.000Z</time>
      </trkpt>
      <trkpt lat="47.51441" lon="6.77736">
        <ele>363</ele>
        <time>2015-08-23T10:24:08.000Z</time>
      </trkpt>
      <trkpt lat="47.51442" lon="6.77735">
        <ele>363</ele>
        <time>2015-08-23T10:24:09.000Z</time>
      </trkpt>
      <trkpt lat="47.51446" lon="6.77734">
        <ele>364</ele>
        <time>2015-08-23T10:24:11.000Z</time>
      </trkpt>
      <trkpt lat="47.51447" lon="6.77734">
        <ele>364</ele>
        <time>2015-08-23T10:24:12.000Z</time>
      </trkpt>
      <trkpt lat="47.51451" lon="6.77733">
        <ele>364</ele>
        <time>2015-08-23T10:24:14.000Z</time>
      </trkpt>
      <trkpt lat="47.51453" lon="6.77733">
        <ele>365</ele>
        <time>2015-08-23T10:24:15.000Z</time>
      </trkpt>
      <trkpt lat="47.51457" lon="6.77733">
        <ele>365</ele>
        <time>2015-08-23T10:24:17.000Z</time>
      </trkpt>
      <trkpt lat="47.51459" lon="6.77733">
        <ele>365</ele>
        <time>2015-08-23T10:24:18.000Z</time>
      </trkpt>
      <trkpt lat="47.51462" lon="6.77732">
        <ele>365</ele>
        <time>2015-08-23T10:24:20.000Z</time>
      </trkpt>
      <trkpt lat="47.51464" lon="6.77732">
        <ele>365</ele>
        <time>2015-08-23T10:24:21.000Z</time>
      </trkpt>
      <trkpt lat="47.51467" lon="6.77732">
        <ele>365</ele>
        <time>2015-08-23T10:24:23.000Z</time>
      </trkpt>
      <trkpt lat="47.51468" lon="6.77732">
        <ele>365</ele>
        <time>2015-08-23T10:24:24.000Z</time>
      </trkpt>
      <trkpt lat="47.51472" lon="6.77733">
        <ele>365</ele>
        <time>2015-08-23T10:24:26.000Z</time>
      </trkpt>
      <trkpt lat="47.51473" lon="6.77733">
        <ele>366</ele>
        <time>2015-08-23T10:24:27.000Z</time>
      </trkpt>
      <trkpt lat="47.51477" lon="6.77733">
        <ele>366</ele>
        <time>2015-08-23T10:24:29.000Z</time>
      </trkpt>
      <trkpt lat="47.51478" lon="6.77732">
        <ele>366</ele>
        <time>2015-08-23T10:24:30.000Z</time>
      </trkpt>
      <trkpt lat="47.51482" lon="6.77732">
        <ele>366</ele>
        <time>2015-08-23T10:24:32.000Z</time>
      </trkpt>
      <trkpt lat="47.51483" lon="6.77731">
        <ele>366</ele>
        <time>2015-08-23T10:24:33.000Z</time>
      </trkpt>
      <trkpt lat="47.51487" lon="6.77729">
        <ele>366</ele>
        <time>2015-08-23T10:24:35.000Z</time>
      </trkpt>
      <trkpt lat="47.51489" lon="6.77728">
        <ele>366</ele>
        <time>2015-08-23T10:24:36.000Z</time>
      </trkpt>
      <trkpt lat="47.51491" lon="6.77726">
        <ele>366</ele>
        <time>2015-08-23T10:24:38.000Z</time>
      </trkpt>
      <trkpt lat="47.51493" lon="6.77725">
        <ele>366</ele>
        <time>2015-08-23T10:24:39.000Z</time>
      </trkpt>
      <trkpt lat="47.51496" lon="6.77722">
        <ele>366</ele>
        <time>2015-08-23T10:24:41.000Z</time>
      </trkpt>
      <trkpt lat="47.51498" lon="6.77721">
        <ele>367</ele>
        <time>2015-08-23T10:24:42.000Z</time>
      </trkpt>
      <trkpt lat="47.51502" lon="6.77719">
        <ele>371</ele>
        <time>2015-08-23T10:24:44.000Z</time>
      </trkpt>
      <trkpt lat="47.51504" lon="6.77718">
        <ele>371</ele>
        <time>2015-08-23T10:24:45.000Z</time>
      </trkpt>
      <trkpt lat="47.51508" lon="6.77719">
        <ele>371</ele>
        <time>2015-08-23T10:24:48.000Z</time>
      </trkpt>
      <trkpt lat="47.51509" lon="6.7772">
        <ele>371</ele>
        <time>2015-08-23T10:24:49.000Z</time>
      </trkpt>
      <trkpt lat="47.51511" lon="6.77721">
        <ele>371</ele>
        <time>2015-08-23T10:24:51.000Z</time>
      </trkpt>
      <trkpt lat="47.51514" lon="6.77721">
        <ele>371</ele>
        <time>2015-08-23T10:24:52.000Z</time>
      </trkpt>
      <trkpt lat="47.51517" lon="6.7772">
        <ele>372</ele>
        <time>2015-08-23T10:24:54.000Z</time>
      </trkpt>
      <trkpt lat="47.51519" lon="6.7772">
        <ele>372</ele>
        <time>2015-08-23T10:24:55.000Z</time>
      </trkpt>
      <trkpt lat="47.51522" lon="6.77721">
        <ele>372</ele>
        <time>2015-08-23T10:24:59.000Z</time>
      </trkpt>
      <trkpt lat="47.51523" lon="6.77722">
        <ele>372</ele>
        <time>2015-08-23T10:25:00.000Z</time>
      </trkpt>
      <trkpt lat="47.51527" lon="6.77724">
        <ele>372</ele>
        <time>2015-08-23T10:25:02.000Z</time>
      </trkpt>
      <trkpt lat="47.51528" lon="6.77725">
        <ele>372</ele>
        <time>2015-08-23T10:25:03.000Z</time>
      </trkpt>
      <trkpt lat="47.51531" lon="6.77725">
        <ele>372</ele>
        <time>2015-08-23T10:25:05.000Z</time>
      </trkpt>
      <trkpt lat="47.51533" lon="6.77725">
        <ele>372</ele>
        <time>2015-08-23T10:25:06.000Z</time>
      </trkpt>
      <trkpt lat="47.51537" lon="6.77725">
        <ele>373</ele>
        <time>2015-08-23T10:25:08.000Z</time>
      </trkpt>
      <trkpt lat="47.51539" lon="6.77725">
        <ele>373</ele>
        <time>2015-08-23T10:25:09.000Z</time>
      </trkpt>
      <trkpt lat="47.51542" lon="6.77725">
        <ele>373</ele>
        <time>2015-08-23T10:25:11.000Z</time>
      </trkpt>
      <trkpt lat="47.51544" lon="6.77726">
        <ele>373</ele>
        <time>2015-08-23T10:25:12.000Z</time>
      </trkpt>
      <trkpt lat="47.51547" lon="6.77726">
        <ele>373</ele>
        <time>2015-08-23T10:25:14.000Z</time>
      </trkpt>
      <trkpt lat="47.51549" lon="6.77727">
        <ele>374</ele>
        <time>2015-08-23T10:25:15.000Z</time>
      </trkpt>
      <trkpt lat="47.51552" lon="6.77728">
        <ele>374</ele>
        <time>2015-08-23T10:25:17.000Z</time>
      </trkpt>
      <trkpt lat="47.51554" lon="6.77728">
        <ele>374</ele>
        <time>2015-08-23T10:25:18.000Z</time>
      </trkpt>
      <trkpt lat="47.51558" lon="6.7773">
        <ele>374</ele>
        <time>2015-08-23T10:25:20.000Z</time>
      </trkpt>
      <trkpt lat="47.51559" lon="6.77731">
        <ele>374</ele>
        <time>2015-08-23T10:25:21.000Z</time>
      </trkpt>
      <trkpt lat="47.51563" lon="6.77732">
        <ele>374</ele>
        <time>2015-08-23T10:25:24.000Z</time>
      </trkpt>
      <trkpt lat="47.51565" lon="6.77733">
        <ele>374</ele>
        <time>2015-08-23T10:25:25.000Z</time>
      </trkpt>
      <trkpt lat="47.51568" lon="6.77734">
        <ele>375</ele>
        <time>2015-08-23T10:25:27.000Z</time>
      </trkpt>
      <trkpt lat="47.51571" lon="6.77735">
        <ele>375</ele>
        <time>2015-08-23T10:25:28.000Z</time>
      </trkpt>
      <trkpt lat="47.51573" lon="6.77735">
        <ele>375</ele>
        <time>2015-08-23T10:25:29.000Z</time>
      </trkpt>
      <trkpt lat="47.51576" lon="6.77736">
        <ele>375</ele>
        <time>2015-08-23T10:25:30.000Z</time>
      </trkpt>
      <trkpt lat="47.51579" lon="6.77736">
        <ele>375</ele>
        <time>2015-08-23T10:25:32.000Z</time>
      </trkpt>
      <trkpt lat="47.51581" lon="6.77737">
        <ele>375</ele>
        <time>2015-08-23T10:25:33.000Z</time>
      </trkpt>
      <trkpt lat="47.51583" lon="6.77739">
        <ele>375</ele>
        <time>2015-08-23T10:25:35.000Z</time>
      </trkpt>
      <trkpt lat="47.51584" lon="6.77742">
        <ele>378</ele>
        <time>2015-08-23T10:25:36.000Z</time>
      </trkpt>
      <trkpt lat="47.51585" lon="6.77745">
        <ele>377</ele>
        <time>2015-08-23T10:25:37.000Z</time>
      </trkpt>
      <trkpt lat="47.51587" lon="6.77747">
        <ele>377</ele>
        <time>2015-08-23T10:25:38.000Z</time>
      </trkpt>
      <trkpt lat="47.5159" lon="6.77752">
        <ele>378</ele>
        <time>2015-08-23T10:25:40.000Z</time>
      </trkpt>
      <trkpt lat="47.51591" lon="6.77754">
        <ele>378</ele>
        <time>2015-08-23T10:25:41.000Z</time>
      </trkpt>
      <trkpt lat="47.51595" lon="6.77754">
        <ele>379</ele>
        <time>2015-08-23T10:25:44.000Z</time>
      </trkpt>
      <trkpt lat="47.51597" lon="6.77754">
        <ele>379</ele>
        <time>2015-08-23T10:25:45.000Z</time>
      </trkpt>
      <trkpt lat="47.51601" lon="6.77752">
        <ele>379</ele>
        <time>2015-08-23T10:25:47.000Z</time>
      </trkpt>
      <trkpt lat="47.51603" lon="6.77752">
        <ele>380</ele>
        <time>2015-08-23T10:25:48.000Z</time>
      </trkpt>
      <trkpt lat="47.51605" lon="6.77752">
        <ele>380</ele>
        <time>2015-08-23T10:25:49.000Z</time>
      </trkpt>
      <trkpt lat="47.51607" lon="6.77752">
        <ele>380</ele>
        <time>2015-08-23T10:25:50.000Z</time>
      </trkpt>
      <trkpt lat="47.5161" lon="6.77752">
        <ele>380</ele>
        <time>2015-08-23T10:25:51.000Z</time>
      </trkpt>
      <trkpt lat="47.51612" lon="6.77752">
        <ele>380</ele>
        <time>2015-08-23T10:25:52.000Z</time>
      </trkpt>
      <trkpt lat="47.51617" lon="6.77752">
        <ele>381</ele>
        <time>2015-08-23T10:25:54.000Z</time>
      </trkpt>
      <trkpt lat="47.51618" lon="6.77752">
        <ele>381</ele>
        <time>2015-08-23T10:25:55.000Z</time>
      </trkpt>
      <trkpt lat="47.51622" lon="6.77753">
        <ele>381</ele>
        <time>2015-08-23T10:25:57.000Z</time>
      </trkpt>
      <trkpt lat="47.51623" lon="6.77754">
        <ele>381</ele>
        <time>2015-08-23T10:25:58.000Z</time>
      </trkpt>
      <trkpt lat="47.51627" lon="6.77755">
        <ele>382</ele>
        <time>2015-08-23T10:26:00.000Z</time>
      </trkpt>
      <trkpt lat="47.51629" lon="6.77755">
        <ele>382</ele>
        <time>2015-08-23T10:26:01.000Z</time>
      </trkpt>
      <trkpt lat="47.51632" lon="6.77756">
        <ele>382</ele>
        <time>2015-08-23T10:26:03.000Z</time>
      </trkpt>
      <trkpt lat="47.51634" lon="6.77757">
        <ele>382</ele>
        <time>2015-08-23T10:26:04.000Z</time>
      </trkpt>
      <trkpt lat="47.51638" lon="6.77759">
        <ele>382</ele>
        <time>2015-08-23T10:26:07.000Z</time>
      </trkpt>
      <trkpt lat="47.5164" lon="6.77759">
        <ele>382</ele>
        <time>2015-08-23T10:26:08.000Z</time>
      </trkpt>
      <trkpt lat="47.51643" lon="6.77759">
        <ele>382</ele>
        <time>2015-08-23T10:26:10.000Z</time>
      </trkpt>
      <trkpt lat="47.51645" lon="6.77759">
        <ele>382</ele>
        <time>2015-08-23T10:26:11.000Z</time>
      </trkpt>
      <trkpt lat="47.51649" lon="6.77759">
        <ele>382</ele>
        <time>2015-08-23T10:26:13.000Z</time>
      </trkpt>
      <trkpt lat="47.51651" lon="6.7776">
        <ele>383</ele>
        <time>2015-08-23T10:26:14.000Z</time>
      </trkpt>
      <trkpt lat="47.51654" lon="6.7776">
        <ele>383</ele>
        <time>2015-08-23T10:26:15.000Z</time>
      </trkpt>
      <trkpt lat="47.51657" lon="6.77761">
        <ele>383</ele>
        <time>2015-08-23T10:26:16.000Z</time>
      </trkpt>
      <trkpt lat="47.51659" lon="6.77761">
        <ele>383</ele>
        <time>2015-08-23T10:26:17.000Z</time>
      </trkpt>
      <trkpt lat="47.51662" lon="6.77762">
        <ele>383</ele>
        <time>2015-08-23T10:26:18.000Z</time>
      </trkpt>
      <trkpt lat="47.51664" lon="6.77763">
        <ele>383</ele>
        <time>2015-08-23T10:26:19.000Z</time>
      </trkpt>
      <trkpt lat="47.51666" lon="6.77764">
        <ele>383</ele>
        <time>2015-08-23T10:26:20.000Z</time>
      </trkpt>
      <trkpt lat="47.51669" lon="6.77765">
        <ele>384</ele>
        <time>2015-08-23T10:26:21.000Z</time>
      </trkpt>
      <trkpt lat="47.51671" lon="6.77766">
        <ele>385</ele>
        <time>2015-08-23T10:26:22.000Z</time>
      </trkpt>
      <trkpt lat="47.51674" lon="6.77767">
        <ele>385</ele>
        <time>2015-08-23T10:26:23.000Z</time>
      </trkpt>
      <trkpt lat="47.51676" lon="6.77768">
        <ele>385</ele>
        <time>2015-08-23T10:26:24.000Z</time>
      </trkpt>
      <trkpt lat="47.5168" lon="6.7777">
        <ele>385</ele>
        <time>2015-08-23T10:26:26.000Z</time>
      </trkpt>
      <trkpt lat="47.51682" lon="6.77771">
        <ele>385</ele>
        <time>2015-08-23T10:26:27.000Z</time>
      </trkpt>
      <trkpt lat="47.51686" lon="6.77772">
        <ele>385</ele>
        <time>2015-08-23T10:26:29.000Z</time>
      </trkpt>
      <trkpt lat="47.51689" lon="6.77773">
        <ele>385</ele>
        <time>2015-08-23T10:26:30.000Z</time>
      </trkpt>
      <trkpt lat="47.51691" lon="6.77773">
        <ele>385</ele>
        <time>2015-08-23T10:26:31.000Z</time>
      </trkpt>
      <trkpt lat="47.51693" lon="6.77773">
        <ele>385</ele>
        <time>2015-08-23T10:26:32.000Z</time>
      </trkpt>
      <trkpt lat="47.51698" lon="6.77772">
        <ele>386</ele>
        <time>2015-08-23T10:26:34.000Z</time>
      </trkpt>
      <trkpt lat="47.517" lon="6.77771">
        <ele>386</ele>
        <time>2015-08-23T10:26:35.000Z</time>
      </trkpt>
      <trkpt lat="47.51703" lon="6.77768">
        <ele>386</ele>
        <time>2015-08-23T10:26:37.000Z</time>
      </trkpt>
      <trkpt lat="47.51704" lon="6.77766">
        <ele>386</ele>
        <time>2015-08-23T10:26:38.000Z</time>
      </trkpt>
      <trkpt lat="47.51705" lon="6.77763">
        <ele>386</ele>
        <time>2015-08-23T10:26:39.000Z</time>
      </trkpt>
      <trkpt lat="47.51706" lon="6.7776">
        <ele>386</ele>
        <time>2015-08-23T10:26:40.000Z</time>
      </trkpt>
      <trkpt lat="47.51707" lon="6.77757">
        <ele>386</ele>
        <time>2015-08-23T10:26:41.000Z</time>
      </trkpt>
      <trkpt lat="47.51708" lon="6.77753">
        <ele>386</ele>
        <time>2015-08-23T10:26:42.000Z</time>
      </trkpt>
      <trkpt lat="47.51709" lon="6.7775">
        <ele>387</ele>
        <time>2015-08-23T10:26:43.000Z</time>
      </trkpt>
      <trkpt lat="47.51709" lon="6.77746">
        <ele>387</ele>
        <time>2015-08-23T10:26:44.000Z</time>
      </trkpt>
      <trkpt lat="47.5171" lon="6.77743">
        <ele>387</ele>
        <time>2015-08-23T10:26:45.000Z</time>
      </trkpt>
      <trkpt lat="47.5171" lon="6.77739">
        <ele>387</ele>
        <time>2015-08-23T10:26:46.000Z</time>
      </trkpt>
      <trkpt lat="47.5171" lon="6.77735">
        <ele>387</ele>
        <time>2015-08-23T10:26:47.000Z</time>
      </trkpt>
      <trkpt lat="47.5171" lon="6.77732">
        <ele>387</ele>
        <time>2015-08-23T10:26:48.000Z</time>
      </trkpt>
      <trkpt lat="47.5171" lon="6.77728">
        <ele>387</ele>
        <time>2015-08-23T10:26:49.000Z</time>
      </trkpt>
      <trkpt lat="47.5171" lon="6.77724">
        <ele>387</ele>
        <time>2015-08-23T10:26:50.000Z</time>
      </trkpt>
      <trkpt lat="47.51711" lon="6.77721">
        <ele>387</ele>
        <time>2015-08-23T10:26:51.000Z</time>
      </trkpt>
      <trkpt lat="47.51711" lon="6.77717">
        <ele>387</ele>
        <time>2015-08-23T10:26:52.000Z</time>
      </trkpt>
      <trkpt lat="47.51712" lon="6.77714">
        <ele>388</ele>
        <time>2015-08-23T10:26:53.000Z</time>
      </trkpt>
      <trkpt lat="47.51712" lon="6.77711">
        <ele>388</ele>
        <time>2015-08-23T10:26:54.000Z</time>
      </trkpt>
      <trkpt lat="47.51712" lon="6.77704">
        <ele>388</ele>
        <time>2015-08-23T10:26:56.000Z</time>
      </trkpt>
      <trkpt lat="47.51711" lon="6.77701">
        <ele>388</ele>
        <time>2015-08-23T10:26:57.000Z</time>
      </trkpt>
      <trkpt lat="47.51711" lon="6.77696">
        <ele>388</ele>
        <time>2015-08-23T10:26:59.000Z</time>
      </trkpt>
      <trkpt lat="47.51711" lon="6.77693">
        <ele>388</ele>
        <time>2015-08-23T10:27:00.000Z</time>
      </trkpt>
      <trkpt lat="47.51711" lon="6.7769">
        <ele>388</ele>
        <time>2015-08-23T10:27:01.000Z</time>
      </trkpt>
      <trkpt lat="47.51711" lon="6.77686">
        <ele>388</ele>
        <time>2015-08-23T10:27:02.000Z</time>
      </trkpt>
      <trkpt lat="47.51711" lon="6.77683">
        <ele>388</ele>
        <time>2015-08-23T10:27:03.000Z</time>
      </trkpt>
      <trkpt lat="47.51711" lon="6.77679">
        <ele>388</ele>
        <time>2015-08-23T10:27:04.000Z</time>
      </trkpt>
      <trkpt lat="47.51711" lon="6.77675">
        <ele>388</ele>
        <time>2015-08-23T10:27:05.000Z</time>
      </trkpt>
      <trkpt lat="47.51711" lon="6.77672">
        <ele>388</ele>
        <time>2015-08-23T10:27:06.000Z</time>
      </trkpt>
      <trkpt lat="47.51711" lon="6.77668">
        <ele>388</ele>
        <time>2015-08-23T10:27:07.000Z</time>
      </trkpt>
      <trkpt lat="47.51712" lon="6.77664">
        <ele>390</ele>
        <time>2015-08-23T10:27:08.000Z</time>
      </trkpt>
      <trkpt lat="47.51712" lon="6.77661">
        <ele>390</ele>
        <time>2015-08-23T10:27:09.000Z</time>
      </trkpt>
      <trkpt lat="47.51712" lon="6.77657">
        <ele>390</ele>
        <time>2015-08-23T10:27:10.000Z</time>
      </trkpt>
      <trkpt lat="47.51712" lon="6.77653">
        <ele>390</ele>
        <time>2015-08-23T10:27:11.000Z</time>
      </trkpt>
      <trkpt lat="47.51713" lon="6.77649">
        <ele>390</ele>
        <time>2015-08-23T10:27:12.000Z</time>
      </trkpt>
      <trkpt lat="47.51713" lon="6.77645">
        <ele>390</ele>
        <time>2015-08-23T10:27:13.000Z</time>
      </trkpt>
      <trkpt lat="47.51713" lon="6.77641">
        <ele>390</ele>
        <time>2015-08-23T10:27:14.000Z</time>
      </trkpt>
      <trkpt lat="47.51713" lon="6.77638">
        <ele>390</ele>
        <time>2015-08-23T10:27:15.000Z</time>
      </trkpt>
      <trkpt lat="47.51712" lon="6.77634">
        <ele>390</ele>
        <time>2015-08-23T10:27:16.000Z</time>
      </trkpt>
      <trkpt lat="47.51712" lon="6.7763">
        <ele>390</ele>
        <time>2015-08-23T10:27:17.000Z</time>
      </trkpt>
      <trkpt lat="47.51711" lon="6.77626">
        <ele>390</ele>
        <time>2015-08-23T10:27:18.000Z</time>
      </trkpt>
      <trkpt lat="47.51711" lon="6.77622">
        <ele>390</ele>
        <time>2015-08-23T10:27:19.000Z</time>
      </trkpt>
      <trkpt lat="47.51711" lon="6.77618">
        <ele>390</ele>
        <time>2015-08-23T10:27:20.000Z</time>
      </trkpt>
      <trkpt lat="47.51712" lon="6.77614">
        <ele>390</ele>
        <time>2015-08-23T10:27:21.000Z</time>
      </trkpt>
      <trkpt lat="47.51712" lon="6.77611">
        <ele>390</ele>
        <time>2015-08-23T10:27:22.000Z</time>
      </trkpt>
      <trkpt lat="47.51712" lon="6.77607">
        <ele>390</ele>
        <time>2015-08-23T10:27:23.000Z</time>
      </trkpt>
      <trkpt lat="47.51712" lon="6.77603">
        <ele>390</ele>
        <time>2015-08-23T10:27:24.000Z</time>
      </trkpt>
      <trkpt lat="47.51713" lon="6.77599">
        <ele>390</ele>
        <time>2015-08-23T10:27:25.000Z</time>
      </trkpt>
      <trkpt lat="47.51713" lon="6.77595">
        <ele>390</ele>
        <time>2015-08-23T10:27:26.000Z</time>
      </trkpt>
      <trkpt lat="47.51714" lon="6.77592">
        <ele>390</ele>
        <time>2015-08-23T10:27:27.000Z</time>
      </trkpt>
      <trkpt lat="47.51716" lon="6.7759">
        <ele>390</ele>
        <time>2015-08-23T10:27:28.000Z</time>
      </trkpt>
      <trkpt lat="47.51719" lon="6.77588">
        <ele>390</ele>
        <time>2015-08-23T10:27:29.000Z</time>
      </trkpt>
      <trkpt lat="47.51721" lon="6.77586">
        <ele>390</ele>
        <time>2015-08-23T10:27:30.000Z</time>
      </trkpt>
      <trkpt lat="47.51723" lon="6.77584">
        <ele>390</ele>
        <time>2015-08-23T10:27:31.000Z</time>
      </trkpt>
      <trkpt lat="47.51724" lon="6.7758">
        <ele>391</ele>
        <time>2015-08-23T10:27:32.000Z</time>
      </trkpt>
      <trkpt lat="47.51723" lon="6.77576">
        <ele>391</ele>
        <time>2015-08-23T10:27:33.000Z</time>
      </trkpt>
      <trkpt lat="47.51722" lon="6.77571">
        <ele>390</ele>
        <time>2015-08-23T10:27:34.000Z</time>
      </trkpt>
      <trkpt lat="47.51721" lon="6.77567">
        <ele>390</ele>
        <time>2015-08-23T10:27:35.000Z</time>
      </trkpt>
      <trkpt lat="47.5172" lon="6.77563">
        <ele>390</ele>
        <time>2015-08-23T10:27:36.000Z</time>
      </trkpt>
      <trkpt lat="47.5172" lon="6.77558">
        <ele>390</ele>
        <time>2015-08-23T10:27:37.000Z</time>
      </trkpt>
      <trkpt lat="47.5172" lon="6.77554">
        <ele>390</ele>
        <time>2015-08-23T10:27:38.000Z</time>
      </trkpt>
      <trkpt lat="47.51721" lon="6.7755">
        <ele>390</ele>
        <time>2015-08-23T10:27:39.000Z</time>
      </trkpt>
      <trkpt lat="47.51722" lon="6.77545">
        <ele>390</ele>
        <time>2015-08-23T10:27:40.000Z</time>
      </trkpt>
      <trkpt lat="47.51723" lon="6.77541">
        <ele>390</ele>
        <time>2015-08-23T10:27:41.000Z</time>
      </trkpt>
      <trkpt lat="47.51724" lon="6.77536">
        <ele>390</ele>
        <time>2015-08-23T10:27:42.000Z</time>
      </trkpt>
      <trkpt lat="47.51724" lon="6.77532">
        <ele>390</ele>
        <time>2015-08-23T10:27:43.000Z</time>
      </trkpt>
      <trkpt lat="47.51725" lon="6.77528">
        <ele>390</ele>
        <time>2015-08-23T10:27:44.000Z</time>
      </trkpt>
      <trkpt lat="47.51725" lon="6.77524">
        <ele>390</ele>
        <time>2015-08-23T10:27:45.000Z</time>
      </trkpt>
      <trkpt lat="47.51726" lon="6.7752">
        <ele>390</ele>
        <time>2015-08-23T10:27:46.000Z</time>
      </trkpt>
      <trkpt lat="47.51727" lon="6.77516">
        <ele>390</ele>
        <time>2015-08-23T10:27:47.000Z</time>
      </trkpt>
      <trkpt lat="47.51728" lon="6.77512">
        <ele>390</ele>
        <time>2015-08-23T10:27:48.000Z</time>
      </trkpt>
      <trkpt lat="47.51728" lon="6.77508">
        <ele>390</ele>
        <time>2015-08-23T10:27:49.000Z</time>
      </trkpt>
      <trkpt lat="47.51729" lon="6.77504">
        <ele>390</ele>
        <time>2015-08-23T10:27:50.000Z</time>
      </trkpt>
      <trkpt lat="47.5173" lon="6.775">
        <ele>389</ele>
        <time>2015-08-23T10:27:51.000Z</time>
      </trkpt>
      <trkpt lat="47.5173" lon="6.77495">
        <ele>389</ele>
        <time>2015-08-23T10:27:52.000Z</time>
      </trkpt>
      <trkpt lat="47.51731" lon="6.7749">
        <ele>389</ele>
        <time>2015-08-23T10:27:53.000Z</time>
      </trkpt>
      <trkpt lat="47.51732" lon="6.77485">
        <ele>389</ele>
        <time>2015-08-23T10:27:54.000Z</time>
      </trkpt>
      <trkpt lat="47.51733" lon="6.7748">
        <ele>389</ele>
        <time>2015-08-23T10:27:55.000Z</time>
      </trkpt>
      <trkpt lat="47.51735" lon="6.77476">
        <ele>389</ele>
        <time>2015-08-23T10:27:56.000Z</time>
      </trkpt>
      <trkpt lat="47.51738" lon="6.77474">
        <ele>389</ele>
        <time>2015-08-23T10:27:57.000Z</time>
      </trkpt>
      <trkpt lat="47.51741" lon="6.77474">
        <ele>389</ele>
        <time>2015-08-23T10:27:58.000Z</time>
      </trkpt>
      <trkpt lat="47.51743" lon="6.77475">
        <ele>389</ele>
        <time>2015-08-23T10:27:59.000Z</time>
      </trkpt>
      <trkpt lat="47.51746" lon="6.77476">
        <ele>389</ele>
        <time>2015-08-23T10:28:00.000Z</time>
      </trkpt>
      <trkpt lat="47.5175" lon="6.77478">
        <ele>389</ele>
        <time>2015-08-23T10:28:02.000Z</time>
      </trkpt>
      <trkpt lat="47.51752" lon="6.77479">
        <ele>389</ele>
        <time>2015-08-23T10:28:03.000Z</time>
      </trkpt>
      <trkpt lat="47.51755" lon="6.7748">
        <ele>389</ele>
        <time>2015-08-23T10:28:05.000Z</time>
      </trkpt>
      <trkpt lat="47.51757" lon="6.7748">
        <ele>389</ele>
        <time>2015-08-23T10:28:06.000Z</time>
      </trkpt>
      <trkpt lat="47.51759" lon="6.77481">
        <ele>389</ele>
        <time>2015-08-23T10:28:07.000Z</time>
      </trkpt>
      <trkpt lat="47.51762" lon="6.77482">
        <ele>389</ele>
        <time>2015-08-23T10:28:08.000Z</time>
      </trkpt>
      <trkpt lat="47.51764" lon="6.77483">
        <ele>389</ele>
        <time>2015-08-23T10:28:09.000Z</time>
      </trkpt>
      <trkpt lat="47.51767" lon="6.77484">
        <ele>389</ele>
        <time>2015-08-23T10:28:10.000Z</time>
      </trkpt>
      <trkpt lat="47.51769" lon="6.77484">
        <ele>389</ele>
        <time>2015-08-23T10:28:11.000Z</time>
      </trkpt>
      <trkpt lat="47.51772" lon="6.77484">
        <ele>388</ele>
        <time>2015-08-23T10:28:12.001Z</time>
      </trkpt>
      <trkpt lat="47.51775" lon="6.77485">
        <ele>388</ele>
        <time>2015-08-23T10:28:13.000Z</time>
      </trkpt>
      <trkpt lat="47.51778" lon="6.77486">
        <ele>388</ele>
        <time>2015-08-23T10:28:14.000Z</time>
      </trkpt>
      <trkpt lat="47.51782" lon="6.77487">
        <ele>388</ele>
        <time>2015-08-23T10:28:15.000Z</time>
      </trkpt>
      <trkpt lat="47.51785" lon="6.77488">
        <ele>388</ele>
        <time>2015-08-23T10:28:16.000Z</time>
      </trkpt>
      <trkpt lat="47.51789" lon="6.7749">
        <ele>388</ele>
        <time>2015-08-23T10:28:17.000Z</time>
      </trkpt>
      <trkpt lat="47.51793" lon="6.77491">
        <ele>388</ele>
        <time>2015-08-23T10:28:18.000Z</time>
      </trkpt>
      <trkpt lat="47.51798" lon="6.77495">
        <ele>388</ele>
        <time>2015-08-23T10:28:19.000Z</time>
      </trkpt>
      <trkpt lat="47.51801" lon="6.77498">
        <ele>388</ele>
        <time>2015-08-23T10:28:20.000Z</time>
      </trkpt>
      <trkpt lat="47.51804" lon="6.77502">
        <ele>389</ele>
        <time>2015-08-23T10:28:21.000Z</time>
      </trkpt>
      <trkpt lat="47.51807" lon="6.77492">
        <ele>388</ele>
        <time>2015-08-23T10:28:22.000Z</time>
      </trkpt>
      <trkpt lat="47.51803" lon="6.77489">
        <ele>388</ele>
        <time>2015-08-23T10:28:39.000Z</time>
      </trkpt>
      <trkpt lat="47.51801" lon="6.77489">
        <ele>388</ele>
        <time>2015-08-23T10:28:40.000Z</time>
      </trkpt>
      <trkpt lat="47.51797" lon="6.77485">
        <ele>388</ele>
        <time>2015-08-23T10:28:42.000Z</time>
      </trkpt>
      <trkpt lat="47.51796" lon="6.77484">
        <ele>388</ele>
        <time>2015-08-23T10:28:43.000Z</time>
      </trkpt>
      <trkpt lat="47.51797" lon="6.77489">
        <ele>388</ele>
        <time>2015-08-23T10:28:46.000Z</time>
      </trkpt>
      <trkpt lat="47.51797" lon="6.77492">
        <ele>388</ele>
        <time>2015-08-23T10:28:46.999Z</time>
      </trkpt>
      <trkpt lat="47.51803" lon="6.77492">
        <ele>388</ele>
        <time>2015-08-23T10:28:48.000Z</time>
      </trkpt>
      <trkpt lat="47.51806" lon="6.77489">
        <ele>388</ele>
        <time>2015-08-23T10:28:49.000Z</time>
      </trkpt>
      <trkpt lat="47.51809" lon="6.77484">
        <ele>388</ele>
        <time>2015-08-23T10:28:50.000Z</time>
      </trkpt>
      <trkpt lat="47.5181" lon="6.77478">
        <ele>388</ele>
        <time>2015-08-23T10:28:51.000Z</time>
      </trkpt>
      <trkpt lat="47.51811" lon="6.77472">
        <ele>388</ele>
        <time>2015-08-23T10:28:52.000Z</time>
      </trkpt>
      <trkpt lat="47.51811" lon="6.77467">
        <ele>388</ele>
        <time>2015-08-23T10:28:52.999Z</time>
      </trkpt>
      <trkpt lat="47.5181" lon="6.77463">
        <ele>388</ele>
        <time>2015-08-23T10:28:54.000Z</time>
      </trkpt>
      <trkpt lat="47.51806" lon="6.7746">
        <ele>388</ele>
        <time>2015-08-23T10:29:12.000Z</time>
      </trkpt>
      <trkpt lat="47.51805" lon="6.7746">
        <ele>388</ele>
        <time>2015-08-23T10:29:13.000Z</time>
      </trkpt>
      <trkpt lat="47.51801" lon="6.77458">
        <ele>388</ele>
        <time>2015-08-23T10:29:53.000Z</time>
      </trkpt>
      <trkpt lat="47.51801" lon="6.77457">
        <ele>388</ele>
        <time>2015-08-23T10:29:54.000Z</time>
      </trkpt>
      <trkpt lat="47.51796" lon="6.77458">
        <ele>388</ele>
        <time>2015-08-23T10:30:00.000Z</time>
      </trkpt>
      <trkpt lat="47.51796" lon="6.7746">
        <ele>388</ele>
        <time>2015-08-23T10:30:01.000Z</time>
      </trkpt>
      <trkpt lat="47.51796" lon="6.77467">
        <ele>388</ele>
        <time>2015-08-23T10:30:05.000Z</time>
      </trkpt>
      <trkpt lat="47.51796" lon="6.77468">
        <ele>388</ele>
        <time>2015-08-23T10:30:06.000Z</time>
      </trkpt>
      <trkpt lat="47.51797" lon="6.77474">
        <ele>388</ele>
        <time>2015-08-23T10:30:09.000Z</time>
      </trkpt>
      <trkpt lat="47.51798" lon="6.77476">
        <ele>388</ele>
        <time>2015-08-23T10:30:10.000Z</time>
      </trkpt>
      <trkpt lat="47.51802" lon="6.77474">
        <ele>388</ele>
        <time>2015-08-23T10:30:17.000Z</time>
      </trkpt>
      <trkpt lat="47.51802" lon="6.77474">
        <ele>388</ele>
        <time>2015-08-23T10:30:18.000Z</time>
      </trkpt>
      <trkpt lat="47.51802" lon="6.77476">
        <ele>388</ele>
        <time>2015-08-23T10:31:02.000Z</time>
      </trkpt>
      <trkpt lat="47.518" lon="6.77509">
        <ele>389</ele>
        <time>2015-08-23T10:31:03.000Z</time>
      </trkpt>
      <trkpt lat="47.51802" lon="6.77476">
        <ele>388</ele>
        <time>2015-08-23T10:31:04.000Z</time>
      </trkpt>
      <trkpt lat="47.51799" lon="6.77471">
        <ele>388</ele>
        <time>2015-08-23T10:36:28.000Z</time>
      </trkpt>
      <trkpt lat="47.51799" lon="6.77471">
        <ele>388</ele>
        <time>2015-08-23T10:36:29.000Z</time>
      </trkpt>
      <trkpt lat="47.51799" lon="6.77471">
        <ele>388</ele>
        <time>2015-08-23T10:39:35.000Z</time>
      </trkpt>
    </trkseg>
  </trk>
</gpx>